<?xml version="1.0" encoding="UTF-8" standalone="no" ?>
<gpx xmlns="http://www.topografix.com/GPX/1/1" xmlns:xsi="http://www.w3.org/2001/XMLSchema-instance" xsi:schemaLocation="http://www.topografix.com/GPX/1/1 http://www.topografix.com/GPX/1/1/gpx.xsd" version="1.1" creator="VisuGPX - https://www.visugpx.com">
  <metadata>
    <name>Raid des Rapaces 2012</name>
    <desc><![CDATA[Raid des Rapaces organisé par le 1er RCP de Pamiers avec VTT, canoë, course à pied et CO.]]></desc>
  </metadata>
  <trk>
    <name><![CDATA[Raid des Rapaces 2012_1]]></name>
    <trkseg>
      <trkpt lat="43.13338" lon="1.64914">
        <ele>297</ele>
        <time>2012-09-23T07:27:09Z</time>
      </trkpt>
      <trkpt lat="43.13339" lon="1.64876">
        <ele>295</ele>
        <time>2012-09-23T07:27:52Z</time>
      </trkpt>
      <trkpt lat="43.13342" lon="1.64862">
        <ele>295</ele>
        <time>2012-09-23T07:27:54Z</time>
      </trkpt>
      <trkpt lat="43.13347" lon="1.64848">
        <ele>295</ele>
        <time>2012-09-23T07:27:56Z</time>
      </trkpt>
      <trkpt lat="43.13354" lon="1.64835">
        <ele>294</ele>
        <time>2012-09-23T07:27:58Z</time>
      </trkpt>
      <trkpt lat="43.13359" lon="1.64821">
        <ele>293</ele>
        <time>2012-09-23T07:28:00Z</time>
      </trkpt>
      <trkpt lat="43.13359" lon="1.64804">
        <ele>292</ele>
        <time>2012-09-23T07:28:02Z</time>
      </trkpt>
      <trkpt lat="43.13354" lon="1.64785">
        <ele>292</ele>
        <time>2012-09-23T07:28:04Z</time>
      </trkpt>
      <trkpt lat="43.13345" lon="1.64768">
        <ele>292</ele>
        <time>2012-09-23T07:28:06Z</time>
      </trkpt>
      <trkpt lat="43.13332" lon="1.64757">
        <ele>292</ele>
        <time>2012-09-23T07:28:08Z</time>
      </trkpt>
      <trkpt lat="43.13316" lon="1.64752">
        <ele>292</ele>
        <time>2012-09-23T07:28:10Z</time>
      </trkpt>
      <trkpt lat="43.133" lon="1.64754">
        <ele>292</ele>
        <time>2012-09-23T07:28:12Z</time>
      </trkpt>
      <trkpt lat="43.13285" lon="1.64761">
        <ele>292</ele>
        <time>2012-09-23T07:28:14Z</time>
      </trkpt>
      <trkpt lat="43.1327" lon="1.6477">
        <ele>292</ele>
        <time>2012-09-23T07:28:16Z</time>
      </trkpt>
      <trkpt lat="43.13255" lon="1.64778">
        <ele>292</ele>
        <time>2012-09-23T07:28:18Z</time>
      </trkpt>
      <trkpt lat="43.1324" lon="1.64786">
        <ele>292</ele>
        <time>2012-09-23T07:28:20Z</time>
      </trkpt>
      <trkpt lat="43.13227" lon="1.64795">
        <ele>292</ele>
        <time>2012-09-23T07:28:22Z</time>
      </trkpt>
      <trkpt lat="43.13213" lon="1.64803">
        <ele>292</ele>
        <time>2012-09-23T07:28:24Z</time>
      </trkpt>
      <trkpt lat="43.13199" lon="1.64811">
        <ele>292</ele>
        <time>2012-09-23T07:28:26Z</time>
      </trkpt>
      <trkpt lat="43.13186" lon="1.64819">
        <ele>292</ele>
        <time>2012-09-23T07:28:28Z</time>
      </trkpt>
      <trkpt lat="43.13172" lon="1.64827">
        <ele>292</ele>
        <time>2012-09-23T07:28:30Z</time>
      </trkpt>
      <trkpt lat="43.13158" lon="1.64835">
        <ele>292</ele>
        <time>2012-09-23T07:28:32Z</time>
      </trkpt>
      <trkpt lat="43.13145" lon="1.64842">
        <ele>292</ele>
        <time>2012-09-23T07:28:34Z</time>
      </trkpt>
      <trkpt lat="43.13132" lon="1.64845">
        <ele>292</ele>
        <time>2012-09-23T07:28:36Z</time>
      </trkpt>
      <trkpt lat="43.13121" lon="1.64833">
        <ele>292</ele>
        <time>2012-09-23T07:28:38Z</time>
      </trkpt>
      <trkpt lat="43.13114" lon="1.64814">
        <ele>292</ele>
        <time>2012-09-23T07:28:40Z</time>
      </trkpt>
      <trkpt lat="43.13107" lon="1.64794">
        <ele>292</ele>
        <time>2012-09-23T07:28:42Z</time>
      </trkpt>
      <trkpt lat="43.131" lon="1.64772">
        <ele>292</ele>
        <time>2012-09-23T07:28:44Z</time>
      </trkpt>
      <trkpt lat="43.13095" lon="1.64749">
        <ele>292</ele>
        <time>2012-09-23T07:28:46Z</time>
      </trkpt>
      <trkpt lat="43.13091" lon="1.64724">
        <ele>292</ele>
        <time>2012-09-23T07:28:48Z</time>
      </trkpt>
      <trkpt lat="43.13087" lon="1.64699">
        <ele>292</ele>
        <time>2012-09-23T07:28:50Z</time>
      </trkpt>
      <trkpt lat="43.13085" lon="1.64673">
        <ele>292</ele>
        <time>2012-09-23T07:28:52Z</time>
      </trkpt>
      <trkpt lat="43.13085" lon="1.64647">
        <ele>292</ele>
        <time>2012-09-23T07:28:54Z</time>
      </trkpt>
      <trkpt lat="43.1309" lon="1.64621">
        <ele>292</ele>
        <time>2012-09-23T07:28:56Z</time>
      </trkpt>
      <trkpt lat="43.13098" lon="1.64596">
        <ele>292</ele>
        <time>2012-09-23T07:28:58Z</time>
      </trkpt>
      <trkpt lat="43.13107" lon="1.64571">
        <ele>292</ele>
        <time>2012-09-23T07:29:00Z</time>
      </trkpt>
      <trkpt lat="43.13113" lon="1.64545">
        <ele>292</ele>
        <time>2012-09-23T07:29:02Z</time>
      </trkpt>
      <trkpt lat="43.13111" lon="1.6452">
        <ele>292</ele>
        <time>2012-09-23T07:29:04Z</time>
      </trkpt>
      <trkpt lat="43.13098" lon="1.64499">
        <ele>292</ele>
        <time>2012-09-23T07:29:06Z</time>
      </trkpt>
      <trkpt lat="43.13084" lon="1.64481">
        <ele>292</ele>
        <time>2012-09-23T07:29:08Z</time>
      </trkpt>
      <trkpt lat="43.13072" lon="1.6446">
        <ele>292</ele>
        <time>2012-09-23T07:29:10Z</time>
      </trkpt>
      <trkpt lat="43.13064" lon="1.64437">
        <ele>292</ele>
        <time>2012-09-23T07:29:12Z</time>
      </trkpt>
      <trkpt lat="43.13057" lon="1.64413">
        <ele>292</ele>
        <time>2012-09-23T07:29:14Z</time>
      </trkpt>
      <trkpt lat="43.13051" lon="1.64388">
        <ele>292</ele>
        <time>2012-09-23T07:29:16Z</time>
      </trkpt>
      <trkpt lat="43.13046" lon="1.64363">
        <ele>292</ele>
        <time>2012-09-23T07:29:18Z</time>
      </trkpt>
      <trkpt lat="43.13041" lon="1.64339">
        <ele>292</ele>
        <time>2012-09-23T07:29:20Z</time>
      </trkpt>
      <trkpt lat="43.13034" lon="1.64315">
        <ele>292</ele>
        <time>2012-09-23T07:29:22Z</time>
      </trkpt>
      <trkpt lat="43.13029" lon="1.64292">
        <ele>292</ele>
        <time>2012-09-23T07:29:24Z</time>
      </trkpt>
      <trkpt lat="43.13022" lon="1.64268">
        <ele>292</ele>
        <time>2012-09-23T07:29:26Z</time>
      </trkpt>
      <trkpt lat="43.13013" lon="1.64246">
        <ele>292</ele>
        <time>2012-09-23T07:29:28Z</time>
      </trkpt>
      <trkpt lat="43.13004" lon="1.64224">
        <ele>292</ele>
        <time>2012-09-23T07:29:30Z</time>
      </trkpt>
      <trkpt lat="43.12998" lon="1.64201">
        <ele>292</ele>
        <time>2012-09-23T07:29:32Z</time>
      </trkpt>
      <trkpt lat="43.12995" lon="1.64176">
        <ele>292</ele>
        <time>2012-09-23T07:29:34Z</time>
      </trkpt>
      <trkpt lat="43.12993" lon="1.64152">
        <ele>292</ele>
        <time>2012-09-23T07:29:36Z</time>
      </trkpt>
      <trkpt lat="43.1299" lon="1.64128">
        <ele>292</ele>
        <time>2012-09-23T07:29:38Z</time>
      </trkpt>
      <trkpt lat="43.12981" lon="1.64093">
        <ele>292</ele>
        <time>2012-09-23T07:29:41Z</time>
      </trkpt>
      <trkpt lat="43.12972" lon="1.64073">
        <ele>292</ele>
        <time>2012-09-23T07:29:43Z</time>
      </trkpt>
      <trkpt lat="43.12958" lon="1.64058">
        <ele>292</ele>
        <time>2012-09-23T07:29:45Z</time>
      </trkpt>
      <trkpt lat="43.12943" lon="1.64046">
        <ele>292</ele>
        <time>2012-09-23T07:29:47Z</time>
      </trkpt>
      <trkpt lat="43.12932" lon="1.64027">
        <ele>292</ele>
        <time>2012-09-23T07:29:49Z</time>
      </trkpt>
      <trkpt lat="43.12926" lon="1.64003">
        <ele>292</ele>
        <time>2012-09-23T07:29:51Z</time>
      </trkpt>
      <trkpt lat="43.12922" lon="1.63979">
        <ele>292</ele>
        <time>2012-09-23T07:29:53Z</time>
      </trkpt>
      <trkpt lat="43.12917" lon="1.63955">
        <ele>292</ele>
        <time>2012-09-23T07:29:55Z</time>
      </trkpt>
      <trkpt lat="43.12915" lon="1.63931">
        <ele>292</ele>
        <time>2012-09-23T07:29:57Z</time>
      </trkpt>
      <trkpt lat="43.12913" lon="1.63906">
        <ele>292</ele>
        <time>2012-09-23T07:29:59Z</time>
      </trkpt>
      <trkpt lat="43.12911" lon="1.63882">
        <ele>292</ele>
        <time>2012-09-23T07:30:01Z</time>
      </trkpt>
      <trkpt lat="43.12909" lon="1.63856">
        <ele>292</ele>
        <time>2012-09-23T07:30:03Z</time>
      </trkpt>
      <trkpt lat="43.12905" lon="1.63832">
        <ele>292</ele>
        <time>2012-09-23T07:30:05Z</time>
      </trkpt>
      <trkpt lat="43.129" lon="1.63808">
        <ele>292</ele>
        <time>2012-09-23T07:30:07Z</time>
      </trkpt>
      <trkpt lat="43.12895" lon="1.63784">
        <ele>292</ele>
        <time>2012-09-23T07:30:09Z</time>
      </trkpt>
      <trkpt lat="43.1289" lon="1.6376">
        <ele>292</ele>
        <time>2012-09-23T07:30:11Z</time>
      </trkpt>
      <trkpt lat="43.12884" lon="1.63737">
        <ele>292</ele>
        <time>2012-09-23T07:30:13Z</time>
      </trkpt>
      <trkpt lat="43.12877" lon="1.63714">
        <ele>292</ele>
        <time>2012-09-23T07:30:15Z</time>
      </trkpt>
      <trkpt lat="43.12867" lon="1.63693">
        <ele>292</ele>
        <time>2012-09-23T07:30:17Z</time>
      </trkpt>
      <trkpt lat="43.12856" lon="1.63673">
        <ele>292</ele>
        <time>2012-09-23T07:30:19Z</time>
      </trkpt>
      <trkpt lat="43.12846" lon="1.63653">
        <ele>292</ele>
        <time>2012-09-23T07:30:21Z</time>
      </trkpt>
      <trkpt lat="43.12838" lon="1.63631">
        <ele>292</ele>
        <time>2012-09-23T07:30:23Z</time>
      </trkpt>
      <trkpt lat="43.12831" lon="1.63608">
        <ele>292</ele>
        <time>2012-09-23T07:30:25Z</time>
      </trkpt>
      <trkpt lat="43.12825" lon="1.63585">
        <ele>292</ele>
        <time>2012-09-23T07:30:27Z</time>
      </trkpt>
      <trkpt lat="43.12813" lon="1.63568">
        <ele>292</ele>
        <time>2012-09-23T07:30:29Z</time>
      </trkpt>
      <trkpt lat="43.12797" lon="1.63562">
        <ele>292</ele>
        <time>2012-09-23T07:30:31Z</time>
      </trkpt>
      <trkpt lat="43.12781" lon="1.63558">
        <ele>292</ele>
        <time>2012-09-23T07:30:33Z</time>
      </trkpt>
      <trkpt lat="43.12765" lon="1.63552">
        <ele>292</ele>
        <time>2012-09-23T07:30:35Z</time>
      </trkpt>
      <trkpt lat="43.12751" lon="1.63544">
        <ele>292</ele>
        <time>2012-09-23T07:30:37Z</time>
      </trkpt>
      <trkpt lat="43.12737" lon="1.63534">
        <ele>292</ele>
        <time>2012-09-23T07:30:39Z</time>
      </trkpt>
      <trkpt lat="43.12724" lon="1.63523">
        <ele>292</ele>
        <time>2012-09-23T07:30:41Z</time>
      </trkpt>
      <trkpt lat="43.12711" lon="1.63513">
        <ele>292</ele>
        <time>2012-09-23T07:30:43Z</time>
      </trkpt>
      <trkpt lat="43.12698" lon="1.63502">
        <ele>292</ele>
        <time>2012-09-23T07:30:45Z</time>
      </trkpt>
      <trkpt lat="43.12685" lon="1.63489">
        <ele>292</ele>
        <time>2012-09-23T07:30:47Z</time>
      </trkpt>
      <trkpt lat="43.12673" lon="1.63477">
        <ele>292</ele>
        <time>2012-09-23T07:30:49Z</time>
      </trkpt>
      <trkpt lat="43.12661" lon="1.63465">
        <ele>292</ele>
        <time>2012-09-23T07:30:51Z</time>
      </trkpt>
      <trkpt lat="43.12649" lon="1.63453">
        <ele>292</ele>
        <time>2012-09-23T07:30:53Z</time>
      </trkpt>
      <trkpt lat="43.12636" lon="1.6344">
        <ele>292</ele>
        <time>2012-09-23T07:30:55Z</time>
      </trkpt>
      <trkpt lat="43.12622" lon="1.63427">
        <ele>292</ele>
        <time>2012-09-23T07:30:57Z</time>
      </trkpt>
      <trkpt lat="43.12608" lon="1.63415">
        <ele>292</ele>
        <time>2012-09-23T07:30:59Z</time>
      </trkpt>
      <trkpt lat="43.12594" lon="1.63404">
        <ele>292</ele>
        <time>2012-09-23T07:31:01Z</time>
      </trkpt>
      <trkpt lat="43.12579" lon="1.63393">
        <ele>292</ele>
        <time>2012-09-23T07:31:03Z</time>
      </trkpt>
      <trkpt lat="43.12566" lon="1.63382">
        <ele>292</ele>
        <time>2012-09-23T07:31:05Z</time>
      </trkpt>
      <trkpt lat="43.12554" lon="1.6337">
        <ele>293</ele>
        <time>2012-09-23T07:31:07Z</time>
      </trkpt>
      <trkpt lat="43.12543" lon="1.63355">
        <ele>293</ele>
        <time>2012-09-23T07:31:09Z</time>
      </trkpt>
      <trkpt lat="43.12533" lon="1.63338">
        <ele>293</ele>
        <time>2012-09-23T07:31:11Z</time>
      </trkpt>
      <trkpt lat="43.12522" lon="1.6332">
        <ele>293</ele>
        <time>2012-09-23T07:31:13Z</time>
      </trkpt>
      <trkpt lat="43.12511" lon="1.63301">
        <ele>293</ele>
        <time>2012-09-23T07:31:15Z</time>
      </trkpt>
      <trkpt lat="43.125" lon="1.63282">
        <ele>293</ele>
        <time>2012-09-23T07:31:17Z</time>
      </trkpt>
      <trkpt lat="43.12489" lon="1.63262">
        <ele>293</ele>
        <time>2012-09-23T07:31:19Z</time>
      </trkpt>
      <trkpt lat="43.12479" lon="1.63242">
        <ele>293</ele>
        <time>2012-09-23T07:31:21Z</time>
      </trkpt>
      <trkpt lat="43.12469" lon="1.63222">
        <ele>293</ele>
        <time>2012-09-23T07:31:23Z</time>
      </trkpt>
      <trkpt lat="43.12459" lon="1.63202">
        <ele>293</ele>
        <time>2012-09-23T07:31:25Z</time>
      </trkpt>
      <trkpt lat="43.12449" lon="1.63182">
        <ele>293</ele>
        <time>2012-09-23T07:31:27Z</time>
      </trkpt>
      <trkpt lat="43.12439" lon="1.63163">
        <ele>293</ele>
        <time>2012-09-23T07:31:29Z</time>
      </trkpt>
      <trkpt lat="43.12427" lon="1.63145">
        <ele>293</ele>
        <time>2012-09-23T07:31:31Z</time>
      </trkpt>
      <trkpt lat="43.12413" lon="1.6313">
        <ele>293</ele>
        <time>2012-09-23T07:31:33Z</time>
      </trkpt>
      <trkpt lat="43.124" lon="1.63112">
        <ele>293</ele>
        <time>2012-09-23T07:31:35Z</time>
      </trkpt>
      <trkpt lat="43.12396" lon="1.63088">
        <ele>293</ele>
        <time>2012-09-23T07:31:37Z</time>
      </trkpt>
      <trkpt lat="43.12397" lon="1.63063">
        <ele>293</ele>
        <time>2012-09-23T07:31:39Z</time>
      </trkpt>
      <trkpt lat="43.12397" lon="1.63038">
        <ele>293</ele>
        <time>2012-09-23T07:31:41Z</time>
      </trkpt>
      <trkpt lat="43.12399" lon="1.63013">
        <ele>293</ele>
        <time>2012-09-23T07:31:43Z</time>
      </trkpt>
      <trkpt lat="43.124" lon="1.62987">
        <ele>293</ele>
        <time>2012-09-23T07:31:45Z</time>
      </trkpt>
      <trkpt lat="43.12399" lon="1.62962">
        <ele>293</ele>
        <time>2012-09-23T07:31:47Z</time>
      </trkpt>
      <trkpt lat="43.12392" lon="1.6294">
        <ele>293</ele>
        <time>2012-09-23T07:31:49Z</time>
      </trkpt>
      <trkpt lat="43.12378" lon="1.62925">
        <ele>293</ele>
        <time>2012-09-23T07:31:51Z</time>
      </trkpt>
      <trkpt lat="43.1236" lon="1.62923">
        <ele>293</ele>
        <time>2012-09-23T07:31:53Z</time>
      </trkpt>
      <trkpt lat="43.12342" lon="1.62926">
        <ele>293</ele>
        <time>2012-09-23T07:31:55Z</time>
      </trkpt>
      <trkpt lat="43.12325" lon="1.6293">
        <ele>293</ele>
        <time>2012-09-23T07:31:57Z</time>
      </trkpt>
      <trkpt lat="43.12308" lon="1.62933">
        <ele>293</ele>
        <time>2012-09-23T07:31:59Z</time>
      </trkpt>
      <trkpt lat="43.12291" lon="1.62936">
        <ele>293</ele>
        <time>2012-09-23T07:32:01Z</time>
      </trkpt>
      <trkpt lat="43.12275" lon="1.62941">
        <ele>293</ele>
        <time>2012-09-23T07:32:03Z</time>
      </trkpt>
      <trkpt lat="43.12259" lon="1.62945">
        <ele>293</ele>
        <time>2012-09-23T07:32:05Z</time>
      </trkpt>
      <trkpt lat="43.12244" lon="1.6295">
        <ele>293</ele>
        <time>2012-09-23T07:32:07Z</time>
      </trkpt>
      <trkpt lat="43.12228" lon="1.62953">
        <ele>293</ele>
        <time>2012-09-23T07:32:09Z</time>
      </trkpt>
      <trkpt lat="43.12212" lon="1.62956">
        <ele>293</ele>
        <time>2012-09-23T07:32:11Z</time>
      </trkpt>
      <trkpt lat="43.12197" lon="1.62958">
        <ele>293</ele>
        <time>2012-09-23T07:32:13Z</time>
      </trkpt>
      <trkpt lat="43.12181" lon="1.6296">
        <ele>293</ele>
        <time>2012-09-23T07:32:15Z</time>
      </trkpt>
      <trkpt lat="43.12166" lon="1.62962">
        <ele>293</ele>
        <time>2012-09-23T07:32:17Z</time>
      </trkpt>
      <trkpt lat="43.12151" lon="1.62965">
        <ele>293</ele>
        <time>2012-09-23T07:32:19Z</time>
      </trkpt>
      <trkpt lat="43.12135" lon="1.62967">
        <ele>293</ele>
        <time>2012-09-23T07:32:21Z</time>
      </trkpt>
      <trkpt lat="43.1212" lon="1.6297">
        <ele>293</ele>
        <time>2012-09-23T07:32:23Z</time>
      </trkpt>
      <trkpt lat="43.12105" lon="1.62973">
        <ele>293</ele>
        <time>2012-09-23T07:32:25Z</time>
      </trkpt>
      <trkpt lat="43.1209" lon="1.62978">
        <ele>293</ele>
        <time>2012-09-23T07:32:27Z</time>
      </trkpt>
      <trkpt lat="43.12075" lon="1.62981">
        <ele>293</ele>
        <time>2012-09-23T07:32:29Z</time>
      </trkpt>
      <trkpt lat="43.12059" lon="1.62984">
        <ele>293</ele>
        <time>2012-09-23T07:32:31Z</time>
      </trkpt>
      <trkpt lat="43.12044" lon="1.62986">
        <ele>293</ele>
        <time>2012-09-23T07:32:33Z</time>
      </trkpt>
      <trkpt lat="43.12029" lon="1.62988">
        <ele>293</ele>
        <time>2012-09-23T07:32:35Z</time>
      </trkpt>
      <trkpt lat="43.12014" lon="1.62991">
        <ele>294</ele>
        <time>2012-09-23T07:32:37Z</time>
      </trkpt>
      <trkpt lat="43.11999" lon="1.62994">
        <ele>294</ele>
        <time>2012-09-23T07:32:39Z</time>
      </trkpt>
      <trkpt lat="43.11985" lon="1.62997">
        <ele>295</ele>
        <time>2012-09-23T07:32:41Z</time>
      </trkpt>
      <trkpt lat="43.11971" lon="1.63">
        <ele>295</ele>
        <time>2012-09-23T07:32:43Z</time>
      </trkpt>
      <trkpt lat="43.11957" lon="1.63003">
        <ele>295</ele>
        <time>2012-09-23T07:32:45Z</time>
      </trkpt>
      <trkpt lat="43.11943" lon="1.63006">
        <ele>295</ele>
        <time>2012-09-23T07:32:47Z</time>
      </trkpt>
      <trkpt lat="43.1193" lon="1.6301">
        <ele>295</ele>
        <time>2012-09-23T07:32:49Z</time>
      </trkpt>
      <trkpt lat="43.11916" lon="1.63014">
        <ele>295</ele>
        <time>2012-09-23T07:32:51Z</time>
      </trkpt>
      <trkpt lat="43.11904" lon="1.63019">
        <ele>295</ele>
        <time>2012-09-23T07:32:53Z</time>
      </trkpt>
      <trkpt lat="43.11891" lon="1.63021">
        <ele>295</ele>
        <time>2012-09-23T07:32:55Z</time>
      </trkpt>
      <trkpt lat="43.11881" lon="1.63028">
        <ele>295</ele>
        <time>2012-09-23T07:32:57Z</time>
      </trkpt>
      <trkpt lat="43.11879" lon="1.63042">
        <ele>295</ele>
        <time>2012-09-23T07:32:59Z</time>
      </trkpt>
      <trkpt lat="43.11876" lon="1.63055">
        <ele>295</ele>
        <time>2012-09-23T07:33:01Z</time>
      </trkpt>
      <trkpt lat="43.11873" lon="1.63053">
        <ele>295</ele>
        <time>2012-09-23T07:33:03Z</time>
      </trkpt>
      <trkpt lat="43.11875" lon="1.63042">
        <ele>295</ele>
        <time>2012-09-23T07:33:05Z</time>
      </trkpt>
      <trkpt lat="43.11877" lon="1.63024">
        <ele>295</ele>
        <time>2012-09-23T07:33:07Z</time>
      </trkpt>
      <trkpt lat="43.11879" lon="1.63006">
        <ele>295</ele>
        <time>2012-09-23T07:33:09Z</time>
      </trkpt>
      <trkpt lat="43.1188" lon="1.62987">
        <ele>295</ele>
        <time>2012-09-23T07:33:11Z</time>
      </trkpt>
      <trkpt lat="43.11887" lon="1.62966">
        <ele>294</ele>
        <time>2012-09-23T07:33:13Z</time>
      </trkpt>
      <trkpt lat="43.11891" lon="1.62949">
        <ele>292</ele>
        <time>2012-09-23T07:33:15Z</time>
      </trkpt>
      <trkpt lat="43.11894" lon="1.62933">
        <ele>290</ele>
        <time>2012-09-23T07:33:17Z</time>
      </trkpt>
      <trkpt lat="43.11896" lon="1.62916">
        <ele>290</ele>
        <time>2012-09-23T07:33:19Z</time>
      </trkpt>
      <trkpt lat="43.11897" lon="1.62899">
        <ele>290</ele>
        <time>2012-09-23T07:33:21Z</time>
      </trkpt>
      <trkpt lat="43.11897" lon="1.6288">
        <ele>290</ele>
        <time>2012-09-23T07:33:23Z</time>
      </trkpt>
      <trkpt lat="43.11896" lon="1.62861">
        <ele>290</ele>
        <time>2012-09-23T07:33:25Z</time>
      </trkpt>
      <trkpt lat="43.11895" lon="1.62841">
        <ele>290</ele>
        <time>2012-09-23T07:33:27Z</time>
      </trkpt>
      <trkpt lat="43.11893" lon="1.62821">
        <ele>290</ele>
        <time>2012-09-23T07:33:29Z</time>
      </trkpt>
      <trkpt lat="43.1189" lon="1.628">
        <ele>290</ele>
        <time>2012-09-23T07:33:31Z</time>
      </trkpt>
      <trkpt lat="43.11885" lon="1.62779">
        <ele>290</ele>
        <time>2012-09-23T07:33:33Z</time>
      </trkpt>
      <trkpt lat="43.11876" lon="1.62762">
        <ele>290</ele>
        <time>2012-09-23T07:33:35Z</time>
      </trkpt>
      <trkpt lat="43.11863" lon="1.62752">
        <ele>290</ele>
        <time>2012-09-23T07:33:37Z</time>
      </trkpt>
      <trkpt lat="43.11858" lon="1.62737">
        <ele>290</ele>
        <time>2012-09-23T07:33:39Z</time>
      </trkpt>
      <trkpt lat="43.11862" lon="1.62721">
        <ele>290</ele>
        <time>2012-09-23T07:33:41Z</time>
      </trkpt>
      <trkpt lat="43.11871" lon="1.62705">
        <ele>290</ele>
        <time>2012-09-23T07:33:43Z</time>
      </trkpt>
      <trkpt lat="43.11883" lon="1.6269">
        <ele>290</ele>
        <time>2012-09-23T07:33:45Z</time>
      </trkpt>
      <trkpt lat="43.11896" lon="1.62675">
        <ele>290</ele>
        <time>2012-09-23T07:33:47Z</time>
      </trkpt>
      <trkpt lat="43.11909" lon="1.62661">
        <ele>290</ele>
        <time>2012-09-23T07:33:49Z</time>
      </trkpt>
      <trkpt lat="43.11922" lon="1.6265">
        <ele>290</ele>
        <time>2012-09-23T07:33:51Z</time>
      </trkpt>
      <trkpt lat="43.11937" lon="1.62643">
        <ele>291</ele>
        <time>2012-09-23T07:33:53Z</time>
      </trkpt>
      <trkpt lat="43.11952" lon="1.62636">
        <ele>291</ele>
        <time>2012-09-23T07:33:55Z</time>
      </trkpt>
      <trkpt lat="43.11968" lon="1.62629">
        <ele>291</ele>
        <time>2012-09-23T07:33:57Z</time>
      </trkpt>
      <trkpt lat="43.11984" lon="1.62622">
        <ele>292</ele>
        <time>2012-09-23T07:33:59Z</time>
      </trkpt>
      <trkpt lat="43.12001" lon="1.62616">
        <ele>292</ele>
        <time>2012-09-23T07:34:01Z</time>
      </trkpt>
      <trkpt lat="43.12017" lon="1.6261">
        <ele>292</ele>
        <time>2012-09-23T07:34:03Z</time>
      </trkpt>
      <trkpt lat="43.12034" lon="1.62606">
        <ele>292</ele>
        <time>2012-09-23T07:34:05Z</time>
      </trkpt>
      <trkpt lat="43.12051" lon="1.62601">
        <ele>292</ele>
        <time>2012-09-23T07:34:07Z</time>
      </trkpt>
      <trkpt lat="43.12068" lon="1.62596">
        <ele>293</ele>
        <time>2012-09-23T07:34:09Z</time>
      </trkpt>
      <trkpt lat="43.12086" lon="1.62592">
        <ele>293</ele>
        <time>2012-09-23T07:34:11Z</time>
      </trkpt>
      <trkpt lat="43.12103" lon="1.62587">
        <ele>293</ele>
        <time>2012-09-23T07:34:13Z</time>
      </trkpt>
      <trkpt lat="43.1212" lon="1.62583">
        <ele>293</ele>
        <time>2012-09-23T07:34:15Z</time>
      </trkpt>
      <trkpt lat="43.12145" lon="1.62577">
        <ele>293</ele>
        <time>2012-09-23T07:34:18Z</time>
      </trkpt>
      <trkpt lat="43.12162" lon="1.62573">
        <ele>293</ele>
        <time>2012-09-23T07:34:20Z</time>
      </trkpt>
      <trkpt lat="43.12175" lon="1.62558">
        <ele>293</ele>
        <time>2012-09-23T07:34:22Z</time>
      </trkpt>
      <trkpt lat="43.12181" lon="1.62533">
        <ele>293</ele>
        <time>2012-09-23T07:34:24Z</time>
      </trkpt>
      <trkpt lat="43.12181" lon="1.62505">
        <ele>293</ele>
        <time>2012-09-23T07:34:26Z</time>
      </trkpt>
      <trkpt lat="43.12179" lon="1.62478">
        <ele>293</ele>
        <time>2012-09-23T07:34:28Z</time>
      </trkpt>
      <trkpt lat="43.12172" lon="1.62452">
        <ele>293</ele>
        <time>2012-09-23T07:34:30Z</time>
      </trkpt>
      <trkpt lat="43.12164" lon="1.62427">
        <ele>293</ele>
        <time>2012-09-23T07:34:32Z</time>
      </trkpt>
      <trkpt lat="43.12156" lon="1.62403">
        <ele>293</ele>
        <time>2012-09-23T07:34:34Z</time>
      </trkpt>
      <trkpt lat="43.12151" lon="1.62378">
        <ele>293</ele>
        <time>2012-09-23T07:34:36Z</time>
      </trkpt>
      <trkpt lat="43.12147" lon="1.62352">
        <ele>293</ele>
        <time>2012-09-23T07:34:38Z</time>
      </trkpt>
      <trkpt lat="43.12144" lon="1.62327">
        <ele>293</ele>
        <time>2012-09-23T07:34:40Z</time>
      </trkpt>
      <trkpt lat="43.1214" lon="1.62302">
        <ele>293</ele>
        <time>2012-09-23T07:34:42Z</time>
      </trkpt>
      <trkpt lat="43.12137" lon="1.62277">
        <ele>293</ele>
        <time>2012-09-23T07:34:44Z</time>
      </trkpt>
      <trkpt lat="43.12137" lon="1.62251">
        <ele>293</ele>
        <time>2012-09-23T07:34:46Z</time>
      </trkpt>
      <trkpt lat="43.1214" lon="1.62224">
        <ele>293</ele>
        <time>2012-09-23T07:34:48Z</time>
      </trkpt>
      <trkpt lat="43.12143" lon="1.62197">
        <ele>293</ele>
        <time>2012-09-23T07:34:50Z</time>
      </trkpt>
      <trkpt lat="43.12143" lon="1.6217">
        <ele>293</ele>
        <time>2012-09-23T07:34:52Z</time>
      </trkpt>
      <trkpt lat="43.12143" lon="1.62144">
        <ele>293</ele>
        <time>2012-09-23T07:34:54Z</time>
      </trkpt>
      <trkpt lat="43.12142" lon="1.62118">
        <ele>293</ele>
        <time>2012-09-23T07:34:56Z</time>
      </trkpt>
      <trkpt lat="43.12139" lon="1.62092">
        <ele>293</ele>
        <time>2012-09-23T07:34:58Z</time>
      </trkpt>
      <trkpt lat="43.12135" lon="1.62066">
        <ele>293</ele>
        <time>2012-09-23T07:35:00Z</time>
      </trkpt>
      <trkpt lat="43.12131" lon="1.6204">
        <ele>293</ele>
        <time>2012-09-23T07:35:02Z</time>
      </trkpt>
      <trkpt lat="43.12126" lon="1.62014">
        <ele>293</ele>
        <time>2012-09-23T07:35:04Z</time>
      </trkpt>
      <trkpt lat="43.1212" lon="1.61989">
        <ele>293</ele>
        <time>2012-09-23T07:35:06Z</time>
      </trkpt>
      <trkpt lat="43.12112" lon="1.61966">
        <ele>293</ele>
        <time>2012-09-23T07:35:08Z</time>
      </trkpt>
      <trkpt lat="43.121" lon="1.61946">
        <ele>293</ele>
        <time>2012-09-23T07:35:10Z</time>
      </trkpt>
      <trkpt lat="43.12085" lon="1.61928">
        <ele>293</ele>
        <time>2012-09-23T07:35:12Z</time>
      </trkpt>
      <trkpt lat="43.12069" lon="1.61912">
        <ele>293</ele>
        <time>2012-09-23T07:35:14Z</time>
      </trkpt>
      <trkpt lat="43.12054" lon="1.61896">
        <ele>293</ele>
        <time>2012-09-23T07:35:16Z</time>
      </trkpt>
      <trkpt lat="43.12041" lon="1.61878">
        <ele>293</ele>
        <time>2012-09-23T07:35:18Z</time>
      </trkpt>
      <trkpt lat="43.12032" lon="1.61854">
        <ele>293</ele>
        <time>2012-09-23T07:35:20Z</time>
      </trkpt>
      <trkpt lat="43.12022" lon="1.61814">
        <ele>293</ele>
        <time>2012-09-23T07:35:23Z</time>
      </trkpt>
      <trkpt lat="43.12017" lon="1.61788">
        <ele>293</ele>
        <time>2012-09-23T07:35:25Z</time>
      </trkpt>
      <trkpt lat="43.12004" lon="1.61769">
        <ele>293</ele>
        <time>2012-09-23T07:35:27Z</time>
      </trkpt>
      <trkpt lat="43.11987" lon="1.61759">
        <ele>293</ele>
        <time>2012-09-23T07:35:29Z</time>
      </trkpt>
      <trkpt lat="43.11971" lon="1.61749">
        <ele>293</ele>
        <time>2012-09-23T07:35:31Z</time>
      </trkpt>
      <trkpt lat="43.11956" lon="1.61738">
        <ele>293</ele>
        <time>2012-09-23T07:35:33Z</time>
      </trkpt>
      <trkpt lat="43.11945" lon="1.61722">
        <ele>293</ele>
        <time>2012-09-23T07:35:35Z</time>
      </trkpt>
      <trkpt lat="43.11935" lon="1.61704">
        <ele>293</ele>
        <time>2012-09-23T07:35:37Z</time>
      </trkpt>
      <trkpt lat="43.11928" lon="1.61685">
        <ele>293</ele>
        <time>2012-09-23T07:35:39Z</time>
      </trkpt>
      <trkpt lat="43.11921" lon="1.61666">
        <ele>293</ele>
        <time>2012-09-23T07:35:41Z</time>
      </trkpt>
      <trkpt lat="43.11909" lon="1.61648">
        <ele>293</ele>
        <time>2012-09-23T07:35:43Z</time>
      </trkpt>
      <trkpt lat="43.11896" lon="1.61629">
        <ele>293</ele>
        <time>2012-09-23T07:35:45Z</time>
      </trkpt>
      <trkpt lat="43.11886" lon="1.61607">
        <ele>293</ele>
        <time>2012-09-23T07:35:47Z</time>
      </trkpt>
      <trkpt lat="43.11887" lon="1.61584">
        <ele>293</ele>
        <time>2012-09-23T07:35:49Z</time>
      </trkpt>
      <trkpt lat="43.11895" lon="1.61566">
        <ele>293</ele>
        <time>2012-09-23T07:35:51Z</time>
      </trkpt>
      <trkpt lat="43.11906" lon="1.61549">
        <ele>293</ele>
        <time>2012-09-23T07:35:53Z</time>
      </trkpt>
      <trkpt lat="43.11917" lon="1.61535">
        <ele>293</ele>
        <time>2012-09-23T07:35:55Z</time>
      </trkpt>
      <trkpt lat="43.11931" lon="1.61522">
        <ele>293</ele>
        <time>2012-09-23T07:35:57Z</time>
      </trkpt>
      <trkpt lat="43.11945" lon="1.61509">
        <ele>293</ele>
        <time>2012-09-23T07:35:59Z</time>
      </trkpt>
      <trkpt lat="43.11959" lon="1.61496">
        <ele>293</ele>
        <time>2012-09-23T07:36:01Z</time>
      </trkpt>
      <trkpt lat="43.11975" lon="1.61483">
        <ele>293</ele>
        <time>2012-09-23T07:36:03Z</time>
      </trkpt>
      <trkpt lat="43.11991" lon="1.61466">
        <ele>293</ele>
        <time>2012-09-23T07:36:05Z</time>
      </trkpt>
      <trkpt lat="43.12005" lon="1.61445">
        <ele>293</ele>
        <time>2012-09-23T07:36:07Z</time>
      </trkpt>
      <trkpt lat="43.12017" lon="1.61421">
        <ele>293</ele>
        <time>2012-09-23T07:36:09Z</time>
      </trkpt>
      <trkpt lat="43.12031" lon="1.6138">
        <ele>293</ele>
        <time>2012-09-23T07:36:11Z</time>
      </trkpt>
      <trkpt lat="43.12034" lon="1.61349">
        <ele>292</ele>
        <time>2012-09-23T07:36:14Z</time>
      </trkpt>
      <trkpt lat="43.12036" lon="1.61303">
        <ele>291</ele>
        <time>2012-09-23T07:36:16Z</time>
      </trkpt>
      <trkpt lat="43.12037" lon="1.61272">
        <ele>291</ele>
        <time>2012-09-23T07:36:19Z</time>
      </trkpt>
      <trkpt lat="43.12038" lon="1.6124">
        <ele>290</ele>
        <time>2012-09-23T07:36:21Z</time>
      </trkpt>
      <trkpt lat="43.12038" lon="1.61193">
        <ele>288</ele>
        <time>2012-09-23T07:36:23Z</time>
      </trkpt>
      <trkpt lat="43.12035" lon="1.61162">
        <ele>286</ele>
        <time>2012-09-23T07:36:25Z</time>
      </trkpt>
      <trkpt lat="43.12033" lon="1.61132">
        <ele>284</ele>
        <time>2012-09-23T07:36:27Z</time>
      </trkpt>
      <trkpt lat="43.12033" lon="1.61101">
        <ele>282</ele>
        <time>2012-09-23T07:36:30Z</time>
      </trkpt>
      <trkpt lat="43.12037" lon="1.61073">
        <ele>281</ele>
        <time>2012-09-23T07:36:32Z</time>
      </trkpt>
      <trkpt lat="43.12055" lon="1.61034">
        <ele>280</ele>
        <time>2012-09-23T07:36:34Z</time>
      </trkpt>
      <trkpt lat="43.12069" lon="1.61007">
        <ele>279</ele>
        <time>2012-09-23T07:36:36Z</time>
      </trkpt>
      <trkpt lat="43.12079" lon="1.6098">
        <ele>279</ele>
        <time>2012-09-23T07:36:38Z</time>
      </trkpt>
      <trkpt lat="43.12088" lon="1.60953">
        <ele>277</ele>
        <time>2012-09-23T07:36:41Z</time>
      </trkpt>
      <trkpt lat="43.12095" lon="1.60926">
        <ele>277</ele>
        <time>2012-09-23T07:36:43Z</time>
      </trkpt>
      <trkpt lat="43.12102" lon="1.609">
        <ele>277</ele>
        <time>2012-09-23T07:36:45Z</time>
      </trkpt>
      <trkpt lat="43.12114" lon="1.60862">
        <ele>277</ele>
        <time>2012-09-23T07:36:47Z</time>
      </trkpt>
      <trkpt lat="43.12121" lon="1.60836">
        <ele>276</ele>
        <time>2012-09-23T07:36:49Z</time>
      </trkpt>
      <trkpt lat="43.1213" lon="1.6081">
        <ele>276</ele>
        <time>2012-09-23T07:36:51Z</time>
      </trkpt>
      <trkpt lat="43.12138" lon="1.60783">
        <ele>275</ele>
        <time>2012-09-23T07:36:53Z</time>
      </trkpt>
      <trkpt lat="43.12146" lon="1.60755">
        <ele>274</ele>
        <time>2012-09-23T07:36:56Z</time>
      </trkpt>
      <trkpt lat="43.12159" lon="1.60711">
        <ele>274</ele>
        <time>2012-09-23T07:36:58Z</time>
      </trkpt>
      <trkpt lat="43.12167" lon="1.60682">
        <ele>274</ele>
        <time>2012-09-23T07:37:01Z</time>
      </trkpt>
      <trkpt lat="43.12179" lon="1.60641">
        <ele>274</ele>
        <time>2012-09-23T07:37:03Z</time>
      </trkpt>
      <trkpt lat="43.12186" lon="1.60612">
        <ele>274</ele>
        <time>2012-09-23T07:37:06Z</time>
      </trkpt>
      <trkpt lat="43.12198" lon="1.6057">
        <ele>274</ele>
        <time>2012-09-23T07:37:08Z</time>
      </trkpt>
      <trkpt lat="43.12206" lon="1.60542">
        <ele>274</ele>
        <time>2012-09-23T07:37:11Z</time>
      </trkpt>
      <trkpt lat="43.12216" lon="1.60499">
        <ele>274</ele>
        <time>2012-09-23T07:37:14Z</time>
      </trkpt>
      <trkpt lat="43.1222" lon="1.60469">
        <ele>274</ele>
        <time>2012-09-23T07:37:16Z</time>
      </trkpt>
      <trkpt lat="43.12227" lon="1.60426">
        <ele>274</ele>
        <time>2012-09-23T07:37:19Z</time>
      </trkpt>
      <trkpt lat="43.12232" lon="1.60398">
        <ele>274</ele>
        <time>2012-09-23T07:37:21Z</time>
      </trkpt>
      <trkpt lat="43.1224" lon="1.60357">
        <ele>274</ele>
        <time>2012-09-23T07:37:23Z</time>
      </trkpt>
      <trkpt lat="43.12245" lon="1.6033">
        <ele>274</ele>
        <time>2012-09-23T07:37:26Z</time>
      </trkpt>
      <trkpt lat="43.12251" lon="1.60306">
        <ele>274</ele>
        <time>2012-09-23T07:37:28Z</time>
      </trkpt>
      <trkpt lat="43.12259" lon="1.60283">
        <ele>274</ele>
        <time>2012-09-23T07:37:30Z</time>
      </trkpt>
      <trkpt lat="43.12272" lon="1.60264">
        <ele>274</ele>
        <time>2012-09-23T07:37:32Z</time>
      </trkpt>
      <trkpt lat="43.12286" lon="1.60252">
        <ele>274</ele>
        <time>2012-09-23T07:37:34Z</time>
      </trkpt>
      <trkpt lat="43.12298" lon="1.60243">
        <ele>274</ele>
        <time>2012-09-23T07:37:36Z</time>
      </trkpt>
      <trkpt lat="43.12312" lon="1.60236">
        <ele>274</ele>
        <time>2012-09-23T07:37:38Z</time>
      </trkpt>
      <trkpt lat="43.12326" lon="1.60229">
        <ele>274</ele>
        <time>2012-09-23T07:37:40Z</time>
      </trkpt>
      <trkpt lat="43.12341" lon="1.60221">
        <ele>274</ele>
        <time>2012-09-23T07:37:42Z</time>
      </trkpt>
      <trkpt lat="43.12355" lon="1.60213">
        <ele>274</ele>
        <time>2012-09-23T07:37:44Z</time>
      </trkpt>
      <trkpt lat="43.12371" lon="1.60205">
        <ele>274</ele>
        <time>2012-09-23T07:37:46Z</time>
      </trkpt>
      <trkpt lat="43.12386" lon="1.60197">
        <ele>274</ele>
        <time>2012-09-23T07:37:48Z</time>
      </trkpt>
      <trkpt lat="43.124" lon="1.60189">
        <ele>274</ele>
        <time>2012-09-23T07:37:50Z</time>
      </trkpt>
      <trkpt lat="43.12411" lon="1.60176">
        <ele>274</ele>
        <time>2012-09-23T07:37:52Z</time>
      </trkpt>
      <trkpt lat="43.12412" lon="1.60158">
        <ele>274</ele>
        <time>2012-09-23T07:37:54Z</time>
      </trkpt>
      <trkpt lat="43.12406" lon="1.60137">
        <ele>274</ele>
        <time>2012-09-23T07:37:56Z</time>
      </trkpt>
      <trkpt lat="43.12401" lon="1.60117">
        <ele>274</ele>
        <time>2012-09-23T07:37:58Z</time>
      </trkpt>
      <trkpt lat="43.12396" lon="1.60097">
        <ele>274</ele>
        <time>2012-09-23T07:38:00Z</time>
      </trkpt>
      <trkpt lat="43.12395" lon="1.60079">
        <ele>274</ele>
        <time>2012-09-23T07:38:02Z</time>
      </trkpt>
      <trkpt lat="43.12395" lon="1.60063">
        <ele>274</ele>
        <time>2012-09-23T07:38:04Z</time>
      </trkpt>
      <trkpt lat="43.12396" lon="1.60048">
        <ele>274</ele>
        <time>2012-09-23T07:38:06Z</time>
      </trkpt>
      <trkpt lat="43.12396" lon="1.60034">
        <ele>274</ele>
        <time>2012-09-23T07:38:08Z</time>
      </trkpt>
      <trkpt lat="43.12395" lon="1.6002">
        <ele>274</ele>
        <time>2012-09-23T07:38:10Z</time>
      </trkpt>
      <trkpt lat="43.12393" lon="1.60007">
        <ele>274</ele>
        <time>2012-09-23T07:38:12Z</time>
      </trkpt>
      <trkpt lat="43.12391" lon="1.59994">
        <ele>274</ele>
        <time>2012-09-23T07:38:14Z</time>
      </trkpt>
      <trkpt lat="43.12388" lon="1.59982">
        <ele>274</ele>
        <time>2012-09-23T07:38:16Z</time>
      </trkpt>
      <trkpt lat="43.12386" lon="1.59968">
        <ele>274</ele>
        <time>2012-09-23T07:38:18Z</time>
      </trkpt>
      <trkpt lat="43.12383" lon="1.59955">
        <ele>274</ele>
        <time>2012-09-23T07:38:20Z</time>
      </trkpt>
      <trkpt lat="43.12379" lon="1.59941">
        <ele>275</ele>
        <time>2012-09-23T07:38:22Z</time>
      </trkpt>
      <trkpt lat="43.12375" lon="1.59926">
        <ele>276</ele>
        <time>2012-09-23T07:38:24Z</time>
      </trkpt>
      <trkpt lat="43.12371" lon="1.59913">
        <ele>276</ele>
        <time>2012-09-23T07:38:26Z</time>
      </trkpt>
      <trkpt lat="43.12366" lon="1.59899">
        <ele>276</ele>
        <time>2012-09-23T07:38:28Z</time>
      </trkpt>
      <trkpt lat="43.12363" lon="1.59885">
        <ele>276</ele>
        <time>2012-09-23T07:38:30Z</time>
      </trkpt>
      <trkpt lat="43.1236" lon="1.59871">
        <ele>276</ele>
        <time>2012-09-23T07:38:32Z</time>
      </trkpt>
      <trkpt lat="43.12356" lon="1.59859">
        <ele>277</ele>
        <time>2012-09-23T07:38:34Z</time>
      </trkpt>
      <trkpt lat="43.12349" lon="1.59851">
        <ele>278</ele>
        <time>2012-09-23T07:38:36Z</time>
      </trkpt>
      <trkpt lat="43.12339" lon="1.59842">
        <ele>278</ele>
        <time>2012-09-23T07:38:38Z</time>
      </trkpt>
      <trkpt lat="43.12328" lon="1.59834">
        <ele>278</ele>
        <time>2012-09-23T07:38:40Z</time>
      </trkpt>
      <trkpt lat="43.12317" lon="1.59824">
        <ele>278</ele>
        <time>2012-09-23T07:38:42Z</time>
      </trkpt>
      <trkpt lat="43.12306" lon="1.59815">
        <ele>279</ele>
        <time>2012-09-23T07:38:44Z</time>
      </trkpt>
      <trkpt lat="43.12297" lon="1.59805">
        <ele>280</ele>
        <time>2012-09-23T07:38:46Z</time>
      </trkpt>
      <trkpt lat="43.12291" lon="1.59793">
        <ele>280</ele>
        <time>2012-09-23T07:38:48Z</time>
      </trkpt>
      <trkpt lat="43.12285" lon="1.5978">
        <ele>280</ele>
        <time>2012-09-23T07:38:50Z</time>
      </trkpt>
      <trkpt lat="43.12279" lon="1.59766">
        <ele>280</ele>
        <time>2012-09-23T07:38:52Z</time>
      </trkpt>
      <trkpt lat="43.12273" lon="1.59752">
        <ele>280</ele>
        <time>2012-09-23T07:38:54Z</time>
      </trkpt>
      <trkpt lat="43.12267" lon="1.59739">
        <ele>280</ele>
        <time>2012-09-23T07:38:56Z</time>
      </trkpt>
      <trkpt lat="43.1226" lon="1.59726">
        <ele>280</ele>
        <time>2012-09-23T07:38:58Z</time>
      </trkpt>
      <trkpt lat="43.12253" lon="1.59714">
        <ele>280</ele>
        <time>2012-09-23T07:39:00Z</time>
      </trkpt>
      <trkpt lat="43.12247" lon="1.59703">
        <ele>280</ele>
        <time>2012-09-23T07:39:02Z</time>
      </trkpt>
      <trkpt lat="43.12243" lon="1.59692">
        <ele>280</ele>
        <time>2012-09-23T07:39:04Z</time>
      </trkpt>
      <trkpt lat="43.1224" lon="1.59684">
        <ele>280</ele>
        <time>2012-09-23T07:39:06Z</time>
      </trkpt>
      <trkpt lat="43.12236" lon="1.59678">
        <ele>281</ele>
        <time>2012-09-23T07:39:08Z</time>
      </trkpt>
      <trkpt lat="43.12234" lon="1.59673">
        <ele>283</ele>
        <time>2012-09-23T07:39:10Z</time>
      </trkpt>
      <trkpt lat="43.12232" lon="1.5967">
        <ele>284</ele>
        <time>2012-09-23T07:39:12Z</time>
      </trkpt>
      <trkpt lat="43.1223" lon="1.59667">
        <ele>286</ele>
        <time>2012-09-23T07:39:14Z</time>
      </trkpt>
      <trkpt lat="43.12228" lon="1.59664">
        <ele>287</ele>
        <time>2012-09-23T07:39:16Z</time>
      </trkpt>
      <trkpt lat="43.12226" lon="1.59662">
        <ele>289</ele>
        <time>2012-09-23T07:39:18Z</time>
      </trkpt>
      <trkpt lat="43.12224" lon="1.59659">
        <ele>290</ele>
        <time>2012-09-23T07:39:20Z</time>
      </trkpt>
      <trkpt lat="43.12222" lon="1.59656">
        <ele>292</ele>
        <time>2012-09-23T07:39:22Z</time>
      </trkpt>
      <trkpt lat="43.1222" lon="1.59653">
        <ele>293</ele>
        <time>2012-09-23T07:39:24Z</time>
      </trkpt>
      <trkpt lat="43.12218" lon="1.5965">
        <ele>295</ele>
        <time>2012-09-23T07:39:26Z</time>
      </trkpt>
      <trkpt lat="43.12216" lon="1.59647">
        <ele>296</ele>
        <time>2012-09-23T07:39:28Z</time>
      </trkpt>
      <trkpt lat="43.12214" lon="1.59643">
        <ele>297</ele>
        <time>2012-09-23T07:39:30Z</time>
      </trkpt>
      <trkpt lat="43.12212" lon="1.59639">
        <ele>297</ele>
        <time>2012-09-23T07:39:32Z</time>
      </trkpt>
      <trkpt lat="43.1221" lon="1.59636">
        <ele>297</ele>
        <time>2012-09-23T07:39:34Z</time>
      </trkpt>
      <trkpt lat="43.12208" lon="1.59633">
        <ele>298</ele>
        <time>2012-09-23T07:39:36Z</time>
      </trkpt>
      <trkpt lat="43.12206" lon="1.59629">
        <ele>298</ele>
        <time>2012-09-23T07:39:38Z</time>
      </trkpt>
      <trkpt lat="43.12204" lon="1.59625">
        <ele>299</ele>
        <time>2012-09-23T07:39:40Z</time>
      </trkpt>
      <trkpt lat="43.12202" lon="1.5962">
        <ele>299</ele>
        <time>2012-09-23T07:39:42Z</time>
      </trkpt>
      <trkpt lat="43.12199" lon="1.59616">
        <ele>299</ele>
        <time>2012-09-23T07:39:44Z</time>
      </trkpt>
      <trkpt lat="43.12197" lon="1.59611">
        <ele>299</ele>
        <time>2012-09-23T07:39:46Z</time>
      </trkpt>
      <trkpt lat="43.12195" lon="1.59607">
        <ele>299</ele>
        <time>2012-09-23T07:39:48Z</time>
      </trkpt>
      <trkpt lat="43.12192" lon="1.59602">
        <ele>300</ele>
        <time>2012-09-23T07:39:50Z</time>
      </trkpt>
      <trkpt lat="43.1219" lon="1.59597">
        <ele>300</ele>
        <time>2012-09-23T07:39:52Z</time>
      </trkpt>
      <trkpt lat="43.12187" lon="1.59593">
        <ele>301</ele>
        <time>2012-09-23T07:39:54Z</time>
      </trkpt>
      <trkpt lat="43.12184" lon="1.59588">
        <ele>301</ele>
        <time>2012-09-23T07:39:56Z</time>
      </trkpt>
      <trkpt lat="43.1218" lon="1.59583">
        <ele>301</ele>
        <time>2012-09-23T07:39:58Z</time>
      </trkpt>
      <trkpt lat="43.12176" lon="1.59578">
        <ele>301</ele>
        <time>2012-09-23T07:40:00Z</time>
      </trkpt>
      <trkpt lat="43.12171" lon="1.59573">
        <ele>301</ele>
        <time>2012-09-23T07:40:02Z</time>
      </trkpt>
      <trkpt lat="43.12165" lon="1.59567">
        <ele>301</ele>
        <time>2012-09-23T07:40:04Z</time>
      </trkpt>
      <trkpt lat="43.12159" lon="1.59563">
        <ele>301</ele>
        <time>2012-09-23T07:40:06Z</time>
      </trkpt>
      <trkpt lat="43.12153" lon="1.59556">
        <ele>301</ele>
        <time>2012-09-23T07:40:08Z</time>
      </trkpt>
      <trkpt lat="43.12146" lon="1.59553">
        <ele>301</ele>
        <time>2012-09-23T07:40:10Z</time>
      </trkpt>
      <trkpt lat="43.12138" lon="1.59551">
        <ele>301</ele>
        <time>2012-09-23T07:40:12Z</time>
      </trkpt>
      <trkpt lat="43.1213" lon="1.5955">
        <ele>301</ele>
        <time>2012-09-23T07:40:14Z</time>
      </trkpt>
      <trkpt lat="43.12124" lon="1.59549">
        <ele>301</ele>
        <time>2012-09-23T07:40:16Z</time>
      </trkpt>
      <trkpt lat="43.12119" lon="1.59546">
        <ele>301</ele>
        <time>2012-09-23T07:40:18Z</time>
      </trkpt>
      <trkpt lat="43.12113" lon="1.59543">
        <ele>301</ele>
        <time>2012-09-23T07:40:20Z</time>
      </trkpt>
      <trkpt lat="43.12105" lon="1.59541">
        <ele>301</ele>
        <time>2012-09-23T07:40:22Z</time>
      </trkpt>
      <trkpt lat="43.12098" lon="1.59541">
        <ele>301</ele>
        <time>2012-09-23T07:40:24Z</time>
      </trkpt>
      <trkpt lat="43.12092" lon="1.5954">
        <ele>301</ele>
        <time>2012-09-23T07:40:26Z</time>
      </trkpt>
      <trkpt lat="43.12085" lon="1.59539">
        <ele>301</ele>
        <time>2012-09-23T07:40:28Z</time>
      </trkpt>
      <trkpt lat="43.12076" lon="1.59537">
        <ele>301</ele>
        <time>2012-09-23T07:40:30Z</time>
      </trkpt>
      <trkpt lat="43.12067" lon="1.59532">
        <ele>301</ele>
        <time>2012-09-23T07:40:32Z</time>
      </trkpt>
      <trkpt lat="43.12058" lon="1.59525">
        <ele>301</ele>
        <time>2012-09-23T07:40:34Z</time>
      </trkpt>
      <trkpt lat="43.12048" lon="1.59518">
        <ele>301</ele>
        <time>2012-09-23T07:40:36Z</time>
      </trkpt>
      <trkpt lat="43.1204" lon="1.59512">
        <ele>301</ele>
        <time>2012-09-23T07:40:38Z</time>
      </trkpt>
      <trkpt lat="43.12032" lon="1.59506">
        <ele>301</ele>
        <time>2012-09-23T07:40:40Z</time>
      </trkpt>
      <trkpt lat="43.12025" lon="1.59503">
        <ele>301</ele>
        <time>2012-09-23T07:40:42Z</time>
      </trkpt>
      <trkpt lat="43.12016" lon="1.59502">
        <ele>301</ele>
        <time>2012-09-23T07:40:44Z</time>
      </trkpt>
      <trkpt lat="43.12006" lon="1.59502">
        <ele>301</ele>
        <time>2012-09-23T07:40:46Z</time>
      </trkpt>
      <trkpt lat="43.11997" lon="1.59503">
        <ele>301</ele>
        <time>2012-09-23T07:40:48Z</time>
      </trkpt>
      <trkpt lat="43.1199" lon="1.59509">
        <ele>301</ele>
        <time>2012-09-23T07:40:50Z</time>
      </trkpt>
      <trkpt lat="43.11983" lon="1.59517">
        <ele>301</ele>
        <time>2012-09-23T07:40:52Z</time>
      </trkpt>
      <trkpt lat="43.11972" lon="1.59524">
        <ele>301</ele>
        <time>2012-09-23T07:40:54Z</time>
      </trkpt>
      <trkpt lat="43.11959" lon="1.59528">
        <ele>301</ele>
        <time>2012-09-23T07:40:56Z</time>
      </trkpt>
      <trkpt lat="43.11952" lon="1.5953">
        <ele>301</ele>
        <time>2012-09-23T07:40:58Z</time>
      </trkpt>
      <trkpt lat="43.11949" lon="1.59537">
        <ele>301</ele>
        <time>2012-09-23T07:41:00Z</time>
      </trkpt>
      <trkpt lat="43.11948" lon="1.59544">
        <ele>301</ele>
        <time>2012-09-23T07:41:02Z</time>
      </trkpt>
      <trkpt lat="43.11946" lon="1.59549">
        <ele>301</ele>
        <time>2012-09-23T07:41:04Z</time>
      </trkpt>
      <trkpt lat="43.11945" lon="1.59554">
        <ele>301</ele>
        <time>2012-09-23T07:41:06Z</time>
      </trkpt>
      <trkpt lat="43.11944" lon="1.5956">
        <ele>301</ele>
        <time>2012-09-23T07:41:08Z</time>
      </trkpt>
      <trkpt lat="43.11941" lon="1.59567">
        <ele>301</ele>
        <time>2012-09-23T07:41:10Z</time>
      </trkpt>
      <trkpt lat="43.11934" lon="1.59572">
        <ele>301</ele>
        <time>2012-09-23T07:41:12Z</time>
      </trkpt>
      <trkpt lat="43.11925" lon="1.59579">
        <ele>299</ele>
        <time>2012-09-23T07:41:14Z</time>
      </trkpt>
      <trkpt lat="43.11915" lon="1.5959">
        <ele>298</ele>
        <time>2012-09-23T07:41:16Z</time>
      </trkpt>
      <trkpt lat="43.11905" lon="1.59602">
        <ele>296</ele>
        <time>2012-09-23T07:41:18Z</time>
      </trkpt>
      <trkpt lat="43.11898" lon="1.59616">
        <ele>294</ele>
        <time>2012-09-23T07:41:20Z</time>
      </trkpt>
      <trkpt lat="43.11895" lon="1.59628">
        <ele>292</ele>
        <time>2012-09-23T07:41:22Z</time>
      </trkpt>
      <trkpt lat="43.11893" lon="1.59636">
        <ele>290</ele>
        <time>2012-09-23T07:41:24Z</time>
      </trkpt>
      <trkpt lat="43.11892" lon="1.59641">
        <ele>288</ele>
        <time>2012-09-23T07:41:26Z</time>
      </trkpt>
      <trkpt lat="43.11891" lon="1.59647">
        <ele>286</ele>
        <time>2012-09-23T07:41:28Z</time>
      </trkpt>
      <trkpt lat="43.11889" lon="1.59655">
        <ele>284</ele>
        <time>2012-09-23T07:41:30Z</time>
      </trkpt>
      <trkpt lat="43.11885" lon="1.59661">
        <ele>282</ele>
        <time>2012-09-23T07:41:32Z</time>
      </trkpt>
      <trkpt lat="43.11886" lon="1.59668">
        <ele>280</ele>
        <time>2012-09-23T07:41:34Z</time>
      </trkpt>
      <trkpt lat="43.11888" lon="1.59679">
        <ele>278</ele>
        <time>2012-09-23T07:41:36Z</time>
      </trkpt>
      <trkpt lat="43.11885" lon="1.5969">
        <ele>278</ele>
        <time>2012-09-23T07:41:38Z</time>
      </trkpt>
      <trkpt lat="43.11881" lon="1.59698">
        <ele>278</ele>
        <time>2012-09-23T07:41:40Z</time>
      </trkpt>
      <trkpt lat="43.11879" lon="1.59708">
        <ele>278</ele>
        <time>2012-09-23T07:41:42Z</time>
      </trkpt>
      <trkpt lat="43.11881" lon="1.59719">
        <ele>278</ele>
        <time>2012-09-23T07:41:44Z</time>
      </trkpt>
      <trkpt lat="43.11881" lon="1.59731">
        <ele>278</ele>
        <time>2012-09-23T07:41:46Z</time>
      </trkpt>
      <trkpt lat="43.11876" lon="1.5974">
        <ele>278</ele>
        <time>2012-09-23T07:41:48Z</time>
      </trkpt>
      <trkpt lat="43.11871" lon="1.5975">
        <ele>278</ele>
        <time>2012-09-23T07:41:50Z</time>
      </trkpt>
      <trkpt lat="43.11866" lon="1.59757">
        <ele>278</ele>
        <time>2012-09-23T07:41:52Z</time>
      </trkpt>
      <trkpt lat="43.11861" lon="1.59766">
        <ele>277</ele>
        <time>2012-09-23T07:41:54Z</time>
      </trkpt>
      <trkpt lat="43.11856" lon="1.59778">
        <ele>277</ele>
        <time>2012-09-23T07:41:56Z</time>
      </trkpt>
      <trkpt lat="43.11851" lon="1.59791">
        <ele>277</ele>
        <time>2012-09-23T07:41:58Z</time>
      </trkpt>
      <trkpt lat="43.11846" lon="1.59803">
        <ele>277</ele>
        <time>2012-09-23T07:42:00Z</time>
      </trkpt>
      <trkpt lat="43.11841" lon="1.59816">
        <ele>277</ele>
        <time>2012-09-23T07:42:02Z</time>
      </trkpt>
      <trkpt lat="43.11835" lon="1.59829">
        <ele>277</ele>
        <time>2012-09-23T07:42:04Z</time>
      </trkpt>
      <trkpt lat="43.1183" lon="1.59843">
        <ele>277</ele>
        <time>2012-09-23T07:42:06Z</time>
      </trkpt>
      <trkpt lat="43.11824" lon="1.59856">
        <ele>277</ele>
        <time>2012-09-23T07:42:08Z</time>
      </trkpt>
      <trkpt lat="43.11819" lon="1.59867">
        <ele>277</ele>
        <time>2012-09-23T07:42:10Z</time>
      </trkpt>
      <trkpt lat="43.11812" lon="1.59876">
        <ele>277</ele>
        <time>2012-09-23T07:42:12Z</time>
      </trkpt>
      <trkpt lat="43.11805" lon="1.59885">
        <ele>277</ele>
        <time>2012-09-23T07:42:14Z</time>
      </trkpt>
      <trkpt lat="43.11798" lon="1.59897">
        <ele>277</ele>
        <time>2012-09-23T07:42:16Z</time>
      </trkpt>
      <trkpt lat="43.11791" lon="1.59911">
        <ele>277</ele>
        <time>2012-09-23T07:42:18Z</time>
      </trkpt>
      <trkpt lat="43.11784" lon="1.59926">
        <ele>277</ele>
        <time>2012-09-23T07:42:20Z</time>
      </trkpt>
      <trkpt lat="43.11774" lon="1.59937">
        <ele>277</ele>
        <time>2012-09-23T07:42:22Z</time>
      </trkpt>
      <trkpt lat="43.11767" lon="1.59943">
        <ele>277</ele>
        <time>2012-09-23T07:42:24Z</time>
      </trkpt>
      <trkpt lat="43.11761" lon="1.59949">
        <ele>277</ele>
        <time>2012-09-23T07:42:26Z</time>
      </trkpt>
      <trkpt lat="43.11755" lon="1.59959">
        <ele>277</ele>
        <time>2012-09-23T07:42:28Z</time>
      </trkpt>
      <trkpt lat="43.11749" lon="1.59968">
        <ele>277</ele>
        <time>2012-09-23T07:42:30Z</time>
      </trkpt>
      <trkpt lat="43.11743" lon="1.59978">
        <ele>277</ele>
        <time>2012-09-23T07:42:32Z</time>
      </trkpt>
      <trkpt lat="43.11735" lon="1.59985">
        <ele>277</ele>
        <time>2012-09-23T07:42:34Z</time>
      </trkpt>
      <trkpt lat="43.11728" lon="1.59992">
        <ele>277</ele>
        <time>2012-09-23T07:42:36Z</time>
      </trkpt>
      <trkpt lat="43.11723" lon="1.60002">
        <ele>277</ele>
        <time>2012-09-23T07:42:38Z</time>
      </trkpt>
      <trkpt lat="43.11718" lon="1.60013">
        <ele>277</ele>
        <time>2012-09-23T07:42:40Z</time>
      </trkpt>
      <trkpt lat="43.11711" lon="1.60027">
        <ele>277</ele>
        <time>2012-09-23T07:42:42Z</time>
      </trkpt>
      <trkpt lat="43.11704" lon="1.60042">
        <ele>277</ele>
        <time>2012-09-23T07:42:44Z</time>
      </trkpt>
      <trkpt lat="43.11698" lon="1.60056">
        <ele>277</ele>
        <time>2012-09-23T07:42:46Z</time>
      </trkpt>
      <trkpt lat="43.11692" lon="1.6007">
        <ele>277</ele>
        <time>2012-09-23T07:42:48Z</time>
      </trkpt>
      <trkpt lat="43.11685" lon="1.60083">
        <ele>277</ele>
        <time>2012-09-23T07:42:50Z</time>
      </trkpt>
      <trkpt lat="43.11677" lon="1.60096">
        <ele>277</ele>
        <time>2012-09-23T07:42:52Z</time>
      </trkpt>
      <trkpt lat="43.11669" lon="1.60108">
        <ele>277</ele>
        <time>2012-09-23T07:42:54Z</time>
      </trkpt>
      <trkpt lat="43.11662" lon="1.6012">
        <ele>277</ele>
        <time>2012-09-23T07:42:56Z</time>
      </trkpt>
      <trkpt lat="43.11655" lon="1.60131">
        <ele>277</ele>
        <time>2012-09-23T07:42:58Z</time>
      </trkpt>
      <trkpt lat="43.11647" lon="1.60141">
        <ele>277</ele>
        <time>2012-09-23T07:43:00Z</time>
      </trkpt>
      <trkpt lat="43.11641" lon="1.60153">
        <ele>277</ele>
        <time>2012-09-23T07:43:02Z</time>
      </trkpt>
      <trkpt lat="43.11633" lon="1.60164">
        <ele>277</ele>
        <time>2012-09-23T07:43:04Z</time>
      </trkpt>
      <trkpt lat="43.11625" lon="1.60177">
        <ele>277</ele>
        <time>2012-09-23T07:43:06Z</time>
      </trkpt>
      <trkpt lat="43.11617" lon="1.60189">
        <ele>277</ele>
        <time>2012-09-23T07:43:08Z</time>
      </trkpt>
      <trkpt lat="43.11609" lon="1.602">
        <ele>277</ele>
        <time>2012-09-23T07:43:10Z</time>
      </trkpt>
      <trkpt lat="43.11599" lon="1.60211">
        <ele>277</ele>
        <time>2012-09-23T07:43:12Z</time>
      </trkpt>
      <trkpt lat="43.1159" lon="1.60223">
        <ele>277</ele>
        <time>2012-09-23T07:43:14Z</time>
      </trkpt>
      <trkpt lat="43.11581" lon="1.60232">
        <ele>277</ele>
        <time>2012-09-23T07:43:16Z</time>
      </trkpt>
      <trkpt lat="43.11572" lon="1.60243">
        <ele>277</ele>
        <time>2012-09-23T07:43:18Z</time>
      </trkpt>
      <trkpt lat="43.11562" lon="1.60255">
        <ele>277</ele>
        <time>2012-09-23T07:43:20Z</time>
      </trkpt>
      <trkpt lat="43.11554" lon="1.60263">
        <ele>277</ele>
        <time>2012-09-23T07:43:22Z</time>
      </trkpt>
      <trkpt lat="43.11549" lon="1.60268">
        <ele>277</ele>
        <time>2012-09-23T07:43:24Z</time>
      </trkpt>
      <trkpt lat="43.11542" lon="1.60275">
        <ele>277</ele>
        <time>2012-09-23T07:43:26Z</time>
      </trkpt>
      <trkpt lat="43.11534" lon="1.60283">
        <ele>277</ele>
        <time>2012-09-23T07:43:28Z</time>
      </trkpt>
      <trkpt lat="43.11526" lon="1.60292">
        <ele>277</ele>
        <time>2012-09-23T07:43:30Z</time>
      </trkpt>
      <trkpt lat="43.11518" lon="1.60302">
        <ele>277</ele>
        <time>2012-09-23T07:43:32Z</time>
      </trkpt>
      <trkpt lat="43.11509" lon="1.60313">
        <ele>277</ele>
        <time>2012-09-23T07:43:34Z</time>
      </trkpt>
      <trkpt lat="43.11501" lon="1.60322">
        <ele>277</ele>
        <time>2012-09-23T07:43:36Z</time>
      </trkpt>
      <trkpt lat="43.11493" lon="1.60333">
        <ele>277</ele>
        <time>2012-09-23T07:43:38Z</time>
      </trkpt>
      <trkpt lat="43.11484" lon="1.60342">
        <ele>277</ele>
        <time>2012-09-23T07:43:40Z</time>
      </trkpt>
      <trkpt lat="43.11474" lon="1.60351">
        <ele>277</ele>
        <time>2012-09-23T07:43:42Z</time>
      </trkpt>
      <trkpt lat="43.11462" lon="1.60358">
        <ele>277</ele>
        <time>2012-09-23T07:43:44Z</time>
      </trkpt>
      <trkpt lat="43.1145" lon="1.60363">
        <ele>277</ele>
        <time>2012-09-23T07:43:46Z</time>
      </trkpt>
      <trkpt lat="43.11438" lon="1.60365">
        <ele>277</ele>
        <time>2012-09-23T07:43:48Z</time>
      </trkpt>
      <trkpt lat="43.11427" lon="1.60368">
        <ele>277</ele>
        <time>2012-09-23T07:43:50Z</time>
      </trkpt>
      <trkpt lat="43.11416" lon="1.60372">
        <ele>277</ele>
        <time>2012-09-23T07:43:52Z</time>
      </trkpt>
      <trkpt lat="43.11406" lon="1.60376">
        <ele>277</ele>
        <time>2012-09-23T07:43:54Z</time>
      </trkpt>
      <trkpt lat="43.11395" lon="1.60381">
        <ele>276</ele>
        <time>2012-09-23T07:43:56Z</time>
      </trkpt>
      <trkpt lat="43.11385" lon="1.60388">
        <ele>276</ele>
        <time>2012-09-23T07:43:58Z</time>
      </trkpt>
      <trkpt lat="43.11374" lon="1.6039">
        <ele>276</ele>
        <time>2012-09-23T07:44:00Z</time>
      </trkpt>
      <trkpt lat="43.11362" lon="1.60393">
        <ele>276</ele>
        <time>2012-09-23T07:44:02Z</time>
      </trkpt>
      <trkpt lat="43.11356" lon="1.60391">
        <ele>276</ele>
        <time>2012-09-23T07:44:04Z</time>
      </trkpt>
      <trkpt lat="43.11351" lon="1.60386">
        <ele>276</ele>
        <time>2012-09-23T07:44:06Z</time>
      </trkpt>
      <trkpt lat="43.11346" lon="1.60384">
        <ele>276</ele>
        <time>2012-09-23T07:44:08Z</time>
      </trkpt>
      <trkpt lat="43.11339" lon="1.60385">
        <ele>276</ele>
        <time>2012-09-23T07:44:10Z</time>
      </trkpt>
      <trkpt lat="43.11332" lon="1.60387">
        <ele>276</ele>
        <time>2012-09-23T07:44:12Z</time>
      </trkpt>
      <trkpt lat="43.11325" lon="1.60388">
        <ele>276</ele>
        <time>2012-09-23T07:44:14Z</time>
      </trkpt>
      <trkpt lat="43.11318" lon="1.6039">
        <ele>276</ele>
        <time>2012-09-23T07:44:16Z</time>
      </trkpt>
      <trkpt lat="43.1131" lon="1.60392">
        <ele>277</ele>
        <time>2012-09-23T07:44:18Z</time>
      </trkpt>
      <trkpt lat="43.11304" lon="1.60394">
        <ele>278</ele>
        <time>2012-09-23T07:44:20Z</time>
      </trkpt>
      <trkpt lat="43.11297" lon="1.60394">
        <ele>279</ele>
        <time>2012-09-23T07:44:22Z</time>
      </trkpt>
      <trkpt lat="43.11293" lon="1.60389">
        <ele>280</ele>
        <time>2012-09-23T07:44:24Z</time>
      </trkpt>
      <trkpt lat="43.1129" lon="1.6038">
        <ele>280</ele>
        <time>2012-09-23T07:44:26Z</time>
      </trkpt>
      <trkpt lat="43.11288" lon="1.60371">
        <ele>280</ele>
        <time>2012-09-23T07:44:28Z</time>
      </trkpt>
      <trkpt lat="43.11285" lon="1.60362">
        <ele>280</ele>
        <time>2012-09-23T07:44:30Z</time>
      </trkpt>
      <trkpt lat="43.11282" lon="1.60354">
        <ele>280</ele>
        <time>2012-09-23T07:44:32Z</time>
      </trkpt>
      <trkpt lat="43.11279" lon="1.60346">
        <ele>280</ele>
        <time>2012-09-23T07:44:34Z</time>
      </trkpt>
      <trkpt lat="43.11276" lon="1.60337">
        <ele>280</ele>
        <time>2012-09-23T07:44:36Z</time>
      </trkpt>
      <trkpt lat="43.11273" lon="1.60329">
        <ele>280</ele>
        <time>2012-09-23T07:44:38Z</time>
      </trkpt>
      <trkpt lat="43.1127" lon="1.60321">
        <ele>281</ele>
        <time>2012-09-23T07:44:40Z</time>
      </trkpt>
      <trkpt lat="43.11267" lon="1.60313">
        <ele>281</ele>
        <time>2012-09-23T07:44:42Z</time>
      </trkpt>
      <trkpt lat="43.11264" lon="1.60305">
        <ele>282</ele>
        <time>2012-09-23T07:44:44Z</time>
      </trkpt>
      <trkpt lat="43.11261" lon="1.60297">
        <ele>282</ele>
        <time>2012-09-23T07:44:46Z</time>
      </trkpt>
      <trkpt lat="43.11256" lon="1.6029">
        <ele>283</ele>
        <time>2012-09-23T07:44:48Z</time>
      </trkpt>
      <trkpt lat="43.11252" lon="1.60283">
        <ele>283</ele>
        <time>2012-09-23T07:44:50Z</time>
      </trkpt>
      <trkpt lat="43.11248" lon="1.60277">
        <ele>284</ele>
        <time>2012-09-23T07:44:52Z</time>
      </trkpt>
      <trkpt lat="43.11245" lon="1.60272">
        <ele>285</ele>
        <time>2012-09-23T07:44:54Z</time>
      </trkpt>
      <trkpt lat="43.11242" lon="1.60267">
        <ele>286</ele>
        <time>2012-09-23T07:44:56Z</time>
      </trkpt>
      <trkpt lat="43.11239" lon="1.60261">
        <ele>286</ele>
        <time>2012-09-23T07:44:58Z</time>
      </trkpt>
      <trkpt lat="43.11237" lon="1.60256">
        <ele>287</ele>
        <time>2012-09-23T07:45:00Z</time>
      </trkpt>
      <trkpt lat="43.11234" lon="1.6025">
        <ele>288</ele>
        <time>2012-09-23T07:45:02Z</time>
      </trkpt>
      <trkpt lat="43.11232" lon="1.60245">
        <ele>289</ele>
        <time>2012-09-23T07:45:04Z</time>
      </trkpt>
      <trkpt lat="43.1123" lon="1.60239">
        <ele>290</ele>
        <time>2012-09-23T07:45:06Z</time>
      </trkpt>
      <trkpt lat="43.11229" lon="1.60233">
        <ele>290</ele>
        <time>2012-09-23T07:45:08Z</time>
      </trkpt>
      <trkpt lat="43.11227" lon="1.60228">
        <ele>291</ele>
        <time>2012-09-23T07:45:10Z</time>
      </trkpt>
      <trkpt lat="43.11225" lon="1.60222">
        <ele>291</ele>
        <time>2012-09-23T07:45:12Z</time>
      </trkpt>
      <trkpt lat="43.11222" lon="1.60218">
        <ele>291</ele>
        <time>2012-09-23T07:45:14Z</time>
      </trkpt>
      <trkpt lat="43.11218" lon="1.60215">
        <ele>293</ele>
        <time>2012-09-23T07:45:16Z</time>
      </trkpt>
      <trkpt lat="43.11214" lon="1.60216">
        <ele>294</ele>
        <time>2012-09-23T07:45:18Z</time>
      </trkpt>
      <trkpt lat="43.11208" lon="1.60217">
        <ele>294</ele>
        <time>2012-09-23T07:45:20Z</time>
      </trkpt>
      <trkpt lat="43.11202" lon="1.6022">
        <ele>295</ele>
        <time>2012-09-23T07:45:22Z</time>
      </trkpt>
      <trkpt lat="43.11195" lon="1.60221">
        <ele>295</ele>
        <time>2012-09-23T07:45:24Z</time>
      </trkpt>
      <trkpt lat="43.11187" lon="1.60218">
        <ele>295</ele>
        <time>2012-09-23T07:45:26Z</time>
      </trkpt>
      <trkpt lat="43.11179" lon="1.60213">
        <ele>295</ele>
        <time>2012-09-23T07:45:28Z</time>
      </trkpt>
      <trkpt lat="43.11172" lon="1.60208">
        <ele>295</ele>
        <time>2012-09-23T07:45:30Z</time>
      </trkpt>
      <trkpt lat="43.11166" lon="1.60203">
        <ele>295</ele>
        <time>2012-09-23T07:45:32Z</time>
      </trkpt>
      <trkpt lat="43.11158" lon="1.60199">
        <ele>295</ele>
        <time>2012-09-23T07:45:34Z</time>
      </trkpt>
      <trkpt lat="43.1115" lon="1.60196">
        <ele>296</ele>
        <time>2012-09-23T07:45:36Z</time>
      </trkpt>
      <trkpt lat="43.11143" lon="1.60193">
        <ele>296</ele>
        <time>2012-09-23T07:45:38Z</time>
      </trkpt>
      <trkpt lat="43.11135" lon="1.60191">
        <ele>296</ele>
        <time>2012-09-23T07:45:40Z</time>
      </trkpt>
      <trkpt lat="43.11129" lon="1.60189">
        <ele>296</ele>
        <time>2012-09-23T07:45:42Z</time>
      </trkpt>
      <trkpt lat="43.11123" lon="1.60187">
        <ele>297</ele>
        <time>2012-09-23T07:45:44Z</time>
      </trkpt>
      <trkpt lat="43.11118" lon="1.60185">
        <ele>297</ele>
        <time>2012-09-23T07:45:46Z</time>
      </trkpt>
      <trkpt lat="43.11113" lon="1.60183">
        <ele>298</ele>
        <time>2012-09-23T07:45:48Z</time>
      </trkpt>
      <trkpt lat="43.11108" lon="1.60181">
        <ele>299</ele>
        <time>2012-09-23T07:45:50Z</time>
      </trkpt>
      <trkpt lat="43.11102" lon="1.60179">
        <ele>299</ele>
        <time>2012-09-23T07:45:52Z</time>
      </trkpt>
      <trkpt lat="43.11097" lon="1.60177">
        <ele>300</ele>
        <time>2012-09-23T07:45:54Z</time>
      </trkpt>
      <trkpt lat="43.1109" lon="1.60174">
        <ele>301</ele>
        <time>2012-09-23T07:45:56Z</time>
      </trkpt>
      <trkpt lat="43.11083" lon="1.60169">
        <ele>301</ele>
        <time>2012-09-23T07:45:58Z</time>
      </trkpt>
      <trkpt lat="43.11074" lon="1.60164">
        <ele>301</ele>
        <time>2012-09-23T07:46:00Z</time>
      </trkpt>
      <trkpt lat="43.11061" lon="1.60158">
        <ele>301</ele>
        <time>2012-09-23T07:46:02Z</time>
      </trkpt>
      <trkpt lat="43.11046" lon="1.60154">
        <ele>301</ele>
        <time>2012-09-23T07:46:04Z</time>
      </trkpt>
      <trkpt lat="43.1103" lon="1.60147">
        <ele>301</ele>
        <time>2012-09-23T07:46:06Z</time>
      </trkpt>
      <trkpt lat="43.11014" lon="1.60137">
        <ele>301</ele>
        <time>2012-09-23T07:46:08Z</time>
      </trkpt>
      <trkpt lat="43.10999" lon="1.60128">
        <ele>300</ele>
        <time>2012-09-23T07:46:10Z</time>
      </trkpt>
      <trkpt lat="43.10984" lon="1.60125">
        <ele>299</ele>
        <time>2012-09-23T07:46:12Z</time>
      </trkpt>
      <trkpt lat="43.10968" lon="1.60129">
        <ele>298</ele>
        <time>2012-09-23T07:46:14Z</time>
      </trkpt>
      <trkpt lat="43.10954" lon="1.60131">
        <ele>297</ele>
        <time>2012-09-23T07:46:16Z</time>
      </trkpt>
      <trkpt lat="43.10941" lon="1.6013">
        <ele>297</ele>
        <time>2012-09-23T07:46:18Z</time>
      </trkpt>
      <trkpt lat="43.1093" lon="1.60126">
        <ele>297</ele>
        <time>2012-09-23T07:46:20Z</time>
      </trkpt>
      <trkpt lat="43.10921" lon="1.60124">
        <ele>297</ele>
        <time>2012-09-23T07:46:22Z</time>
      </trkpt>
      <trkpt lat="43.10913" lon="1.60122">
        <ele>297</ele>
        <time>2012-09-23T07:46:24Z</time>
      </trkpt>
      <trkpt lat="43.10905" lon="1.60119">
        <ele>297</ele>
        <time>2012-09-23T07:46:26Z</time>
      </trkpt>
      <trkpt lat="43.10897" lon="1.60119">
        <ele>297</ele>
        <time>2012-09-23T07:46:28Z</time>
      </trkpt>
      <trkpt lat="43.10889" lon="1.60118">
        <ele>297</ele>
        <time>2012-09-23T07:46:30Z</time>
      </trkpt>
      <trkpt lat="43.10879" lon="1.60118">
        <ele>297</ele>
        <time>2012-09-23T07:46:32Z</time>
      </trkpt>
      <trkpt lat="43.10869" lon="1.60118">
        <ele>297</ele>
        <time>2012-09-23T07:46:34Z</time>
      </trkpt>
      <trkpt lat="43.10861" lon="1.6012">
        <ele>297</ele>
        <time>2012-09-23T07:46:36Z</time>
      </trkpt>
      <trkpt lat="43.10855" lon="1.60129">
        <ele>297</ele>
        <time>2012-09-23T07:46:38Z</time>
      </trkpt>
      <trkpt lat="43.10849" lon="1.6014">
        <ele>297</ele>
        <time>2012-09-23T07:46:40Z</time>
      </trkpt>
      <trkpt lat="43.10843" lon="1.60151">
        <ele>297</ele>
        <time>2012-09-23T07:46:42Z</time>
      </trkpt>
      <trkpt lat="43.10836" lon="1.6016">
        <ele>298</ele>
        <time>2012-09-23T07:46:44Z</time>
      </trkpt>
      <trkpt lat="43.10826" lon="1.60168">
        <ele>299</ele>
        <time>2012-09-23T07:46:46Z</time>
      </trkpt>
      <trkpt lat="43.10815" lon="1.60178">
        <ele>300</ele>
        <time>2012-09-23T07:46:48Z</time>
      </trkpt>
      <trkpt lat="43.1081" lon="1.60185">
        <ele>300</ele>
        <time>2012-09-23T07:46:50Z</time>
      </trkpt>
      <trkpt lat="43.10806" lon="1.60186">
        <ele>300</ele>
        <time>2012-09-23T07:46:52Z</time>
      </trkpt>
      <trkpt lat="43.108" lon="1.60189">
        <ele>300</ele>
        <time>2012-09-23T07:46:54Z</time>
      </trkpt>
      <trkpt lat="43.10794" lon="1.60192">
        <ele>300</ele>
        <time>2012-09-23T07:46:56Z</time>
      </trkpt>
      <trkpt lat="43.10788" lon="1.60196">
        <ele>300</ele>
        <time>2012-09-23T07:46:58Z</time>
      </trkpt>
      <trkpt lat="43.10778" lon="1.602">
        <ele>300</ele>
        <time>2012-09-23T07:47:00Z</time>
      </trkpt>
      <trkpt lat="43.10768" lon="1.60199">
        <ele>300</ele>
        <time>2012-09-23T07:47:02Z</time>
      </trkpt>
      <trkpt lat="43.10758" lon="1.602">
        <ele>300</ele>
        <time>2012-09-23T07:47:04Z</time>
      </trkpt>
      <trkpt lat="43.10747" lon="1.60203">
        <ele>300</ele>
        <time>2012-09-23T07:47:06Z</time>
      </trkpt>
      <trkpt lat="43.10736" lon="1.60209">
        <ele>300</ele>
        <time>2012-09-23T07:47:08Z</time>
      </trkpt>
      <trkpt lat="43.10725" lon="1.60217">
        <ele>300</ele>
        <time>2012-09-23T07:47:10Z</time>
      </trkpt>
      <trkpt lat="43.10716" lon="1.60224">
        <ele>300</ele>
        <time>2012-09-23T07:47:12Z</time>
      </trkpt>
      <trkpt lat="43.1071" lon="1.60233">
        <ele>300</ele>
        <time>2012-09-23T07:47:14Z</time>
      </trkpt>
      <trkpt lat="43.10706" lon="1.60248">
        <ele>300</ele>
        <time>2012-09-23T07:47:16Z</time>
      </trkpt>
      <trkpt lat="43.10701" lon="1.60265">
        <ele>300</ele>
        <time>2012-09-23T07:47:18Z</time>
      </trkpt>
      <trkpt lat="43.10693" lon="1.60285">
        <ele>300</ele>
        <time>2012-09-23T07:47:20Z</time>
      </trkpt>
      <trkpt lat="43.10674" lon="1.60316">
        <ele>300</ele>
        <time>2012-09-23T07:47:22Z</time>
      </trkpt>
      <trkpt lat="43.10662" lon="1.60337">
        <ele>299</ele>
        <time>2012-09-23T07:47:25Z</time>
      </trkpt>
      <trkpt lat="43.10653" lon="1.6035">
        <ele>297</ele>
        <time>2012-09-23T07:47:27Z</time>
      </trkpt>
      <trkpt lat="43.10645" lon="1.60356">
        <ele>296</ele>
        <time>2012-09-23T07:47:29Z</time>
      </trkpt>
      <trkpt lat="43.10637" lon="1.6036">
        <ele>295</ele>
        <time>2012-09-23T07:47:31Z</time>
      </trkpt>
      <trkpt lat="43.10631" lon="1.60361">
        <ele>295</ele>
        <time>2012-09-23T07:47:33Z</time>
      </trkpt>
      <trkpt lat="43.10624" lon="1.60361">
        <ele>295</ele>
        <time>2012-09-23T07:47:35Z</time>
      </trkpt>
      <trkpt lat="43.10617" lon="1.60362">
        <ele>295</ele>
        <time>2012-09-23T07:47:37Z</time>
      </trkpt>
      <trkpt lat="43.10611" lon="1.60364">
        <ele>295</ele>
        <time>2012-09-23T07:47:39Z</time>
      </trkpt>
      <trkpt lat="43.10605" lon="1.60366">
        <ele>295</ele>
        <time>2012-09-23T07:47:41Z</time>
      </trkpt>
      <trkpt lat="43.106" lon="1.60369">
        <ele>295</ele>
        <time>2012-09-23T07:47:43Z</time>
      </trkpt>
      <trkpt lat="43.10596" lon="1.60372">
        <ele>295</ele>
        <time>2012-09-23T07:47:45Z</time>
      </trkpt>
      <trkpt lat="43.10593" lon="1.60377">
        <ele>295</ele>
        <time>2012-09-23T07:47:47Z</time>
      </trkpt>
      <trkpt lat="43.10592" lon="1.60381">
        <ele>295</ele>
        <time>2012-09-23T07:47:50Z</time>
      </trkpt>
      <trkpt lat="43.10591" lon="1.60384">
        <ele>295</ele>
        <time>2012-09-23T07:47:58Z</time>
      </trkpt>
      <trkpt lat="43.1059" lon="1.60392">
        <ele>295</ele>
        <time>2012-09-23T07:48:00Z</time>
      </trkpt>
      <trkpt lat="43.10586" lon="1.60402">
        <ele>295</ele>
        <time>2012-09-23T07:48:02Z</time>
      </trkpt>
      <trkpt lat="43.10582" lon="1.60413">
        <ele>295</ele>
        <time>2012-09-23T07:48:04Z</time>
      </trkpt>
      <trkpt lat="43.10578" lon="1.60424">
        <ele>295</ele>
        <time>2012-09-23T07:48:06Z</time>
      </trkpt>
      <trkpt lat="43.10573" lon="1.60435">
        <ele>295</ele>
        <time>2012-09-23T07:48:08Z</time>
      </trkpt>
      <trkpt lat="43.10567" lon="1.60445">
        <ele>296</ele>
        <time>2012-09-23T07:48:10Z</time>
      </trkpt>
      <trkpt lat="43.10559" lon="1.60454">
        <ele>296</ele>
        <time>2012-09-23T07:48:12Z</time>
      </trkpt>
      <trkpt lat="43.10551" lon="1.60465">
        <ele>297</ele>
        <time>2012-09-23T07:48:14Z</time>
      </trkpt>
      <trkpt lat="43.10542" lon="1.60476">
        <ele>297</ele>
        <time>2012-09-23T07:48:16Z</time>
      </trkpt>
      <trkpt lat="43.10535" lon="1.60489">
        <ele>297</ele>
        <time>2012-09-23T07:48:18Z</time>
      </trkpt>
      <trkpt lat="43.10532" lon="1.60505">
        <ele>297</ele>
        <time>2012-09-23T07:48:20Z</time>
      </trkpt>
      <trkpt lat="43.1053" lon="1.60523">
        <ele>297</ele>
        <time>2012-09-23T07:48:22Z</time>
      </trkpt>
      <trkpt lat="43.10529" lon="1.60542">
        <ele>297</ele>
        <time>2012-09-23T07:48:24Z</time>
      </trkpt>
      <trkpt lat="43.10527" lon="1.60562">
        <ele>297</ele>
        <time>2012-09-23T07:48:26Z</time>
      </trkpt>
      <trkpt lat="43.10524" lon="1.60583">
        <ele>297</ele>
        <time>2012-09-23T07:48:28Z</time>
      </trkpt>
      <trkpt lat="43.1052" lon="1.60606">
        <ele>297</ele>
        <time>2012-09-23T07:48:30Z</time>
      </trkpt>
      <trkpt lat="43.10514" lon="1.60631">
        <ele>297</ele>
        <time>2012-09-23T07:48:32Z</time>
      </trkpt>
      <trkpt lat="43.10509" lon="1.60655">
        <ele>297</ele>
        <time>2012-09-23T07:48:34Z</time>
      </trkpt>
      <trkpt lat="43.10504" lon="1.60678">
        <ele>297</ele>
        <time>2012-09-23T07:48:36Z</time>
      </trkpt>
      <trkpt lat="43.10501" lon="1.607">
        <ele>297</ele>
        <time>2012-09-23T07:48:38Z</time>
      </trkpt>
      <trkpt lat="43.10499" lon="1.60722">
        <ele>297</ele>
        <time>2012-09-23T07:48:40Z</time>
      </trkpt>
      <trkpt lat="43.10497" lon="1.60743">
        <ele>296</ele>
        <time>2012-09-23T07:48:42Z</time>
      </trkpt>
      <trkpt lat="43.10495" lon="1.60764">
        <ele>296</ele>
        <time>2012-09-23T07:48:44Z</time>
      </trkpt>
      <trkpt lat="43.10492" lon="1.60784">
        <ele>296</ele>
        <time>2012-09-23T07:48:46Z</time>
      </trkpt>
      <trkpt lat="43.1049" lon="1.60804">
        <ele>295</ele>
        <time>2012-09-23T07:48:48Z</time>
      </trkpt>
      <trkpt lat="43.10487" lon="1.60823">
        <ele>295</ele>
        <time>2012-09-23T07:48:50Z</time>
      </trkpt>
      <trkpt lat="43.10486" lon="1.60841">
        <ele>295</ele>
        <time>2012-09-23T07:48:52Z</time>
      </trkpt>
      <trkpt lat="43.10485" lon="1.60857">
        <ele>295</ele>
        <time>2012-09-23T07:48:54Z</time>
      </trkpt>
      <trkpt lat="43.10484" lon="1.60873">
        <ele>295</ele>
        <time>2012-09-23T07:48:56Z</time>
      </trkpt>
      <trkpt lat="43.10484" lon="1.60888">
        <ele>295</ele>
        <time>2012-09-23T07:48:58Z</time>
      </trkpt>
      <trkpt lat="43.10486" lon="1.60904">
        <ele>295</ele>
        <time>2012-09-23T07:49:00Z</time>
      </trkpt>
      <trkpt lat="43.10487" lon="1.60919">
        <ele>295</ele>
        <time>2012-09-23T07:49:02Z</time>
      </trkpt>
      <trkpt lat="43.10489" lon="1.60934">
        <ele>295</ele>
        <time>2012-09-23T07:49:04Z</time>
      </trkpt>
      <trkpt lat="43.1049" lon="1.6095">
        <ele>295</ele>
        <time>2012-09-23T07:49:06Z</time>
      </trkpt>
      <trkpt lat="43.1049" lon="1.60965">
        <ele>295</ele>
        <time>2012-09-23T07:49:08Z</time>
      </trkpt>
      <trkpt lat="43.1049" lon="1.6098">
        <ele>295</ele>
        <time>2012-09-23T07:49:10Z</time>
      </trkpt>
      <trkpt lat="43.10491" lon="1.60995">
        <ele>295</ele>
        <time>2012-09-23T07:49:12Z</time>
      </trkpt>
      <trkpt lat="43.10493" lon="1.6101">
        <ele>295</ele>
        <time>2012-09-23T07:49:14Z</time>
      </trkpt>
      <trkpt lat="43.10493" lon="1.61024">
        <ele>295</ele>
        <time>2012-09-23T07:49:16Z</time>
      </trkpt>
      <trkpt lat="43.10495" lon="1.61038">
        <ele>295</ele>
        <time>2012-09-23T07:49:18Z</time>
      </trkpt>
      <trkpt lat="43.10498" lon="1.61052">
        <ele>295</ele>
        <time>2012-09-23T07:49:20Z</time>
      </trkpt>
      <trkpt lat="43.10498" lon="1.61063">
        <ele>296</ele>
        <time>2012-09-23T07:49:22Z</time>
      </trkpt>
      <trkpt lat="43.10497" lon="1.61074">
        <ele>296</ele>
        <time>2012-09-23T07:49:24Z</time>
      </trkpt>
      <trkpt lat="43.10495" lon="1.61084">
        <ele>296</ele>
        <time>2012-09-23T07:49:26Z</time>
      </trkpt>
      <trkpt lat="43.1049" lon="1.61092">
        <ele>296</ele>
        <time>2012-09-23T07:49:28Z</time>
      </trkpt>
      <trkpt lat="43.10486" lon="1.61096">
        <ele>297</ele>
        <time>2012-09-23T07:49:30Z</time>
      </trkpt>
      <trkpt lat="43.10487" lon="1.61098">
        <ele>297</ele>
        <time>2012-09-23T07:49:48Z</time>
      </trkpt>
      <trkpt lat="43.10488" lon="1.61096">
        <ele>297</ele>
        <time>2012-09-23T07:49:54Z</time>
      </trkpt>
      <trkpt lat="43.10489" lon="1.61095">
        <ele>297</ele>
        <time>2012-09-23T07:50:15Z</time>
      </trkpt>
      <trkpt lat="43.10487" lon="1.61095">
        <ele>297</ele>
        <time>2012-09-23T07:50:29Z</time>
      </trkpt>
      <trkpt lat="43.10483" lon="1.61091">
        <ele>297</ele>
        <time>2012-09-23T07:50:31Z</time>
      </trkpt>
      <trkpt lat="43.1048" lon="1.61085">
        <ele>297</ele>
        <time>2012-09-23T07:50:33Z</time>
      </trkpt>
      <trkpt lat="43.10482" lon="1.61079">
        <ele>296</ele>
        <time>2012-09-23T07:50:35Z</time>
      </trkpt>
      <trkpt lat="43.10486" lon="1.61073">
        <ele>295</ele>
        <time>2012-09-23T07:50:37Z</time>
      </trkpt>
      <trkpt lat="43.10488" lon="1.61068">
        <ele>295</ele>
        <time>2012-09-23T07:50:39Z</time>
      </trkpt>
      <trkpt lat="43.10487" lon="1.61068">
        <ele>294</ele>
        <time>2012-09-23T07:50:44Z</time>
      </trkpt>
      <trkpt lat="43.10484" lon="1.61067">
        <ele>294</ele>
        <time>2012-09-23T07:50:46Z</time>
      </trkpt>
      <trkpt lat="43.10483" lon="1.61067">
        <ele>294</ele>
        <time>2012-09-23T07:50:48Z</time>
      </trkpt>
      <trkpt lat="43.10482" lon="1.61069">
        <ele>290</ele>
        <time>2012-09-23T07:51:08Z</time>
      </trkpt>
      <trkpt lat="43.10482" lon="1.61071">
        <ele>290</ele>
        <time>2012-09-23T07:51:10Z</time>
      </trkpt>
      <trkpt lat="43.10481" lon="1.61073">
        <ele>290</ele>
        <time>2012-09-23T07:51:12Z</time>
      </trkpt>
      <trkpt lat="43.10482" lon="1.61073">
        <ele>290</ele>
        <time>2012-09-23T07:51:17Z</time>
      </trkpt>
      <trkpt lat="43.10481" lon="1.61072">
        <ele>290</ele>
        <time>2012-09-23T07:51:20Z</time>
      </trkpt>
      <trkpt lat="43.1048" lon="1.6107">
        <ele>290</ele>
        <time>2012-09-23T07:51:22Z</time>
      </trkpt>
      <trkpt lat="43.10478" lon="1.61068">
        <ele>290</ele>
        <time>2012-09-23T07:51:34Z</time>
      </trkpt>
      <trkpt lat="43.10476" lon="1.61066">
        <ele>290</ele>
        <time>2012-09-23T07:51:36Z</time>
      </trkpt>
      <trkpt lat="43.10475" lon="1.61063">
        <ele>290</ele>
        <time>2012-09-23T07:51:38Z</time>
      </trkpt>
      <trkpt lat="43.10475" lon="1.61059">
        <ele>290</ele>
        <time>2012-09-23T07:51:40Z</time>
      </trkpt>
      <trkpt lat="43.10476" lon="1.61056">
        <ele>290</ele>
        <time>2012-09-23T07:51:42Z</time>
      </trkpt>
      <trkpt lat="43.10477" lon="1.6105">
        <ele>290</ele>
        <time>2012-09-23T07:51:44Z</time>
      </trkpt>
      <trkpt lat="43.10478" lon="1.61041">
        <ele>289</ele>
        <time>2012-09-23T07:51:46Z</time>
      </trkpt>
      <trkpt lat="43.10479" lon="1.61031">
        <ele>289</ele>
        <time>2012-09-23T07:51:48Z</time>
      </trkpt>
      <trkpt lat="43.10481" lon="1.6102">
        <ele>288</ele>
        <time>2012-09-23T07:51:50Z</time>
      </trkpt>
      <trkpt lat="43.10482" lon="1.6101">
        <ele>288</ele>
        <time>2012-09-23T07:51:52Z</time>
      </trkpt>
      <trkpt lat="43.10483" lon="1.61">
        <ele>288</ele>
        <time>2012-09-23T07:51:54Z</time>
      </trkpt>
      <trkpt lat="43.10484" lon="1.6099">
        <ele>287</ele>
        <time>2012-09-23T07:51:56Z</time>
      </trkpt>
      <trkpt lat="43.10485" lon="1.6098">
        <ele>287</ele>
        <time>2012-09-23T07:51:58Z</time>
      </trkpt>
      <trkpt lat="43.10485" lon="1.6097">
        <ele>287</ele>
        <time>2012-09-23T07:52:00Z</time>
      </trkpt>
      <trkpt lat="43.10485" lon="1.60961">
        <ele>287</ele>
        <time>2012-09-23T07:52:02Z</time>
      </trkpt>
      <trkpt lat="43.10484" lon="1.60952">
        <ele>287</ele>
        <time>2012-09-23T07:52:04Z</time>
      </trkpt>
      <trkpt lat="43.10483" lon="1.60942">
        <ele>287</ele>
        <time>2012-09-23T07:52:06Z</time>
      </trkpt>
      <trkpt lat="43.10483" lon="1.60933">
        <ele>287</ele>
        <time>2012-09-23T07:52:08Z</time>
      </trkpt>
      <trkpt lat="43.10482" lon="1.60925">
        <ele>287</ele>
        <time>2012-09-23T07:52:10Z</time>
      </trkpt>
      <trkpt lat="43.1048" lon="1.60918">
        <ele>287</ele>
        <time>2012-09-23T07:52:12Z</time>
      </trkpt>
      <trkpt lat="43.10478" lon="1.60912">
        <ele>287</ele>
        <time>2012-09-23T07:52:14Z</time>
      </trkpt>
      <trkpt lat="43.10477" lon="1.60905">
        <ele>287</ele>
        <time>2012-09-23T07:52:16Z</time>
      </trkpt>
      <trkpt lat="43.10476" lon="1.60898">
        <ele>287</ele>
        <time>2012-09-23T07:52:18Z</time>
      </trkpt>
      <trkpt lat="43.10477" lon="1.6089">
        <ele>287</ele>
        <time>2012-09-23T07:52:20Z</time>
      </trkpt>
      <trkpt lat="43.10478" lon="1.60883">
        <ele>287</ele>
        <time>2012-09-23T07:52:22Z</time>
      </trkpt>
      <trkpt lat="43.1048" lon="1.60877">
        <ele>287</ele>
        <time>2012-09-23T07:52:24Z</time>
      </trkpt>
      <trkpt lat="43.1048" lon="1.6087">
        <ele>287</ele>
        <time>2012-09-23T07:52:26Z</time>
      </trkpt>
      <trkpt lat="43.10482" lon="1.60862">
        <ele>287</ele>
        <time>2012-09-23T07:52:28Z</time>
      </trkpt>
      <trkpt lat="43.10482" lon="1.60854">
        <ele>287</ele>
        <time>2012-09-23T07:52:30Z</time>
      </trkpt>
      <trkpt lat="43.10484" lon="1.60846">
        <ele>287</ele>
        <time>2012-09-23T07:52:32Z</time>
      </trkpt>
      <trkpt lat="43.10486" lon="1.60838">
        <ele>287</ele>
        <time>2012-09-23T07:52:34Z</time>
      </trkpt>
      <trkpt lat="43.10487" lon="1.60831">
        <ele>287</ele>
        <time>2012-09-23T07:52:36Z</time>
      </trkpt>
      <trkpt lat="43.10488" lon="1.60823">
        <ele>287</ele>
        <time>2012-09-23T07:52:38Z</time>
      </trkpt>
      <trkpt lat="43.10489" lon="1.60814">
        <ele>287</ele>
        <time>2012-09-23T07:52:40Z</time>
      </trkpt>
      <trkpt lat="43.1049" lon="1.60805">
        <ele>287</ele>
        <time>2012-09-23T07:52:42Z</time>
      </trkpt>
      <trkpt lat="43.1049" lon="1.60795">
        <ele>287</ele>
        <time>2012-09-23T07:52:44Z</time>
      </trkpt>
      <trkpt lat="43.10492" lon="1.60786">
        <ele>287</ele>
        <time>2012-09-23T07:52:46Z</time>
      </trkpt>
      <trkpt lat="43.10493" lon="1.60777">
        <ele>287</ele>
        <time>2012-09-23T07:52:48Z</time>
      </trkpt>
      <trkpt lat="43.10494" lon="1.60768">
        <ele>287</ele>
        <time>2012-09-23T07:52:50Z</time>
      </trkpt>
      <trkpt lat="43.10495" lon="1.6076">
        <ele>287</ele>
        <time>2012-09-23T07:52:52Z</time>
      </trkpt>
      <trkpt lat="43.10496" lon="1.60751">
        <ele>287</ele>
        <time>2012-09-23T07:52:54Z</time>
      </trkpt>
      <trkpt lat="43.10498" lon="1.60742">
        <ele>287</ele>
        <time>2012-09-23T07:52:56Z</time>
      </trkpt>
      <trkpt lat="43.10499" lon="1.60734">
        <ele>287</ele>
        <time>2012-09-23T07:52:58Z</time>
      </trkpt>
      <trkpt lat="43.105" lon="1.60725">
        <ele>287</ele>
        <time>2012-09-23T07:53:00Z</time>
      </trkpt>
      <trkpt lat="43.10501" lon="1.60716">
        <ele>287</ele>
        <time>2012-09-23T07:53:02Z</time>
      </trkpt>
      <trkpt lat="43.10502" lon="1.60707">
        <ele>287</ele>
        <time>2012-09-23T07:53:04Z</time>
      </trkpt>
      <trkpt lat="43.10502" lon="1.60699">
        <ele>287</ele>
        <time>2012-09-23T07:53:06Z</time>
      </trkpt>
      <trkpt lat="43.10503" lon="1.6069">
        <ele>287</ele>
        <time>2012-09-23T07:53:08Z</time>
      </trkpt>
      <trkpt lat="43.10504" lon="1.60682">
        <ele>287</ele>
        <time>2012-09-23T07:53:10Z</time>
      </trkpt>
      <trkpt lat="43.10505" lon="1.60674">
        <ele>287</ele>
        <time>2012-09-23T07:53:12Z</time>
      </trkpt>
      <trkpt lat="43.10506" lon="1.60665">
        <ele>287</ele>
        <time>2012-09-23T07:53:14Z</time>
      </trkpt>
      <trkpt lat="43.10508" lon="1.60657">
        <ele>287</ele>
        <time>2012-09-23T07:53:16Z</time>
      </trkpt>
      <trkpt lat="43.10509" lon="1.60649">
        <ele>287</ele>
        <time>2012-09-23T07:53:18Z</time>
      </trkpt>
      <trkpt lat="43.10511" lon="1.60641">
        <ele>287</ele>
        <time>2012-09-23T07:53:20Z</time>
      </trkpt>
      <trkpt lat="43.10513" lon="1.60634">
        <ele>287</ele>
        <time>2012-09-23T07:53:22Z</time>
      </trkpt>
      <trkpt lat="43.10515" lon="1.60626">
        <ele>287</ele>
        <time>2012-09-23T07:53:24Z</time>
      </trkpt>
      <trkpt lat="43.10517" lon="1.60615">
        <ele>287</ele>
        <time>2012-09-23T07:53:27Z</time>
      </trkpt>
      <trkpt lat="43.10519" lon="1.60608">
        <ele>287</ele>
        <time>2012-09-23T07:53:29Z</time>
      </trkpt>
      <trkpt lat="43.10521" lon="1.60601">
        <ele>287</ele>
        <time>2012-09-23T07:53:31Z</time>
      </trkpt>
      <trkpt lat="43.10522" lon="1.60594">
        <ele>287</ele>
        <time>2012-09-23T07:53:33Z</time>
      </trkpt>
      <trkpt lat="43.10524" lon="1.60587">
        <ele>287</ele>
        <time>2012-09-23T07:53:35Z</time>
      </trkpt>
      <trkpt lat="43.10525" lon="1.60581">
        <ele>287</ele>
        <time>2012-09-23T07:53:37Z</time>
      </trkpt>
      <trkpt lat="43.10527" lon="1.60575">
        <ele>288</ele>
        <time>2012-09-23T07:53:39Z</time>
      </trkpt>
      <trkpt lat="43.10528" lon="1.60569">
        <ele>288</ele>
        <time>2012-09-23T07:53:41Z</time>
      </trkpt>
      <trkpt lat="43.10529" lon="1.60563">
        <ele>289</ele>
        <time>2012-09-23T07:53:43Z</time>
      </trkpt>
      <trkpt lat="43.10529" lon="1.60557">
        <ele>289</ele>
        <time>2012-09-23T07:53:45Z</time>
      </trkpt>
      <trkpt lat="43.1053" lon="1.6055">
        <ele>290</ele>
        <time>2012-09-23T07:53:47Z</time>
      </trkpt>
      <trkpt lat="43.1053" lon="1.60543">
        <ele>290</ele>
        <time>2012-09-23T07:53:49Z</time>
      </trkpt>
      <trkpt lat="43.10529" lon="1.60536">
        <ele>290</ele>
        <time>2012-09-23T07:53:51Z</time>
      </trkpt>
      <trkpt lat="43.10528" lon="1.6053">
        <ele>290</ele>
        <time>2012-09-23T07:53:53Z</time>
      </trkpt>
      <trkpt lat="43.10527" lon="1.60525">
        <ele>290</ele>
        <time>2012-09-23T07:53:55Z</time>
      </trkpt>
      <trkpt lat="43.10526" lon="1.60521">
        <ele>291</ele>
        <time>2012-09-23T07:53:57Z</time>
      </trkpt>
      <trkpt lat="43.10525" lon="1.60518">
        <ele>292</ele>
        <time>2012-09-23T07:53:59Z</time>
      </trkpt>
      <trkpt lat="43.10524" lon="1.60515">
        <ele>292</ele>
        <time>2012-09-23T07:54:01Z</time>
      </trkpt>
      <trkpt lat="43.10523" lon="1.60512">
        <ele>292</ele>
        <time>2012-09-23T07:54:03Z</time>
      </trkpt>
      <trkpt lat="43.10521" lon="1.60509">
        <ele>293</ele>
        <time>2012-09-23T07:54:05Z</time>
      </trkpt>
      <trkpt lat="43.10519" lon="1.60506">
        <ele>293</ele>
        <time>2012-09-23T07:54:07Z</time>
      </trkpt>
      <trkpt lat="43.10517" lon="1.60504">
        <ele>294</ele>
        <time>2012-09-23T07:54:09Z</time>
      </trkpt>
      <trkpt lat="43.10515" lon="1.60502">
        <ele>294</ele>
        <time>2012-09-23T07:54:11Z</time>
      </trkpt>
      <trkpt lat="43.10513" lon="1.60501">
        <ele>296</ele>
        <time>2012-09-23T07:54:13Z</time>
      </trkpt>
      <trkpt lat="43.1051" lon="1.60501">
        <ele>297</ele>
        <time>2012-09-23T07:54:15Z</time>
      </trkpt>
      <trkpt lat="43.10507" lon="1.605">
        <ele>298</ele>
        <time>2012-09-23T07:54:17Z</time>
      </trkpt>
      <trkpt lat="43.10505" lon="1.60499">
        <ele>299</ele>
        <time>2012-09-23T07:54:19Z</time>
      </trkpt>
      <trkpt lat="43.10502" lon="1.60499">
        <ele>300</ele>
        <time>2012-09-23T07:54:21Z</time>
      </trkpt>
      <trkpt lat="43.105" lon="1.60499">
        <ele>301</ele>
        <time>2012-09-23T07:54:23Z</time>
      </trkpt>
      <trkpt lat="43.10497" lon="1.60499">
        <ele>301</ele>
        <time>2012-09-23T07:54:25Z</time>
      </trkpt>
      <trkpt lat="43.10495" lon="1.60499">
        <ele>302</ele>
        <time>2012-09-23T07:54:27Z</time>
      </trkpt>
      <trkpt lat="43.10491" lon="1.60499">
        <ele>303</ele>
        <time>2012-09-23T07:54:30Z</time>
      </trkpt>
      <trkpt lat="43.10489" lon="1.605">
        <ele>304</ele>
        <time>2012-09-23T07:54:32Z</time>
      </trkpt>
      <trkpt lat="43.10487" lon="1.605">
        <ele>305</ele>
        <time>2012-09-23T07:54:35Z</time>
      </trkpt>
      <trkpt lat="43.10485" lon="1.605">
        <ele>306</ele>
        <time>2012-09-23T07:54:39Z</time>
      </trkpt>
      <trkpt lat="43.10482" lon="1.60499">
        <ele>307</ele>
        <time>2012-09-23T07:54:41Z</time>
      </trkpt>
      <trkpt lat="43.10478" lon="1.60497">
        <ele>307</ele>
        <time>2012-09-23T07:54:43Z</time>
      </trkpt>
      <trkpt lat="43.10474" lon="1.60495">
        <ele>308</ele>
        <time>2012-09-23T07:54:45Z</time>
      </trkpt>
      <trkpt lat="43.10469" lon="1.60494">
        <ele>308</ele>
        <time>2012-09-23T07:54:47Z</time>
      </trkpt>
      <trkpt lat="43.10464" lon="1.60492">
        <ele>308</ele>
        <time>2012-09-23T07:54:49Z</time>
      </trkpt>
      <trkpt lat="43.1046" lon="1.6049">
        <ele>309</ele>
        <time>2012-09-23T07:54:51Z</time>
      </trkpt>
      <trkpt lat="43.10455" lon="1.60488">
        <ele>309</ele>
        <time>2012-09-23T07:54:53Z</time>
      </trkpt>
      <trkpt lat="43.10453" lon="1.60487">
        <ele>310</ele>
        <time>2012-09-23T07:54:55Z</time>
      </trkpt>
      <trkpt lat="43.1045" lon="1.60485">
        <ele>310</ele>
        <time>2012-09-23T07:54:57Z</time>
      </trkpt>
      <trkpt lat="43.10448" lon="1.60484">
        <ele>311</ele>
        <time>2012-09-23T07:54:59Z</time>
      </trkpt>
      <trkpt lat="43.10446" lon="1.60481">
        <ele>312</ele>
        <time>2012-09-23T07:55:01Z</time>
      </trkpt>
      <trkpt lat="43.10445" lon="1.60479">
        <ele>313</ele>
        <time>2012-09-23T07:55:03Z</time>
      </trkpt>
      <trkpt lat="43.10443" lon="1.60477">
        <ele>313</ele>
        <time>2012-09-23T07:55:05Z</time>
      </trkpt>
      <trkpt lat="43.10442" lon="1.60475">
        <ele>314</ele>
        <time>2012-09-23T07:55:07Z</time>
      </trkpt>
      <trkpt lat="43.1044" lon="1.60473">
        <ele>314</ele>
        <time>2012-09-23T07:55:09Z</time>
      </trkpt>
      <trkpt lat="43.10439" lon="1.60472">
        <ele>315</ele>
        <time>2012-09-23T07:55:11Z</time>
      </trkpt>
      <trkpt lat="43.10437" lon="1.6047">
        <ele>315</ele>
        <time>2012-09-23T07:55:13Z</time>
      </trkpt>
      <trkpt lat="43.10436" lon="1.60468">
        <ele>316</ele>
        <time>2012-09-23T07:55:15Z</time>
      </trkpt>
      <trkpt lat="43.10435" lon="1.60467">
        <ele>316</ele>
        <time>2012-09-23T07:55:17Z</time>
      </trkpt>
      <trkpt lat="43.10433" lon="1.60465">
        <ele>317</ele>
        <time>2012-09-23T07:55:19Z</time>
      </trkpt>
      <trkpt lat="43.10431" lon="1.60464">
        <ele>317</ele>
        <time>2012-09-23T07:55:21Z</time>
      </trkpt>
      <trkpt lat="43.10428" lon="1.60462">
        <ele>318</ele>
        <time>2012-09-23T07:55:24Z</time>
      </trkpt>
      <trkpt lat="43.10426" lon="1.6046">
        <ele>319</ele>
        <time>2012-09-23T07:55:26Z</time>
      </trkpt>
      <trkpt lat="43.10423" lon="1.60459">
        <ele>320</ele>
        <time>2012-09-23T07:55:29Z</time>
      </trkpt>
      <trkpt lat="43.10421" lon="1.60458">
        <ele>320</ele>
        <time>2012-09-23T07:55:31Z</time>
      </trkpt>
      <trkpt lat="43.10418" lon="1.60456">
        <ele>321</ele>
        <time>2012-09-23T07:55:34Z</time>
      </trkpt>
      <trkpt lat="43.10416" lon="1.60454">
        <ele>322</ele>
        <time>2012-09-23T07:55:36Z</time>
      </trkpt>
      <trkpt lat="43.10414" lon="1.60452">
        <ele>322</ele>
        <time>2012-09-23T07:55:38Z</time>
      </trkpt>
      <trkpt lat="43.10412" lon="1.60451">
        <ele>322</ele>
        <time>2012-09-23T07:55:40Z</time>
      </trkpt>
      <trkpt lat="43.10411" lon="1.60452">
        <ele>322</ele>
        <time>2012-09-23T07:55:42Z</time>
      </trkpt>
      <trkpt lat="43.1041" lon="1.6045">
        <ele>323</ele>
        <time>2012-09-23T07:55:48Z</time>
      </trkpt>
      <trkpt lat="43.10408" lon="1.60448">
        <ele>323</ele>
        <time>2012-09-23T07:55:50Z</time>
      </trkpt>
      <trkpt lat="43.10405" lon="1.60445">
        <ele>323</ele>
        <time>2012-09-23T07:55:52Z</time>
      </trkpt>
      <trkpt lat="43.10403" lon="1.60442">
        <ele>323</ele>
        <time>2012-09-23T07:55:54Z</time>
      </trkpt>
      <trkpt lat="43.10401" lon="1.60439">
        <ele>323</ele>
        <time>2012-09-23T07:55:56Z</time>
      </trkpt>
      <trkpt lat="43.10398" lon="1.60436">
        <ele>323</ele>
        <time>2012-09-23T07:55:59Z</time>
      </trkpt>
      <trkpt lat="43.10395" lon="1.60434">
        <ele>323</ele>
        <time>2012-09-23T07:56:01Z</time>
      </trkpt>
      <trkpt lat="43.10393" lon="1.60433">
        <ele>324</ele>
        <time>2012-09-23T07:56:03Z</time>
      </trkpt>
      <trkpt lat="43.1039" lon="1.60432">
        <ele>324</ele>
        <time>2012-09-23T07:56:05Z</time>
      </trkpt>
      <trkpt lat="43.10387" lon="1.60433">
        <ele>324</ele>
        <time>2012-09-23T07:56:07Z</time>
      </trkpt>
      <trkpt lat="43.10383" lon="1.60433">
        <ele>325</ele>
        <time>2012-09-23T07:56:09Z</time>
      </trkpt>
      <trkpt lat="43.1038" lon="1.60432">
        <ele>326</ele>
        <time>2012-09-23T07:56:11Z</time>
      </trkpt>
      <trkpt lat="43.10377" lon="1.60431">
        <ele>326</ele>
        <time>2012-09-23T07:56:13Z</time>
      </trkpt>
      <trkpt lat="43.10374" lon="1.6043">
        <ele>326</ele>
        <time>2012-09-23T07:56:15Z</time>
      </trkpt>
      <trkpt lat="43.10369" lon="1.6043">
        <ele>327</ele>
        <time>2012-09-23T07:56:17Z</time>
      </trkpt>
      <trkpt lat="43.10366" lon="1.6043">
        <ele>328</ele>
        <time>2012-09-23T07:56:19Z</time>
      </trkpt>
      <trkpt lat="43.10363" lon="1.60429">
        <ele>328</ele>
        <time>2012-09-23T07:56:21Z</time>
      </trkpt>
      <trkpt lat="43.10361" lon="1.60426">
        <ele>329</ele>
        <time>2012-09-23T07:56:23Z</time>
      </trkpt>
      <trkpt lat="43.10359" lon="1.60423">
        <ele>330</ele>
        <time>2012-09-23T07:56:25Z</time>
      </trkpt>
      <trkpt lat="43.10357" lon="1.60421">
        <ele>330</ele>
        <time>2012-09-23T07:56:27Z</time>
      </trkpt>
      <trkpt lat="43.10355" lon="1.60418">
        <ele>330</ele>
        <time>2012-09-23T07:56:29Z</time>
      </trkpt>
      <trkpt lat="43.10353" lon="1.60415">
        <ele>330</ele>
        <time>2012-09-23T07:56:31Z</time>
      </trkpt>
      <trkpt lat="43.10352" lon="1.60413">
        <ele>330</ele>
        <time>2012-09-23T07:56:33Z</time>
      </trkpt>
      <trkpt lat="43.1035" lon="1.6041">
        <ele>331</ele>
        <time>2012-09-23T07:56:35Z</time>
      </trkpt>
      <trkpt lat="43.10349" lon="1.60405">
        <ele>331</ele>
        <time>2012-09-23T07:56:38Z</time>
      </trkpt>
      <trkpt lat="43.10347" lon="1.60403">
        <ele>331</ele>
        <time>2012-09-23T07:56:40Z</time>
      </trkpt>
      <trkpt lat="43.10346" lon="1.604">
        <ele>331</ele>
        <time>2012-09-23T07:56:42Z</time>
      </trkpt>
      <trkpt lat="43.10344" lon="1.60398">
        <ele>331</ele>
        <time>2012-09-23T07:56:44Z</time>
      </trkpt>
      <trkpt lat="43.10342" lon="1.60397">
        <ele>331</ele>
        <time>2012-09-23T07:56:46Z</time>
      </trkpt>
      <trkpt lat="43.1034" lon="1.60396">
        <ele>331</ele>
        <time>2012-09-23T07:56:48Z</time>
      </trkpt>
      <trkpt lat="43.10338" lon="1.60395">
        <ele>331</ele>
        <time>2012-09-23T07:56:50Z</time>
      </trkpt>
      <trkpt lat="43.10336" lon="1.60395">
        <ele>331</ele>
        <time>2012-09-23T07:56:52Z</time>
      </trkpt>
      <trkpt lat="43.10334" lon="1.60395">
        <ele>332</ele>
        <time>2012-09-23T07:56:54Z</time>
      </trkpt>
      <trkpt lat="43.10331" lon="1.60396">
        <ele>333</ele>
        <time>2012-09-23T07:56:57Z</time>
      </trkpt>
      <trkpt lat="43.10329" lon="1.60398">
        <ele>333</ele>
        <time>2012-09-23T07:56:59Z</time>
      </trkpt>
      <trkpt lat="43.10326" lon="1.604">
        <ele>333</ele>
        <time>2012-09-23T07:57:02Z</time>
      </trkpt>
      <trkpt lat="43.10324" lon="1.60401">
        <ele>334</ele>
        <time>2012-09-23T07:57:04Z</time>
      </trkpt>
      <trkpt lat="43.10322" lon="1.60403">
        <ele>334</ele>
        <time>2012-09-23T07:57:06Z</time>
      </trkpt>
      <trkpt lat="43.1032" lon="1.60405">
        <ele>334</ele>
        <time>2012-09-23T07:57:08Z</time>
      </trkpt>
      <trkpt lat="43.10318" lon="1.60407">
        <ele>334</ele>
        <time>2012-09-23T07:57:10Z</time>
      </trkpt>
      <trkpt lat="43.10317" lon="1.60408">
        <ele>334</ele>
        <time>2012-09-23T07:57:22Z</time>
      </trkpt>
      <trkpt lat="43.10315" lon="1.6041">
        <ele>334</ele>
        <time>2012-09-23T07:57:24Z</time>
      </trkpt>
      <trkpt lat="43.10316" lon="1.60408">
        <ele>334</ele>
        <time>2012-09-23T07:57:29Z</time>
      </trkpt>
      <trkpt lat="43.10317" lon="1.60408">
        <ele>334</ele>
        <time>2012-09-23T07:57:34Z</time>
      </trkpt>
      <trkpt lat="43.10318" lon="1.60407">
        <ele>334</ele>
        <time>2012-09-23T07:57:40Z</time>
      </trkpt>
      <trkpt lat="43.10317" lon="1.60407">
        <ele>334</ele>
        <time>2012-09-23T07:58:07Z</time>
      </trkpt>
      <trkpt lat="43.10318" lon="1.60408">
        <ele>334</ele>
        <time>2012-09-23T07:58:49Z</time>
      </trkpt>
      <trkpt lat="43.1032" lon="1.60406">
        <ele>334</ele>
        <time>2012-09-23T07:58:58Z</time>
      </trkpt>
      <trkpt lat="43.10321" lon="1.60404">
        <ele>334</ele>
        <time>2012-09-23T07:59:00Z</time>
      </trkpt>
      <trkpt lat="43.10322" lon="1.60403">
        <ele>334</ele>
        <time>2012-09-23T07:59:02Z</time>
      </trkpt>
      <trkpt lat="43.10324" lon="1.60401">
        <ele>333</ele>
        <time>2012-09-23T07:59:05Z</time>
      </trkpt>
      <trkpt lat="43.10327" lon="1.60398">
        <ele>333</ele>
        <time>2012-09-23T07:59:07Z</time>
      </trkpt>
      <trkpt lat="43.10331" lon="1.60395">
        <ele>333</ele>
        <time>2012-09-23T07:59:09Z</time>
      </trkpt>
      <trkpt lat="43.10335" lon="1.60393">
        <ele>333</ele>
        <time>2012-09-23T07:59:11Z</time>
      </trkpt>
      <trkpt lat="43.10338" lon="1.60392">
        <ele>333</ele>
        <time>2012-09-23T07:59:13Z</time>
      </trkpt>
      <trkpt lat="43.10342" lon="1.60394">
        <ele>333</ele>
        <time>2012-09-23T07:59:15Z</time>
      </trkpt>
      <trkpt lat="43.10347" lon="1.60396">
        <ele>332</ele>
        <time>2012-09-23T07:59:17Z</time>
      </trkpt>
      <trkpt lat="43.1035" lon="1.60398">
        <ele>332</ele>
        <time>2012-09-23T07:59:19Z</time>
      </trkpt>
      <trkpt lat="43.10354" lon="1.60399">
        <ele>331</ele>
        <time>2012-09-23T07:59:21Z</time>
      </trkpt>
      <trkpt lat="43.10359" lon="1.60399">
        <ele>331</ele>
        <time>2012-09-23T07:59:23Z</time>
      </trkpt>
      <trkpt lat="43.10364" lon="1.60398">
        <ele>330</ele>
        <time>2012-09-23T07:59:25Z</time>
      </trkpt>
      <trkpt lat="43.10368" lon="1.60394">
        <ele>330</ele>
        <time>2012-09-23T07:59:27Z</time>
      </trkpt>
      <trkpt lat="43.1037" lon="1.6039">
        <ele>329</ele>
        <time>2012-09-23T07:59:30Z</time>
      </trkpt>
      <trkpt lat="43.10368" lon="1.60391">
        <ele>329</ele>
        <time>2012-09-23T07:59:33Z</time>
      </trkpt>
      <trkpt lat="43.10367" lon="1.60395">
        <ele>329</ele>
        <time>2012-09-23T07:59:35Z</time>
      </trkpt>
      <trkpt lat="43.10367" lon="1.60398">
        <ele>329</ele>
        <time>2012-09-23T07:59:38Z</time>
      </trkpt>
      <trkpt lat="43.10368" lon="1.60399">
        <ele>329</ele>
        <time>2012-09-23T07:59:40Z</time>
      </trkpt>
      <trkpt lat="43.10369" lon="1.604">
        <ele>329</ele>
        <time>2012-09-23T07:59:43Z</time>
      </trkpt>
      <trkpt lat="43.10371" lon="1.60399">
        <ele>329</ele>
        <time>2012-09-23T07:59:46Z</time>
      </trkpt>
      <trkpt lat="43.10373" lon="1.604">
        <ele>328</ele>
        <time>2012-09-23T07:59:48Z</time>
      </trkpt>
      <trkpt lat="43.10376" lon="1.60399">
        <ele>328</ele>
        <time>2012-09-23T07:59:51Z</time>
      </trkpt>
      <trkpt lat="43.10378" lon="1.604">
        <ele>328</ele>
        <time>2012-09-23T07:59:54Z</time>
      </trkpt>
      <trkpt lat="43.1038" lon="1.604">
        <ele>328</ele>
        <time>2012-09-23T07:59:56Z</time>
      </trkpt>
      <trkpt lat="43.10382" lon="1.604">
        <ele>328</ele>
        <time>2012-09-23T07:59:58Z</time>
      </trkpt>
      <trkpt lat="43.10385" lon="1.60399">
        <ele>327</ele>
        <time>2012-09-23T08:00:00Z</time>
      </trkpt>
      <trkpt lat="43.10388" lon="1.60399">
        <ele>327</ele>
        <time>2012-09-23T08:00:02Z</time>
      </trkpt>
      <trkpt lat="43.1039" lon="1.60398">
        <ele>326</ele>
        <time>2012-09-23T08:00:04Z</time>
      </trkpt>
      <trkpt lat="43.10393" lon="1.60398">
        <ele>325</ele>
        <time>2012-09-23T08:00:06Z</time>
      </trkpt>
      <trkpt lat="43.10396" lon="1.60397">
        <ele>325</ele>
        <time>2012-09-23T08:00:08Z</time>
      </trkpt>
      <trkpt lat="43.10395" lon="1.60398">
        <ele>325</ele>
        <time>2012-09-23T08:00:12Z</time>
      </trkpt>
      <trkpt lat="43.10393" lon="1.60398">
        <ele>325</ele>
        <time>2012-09-23T08:00:14Z</time>
      </trkpt>
      <trkpt lat="43.10389" lon="1.60398">
        <ele>325</ele>
        <time>2012-09-23T08:00:16Z</time>
      </trkpt>
      <trkpt lat="43.10384" lon="1.60399">
        <ele>325</ele>
        <time>2012-09-23T08:00:18Z</time>
      </trkpt>
      <trkpt lat="43.10378" lon="1.60401">
        <ele>325</ele>
        <time>2012-09-23T08:00:20Z</time>
      </trkpt>
      <trkpt lat="43.10373" lon="1.60401">
        <ele>325</ele>
        <time>2012-09-23T08:00:22Z</time>
      </trkpt>
      <trkpt lat="43.10367" lon="1.60401">
        <ele>325</ele>
        <time>2012-09-23T08:00:24Z</time>
      </trkpt>
      <trkpt lat="43.10361" lon="1.60401">
        <ele>325</ele>
        <time>2012-09-23T08:00:26Z</time>
      </trkpt>
      <trkpt lat="43.10356" lon="1.60401">
        <ele>325</ele>
        <time>2012-09-23T08:00:28Z</time>
      </trkpt>
      <trkpt lat="43.10351" lon="1.604">
        <ele>325</ele>
        <time>2012-09-23T08:00:30Z</time>
      </trkpt>
      <trkpt lat="43.10346" lon="1.60398">
        <ele>325</ele>
        <time>2012-09-23T08:00:32Z</time>
      </trkpt>
      <trkpt lat="43.1034" lon="1.60396">
        <ele>326</ele>
        <time>2012-09-23T08:00:34Z</time>
      </trkpt>
      <trkpt lat="43.10336" lon="1.60394">
        <ele>327</ele>
        <time>2012-09-23T08:00:36Z</time>
      </trkpt>
      <trkpt lat="43.10331" lon="1.60395">
        <ele>328</ele>
        <time>2012-09-23T08:00:38Z</time>
      </trkpt>
      <trkpt lat="43.10326" lon="1.60398">
        <ele>329</ele>
        <time>2012-09-23T08:00:40Z</time>
      </trkpt>
      <trkpt lat="43.10322" lon="1.60403">
        <ele>329</ele>
        <time>2012-09-23T08:00:42Z</time>
      </trkpt>
      <trkpt lat="43.10318" lon="1.60408">
        <ele>330</ele>
        <time>2012-09-23T08:00:44Z</time>
      </trkpt>
      <trkpt lat="43.10313" lon="1.60413">
        <ele>331</ele>
        <time>2012-09-23T08:00:46Z</time>
      </trkpt>
      <trkpt lat="43.10308" lon="1.60417">
        <ele>332</ele>
        <time>2012-09-23T08:00:48Z</time>
      </trkpt>
      <trkpt lat="43.10304" lon="1.60423">
        <ele>332</ele>
        <time>2012-09-23T08:00:50Z</time>
      </trkpt>
      <trkpt lat="43.103" lon="1.60427">
        <ele>333</ele>
        <time>2012-09-23T08:00:52Z</time>
      </trkpt>
      <trkpt lat="43.10295" lon="1.60432">
        <ele>333</ele>
        <time>2012-09-23T08:00:54Z</time>
      </trkpt>
      <trkpt lat="43.1029" lon="1.60434">
        <ele>333</ele>
        <time>2012-09-23T08:00:56Z</time>
      </trkpt>
      <trkpt lat="43.10285" lon="1.60435">
        <ele>333</ele>
        <time>2012-09-23T08:00:58Z</time>
      </trkpt>
      <trkpt lat="43.10281" lon="1.60436">
        <ele>333</ele>
        <time>2012-09-23T08:01:00Z</time>
      </trkpt>
      <trkpt lat="43.10275" lon="1.60438">
        <ele>333</ele>
        <time>2012-09-23T08:01:02Z</time>
      </trkpt>
      <trkpt lat="43.1027" lon="1.6044">
        <ele>333</ele>
        <time>2012-09-23T08:01:04Z</time>
      </trkpt>
      <trkpt lat="43.10265" lon="1.60443">
        <ele>333</ele>
        <time>2012-09-23T08:01:06Z</time>
      </trkpt>
      <trkpt lat="43.1026" lon="1.60448">
        <ele>333</ele>
        <time>2012-09-23T08:01:08Z</time>
      </trkpt>
      <trkpt lat="43.10255" lon="1.60452">
        <ele>334</ele>
        <time>2012-09-23T08:01:10Z</time>
      </trkpt>
      <trkpt lat="43.1025" lon="1.60456">
        <ele>334</ele>
        <time>2012-09-23T08:01:12Z</time>
      </trkpt>
      <trkpt lat="43.10248" lon="1.60461">
        <ele>335</ele>
        <time>2012-09-23T08:01:14Z</time>
      </trkpt>
      <trkpt lat="43.10244" lon="1.60467">
        <ele>336</ele>
        <time>2012-09-23T08:01:16Z</time>
      </trkpt>
      <trkpt lat="43.10241" lon="1.60471">
        <ele>337</ele>
        <time>2012-09-23T08:01:18Z</time>
      </trkpt>
      <trkpt lat="43.10238" lon="1.60476">
        <ele>338</ele>
        <time>2012-09-23T08:01:20Z</time>
      </trkpt>
      <trkpt lat="43.10235" lon="1.60482">
        <ele>338</ele>
        <time>2012-09-23T08:01:22Z</time>
      </trkpt>
      <trkpt lat="43.10233" lon="1.60486">
        <ele>338</ele>
        <time>2012-09-23T08:01:26Z</time>
      </trkpt>
      <trkpt lat="43.10233" lon="1.60492">
        <ele>338</ele>
        <time>2012-09-23T08:01:28Z</time>
      </trkpt>
      <trkpt lat="43.1023" lon="1.60497">
        <ele>338</ele>
        <time>2012-09-23T08:01:30Z</time>
      </trkpt>
      <trkpt lat="43.10226" lon="1.60499">
        <ele>338</ele>
        <time>2012-09-23T08:01:32Z</time>
      </trkpt>
      <trkpt lat="43.10221" lon="1.60499">
        <ele>338</ele>
        <time>2012-09-23T08:01:34Z</time>
      </trkpt>
      <trkpt lat="43.10218" lon="1.60501">
        <ele>338</ele>
        <time>2012-09-23T08:01:36Z</time>
      </trkpt>
      <trkpt lat="43.10213" lon="1.60503">
        <ele>338</ele>
        <time>2012-09-23T08:01:38Z</time>
      </trkpt>
      <trkpt lat="43.10208" lon="1.60504">
        <ele>338</ele>
        <time>2012-09-23T08:01:40Z</time>
      </trkpt>
      <trkpt lat="43.10204" lon="1.60508">
        <ele>338</ele>
        <time>2012-09-23T08:01:42Z</time>
      </trkpt>
      <trkpt lat="43.102" lon="1.60514">
        <ele>338</ele>
        <time>2012-09-23T08:01:44Z</time>
      </trkpt>
      <trkpt lat="43.10196" lon="1.6052">
        <ele>338</ele>
        <time>2012-09-23T08:01:46Z</time>
      </trkpt>
      <trkpt lat="43.10191" lon="1.60523">
        <ele>338</ele>
        <time>2012-09-23T08:01:48Z</time>
      </trkpt>
      <trkpt lat="43.10185" lon="1.60525">
        <ele>338</ele>
        <time>2012-09-23T08:01:50Z</time>
      </trkpt>
      <trkpt lat="43.1018" lon="1.60528">
        <ele>338</ele>
        <time>2012-09-23T08:01:52Z</time>
      </trkpt>
      <trkpt lat="43.10175" lon="1.60526">
        <ele>338</ele>
        <time>2012-09-23T08:01:54Z</time>
      </trkpt>
      <trkpt lat="43.1017" lon="1.60526">
        <ele>338</ele>
        <time>2012-09-23T08:01:57Z</time>
      </trkpt>
      <trkpt lat="43.10166" lon="1.60529">
        <ele>338</ele>
        <time>2012-09-23T08:01:59Z</time>
      </trkpt>
      <trkpt lat="43.10163" lon="1.60533">
        <ele>338</ele>
        <time>2012-09-23T08:02:01Z</time>
      </trkpt>
      <trkpt lat="43.10165" lon="1.60537">
        <ele>338</ele>
        <time>2012-09-23T08:02:03Z</time>
      </trkpt>
      <trkpt lat="43.10165" lon="1.60539">
        <ele>339</ele>
        <time>2012-09-23T08:02:09Z</time>
      </trkpt>
      <trkpt lat="43.10163" lon="1.60542">
        <ele>339</ele>
        <time>2012-09-23T08:02:12Z</time>
      </trkpt>
      <trkpt lat="43.1016" lon="1.60547">
        <ele>339</ele>
        <time>2012-09-23T08:02:14Z</time>
      </trkpt>
      <trkpt lat="43.10159" lon="1.60551">
        <ele>339</ele>
        <time>2012-09-23T08:02:16Z</time>
      </trkpt>
      <trkpt lat="43.10159" lon="1.60558">
        <ele>339</ele>
        <time>2012-09-23T08:02:18Z</time>
      </trkpt>
      <trkpt lat="43.10159" lon="1.60567">
        <ele>339</ele>
        <time>2012-09-23T08:02:20Z</time>
      </trkpt>
      <trkpt lat="43.10157" lon="1.60573">
        <ele>339</ele>
        <time>2012-09-23T08:02:22Z</time>
      </trkpt>
      <trkpt lat="43.10153" lon="1.60578">
        <ele>339</ele>
        <time>2012-09-23T08:02:24Z</time>
      </trkpt>
      <trkpt lat="43.10149" lon="1.60583">
        <ele>339</ele>
        <time>2012-09-23T08:02:26Z</time>
      </trkpt>
      <trkpt lat="43.10147" lon="1.6059">
        <ele>339</ele>
        <time>2012-09-23T08:02:28Z</time>
      </trkpt>
      <trkpt lat="43.10144" lon="1.60599">
        <ele>339</ele>
        <time>2012-09-23T08:02:30Z</time>
      </trkpt>
      <trkpt lat="43.10139" lon="1.60606">
        <ele>339</ele>
        <time>2012-09-23T08:02:32Z</time>
      </trkpt>
      <trkpt lat="43.10133" lon="1.6061">
        <ele>339</ele>
        <time>2012-09-23T08:02:34Z</time>
      </trkpt>
      <trkpt lat="43.10129" lon="1.60615">
        <ele>339</ele>
        <time>2012-09-23T08:02:36Z</time>
      </trkpt>
      <trkpt lat="43.10127" lon="1.60625">
        <ele>339</ele>
        <time>2012-09-23T08:02:38Z</time>
      </trkpt>
      <trkpt lat="43.10123" lon="1.60633">
        <ele>339</ele>
        <time>2012-09-23T08:02:40Z</time>
      </trkpt>
      <trkpt lat="43.10119" lon="1.6064">
        <ele>339</ele>
        <time>2012-09-23T08:02:42Z</time>
      </trkpt>
      <trkpt lat="43.10116" lon="1.60645">
        <ele>339</ele>
        <time>2012-09-23T08:02:44Z</time>
      </trkpt>
      <trkpt lat="43.10113" lon="1.6065">
        <ele>339</ele>
        <time>2012-09-23T08:02:46Z</time>
      </trkpt>
      <trkpt lat="43.1011" lon="1.60655">
        <ele>339</ele>
        <time>2012-09-23T08:02:48Z</time>
      </trkpt>
      <trkpt lat="43.10107" lon="1.60659">
        <ele>339</ele>
        <time>2012-09-23T08:02:50Z</time>
      </trkpt>
      <trkpt lat="43.10103" lon="1.60664">
        <ele>339</ele>
        <time>2012-09-23T08:02:53Z</time>
      </trkpt>
      <trkpt lat="43.10099" lon="1.60666">
        <ele>339</ele>
        <time>2012-09-23T08:02:55Z</time>
      </trkpt>
      <trkpt lat="43.10096" lon="1.60669">
        <ele>340</ele>
        <time>2012-09-23T08:02:57Z</time>
      </trkpt>
      <trkpt lat="43.10093" lon="1.60671">
        <ele>341</ele>
        <time>2012-09-23T08:02:59Z</time>
      </trkpt>
      <trkpt lat="43.1009" lon="1.60672">
        <ele>342</ele>
        <time>2012-09-23T08:03:01Z</time>
      </trkpt>
      <trkpt lat="43.10088" lon="1.60674">
        <ele>342</ele>
        <time>2012-09-23T08:03:03Z</time>
      </trkpt>
      <trkpt lat="43.10084" lon="1.60676">
        <ele>343</ele>
        <time>2012-09-23T08:03:05Z</time>
      </trkpt>
      <trkpt lat="43.10081" lon="1.60679">
        <ele>343</ele>
        <time>2012-09-23T08:03:07Z</time>
      </trkpt>
      <trkpt lat="43.10079" lon="1.60682">
        <ele>343</ele>
        <time>2012-09-23T08:03:09Z</time>
      </trkpt>
      <trkpt lat="43.10076" lon="1.60686">
        <ele>344</ele>
        <time>2012-09-23T08:03:12Z</time>
      </trkpt>
      <trkpt lat="43.10075" lon="1.60688">
        <ele>344</ele>
        <time>2012-09-23T08:03:15Z</time>
      </trkpt>
      <trkpt lat="43.10073" lon="1.6069">
        <ele>344</ele>
        <time>2012-09-23T08:03:17Z</time>
      </trkpt>
      <trkpt lat="43.10069" lon="1.60695">
        <ele>344</ele>
        <time>2012-09-23T08:03:19Z</time>
      </trkpt>
      <trkpt lat="43.10061" lon="1.60703">
        <ele>344</ele>
        <time>2012-09-23T08:03:22Z</time>
      </trkpt>
      <trkpt lat="43.10055" lon="1.60708">
        <ele>344</ele>
        <time>2012-09-23T08:03:24Z</time>
      </trkpt>
      <trkpt lat="43.10051" lon="1.60715">
        <ele>344</ele>
        <time>2012-09-23T08:03:26Z</time>
      </trkpt>
      <trkpt lat="43.10048" lon="1.60722">
        <ele>345</ele>
        <time>2012-09-23T08:03:28Z</time>
      </trkpt>
      <trkpt lat="43.10046" lon="1.6073">
        <ele>346</ele>
        <time>2012-09-23T08:03:30Z</time>
      </trkpt>
      <trkpt lat="43.10043" lon="1.60739">
        <ele>346</ele>
        <time>2012-09-23T08:03:32Z</time>
      </trkpt>
      <trkpt lat="43.1004" lon="1.60749">
        <ele>347</ele>
        <time>2012-09-23T08:03:34Z</time>
      </trkpt>
      <trkpt lat="43.10036" lon="1.60757">
        <ele>347</ele>
        <time>2012-09-23T08:03:36Z</time>
      </trkpt>
      <trkpt lat="43.10029" lon="1.60766">
        <ele>347</ele>
        <time>2012-09-23T08:03:39Z</time>
      </trkpt>
      <trkpt lat="43.10022" lon="1.60774">
        <ele>347</ele>
        <time>2012-09-23T08:03:42Z</time>
      </trkpt>
      <trkpt lat="43.1002" lon="1.60779">
        <ele>347</ele>
        <time>2012-09-23T08:03:45Z</time>
      </trkpt>
      <trkpt lat="43.10019" lon="1.60782">
        <ele>347</ele>
        <time>2012-09-23T08:03:47Z</time>
      </trkpt>
      <trkpt lat="43.10017" lon="1.60785">
        <ele>347</ele>
        <time>2012-09-23T08:03:49Z</time>
      </trkpt>
      <trkpt lat="43.10016" lon="1.60791">
        <ele>347</ele>
        <time>2012-09-23T08:03:51Z</time>
      </trkpt>
      <trkpt lat="43.10015" lon="1.60798">
        <ele>347</ele>
        <time>2012-09-23T08:03:53Z</time>
      </trkpt>
      <trkpt lat="43.10015" lon="1.60805">
        <ele>347</ele>
        <time>2012-09-23T08:03:55Z</time>
      </trkpt>
      <trkpt lat="43.10014" lon="1.60811">
        <ele>347</ele>
        <time>2012-09-23T08:03:57Z</time>
      </trkpt>
      <trkpt lat="43.10012" lon="1.60815">
        <ele>347</ele>
        <time>2012-09-23T08:04:00Z</time>
      </trkpt>
      <trkpt lat="43.1001" lon="1.60819">
        <ele>347</ele>
        <time>2012-09-23T08:04:03Z</time>
      </trkpt>
      <trkpt lat="43.1001" lon="1.60821">
        <ele>347</ele>
        <time>2012-09-23T08:04:06Z</time>
      </trkpt>
      <trkpt lat="43.10011" lon="1.60824">
        <ele>347</ele>
        <time>2012-09-23T08:04:12Z</time>
      </trkpt>
      <trkpt lat="43.10013" lon="1.60827">
        <ele>347</ele>
        <time>2012-09-23T08:04:14Z</time>
      </trkpt>
      <trkpt lat="43.10017" lon="1.6083">
        <ele>347</ele>
        <time>2012-09-23T08:04:16Z</time>
      </trkpt>
      <trkpt lat="43.10021" lon="1.60835">
        <ele>347</ele>
        <time>2012-09-23T08:04:18Z</time>
      </trkpt>
      <trkpt lat="43.10024" lon="1.60844">
        <ele>347</ele>
        <time>2012-09-23T08:04:20Z</time>
      </trkpt>
      <trkpt lat="43.10024" lon="1.60856">
        <ele>347</ele>
        <time>2012-09-23T08:04:22Z</time>
      </trkpt>
      <trkpt lat="43.10024" lon="1.60867">
        <ele>347</ele>
        <time>2012-09-23T08:04:24Z</time>
      </trkpt>
      <trkpt lat="43.10025" lon="1.60876">
        <ele>347</ele>
        <time>2012-09-23T08:04:26Z</time>
      </trkpt>
      <trkpt lat="43.10027" lon="1.60884">
        <ele>347</ele>
        <time>2012-09-23T08:04:28Z</time>
      </trkpt>
      <trkpt lat="43.10029" lon="1.60893">
        <ele>347</ele>
        <time>2012-09-23T08:04:30Z</time>
      </trkpt>
      <trkpt lat="43.1003" lon="1.609">
        <ele>347</ele>
        <time>2012-09-23T08:04:32Z</time>
      </trkpt>
      <trkpt lat="43.10031" lon="1.60909">
        <ele>346</ele>
        <time>2012-09-23T08:04:34Z</time>
      </trkpt>
      <trkpt lat="43.10035" lon="1.60916">
        <ele>344</ele>
        <time>2012-09-23T08:04:36Z</time>
      </trkpt>
      <trkpt lat="43.10041" lon="1.60924">
        <ele>343</ele>
        <time>2012-09-23T08:04:38Z</time>
      </trkpt>
      <trkpt lat="43.10043" lon="1.60933">
        <ele>341</ele>
        <time>2012-09-23T08:04:40Z</time>
      </trkpt>
      <trkpt lat="43.10043" lon="1.60942">
        <ele>339</ele>
        <time>2012-09-23T08:04:42Z</time>
      </trkpt>
      <trkpt lat="43.10041" lon="1.60952">
        <ele>337</ele>
        <time>2012-09-23T08:04:44Z</time>
      </trkpt>
      <trkpt lat="43.1004" lon="1.60962">
        <ele>336</ele>
        <time>2012-09-23T08:04:46Z</time>
      </trkpt>
      <trkpt lat="43.10038" lon="1.60971">
        <ele>334</ele>
        <time>2012-09-23T08:04:48Z</time>
      </trkpt>
      <trkpt lat="43.10038" lon="1.6098">
        <ele>333</ele>
        <time>2012-09-23T08:04:50Z</time>
      </trkpt>
      <trkpt lat="43.10038" lon="1.60989">
        <ele>331</ele>
        <time>2012-09-23T08:04:52Z</time>
      </trkpt>
      <trkpt lat="43.10036" lon="1.60998">
        <ele>330</ele>
        <time>2012-09-23T08:04:54Z</time>
      </trkpt>
      <trkpt lat="43.10035" lon="1.61007">
        <ele>328</ele>
        <time>2012-09-23T08:04:56Z</time>
      </trkpt>
      <trkpt lat="43.10033" lon="1.61016">
        <ele>326</ele>
        <time>2012-09-23T08:04:58Z</time>
      </trkpt>
      <trkpt lat="43.10033" lon="1.61026">
        <ele>324</ele>
        <time>2012-09-23T08:05:00Z</time>
      </trkpt>
      <trkpt lat="43.10033" lon="1.61035">
        <ele>323</ele>
        <time>2012-09-23T08:05:02Z</time>
      </trkpt>
      <trkpt lat="43.10033" lon="1.61045">
        <ele>321</ele>
        <time>2012-09-23T08:05:04Z</time>
      </trkpt>
      <trkpt lat="43.10034" lon="1.61053">
        <ele>319</ele>
        <time>2012-09-23T08:05:06Z</time>
      </trkpt>
      <trkpt lat="43.10034" lon="1.61056">
        <ele>317</ele>
        <time>2012-09-23T08:05:09Z</time>
      </trkpt>
      <trkpt lat="43.10036" lon="1.61061">
        <ele>316</ele>
        <time>2012-09-23T08:05:11Z</time>
      </trkpt>
      <trkpt lat="43.10036" lon="1.61067">
        <ele>314</ele>
        <time>2012-09-23T08:05:13Z</time>
      </trkpt>
      <trkpt lat="43.10031" lon="1.6107">
        <ele>313</ele>
        <time>2012-09-23T08:05:15Z</time>
      </trkpt>
      <trkpt lat="43.10028" lon="1.61072">
        <ele>312</ele>
        <time>2012-09-23T08:05:17Z</time>
      </trkpt>
      <trkpt lat="43.10027" lon="1.6107">
        <ele>311</ele>
        <time>2012-09-23T08:05:19Z</time>
      </trkpt>
      <trkpt lat="43.10023" lon="1.61065">
        <ele>310</ele>
        <time>2012-09-23T08:05:22Z</time>
      </trkpt>
      <trkpt lat="43.10019" lon="1.61064">
        <ele>309</ele>
        <time>2012-09-23T08:05:25Z</time>
      </trkpt>
      <trkpt lat="43.10019" lon="1.61064">
        <ele>309</ele>
        <time>2012-09-23T08:05:37Z</time>
      </trkpt>
      <trkpt lat="43.10021" lon="1.61065">
        <ele>309</ele>
        <time>2012-09-23T08:05:39Z</time>
      </trkpt>
      <trkpt lat="43.10025" lon="1.61069">
        <ele>309</ele>
        <time>2012-09-23T08:05:42Z</time>
      </trkpt>
      <trkpt lat="43.10026" lon="1.61071">
        <ele>309</ele>
        <time>2012-09-23T08:05:44Z</time>
      </trkpt>
      <trkpt lat="43.10026" lon="1.61073">
        <ele>309</ele>
        <time>2012-09-23T08:05:47Z</time>
      </trkpt>
      <trkpt lat="43.10025" lon="1.61073">
        <ele>309</ele>
        <time>2012-09-23T08:05:54Z</time>
      </trkpt>
      <trkpt lat="43.10024" lon="1.61074">
        <ele>309</ele>
        <time>2012-09-23T08:06:00Z</time>
      </trkpt>
      <trkpt lat="43.10025" lon="1.61072">
        <ele>310</ele>
        <time>2012-09-23T08:06:05Z</time>
      </trkpt>
      <trkpt lat="43.10027" lon="1.61067">
        <ele>310</ele>
        <time>2012-09-23T08:06:07Z</time>
      </trkpt>
      <trkpt lat="43.10032" lon="1.61064">
        <ele>310</ele>
        <time>2012-09-23T08:06:09Z</time>
      </trkpt>
      <trkpt lat="43.10035" lon="1.61062">
        <ele>310</ele>
        <time>2012-09-23T08:06:11Z</time>
      </trkpt>
      <trkpt lat="43.10039" lon="1.61061">
        <ele>310</ele>
        <time>2012-09-23T08:06:13Z</time>
      </trkpt>
      <trkpt lat="43.10041" lon="1.61062">
        <ele>310</ele>
        <time>2012-09-23T08:06:15Z</time>
      </trkpt>
      <trkpt lat="43.10042" lon="1.61063">
        <ele>310</ele>
        <time>2012-09-23T08:06:17Z</time>
      </trkpt>
      <trkpt lat="43.10044" lon="1.61064">
        <ele>310</ele>
        <time>2012-09-23T08:06:19Z</time>
      </trkpt>
      <trkpt lat="43.10047" lon="1.61065">
        <ele>310</ele>
        <time>2012-09-23T08:06:22Z</time>
      </trkpt>
      <trkpt lat="43.10049" lon="1.61065">
        <ele>310</ele>
        <time>2012-09-23T08:06:24Z</time>
      </trkpt>
      <trkpt lat="43.10051" lon="1.61066">
        <ele>310</ele>
        <time>2012-09-23T08:06:26Z</time>
      </trkpt>
      <trkpt lat="43.10054" lon="1.61066">
        <ele>310</ele>
        <time>2012-09-23T08:06:28Z</time>
      </trkpt>
      <trkpt lat="43.10056" lon="1.61066">
        <ele>310</ele>
        <time>2012-09-23T08:06:30Z</time>
      </trkpt>
      <trkpt lat="43.10058" lon="1.61067">
        <ele>310</ele>
        <time>2012-09-23T08:06:32Z</time>
      </trkpt>
      <trkpt lat="43.10061" lon="1.61068">
        <ele>309</ele>
        <time>2012-09-23T08:06:34Z</time>
      </trkpt>
      <trkpt lat="43.10064" lon="1.61068">
        <ele>309</ele>
        <time>2012-09-23T08:06:36Z</time>
      </trkpt>
      <trkpt lat="43.10066" lon="1.61069">
        <ele>308</ele>
        <time>2012-09-23T08:06:38Z</time>
      </trkpt>
      <trkpt lat="43.10069" lon="1.61071">
        <ele>308</ele>
        <time>2012-09-23T08:06:40Z</time>
      </trkpt>
      <trkpt lat="43.10072" lon="1.61073">
        <ele>308</ele>
        <time>2012-09-23T08:06:42Z</time>
      </trkpt>
      <trkpt lat="43.10074" lon="1.61074">
        <ele>308</ele>
        <time>2012-09-23T08:06:44Z</time>
      </trkpt>
      <trkpt lat="43.10076" lon="1.61076">
        <ele>307</ele>
        <time>2012-09-23T08:06:46Z</time>
      </trkpt>
      <trkpt lat="43.10079" lon="1.61079">
        <ele>307</ele>
        <time>2012-09-23T08:06:49Z</time>
      </trkpt>
      <trkpt lat="43.1008" lon="1.61081">
        <ele>307</ele>
        <time>2012-09-23T08:06:51Z</time>
      </trkpt>
      <trkpt lat="43.1008" lon="1.61079">
        <ele>306</ele>
        <time>2012-09-23T08:06:57Z</time>
      </trkpt>
      <trkpt lat="43.1008" lon="1.61077">
        <ele>306</ele>
        <time>2012-09-23T08:06:59Z</time>
      </trkpt>
      <trkpt lat="43.10081" lon="1.6108">
        <ele>305</ele>
        <time>2012-09-23T08:07:12Z</time>
      </trkpt>
      <trkpt lat="43.10082" lon="1.61082">
        <ele>305</ele>
        <time>2012-09-23T08:07:14Z</time>
      </trkpt>
      <trkpt lat="43.10083" lon="1.61082">
        <ele>305</ele>
        <time>2012-09-23T08:07:16Z</time>
      </trkpt>
      <trkpt lat="43.10085" lon="1.61082">
        <ele>305</ele>
        <time>2012-09-23T08:07:18Z</time>
      </trkpt>
      <trkpt lat="43.10086" lon="1.61082">
        <ele>305</ele>
        <time>2012-09-23T08:07:20Z</time>
      </trkpt>
      <trkpt lat="43.10085" lon="1.61081">
        <ele>305</ele>
        <time>2012-09-23T08:07:31Z</time>
      </trkpt>
      <trkpt lat="43.10083" lon="1.61081">
        <ele>304</ele>
        <time>2012-09-23T08:07:38Z</time>
      </trkpt>
      <trkpt lat="43.10081" lon="1.6108">
        <ele>304</ele>
        <time>2012-09-23T08:07:40Z</time>
      </trkpt>
      <trkpt lat="43.10082" lon="1.61081">
        <ele>303</ele>
        <time>2012-09-23T08:07:55Z</time>
      </trkpt>
      <trkpt lat="43.10085" lon="1.6108">
        <ele>303</ele>
        <time>2012-09-23T08:07:57Z</time>
      </trkpt>
      <trkpt lat="43.1009" lon="1.61075">
        <ele>303</ele>
        <time>2012-09-23T08:07:59Z</time>
      </trkpt>
      <trkpt lat="43.10097" lon="1.61068">
        <ele>304</ele>
        <time>2012-09-23T08:08:01Z</time>
      </trkpt>
      <trkpt lat="43.10105" lon="1.61061">
        <ele>304</ele>
        <time>2012-09-23T08:08:03Z</time>
      </trkpt>
      <trkpt lat="43.10113" lon="1.61055">
        <ele>304</ele>
        <time>2012-09-23T08:08:05Z</time>
      </trkpt>
      <trkpt lat="43.1012" lon="1.61048">
        <ele>304</ele>
        <time>2012-09-23T08:08:07Z</time>
      </trkpt>
      <trkpt lat="43.10128" lon="1.61041">
        <ele>304</ele>
        <time>2012-09-23T08:08:09Z</time>
      </trkpt>
      <trkpt lat="43.10136" lon="1.61035">
        <ele>304</ele>
        <time>2012-09-23T08:08:11Z</time>
      </trkpt>
      <trkpt lat="43.10143" lon="1.61028">
        <ele>304</ele>
        <time>2012-09-23T08:08:13Z</time>
      </trkpt>
      <trkpt lat="43.10149" lon="1.61021">
        <ele>303</ele>
        <time>2012-09-23T08:08:15Z</time>
      </trkpt>
      <trkpt lat="43.10156" lon="1.61017">
        <ele>303</ele>
        <time>2012-09-23T08:08:17Z</time>
      </trkpt>
      <trkpt lat="43.10162" lon="1.61012">
        <ele>303</ele>
        <time>2012-09-23T08:08:19Z</time>
      </trkpt>
      <trkpt lat="43.10168" lon="1.61006">
        <ele>303</ele>
        <time>2012-09-23T08:08:21Z</time>
      </trkpt>
      <trkpt lat="43.10175" lon="1.61002">
        <ele>303</ele>
        <time>2012-09-23T08:08:23Z</time>
      </trkpt>
      <trkpt lat="43.10181" lon="1.60996">
        <ele>303</ele>
        <time>2012-09-23T08:08:25Z</time>
      </trkpt>
      <trkpt lat="43.10188" lon="1.60991">
        <ele>303</ele>
        <time>2012-09-23T08:08:27Z</time>
      </trkpt>
      <trkpt lat="43.10194" lon="1.60985">
        <ele>303</ele>
        <time>2012-09-23T08:08:29Z</time>
      </trkpt>
      <trkpt lat="43.102" lon="1.60979">
        <ele>303</ele>
        <time>2012-09-23T08:08:31Z</time>
      </trkpt>
      <trkpt lat="43.10206" lon="1.60973">
        <ele>303</ele>
        <time>2012-09-23T08:08:33Z</time>
      </trkpt>
      <trkpt lat="43.10212" lon="1.60968">
        <ele>303</ele>
        <time>2012-09-23T08:08:35Z</time>
      </trkpt>
      <trkpt lat="43.10217" lon="1.60961">
        <ele>303</ele>
        <time>2012-09-23T08:08:37Z</time>
      </trkpt>
      <trkpt lat="43.10223" lon="1.60955">
        <ele>303</ele>
        <time>2012-09-23T08:08:39Z</time>
      </trkpt>
      <trkpt lat="43.10228" lon="1.60949">
        <ele>303</ele>
        <time>2012-09-23T08:08:41Z</time>
      </trkpt>
      <trkpt lat="43.10234" lon="1.60942">
        <ele>303</ele>
        <time>2012-09-23T08:08:43Z</time>
      </trkpt>
      <trkpt lat="43.10239" lon="1.60936">
        <ele>303</ele>
        <time>2012-09-23T08:08:45Z</time>
      </trkpt>
      <trkpt lat="43.10244" lon="1.6093">
        <ele>303</ele>
        <time>2012-09-23T08:08:47Z</time>
      </trkpt>
      <trkpt lat="43.10249" lon="1.60925">
        <ele>303</ele>
        <time>2012-09-23T08:08:49Z</time>
      </trkpt>
      <trkpt lat="43.10258" lon="1.60918">
        <ele>303</ele>
        <time>2012-09-23T08:08:51Z</time>
      </trkpt>
      <trkpt lat="43.10263" lon="1.60914">
        <ele>303</ele>
        <time>2012-09-23T08:08:54Z</time>
      </trkpt>
      <trkpt lat="43.10268" lon="1.60909">
        <ele>303</ele>
        <time>2012-09-23T08:08:56Z</time>
      </trkpt>
      <trkpt lat="43.10272" lon="1.60904">
        <ele>303</ele>
        <time>2012-09-23T08:08:58Z</time>
      </trkpt>
      <trkpt lat="43.10274" lon="1.60904">
        <ele>301</ele>
        <time>2012-09-23T08:09:04Z</time>
      </trkpt>
      <trkpt lat="43.10278" lon="1.609">
        <ele>301</ele>
        <time>2012-09-23T08:09:06Z</time>
      </trkpt>
      <trkpt lat="43.10283" lon="1.60895">
        <ele>301</ele>
        <time>2012-09-23T08:09:08Z</time>
      </trkpt>
      <trkpt lat="43.10288" lon="1.60889">
        <ele>300</ele>
        <time>2012-09-23T08:09:10Z</time>
      </trkpt>
      <trkpt lat="43.10293" lon="1.60882">
        <ele>300</ele>
        <time>2012-09-23T08:09:12Z</time>
      </trkpt>
      <trkpt lat="43.10298" lon="1.60875">
        <ele>300</ele>
        <time>2012-09-23T08:09:14Z</time>
      </trkpt>
      <trkpt lat="43.10305" lon="1.60863">
        <ele>300</ele>
        <time>2012-09-23T08:09:17Z</time>
      </trkpt>
      <trkpt lat="43.1031" lon="1.60856">
        <ele>300</ele>
        <time>2012-09-23T08:09:19Z</time>
      </trkpt>
      <trkpt lat="43.10314" lon="1.60849">
        <ele>300</ele>
        <time>2012-09-23T08:09:21Z</time>
      </trkpt>
      <trkpt lat="43.10319" lon="1.60841">
        <ele>300</ele>
        <time>2012-09-23T08:09:23Z</time>
      </trkpt>
      <trkpt lat="43.10322" lon="1.60831">
        <ele>300</ele>
        <time>2012-09-23T08:09:25Z</time>
      </trkpt>
      <trkpt lat="43.10326" lon="1.60823">
        <ele>300</ele>
        <time>2012-09-23T08:09:27Z</time>
      </trkpt>
      <trkpt lat="43.10329" lon="1.60815">
        <ele>300</ele>
        <time>2012-09-23T08:09:29Z</time>
      </trkpt>
      <trkpt lat="43.10332" lon="1.60807">
        <ele>300</ele>
        <time>2012-09-23T08:09:31Z</time>
      </trkpt>
      <trkpt lat="43.10337" lon="1.60794">
        <ele>300</ele>
        <time>2012-09-23T08:09:34Z</time>
      </trkpt>
      <trkpt lat="43.1034" lon="1.60787">
        <ele>300</ele>
        <time>2012-09-23T08:09:36Z</time>
      </trkpt>
      <trkpt lat="43.10342" lon="1.6078">
        <ele>300</ele>
        <time>2012-09-23T08:09:38Z</time>
      </trkpt>
      <trkpt lat="43.10343" lon="1.60773">
        <ele>300</ele>
        <time>2012-09-23T08:09:40Z</time>
      </trkpt>
      <trkpt lat="43.10345" lon="1.60763">
        <ele>300</ele>
        <time>2012-09-23T08:09:43Z</time>
      </trkpt>
      <trkpt lat="43.10347" lon="1.60758">
        <ele>300</ele>
        <time>2012-09-23T08:09:45Z</time>
      </trkpt>
      <trkpt lat="43.10349" lon="1.6076">
        <ele>300</ele>
        <time>2012-09-23T08:09:48Z</time>
      </trkpt>
      <trkpt lat="43.1035" lon="1.6076">
        <ele>300</ele>
        <time>2012-09-23T08:09:51Z</time>
      </trkpt>
      <trkpt lat="43.1035" lon="1.60762">
        <ele>297</ele>
        <time>2012-09-23T08:09:58Z</time>
      </trkpt>
      <trkpt lat="43.10347" lon="1.60762">
        <ele>297</ele>
        <time>2012-09-23T08:10:00Z</time>
      </trkpt>
      <trkpt lat="43.10343" lon="1.60764">
        <ele>297</ele>
        <time>2012-09-23T08:10:02Z</time>
      </trkpt>
      <trkpt lat="43.10345" lon="1.60772">
        <ele>297</ele>
        <time>2012-09-23T08:10:04Z</time>
      </trkpt>
      <trkpt lat="43.10348" lon="1.60781">
        <ele>297</ele>
        <time>2012-09-23T08:10:06Z</time>
      </trkpt>
      <trkpt lat="43.10355" lon="1.60795">
        <ele>296</ele>
        <time>2012-09-23T08:10:09Z</time>
      </trkpt>
      <trkpt lat="43.1036" lon="1.60805">
        <ele>296</ele>
        <time>2012-09-23T08:10:11Z</time>
      </trkpt>
      <trkpt lat="43.10364" lon="1.60814">
        <ele>296</ele>
        <time>2012-09-23T08:10:13Z</time>
      </trkpt>
      <trkpt lat="43.10369" lon="1.60828">
        <ele>295</ele>
        <time>2012-09-23T08:10:16Z</time>
      </trkpt>
      <trkpt lat="43.10373" lon="1.60836">
        <ele>295</ele>
        <time>2012-09-23T08:10:18Z</time>
      </trkpt>
      <trkpt lat="43.10379" lon="1.60849">
        <ele>295</ele>
        <time>2012-09-23T08:10:21Z</time>
      </trkpt>
      <trkpt lat="43.10382" lon="1.60857">
        <ele>295</ele>
        <time>2012-09-23T08:10:23Z</time>
      </trkpt>
      <trkpt lat="43.10386" lon="1.60866">
        <ele>295</ele>
        <time>2012-09-23T08:10:25Z</time>
      </trkpt>
      <trkpt lat="43.10391" lon="1.60879">
        <ele>295</ele>
        <time>2012-09-23T08:10:27Z</time>
      </trkpt>
      <trkpt lat="43.10395" lon="1.60887">
        <ele>294</ele>
        <time>2012-09-23T08:10:30Z</time>
      </trkpt>
      <trkpt lat="43.10398" lon="1.60896">
        <ele>294</ele>
        <time>2012-09-23T08:10:32Z</time>
      </trkpt>
      <trkpt lat="43.10402" lon="1.60904">
        <ele>294</ele>
        <time>2012-09-23T08:10:34Z</time>
      </trkpt>
      <trkpt lat="43.10408" lon="1.60917">
        <ele>294</ele>
        <time>2012-09-23T08:10:36Z</time>
      </trkpt>
      <trkpt lat="43.10411" lon="1.60925">
        <ele>294</ele>
        <time>2012-09-23T08:10:38Z</time>
      </trkpt>
      <trkpt lat="43.10414" lon="1.60933">
        <ele>294</ele>
        <time>2012-09-23T08:10:41Z</time>
      </trkpt>
      <trkpt lat="43.10418" lon="1.60941">
        <ele>294</ele>
        <time>2012-09-23T08:10:43Z</time>
      </trkpt>
      <trkpt lat="43.10422" lon="1.60949">
        <ele>294</ele>
        <time>2012-09-23T08:10:45Z</time>
      </trkpt>
      <trkpt lat="43.10425" lon="1.60957">
        <ele>294</ele>
        <time>2012-09-23T08:10:47Z</time>
      </trkpt>
      <trkpt lat="43.10429" lon="1.60965">
        <ele>294</ele>
        <time>2012-09-23T08:10:49Z</time>
      </trkpt>
      <trkpt lat="43.10433" lon="1.60977">
        <ele>294</ele>
        <time>2012-09-23T08:10:51Z</time>
      </trkpt>
      <trkpt lat="43.10436" lon="1.60985">
        <ele>294</ele>
        <time>2012-09-23T08:10:53Z</time>
      </trkpt>
      <trkpt lat="43.1044" lon="1.60993">
        <ele>294</ele>
        <time>2012-09-23T08:10:55Z</time>
      </trkpt>
      <trkpt lat="43.10443" lon="1.61">
        <ele>294</ele>
        <time>2012-09-23T08:10:58Z</time>
      </trkpt>
      <trkpt lat="43.10446" lon="1.61008">
        <ele>294</ele>
        <time>2012-09-23T08:11:00Z</time>
      </trkpt>
      <trkpt lat="43.10449" lon="1.61016">
        <ele>294</ele>
        <time>2012-09-23T08:11:02Z</time>
      </trkpt>
      <trkpt lat="43.10451" lon="1.61024">
        <ele>294</ele>
        <time>2012-09-23T08:11:04Z</time>
      </trkpt>
      <trkpt lat="43.10454" lon="1.61032">
        <ele>294</ele>
        <time>2012-09-23T08:11:06Z</time>
      </trkpt>
      <trkpt lat="43.10458" lon="1.61044">
        <ele>294</ele>
        <time>2012-09-23T08:11:08Z</time>
      </trkpt>
      <trkpt lat="43.10462" lon="1.61051">
        <ele>294</ele>
        <time>2012-09-23T08:11:10Z</time>
      </trkpt>
      <trkpt lat="43.10464" lon="1.61059">
        <ele>294</ele>
        <time>2012-09-23T08:11:13Z</time>
      </trkpt>
      <trkpt lat="43.10466" lon="1.61067">
        <ele>294</ele>
        <time>2012-09-23T08:11:15Z</time>
      </trkpt>
      <trkpt lat="43.10469" lon="1.61078">
        <ele>294</ele>
        <time>2012-09-23T08:11:17Z</time>
      </trkpt>
      <trkpt lat="43.10472" lon="1.61086">
        <ele>294</ele>
        <time>2012-09-23T08:11:19Z</time>
      </trkpt>
      <trkpt lat="43.10474" lon="1.61093">
        <ele>294</ele>
        <time>2012-09-23T08:11:22Z</time>
      </trkpt>
      <trkpt lat="43.10476" lon="1.61098">
        <ele>294</ele>
        <time>2012-09-23T08:11:24Z</time>
      </trkpt>
      <trkpt lat="43.10476" lon="1.61101">
        <ele>294</ele>
        <time>2012-09-23T08:11:26Z</time>
      </trkpt>
      <trkpt lat="43.10475" lon="1.61105">
        <ele>294</ele>
        <time>2012-09-23T08:11:28Z</time>
      </trkpt>
      <trkpt lat="43.10475" lon="1.61109">
        <ele>294</ele>
        <time>2012-09-23T08:11:30Z</time>
      </trkpt>
      <trkpt lat="43.10475" lon="1.61114">
        <ele>294</ele>
        <time>2012-09-23T08:11:32Z</time>
      </trkpt>
      <trkpt lat="43.10477" lon="1.61115">
        <ele>293</ele>
        <time>2012-09-23T08:11:38Z</time>
      </trkpt>
      <trkpt lat="43.1048" lon="1.61117">
        <ele>293</ele>
        <time>2012-09-23T08:11:40Z</time>
      </trkpt>
      <trkpt lat="43.10483" lon="1.61118">
        <ele>293</ele>
        <time>2012-09-23T08:11:42Z</time>
      </trkpt>
      <trkpt lat="43.10486" lon="1.6112">
        <ele>293</ele>
        <time>2012-09-23T08:11:44Z</time>
      </trkpt>
      <trkpt lat="43.10493" lon="1.61122">
        <ele>293</ele>
        <time>2012-09-23T08:11:46Z</time>
      </trkpt>
      <trkpt lat="43.105" lon="1.61124">
        <ele>293</ele>
        <time>2012-09-23T08:11:48Z</time>
      </trkpt>
      <trkpt lat="43.10506" lon="1.61126">
        <ele>293</ele>
        <time>2012-09-23T08:11:50Z</time>
      </trkpt>
      <trkpt lat="43.10512" lon="1.61129">
        <ele>293</ele>
        <time>2012-09-23T08:11:53Z</time>
      </trkpt>
      <trkpt lat="43.10519" lon="1.61135">
        <ele>293</ele>
        <time>2012-09-23T08:11:55Z</time>
      </trkpt>
      <trkpt lat="43.10523" lon="1.61138">
        <ele>293</ele>
        <time>2012-09-23T08:11:57Z</time>
      </trkpt>
      <trkpt lat="43.10522" lon="1.61136">
        <ele>293</ele>
        <time>2012-09-23T08:12:03Z</time>
      </trkpt>
      <trkpt lat="43.10525" lon="1.61137">
        <ele>293</ele>
        <time>2012-09-23T08:12:08Z</time>
      </trkpt>
      <trkpt lat="43.10527" lon="1.6114">
        <ele>292</ele>
        <time>2012-09-23T08:12:10Z</time>
      </trkpt>
      <trkpt lat="43.10527" lon="1.61147">
        <ele>291</ele>
        <time>2012-09-23T08:12:12Z</time>
      </trkpt>
      <trkpt lat="43.10527" lon="1.61155">
        <ele>291</ele>
        <time>2012-09-23T08:12:14Z</time>
      </trkpt>
      <trkpt lat="43.10528" lon="1.61159">
        <ele>290</ele>
        <time>2012-09-23T08:12:16Z</time>
      </trkpt>
      <trkpt lat="43.10531" lon="1.61164">
        <ele>288</ele>
        <time>2012-09-23T08:12:19Z</time>
      </trkpt>
      <trkpt lat="43.10538" lon="1.61169">
        <ele>288</ele>
        <time>2012-09-23T08:12:22Z</time>
      </trkpt>
      <trkpt lat="43.10544" lon="1.6117">
        <ele>287</ele>
        <time>2012-09-23T08:12:25Z</time>
      </trkpt>
      <trkpt lat="43.10548" lon="1.61168">
        <ele>286</ele>
        <time>2012-09-23T08:12:27Z</time>
      </trkpt>
      <trkpt lat="43.10552" lon="1.61167">
        <ele>286</ele>
        <time>2012-09-23T08:12:29Z</time>
      </trkpt>
      <trkpt lat="43.10559" lon="1.61169">
        <ele>286</ele>
        <time>2012-09-23T08:12:31Z</time>
      </trkpt>
      <trkpt lat="43.10568" lon="1.61175">
        <ele>286</ele>
        <time>2012-09-23T08:12:34Z</time>
      </trkpt>
      <trkpt lat="43.10576" lon="1.61183">
        <ele>286</ele>
        <time>2012-09-23T08:12:37Z</time>
      </trkpt>
      <trkpt lat="43.10581" lon="1.61191">
        <ele>286</ele>
        <time>2012-09-23T08:12:39Z</time>
      </trkpt>
      <trkpt lat="43.10583" lon="1.61198">
        <ele>286</ele>
        <time>2012-09-23T08:12:41Z</time>
      </trkpt>
      <trkpt lat="43.10587" lon="1.61204">
        <ele>286</ele>
        <time>2012-09-23T08:12:43Z</time>
      </trkpt>
      <trkpt lat="43.10589" lon="1.61212">
        <ele>286</ele>
        <time>2012-09-23T08:12:45Z</time>
      </trkpt>
      <trkpt lat="43.10592" lon="1.61219">
        <ele>286</ele>
        <time>2012-09-23T08:12:47Z</time>
      </trkpt>
      <trkpt lat="43.10594" lon="1.61224">
        <ele>286</ele>
        <time>2012-09-23T08:12:49Z</time>
      </trkpt>
      <trkpt lat="43.10597" lon="1.61229">
        <ele>286</ele>
        <time>2012-09-23T08:12:51Z</time>
      </trkpt>
      <trkpt lat="43.10597" lon="1.61233">
        <ele>286</ele>
        <time>2012-09-23T08:12:53Z</time>
      </trkpt>
      <trkpt lat="43.10599" lon="1.61237">
        <ele>286</ele>
        <time>2012-09-23T08:12:55Z</time>
      </trkpt>
      <trkpt lat="43.10601" lon="1.61237">
        <ele>286</ele>
        <time>2012-09-23T08:12:59Z</time>
      </trkpt>
      <trkpt lat="43.10604" lon="1.61238">
        <ele>286</ele>
        <time>2012-09-23T08:13:02Z</time>
      </trkpt>
      <trkpt lat="43.10607" lon="1.61235">
        <ele>286</ele>
        <time>2012-09-23T08:13:06Z</time>
      </trkpt>
      <trkpt lat="43.10611" lon="1.61229">
        <ele>286</ele>
        <time>2012-09-23T08:13:08Z</time>
      </trkpt>
      <trkpt lat="43.10613" lon="1.61225">
        <ele>286</ele>
        <time>2012-09-23T08:13:11Z</time>
      </trkpt>
      <trkpt lat="43.10616" lon="1.61225">
        <ele>286</ele>
        <time>2012-09-23T08:13:13Z</time>
      </trkpt>
      <trkpt lat="43.10617" lon="1.61228">
        <ele>286</ele>
        <time>2012-09-23T08:13:15Z</time>
      </trkpt>
      <trkpt lat="43.10617" lon="1.61232">
        <ele>286</ele>
        <time>2012-09-23T08:13:17Z</time>
      </trkpt>
      <trkpt lat="43.1062" lon="1.61238">
        <ele>286</ele>
        <time>2012-09-23T08:13:19Z</time>
      </trkpt>
      <trkpt lat="43.1062" lon="1.61246">
        <ele>286</ele>
        <time>2012-09-23T08:13:21Z</time>
      </trkpt>
      <trkpt lat="43.10619" lon="1.61253">
        <ele>286</ele>
        <time>2012-09-23T08:13:23Z</time>
      </trkpt>
      <trkpt lat="43.10617" lon="1.61259">
        <ele>286</ele>
        <time>2012-09-23T08:13:25Z</time>
      </trkpt>
      <trkpt lat="43.10617" lon="1.61257">
        <ele>286</ele>
        <time>2012-09-23T08:13:27Z</time>
      </trkpt>
      <trkpt lat="43.10618" lon="1.61255">
        <ele>286</ele>
        <time>2012-09-23T08:13:29Z</time>
      </trkpt>
      <trkpt lat="43.10619" lon="1.6125">
        <ele>286</ele>
        <time>2012-09-23T08:13:31Z</time>
      </trkpt>
      <trkpt lat="43.1062" lon="1.61243">
        <ele>286</ele>
        <time>2012-09-23T08:13:33Z</time>
      </trkpt>
      <trkpt lat="43.1062" lon="1.61235">
        <ele>286</ele>
        <time>2012-09-23T08:13:35Z</time>
      </trkpt>
      <trkpt lat="43.10619" lon="1.61231">
        <ele>286</ele>
        <time>2012-09-23T08:13:38Z</time>
      </trkpt>
      <trkpt lat="43.10617" lon="1.61227">
        <ele>286</ele>
        <time>2012-09-23T08:13:40Z</time>
      </trkpt>
      <trkpt lat="43.10616" lon="1.61224">
        <ele>286</ele>
        <time>2012-09-23T08:13:42Z</time>
      </trkpt>
      <trkpt lat="43.10612" lon="1.61218">
        <ele>286</ele>
        <time>2012-09-23T08:13:44Z</time>
      </trkpt>
      <trkpt lat="43.10608" lon="1.61214">
        <ele>286</ele>
        <time>2012-09-23T08:13:47Z</time>
      </trkpt>
      <trkpt lat="43.10603" lon="1.61213">
        <ele>286</ele>
        <time>2012-09-23T08:13:49Z</time>
      </trkpt>
      <trkpt lat="43.10596" lon="1.61211">
        <ele>286</ele>
        <time>2012-09-23T08:13:51Z</time>
      </trkpt>
      <trkpt lat="43.10593" lon="1.61212">
        <ele>286</ele>
        <time>2012-09-23T08:13:58Z</time>
      </trkpt>
      <trkpt lat="43.1059" lon="1.61211">
        <ele>286</ele>
        <time>2012-09-23T08:14:00Z</time>
      </trkpt>
      <trkpt lat="43.10586" lon="1.61207">
        <ele>286</ele>
        <time>2012-09-23T08:14:03Z</time>
      </trkpt>
      <trkpt lat="43.10584" lon="1.61204">
        <ele>286</ele>
        <time>2012-09-23T08:14:05Z</time>
      </trkpt>
      <trkpt lat="43.10583" lon="1.612">
        <ele>286</ele>
        <time>2012-09-23T08:14:07Z</time>
      </trkpt>
      <trkpt lat="43.10582" lon="1.61198">
        <ele>286</ele>
        <time>2012-09-23T08:14:09Z</time>
      </trkpt>
      <trkpt lat="43.10581" lon="1.61194">
        <ele>286</ele>
        <time>2012-09-23T08:14:11Z</time>
      </trkpt>
      <trkpt lat="43.1058" lon="1.6119">
        <ele>286</ele>
        <time>2012-09-23T08:14:13Z</time>
      </trkpt>
      <trkpt lat="43.10579" lon="1.61186">
        <ele>286</ele>
        <time>2012-09-23T08:14:15Z</time>
      </trkpt>
      <trkpt lat="43.10577" lon="1.61183">
        <ele>286</ele>
        <time>2012-09-23T08:14:17Z</time>
      </trkpt>
      <trkpt lat="43.10575" lon="1.6118">
        <ele>286</ele>
        <time>2012-09-23T08:14:19Z</time>
      </trkpt>
      <trkpt lat="43.10571" lon="1.61177">
        <ele>286</ele>
        <time>2012-09-23T08:14:21Z</time>
      </trkpt>
      <trkpt lat="43.10568" lon="1.61175">
        <ele>286</ele>
        <time>2012-09-23T08:14:24Z</time>
      </trkpt>
      <trkpt lat="43.10565" lon="1.6117">
        <ele>286</ele>
        <time>2012-09-23T08:14:27Z</time>
      </trkpt>
      <trkpt lat="43.10563" lon="1.61169">
        <ele>286</ele>
        <time>2012-09-23T08:14:30Z</time>
      </trkpt>
      <trkpt lat="43.10559" lon="1.61167">
        <ele>286</ele>
        <time>2012-09-23T08:14:32Z</time>
      </trkpt>
      <trkpt lat="43.10556" lon="1.61166">
        <ele>286</ele>
        <time>2012-09-23T08:14:35Z</time>
      </trkpt>
      <trkpt lat="43.10551" lon="1.61166">
        <ele>286</ele>
        <time>2012-09-23T08:14:37Z</time>
      </trkpt>
      <trkpt lat="43.10549" lon="1.61167">
        <ele>286</ele>
        <time>2012-09-23T08:14:41Z</time>
      </trkpt>
      <trkpt lat="43.10548" lon="1.61169">
        <ele>286</ele>
        <time>2012-09-23T08:14:44Z</time>
      </trkpt>
      <trkpt lat="43.10546" lon="1.6117">
        <ele>286</ele>
        <time>2012-09-23T08:14:46Z</time>
      </trkpt>
      <trkpt lat="43.10543" lon="1.61171">
        <ele>286</ele>
        <time>2012-09-23T08:14:49Z</time>
      </trkpt>
      <trkpt lat="43.1054" lon="1.6117">
        <ele>286</ele>
        <time>2012-09-23T08:14:53Z</time>
      </trkpt>
      <trkpt lat="43.10539" lon="1.61169">
        <ele>286</ele>
        <time>2012-09-23T08:14:55Z</time>
      </trkpt>
      <trkpt lat="43.10536" lon="1.61168">
        <ele>286</ele>
        <time>2012-09-23T08:14:58Z</time>
      </trkpt>
      <trkpt lat="43.10527" lon="1.61162">
        <ele>286</ele>
        <time>2012-09-23T08:15:01Z</time>
      </trkpt>
      <trkpt lat="43.10524" lon="1.61153">
        <ele>286</ele>
        <time>2012-09-23T08:15:03Z</time>
      </trkpt>
      <trkpt lat="43.10522" lon="1.61144">
        <ele>286</ele>
        <time>2012-09-23T08:15:05Z</time>
      </trkpt>
      <trkpt lat="43.10521" lon="1.61137">
        <ele>286</ele>
        <time>2012-09-23T08:15:07Z</time>
      </trkpt>
      <trkpt lat="43.10524" lon="1.61125">
        <ele>286</ele>
        <time>2012-09-23T08:15:10Z</time>
      </trkpt>
      <trkpt lat="43.10523" lon="1.61113">
        <ele>286</ele>
        <time>2012-09-23T08:15:13Z</time>
      </trkpt>
      <trkpt lat="43.10519" lon="1.61105">
        <ele>286</ele>
        <time>2012-09-23T08:15:15Z</time>
      </trkpt>
      <trkpt lat="43.10515" lon="1.61099">
        <ele>286</ele>
        <time>2012-09-23T08:15:17Z</time>
      </trkpt>
      <trkpt lat="43.10511" lon="1.61094">
        <ele>286</ele>
        <time>2012-09-23T08:15:20Z</time>
      </trkpt>
      <trkpt lat="43.10504" lon="1.61088">
        <ele>286</ele>
        <time>2012-09-23T08:15:22Z</time>
      </trkpt>
      <trkpt lat="43.10499" lon="1.61088">
        <ele>286</ele>
        <time>2012-09-23T08:15:24Z</time>
      </trkpt>
      <trkpt lat="43.10497" lon="1.61083">
        <ele>287</ele>
        <time>2012-09-23T08:15:26Z</time>
      </trkpt>
      <trkpt lat="43.10496" lon="1.61074">
        <ele>287</ele>
        <time>2012-09-23T08:15:29Z</time>
      </trkpt>
      <trkpt lat="43.10495" lon="1.61065">
        <ele>287</ele>
        <time>2012-09-23T08:15:31Z</time>
      </trkpt>
      <trkpt lat="43.10495" lon="1.61058">
        <ele>288</ele>
        <time>2012-09-23T08:15:33Z</time>
      </trkpt>
      <trkpt lat="43.10495" lon="1.61058">
        <ele>291</ele>
        <time>2012-09-23T08:15:40Z</time>
      </trkpt>
      <trkpt lat="43.10496" lon="1.61063">
        <ele>291</ele>
        <time>2012-09-23T08:15:44Z</time>
      </trkpt>
      <trkpt lat="43.10497" lon="1.6107">
        <ele>291</ele>
        <time>2012-09-23T08:15:47Z</time>
      </trkpt>
      <trkpt lat="43.10498" lon="1.61078">
        <ele>291</ele>
        <time>2012-09-23T08:15:49Z</time>
      </trkpt>
      <trkpt lat="43.10497" lon="1.61086">
        <ele>291</ele>
        <time>2012-09-23T08:15:51Z</time>
      </trkpt>
      <trkpt lat="43.10494" lon="1.61094">
        <ele>291</ele>
        <time>2012-09-23T08:15:53Z</time>
      </trkpt>
      <trkpt lat="43.10491" lon="1.61093">
        <ele>291</ele>
        <time>2012-09-23T08:15:57Z</time>
      </trkpt>
      <trkpt lat="43.1049" lon="1.61092">
        <ele>291</ele>
        <time>2012-09-23T08:16:18Z</time>
      </trkpt>
      <trkpt lat="43.10488" lon="1.61093">
        <ele>291</ele>
        <time>2012-09-23T08:16:47Z</time>
      </trkpt>
      <trkpt lat="43.10489" lon="1.61094">
        <ele>292</ele>
        <time>2012-09-23T08:17:14Z</time>
      </trkpt>
      <trkpt lat="43.1049" lon="1.61096">
        <ele>294</ele>
        <time>2012-09-23T08:17:22Z</time>
      </trkpt>
      <trkpt lat="43.10491" lon="1.61097">
        <ele>295</ele>
        <time>2012-09-23T08:17:33Z</time>
      </trkpt>
      <trkpt lat="43.10493" lon="1.61098">
        <ele>295</ele>
        <time>2012-09-23T08:17:35Z</time>
      </trkpt>
      <trkpt lat="43.10494" lon="1.61097">
        <ele>296</ele>
        <time>2012-09-23T08:17:37Z</time>
      </trkpt>
      <trkpt lat="43.10495" lon="1.61092">
        <ele>296</ele>
        <time>2012-09-23T08:17:39Z</time>
      </trkpt>
      <trkpt lat="43.10496" lon="1.61088">
        <ele>296</ele>
        <time>2012-09-23T08:17:41Z</time>
      </trkpt>
      <trkpt lat="43.10496" lon="1.61084">
        <ele>296</ele>
        <time>2012-09-23T08:17:43Z</time>
      </trkpt>
      <trkpt lat="43.10497" lon="1.61078">
        <ele>296</ele>
        <time>2012-09-23T08:17:45Z</time>
      </trkpt>
      <trkpt lat="43.10498" lon="1.61072">
        <ele>296</ele>
        <time>2012-09-23T08:17:47Z</time>
      </trkpt>
      <trkpt lat="43.10497" lon="1.61065">
        <ele>296</ele>
        <time>2012-09-23T08:17:49Z</time>
      </trkpt>
      <trkpt lat="43.10497" lon="1.61059">
        <ele>296</ele>
        <time>2012-09-23T08:17:51Z</time>
      </trkpt>
      <trkpt lat="43.10497" lon="1.61053">
        <ele>296</ele>
        <time>2012-09-23T08:17:53Z</time>
      </trkpt>
      <trkpt lat="43.10496" lon="1.6105">
        <ele>296</ele>
        <time>2012-09-23T08:17:59Z</time>
      </trkpt>
      <trkpt lat="43.10495" lon="1.61048">
        <ele>295</ele>
        <time>2012-09-23T08:18:02Z</time>
      </trkpt>
      <trkpt lat="43.10495" lon="1.61047">
        <ele>294</ele>
        <time>2012-09-23T08:18:09Z</time>
      </trkpt>
      <trkpt lat="43.10496" lon="1.61047">
        <ele>293</ele>
        <time>2012-09-23T08:18:23Z</time>
      </trkpt>
      <trkpt lat="43.10496" lon="1.61045">
        <ele>293</ele>
        <time>2012-09-23T08:18:34Z</time>
      </trkpt>
      <trkpt lat="43.10497" lon="1.6104">
        <ele>293</ele>
        <time>2012-09-23T08:18:36Z</time>
      </trkpt>
      <trkpt lat="43.10497" lon="1.61029">
        <ele>293</ele>
        <time>2012-09-23T08:18:38Z</time>
      </trkpt>
      <trkpt lat="43.10495" lon="1.61016">
        <ele>293</ele>
        <time>2012-09-23T08:18:40Z</time>
      </trkpt>
      <trkpt lat="43.10494" lon="1.61003">
        <ele>293</ele>
        <time>2012-09-23T08:18:42Z</time>
      </trkpt>
      <trkpt lat="43.10492" lon="1.60988">
        <ele>293</ele>
        <time>2012-09-23T08:18:44Z</time>
      </trkpt>
      <trkpt lat="43.10492" lon="1.60971">
        <ele>293</ele>
        <time>2012-09-23T08:18:46Z</time>
      </trkpt>
      <trkpt lat="43.10492" lon="1.60954">
        <ele>293</ele>
        <time>2012-09-23T08:18:48Z</time>
      </trkpt>
      <trkpt lat="43.10491" lon="1.60936">
        <ele>293</ele>
        <time>2012-09-23T08:18:50Z</time>
      </trkpt>
      <trkpt lat="43.1049" lon="1.60918">
        <ele>293</ele>
        <time>2012-09-23T08:18:52Z</time>
      </trkpt>
      <trkpt lat="43.10488" lon="1.60901">
        <ele>293</ele>
        <time>2012-09-23T08:18:54Z</time>
      </trkpt>
      <trkpt lat="43.10486" lon="1.60884">
        <ele>293</ele>
        <time>2012-09-23T08:18:56Z</time>
      </trkpt>
      <trkpt lat="43.10486" lon="1.60865">
        <ele>293</ele>
        <time>2012-09-23T08:18:58Z</time>
      </trkpt>
      <trkpt lat="43.10488" lon="1.60845">
        <ele>293</ele>
        <time>2012-09-23T08:19:00Z</time>
      </trkpt>
      <trkpt lat="43.1049" lon="1.60824">
        <ele>293</ele>
        <time>2012-09-23T08:19:02Z</time>
      </trkpt>
      <trkpt lat="43.10492" lon="1.60803">
        <ele>293</ele>
        <time>2012-09-23T08:19:04Z</time>
      </trkpt>
      <trkpt lat="43.10494" lon="1.60782">
        <ele>293</ele>
        <time>2012-09-23T08:19:06Z</time>
      </trkpt>
      <trkpt lat="43.10496" lon="1.6076">
        <ele>293</ele>
        <time>2012-09-23T08:19:08Z</time>
      </trkpt>
      <trkpt lat="43.10499" lon="1.60739">
        <ele>293</ele>
        <time>2012-09-23T08:19:10Z</time>
      </trkpt>
      <trkpt lat="43.10502" lon="1.60719">
        <ele>293</ele>
        <time>2012-09-23T08:19:12Z</time>
      </trkpt>
      <trkpt lat="43.10504" lon="1.60698">
        <ele>293</ele>
        <time>2012-09-23T08:19:14Z</time>
      </trkpt>
      <trkpt lat="43.10506" lon="1.60678">
        <ele>293</ele>
        <time>2012-09-23T08:19:16Z</time>
      </trkpt>
      <trkpt lat="43.10509" lon="1.60659">
        <ele>293</ele>
        <time>2012-09-23T08:19:18Z</time>
      </trkpt>
      <trkpt lat="43.10513" lon="1.6064">
        <ele>293</ele>
        <time>2012-09-23T08:19:20Z</time>
      </trkpt>
      <trkpt lat="43.10518" lon="1.60623">
        <ele>293</ele>
        <time>2012-09-23T08:19:22Z</time>
      </trkpt>
      <trkpt lat="43.10521" lon="1.60606">
        <ele>293</ele>
        <time>2012-09-23T08:19:24Z</time>
      </trkpt>
      <trkpt lat="43.10525" lon="1.60591">
        <ele>293</ele>
        <time>2012-09-23T08:19:26Z</time>
      </trkpt>
      <trkpt lat="43.10528" lon="1.60577">
        <ele>293</ele>
        <time>2012-09-23T08:19:28Z</time>
      </trkpt>
      <trkpt lat="43.1053" lon="1.60566">
        <ele>293</ele>
        <time>2012-09-23T08:19:30Z</time>
      </trkpt>
      <trkpt lat="43.10531" lon="1.60554">
        <ele>293</ele>
        <time>2012-09-23T08:19:32Z</time>
      </trkpt>
      <trkpt lat="43.10532" lon="1.60541">
        <ele>293</ele>
        <time>2012-09-23T08:19:34Z</time>
      </trkpt>
      <trkpt lat="43.10533" lon="1.6053">
        <ele>293</ele>
        <time>2012-09-23T08:19:36Z</time>
      </trkpt>
      <trkpt lat="43.10534" lon="1.60518">
        <ele>294</ele>
        <time>2012-09-23T08:19:38Z</time>
      </trkpt>
      <trkpt lat="43.10535" lon="1.60508">
        <ele>295</ele>
        <time>2012-09-23T08:19:40Z</time>
      </trkpt>
      <trkpt lat="43.10535" lon="1.60498">
        <ele>296</ele>
        <time>2012-09-23T08:19:42Z</time>
      </trkpt>
      <trkpt lat="43.10536" lon="1.60488">
        <ele>296</ele>
        <time>2012-09-23T08:19:44Z</time>
      </trkpt>
      <trkpt lat="43.10539" lon="1.60478">
        <ele>297</ele>
        <time>2012-09-23T08:19:46Z</time>
      </trkpt>
      <trkpt lat="43.10544" lon="1.6047">
        <ele>297</ele>
        <time>2012-09-23T08:19:48Z</time>
      </trkpt>
      <trkpt lat="43.10551" lon="1.60462">
        <ele>297</ele>
        <time>2012-09-23T08:19:50Z</time>
      </trkpt>
      <trkpt lat="43.10557" lon="1.60454">
        <ele>298</ele>
        <time>2012-09-23T08:19:52Z</time>
      </trkpt>
      <trkpt lat="43.10564" lon="1.60445">
        <ele>298</ele>
        <time>2012-09-23T08:19:54Z</time>
      </trkpt>
      <trkpt lat="43.10571" lon="1.60436">
        <ele>298</ele>
        <time>2012-09-23T08:19:56Z</time>
      </trkpt>
      <trkpt lat="43.10578" lon="1.60425">
        <ele>298</ele>
        <time>2012-09-23T08:19:58Z</time>
      </trkpt>
      <trkpt lat="43.10583" lon="1.60412">
        <ele>298</ele>
        <time>2012-09-23T08:20:00Z</time>
      </trkpt>
      <trkpt lat="43.10588" lon="1.60397">
        <ele>298</ele>
        <time>2012-09-23T08:20:02Z</time>
      </trkpt>
      <trkpt lat="43.10593" lon="1.60383">
        <ele>298</ele>
        <time>2012-09-23T08:20:04Z</time>
      </trkpt>
      <trkpt lat="43.10599" lon="1.60371">
        <ele>298</ele>
        <time>2012-09-23T08:20:06Z</time>
      </trkpt>
      <trkpt lat="43.10607" lon="1.60363">
        <ele>298</ele>
        <time>2012-09-23T08:20:08Z</time>
      </trkpt>
      <trkpt lat="43.10616" lon="1.6036">
        <ele>298</ele>
        <time>2012-09-23T08:20:10Z</time>
      </trkpt>
      <trkpt lat="43.10628" lon="1.60358">
        <ele>298</ele>
        <time>2012-09-23T08:20:12Z</time>
      </trkpt>
      <trkpt lat="43.10641" lon="1.60355">
        <ele>298</ele>
        <time>2012-09-23T08:20:14Z</time>
      </trkpt>
      <trkpt lat="43.10654" lon="1.60345">
        <ele>298</ele>
        <time>2012-09-23T08:20:16Z</time>
      </trkpt>
      <trkpt lat="43.10667" lon="1.60331">
        <ele>297</ele>
        <time>2012-09-23T08:20:18Z</time>
      </trkpt>
      <trkpt lat="43.10678" lon="1.60313">
        <ele>295</ele>
        <time>2012-09-23T08:20:20Z</time>
      </trkpt>
      <trkpt lat="43.10688" lon="1.60299">
        <ele>293</ele>
        <time>2012-09-23T08:20:22Z</time>
      </trkpt>
      <trkpt lat="43.10696" lon="1.6029">
        <ele>292</ele>
        <time>2012-09-23T08:20:24Z</time>
      </trkpt>
      <trkpt lat="43.10701" lon="1.60281">
        <ele>291</ele>
        <time>2012-09-23T08:20:26Z</time>
      </trkpt>
      <trkpt lat="43.10706" lon="1.60272">
        <ele>290</ele>
        <time>2012-09-23T08:20:28Z</time>
      </trkpt>
      <trkpt lat="43.10708" lon="1.60265">
        <ele>290</ele>
        <time>2012-09-23T08:20:30Z</time>
      </trkpt>
      <trkpt lat="43.10709" lon="1.60258">
        <ele>290</ele>
        <time>2012-09-23T08:20:32Z</time>
      </trkpt>
      <trkpt lat="43.1071" lon="1.6025">
        <ele>290</ele>
        <time>2012-09-23T08:20:34Z</time>
      </trkpt>
      <trkpt lat="43.1071" lon="1.60243">
        <ele>290</ele>
        <time>2012-09-23T08:20:36Z</time>
      </trkpt>
      <trkpt lat="43.10713" lon="1.60236">
        <ele>290</ele>
        <time>2012-09-23T08:20:38Z</time>
      </trkpt>
      <trkpt lat="43.10717" lon="1.6023">
        <ele>290</ele>
        <time>2012-09-23T08:20:40Z</time>
      </trkpt>
      <trkpt lat="43.10722" lon="1.60224">
        <ele>290</ele>
        <time>2012-09-23T08:20:42Z</time>
      </trkpt>
      <trkpt lat="43.10728" lon="1.6022">
        <ele>290</ele>
        <time>2012-09-23T08:20:44Z</time>
      </trkpt>
      <trkpt lat="43.10733" lon="1.60215">
        <ele>290</ele>
        <time>2012-09-23T08:20:46Z</time>
      </trkpt>
      <trkpt lat="43.1074" lon="1.60212">
        <ele>290</ele>
        <time>2012-09-23T08:20:48Z</time>
      </trkpt>
      <trkpt lat="43.10748" lon="1.60208">
        <ele>290</ele>
        <time>2012-09-23T08:20:50Z</time>
      </trkpt>
      <trkpt lat="43.10756" lon="1.60206">
        <ele>291</ele>
        <time>2012-09-23T08:20:52Z</time>
      </trkpt>
      <trkpt lat="43.10765" lon="1.60204">
        <ele>292</ele>
        <time>2012-09-23T08:20:54Z</time>
      </trkpt>
      <trkpt lat="43.10773" lon="1.60205">
        <ele>293</ele>
        <time>2012-09-23T08:20:56Z</time>
      </trkpt>
      <trkpt lat="43.1078" lon="1.60205">
        <ele>294</ele>
        <time>2012-09-23T08:20:58Z</time>
      </trkpt>
      <trkpt lat="43.10787" lon="1.60203">
        <ele>294</ele>
        <time>2012-09-23T08:21:00Z</time>
      </trkpt>
      <trkpt lat="43.10793" lon="1.60199">
        <ele>294</ele>
        <time>2012-09-23T08:21:02Z</time>
      </trkpt>
      <trkpt lat="43.10801" lon="1.60195">
        <ele>294</ele>
        <time>2012-09-23T08:21:04Z</time>
      </trkpt>
      <trkpt lat="43.10809" lon="1.60189">
        <ele>294</ele>
        <time>2012-09-23T08:21:06Z</time>
      </trkpt>
      <trkpt lat="43.10814" lon="1.60183">
        <ele>294</ele>
        <time>2012-09-23T08:21:08Z</time>
      </trkpt>
      <trkpt lat="43.1082" lon="1.60173">
        <ele>294</ele>
        <time>2012-09-23T08:21:10Z</time>
      </trkpt>
      <trkpt lat="43.10828" lon="1.60168">
        <ele>295</ele>
        <time>2012-09-23T08:21:12Z</time>
      </trkpt>
      <trkpt lat="43.10832" lon="1.60163">
        <ele>295</ele>
        <time>2012-09-23T08:21:14Z</time>
      </trkpt>
      <trkpt lat="43.10838" lon="1.60158">
        <ele>295</ele>
        <time>2012-09-23T08:21:16Z</time>
      </trkpt>
      <trkpt lat="43.10842" lon="1.60152">
        <ele>295</ele>
        <time>2012-09-23T08:21:18Z</time>
      </trkpt>
      <trkpt lat="43.10845" lon="1.60143">
        <ele>295</ele>
        <time>2012-09-23T08:21:20Z</time>
      </trkpt>
      <trkpt lat="43.10852" lon="1.60132">
        <ele>295</ele>
        <time>2012-09-23T08:21:22Z</time>
      </trkpt>
      <trkpt lat="43.10859" lon="1.60124">
        <ele>295</ele>
        <time>2012-09-23T08:21:24Z</time>
      </trkpt>
      <trkpt lat="43.10869" lon="1.60121">
        <ele>295</ele>
        <time>2012-09-23T08:21:26Z</time>
      </trkpt>
      <trkpt lat="43.10881" lon="1.6012">
        <ele>296</ele>
        <time>2012-09-23T08:21:28Z</time>
      </trkpt>
      <trkpt lat="43.10892" lon="1.60122">
        <ele>297</ele>
        <time>2012-09-23T08:21:30Z</time>
      </trkpt>
      <trkpt lat="43.10904" lon="1.60123">
        <ele>298</ele>
        <time>2012-09-23T08:21:32Z</time>
      </trkpt>
      <trkpt lat="43.10916" lon="1.60125">
        <ele>298</ele>
        <time>2012-09-23T08:21:34Z</time>
      </trkpt>
      <trkpt lat="43.10929" lon="1.60128">
        <ele>298</ele>
        <time>2012-09-23T08:21:36Z</time>
      </trkpt>
      <trkpt lat="43.10945" lon="1.6013">
        <ele>298</ele>
        <time>2012-09-23T08:21:38Z</time>
      </trkpt>
      <trkpt lat="43.1096" lon="1.60132">
        <ele>298</ele>
        <time>2012-09-23T08:21:40Z</time>
      </trkpt>
      <trkpt lat="43.10975" lon="1.60131">
        <ele>298</ele>
        <time>2012-09-23T08:21:42Z</time>
      </trkpt>
      <trkpt lat="43.10989" lon="1.60129">
        <ele>298</ele>
        <time>2012-09-23T08:21:44Z</time>
      </trkpt>
      <trkpt lat="43.11001" lon="1.60131">
        <ele>298</ele>
        <time>2012-09-23T08:21:46Z</time>
      </trkpt>
      <trkpt lat="43.11012" lon="1.60136">
        <ele>298</ele>
        <time>2012-09-23T08:21:48Z</time>
      </trkpt>
      <trkpt lat="43.11021" lon="1.60144">
        <ele>298</ele>
        <time>2012-09-23T08:21:50Z</time>
      </trkpt>
      <trkpt lat="43.11031" lon="1.60153">
        <ele>298</ele>
        <time>2012-09-23T08:21:52Z</time>
      </trkpt>
      <trkpt lat="43.1104" lon="1.60163">
        <ele>298</ele>
        <time>2012-09-23T08:21:54Z</time>
      </trkpt>
      <trkpt lat="43.11049" lon="1.60174">
        <ele>298</ele>
        <time>2012-09-23T08:21:56Z</time>
      </trkpt>
      <trkpt lat="43.11057" lon="1.60186">
        <ele>298</ele>
        <time>2012-09-23T08:21:58Z</time>
      </trkpt>
      <trkpt lat="43.11065" lon="1.60199">
        <ele>298</ele>
        <time>2012-09-23T08:22:00Z</time>
      </trkpt>
      <trkpt lat="43.11074" lon="1.60213">
        <ele>298</ele>
        <time>2012-09-23T08:22:02Z</time>
      </trkpt>
      <trkpt lat="43.11086" lon="1.60226">
        <ele>298</ele>
        <time>2012-09-23T08:22:04Z</time>
      </trkpt>
      <trkpt lat="43.11099" lon="1.60239">
        <ele>298</ele>
        <time>2012-09-23T08:22:06Z</time>
      </trkpt>
      <trkpt lat="43.11109" lon="1.60259">
        <ele>298</ele>
        <time>2012-09-23T08:22:08Z</time>
      </trkpt>
      <trkpt lat="43.11118" lon="1.60282">
        <ele>298</ele>
        <time>2012-09-23T08:22:10Z</time>
      </trkpt>
      <trkpt lat="43.11129" lon="1.60305">
        <ele>298</ele>
        <time>2012-09-23T08:22:12Z</time>
      </trkpt>
      <trkpt lat="43.11142" lon="1.60325">
        <ele>298</ele>
        <time>2012-09-23T08:22:14Z</time>
      </trkpt>
      <trkpt lat="43.11155" lon="1.60342">
        <ele>298</ele>
        <time>2012-09-23T08:22:16Z</time>
      </trkpt>
      <trkpt lat="43.11171" lon="1.60349">
        <ele>297</ele>
        <time>2012-09-23T08:22:18Z</time>
      </trkpt>
      <trkpt lat="43.11191" lon="1.6035">
        <ele>296</ele>
        <time>2012-09-23T08:22:20Z</time>
      </trkpt>
      <trkpt lat="43.11208" lon="1.6036">
        <ele>295</ele>
        <time>2012-09-23T08:22:22Z</time>
      </trkpt>
      <trkpt lat="43.11225" lon="1.60371">
        <ele>294</ele>
        <time>2012-09-23T08:22:24Z</time>
      </trkpt>
      <trkpt lat="43.11243" lon="1.60379">
        <ele>293</ele>
        <time>2012-09-23T08:22:26Z</time>
      </trkpt>
      <trkpt lat="43.11261" lon="1.60384">
        <ele>292</ele>
        <time>2012-09-23T08:22:28Z</time>
      </trkpt>
      <trkpt lat="43.11276" lon="1.6038">
        <ele>291</ele>
        <time>2012-09-23T08:22:30Z</time>
      </trkpt>
      <trkpt lat="43.11284" lon="1.60376">
        <ele>290</ele>
        <time>2012-09-23T08:22:32Z</time>
      </trkpt>
      <trkpt lat="43.11288" lon="1.60377">
        <ele>290</ele>
        <time>2012-09-23T08:22:34Z</time>
      </trkpt>
      <trkpt lat="43.11292" lon="1.60386">
        <ele>290</ele>
        <time>2012-09-23T08:22:36Z</time>
      </trkpt>
      <trkpt lat="43.11296" lon="1.60398">
        <ele>289</ele>
        <time>2012-09-23T08:22:38Z</time>
      </trkpt>
      <trkpt lat="43.11306" lon="1.60403">
        <ele>289</ele>
        <time>2012-09-23T08:22:40Z</time>
      </trkpt>
      <trkpt lat="43.11319" lon="1.60399">
        <ele>288</ele>
        <time>2012-09-23T08:22:42Z</time>
      </trkpt>
      <trkpt lat="43.11332" lon="1.60394">
        <ele>287</ele>
        <time>2012-09-23T08:22:44Z</time>
      </trkpt>
      <trkpt lat="43.11348" lon="1.60384">
        <ele>285</ele>
        <time>2012-09-23T08:22:46Z</time>
      </trkpt>
      <trkpt lat="43.11363" lon="1.6037">
        <ele>284</ele>
        <time>2012-09-23T08:22:48Z</time>
      </trkpt>
      <trkpt lat="43.11379" lon="1.60354">
        <ele>282</ele>
        <time>2012-09-23T08:22:50Z</time>
      </trkpt>
      <trkpt lat="43.11395" lon="1.60339">
        <ele>282</ele>
        <time>2012-09-23T08:22:52Z</time>
      </trkpt>
      <trkpt lat="43.1141" lon="1.60325">
        <ele>282</ele>
        <time>2012-09-23T08:22:54Z</time>
      </trkpt>
      <trkpt lat="43.11425" lon="1.60311">
        <ele>282</ele>
        <time>2012-09-23T08:22:56Z</time>
      </trkpt>
      <trkpt lat="43.11441" lon="1.60297">
        <ele>282</ele>
        <time>2012-09-23T08:22:58Z</time>
      </trkpt>
      <trkpt lat="43.11456" lon="1.60283">
        <ele>282</ele>
        <time>2012-09-23T08:23:00Z</time>
      </trkpt>
      <trkpt lat="43.1147" lon="1.60269">
        <ele>282</ele>
        <time>2012-09-23T08:23:02Z</time>
      </trkpt>
      <trkpt lat="43.11485" lon="1.60255">
        <ele>282</ele>
        <time>2012-09-23T08:23:04Z</time>
      </trkpt>
      <trkpt lat="43.11498" lon="1.60238">
        <ele>282</ele>
        <time>2012-09-23T08:23:06Z</time>
      </trkpt>
      <trkpt lat="43.1151" lon="1.6022">
        <ele>282</ele>
        <time>2012-09-23T08:23:08Z</time>
      </trkpt>
      <trkpt lat="43.11522" lon="1.60202">
        <ele>282</ele>
        <time>2012-09-23T08:23:10Z</time>
      </trkpt>
      <trkpt lat="43.11533" lon="1.60183">
        <ele>282</ele>
        <time>2012-09-23T08:23:12Z</time>
      </trkpt>
      <trkpt lat="43.11545" lon="1.60165">
        <ele>282</ele>
        <time>2012-09-23T08:23:14Z</time>
      </trkpt>
      <trkpt lat="43.11556" lon="1.60147">
        <ele>282</ele>
        <time>2012-09-23T08:23:16Z</time>
      </trkpt>
      <trkpt lat="43.11566" lon="1.60128">
        <ele>282</ele>
        <time>2012-09-23T08:23:18Z</time>
      </trkpt>
      <trkpt lat="43.11575" lon="1.60109">
        <ele>282</ele>
        <time>2012-09-23T08:23:20Z</time>
      </trkpt>
      <trkpt lat="43.11583" lon="1.60088">
        <ele>282</ele>
        <time>2012-09-23T08:23:22Z</time>
      </trkpt>
      <trkpt lat="43.11588" lon="1.60066">
        <ele>282</ele>
        <time>2012-09-23T08:23:24Z</time>
      </trkpt>
      <trkpt lat="43.11593" lon="1.60043">
        <ele>281</ele>
        <time>2012-09-23T08:23:26Z</time>
      </trkpt>
      <trkpt lat="43.11598" lon="1.60019">
        <ele>281</ele>
        <time>2012-09-23T08:23:28Z</time>
      </trkpt>
      <trkpt lat="43.11601" lon="1.59994">
        <ele>281</ele>
        <time>2012-09-23T08:23:30Z</time>
      </trkpt>
      <trkpt lat="43.11603" lon="1.5997">
        <ele>281</ele>
        <time>2012-09-23T08:23:32Z</time>
      </trkpt>
      <trkpt lat="43.11606" lon="1.59946">
        <ele>281</ele>
        <time>2012-09-23T08:23:34Z</time>
      </trkpt>
      <trkpt lat="43.11609" lon="1.59923">
        <ele>281</ele>
        <time>2012-09-23T08:23:36Z</time>
      </trkpt>
      <trkpt lat="43.11612" lon="1.599">
        <ele>281</ele>
        <time>2012-09-23T08:23:38Z</time>
      </trkpt>
      <trkpt lat="43.11615" lon="1.59878">
        <ele>281</ele>
        <time>2012-09-23T08:23:40Z</time>
      </trkpt>
      <trkpt lat="43.11619" lon="1.59855">
        <ele>281</ele>
        <time>2012-09-23T08:23:42Z</time>
      </trkpt>
      <trkpt lat="43.11622" lon="1.59833">
        <ele>281</ele>
        <time>2012-09-23T08:23:44Z</time>
      </trkpt>
      <trkpt lat="43.11625" lon="1.59811">
        <ele>281</ele>
        <time>2012-09-23T08:23:46Z</time>
      </trkpt>
      <trkpt lat="43.11629" lon="1.59791">
        <ele>281</ele>
        <time>2012-09-23T08:23:48Z</time>
      </trkpt>
      <trkpt lat="43.11632" lon="1.5977">
        <ele>281</ele>
        <time>2012-09-23T08:23:50Z</time>
      </trkpt>
      <trkpt lat="43.11635" lon="1.5975">
        <ele>281</ele>
        <time>2012-09-23T08:23:52Z</time>
      </trkpt>
      <trkpt lat="43.11639" lon="1.59733">
        <ele>281</ele>
        <time>2012-09-23T08:23:54Z</time>
      </trkpt>
      <trkpt lat="43.11641" lon="1.59719">
        <ele>281</ele>
        <time>2012-09-23T08:23:56Z</time>
      </trkpt>
      <trkpt lat="43.11645" lon="1.59708">
        <ele>281</ele>
        <time>2012-09-23T08:23:58Z</time>
      </trkpt>
      <trkpt lat="43.11647" lon="1.59699">
        <ele>281</ele>
        <time>2012-09-23T08:24:00Z</time>
      </trkpt>
      <trkpt lat="43.11648" lon="1.59689">
        <ele>281</ele>
        <time>2012-09-23T08:24:02Z</time>
      </trkpt>
      <trkpt lat="43.11649" lon="1.59681">
        <ele>281</ele>
        <time>2012-09-23T08:24:04Z</time>
      </trkpt>
      <trkpt lat="43.1165" lon="1.59675">
        <ele>281</ele>
        <time>2012-09-23T08:24:06Z</time>
      </trkpt>
      <trkpt lat="43.1165" lon="1.59671">
        <ele>281</ele>
        <time>2012-09-23T08:24:08Z</time>
      </trkpt>
      <trkpt lat="43.1165" lon="1.59667">
        <ele>281</ele>
        <time>2012-09-23T08:24:10Z</time>
      </trkpt>
      <trkpt lat="43.1165" lon="1.59662">
        <ele>281</ele>
        <time>2012-09-23T08:24:12Z</time>
      </trkpt>
      <trkpt lat="43.1165" lon="1.59658">
        <ele>282</ele>
        <time>2012-09-23T08:24:14Z</time>
      </trkpt>
      <trkpt lat="43.1165" lon="1.59654">
        <ele>283</ele>
        <time>2012-09-23T08:24:16Z</time>
      </trkpt>
      <trkpt lat="43.11651" lon="1.59652">
        <ele>284</ele>
        <time>2012-09-23T08:24:18Z</time>
      </trkpt>
      <trkpt lat="43.11653" lon="1.5965">
        <ele>284</ele>
        <time>2012-09-23T08:24:20Z</time>
      </trkpt>
      <trkpt lat="43.11655" lon="1.59648">
        <ele>285</ele>
        <time>2012-09-23T08:24:22Z</time>
      </trkpt>
      <trkpt lat="43.1166" lon="1.59646">
        <ele>285</ele>
        <time>2012-09-23T08:24:26Z</time>
      </trkpt>
      <trkpt lat="43.11662" lon="1.59645">
        <ele>285</ele>
        <time>2012-09-23T08:24:28Z</time>
      </trkpt>
      <trkpt lat="43.11663" lon="1.59645">
        <ele>285</ele>
        <time>2012-09-23T08:24:30Z</time>
      </trkpt>
      <trkpt lat="43.11664" lon="1.59644">
        <ele>287</ele>
        <time>2012-09-23T08:24:32Z</time>
      </trkpt>
      <trkpt lat="43.11666" lon="1.59642">
        <ele>289</ele>
        <time>2012-09-23T08:24:34Z</time>
      </trkpt>
      <trkpt lat="43.11667" lon="1.5964">
        <ele>291</ele>
        <time>2012-09-23T08:24:36Z</time>
      </trkpt>
      <trkpt lat="43.11667" lon="1.59638">
        <ele>292</ele>
        <time>2012-09-23T08:24:38Z</time>
      </trkpt>
      <trkpt lat="43.11668" lon="1.59635">
        <ele>292</ele>
        <time>2012-09-23T08:24:40Z</time>
      </trkpt>
      <trkpt lat="43.11668" lon="1.59632">
        <ele>292</ele>
        <time>2012-09-23T08:24:42Z</time>
      </trkpt>
      <trkpt lat="43.11668" lon="1.5963">
        <ele>292</ele>
        <time>2012-09-23T08:24:44Z</time>
      </trkpt>
      <trkpt lat="43.11668" lon="1.59627">
        <ele>292</ele>
        <time>2012-09-23T08:24:46Z</time>
      </trkpt>
      <trkpt lat="43.11668" lon="1.59625">
        <ele>292</ele>
        <time>2012-09-23T08:24:48Z</time>
      </trkpt>
      <trkpt lat="43.11667" lon="1.59623">
        <ele>292</ele>
        <time>2012-09-23T08:24:50Z</time>
      </trkpt>
      <trkpt lat="43.11668" lon="1.59619">
        <ele>292</ele>
        <time>2012-09-23T08:24:52Z</time>
      </trkpt>
      <trkpt lat="43.11668" lon="1.59617">
        <ele>292</ele>
        <time>2012-09-23T08:24:54Z</time>
      </trkpt>
      <trkpt lat="43.11668" lon="1.59614">
        <ele>292</ele>
        <time>2012-09-23T08:24:56Z</time>
      </trkpt>
      <trkpt lat="43.11669" lon="1.5961">
        <ele>292</ele>
        <time>2012-09-23T08:24:58Z</time>
      </trkpt>
      <trkpt lat="43.11668" lon="1.59607">
        <ele>292</ele>
        <time>2012-09-23T08:25:00Z</time>
      </trkpt>
      <trkpt lat="43.11668" lon="1.59603">
        <ele>292</ele>
        <time>2012-09-23T08:25:03Z</time>
      </trkpt>
      <trkpt lat="43.11668" lon="1.596">
        <ele>292</ele>
        <time>2012-09-23T08:25:05Z</time>
      </trkpt>
      <trkpt lat="43.11667" lon="1.59598">
        <ele>292</ele>
        <time>2012-09-23T08:25:07Z</time>
      </trkpt>
      <trkpt lat="43.11666" lon="1.59595">
        <ele>292</ele>
        <time>2012-09-23T08:25:09Z</time>
      </trkpt>
      <trkpt lat="43.11666" lon="1.59591">
        <ele>292</ele>
        <time>2012-09-23T08:25:11Z</time>
      </trkpt>
      <trkpt lat="43.11666" lon="1.59588">
        <ele>292</ele>
        <time>2012-09-23T08:25:13Z</time>
      </trkpt>
      <trkpt lat="43.11666" lon="1.59585">
        <ele>292</ele>
        <time>2012-09-23T08:25:15Z</time>
      </trkpt>
      <trkpt lat="43.11667" lon="1.59583">
        <ele>292</ele>
        <time>2012-09-23T08:25:17Z</time>
      </trkpt>
      <trkpt lat="43.11669" lon="1.59582">
        <ele>294</ele>
        <time>2012-09-23T08:25:20Z</time>
      </trkpt>
      <trkpt lat="43.11672" lon="1.59583">
        <ele>296</ele>
        <time>2012-09-23T08:25:22Z</time>
      </trkpt>
      <trkpt lat="43.11674" lon="1.59584">
        <ele>298</ele>
        <time>2012-09-23T08:25:24Z</time>
      </trkpt>
      <trkpt lat="43.11677" lon="1.59586">
        <ele>300</ele>
        <time>2012-09-23T08:25:26Z</time>
      </trkpt>
      <trkpt lat="43.1168" lon="1.59588">
        <ele>302</ele>
        <time>2012-09-23T08:25:28Z</time>
      </trkpt>
      <trkpt lat="43.11682" lon="1.59588">
        <ele>304</ele>
        <time>2012-09-23T08:25:30Z</time>
      </trkpt>
      <trkpt lat="43.11685" lon="1.59588">
        <ele>305</ele>
        <time>2012-09-23T08:25:32Z</time>
      </trkpt>
      <trkpt lat="43.11686" lon="1.59586">
        <ele>305</ele>
        <time>2012-09-23T08:25:35Z</time>
      </trkpt>
      <trkpt lat="43.11686" lon="1.59582">
        <ele>306</ele>
        <time>2012-09-23T08:25:37Z</time>
      </trkpt>
      <trkpt lat="43.11687" lon="1.59579">
        <ele>306</ele>
        <time>2012-09-23T08:25:39Z</time>
      </trkpt>
      <trkpt lat="43.11687" lon="1.59576">
        <ele>307</ele>
        <time>2012-09-23T08:25:41Z</time>
      </trkpt>
      <trkpt lat="43.11687" lon="1.59572">
        <ele>308</ele>
        <time>2012-09-23T08:25:43Z</time>
      </trkpt>
      <trkpt lat="43.11687" lon="1.59569">
        <ele>308</ele>
        <time>2012-09-23T08:25:45Z</time>
      </trkpt>
      <trkpt lat="43.11688" lon="1.59565">
        <ele>309</ele>
        <time>2012-09-23T08:25:47Z</time>
      </trkpt>
      <trkpt lat="43.11688" lon="1.59561">
        <ele>309</ele>
        <time>2012-09-23T08:25:49Z</time>
      </trkpt>
      <trkpt lat="43.11689" lon="1.59557">
        <ele>311</ele>
        <time>2012-09-23T08:25:51Z</time>
      </trkpt>
      <trkpt lat="43.11689" lon="1.59553">
        <ele>313</ele>
        <time>2012-09-23T08:25:53Z</time>
      </trkpt>
      <trkpt lat="43.1169" lon="1.59549">
        <ele>314</ele>
        <time>2012-09-23T08:25:55Z</time>
      </trkpt>
      <trkpt lat="43.1169" lon="1.59545">
        <ele>314</ele>
        <time>2012-09-23T08:25:58Z</time>
      </trkpt>
      <trkpt lat="43.11691" lon="1.59541">
        <ele>314</ele>
        <time>2012-09-23T08:26:00Z</time>
      </trkpt>
      <trkpt lat="43.11691" lon="1.59539">
        <ele>315</ele>
        <time>2012-09-23T08:26:02Z</time>
      </trkpt>
      <trkpt lat="43.11692" lon="1.59535">
        <ele>317</ele>
        <time>2012-09-23T08:26:04Z</time>
      </trkpt>
      <trkpt lat="43.11691" lon="1.59531">
        <ele>319</ele>
        <time>2012-09-23T08:26:06Z</time>
      </trkpt>
      <trkpt lat="43.11692" lon="1.59529">
        <ele>321</ele>
        <time>2012-09-23T08:26:08Z</time>
      </trkpt>
      <trkpt lat="43.11692" lon="1.59526">
        <ele>321</ele>
        <time>2012-09-23T08:26:10Z</time>
      </trkpt>
      <trkpt lat="43.11692" lon="1.59522">
        <ele>321</ele>
        <time>2012-09-23T08:26:13Z</time>
      </trkpt>
      <trkpt lat="43.11692" lon="1.59518">
        <ele>321</ele>
        <time>2012-09-23T08:26:15Z</time>
      </trkpt>
      <trkpt lat="43.11693" lon="1.59516">
        <ele>322</ele>
        <time>2012-09-23T08:26:17Z</time>
      </trkpt>
      <trkpt lat="43.11692" lon="1.59512">
        <ele>325</ele>
        <time>2012-09-23T08:26:20Z</time>
      </trkpt>
      <trkpt lat="43.11692" lon="1.59511">
        <ele>326</ele>
        <time>2012-09-23T08:26:22Z</time>
      </trkpt>
      <trkpt lat="43.11692" lon="1.59507">
        <ele>326</ele>
        <time>2012-09-23T08:26:25Z</time>
      </trkpt>
      <trkpt lat="43.11692" lon="1.59504">
        <ele>326</ele>
        <time>2012-09-23T08:26:27Z</time>
      </trkpt>
      <trkpt lat="43.11692" lon="1.59502">
        <ele>326</ele>
        <time>2012-09-23T08:26:29Z</time>
      </trkpt>
      <trkpt lat="43.11691" lon="1.59498">
        <ele>326</ele>
        <time>2012-09-23T08:26:32Z</time>
      </trkpt>
      <trkpt lat="43.11692" lon="1.59496">
        <ele>326</ele>
        <time>2012-09-23T08:26:34Z</time>
      </trkpt>
      <trkpt lat="43.11691" lon="1.59493">
        <ele>326</ele>
        <time>2012-09-23T08:26:36Z</time>
      </trkpt>
      <trkpt lat="43.1169" lon="1.59489">
        <ele>326</ele>
        <time>2012-09-23T08:26:39Z</time>
      </trkpt>
      <trkpt lat="43.11691" lon="1.59488">
        <ele>327</ele>
        <time>2012-09-23T08:26:41Z</time>
      </trkpt>
      <trkpt lat="43.1169" lon="1.59486">
        <ele>329</ele>
        <time>2012-09-23T08:26:43Z</time>
      </trkpt>
      <trkpt lat="43.1169" lon="1.59485">
        <ele>331</ele>
        <time>2012-09-23T08:26:45Z</time>
      </trkpt>
      <trkpt lat="43.11691" lon="1.59483">
        <ele>332</ele>
        <time>2012-09-23T08:26:47Z</time>
      </trkpt>
      <trkpt lat="43.11691" lon="1.59482">
        <ele>334</ele>
        <time>2012-09-23T08:26:49Z</time>
      </trkpt>
      <trkpt lat="43.11691" lon="1.59479">
        <ele>335</ele>
        <time>2012-09-23T08:26:51Z</time>
      </trkpt>
      <trkpt lat="43.11691" lon="1.59477">
        <ele>335</ele>
        <time>2012-09-23T08:26:53Z</time>
      </trkpt>
      <trkpt lat="43.11691" lon="1.59472">
        <ele>335</ele>
        <time>2012-09-23T08:26:56Z</time>
      </trkpt>
      <trkpt lat="43.11691" lon="1.59469">
        <ele>335</ele>
        <time>2012-09-23T08:26:58Z</time>
      </trkpt>
      <trkpt lat="43.11692" lon="1.59467">
        <ele>335</ele>
        <time>2012-09-23T08:27:00Z</time>
      </trkpt>
      <trkpt lat="43.11692" lon="1.59464">
        <ele>335</ele>
        <time>2012-09-23T08:27:02Z</time>
      </trkpt>
      <trkpt lat="43.11692" lon="1.59462">
        <ele>335</ele>
        <time>2012-09-23T08:27:04Z</time>
      </trkpt>
      <trkpt lat="43.11693" lon="1.59459">
        <ele>335</ele>
        <time>2012-09-23T08:27:06Z</time>
      </trkpt>
      <trkpt lat="43.11693" lon="1.59458">
        <ele>335</ele>
        <time>2012-09-23T08:27:08Z</time>
      </trkpt>
      <trkpt lat="43.11693" lon="1.59453">
        <ele>335</ele>
        <time>2012-09-23T08:27:11Z</time>
      </trkpt>
      <trkpt lat="43.11694" lon="1.5945">
        <ele>335</ele>
        <time>2012-09-23T08:27:13Z</time>
      </trkpt>
      <trkpt lat="43.11695" lon="1.59448">
        <ele>335</ele>
        <time>2012-09-23T08:27:15Z</time>
      </trkpt>
      <trkpt lat="43.11696" lon="1.59446">
        <ele>335</ele>
        <time>2012-09-23T08:27:17Z</time>
      </trkpt>
      <trkpt lat="43.11697" lon="1.59443">
        <ele>335</ele>
        <time>2012-09-23T08:27:19Z</time>
      </trkpt>
      <trkpt lat="43.11698" lon="1.5944">
        <ele>334</ele>
        <time>2012-09-23T08:27:21Z</time>
      </trkpt>
      <trkpt lat="43.11699" lon="1.59438">
        <ele>334</ele>
        <time>2012-09-23T08:27:23Z</time>
      </trkpt>
      <trkpt lat="43.11701" lon="1.59436">
        <ele>334</ele>
        <time>2012-09-23T08:27:25Z</time>
      </trkpt>
      <trkpt lat="43.11702" lon="1.59434">
        <ele>334</ele>
        <time>2012-09-23T08:27:27Z</time>
      </trkpt>
      <trkpt lat="43.11704" lon="1.59433">
        <ele>334</ele>
        <time>2012-09-23T08:27:29Z</time>
      </trkpt>
      <trkpt lat="43.11705" lon="1.5943">
        <ele>334</ele>
        <time>2012-09-23T08:27:31Z</time>
      </trkpt>
      <trkpt lat="43.11705" lon="1.59428">
        <ele>334</ele>
        <time>2012-09-23T08:27:33Z</time>
      </trkpt>
      <trkpt lat="43.11706" lon="1.59425">
        <ele>334</ele>
        <time>2012-09-23T08:27:35Z</time>
      </trkpt>
      <trkpt lat="43.11707" lon="1.59423">
        <ele>334</ele>
        <time>2012-09-23T08:27:37Z</time>
      </trkpt>
      <trkpt lat="43.11709" lon="1.59422">
        <ele>334</ele>
        <time>2012-09-23T08:27:39Z</time>
      </trkpt>
      <trkpt lat="43.1171" lon="1.5942">
        <ele>334</ele>
        <time>2012-09-23T08:27:41Z</time>
      </trkpt>
      <trkpt lat="43.11711" lon="1.59418">
        <ele>334</ele>
        <time>2012-09-23T08:27:43Z</time>
      </trkpt>
      <trkpt lat="43.11712" lon="1.59416">
        <ele>334</ele>
        <time>2012-09-23T08:27:45Z</time>
      </trkpt>
      <trkpt lat="43.11714" lon="1.59415">
        <ele>334</ele>
        <time>2012-09-23T08:27:47Z</time>
      </trkpt>
      <trkpt lat="43.11716" lon="1.59411">
        <ele>335</ele>
        <time>2012-09-23T08:27:50Z</time>
      </trkpt>
      <trkpt lat="43.11717" lon="1.59409">
        <ele>336</ele>
        <time>2012-09-23T08:27:52Z</time>
      </trkpt>
      <trkpt lat="43.11717" lon="1.59406">
        <ele>336</ele>
        <time>2012-09-23T08:27:54Z</time>
      </trkpt>
      <trkpt lat="43.11718" lon="1.59404">
        <ele>337</ele>
        <time>2012-09-23T08:27:56Z</time>
      </trkpt>
      <trkpt lat="43.11719" lon="1.59403">
        <ele>337</ele>
        <time>2012-09-23T08:27:59Z</time>
      </trkpt>
      <trkpt lat="43.11721" lon="1.59402">
        <ele>339</ele>
        <time>2012-09-23T08:28:04Z</time>
      </trkpt>
      <trkpt lat="43.11722" lon="1.594">
        <ele>340</ele>
        <time>2012-09-23T08:28:07Z</time>
      </trkpt>
      <trkpt lat="43.11723" lon="1.594">
        <ele>341</ele>
        <time>2012-09-23T08:28:12Z</time>
      </trkpt>
      <trkpt lat="43.11724" lon="1.59399">
        <ele>342</ele>
        <time>2012-09-23T08:28:28Z</time>
      </trkpt>
      <trkpt lat="43.11724" lon="1.59397">
        <ele>342</ele>
        <time>2012-09-23T08:28:30Z</time>
      </trkpt>
      <trkpt lat="43.11724" lon="1.59394">
        <ele>342</ele>
        <time>2012-09-23T08:28:32Z</time>
      </trkpt>
      <trkpt lat="43.11723" lon="1.5939">
        <ele>342</ele>
        <time>2012-09-23T08:28:34Z</time>
      </trkpt>
      <trkpt lat="43.11722" lon="1.59386">
        <ele>342</ele>
        <time>2012-09-23T08:28:37Z</time>
      </trkpt>
      <trkpt lat="43.11721" lon="1.59385">
        <ele>342</ele>
        <time>2012-09-23T08:28:39Z</time>
      </trkpt>
      <trkpt lat="43.1172" lon="1.59383">
        <ele>342</ele>
        <time>2012-09-23T08:28:43Z</time>
      </trkpt>
      <trkpt lat="43.11721" lon="1.59381">
        <ele>342</ele>
        <time>2012-09-23T08:28:47Z</time>
      </trkpt>
      <trkpt lat="43.11719" lon="1.59379">
        <ele>342</ele>
        <time>2012-09-23T08:28:49Z</time>
      </trkpt>
      <trkpt lat="43.11717" lon="1.59377">
        <ele>342</ele>
        <time>2012-09-23T08:28:51Z</time>
      </trkpt>
      <trkpt lat="43.11713" lon="1.59374">
        <ele>342</ele>
        <time>2012-09-23T08:28:53Z</time>
      </trkpt>
      <trkpt lat="43.1171" lon="1.59371">
        <ele>342</ele>
        <time>2012-09-23T08:28:55Z</time>
      </trkpt>
      <trkpt lat="43.11707" lon="1.59365">
        <ele>342</ele>
        <time>2012-09-23T08:28:57Z</time>
      </trkpt>
      <trkpt lat="43.11706" lon="1.5936">
        <ele>342</ele>
        <time>2012-09-23T08:28:59Z</time>
      </trkpt>
      <trkpt lat="43.11705" lon="1.59354">
        <ele>342</ele>
        <time>2012-09-23T08:29:01Z</time>
      </trkpt>
      <trkpt lat="43.11704" lon="1.59348">
        <ele>342</ele>
        <time>2012-09-23T08:29:03Z</time>
      </trkpt>
      <trkpt lat="43.11703" lon="1.59343">
        <ele>342</ele>
        <time>2012-09-23T08:29:05Z</time>
      </trkpt>
      <trkpt lat="43.11703" lon="1.59337">
        <ele>343</ele>
        <time>2012-09-23T08:29:07Z</time>
      </trkpt>
      <trkpt lat="43.11702" lon="1.5933">
        <ele>343</ele>
        <time>2012-09-23T08:29:09Z</time>
      </trkpt>
      <trkpt lat="43.11701" lon="1.59323">
        <ele>343</ele>
        <time>2012-09-23T08:29:11Z</time>
      </trkpt>
      <trkpt lat="43.117" lon="1.59318">
        <ele>343</ele>
        <time>2012-09-23T08:29:13Z</time>
      </trkpt>
      <trkpt lat="43.11698" lon="1.5931">
        <ele>343</ele>
        <time>2012-09-23T08:29:15Z</time>
      </trkpt>
      <trkpt lat="43.11697" lon="1.59304">
        <ele>343</ele>
        <time>2012-09-23T08:29:17Z</time>
      </trkpt>
      <trkpt lat="43.11695" lon="1.59297">
        <ele>343</ele>
        <time>2012-09-23T08:29:19Z</time>
      </trkpt>
      <trkpt lat="43.11695" lon="1.5929">
        <ele>343</ele>
        <time>2012-09-23T08:29:21Z</time>
      </trkpt>
      <trkpt lat="43.11696" lon="1.59285">
        <ele>343</ele>
        <time>2012-09-23T08:29:23Z</time>
      </trkpt>
      <trkpt lat="43.11697" lon="1.5928">
        <ele>345</ele>
        <time>2012-09-23T08:29:25Z</time>
      </trkpt>
      <trkpt lat="43.11697" lon="1.59276">
        <ele>347</ele>
        <time>2012-09-23T08:29:27Z</time>
      </trkpt>
      <trkpt lat="43.11698" lon="1.59272">
        <ele>348</ele>
        <time>2012-09-23T08:29:29Z</time>
      </trkpt>
      <trkpt lat="43.11699" lon="1.59268">
        <ele>349</ele>
        <time>2012-09-23T08:29:31Z</time>
      </trkpt>
      <trkpt lat="43.117" lon="1.59264">
        <ele>350</ele>
        <time>2012-09-23T08:29:33Z</time>
      </trkpt>
      <trkpt lat="43.117" lon="1.5926">
        <ele>350</ele>
        <time>2012-09-23T08:29:35Z</time>
      </trkpt>
      <trkpt lat="43.11701" lon="1.59256">
        <ele>352</ele>
        <time>2012-09-23T08:29:37Z</time>
      </trkpt>
      <trkpt lat="43.11702" lon="1.59253">
        <ele>353</ele>
        <time>2012-09-23T08:29:39Z</time>
      </trkpt>
      <trkpt lat="43.11703" lon="1.5925">
        <ele>353</ele>
        <time>2012-09-23T08:29:41Z</time>
      </trkpt>
      <trkpt lat="43.11704" lon="1.59247">
        <ele>354</ele>
        <time>2012-09-23T08:29:43Z</time>
      </trkpt>
      <trkpt lat="43.11706" lon="1.59244">
        <ele>354</ele>
        <time>2012-09-23T08:29:45Z</time>
      </trkpt>
      <trkpt lat="43.11707" lon="1.59241">
        <ele>355</ele>
        <time>2012-09-23T08:29:47Z</time>
      </trkpt>
      <trkpt lat="43.11708" lon="1.59238">
        <ele>355</ele>
        <time>2012-09-23T08:29:49Z</time>
      </trkpt>
      <trkpt lat="43.1171" lon="1.59235">
        <ele>356</ele>
        <time>2012-09-23T08:29:51Z</time>
      </trkpt>
      <trkpt lat="43.11712" lon="1.59231">
        <ele>356</ele>
        <time>2012-09-23T08:29:53Z</time>
      </trkpt>
      <trkpt lat="43.11713" lon="1.59229">
        <ele>357</ele>
        <time>2012-09-23T08:29:55Z</time>
      </trkpt>
      <trkpt lat="43.11715" lon="1.59225">
        <ele>357</ele>
        <time>2012-09-23T08:29:57Z</time>
      </trkpt>
      <trkpt lat="43.11717" lon="1.59222">
        <ele>358</ele>
        <time>2012-09-23T08:29:59Z</time>
      </trkpt>
      <trkpt lat="43.11719" lon="1.59219">
        <ele>358</ele>
        <time>2012-09-23T08:30:01Z</time>
      </trkpt>
      <trkpt lat="43.11721" lon="1.59215">
        <ele>359</ele>
        <time>2012-09-23T08:30:03Z</time>
      </trkpt>
      <trkpt lat="43.11723" lon="1.59212">
        <ele>360</ele>
        <time>2012-09-23T08:30:05Z</time>
      </trkpt>
      <trkpt lat="43.11725" lon="1.59209">
        <ele>361</ele>
        <time>2012-09-23T08:30:07Z</time>
      </trkpt>
      <trkpt lat="43.11727" lon="1.59206">
        <ele>362</ele>
        <time>2012-09-23T08:30:09Z</time>
      </trkpt>
      <trkpt lat="43.1173" lon="1.59202">
        <ele>363</ele>
        <time>2012-09-23T08:30:12Z</time>
      </trkpt>
      <trkpt lat="43.11732" lon="1.59198">
        <ele>364</ele>
        <time>2012-09-23T08:30:14Z</time>
      </trkpt>
      <trkpt lat="43.11734" lon="1.59195">
        <ele>364</ele>
        <time>2012-09-23T08:30:16Z</time>
      </trkpt>
      <trkpt lat="43.11737" lon="1.59193">
        <ele>364</ele>
        <time>2012-09-23T08:30:18Z</time>
      </trkpt>
      <trkpt lat="43.11739" lon="1.5919">
        <ele>365</ele>
        <time>2012-09-23T08:30:20Z</time>
      </trkpt>
      <trkpt lat="43.11741" lon="1.59187">
        <ele>366</ele>
        <time>2012-09-23T08:30:22Z</time>
      </trkpt>
      <trkpt lat="43.11743" lon="1.59184">
        <ele>367</ele>
        <time>2012-09-23T08:30:24Z</time>
      </trkpt>
      <trkpt lat="43.11745" lon="1.59181">
        <ele>367</ele>
        <time>2012-09-23T08:30:26Z</time>
      </trkpt>
      <trkpt lat="43.11748" lon="1.59178">
        <ele>368</ele>
        <time>2012-09-23T08:30:28Z</time>
      </trkpt>
      <trkpt lat="43.1175" lon="1.59175">
        <ele>369</ele>
        <time>2012-09-23T08:30:30Z</time>
      </trkpt>
      <trkpt lat="43.11752" lon="1.59171">
        <ele>370</ele>
        <time>2012-09-23T08:30:32Z</time>
      </trkpt>
      <trkpt lat="43.11754" lon="1.59169">
        <ele>370</ele>
        <time>2012-09-23T08:30:34Z</time>
      </trkpt>
      <trkpt lat="43.11755" lon="1.59165">
        <ele>371</ele>
        <time>2012-09-23T08:30:36Z</time>
      </trkpt>
      <trkpt lat="43.11757" lon="1.59162">
        <ele>371</ele>
        <time>2012-09-23T08:30:38Z</time>
      </trkpt>
      <trkpt lat="43.11759" lon="1.59159">
        <ele>372</ele>
        <time>2012-09-23T08:30:40Z</time>
      </trkpt>
      <trkpt lat="43.1176" lon="1.59156">
        <ele>372</ele>
        <time>2012-09-23T08:30:42Z</time>
      </trkpt>
      <trkpt lat="43.11762" lon="1.59153">
        <ele>372</ele>
        <time>2012-09-23T08:30:44Z</time>
      </trkpt>
      <trkpt lat="43.11763" lon="1.59149">
        <ele>372</ele>
        <time>2012-09-23T08:30:46Z</time>
      </trkpt>
      <trkpt lat="43.11765" lon="1.59146">
        <ele>373</ele>
        <time>2012-09-23T08:30:48Z</time>
      </trkpt>
      <trkpt lat="43.11766" lon="1.59142">
        <ele>373</ele>
        <time>2012-09-23T08:30:50Z</time>
      </trkpt>
      <trkpt lat="43.11766" lon="1.59138">
        <ele>373</ele>
        <time>2012-09-23T08:30:52Z</time>
      </trkpt>
      <trkpt lat="43.11767" lon="1.59134">
        <ele>373</ele>
        <time>2012-09-23T08:30:54Z</time>
      </trkpt>
      <trkpt lat="43.11768" lon="1.5913">
        <ele>374</ele>
        <time>2012-09-23T08:30:56Z</time>
      </trkpt>
      <trkpt lat="43.11768" lon="1.59126">
        <ele>374</ele>
        <time>2012-09-23T08:30:58Z</time>
      </trkpt>
      <trkpt lat="43.11769" lon="1.59121">
        <ele>375</ele>
        <time>2012-09-23T08:31:00Z</time>
      </trkpt>
      <trkpt lat="43.11769" lon="1.59117">
        <ele>376</ele>
        <time>2012-09-23T08:31:02Z</time>
      </trkpt>
      <trkpt lat="43.1177" lon="1.59113">
        <ele>377</ele>
        <time>2012-09-23T08:31:04Z</time>
      </trkpt>
      <trkpt lat="43.1177" lon="1.59109">
        <ele>378</ele>
        <time>2012-09-23T08:31:06Z</time>
      </trkpt>
      <trkpt lat="43.11771" lon="1.59105">
        <ele>380</ele>
        <time>2012-09-23T08:31:08Z</time>
      </trkpt>
      <trkpt lat="43.11771" lon="1.59101">
        <ele>381</ele>
        <time>2012-09-23T08:31:10Z</time>
      </trkpt>
      <trkpt lat="43.11772" lon="1.59097">
        <ele>381</ele>
        <time>2012-09-23T08:31:12Z</time>
      </trkpt>
      <trkpt lat="43.11773" lon="1.59092">
        <ele>382</ele>
        <time>2012-09-23T08:31:14Z</time>
      </trkpt>
      <trkpt lat="43.11774" lon="1.59088">
        <ele>383</ele>
        <time>2012-09-23T08:31:16Z</time>
      </trkpt>
      <trkpt lat="43.11774" lon="1.59084">
        <ele>383</ele>
        <time>2012-09-23T08:31:18Z</time>
      </trkpt>
      <trkpt lat="43.11776" lon="1.5908">
        <ele>384</ele>
        <time>2012-09-23T08:31:20Z</time>
      </trkpt>
      <trkpt lat="43.11777" lon="1.59076">
        <ele>384</ele>
        <time>2012-09-23T08:31:22Z</time>
      </trkpt>
      <trkpt lat="43.11778" lon="1.59073">
        <ele>385</ele>
        <time>2012-09-23T08:31:24Z</time>
      </trkpt>
      <trkpt lat="43.11779" lon="1.59069">
        <ele>385</ele>
        <time>2012-09-23T08:31:26Z</time>
      </trkpt>
      <trkpt lat="43.11781" lon="1.59065">
        <ele>385</ele>
        <time>2012-09-23T08:31:28Z</time>
      </trkpt>
      <trkpt lat="43.11782" lon="1.59061">
        <ele>385</ele>
        <time>2012-09-23T08:31:30Z</time>
      </trkpt>
      <trkpt lat="43.11783" lon="1.59056">
        <ele>385</ele>
        <time>2012-09-23T08:31:32Z</time>
      </trkpt>
      <trkpt lat="43.11784" lon="1.59051">
        <ele>385</ele>
        <time>2012-09-23T08:31:34Z</time>
      </trkpt>
      <trkpt lat="43.11786" lon="1.59045">
        <ele>385</ele>
        <time>2012-09-23T08:31:36Z</time>
      </trkpt>
      <trkpt lat="43.11787" lon="1.59039">
        <ele>386</ele>
        <time>2012-09-23T08:31:38Z</time>
      </trkpt>
      <trkpt lat="43.11789" lon="1.59034">
        <ele>386</ele>
        <time>2012-09-23T08:31:40Z</time>
      </trkpt>
      <trkpt lat="43.11791" lon="1.59028">
        <ele>386</ele>
        <time>2012-09-23T08:31:42Z</time>
      </trkpt>
      <trkpt lat="43.11793" lon="1.59022">
        <ele>386</ele>
        <time>2012-09-23T08:31:44Z</time>
      </trkpt>
      <trkpt lat="43.11795" lon="1.59015">
        <ele>386</ele>
        <time>2012-09-23T08:31:46Z</time>
      </trkpt>
      <trkpt lat="43.11798" lon="1.59008">
        <ele>386</ele>
        <time>2012-09-23T08:31:48Z</time>
      </trkpt>
      <trkpt lat="43.11805" lon="1.58999">
        <ele>386</ele>
        <time>2012-09-23T08:31:50Z</time>
      </trkpt>
      <trkpt lat="43.1181" lon="1.58995">
        <ele>386</ele>
        <time>2012-09-23T08:31:53Z</time>
      </trkpt>
      <trkpt lat="43.11814" lon="1.58991">
        <ele>387</ele>
        <time>2012-09-23T08:31:55Z</time>
      </trkpt>
      <trkpt lat="43.11818" lon="1.58986">
        <ele>387</ele>
        <time>2012-09-23T08:31:57Z</time>
      </trkpt>
      <trkpt lat="43.11823" lon="1.58982">
        <ele>388</ele>
        <time>2012-09-23T08:31:59Z</time>
      </trkpt>
      <trkpt lat="43.11828" lon="1.58977">
        <ele>388</ele>
        <time>2012-09-23T08:32:01Z</time>
      </trkpt>
      <trkpt lat="43.11832" lon="1.58973">
        <ele>389</ele>
        <time>2012-09-23T08:32:03Z</time>
      </trkpt>
      <trkpt lat="43.11837" lon="1.58969">
        <ele>389</ele>
        <time>2012-09-23T08:32:05Z</time>
      </trkpt>
      <trkpt lat="43.11842" lon="1.58965">
        <ele>390</ele>
        <time>2012-09-23T08:32:07Z</time>
      </trkpt>
      <trkpt lat="43.11847" lon="1.58959">
        <ele>390</ele>
        <time>2012-09-23T08:32:09Z</time>
      </trkpt>
      <trkpt lat="43.11851" lon="1.58953">
        <ele>390</ele>
        <time>2012-09-23T08:32:11Z</time>
      </trkpt>
      <trkpt lat="43.11855" lon="1.58948">
        <ele>390</ele>
        <time>2012-09-23T08:32:13Z</time>
      </trkpt>
      <trkpt lat="43.11859" lon="1.58941">
        <ele>390</ele>
        <time>2012-09-23T08:32:15Z</time>
      </trkpt>
      <trkpt lat="43.11863" lon="1.58934">
        <ele>390</ele>
        <time>2012-09-23T08:32:17Z</time>
      </trkpt>
      <trkpt lat="43.11866" lon="1.58927">
        <ele>390</ele>
        <time>2012-09-23T08:32:19Z</time>
      </trkpt>
      <trkpt lat="43.1187" lon="1.58921">
        <ele>390</ele>
        <time>2012-09-23T08:32:21Z</time>
      </trkpt>
      <trkpt lat="43.11873" lon="1.58913">
        <ele>390</ele>
        <time>2012-09-23T08:32:23Z</time>
      </trkpt>
      <trkpt lat="43.11877" lon="1.58906">
        <ele>392</ele>
        <time>2012-09-23T08:32:25Z</time>
      </trkpt>
      <trkpt lat="43.1188" lon="1.58901">
        <ele>393</ele>
        <time>2012-09-23T08:32:27Z</time>
      </trkpt>
      <trkpt lat="43.11882" lon="1.58894">
        <ele>394</ele>
        <time>2012-09-23T08:32:29Z</time>
      </trkpt>
      <trkpt lat="43.11883" lon="1.58889">
        <ele>395</ele>
        <time>2012-09-23T08:32:31Z</time>
      </trkpt>
      <trkpt lat="43.11885" lon="1.58882">
        <ele>395</ele>
        <time>2012-09-23T08:32:33Z</time>
      </trkpt>
      <trkpt lat="43.11887" lon="1.58876">
        <ele>395</ele>
        <time>2012-09-23T08:32:35Z</time>
      </trkpt>
      <trkpt lat="43.11889" lon="1.5887">
        <ele>395</ele>
        <time>2012-09-23T08:32:37Z</time>
      </trkpt>
      <trkpt lat="43.11891" lon="1.58863">
        <ele>395</ele>
        <time>2012-09-23T08:32:39Z</time>
      </trkpt>
      <trkpt lat="43.11892" lon="1.58856">
        <ele>395</ele>
        <time>2012-09-23T08:32:41Z</time>
      </trkpt>
      <trkpt lat="43.11894" lon="1.58849">
        <ele>395</ele>
        <time>2012-09-23T08:32:43Z</time>
      </trkpt>
      <trkpt lat="43.11895" lon="1.58843">
        <ele>395</ele>
        <time>2012-09-23T08:32:45Z</time>
      </trkpt>
      <trkpt lat="43.11897" lon="1.58836">
        <ele>395</ele>
        <time>2012-09-23T08:32:47Z</time>
      </trkpt>
      <trkpt lat="43.11898" lon="1.58829">
        <ele>395</ele>
        <time>2012-09-23T08:32:49Z</time>
      </trkpt>
      <trkpt lat="43.11899" lon="1.58822">
        <ele>395</ele>
        <time>2012-09-23T08:32:51Z</time>
      </trkpt>
      <trkpt lat="43.11901" lon="1.58815">
        <ele>395</ele>
        <time>2012-09-23T08:32:53Z</time>
      </trkpt>
      <trkpt lat="43.11902" lon="1.58807">
        <ele>395</ele>
        <time>2012-09-23T08:32:55Z</time>
      </trkpt>
      <trkpt lat="43.11903" lon="1.588">
        <ele>395</ele>
        <time>2012-09-23T08:32:57Z</time>
      </trkpt>
      <trkpt lat="43.11905" lon="1.58792">
        <ele>395</ele>
        <time>2012-09-23T08:32:59Z</time>
      </trkpt>
      <trkpt lat="43.11906" lon="1.58785">
        <ele>395</ele>
        <time>2012-09-23T08:33:01Z</time>
      </trkpt>
      <trkpt lat="43.11907" lon="1.58777">
        <ele>395</ele>
        <time>2012-09-23T08:33:03Z</time>
      </trkpt>
      <trkpt lat="43.11908" lon="1.58768">
        <ele>395</ele>
        <time>2012-09-23T08:33:05Z</time>
      </trkpt>
      <trkpt lat="43.11909" lon="1.5876">
        <ele>396</ele>
        <time>2012-09-23T08:33:07Z</time>
      </trkpt>
      <trkpt lat="43.11909" lon="1.58752">
        <ele>396</ele>
        <time>2012-09-23T08:33:09Z</time>
      </trkpt>
      <trkpt lat="43.1191" lon="1.58745">
        <ele>397</ele>
        <time>2012-09-23T08:33:11Z</time>
      </trkpt>
      <trkpt lat="43.11911" lon="1.58737">
        <ele>397</ele>
        <time>2012-09-23T08:33:13Z</time>
      </trkpt>
      <trkpt lat="43.11912" lon="1.5873">
        <ele>397</ele>
        <time>2012-09-23T08:33:15Z</time>
      </trkpt>
      <trkpt lat="43.11913" lon="1.58722">
        <ele>398</ele>
        <time>2012-09-23T08:33:17Z</time>
      </trkpt>
      <trkpt lat="43.11913" lon="1.58715">
        <ele>399</ele>
        <time>2012-09-23T08:33:19Z</time>
      </trkpt>
      <trkpt lat="43.11913" lon="1.58712">
        <ele>400</ele>
        <time>2012-09-23T08:33:22Z</time>
      </trkpt>
      <trkpt lat="43.11913" lon="1.58711">
        <ele>400</ele>
        <time>2012-09-23T08:33:24Z</time>
      </trkpt>
      <trkpt lat="43.11912" lon="1.58707">
        <ele>401</ele>
        <time>2012-09-23T08:33:26Z</time>
      </trkpt>
      <trkpt lat="43.11913" lon="1.58703">
        <ele>401</ele>
        <time>2012-09-23T08:33:28Z</time>
      </trkpt>
      <trkpt lat="43.11916" lon="1.58703">
        <ele>401</ele>
        <time>2012-09-23T08:33:31Z</time>
      </trkpt>
      <trkpt lat="43.11919" lon="1.58703">
        <ele>401</ele>
        <time>2012-09-23T08:33:33Z</time>
      </trkpt>
      <trkpt lat="43.11923" lon="1.58704">
        <ele>401</ele>
        <time>2012-09-23T08:33:35Z</time>
      </trkpt>
      <trkpt lat="43.11928" lon="1.58706">
        <ele>401</ele>
        <time>2012-09-23T08:33:37Z</time>
      </trkpt>
      <trkpt lat="43.11934" lon="1.58708">
        <ele>401</ele>
        <time>2012-09-23T08:33:39Z</time>
      </trkpt>
      <trkpt lat="43.1194" lon="1.58711">
        <ele>402</ele>
        <time>2012-09-23T08:33:41Z</time>
      </trkpt>
      <trkpt lat="43.11947" lon="1.58714">
        <ele>402</ele>
        <time>2012-09-23T08:33:43Z</time>
      </trkpt>
      <trkpt lat="43.11953" lon="1.58718">
        <ele>403</ele>
        <time>2012-09-23T08:33:45Z</time>
      </trkpt>
      <trkpt lat="43.1196" lon="1.58723">
        <ele>403</ele>
        <time>2012-09-23T08:33:47Z</time>
      </trkpt>
      <trkpt lat="43.11967" lon="1.5873">
        <ele>403</ele>
        <time>2012-09-23T08:33:49Z</time>
      </trkpt>
      <trkpt lat="43.11974" lon="1.58737">
        <ele>403</ele>
        <time>2012-09-23T08:33:51Z</time>
      </trkpt>
      <trkpt lat="43.1198" lon="1.58747">
        <ele>403</ele>
        <time>2012-09-23T08:33:53Z</time>
      </trkpt>
      <trkpt lat="43.11986" lon="1.58756">
        <ele>403</ele>
        <time>2012-09-23T08:33:55Z</time>
      </trkpt>
      <trkpt lat="43.11992" lon="1.58766">
        <ele>403</ele>
        <time>2012-09-23T08:33:57Z</time>
      </trkpt>
      <trkpt lat="43.11999" lon="1.58775">
        <ele>403</ele>
        <time>2012-09-23T08:33:59Z</time>
      </trkpt>
      <trkpt lat="43.12008" lon="1.58784">
        <ele>403</ele>
        <time>2012-09-23T08:34:01Z</time>
      </trkpt>
      <trkpt lat="43.12018" lon="1.58789">
        <ele>403</ele>
        <time>2012-09-23T08:34:03Z</time>
      </trkpt>
      <trkpt lat="43.12028" lon="1.58789">
        <ele>404</ele>
        <time>2012-09-23T08:34:05Z</time>
      </trkpt>
      <trkpt lat="43.12038" lon="1.58786">
        <ele>404</ele>
        <time>2012-09-23T08:34:07Z</time>
      </trkpt>
      <trkpt lat="43.12048" lon="1.58781">
        <ele>405</ele>
        <time>2012-09-23T08:34:09Z</time>
      </trkpt>
      <trkpt lat="43.12056" lon="1.58772">
        <ele>406</ele>
        <time>2012-09-23T08:34:11Z</time>
      </trkpt>
      <trkpt lat="43.12063" lon="1.58763">
        <ele>407</ele>
        <time>2012-09-23T08:34:13Z</time>
      </trkpt>
      <trkpt lat="43.12071" lon="1.58755">
        <ele>407</ele>
        <time>2012-09-23T08:34:15Z</time>
      </trkpt>
      <trkpt lat="43.12078" lon="1.58747">
        <ele>408</ele>
        <time>2012-09-23T08:34:17Z</time>
      </trkpt>
      <trkpt lat="43.12086" lon="1.5874">
        <ele>409</ele>
        <time>2012-09-23T08:34:19Z</time>
      </trkpt>
      <trkpt lat="43.12094" lon="1.58736">
        <ele>409</ele>
        <time>2012-09-23T08:34:21Z</time>
      </trkpt>
      <trkpt lat="43.1211" lon="1.58737">
        <ele>410</ele>
        <time>2012-09-23T08:34:23Z</time>
      </trkpt>
      <trkpt lat="43.12122" lon="1.58738">
        <ele>410</ele>
        <time>2012-09-23T08:34:26Z</time>
      </trkpt>
      <trkpt lat="43.12139" lon="1.58741">
        <ele>410</ele>
        <time>2012-09-23T08:34:28Z</time>
      </trkpt>
      <trkpt lat="43.12151" lon="1.58745">
        <ele>410</ele>
        <time>2012-09-23T08:34:31Z</time>
      </trkpt>
      <trkpt lat="43.12166" lon="1.58752">
        <ele>410</ele>
        <time>2012-09-23T08:34:33Z</time>
      </trkpt>
      <trkpt lat="43.12188" lon="1.58756">
        <ele>410</ele>
        <time>2012-09-23T08:34:36Z</time>
      </trkpt>
      <trkpt lat="43.12202" lon="1.58751">
        <ele>410</ele>
        <time>2012-09-23T08:34:38Z</time>
      </trkpt>
      <trkpt lat="43.12214" lon="1.58743">
        <ele>410</ele>
        <time>2012-09-23T08:34:40Z</time>
      </trkpt>
      <trkpt lat="43.12226" lon="1.58736">
        <ele>410</ele>
        <time>2012-09-23T08:34:42Z</time>
      </trkpt>
      <trkpt lat="43.12246" lon="1.58729">
        <ele>410</ele>
        <time>2012-09-23T08:34:44Z</time>
      </trkpt>
      <trkpt lat="43.1226" lon="1.58728">
        <ele>410</ele>
        <time>2012-09-23T08:34:47Z</time>
      </trkpt>
      <trkpt lat="43.12274" lon="1.5873">
        <ele>410</ele>
        <time>2012-09-23T08:34:49Z</time>
      </trkpt>
      <trkpt lat="43.12287" lon="1.58734">
        <ele>410</ele>
        <time>2012-09-23T08:34:51Z</time>
      </trkpt>
      <trkpt lat="43.123" lon="1.58736">
        <ele>410</ele>
        <time>2012-09-23T08:34:53Z</time>
      </trkpt>
      <trkpt lat="43.12313" lon="1.58734">
        <ele>410</ele>
        <time>2012-09-23T08:34:55Z</time>
      </trkpt>
      <trkpt lat="43.12326" lon="1.58725">
        <ele>410</ele>
        <time>2012-09-23T08:34:57Z</time>
      </trkpt>
      <trkpt lat="43.12344" lon="1.58709">
        <ele>410</ele>
        <time>2012-09-23T08:35:00Z</time>
      </trkpt>
      <trkpt lat="43.12357" lon="1.58699">
        <ele>410</ele>
        <time>2012-09-23T08:35:02Z</time>
      </trkpt>
      <trkpt lat="43.12383" lon="1.58691">
        <ele>410</ele>
        <time>2012-09-23T08:35:05Z</time>
      </trkpt>
      <trkpt lat="43.12414" lon="1.58689">
        <ele>409</ele>
        <time>2012-09-23T08:35:07Z</time>
      </trkpt>
      <trkpt lat="43.12434" lon="1.58689">
        <ele>408</ele>
        <time>2012-09-23T08:35:10Z</time>
      </trkpt>
      <trkpt lat="43.12455" lon="1.58687">
        <ele>408</ele>
        <time>2012-09-23T08:35:12Z</time>
      </trkpt>
      <trkpt lat="43.12474" lon="1.58681">
        <ele>407</ele>
        <time>2012-09-23T08:35:14Z</time>
      </trkpt>
      <trkpt lat="43.12501" lon="1.58667">
        <ele>406</ele>
        <time>2012-09-23T08:35:17Z</time>
      </trkpt>
      <trkpt lat="43.12518" lon="1.58654">
        <ele>406</ele>
        <time>2012-09-23T08:35:19Z</time>
      </trkpt>
      <trkpt lat="43.12531" lon="1.58638">
        <ele>405</ele>
        <time>2012-09-23T08:35:21Z</time>
      </trkpt>
      <trkpt lat="43.12543" lon="1.58621">
        <ele>404</ele>
        <time>2012-09-23T08:35:23Z</time>
      </trkpt>
      <trkpt lat="43.12558" lon="1.58596">
        <ele>403</ele>
        <time>2012-09-23T08:35:26Z</time>
      </trkpt>
      <trkpt lat="43.12575" lon="1.58578">
        <ele>403</ele>
        <time>2012-09-23T08:35:29Z</time>
      </trkpt>
      <trkpt lat="43.12593" lon="1.58566">
        <ele>403</ele>
        <time>2012-09-23T08:35:31Z</time>
      </trkpt>
      <trkpt lat="43.12605" lon="1.58562">
        <ele>403</ele>
        <time>2012-09-23T08:35:34Z</time>
      </trkpt>
      <trkpt lat="43.12619" lon="1.58556">
        <ele>403</ele>
        <time>2012-09-23T08:35:36Z</time>
      </trkpt>
      <trkpt lat="43.12629" lon="1.58551">
        <ele>403</ele>
        <time>2012-09-23T08:35:39Z</time>
      </trkpt>
      <trkpt lat="43.12638" lon="1.58543">
        <ele>403</ele>
        <time>2012-09-23T08:35:41Z</time>
      </trkpt>
      <trkpt lat="43.12645" lon="1.58533">
        <ele>403</ele>
        <time>2012-09-23T08:35:43Z</time>
      </trkpt>
      <trkpt lat="43.12652" lon="1.58519">
        <ele>403</ele>
        <time>2012-09-23T08:35:45Z</time>
      </trkpt>
      <trkpt lat="43.12657" lon="1.58503">
        <ele>403</ele>
        <time>2012-09-23T08:35:47Z</time>
      </trkpt>
      <trkpt lat="43.1266" lon="1.58485">
        <ele>403</ele>
        <time>2012-09-23T08:35:49Z</time>
      </trkpt>
      <trkpt lat="43.12661" lon="1.58468">
        <ele>403</ele>
        <time>2012-09-23T08:35:51Z</time>
      </trkpt>
      <trkpt lat="43.12664" lon="1.58445">
        <ele>403</ele>
        <time>2012-09-23T08:35:53Z</time>
      </trkpt>
      <trkpt lat="43.12667" lon="1.58429">
        <ele>403</ele>
        <time>2012-09-23T08:35:56Z</time>
      </trkpt>
      <trkpt lat="43.1267" lon="1.58413">
        <ele>403</ele>
        <time>2012-09-23T08:35:58Z</time>
      </trkpt>
      <trkpt lat="43.12672" lon="1.58395">
        <ele>403</ele>
        <time>2012-09-23T08:36:00Z</time>
      </trkpt>
      <trkpt lat="43.12673" lon="1.58376">
        <ele>402</ele>
        <time>2012-09-23T08:36:02Z</time>
      </trkpt>
      <trkpt lat="43.12673" lon="1.58355">
        <ele>401</ele>
        <time>2012-09-23T08:36:04Z</time>
      </trkpt>
      <trkpt lat="43.12673" lon="1.58321">
        <ele>401</ele>
        <time>2012-09-23T08:36:07Z</time>
      </trkpt>
      <trkpt lat="43.12672" lon="1.58279">
        <ele>401</ele>
        <time>2012-09-23T08:36:10Z</time>
      </trkpt>
      <trkpt lat="43.12676" lon="1.58234">
        <ele>398</ele>
        <time>2012-09-23T08:36:12Z</time>
      </trkpt>
      <trkpt lat="43.12685" lon="1.58206">
        <ele>397</ele>
        <time>2012-09-23T08:36:14Z</time>
      </trkpt>
      <trkpt lat="43.12696" lon="1.58182">
        <ele>396</ele>
        <time>2012-09-23T08:36:16Z</time>
      </trkpt>
      <trkpt lat="43.1271" lon="1.58159">
        <ele>395</ele>
        <time>2012-09-23T08:36:18Z</time>
      </trkpt>
      <trkpt lat="43.12724" lon="1.58137">
        <ele>395</ele>
        <time>2012-09-23T08:36:20Z</time>
      </trkpt>
      <trkpt lat="43.12739" lon="1.58117">
        <ele>394</ele>
        <time>2012-09-23T08:36:22Z</time>
      </trkpt>
      <trkpt lat="43.12753" lon="1.58099">
        <ele>394</ele>
        <time>2012-09-23T08:36:25Z</time>
      </trkpt>
      <trkpt lat="43.12769" lon="1.58081">
        <ele>393</ele>
        <time>2012-09-23T08:36:27Z</time>
      </trkpt>
      <trkpt lat="43.12795" lon="1.58057">
        <ele>392</ele>
        <time>2012-09-23T08:36:29Z</time>
      </trkpt>
      <trkpt lat="43.12814" lon="1.58042">
        <ele>390</ele>
        <time>2012-09-23T08:36:31Z</time>
      </trkpt>
      <trkpt lat="43.12831" lon="1.58026">
        <ele>390</ele>
        <time>2012-09-23T08:36:33Z</time>
      </trkpt>
      <trkpt lat="43.12849" lon="1.58013">
        <ele>389</ele>
        <time>2012-09-23T08:36:35Z</time>
      </trkpt>
      <trkpt lat="43.12867" lon="1.58004">
        <ele>389</ele>
        <time>2012-09-23T08:36:37Z</time>
      </trkpt>
      <trkpt lat="43.12882" lon="1.57998">
        <ele>389</ele>
        <time>2012-09-23T08:36:39Z</time>
      </trkpt>
      <trkpt lat="43.12894" lon="1.57989">
        <ele>389</ele>
        <time>2012-09-23T08:36:41Z</time>
      </trkpt>
      <trkpt lat="43.12904" lon="1.57978">
        <ele>389</ele>
        <time>2012-09-23T08:36:44Z</time>
      </trkpt>
      <trkpt lat="43.12915" lon="1.57964">
        <ele>389</ele>
        <time>2012-09-23T08:36:46Z</time>
      </trkpt>
      <trkpt lat="43.12923" lon="1.57956">
        <ele>390</ele>
        <time>2012-09-23T08:36:49Z</time>
      </trkpt>
      <trkpt lat="43.12931" lon="1.57949">
        <ele>391</ele>
        <time>2012-09-23T08:36:51Z</time>
      </trkpt>
      <trkpt lat="43.12941" lon="1.57947">
        <ele>392</ele>
        <time>2012-09-23T08:36:53Z</time>
      </trkpt>
      <trkpt lat="43.1295" lon="1.57947">
        <ele>393</ele>
        <time>2012-09-23T08:36:55Z</time>
      </trkpt>
      <trkpt lat="43.1296" lon="1.57949">
        <ele>393</ele>
        <time>2012-09-23T08:36:57Z</time>
      </trkpt>
      <trkpt lat="43.12969" lon="1.57953">
        <ele>394</ele>
        <time>2012-09-23T08:36:59Z</time>
      </trkpt>
      <trkpt lat="43.12975" lon="1.57963">
        <ele>394</ele>
        <time>2012-09-23T08:37:01Z</time>
      </trkpt>
      <trkpt lat="43.12978" lon="1.57975">
        <ele>395</ele>
        <time>2012-09-23T08:37:03Z</time>
      </trkpt>
      <trkpt lat="43.12983" lon="1.57996">
        <ele>395</ele>
        <time>2012-09-23T08:37:05Z</time>
      </trkpt>
      <trkpt lat="43.12985" lon="1.58012">
        <ele>396</ele>
        <time>2012-09-23T08:37:08Z</time>
      </trkpt>
      <trkpt lat="43.12988" lon="1.58028">
        <ele>396</ele>
        <time>2012-09-23T08:37:10Z</time>
      </trkpt>
      <trkpt lat="43.12991" lon="1.58043">
        <ele>396</ele>
        <time>2012-09-23T08:37:12Z</time>
      </trkpt>
      <trkpt lat="43.12996" lon="1.58058">
        <ele>396</ele>
        <time>2012-09-23T08:37:14Z</time>
      </trkpt>
      <trkpt lat="43.13002" lon="1.58072">
        <ele>396</ele>
        <time>2012-09-23T08:37:16Z</time>
      </trkpt>
      <trkpt lat="43.13009" lon="1.58085">
        <ele>396</ele>
        <time>2012-09-23T08:37:18Z</time>
      </trkpt>
      <trkpt lat="43.13019" lon="1.58096">
        <ele>396</ele>
        <time>2012-09-23T08:37:20Z</time>
      </trkpt>
      <trkpt lat="43.13029" lon="1.58106">
        <ele>396</ele>
        <time>2012-09-23T08:37:22Z</time>
      </trkpt>
      <trkpt lat="43.13043" lon="1.58121">
        <ele>397</ele>
        <time>2012-09-23T08:37:25Z</time>
      </trkpt>
      <trkpt lat="43.1306" lon="1.58139">
        <ele>397</ele>
        <time>2012-09-23T08:37:28Z</time>
      </trkpt>
      <trkpt lat="43.13071" lon="1.58152">
        <ele>397</ele>
        <time>2012-09-23T08:37:30Z</time>
      </trkpt>
      <trkpt lat="43.13091" lon="1.58172">
        <ele>397</ele>
        <time>2012-09-23T08:37:33Z</time>
      </trkpt>
      <trkpt lat="43.13104" lon="1.58182">
        <ele>397</ele>
        <time>2012-09-23T08:37:35Z</time>
      </trkpt>
      <trkpt lat="43.13117" lon="1.58192">
        <ele>397</ele>
        <time>2012-09-23T08:37:37Z</time>
      </trkpt>
      <trkpt lat="43.13129" lon="1.58201">
        <ele>397</ele>
        <time>2012-09-23T08:37:39Z</time>
      </trkpt>
      <trkpt lat="43.13142" lon="1.58211">
        <ele>397</ele>
        <time>2012-09-23T08:37:41Z</time>
      </trkpt>
      <trkpt lat="43.13155" lon="1.5822">
        <ele>397</ele>
        <time>2012-09-23T08:37:43Z</time>
      </trkpt>
      <trkpt lat="43.13168" lon="1.58231">
        <ele>397</ele>
        <time>2012-09-23T08:37:45Z</time>
      </trkpt>
      <trkpt lat="43.13182" lon="1.58242">
        <ele>397</ele>
        <time>2012-09-23T08:37:47Z</time>
      </trkpt>
      <trkpt lat="43.13195" lon="1.58255">
        <ele>397</ele>
        <time>2012-09-23T08:37:49Z</time>
      </trkpt>
      <trkpt lat="43.13207" lon="1.58267">
        <ele>397</ele>
        <time>2012-09-23T08:37:51Z</time>
      </trkpt>
      <trkpt lat="43.13218" lon="1.58278">
        <ele>397</ele>
        <time>2012-09-23T08:37:53Z</time>
      </trkpt>
      <trkpt lat="43.13229" lon="1.5829">
        <ele>397</ele>
        <time>2012-09-23T08:37:55Z</time>
      </trkpt>
      <trkpt lat="43.13238" lon="1.58304">
        <ele>397</ele>
        <time>2012-09-23T08:37:57Z</time>
      </trkpt>
      <trkpt lat="43.13246" lon="1.5832">
        <ele>397</ele>
        <time>2012-09-23T08:37:59Z</time>
      </trkpt>
      <trkpt lat="43.13255" lon="1.58334">
        <ele>397</ele>
        <time>2012-09-23T08:38:01Z</time>
      </trkpt>
      <trkpt lat="43.13273" lon="1.58349">
        <ele>397</ele>
        <time>2012-09-23T08:38:04Z</time>
      </trkpt>
      <trkpt lat="43.13295" lon="1.58362">
        <ele>397</ele>
        <time>2012-09-23T08:38:07Z</time>
      </trkpt>
      <trkpt lat="43.13322" lon="1.58379">
        <ele>394</ele>
        <time>2012-09-23T08:38:10Z</time>
      </trkpt>
      <trkpt lat="43.1335" lon="1.58399">
        <ele>392</ele>
        <time>2012-09-23T08:38:12Z</time>
      </trkpt>
      <trkpt lat="43.13368" lon="1.58413">
        <ele>391</ele>
        <time>2012-09-23T08:38:14Z</time>
      </trkpt>
      <trkpt lat="43.13386" lon="1.58424">
        <ele>391</ele>
        <time>2012-09-23T08:38:17Z</time>
      </trkpt>
      <trkpt lat="43.13411" lon="1.58437">
        <ele>391</ele>
        <time>2012-09-23T08:38:19Z</time>
      </trkpt>
      <trkpt lat="43.13425" lon="1.58445">
        <ele>391</ele>
        <time>2012-09-23T08:38:21Z</time>
      </trkpt>
      <trkpt lat="43.13435" lon="1.58454">
        <ele>391</ele>
        <time>2012-09-23T08:38:24Z</time>
      </trkpt>
      <trkpt lat="43.13449" lon="1.58471">
        <ele>391</ele>
        <time>2012-09-23T08:38:26Z</time>
      </trkpt>
      <trkpt lat="43.13462" lon="1.5848">
        <ele>391</ele>
        <time>2012-09-23T08:38:29Z</time>
      </trkpt>
      <trkpt lat="43.13479" lon="1.58482">
        <ele>391</ele>
        <time>2012-09-23T08:38:31Z</time>
      </trkpt>
      <trkpt lat="43.13494" lon="1.58472">
        <ele>390</ele>
        <time>2012-09-23T08:38:33Z</time>
      </trkpt>
      <trkpt lat="43.13504" lon="1.58457">
        <ele>389</ele>
        <time>2012-09-23T08:38:35Z</time>
      </trkpt>
      <trkpt lat="43.13511" lon="1.58439">
        <ele>388</ele>
        <time>2012-09-23T08:38:37Z</time>
      </trkpt>
      <trkpt lat="43.13517" lon="1.58423">
        <ele>387</ele>
        <time>2012-09-23T08:38:39Z</time>
      </trkpt>
      <trkpt lat="43.13521" lon="1.58421">
        <ele>386</ele>
        <time>2012-09-23T08:38:41Z</time>
      </trkpt>
      <trkpt lat="43.13521" lon="1.58425">
        <ele>385</ele>
        <time>2012-09-23T08:38:43Z</time>
      </trkpt>
      <trkpt lat="43.1352" lon="1.58427">
        <ele>385</ele>
        <time>2012-09-23T08:38:47Z</time>
      </trkpt>
      <trkpt lat="43.13519" lon="1.58425">
        <ele>385</ele>
        <time>2012-09-23T08:38:49Z</time>
      </trkpt>
      <trkpt lat="43.13518" lon="1.58424">
        <ele>385</ele>
        <time>2012-09-23T08:39:01Z</time>
      </trkpt>
      <trkpt lat="43.13518" lon="1.58426">
        <ele>385</ele>
        <time>2012-09-23T08:39:05Z</time>
      </trkpt>
      <trkpt lat="43.13517" lon="1.58427">
        <ele>385</ele>
        <time>2012-09-23T08:39:13Z</time>
      </trkpt>
      <trkpt lat="43.13518" lon="1.58428">
        <ele>385</ele>
        <time>2012-09-23T08:39:18Z</time>
      </trkpt>
      <trkpt lat="43.13519" lon="1.58429">
        <ele>385</ele>
        <time>2012-09-23T08:39:20Z</time>
      </trkpt>
      <trkpt lat="43.1352" lon="1.58431">
        <ele>385</ele>
        <time>2012-09-23T08:39:27Z</time>
      </trkpt>
      <trkpt lat="43.13519" lon="1.58438">
        <ele>385</ele>
        <time>2012-09-23T08:39:29Z</time>
      </trkpt>
      <trkpt lat="43.13519" lon="1.5845">
        <ele>385</ele>
        <time>2012-09-23T08:39:31Z</time>
      </trkpt>
      <trkpt lat="43.13522" lon="1.58467">
        <ele>385</ele>
        <time>2012-09-23T08:39:33Z</time>
      </trkpt>
      <trkpt lat="43.13528" lon="1.58488">
        <ele>385</ele>
        <time>2012-09-23T08:39:35Z</time>
      </trkpt>
      <trkpt lat="43.13538" lon="1.58508">
        <ele>383</ele>
        <time>2012-09-23T08:39:37Z</time>
      </trkpt>
      <trkpt lat="43.13557" lon="1.58532">
        <ele>380</ele>
        <time>2012-09-23T08:39:39Z</time>
      </trkpt>
      <trkpt lat="43.13573" lon="1.58544">
        <ele>378</ele>
        <time>2012-09-23T08:39:42Z</time>
      </trkpt>
      <trkpt lat="43.13602" lon="1.58553">
        <ele>375</ele>
        <time>2012-09-23T08:39:44Z</time>
      </trkpt>
      <trkpt lat="43.13624" lon="1.58559">
        <ele>373</ele>
        <time>2012-09-23T08:39:46Z</time>
      </trkpt>
      <trkpt lat="43.13647" lon="1.58566">
        <ele>371</ele>
        <time>2012-09-23T08:39:48Z</time>
      </trkpt>
      <trkpt lat="43.13669" lon="1.58574">
        <ele>367</ele>
        <time>2012-09-23T08:39:50Z</time>
      </trkpt>
      <trkpt lat="43.13691" lon="1.58582">
        <ele>365</ele>
        <time>2012-09-23T08:39:52Z</time>
      </trkpt>
      <trkpt lat="43.13713" lon="1.58589">
        <ele>363</ele>
        <time>2012-09-23T08:39:54Z</time>
      </trkpt>
      <trkpt lat="43.13731" lon="1.58592">
        <ele>361</ele>
        <time>2012-09-23T08:39:56Z</time>
      </trkpt>
      <trkpt lat="43.13749" lon="1.58591">
        <ele>359</ele>
        <time>2012-09-23T08:39:58Z</time>
      </trkpt>
      <trkpt lat="43.13765" lon="1.58585">
        <ele>357</ele>
        <time>2012-09-23T08:40:01Z</time>
      </trkpt>
      <trkpt lat="43.13791" lon="1.5858">
        <ele>354</ele>
        <time>2012-09-23T08:40:04Z</time>
      </trkpt>
      <trkpt lat="43.13817" lon="1.58583">
        <ele>351</ele>
        <time>2012-09-23T08:40:06Z</time>
      </trkpt>
      <trkpt lat="43.13836" lon="1.5859">
        <ele>351</ele>
        <time>2012-09-23T08:40:09Z</time>
      </trkpt>
      <trkpt lat="43.13854" lon="1.58594">
        <ele>351</ele>
        <time>2012-09-23T08:40:11Z</time>
      </trkpt>
      <trkpt lat="43.13879" lon="1.58597">
        <ele>350</ele>
        <time>2012-09-23T08:40:14Z</time>
      </trkpt>
      <trkpt lat="43.13903" lon="1.58598">
        <ele>350</ele>
        <time>2012-09-23T08:40:17Z</time>
      </trkpt>
      <trkpt lat="43.13921" lon="1.5859">
        <ele>350</ele>
        <time>2012-09-23T08:40:19Z</time>
      </trkpt>
      <trkpt lat="43.13948" lon="1.58572">
        <ele>349</ele>
        <time>2012-09-23T08:40:21Z</time>
      </trkpt>
      <trkpt lat="43.13967" lon="1.58562">
        <ele>348</ele>
        <time>2012-09-23T08:40:24Z</time>
      </trkpt>
      <trkpt lat="43.13995" lon="1.58545">
        <ele>346</ele>
        <time>2012-09-23T08:40:26Z</time>
      </trkpt>
      <trkpt lat="43.14014" lon="1.58538">
        <ele>344</ele>
        <time>2012-09-23T08:40:29Z</time>
      </trkpt>
      <trkpt lat="43.14046" lon="1.5854">
        <ele>341</ele>
        <time>2012-09-23T08:40:31Z</time>
      </trkpt>
      <trkpt lat="43.14066" lon="1.58542">
        <ele>339</ele>
        <time>2012-09-23T08:40:34Z</time>
      </trkpt>
      <trkpt lat="43.1408" lon="1.58536">
        <ele>336</ele>
        <time>2012-09-23T08:40:36Z</time>
      </trkpt>
      <trkpt lat="43.14077" lon="1.58534">
        <ele>334</ele>
        <time>2012-09-23T08:40:39Z</time>
      </trkpt>
      <trkpt lat="43.14075" lon="1.58518">
        <ele>333</ele>
        <time>2012-09-23T08:40:41Z</time>
      </trkpt>
      <trkpt lat="43.14071" lon="1.58507">
        <ele>332</ele>
        <time>2012-09-23T08:40:44Z</time>
      </trkpt>
      <trkpt lat="43.14064" lon="1.58485">
        <ele>330</ele>
        <time>2012-09-23T08:40:47Z</time>
      </trkpt>
      <trkpt lat="43.14062" lon="1.58468">
        <ele>328</ele>
        <time>2012-09-23T08:40:49Z</time>
      </trkpt>
      <trkpt lat="43.14061" lon="1.58442">
        <ele>325</ele>
        <time>2012-09-23T08:40:51Z</time>
      </trkpt>
      <trkpt lat="43.1406" lon="1.58421">
        <ele>323</ele>
        <time>2012-09-23T08:40:54Z</time>
      </trkpt>
      <trkpt lat="43.14064" lon="1.58382">
        <ele>323</ele>
        <time>2012-09-23T08:40:56Z</time>
      </trkpt>
      <trkpt lat="43.14068" lon="1.58357">
        <ele>323</ele>
        <time>2012-09-23T08:40:59Z</time>
      </trkpt>
      <trkpt lat="43.14074" lon="1.58325">
        <ele>323</ele>
        <time>2012-09-23T08:41:01Z</time>
      </trkpt>
      <trkpt lat="43.14078" lon="1.58306">
        <ele>323</ele>
        <time>2012-09-23T08:41:04Z</time>
      </trkpt>
      <trkpt lat="43.14082" lon="1.58279">
        <ele>324</ele>
        <time>2012-09-23T08:41:06Z</time>
      </trkpt>
      <trkpt lat="43.14084" lon="1.58259">
        <ele>324</ele>
        <time>2012-09-23T08:41:09Z</time>
      </trkpt>
      <trkpt lat="43.14089" lon="1.58227">
        <ele>325</ele>
        <time>2012-09-23T08:41:11Z</time>
      </trkpt>
      <trkpt lat="43.14093" lon="1.58201">
        <ele>325</ele>
        <time>2012-09-23T08:41:14Z</time>
      </trkpt>
      <trkpt lat="43.141" lon="1.58162">
        <ele>325</ele>
        <time>2012-09-23T08:41:16Z</time>
      </trkpt>
      <trkpt lat="43.14106" lon="1.58136">
        <ele>325</ele>
        <time>2012-09-23T08:41:19Z</time>
      </trkpt>
      <trkpt lat="43.1412" lon="1.58097">
        <ele>325</ele>
        <time>2012-09-23T08:41:21Z</time>
      </trkpt>
      <trkpt lat="43.14133" lon="1.58073">
        <ele>324</ele>
        <time>2012-09-23T08:41:23Z</time>
      </trkpt>
      <trkpt lat="43.14147" lon="1.58053">
        <ele>322</ele>
        <time>2012-09-23T08:41:25Z</time>
      </trkpt>
      <trkpt lat="43.14155" lon="1.58037">
        <ele>321</ele>
        <time>2012-09-23T08:41:27Z</time>
      </trkpt>
      <trkpt lat="43.14156" lon="1.58021">
        <ele>320</ele>
        <time>2012-09-23T08:41:29Z</time>
      </trkpt>
      <trkpt lat="43.14145" lon="1.58007">
        <ele>319</ele>
        <time>2012-09-23T08:41:31Z</time>
      </trkpt>
      <trkpt lat="43.14137" lon="1.57988">
        <ele>318</ele>
        <time>2012-09-23T08:41:34Z</time>
      </trkpt>
      <trkpt lat="43.14143" lon="1.57964">
        <ele>316</ele>
        <time>2012-09-23T08:41:36Z</time>
      </trkpt>
      <trkpt lat="43.14149" lon="1.57945">
        <ele>314</ele>
        <time>2012-09-23T08:41:39Z</time>
      </trkpt>
      <trkpt lat="43.14156" lon="1.57917">
        <ele>311</ele>
        <time>2012-09-23T08:41:41Z</time>
      </trkpt>
      <trkpt lat="43.14161" lon="1.57899">
        <ele>311</ele>
        <time>2012-09-23T08:41:44Z</time>
      </trkpt>
      <trkpt lat="43.14166" lon="1.57884">
        <ele>311</ele>
        <time>2012-09-23T08:41:46Z</time>
      </trkpt>
      <trkpt lat="43.1417" lon="1.57869">
        <ele>311</ele>
        <time>2012-09-23T08:41:48Z</time>
      </trkpt>
      <trkpt lat="43.14174" lon="1.57852">
        <ele>311</ele>
        <time>2012-09-23T08:41:50Z</time>
      </trkpt>
      <trkpt lat="43.14178" lon="1.57836">
        <ele>311</ele>
        <time>2012-09-23T08:41:52Z</time>
      </trkpt>
      <trkpt lat="43.14185" lon="1.5782">
        <ele>311</ele>
        <time>2012-09-23T08:41:54Z</time>
      </trkpt>
      <trkpt lat="43.14188" lon="1.57802">
        <ele>311</ele>
        <time>2012-09-23T08:41:56Z</time>
      </trkpt>
      <trkpt lat="43.14188" lon="1.57782">
        <ele>311</ele>
        <time>2012-09-23T08:41:58Z</time>
      </trkpt>
      <trkpt lat="43.1419" lon="1.57767">
        <ele>309</ele>
        <time>2012-09-23T08:42:00Z</time>
      </trkpt>
      <trkpt lat="43.14194" lon="1.57762">
        <ele>309</ele>
        <time>2012-09-23T08:42:02Z</time>
      </trkpt>
      <trkpt lat="43.142" lon="1.57759">
        <ele>308</ele>
        <time>2012-09-23T08:42:04Z</time>
      </trkpt>
      <trkpt lat="43.14203" lon="1.57758">
        <ele>308</ele>
        <time>2012-09-23T08:42:06Z</time>
      </trkpt>
      <trkpt lat="43.14202" lon="1.57758">
        <ele>307</ele>
        <time>2012-09-23T08:42:08Z</time>
      </trkpt>
      <trkpt lat="43.142" lon="1.57761">
        <ele>307</ele>
        <time>2012-09-23T08:42:10Z</time>
      </trkpt>
      <trkpt lat="43.14196" lon="1.57764">
        <ele>307</ele>
        <time>2012-09-23T08:42:12Z</time>
      </trkpt>
      <trkpt lat="43.14191" lon="1.57765">
        <ele>307</ele>
        <time>2012-09-23T08:42:14Z</time>
      </trkpt>
      <trkpt lat="43.14186" lon="1.57761">
        <ele>307</ele>
        <time>2012-09-23T08:42:16Z</time>
      </trkpt>
      <trkpt lat="43.14182" lon="1.5775">
        <ele>307</ele>
        <time>2012-09-23T08:42:18Z</time>
      </trkpt>
      <trkpt lat="43.14177" lon="1.57735">
        <ele>306</ele>
        <time>2012-09-23T08:42:20Z</time>
      </trkpt>
      <trkpt lat="43.1417" lon="1.5772">
        <ele>305</ele>
        <time>2012-09-23T08:42:22Z</time>
      </trkpt>
      <trkpt lat="43.14164" lon="1.57705">
        <ele>303</ele>
        <time>2012-09-23T08:42:24Z</time>
      </trkpt>
      <trkpt lat="43.1416" lon="1.57688">
        <ele>301</ele>
        <time>2012-09-23T08:42:26Z</time>
      </trkpt>
      <trkpt lat="43.14158" lon="1.57667">
        <ele>299</ele>
        <time>2012-09-23T08:42:28Z</time>
      </trkpt>
      <trkpt lat="43.14158" lon="1.57647">
        <ele>297</ele>
        <time>2012-09-23T08:42:30Z</time>
      </trkpt>
      <trkpt lat="43.1416" lon="1.57627">
        <ele>293</ele>
        <time>2012-09-23T08:42:32Z</time>
      </trkpt>
      <trkpt lat="43.14167" lon="1.57611">
        <ele>289</ele>
        <time>2012-09-23T08:42:34Z</time>
      </trkpt>
      <trkpt lat="43.1418" lon="1.57594">
        <ele>286</ele>
        <time>2012-09-23T08:42:36Z</time>
      </trkpt>
      <trkpt lat="43.14193" lon="1.57574">
        <ele>282</ele>
        <time>2012-09-23T08:42:38Z</time>
      </trkpt>
      <trkpt lat="43.14203" lon="1.57553">
        <ele>279</ele>
        <time>2012-09-23T08:42:40Z</time>
      </trkpt>
      <trkpt lat="43.14215" lon="1.57533">
        <ele>276</ele>
        <time>2012-09-23T08:42:42Z</time>
      </trkpt>
      <trkpt lat="43.14227" lon="1.57516">
        <ele>274</ele>
        <time>2012-09-23T08:42:44Z</time>
      </trkpt>
      <trkpt lat="43.14239" lon="1.575">
        <ele>272</ele>
        <time>2012-09-23T08:42:46Z</time>
      </trkpt>
      <trkpt lat="43.14251" lon="1.57484">
        <ele>270</ele>
        <time>2012-09-23T08:42:48Z</time>
      </trkpt>
      <trkpt lat="43.14261" lon="1.57464">
        <ele>270</ele>
        <time>2012-09-23T08:42:50Z</time>
      </trkpt>
      <trkpt lat="43.14268" lon="1.57444">
        <ele>269</ele>
        <time>2012-09-23T08:42:52Z</time>
      </trkpt>
      <trkpt lat="43.14274" lon="1.57422">
        <ele>269</ele>
        <time>2012-09-23T08:42:54Z</time>
      </trkpt>
      <trkpt lat="43.14279" lon="1.57402">
        <ele>268</ele>
        <time>2012-09-23T08:42:56Z</time>
      </trkpt>
      <trkpt lat="43.14288" lon="1.57384">
        <ele>267</ele>
        <time>2012-09-23T08:42:58Z</time>
      </trkpt>
      <trkpt lat="43.143" lon="1.57367">
        <ele>266</ele>
        <time>2012-09-23T08:43:00Z</time>
      </trkpt>
      <trkpt lat="43.14315" lon="1.57358">
        <ele>266</ele>
        <time>2012-09-23T08:43:02Z</time>
      </trkpt>
      <trkpt lat="43.1433" lon="1.57361">
        <ele>266</ele>
        <time>2012-09-23T08:43:04Z</time>
      </trkpt>
      <trkpt lat="43.14342" lon="1.5737">
        <ele>266</ele>
        <time>2012-09-23T08:43:06Z</time>
      </trkpt>
      <trkpt lat="43.14352" lon="1.57382">
        <ele>266</ele>
        <time>2012-09-23T08:43:08Z</time>
      </trkpt>
      <trkpt lat="43.1436" lon="1.57397">
        <ele>266</ele>
        <time>2012-09-23T08:43:10Z</time>
      </trkpt>
      <trkpt lat="43.14368" lon="1.57411">
        <ele>266</ele>
        <time>2012-09-23T08:43:12Z</time>
      </trkpt>
      <trkpt lat="43.14377" lon="1.57423">
        <ele>266</ele>
        <time>2012-09-23T08:43:14Z</time>
      </trkpt>
      <trkpt lat="43.14386" lon="1.57433">
        <ele>266</ele>
        <time>2012-09-23T08:43:16Z</time>
      </trkpt>
      <trkpt lat="43.14391" lon="1.5744">
        <ele>266</ele>
        <time>2012-09-23T08:43:18Z</time>
      </trkpt>
      <trkpt lat="43.14397" lon="1.57441">
        <ele>266</ele>
        <time>2012-09-23T08:43:20Z</time>
      </trkpt>
      <trkpt lat="43.14401" lon="1.57437">
        <ele>266</ele>
        <time>2012-09-23T08:43:22Z</time>
      </trkpt>
      <trkpt lat="43.144" lon="1.57431">
        <ele>264</ele>
        <time>2012-09-23T08:43:24Z</time>
      </trkpt>
      <trkpt lat="43.14396" lon="1.57427">
        <ele>262</ele>
        <time>2012-09-23T08:43:26Z</time>
      </trkpt>
      <trkpt lat="43.14394" lon="1.57423">
        <ele>260</ele>
        <time>2012-09-23T08:43:28Z</time>
      </trkpt>
      <trkpt lat="43.14394" lon="1.57421">
        <ele>259</ele>
        <time>2012-09-23T08:43:30Z</time>
      </trkpt>
      <trkpt lat="43.14393" lon="1.57418">
        <ele>257</ele>
        <time>2012-09-23T08:43:32Z</time>
      </trkpt>
      <trkpt lat="43.14393" lon="1.57415">
        <ele>256</ele>
        <time>2012-09-23T08:43:34Z</time>
      </trkpt>
      <trkpt lat="43.14392" lon="1.57412">
        <ele>254</ele>
        <time>2012-09-23T08:43:36Z</time>
      </trkpt>
      <trkpt lat="43.1439" lon="1.57408">
        <ele>252</ele>
        <time>2012-09-23T08:43:39Z</time>
      </trkpt>
      <trkpt lat="43.14391" lon="1.57404">
        <ele>252</ele>
        <time>2012-09-23T08:43:41Z</time>
      </trkpt>
      <trkpt lat="43.14389" lon="1.574">
        <ele>252</ele>
        <time>2012-09-23T08:43:44Z</time>
      </trkpt>
      <trkpt lat="43.14389" lon="1.57399">
        <ele>252</ele>
        <time>2012-09-23T08:43:46Z</time>
      </trkpt>
      <trkpt lat="43.14387" lon="1.57396">
        <ele>252</ele>
        <time>2012-09-23T08:43:48Z</time>
      </trkpt>
      <trkpt lat="43.14387" lon="1.57389">
        <ele>252</ele>
        <time>2012-09-23T08:43:50Z</time>
      </trkpt>
      <trkpt lat="43.14388" lon="1.57384">
        <ele>252</ele>
        <time>2012-09-23T08:43:52Z</time>
      </trkpt>
      <trkpt lat="43.14387" lon="1.5738">
        <ele>252</ele>
        <time>2012-09-23T08:43:54Z</time>
      </trkpt>
      <trkpt lat="43.14386" lon="1.57376">
        <ele>252</ele>
        <time>2012-09-23T08:43:56Z</time>
      </trkpt>
      <trkpt lat="43.14383" lon="1.57371">
        <ele>252</ele>
        <time>2012-09-23T08:43:58Z</time>
      </trkpt>
      <trkpt lat="43.14381" lon="1.57366">
        <ele>253</ele>
        <time>2012-09-23T08:44:00Z</time>
      </trkpt>
      <trkpt lat="43.14379" lon="1.57362">
        <ele>253</ele>
        <time>2012-09-23T08:44:02Z</time>
      </trkpt>
      <trkpt lat="43.14378" lon="1.57358">
        <ele>254</ele>
        <time>2012-09-23T08:44:04Z</time>
      </trkpt>
      <trkpt lat="43.14376" lon="1.57353">
        <ele>254</ele>
        <time>2012-09-23T08:44:06Z</time>
      </trkpt>
      <trkpt lat="43.14374" lon="1.5735">
        <ele>254</ele>
        <time>2012-09-23T08:44:08Z</time>
      </trkpt>
      <trkpt lat="43.14372" lon="1.57345">
        <ele>256</ele>
        <time>2012-09-23T08:44:10Z</time>
      </trkpt>
      <trkpt lat="43.14371" lon="1.57341">
        <ele>257</ele>
        <time>2012-09-23T08:44:12Z</time>
      </trkpt>
      <trkpt lat="43.1437" lon="1.57336">
        <ele>257</ele>
        <time>2012-09-23T08:44:14Z</time>
      </trkpt>
      <trkpt lat="43.14371" lon="1.57331">
        <ele>257</ele>
        <time>2012-09-23T08:44:16Z</time>
      </trkpt>
      <trkpt lat="43.14372" lon="1.57325">
        <ele>257</ele>
        <time>2012-09-23T08:44:18Z</time>
      </trkpt>
      <trkpt lat="43.14373" lon="1.57319">
        <ele>257</ele>
        <time>2012-09-23T08:44:20Z</time>
      </trkpt>
      <trkpt lat="43.14373" lon="1.57311">
        <ele>257</ele>
        <time>2012-09-23T08:44:22Z</time>
      </trkpt>
      <trkpt lat="43.14374" lon="1.57303">
        <ele>257</ele>
        <time>2012-09-23T08:44:24Z</time>
      </trkpt>
      <trkpt lat="43.14376" lon="1.5729">
        <ele>257</ele>
        <time>2012-09-23T08:44:27Z</time>
      </trkpt>
      <trkpt lat="43.14377" lon="1.5728">
        <ele>257</ele>
        <time>2012-09-23T08:44:29Z</time>
      </trkpt>
      <trkpt lat="43.14378" lon="1.5727">
        <ele>257</ele>
        <time>2012-09-23T08:44:31Z</time>
      </trkpt>
      <trkpt lat="43.1438" lon="1.5726">
        <ele>256</ele>
        <time>2012-09-23T08:44:33Z</time>
      </trkpt>
      <trkpt lat="43.1438" lon="1.57252">
        <ele>256</ele>
        <time>2012-09-23T08:44:35Z</time>
      </trkpt>
      <trkpt lat="43.14381" lon="1.57241">
        <ele>256</ele>
        <time>2012-09-23T08:44:37Z</time>
      </trkpt>
      <trkpt lat="43.14381" lon="1.57231">
        <ele>256</ele>
        <time>2012-09-23T08:44:39Z</time>
      </trkpt>
      <trkpt lat="43.14383" lon="1.57221">
        <ele>256</ele>
        <time>2012-09-23T08:44:41Z</time>
      </trkpt>
      <trkpt lat="43.14387" lon="1.57219">
        <ele>256</ele>
        <time>2012-09-23T08:44:43Z</time>
      </trkpt>
      <trkpt lat="43.14391" lon="1.57223">
        <ele>256</ele>
        <time>2012-09-23T08:44:45Z</time>
      </trkpt>
      <trkpt lat="43.14394" lon="1.57227">
        <ele>256</ele>
        <time>2012-09-23T08:44:47Z</time>
      </trkpt>
      <trkpt lat="43.14397" lon="1.57231">
        <ele>256</ele>
        <time>2012-09-23T08:44:49Z</time>
      </trkpt>
      <trkpt lat="43.144" lon="1.57233">
        <ele>256</ele>
        <time>2012-09-23T08:44:52Z</time>
      </trkpt>
      <trkpt lat="43.14401" lon="1.57233">
        <ele>256</ele>
        <time>2012-09-23T08:44:58Z</time>
      </trkpt>
      <trkpt lat="43.14402" lon="1.57233">
        <ele>260</ele>
        <time>2012-09-23T08:45:13Z</time>
      </trkpt>
      <trkpt lat="43.14403" lon="1.57233">
        <ele>261</ele>
        <time>2012-09-23T08:45:15Z</time>
      </trkpt>
      <trkpt lat="43.14404" lon="1.57235">
        <ele>261</ele>
        <time>2012-09-23T08:45:17Z</time>
      </trkpt>
      <trkpt lat="43.14405" lon="1.57236">
        <ele>261</ele>
        <time>2012-09-23T08:45:19Z</time>
      </trkpt>
      <trkpt lat="43.14407" lon="1.57237">
        <ele>261</ele>
        <time>2012-09-23T08:45:21Z</time>
      </trkpt>
      <trkpt lat="43.14408" lon="1.57238">
        <ele>261</ele>
        <time>2012-09-23T08:45:24Z</time>
      </trkpt>
      <trkpt lat="43.1441" lon="1.5724">
        <ele>261</ele>
        <time>2012-09-23T08:45:26Z</time>
      </trkpt>
      <trkpt lat="43.14413" lon="1.57241">
        <ele>262</ele>
        <time>2012-09-23T08:45:29Z</time>
      </trkpt>
      <trkpt lat="43.14415" lon="1.57243">
        <ele>263</ele>
        <time>2012-09-23T08:45:31Z</time>
      </trkpt>
      <trkpt lat="43.14418" lon="1.57244">
        <ele>263</ele>
        <time>2012-09-23T08:45:33Z</time>
      </trkpt>
      <trkpt lat="43.14421" lon="1.57245">
        <ele>264</ele>
        <time>2012-09-23T08:45:36Z</time>
      </trkpt>
      <trkpt lat="43.14424" lon="1.57245">
        <ele>265</ele>
        <time>2012-09-23T08:45:38Z</time>
      </trkpt>
      <trkpt lat="43.14429" lon="1.57244">
        <ele>265</ele>
        <time>2012-09-23T08:45:40Z</time>
      </trkpt>
      <trkpt lat="43.14439" lon="1.57244">
        <ele>266</ele>
        <time>2012-09-23T08:45:42Z</time>
      </trkpt>
      <trkpt lat="43.14445" lon="1.57243">
        <ele>266</ele>
        <time>2012-09-23T08:45:45Z</time>
      </trkpt>
      <trkpt lat="43.1445" lon="1.57243">
        <ele>266</ele>
        <time>2012-09-23T08:45:47Z</time>
      </trkpt>
      <trkpt lat="43.14457" lon="1.57243">
        <ele>266</ele>
        <time>2012-09-23T08:45:49Z</time>
      </trkpt>
      <trkpt lat="43.14465" lon="1.57244">
        <ele>266</ele>
        <time>2012-09-23T08:45:51Z</time>
      </trkpt>
      <trkpt lat="43.14475" lon="1.57245">
        <ele>267</ele>
        <time>2012-09-23T08:45:53Z</time>
      </trkpt>
      <trkpt lat="43.14483" lon="1.57246">
        <ele>267</ele>
        <time>2012-09-23T08:45:56Z</time>
      </trkpt>
      <trkpt lat="43.14492" lon="1.57246">
        <ele>268</ele>
        <time>2012-09-23T08:45:58Z</time>
      </trkpt>
      <trkpt lat="43.14502" lon="1.57246">
        <ele>268</ele>
        <time>2012-09-23T08:46:00Z</time>
      </trkpt>
      <trkpt lat="43.14512" lon="1.57246">
        <ele>268</ele>
        <time>2012-09-23T08:46:02Z</time>
      </trkpt>
      <trkpt lat="43.14522" lon="1.57246">
        <ele>269</ele>
        <time>2012-09-23T08:46:04Z</time>
      </trkpt>
      <trkpt lat="43.14532" lon="1.57246">
        <ele>269</ele>
        <time>2012-09-23T08:46:06Z</time>
      </trkpt>
      <trkpt lat="43.1454" lon="1.57246">
        <ele>269</ele>
        <time>2012-09-23T08:46:08Z</time>
      </trkpt>
      <trkpt lat="43.1455" lon="1.57246">
        <ele>269</ele>
        <time>2012-09-23T08:46:10Z</time>
      </trkpt>
      <trkpt lat="43.14559" lon="1.57245">
        <ele>270</ele>
        <time>2012-09-23T08:46:12Z</time>
      </trkpt>
      <trkpt lat="43.14569" lon="1.57245">
        <ele>270</ele>
        <time>2012-09-23T08:46:14Z</time>
      </trkpt>
      <trkpt lat="43.1458" lon="1.57245">
        <ele>271</ele>
        <time>2012-09-23T08:46:16Z</time>
      </trkpt>
      <trkpt lat="43.14597" lon="1.57245">
        <ele>271</ele>
        <time>2012-09-23T08:46:18Z</time>
      </trkpt>
      <trkpt lat="43.14609" lon="1.57245">
        <ele>271</ele>
        <time>2012-09-23T08:46:20Z</time>
      </trkpt>
      <trkpt lat="43.14621" lon="1.57246">
        <ele>272</ele>
        <time>2012-09-23T08:46:23Z</time>
      </trkpt>
      <trkpt lat="43.14632" lon="1.57248">
        <ele>272</ele>
        <time>2012-09-23T08:46:25Z</time>
      </trkpt>
      <trkpt lat="43.14643" lon="1.57249">
        <ele>273</ele>
        <time>2012-09-23T08:46:27Z</time>
      </trkpt>
      <trkpt lat="43.14661" lon="1.57253">
        <ele>273</ele>
        <time>2012-09-23T08:46:29Z</time>
      </trkpt>
      <trkpt lat="43.14672" lon="1.57256">
        <ele>273</ele>
        <time>2012-09-23T08:46:31Z</time>
      </trkpt>
      <trkpt lat="43.14683" lon="1.57259">
        <ele>274</ele>
        <time>2012-09-23T08:46:33Z</time>
      </trkpt>
      <trkpt lat="43.14694" lon="1.57262">
        <ele>274</ele>
        <time>2012-09-23T08:46:36Z</time>
      </trkpt>
      <trkpt lat="43.14708" lon="1.57268">
        <ele>276</ele>
        <time>2012-09-23T08:46:38Z</time>
      </trkpt>
      <trkpt lat="43.14717" lon="1.57274">
        <ele>277</ele>
        <time>2012-09-23T08:46:41Z</time>
      </trkpt>
      <trkpt lat="43.14723" lon="1.57282">
        <ele>278</ele>
        <time>2012-09-23T08:46:43Z</time>
      </trkpt>
      <trkpt lat="43.14727" lon="1.57292">
        <ele>279</ele>
        <time>2012-09-23T08:46:45Z</time>
      </trkpt>
      <trkpt lat="43.14732" lon="1.57301">
        <ele>280</ele>
        <time>2012-09-23T08:46:47Z</time>
      </trkpt>
      <trkpt lat="43.14737" lon="1.5731">
        <ele>281</ele>
        <time>2012-09-23T08:46:49Z</time>
      </trkpt>
      <trkpt lat="43.14743" lon="1.5732">
        <ele>282</ele>
        <time>2012-09-23T08:46:51Z</time>
      </trkpt>
      <trkpt lat="43.14752" lon="1.57339">
        <ele>282</ele>
        <time>2012-09-23T08:46:54Z</time>
      </trkpt>
      <trkpt lat="43.14758" lon="1.57352">
        <ele>282</ele>
        <time>2012-09-23T08:46:56Z</time>
      </trkpt>
      <trkpt lat="43.14765" lon="1.57367">
        <ele>282</ele>
        <time>2012-09-23T08:46:58Z</time>
      </trkpt>
      <trkpt lat="43.14772" lon="1.57381">
        <ele>282</ele>
        <time>2012-09-23T08:47:00Z</time>
      </trkpt>
      <trkpt lat="43.1478" lon="1.57397">
        <ele>282</ele>
        <time>2012-09-23T08:47:02Z</time>
      </trkpt>
      <trkpt lat="43.14789" lon="1.57413">
        <ele>282</ele>
        <time>2012-09-23T08:47:04Z</time>
      </trkpt>
      <trkpt lat="43.14798" lon="1.5743">
        <ele>282</ele>
        <time>2012-09-23T08:47:06Z</time>
      </trkpt>
      <trkpt lat="43.14806" lon="1.57449">
        <ele>282</ele>
        <time>2012-09-23T08:47:08Z</time>
      </trkpt>
      <trkpt lat="43.14809" lon="1.57469">
        <ele>282</ele>
        <time>2012-09-23T08:47:10Z</time>
      </trkpt>
      <trkpt lat="43.14814" lon="1.57496">
        <ele>282</ele>
        <time>2012-09-23T08:47:12Z</time>
      </trkpt>
      <trkpt lat="43.14819" lon="1.57511">
        <ele>282</ele>
        <time>2012-09-23T08:47:14Z</time>
      </trkpt>
      <trkpt lat="43.14826" lon="1.57526">
        <ele>282</ele>
        <time>2012-09-23T08:47:17Z</time>
      </trkpt>
      <trkpt lat="43.14834" lon="1.57537">
        <ele>282</ele>
        <time>2012-09-23T08:47:19Z</time>
      </trkpt>
      <trkpt lat="43.14843" lon="1.57546">
        <ele>282</ele>
        <time>2012-09-23T08:47:21Z</time>
      </trkpt>
      <trkpt lat="43.14853" lon="1.57552">
        <ele>282</ele>
        <time>2012-09-23T08:47:23Z</time>
      </trkpt>
      <trkpt lat="43.14862" lon="1.5756">
        <ele>282</ele>
        <time>2012-09-23T08:47:25Z</time>
      </trkpt>
      <trkpt lat="43.14871" lon="1.57569">
        <ele>282</ele>
        <time>2012-09-23T08:47:27Z</time>
      </trkpt>
      <trkpt lat="43.14886" lon="1.57582">
        <ele>282</ele>
        <time>2012-09-23T08:47:30Z</time>
      </trkpt>
      <trkpt lat="43.14897" lon="1.5759">
        <ele>282</ele>
        <time>2012-09-23T08:47:32Z</time>
      </trkpt>
      <trkpt lat="43.14909" lon="1.57599">
        <ele>282</ele>
        <time>2012-09-23T08:47:34Z</time>
      </trkpt>
      <trkpt lat="43.14927" lon="1.57614">
        <ele>282</ele>
        <time>2012-09-23T08:47:37Z</time>
      </trkpt>
      <trkpt lat="43.14939" lon="1.57625">
        <ele>282</ele>
        <time>2012-09-23T08:47:39Z</time>
      </trkpt>
      <trkpt lat="43.1495" lon="1.57637">
        <ele>282</ele>
        <time>2012-09-23T08:47:41Z</time>
      </trkpt>
      <trkpt lat="43.14959" lon="1.57654">
        <ele>282</ele>
        <time>2012-09-23T08:47:43Z</time>
      </trkpt>
      <trkpt lat="43.14964" lon="1.57672">
        <ele>282</ele>
        <time>2012-09-23T08:47:45Z</time>
      </trkpt>
      <trkpt lat="43.14967" lon="1.5769">
        <ele>282</ele>
        <time>2012-09-23T08:47:47Z</time>
      </trkpt>
      <trkpt lat="43.14972" lon="1.57709">
        <ele>281</ele>
        <time>2012-09-23T08:47:49Z</time>
      </trkpt>
      <trkpt lat="43.14978" lon="1.5774">
        <ele>281</ele>
        <time>2012-09-23T08:47:52Z</time>
      </trkpt>
      <trkpt lat="43.14982" lon="1.57764">
        <ele>280</ele>
        <time>2012-09-23T08:47:54Z</time>
      </trkpt>
      <trkpt lat="43.1499" lon="1.57802">
        <ele>278</ele>
        <time>2012-09-23T08:47:56Z</time>
      </trkpt>
      <trkpt lat="43.14998" lon="1.57829">
        <ele>277</ele>
        <time>2012-09-23T08:47:58Z</time>
      </trkpt>
      <trkpt lat="43.15009" lon="1.57857">
        <ele>275</ele>
        <time>2012-09-23T08:48:00Z</time>
      </trkpt>
      <trkpt lat="43.1502" lon="1.57885">
        <ele>275</ele>
        <time>2012-09-23T08:48:02Z</time>
      </trkpt>
      <trkpt lat="43.1503" lon="1.5791">
        <ele>274</ele>
        <time>2012-09-23T08:48:04Z</time>
      </trkpt>
      <trkpt lat="43.1504" lon="1.57932">
        <ele>274</ele>
        <time>2012-09-23T08:48:07Z</time>
      </trkpt>
      <trkpt lat="43.15049" lon="1.57953">
        <ele>274</ele>
        <time>2012-09-23T08:48:09Z</time>
      </trkpt>
      <trkpt lat="43.15066" lon="1.57978">
        <ele>274</ele>
        <time>2012-09-23T08:48:12Z</time>
      </trkpt>
      <trkpt lat="43.15078" lon="1.57995">
        <ele>274</ele>
        <time>2012-09-23T08:48:14Z</time>
      </trkpt>
      <trkpt lat="43.15092" lon="1.58011">
        <ele>274</ele>
        <time>2012-09-23T08:48:16Z</time>
      </trkpt>
      <trkpt lat="43.15106" lon="1.58029">
        <ele>274</ele>
        <time>2012-09-23T08:48:18Z</time>
      </trkpt>
      <trkpt lat="43.15118" lon="1.58044">
        <ele>274</ele>
        <time>2012-09-23T08:48:20Z</time>
      </trkpt>
      <trkpt lat="43.15129" lon="1.58058">
        <ele>274</ele>
        <time>2012-09-23T08:48:22Z</time>
      </trkpt>
      <trkpt lat="43.15139" lon="1.5807">
        <ele>274</ele>
        <time>2012-09-23T08:48:24Z</time>
      </trkpt>
      <trkpt lat="43.15148" lon="1.58081">
        <ele>274</ele>
        <time>2012-09-23T08:48:26Z</time>
      </trkpt>
      <trkpt lat="43.15157" lon="1.5809">
        <ele>275</ele>
        <time>2012-09-23T08:48:28Z</time>
      </trkpt>
      <trkpt lat="43.15167" lon="1.58097">
        <ele>275</ele>
        <time>2012-09-23T08:48:30Z</time>
      </trkpt>
      <trkpt lat="43.15182" lon="1.58109">
        <ele>276</ele>
        <time>2012-09-23T08:48:33Z</time>
      </trkpt>
      <trkpt lat="43.1519" lon="1.5812">
        <ele>276</ele>
        <time>2012-09-23T08:48:35Z</time>
      </trkpt>
      <trkpt lat="43.15196" lon="1.58134">
        <ele>277</ele>
        <time>2012-09-23T08:48:37Z</time>
      </trkpt>
      <trkpt lat="43.152" lon="1.58149">
        <ele>277</ele>
        <time>2012-09-23T08:48:39Z</time>
      </trkpt>
      <trkpt lat="43.15203" lon="1.58164">
        <ele>277</ele>
        <time>2012-09-23T08:48:41Z</time>
      </trkpt>
      <trkpt lat="43.15206" lon="1.5818">
        <ele>277</ele>
        <time>2012-09-23T08:48:43Z</time>
      </trkpt>
      <trkpt lat="43.1521" lon="1.58194">
        <ele>277</ele>
        <time>2012-09-23T08:48:45Z</time>
      </trkpt>
      <trkpt lat="43.15218" lon="1.58217">
        <ele>277</ele>
        <time>2012-09-23T08:48:47Z</time>
      </trkpt>
      <trkpt lat="43.15226" lon="1.58232">
        <ele>277</ele>
        <time>2012-09-23T08:48:50Z</time>
      </trkpt>
      <trkpt lat="43.15234" lon="1.58246">
        <ele>277</ele>
        <time>2012-09-23T08:48:52Z</time>
      </trkpt>
      <trkpt lat="43.15244" lon="1.58261">
        <ele>277</ele>
        <time>2012-09-23T08:48:54Z</time>
      </trkpt>
      <trkpt lat="43.15255" lon="1.58276">
        <ele>277</ele>
        <time>2012-09-23T08:48:56Z</time>
      </trkpt>
      <trkpt lat="43.15266" lon="1.58291">
        <ele>277</ele>
        <time>2012-09-23T08:48:58Z</time>
      </trkpt>
      <trkpt lat="43.15281" lon="1.58316">
        <ele>276</ele>
        <time>2012-09-23T08:49:01Z</time>
      </trkpt>
      <trkpt lat="43.15291" lon="1.58336">
        <ele>275</ele>
        <time>2012-09-23T08:49:03Z</time>
      </trkpt>
      <trkpt lat="43.15304" lon="1.58373">
        <ele>273</ele>
        <time>2012-09-23T08:49:05Z</time>
      </trkpt>
      <trkpt lat="43.15308" lon="1.58416">
        <ele>270</ele>
        <time>2012-09-23T08:49:08Z</time>
      </trkpt>
      <trkpt lat="43.15307" lon="1.58441">
        <ele>268</ele>
        <time>2012-09-23T08:49:10Z</time>
      </trkpt>
      <trkpt lat="43.15314" lon="1.58457">
        <ele>266</ele>
        <time>2012-09-23T08:49:12Z</time>
      </trkpt>
      <trkpt lat="43.15328" lon="1.58459">
        <ele>264</ele>
        <time>2012-09-23T08:49:14Z</time>
      </trkpt>
      <trkpt lat="43.15343" lon="1.58463">
        <ele>262</ele>
        <time>2012-09-23T08:49:16Z</time>
      </trkpt>
      <trkpt lat="43.15356" lon="1.58468">
        <ele>260</ele>
        <time>2012-09-23T08:49:19Z</time>
      </trkpt>
      <trkpt lat="43.15372" lon="1.58484">
        <ele>258</ele>
        <time>2012-09-23T08:49:21Z</time>
      </trkpt>
      <trkpt lat="43.15379" lon="1.58497">
        <ele>258</ele>
        <time>2012-09-23T08:49:23Z</time>
      </trkpt>
      <trkpt lat="43.15385" lon="1.5851">
        <ele>258</ele>
        <time>2012-09-23T08:49:25Z</time>
      </trkpt>
      <trkpt lat="43.15394" lon="1.58517">
        <ele>258</ele>
        <time>2012-09-23T08:49:27Z</time>
      </trkpt>
      <trkpt lat="43.15408" lon="1.58522">
        <ele>258</ele>
        <time>2012-09-23T08:49:30Z</time>
      </trkpt>
      <trkpt lat="43.15417" lon="1.58526">
        <ele>260</ele>
        <time>2012-09-23T08:49:32Z</time>
      </trkpt>
      <trkpt lat="43.15424" lon="1.58532">
        <ele>262</ele>
        <time>2012-09-23T08:49:34Z</time>
      </trkpt>
      <trkpt lat="43.1543" lon="1.58537">
        <ele>263</ele>
        <time>2012-09-23T08:49:36Z</time>
      </trkpt>
      <trkpt lat="43.15435" lon="1.58541">
        <ele>264</ele>
        <time>2012-09-23T08:49:38Z</time>
      </trkpt>
      <trkpt lat="43.15439" lon="1.58542">
        <ele>265</ele>
        <time>2012-09-23T08:49:40Z</time>
      </trkpt>
      <trkpt lat="43.1544" lon="1.5854">
        <ele>267</ele>
        <time>2012-09-23T08:49:48Z</time>
      </trkpt>
      <trkpt lat="43.1544" lon="1.58539">
        <ele>267</ele>
        <time>2012-09-23T08:49:56Z</time>
      </trkpt>
      <trkpt lat="43.15442" lon="1.58535">
        <ele>267</ele>
        <time>2012-09-23T08:49:59Z</time>
      </trkpt>
      <trkpt lat="43.15443" lon="1.58531">
        <ele>267</ele>
        <time>2012-09-23T08:50:01Z</time>
      </trkpt>
      <trkpt lat="43.15443" lon="1.58525">
        <ele>267</ele>
        <time>2012-09-23T08:50:03Z</time>
      </trkpt>
      <trkpt lat="43.1544" lon="1.58517">
        <ele>267</ele>
        <time>2012-09-23T08:50:05Z</time>
      </trkpt>
      <trkpt lat="43.15435" lon="1.5851">
        <ele>267</ele>
        <time>2012-09-23T08:50:07Z</time>
      </trkpt>
      <trkpt lat="43.15429" lon="1.58503">
        <ele>267</ele>
        <time>2012-09-23T08:50:10Z</time>
      </trkpt>
      <trkpt lat="43.1542" lon="1.5849">
        <ele>267</ele>
        <time>2012-09-23T08:50:12Z</time>
      </trkpt>
      <trkpt lat="43.15415" lon="1.58481">
        <ele>267</ele>
        <time>2012-09-23T08:50:14Z</time>
      </trkpt>
      <trkpt lat="43.1541" lon="1.58472">
        <ele>267</ele>
        <time>2012-09-23T08:50:16Z</time>
      </trkpt>
      <trkpt lat="43.15407" lon="1.58462">
        <ele>267</ele>
        <time>2012-09-23T08:50:18Z</time>
      </trkpt>
      <trkpt lat="43.15403" lon="1.58452">
        <ele>267</ele>
        <time>2012-09-23T08:50:21Z</time>
      </trkpt>
      <trkpt lat="43.15401" lon="1.5844">
        <ele>267</ele>
        <time>2012-09-23T08:50:23Z</time>
      </trkpt>
      <trkpt lat="43.15402" lon="1.58431">
        <ele>267</ele>
        <time>2012-09-23T08:50:26Z</time>
      </trkpt>
      <trkpt lat="43.15407" lon="1.58418">
        <ele>267</ele>
        <time>2012-09-23T08:50:28Z</time>
      </trkpt>
      <trkpt lat="43.15411" lon="1.58411">
        <ele>267</ele>
        <time>2012-09-23T08:50:30Z</time>
      </trkpt>
      <trkpt lat="43.15416" lon="1.58403">
        <ele>267</ele>
        <time>2012-09-23T08:50:32Z</time>
      </trkpt>
      <trkpt lat="43.1542" lon="1.58396">
        <ele>267</ele>
        <time>2012-09-23T08:50:34Z</time>
      </trkpt>
      <trkpt lat="43.15425" lon="1.58388">
        <ele>267</ele>
        <time>2012-09-23T08:50:36Z</time>
      </trkpt>
      <trkpt lat="43.15429" lon="1.5838">
        <ele>267</ele>
        <time>2012-09-23T08:50:38Z</time>
      </trkpt>
      <trkpt lat="43.15434" lon="1.58372">
        <ele>267</ele>
        <time>2012-09-23T08:50:40Z</time>
      </trkpt>
      <trkpt lat="43.15438" lon="1.58365">
        <ele>267</ele>
        <time>2012-09-23T08:50:42Z</time>
      </trkpt>
      <trkpt lat="43.15442" lon="1.58356">
        <ele>268</ele>
        <time>2012-09-23T08:50:45Z</time>
      </trkpt>
      <trkpt lat="43.15446" lon="1.58348">
        <ele>268</ele>
        <time>2012-09-23T08:50:47Z</time>
      </trkpt>
      <trkpt lat="43.15453" lon="1.58336">
        <ele>269</ele>
        <time>2012-09-23T08:50:49Z</time>
      </trkpt>
      <trkpt lat="43.15458" lon="1.58329">
        <ele>269</ele>
        <time>2012-09-23T08:50:51Z</time>
      </trkpt>
      <trkpt lat="43.15463" lon="1.58322">
        <ele>270</ele>
        <time>2012-09-23T08:50:53Z</time>
      </trkpt>
      <trkpt lat="43.15468" lon="1.58316">
        <ele>270</ele>
        <time>2012-09-23T08:50:56Z</time>
      </trkpt>
      <trkpt lat="43.15474" lon="1.5831">
        <ele>271</ele>
        <time>2012-09-23T08:50:58Z</time>
      </trkpt>
      <trkpt lat="43.15482" lon="1.58302">
        <ele>271</ele>
        <time>2012-09-23T08:51:00Z</time>
      </trkpt>
      <trkpt lat="43.15487" lon="1.58297">
        <ele>272</ele>
        <time>2012-09-23T08:51:02Z</time>
      </trkpt>
      <trkpt lat="43.15492" lon="1.58292">
        <ele>272</ele>
        <time>2012-09-23T08:51:04Z</time>
      </trkpt>
      <trkpt lat="43.15497" lon="1.58286">
        <ele>273</ele>
        <time>2012-09-23T08:51:07Z</time>
      </trkpt>
      <trkpt lat="43.15506" lon="1.58277">
        <ele>274</ele>
        <time>2012-09-23T08:51:10Z</time>
      </trkpt>
      <trkpt lat="43.15513" lon="1.58267">
        <ele>275</ele>
        <time>2012-09-23T08:51:12Z</time>
      </trkpt>
      <trkpt lat="43.15518" lon="1.58259">
        <ele>276</ele>
        <time>2012-09-23T08:51:14Z</time>
      </trkpt>
      <trkpt lat="43.15522" lon="1.58252">
        <ele>277</ele>
        <time>2012-09-23T08:51:16Z</time>
      </trkpt>
      <trkpt lat="43.15526" lon="1.58245">
        <ele>278</ele>
        <time>2012-09-23T08:51:18Z</time>
      </trkpt>
      <trkpt lat="43.1553" lon="1.58238">
        <ele>278</ele>
        <time>2012-09-23T08:51:21Z</time>
      </trkpt>
      <trkpt lat="43.15537" lon="1.58229">
        <ele>278</ele>
        <time>2012-09-23T08:51:23Z</time>
      </trkpt>
      <trkpt lat="43.15542" lon="1.58225">
        <ele>278</ele>
        <time>2012-09-23T08:51:25Z</time>
      </trkpt>
      <trkpt lat="43.15546" lon="1.58221">
        <ele>278</ele>
        <time>2012-09-23T08:51:27Z</time>
      </trkpt>
      <trkpt lat="43.15552" lon="1.58216">
        <ele>278</ele>
        <time>2012-09-23T08:51:29Z</time>
      </trkpt>
      <trkpt lat="43.15557" lon="1.58209">
        <ele>278</ele>
        <time>2012-09-23T08:51:31Z</time>
      </trkpt>
      <trkpt lat="43.15562" lon="1.58203">
        <ele>278</ele>
        <time>2012-09-23T08:51:33Z</time>
      </trkpt>
      <trkpt lat="43.15566" lon="1.58196">
        <ele>278</ele>
        <time>2012-09-23T08:51:35Z</time>
      </trkpt>
      <trkpt lat="43.15571" lon="1.58189">
        <ele>278</ele>
        <time>2012-09-23T08:51:37Z</time>
      </trkpt>
      <trkpt lat="43.15575" lon="1.58182">
        <ele>278</ele>
        <time>2012-09-23T08:51:39Z</time>
      </trkpt>
      <trkpt lat="43.15579" lon="1.58175">
        <ele>278</ele>
        <time>2012-09-23T08:51:41Z</time>
      </trkpt>
      <trkpt lat="43.15583" lon="1.58167">
        <ele>277</ele>
        <time>2012-09-23T08:51:43Z</time>
      </trkpt>
      <trkpt lat="43.15586" lon="1.5816">
        <ele>277</ele>
        <time>2012-09-23T08:51:45Z</time>
      </trkpt>
      <trkpt lat="43.15591" lon="1.58153">
        <ele>277</ele>
        <time>2012-09-23T08:51:47Z</time>
      </trkpt>
      <trkpt lat="43.15594" lon="1.58145">
        <ele>277</ele>
        <time>2012-09-23T08:51:49Z</time>
      </trkpt>
      <trkpt lat="43.15599" lon="1.58138">
        <ele>277</ele>
        <time>2012-09-23T08:51:51Z</time>
      </trkpt>
      <trkpt lat="43.15604" lon="1.58131">
        <ele>277</ele>
        <time>2012-09-23T08:51:53Z</time>
      </trkpt>
      <trkpt lat="43.15609" lon="1.58124">
        <ele>277</ele>
        <time>2012-09-23T08:51:55Z</time>
      </trkpt>
      <trkpt lat="43.15613" lon="1.58116">
        <ele>277</ele>
        <time>2012-09-23T08:51:57Z</time>
      </trkpt>
      <trkpt lat="43.15618" lon="1.5811">
        <ele>277</ele>
        <time>2012-09-23T08:51:59Z</time>
      </trkpt>
      <trkpt lat="43.15623" lon="1.58104">
        <ele>277</ele>
        <time>2012-09-23T08:52:01Z</time>
      </trkpt>
      <trkpt lat="43.15629" lon="1.58098">
        <ele>278</ele>
        <time>2012-09-23T08:52:03Z</time>
      </trkpt>
      <trkpt lat="43.15635" lon="1.58092">
        <ele>280</ele>
        <time>2012-09-23T08:52:06Z</time>
      </trkpt>
      <trkpt lat="43.15646" lon="1.58084">
        <ele>283</ele>
        <time>2012-09-23T08:52:09Z</time>
      </trkpt>
      <trkpt lat="43.15652" lon="1.5808">
        <ele>285</ele>
        <time>2012-09-23T08:52:11Z</time>
      </trkpt>
      <trkpt lat="43.15662" lon="1.58073">
        <ele>288</ele>
        <time>2012-09-23T08:52:13Z</time>
      </trkpt>
      <trkpt lat="43.15667" lon="1.58068">
        <ele>290</ele>
        <time>2012-09-23T08:52:15Z</time>
      </trkpt>
      <trkpt lat="43.15672" lon="1.58062">
        <ele>290</ele>
        <time>2012-09-23T08:52:17Z</time>
      </trkpt>
      <trkpt lat="43.15677" lon="1.58056">
        <ele>290</ele>
        <time>2012-09-23T08:52:19Z</time>
      </trkpt>
      <trkpt lat="43.15682" lon="1.58049">
        <ele>290</ele>
        <time>2012-09-23T08:52:21Z</time>
      </trkpt>
      <trkpt lat="43.15686" lon="1.5804">
        <ele>290</ele>
        <time>2012-09-23T08:52:23Z</time>
      </trkpt>
      <trkpt lat="43.15689" lon="1.58032">
        <ele>291</ele>
        <time>2012-09-23T08:52:25Z</time>
      </trkpt>
      <trkpt lat="43.15694" lon="1.58026">
        <ele>291</ele>
        <time>2012-09-23T08:52:27Z</time>
      </trkpt>
      <trkpt lat="43.15698" lon="1.5802">
        <ele>292</ele>
        <time>2012-09-23T08:52:29Z</time>
      </trkpt>
      <trkpt lat="43.15702" lon="1.58012">
        <ele>292</ele>
        <time>2012-09-23T08:52:31Z</time>
      </trkpt>
      <trkpt lat="43.15706" lon="1.58004">
        <ele>292</ele>
        <time>2012-09-23T08:52:33Z</time>
      </trkpt>
      <trkpt lat="43.15709" lon="1.57995">
        <ele>292</ele>
        <time>2012-09-23T08:52:35Z</time>
      </trkpt>
      <trkpt lat="43.15712" lon="1.57988">
        <ele>292</ele>
        <time>2012-09-23T08:52:37Z</time>
      </trkpt>
      <trkpt lat="43.15714" lon="1.57979">
        <ele>292</ele>
        <time>2012-09-23T08:52:39Z</time>
      </trkpt>
      <trkpt lat="43.15717" lon="1.57969">
        <ele>292</ele>
        <time>2012-09-23T08:52:41Z</time>
      </trkpt>
      <trkpt lat="43.1572" lon="1.5796">
        <ele>292</ele>
        <time>2012-09-23T08:52:43Z</time>
      </trkpt>
      <trkpt lat="43.15723" lon="1.57951">
        <ele>292</ele>
        <time>2012-09-23T08:52:45Z</time>
      </trkpt>
      <trkpt lat="43.15726" lon="1.57943">
        <ele>291</ele>
        <time>2012-09-23T08:52:47Z</time>
      </trkpt>
      <trkpt lat="43.15731" lon="1.57935">
        <ele>290</ele>
        <time>2012-09-23T08:52:49Z</time>
      </trkpt>
      <trkpt lat="43.15735" lon="1.57927">
        <ele>289</ele>
        <time>2012-09-23T08:52:51Z</time>
      </trkpt>
      <trkpt lat="43.15741" lon="1.57917">
        <ele>289</ele>
        <time>2012-09-23T08:52:53Z</time>
      </trkpt>
      <trkpt lat="43.15746" lon="1.57909">
        <ele>289</ele>
        <time>2012-09-23T08:52:55Z</time>
      </trkpt>
      <trkpt lat="43.15752" lon="1.57901">
        <ele>290</ele>
        <time>2012-09-23T08:52:57Z</time>
      </trkpt>
      <trkpt lat="43.15757" lon="1.57894">
        <ele>292</ele>
        <time>2012-09-23T08:52:59Z</time>
      </trkpt>
      <trkpt lat="43.15763" lon="1.57886">
        <ele>292</ele>
        <time>2012-09-23T08:53:01Z</time>
      </trkpt>
      <trkpt lat="43.15768" lon="1.57878">
        <ele>292</ele>
        <time>2012-09-23T08:53:04Z</time>
      </trkpt>
      <trkpt lat="43.15776" lon="1.57867">
        <ele>292</ele>
        <time>2012-09-23T08:53:07Z</time>
      </trkpt>
      <trkpt lat="43.15784" lon="1.57855">
        <ele>292</ele>
        <time>2012-09-23T08:53:09Z</time>
      </trkpt>
      <trkpt lat="43.1579" lon="1.57847">
        <ele>292</ele>
        <time>2012-09-23T08:53:11Z</time>
      </trkpt>
      <trkpt lat="43.15796" lon="1.57842">
        <ele>292</ele>
        <time>2012-09-23T08:53:13Z</time>
      </trkpt>
      <trkpt lat="43.15802" lon="1.57836">
        <ele>293</ele>
        <time>2012-09-23T08:53:16Z</time>
      </trkpt>
      <trkpt lat="43.15813" lon="1.57829">
        <ele>294</ele>
        <time>2012-09-23T08:53:18Z</time>
      </trkpt>
      <trkpt lat="43.15821" lon="1.57826">
        <ele>295</ele>
        <time>2012-09-23T08:53:20Z</time>
      </trkpt>
      <trkpt lat="43.15827" lon="1.57823">
        <ele>295</ele>
        <time>2012-09-23T08:53:23Z</time>
      </trkpt>
      <trkpt lat="43.15838" lon="1.57817">
        <ele>296</ele>
        <time>2012-09-23T08:53:25Z</time>
      </trkpt>
      <trkpt lat="43.15845" lon="1.57813">
        <ele>297</ele>
        <time>2012-09-23T08:53:27Z</time>
      </trkpt>
      <trkpt lat="43.15852" lon="1.57809">
        <ele>298</ele>
        <time>2012-09-23T08:53:29Z</time>
      </trkpt>
      <trkpt lat="43.15859" lon="1.57804">
        <ele>299</ele>
        <time>2012-09-23T08:53:32Z</time>
      </trkpt>
      <trkpt lat="43.1587" lon="1.57795">
        <ele>300</ele>
        <time>2012-09-23T08:53:34Z</time>
      </trkpt>
      <trkpt lat="43.15877" lon="1.57788">
        <ele>300</ele>
        <time>2012-09-23T08:53:36Z</time>
      </trkpt>
      <trkpt lat="43.15886" lon="1.57775">
        <ele>303</ele>
        <time>2012-09-23T08:53:39Z</time>
      </trkpt>
      <trkpt lat="43.15892" lon="1.57766">
        <ele>305</ele>
        <time>2012-09-23T08:53:41Z</time>
      </trkpt>
      <trkpt lat="43.15897" lon="1.57756">
        <ele>307</ele>
        <time>2012-09-23T08:53:43Z</time>
      </trkpt>
      <trkpt lat="43.15902" lon="1.57748">
        <ele>308</ele>
        <time>2012-09-23T08:53:45Z</time>
      </trkpt>
      <trkpt lat="43.15907" lon="1.5774">
        <ele>309</ele>
        <time>2012-09-23T08:53:47Z</time>
      </trkpt>
      <trkpt lat="43.15912" lon="1.57733">
        <ele>310</ele>
        <time>2012-09-23T08:53:49Z</time>
      </trkpt>
      <trkpt lat="43.15916" lon="1.57727">
        <ele>311</ele>
        <time>2012-09-23T08:53:52Z</time>
      </trkpt>
      <trkpt lat="43.15924" lon="1.5772">
        <ele>311</ele>
        <time>2012-09-23T08:53:55Z</time>
      </trkpt>
      <trkpt lat="43.15934" lon="1.57714">
        <ele>312</ele>
        <time>2012-09-23T08:53:58Z</time>
      </trkpt>
      <trkpt lat="43.15941" lon="1.5771">
        <ele>313</ele>
        <time>2012-09-23T08:54:00Z</time>
      </trkpt>
      <trkpt lat="43.15952" lon="1.57709">
        <ele>314</ele>
        <time>2012-09-23T08:54:03Z</time>
      </trkpt>
      <trkpt lat="43.15963" lon="1.57708">
        <ele>314</ele>
        <time>2012-09-23T08:54:05Z</time>
      </trkpt>
      <trkpt lat="43.1597" lon="1.57708">
        <ele>314</ele>
        <time>2012-09-23T08:54:07Z</time>
      </trkpt>
      <trkpt lat="43.15979" lon="1.57708">
        <ele>314</ele>
        <time>2012-09-23T08:54:09Z</time>
      </trkpt>
      <trkpt lat="43.15988" lon="1.57707">
        <ele>314</ele>
        <time>2012-09-23T08:54:11Z</time>
      </trkpt>
      <trkpt lat="43.15997" lon="1.57705">
        <ele>314</ele>
        <time>2012-09-23T08:54:13Z</time>
      </trkpt>
      <trkpt lat="43.16008" lon="1.57702">
        <ele>315</ele>
        <time>2012-09-23T08:54:15Z</time>
      </trkpt>
      <trkpt lat="43.16019" lon="1.57697">
        <ele>315</ele>
        <time>2012-09-23T08:54:17Z</time>
      </trkpt>
      <trkpt lat="43.16031" lon="1.57693">
        <ele>316</ele>
        <time>2012-09-23T08:54:19Z</time>
      </trkpt>
      <trkpt lat="43.16043" lon="1.57689">
        <ele>316</ele>
        <time>2012-09-23T08:54:21Z</time>
      </trkpt>
      <trkpt lat="43.16056" lon="1.57688">
        <ele>316</ele>
        <time>2012-09-23T08:54:23Z</time>
      </trkpt>
      <trkpt lat="43.1607" lon="1.57688">
        <ele>316</ele>
        <time>2012-09-23T08:54:25Z</time>
      </trkpt>
      <trkpt lat="43.16085" lon="1.57696">
        <ele>316</ele>
        <time>2012-09-23T08:54:27Z</time>
      </trkpt>
      <trkpt lat="43.16095" lon="1.57711">
        <ele>316</ele>
        <time>2012-09-23T08:54:29Z</time>
      </trkpt>
      <trkpt lat="43.16097" lon="1.5773">
        <ele>316</ele>
        <time>2012-09-23T08:54:31Z</time>
      </trkpt>
      <trkpt lat="43.16093" lon="1.57747">
        <ele>317</ele>
        <time>2012-09-23T08:54:33Z</time>
      </trkpt>
      <trkpt lat="43.16088" lon="1.57759">
        <ele>318</ele>
        <time>2012-09-23T08:54:35Z</time>
      </trkpt>
      <trkpt lat="43.16081" lon="1.57771">
        <ele>320</ele>
        <time>2012-09-23T08:54:37Z</time>
      </trkpt>
      <trkpt lat="43.16075" lon="1.57782">
        <ele>322</ele>
        <time>2012-09-23T08:54:39Z</time>
      </trkpt>
      <trkpt lat="43.16069" lon="1.57792">
        <ele>323</ele>
        <time>2012-09-23T08:54:41Z</time>
      </trkpt>
      <trkpt lat="43.16062" lon="1.57802">
        <ele>323</ele>
        <time>2012-09-23T08:54:43Z</time>
      </trkpt>
      <trkpt lat="43.16056" lon="1.5781">
        <ele>323</ele>
        <time>2012-09-23T08:54:45Z</time>
      </trkpt>
      <trkpt lat="43.16049" lon="1.57819">
        <ele>323</ele>
        <time>2012-09-23T08:54:47Z</time>
      </trkpt>
      <trkpt lat="43.16042" lon="1.57827">
        <ele>324</ele>
        <time>2012-09-23T08:54:49Z</time>
      </trkpt>
      <trkpt lat="43.16036" lon="1.57836">
        <ele>325</ele>
        <time>2012-09-23T08:54:51Z</time>
      </trkpt>
      <trkpt lat="43.16031" lon="1.57843">
        <ele>325</ele>
        <time>2012-09-23T08:54:53Z</time>
      </trkpt>
      <trkpt lat="43.16026" lon="1.57851">
        <ele>326</ele>
        <time>2012-09-23T08:54:55Z</time>
      </trkpt>
      <trkpt lat="43.16022" lon="1.5786">
        <ele>326</ele>
        <time>2012-09-23T08:54:57Z</time>
      </trkpt>
      <trkpt lat="43.16018" lon="1.57868">
        <ele>328</ele>
        <time>2012-09-23T08:54:59Z</time>
      </trkpt>
      <trkpt lat="43.16014" lon="1.57878">
        <ele>330</ele>
        <time>2012-09-23T08:55:01Z</time>
      </trkpt>
      <trkpt lat="43.16011" lon="1.57887">
        <ele>331</ele>
        <time>2012-09-23T08:55:03Z</time>
      </trkpt>
      <trkpt lat="43.16008" lon="1.57897">
        <ele>331</ele>
        <time>2012-09-23T08:55:05Z</time>
      </trkpt>
      <trkpt lat="43.16005" lon="1.57906">
        <ele>332</ele>
        <time>2012-09-23T08:55:07Z</time>
      </trkpt>
      <trkpt lat="43.16003" lon="1.57915">
        <ele>332</ele>
        <time>2012-09-23T08:55:10Z</time>
      </trkpt>
      <trkpt lat="43.16001" lon="1.57928">
        <ele>333</ele>
        <time>2012-09-23T08:55:12Z</time>
      </trkpt>
      <trkpt lat="43.16" lon="1.57936">
        <ele>334</ele>
        <time>2012-09-23T08:55:14Z</time>
      </trkpt>
      <trkpt lat="43.16" lon="1.57945">
        <ele>334</ele>
        <time>2012-09-23T08:55:16Z</time>
      </trkpt>
      <trkpt lat="43.15999" lon="1.57955">
        <ele>335</ele>
        <time>2012-09-23T08:55:18Z</time>
      </trkpt>
      <trkpt lat="43.16" lon="1.57965">
        <ele>335</ele>
        <time>2012-09-23T08:55:20Z</time>
      </trkpt>
      <trkpt lat="43.16" lon="1.57975">
        <ele>335</ele>
        <time>2012-09-23T08:55:22Z</time>
      </trkpt>
      <trkpt lat="43.16001" lon="1.57985">
        <ele>335</ele>
        <time>2012-09-23T08:55:24Z</time>
      </trkpt>
      <trkpt lat="43.16001" lon="1.57995">
        <ele>335</ele>
        <time>2012-09-23T08:55:26Z</time>
      </trkpt>
      <trkpt lat="43.16002" lon="1.58005">
        <ele>336</ele>
        <time>2012-09-23T08:55:28Z</time>
      </trkpt>
      <trkpt lat="43.16003" lon="1.58014">
        <ele>336</ele>
        <time>2012-09-23T08:55:31Z</time>
      </trkpt>
      <trkpt lat="43.16008" lon="1.58027">
        <ele>336</ele>
        <time>2012-09-23T08:55:33Z</time>
      </trkpt>
      <trkpt lat="43.16013" lon="1.58034">
        <ele>337</ele>
        <time>2012-09-23T08:55:35Z</time>
      </trkpt>
      <trkpt lat="43.16018" lon="1.58039">
        <ele>337</ele>
        <time>2012-09-23T08:55:37Z</time>
      </trkpt>
      <trkpt lat="43.16024" lon="1.58042">
        <ele>337</ele>
        <time>2012-09-23T08:55:39Z</time>
      </trkpt>
      <trkpt lat="43.1603" lon="1.58043">
        <ele>338</ele>
        <time>2012-09-23T08:55:41Z</time>
      </trkpt>
      <trkpt lat="43.16036" lon="1.58041">
        <ele>338</ele>
        <time>2012-09-23T08:55:43Z</time>
      </trkpt>
      <trkpt lat="43.16041" lon="1.58037">
        <ele>338</ele>
        <time>2012-09-23T08:55:45Z</time>
      </trkpt>
      <trkpt lat="43.16044" lon="1.58029">
        <ele>339</ele>
        <time>2012-09-23T08:55:47Z</time>
      </trkpt>
      <trkpt lat="43.16045" lon="1.58021">
        <ele>339</ele>
        <time>2012-09-23T08:55:49Z</time>
      </trkpt>
      <trkpt lat="43.16044" lon="1.58012">
        <ele>339</ele>
        <time>2012-09-23T08:55:51Z</time>
      </trkpt>
      <trkpt lat="43.16043" lon="1.57999">
        <ele>339</ele>
        <time>2012-09-23T08:55:54Z</time>
      </trkpt>
      <trkpt lat="43.16043" lon="1.57989">
        <ele>339</ele>
        <time>2012-09-23T08:55:56Z</time>
      </trkpt>
      <trkpt lat="43.16044" lon="1.57981">
        <ele>340</ele>
        <time>2012-09-23T08:55:58Z</time>
      </trkpt>
      <trkpt lat="43.16048" lon="1.57973">
        <ele>340</ele>
        <time>2012-09-23T08:56:00Z</time>
      </trkpt>
      <trkpt lat="43.16053" lon="1.57967">
        <ele>340</ele>
        <time>2012-09-23T08:56:02Z</time>
      </trkpt>
      <trkpt lat="43.16059" lon="1.57962">
        <ele>340</ele>
        <time>2012-09-23T08:56:04Z</time>
      </trkpt>
      <trkpt lat="43.16066" lon="1.57957">
        <ele>341</ele>
        <time>2012-09-23T08:56:06Z</time>
      </trkpt>
      <trkpt lat="43.16073" lon="1.57954">
        <ele>341</ele>
        <time>2012-09-23T08:56:08Z</time>
      </trkpt>
      <trkpt lat="43.1608" lon="1.5795">
        <ele>341</ele>
        <time>2012-09-23T08:56:10Z</time>
      </trkpt>
      <trkpt lat="43.16087" lon="1.57945">
        <ele>341</ele>
        <time>2012-09-23T08:56:12Z</time>
      </trkpt>
      <trkpt lat="43.16095" lon="1.5794">
        <ele>342</ele>
        <time>2012-09-23T08:56:14Z</time>
      </trkpt>
      <trkpt lat="43.16102" lon="1.57936">
        <ele>342</ele>
        <time>2012-09-23T08:56:16Z</time>
      </trkpt>
      <trkpt lat="43.1611" lon="1.5793">
        <ele>342</ele>
        <time>2012-09-23T08:56:18Z</time>
      </trkpt>
      <trkpt lat="43.16117" lon="1.57925">
        <ele>342</ele>
        <time>2012-09-23T08:56:20Z</time>
      </trkpt>
      <trkpt lat="43.16125" lon="1.5792">
        <ele>342</ele>
        <time>2012-09-23T08:56:22Z</time>
      </trkpt>
      <trkpt lat="43.16133" lon="1.57914">
        <ele>342</ele>
        <time>2012-09-23T08:56:24Z</time>
      </trkpt>
      <trkpt lat="43.16142" lon="1.57908">
        <ele>342</ele>
        <time>2012-09-23T08:56:26Z</time>
      </trkpt>
      <trkpt lat="43.1615" lon="1.57903">
        <ele>342</ele>
        <time>2012-09-23T08:56:28Z</time>
      </trkpt>
      <trkpt lat="43.16158" lon="1.57897">
        <ele>342</ele>
        <time>2012-09-23T08:56:30Z</time>
      </trkpt>
      <trkpt lat="43.16167" lon="1.57891">
        <ele>342</ele>
        <time>2012-09-23T08:56:32Z</time>
      </trkpt>
      <trkpt lat="43.16175" lon="1.57885">
        <ele>342</ele>
        <time>2012-09-23T08:56:34Z</time>
      </trkpt>
      <trkpt lat="43.16184" lon="1.57879">
        <ele>342</ele>
        <time>2012-09-23T08:56:36Z</time>
      </trkpt>
      <trkpt lat="43.16193" lon="1.57873">
        <ele>342</ele>
        <time>2012-09-23T08:56:38Z</time>
      </trkpt>
      <trkpt lat="43.16203" lon="1.57866">
        <ele>342</ele>
        <time>2012-09-23T08:56:40Z</time>
      </trkpt>
      <trkpt lat="43.16213" lon="1.5786">
        <ele>343</ele>
        <time>2012-09-23T08:56:42Z</time>
      </trkpt>
      <trkpt lat="43.16222" lon="1.57853">
        <ele>343</ele>
        <time>2012-09-23T08:56:44Z</time>
      </trkpt>
      <trkpt lat="43.16232" lon="1.57846">
        <ele>343</ele>
        <time>2012-09-23T08:56:46Z</time>
      </trkpt>
      <trkpt lat="43.16242" lon="1.5784">
        <ele>343</ele>
        <time>2012-09-23T08:56:48Z</time>
      </trkpt>
      <trkpt lat="43.16252" lon="1.57833">
        <ele>343</ele>
        <time>2012-09-23T08:56:50Z</time>
      </trkpt>
      <trkpt lat="43.16262" lon="1.57826">
        <ele>343</ele>
        <time>2012-09-23T08:56:52Z</time>
      </trkpt>
      <trkpt lat="43.16272" lon="1.57819">
        <ele>343</ele>
        <time>2012-09-23T08:56:54Z</time>
      </trkpt>
      <trkpt lat="43.16281" lon="1.57812">
        <ele>344</ele>
        <time>2012-09-23T08:56:56Z</time>
      </trkpt>
      <trkpt lat="43.16291" lon="1.57806">
        <ele>344</ele>
        <time>2012-09-23T08:56:58Z</time>
      </trkpt>
      <trkpt lat="43.16301" lon="1.57799">
        <ele>344</ele>
        <time>2012-09-23T08:57:00Z</time>
      </trkpt>
      <trkpt lat="43.16311" lon="1.57792">
        <ele>345</ele>
        <time>2012-09-23T08:57:02Z</time>
      </trkpt>
      <trkpt lat="43.1632" lon="1.57786">
        <ele>345</ele>
        <time>2012-09-23T08:57:04Z</time>
      </trkpt>
      <trkpt lat="43.1633" lon="1.57779">
        <ele>346</ele>
        <time>2012-09-23T08:57:06Z</time>
      </trkpt>
      <trkpt lat="43.16339" lon="1.57773">
        <ele>346</ele>
        <time>2012-09-23T08:57:08Z</time>
      </trkpt>
      <trkpt lat="43.16349" lon="1.57767">
        <ele>347</ele>
        <time>2012-09-23T08:57:10Z</time>
      </trkpt>
      <trkpt lat="43.16359" lon="1.5776">
        <ele>347</ele>
        <time>2012-09-23T08:57:12Z</time>
      </trkpt>
      <trkpt lat="43.16368" lon="1.57754">
        <ele>348</ele>
        <time>2012-09-23T08:57:14Z</time>
      </trkpt>
      <trkpt lat="43.16377" lon="1.57748">
        <ele>348</ele>
        <time>2012-09-23T08:57:16Z</time>
      </trkpt>
      <trkpt lat="43.16386" lon="1.57743">
        <ele>349</ele>
        <time>2012-09-23T08:57:18Z</time>
      </trkpt>
      <trkpt lat="43.16395" lon="1.5774">
        <ele>350</ele>
        <time>2012-09-23T08:57:20Z</time>
      </trkpt>
      <trkpt lat="43.16404" lon="1.57741">
        <ele>351</ele>
        <time>2012-09-23T08:57:22Z</time>
      </trkpt>
      <trkpt lat="43.16412" lon="1.57747">
        <ele>351</ele>
        <time>2012-09-23T08:57:24Z</time>
      </trkpt>
      <trkpt lat="43.16418" lon="1.57755">
        <ele>352</ele>
        <time>2012-09-23T08:57:26Z</time>
      </trkpt>
      <trkpt lat="43.16424" lon="1.57766">
        <ele>352</ele>
        <time>2012-09-23T08:57:28Z</time>
      </trkpt>
      <trkpt lat="43.16427" lon="1.57778">
        <ele>353</ele>
        <time>2012-09-23T08:57:30Z</time>
      </trkpt>
      <trkpt lat="43.16428" lon="1.57791">
        <ele>353</ele>
        <time>2012-09-23T08:57:32Z</time>
      </trkpt>
      <trkpt lat="43.1643" lon="1.57803">
        <ele>354</ele>
        <time>2012-09-23T08:57:34Z</time>
      </trkpt>
      <trkpt lat="43.16431" lon="1.57816">
        <ele>355</ele>
        <time>2012-09-23T08:57:36Z</time>
      </trkpt>
      <trkpt lat="43.16432" lon="1.57828">
        <ele>355</ele>
        <time>2012-09-23T08:57:38Z</time>
      </trkpt>
      <trkpt lat="43.16433" lon="1.57841">
        <ele>356</ele>
        <time>2012-09-23T08:57:40Z</time>
      </trkpt>
      <trkpt lat="43.16435" lon="1.57853">
        <ele>357</ele>
        <time>2012-09-23T08:57:42Z</time>
      </trkpt>
      <trkpt lat="43.16436" lon="1.57865">
        <ele>357</ele>
        <time>2012-09-23T08:57:44Z</time>
      </trkpt>
      <trkpt lat="43.16437" lon="1.57877">
        <ele>358</ele>
        <time>2012-09-23T08:57:46Z</time>
      </trkpt>
      <trkpt lat="43.16438" lon="1.57889">
        <ele>358</ele>
        <time>2012-09-23T08:57:48Z</time>
      </trkpt>
      <trkpt lat="43.16439" lon="1.57901">
        <ele>359</ele>
        <time>2012-09-23T08:57:50Z</time>
      </trkpt>
      <trkpt lat="43.16441" lon="1.57912">
        <ele>359</ele>
        <time>2012-09-23T08:57:52Z</time>
      </trkpt>
      <trkpt lat="43.16444" lon="1.57922">
        <ele>360</ele>
        <time>2012-09-23T08:57:54Z</time>
      </trkpt>
      <trkpt lat="43.16448" lon="1.5793">
        <ele>360</ele>
        <time>2012-09-23T08:57:56Z</time>
      </trkpt>
      <trkpt lat="43.16454" lon="1.57936">
        <ele>361</ele>
        <time>2012-09-23T08:57:58Z</time>
      </trkpt>
      <trkpt lat="43.1646" lon="1.5794">
        <ele>361</ele>
        <time>2012-09-23T08:58:00Z</time>
      </trkpt>
      <trkpt lat="43.16466" lon="1.57942">
        <ele>362</ele>
        <time>2012-09-23T08:58:02Z</time>
      </trkpt>
      <trkpt lat="43.16473" lon="1.57943">
        <ele>362</ele>
        <time>2012-09-23T08:58:04Z</time>
      </trkpt>
      <trkpt lat="43.1648" lon="1.57944">
        <ele>362</ele>
        <time>2012-09-23T08:58:06Z</time>
      </trkpt>
      <trkpt lat="43.1649" lon="1.57942">
        <ele>362</ele>
        <time>2012-09-23T08:58:08Z</time>
      </trkpt>
      <trkpt lat="43.16502" lon="1.57937">
        <ele>362</ele>
        <time>2012-09-23T08:58:10Z</time>
      </trkpt>
      <trkpt lat="43.16513" lon="1.5793">
        <ele>362</ele>
        <time>2012-09-23T08:58:12Z</time>
      </trkpt>
      <trkpt lat="43.16526" lon="1.57924">
        <ele>362</ele>
        <time>2012-09-23T08:58:14Z</time>
      </trkpt>
      <trkpt lat="43.1654" lon="1.57924">
        <ele>362</ele>
        <time>2012-09-23T08:58:16Z</time>
      </trkpt>
      <trkpt lat="43.16557" lon="1.57933">
        <ele>362</ele>
        <time>2012-09-23T08:58:18Z</time>
      </trkpt>
      <trkpt lat="43.16571" lon="1.57949">
        <ele>361</ele>
        <time>2012-09-23T08:58:20Z</time>
      </trkpt>
      <trkpt lat="43.16581" lon="1.5797">
        <ele>360</ele>
        <time>2012-09-23T08:58:22Z</time>
      </trkpt>
      <trkpt lat="43.16585" lon="1.57995">
        <ele>359</ele>
        <time>2012-09-23T08:58:24Z</time>
      </trkpt>
      <trkpt lat="43.16584" lon="1.58023">
        <ele>359</ele>
        <time>2012-09-23T08:58:26Z</time>
      </trkpt>
      <trkpt lat="43.16583" lon="1.5805">
        <ele>357</ele>
        <time>2012-09-23T08:58:28Z</time>
      </trkpt>
      <trkpt lat="43.16582" lon="1.58077">
        <ele>355</ele>
        <time>2012-09-23T08:58:30Z</time>
      </trkpt>
      <trkpt lat="43.16582" lon="1.5812">
        <ele>352</ele>
        <time>2012-09-23T08:58:33Z</time>
      </trkpt>
      <trkpt lat="43.16591" lon="1.58158">
        <ele>349</ele>
        <time>2012-09-23T08:58:36Z</time>
      </trkpt>
      <trkpt lat="43.16603" lon="1.58178">
        <ele>347</ele>
        <time>2012-09-23T08:58:38Z</time>
      </trkpt>
      <trkpt lat="43.16619" lon="1.58194">
        <ele>345</ele>
        <time>2012-09-23T08:58:40Z</time>
      </trkpt>
      <trkpt lat="43.16635" lon="1.58209">
        <ele>344</ele>
        <time>2012-09-23T08:58:42Z</time>
      </trkpt>
      <trkpt lat="43.1666" lon="1.58233">
        <ele>343</ele>
        <time>2012-09-23T08:58:45Z</time>
      </trkpt>
      <trkpt lat="43.16677" lon="1.58251">
        <ele>342</ele>
        <time>2012-09-23T08:58:47Z</time>
      </trkpt>
      <trkpt lat="43.1669" lon="1.58273">
        <ele>341</ele>
        <time>2012-09-23T08:58:49Z</time>
      </trkpt>
      <trkpt lat="43.16696" lon="1.58294">
        <ele>340</ele>
        <time>2012-09-23T08:58:51Z</time>
      </trkpt>
      <trkpt lat="43.16694" lon="1.58309">
        <ele>339</ele>
        <time>2012-09-23T08:58:53Z</time>
      </trkpt>
      <trkpt lat="43.16692" lon="1.58316">
        <ele>337</ele>
        <time>2012-09-23T08:58:57Z</time>
      </trkpt>
      <trkpt lat="43.16691" lon="1.5832">
        <ele>337</ele>
        <time>2012-09-23T08:58:59Z</time>
      </trkpt>
      <trkpt lat="43.16687" lon="1.58322">
        <ele>337</ele>
        <time>2012-09-23T08:59:01Z</time>
      </trkpt>
      <trkpt lat="43.16685" lon="1.58321">
        <ele>337</ele>
        <time>2012-09-23T08:59:09Z</time>
      </trkpt>
      <trkpt lat="43.16684" lon="1.58321">
        <ele>337</ele>
        <time>2012-09-23T08:59:21Z</time>
      </trkpt>
      <trkpt lat="43.16685" lon="1.5832">
        <ele>337</ele>
        <time>2012-09-23T08:59:29Z</time>
      </trkpt>
      <trkpt lat="43.16687" lon="1.5832">
        <ele>337</ele>
        <time>2012-09-23T08:59:32Z</time>
      </trkpt>
      <trkpt lat="43.16689" lon="1.58318">
        <ele>337</ele>
        <time>2012-09-23T08:59:35Z</time>
      </trkpt>
      <trkpt lat="43.16696" lon="1.58319">
        <ele>337</ele>
        <time>2012-09-23T08:59:37Z</time>
      </trkpt>
      <trkpt lat="43.16703" lon="1.58321">
        <ele>337</ele>
        <time>2012-09-23T08:59:39Z</time>
      </trkpt>
      <trkpt lat="43.16711" lon="1.58321">
        <ele>337</ele>
        <time>2012-09-23T08:59:41Z</time>
      </trkpt>
      <trkpt lat="43.16724" lon="1.58332">
        <ele>335</ele>
        <time>2012-09-23T08:59:44Z</time>
      </trkpt>
      <trkpt lat="43.16734" lon="1.58346">
        <ele>333</ele>
        <time>2012-09-23T08:59:46Z</time>
      </trkpt>
      <trkpt lat="43.16736" lon="1.58365">
        <ele>331</ele>
        <time>2012-09-23T08:59:48Z</time>
      </trkpt>
      <trkpt lat="43.16741" lon="1.58383">
        <ele>329</ele>
        <time>2012-09-23T08:59:51Z</time>
      </trkpt>
      <trkpt lat="43.16739" lon="1.58405">
        <ele>328</ele>
        <time>2012-09-23T08:59:53Z</time>
      </trkpt>
      <trkpt lat="43.16736" lon="1.58422">
        <ele>328</ele>
        <time>2012-09-23T08:59:56Z</time>
      </trkpt>
      <trkpt lat="43.1673" lon="1.58454">
        <ele>328</ele>
        <time>2012-09-23T08:59:58Z</time>
      </trkpt>
      <trkpt lat="43.16723" lon="1.58476">
        <ele>328</ele>
        <time>2012-09-23T09:00:00Z</time>
      </trkpt>
      <trkpt lat="43.16716" lon="1.58497">
        <ele>326</ele>
        <time>2012-09-23T09:00:02Z</time>
      </trkpt>
      <trkpt lat="43.1671" lon="1.5852">
        <ele>325</ele>
        <time>2012-09-23T09:00:04Z</time>
      </trkpt>
      <trkpt lat="43.16705" lon="1.58552">
        <ele>324</ele>
        <time>2012-09-23T09:00:07Z</time>
      </trkpt>
      <trkpt lat="43.16702" lon="1.58574">
        <ele>323</ele>
        <time>2012-09-23T09:00:09Z</time>
      </trkpt>
      <trkpt lat="43.1669" lon="1.58605">
        <ele>321</ele>
        <time>2012-09-23T09:00:12Z</time>
      </trkpt>
      <trkpt lat="43.16682" lon="1.58627">
        <ele>319</ele>
        <time>2012-09-23T09:00:14Z</time>
      </trkpt>
      <trkpt lat="43.16684" lon="1.58654">
        <ele>316</ele>
        <time>2012-09-23T09:00:17Z</time>
      </trkpt>
      <trkpt lat="43.16691" lon="1.58671">
        <ele>314</ele>
        <time>2012-09-23T09:00:19Z</time>
      </trkpt>
      <trkpt lat="43.167" lon="1.58689">
        <ele>312</ele>
        <time>2012-09-23T09:00:21Z</time>
      </trkpt>
      <trkpt lat="43.16702" lon="1.58708">
        <ele>310</ele>
        <time>2012-09-23T09:00:24Z</time>
      </trkpt>
      <trkpt lat="43.16699" lon="1.58733">
        <ele>306</ele>
        <time>2012-09-23T09:00:26Z</time>
      </trkpt>
      <trkpt lat="43.167" lon="1.58752">
        <ele>303</ele>
        <time>2012-09-23T09:00:28Z</time>
      </trkpt>
      <trkpt lat="43.16696" lon="1.58771">
        <ele>300</ele>
        <time>2012-09-23T09:00:30Z</time>
      </trkpt>
      <trkpt lat="43.16679" lon="1.58804">
        <ele>297</ele>
        <time>2012-09-23T09:00:33Z</time>
      </trkpt>
      <trkpt lat="43.16668" lon="1.58829">
        <ele>295</ele>
        <time>2012-09-23T09:00:35Z</time>
      </trkpt>
      <trkpt lat="43.16661" lon="1.58857">
        <ele>293</ele>
        <time>2012-09-23T09:00:37Z</time>
      </trkpt>
      <trkpt lat="43.16666" lon="1.58902">
        <ele>290</ele>
        <time>2012-09-23T09:00:40Z</time>
      </trkpt>
      <trkpt lat="43.16668" lon="1.58932">
        <ele>288</ele>
        <time>2012-09-23T09:00:42Z</time>
      </trkpt>
      <trkpt lat="43.16654" lon="1.5897">
        <ele>283</ele>
        <time>2012-09-23T09:00:45Z</time>
      </trkpt>
      <trkpt lat="43.1664" lon="1.58993">
        <ele>281</ele>
        <time>2012-09-23T09:00:47Z</time>
      </trkpt>
      <trkpt lat="43.16622" lon="1.59023">
        <ele>278</ele>
        <time>2012-09-23T09:00:50Z</time>
      </trkpt>
      <trkpt lat="43.1661" lon="1.59042">
        <ele>276</ele>
        <time>2012-09-23T09:00:52Z</time>
      </trkpt>
      <trkpt lat="43.16596" lon="1.59059">
        <ele>274</ele>
        <time>2012-09-23T09:00:54Z</time>
      </trkpt>
      <trkpt lat="43.16576" lon="1.59086">
        <ele>271</ele>
        <time>2012-09-23T09:00:58Z</time>
      </trkpt>
      <trkpt lat="43.16558" lon="1.59113">
        <ele>268</ele>
        <time>2012-09-23T09:01:00Z</time>
      </trkpt>
      <trkpt lat="43.16553" lon="1.59128">
        <ele>266</ele>
        <time>2012-09-23T09:01:03Z</time>
      </trkpt>
      <trkpt lat="43.16558" lon="1.59149">
        <ele>263</ele>
        <time>2012-09-23T09:01:05Z</time>
      </trkpt>
      <trkpt lat="43.16559" lon="1.59159">
        <ele>261</ele>
        <time>2012-09-23T09:01:07Z</time>
      </trkpt>
      <trkpt lat="43.16559" lon="1.59164">
        <ele>258</ele>
        <time>2012-09-23T09:01:11Z</time>
      </trkpt>
      <trkpt lat="43.16557" lon="1.59169">
        <ele>258</ele>
        <time>2012-09-23T09:01:13Z</time>
      </trkpt>
      <trkpt lat="43.16555" lon="1.59173">
        <ele>258</ele>
        <time>2012-09-23T09:01:15Z</time>
      </trkpt>
      <trkpt lat="43.16554" lon="1.59177">
        <ele>258</ele>
        <time>2012-09-23T09:01:17Z</time>
      </trkpt>
      <trkpt lat="43.16556" lon="1.59174">
        <ele>258</ele>
        <time>2012-09-23T09:01:22Z</time>
      </trkpt>
      <trkpt lat="43.1656" lon="1.59167">
        <ele>258</ele>
        <time>2012-09-23T09:01:24Z</time>
      </trkpt>
      <trkpt lat="43.16564" lon="1.59161">
        <ele>258</ele>
        <time>2012-09-23T09:01:26Z</time>
      </trkpt>
      <trkpt lat="43.16567" lon="1.59158">
        <ele>258</ele>
        <time>2012-09-23T09:01:28Z</time>
      </trkpt>
      <trkpt lat="43.1657" lon="1.59158">
        <ele>258</ele>
        <time>2012-09-23T09:01:30Z</time>
      </trkpt>
      <trkpt lat="43.16573" lon="1.59158">
        <ele>258</ele>
        <time>2012-09-23T09:01:34Z</time>
      </trkpt>
      <trkpt lat="43.16572" lon="1.59158">
        <ele>258</ele>
        <time>2012-09-23T09:01:36Z</time>
      </trkpt>
      <trkpt lat="43.1657" lon="1.59158">
        <ele>258</ele>
        <time>2012-09-23T09:01:39Z</time>
      </trkpt>
      <trkpt lat="43.16566" lon="1.59158">
        <ele>258</ele>
        <time>2012-09-23T09:01:42Z</time>
      </trkpt>
      <trkpt lat="43.16565" lon="1.59154">
        <ele>258</ele>
        <time>2012-09-23T09:01:45Z</time>
      </trkpt>
      <trkpt lat="43.16566" lon="1.59148">
        <ele>258</ele>
        <time>2012-09-23T09:01:47Z</time>
      </trkpt>
      <trkpt lat="43.16569" lon="1.59137">
        <ele>258</ele>
        <time>2012-09-23T09:01:50Z</time>
      </trkpt>
      <trkpt lat="43.16568" lon="1.59129">
        <ele>258</ele>
        <time>2012-09-23T09:01:52Z</time>
      </trkpt>
      <trkpt lat="43.16565" lon="1.59122">
        <ele>258</ele>
        <time>2012-09-23T09:01:54Z</time>
      </trkpt>
      <trkpt lat="43.16562" lon="1.59115">
        <ele>258</ele>
        <time>2012-09-23T09:01:57Z</time>
      </trkpt>
      <trkpt lat="43.16563" lon="1.59115">
        <ele>258</ele>
        <time>2012-09-23T09:02:00Z</time>
      </trkpt>
      <trkpt lat="43.16564" lon="1.59118">
        <ele>260</ele>
        <time>2012-09-23T09:02:03Z</time>
      </trkpt>
      <trkpt lat="43.16563" lon="1.59116">
        <ele>262</ele>
        <time>2012-09-23T09:02:07Z</time>
      </trkpt>
      <trkpt lat="43.16561" lon="1.59111">
        <ele>262</ele>
        <time>2012-09-23T09:02:09Z</time>
      </trkpt>
      <trkpt lat="43.16562" lon="1.59104">
        <ele>262</ele>
        <time>2012-09-23T09:02:11Z</time>
      </trkpt>
      <trkpt lat="43.16569" lon="1.59093">
        <ele>262</ele>
        <time>2012-09-23T09:02:14Z</time>
      </trkpt>
      <trkpt lat="43.16575" lon="1.59087">
        <ele>262</ele>
        <time>2012-09-23T09:02:16Z</time>
      </trkpt>
      <trkpt lat="43.16579" lon="1.5908">
        <ele>262</ele>
        <time>2012-09-23T09:02:19Z</time>
      </trkpt>
      <trkpt lat="43.16587" lon="1.59068">
        <ele>262</ele>
        <time>2012-09-23T09:02:21Z</time>
      </trkpt>
      <trkpt lat="43.16592" lon="1.59062">
        <ele>262</ele>
        <time>2012-09-23T09:02:23Z</time>
      </trkpt>
      <trkpt lat="43.16598" lon="1.59055">
        <ele>262</ele>
        <time>2012-09-23T09:02:25Z</time>
      </trkpt>
      <trkpt lat="43.16603" lon="1.59048">
        <ele>262</ele>
        <time>2012-09-23T09:02:27Z</time>
      </trkpt>
      <trkpt lat="43.16608" lon="1.59042">
        <ele>262</ele>
        <time>2012-09-23T09:02:29Z</time>
      </trkpt>
      <trkpt lat="43.16612" lon="1.59037">
        <ele>262</ele>
        <time>2012-09-23T09:02:31Z</time>
      </trkpt>
      <trkpt lat="43.16616" lon="1.59032">
        <ele>262</ele>
        <time>2012-09-23T09:02:33Z</time>
      </trkpt>
      <trkpt lat="43.16615" lon="1.59031">
        <ele>262</ele>
        <time>2012-09-23T09:02:37Z</time>
      </trkpt>
      <trkpt lat="43.16611" lon="1.59037">
        <ele>262</ele>
        <time>2012-09-23T09:02:39Z</time>
      </trkpt>
      <trkpt lat="43.16605" lon="1.59045">
        <ele>262</ele>
        <time>2012-09-23T09:02:41Z</time>
      </trkpt>
      <trkpt lat="43.16598" lon="1.59052">
        <ele>262</ele>
        <time>2012-09-23T09:02:43Z</time>
      </trkpt>
      <trkpt lat="43.1659" lon="1.59062">
        <ele>262</ele>
        <time>2012-09-23T09:02:45Z</time>
      </trkpt>
      <trkpt lat="43.16583" lon="1.59073">
        <ele>262</ele>
        <time>2012-09-23T09:02:47Z</time>
      </trkpt>
      <trkpt lat="43.16576" lon="1.59085">
        <ele>262</ele>
        <time>2012-09-23T09:02:49Z</time>
      </trkpt>
      <trkpt lat="43.16565" lon="1.59103">
        <ele>262</ele>
        <time>2012-09-23T09:02:52Z</time>
      </trkpt>
      <trkpt lat="43.16563" lon="1.5912">
        <ele>262</ele>
        <time>2012-09-23T09:02:54Z</time>
      </trkpt>
      <trkpt lat="43.16568" lon="1.59143">
        <ele>262</ele>
        <time>2012-09-23T09:02:57Z</time>
      </trkpt>
      <trkpt lat="43.16568" lon="1.59153">
        <ele>262</ele>
        <time>2012-09-23T09:02:59Z</time>
      </trkpt>
      <trkpt lat="43.16569" lon="1.59159">
        <ele>262</ele>
        <time>2012-09-23T09:03:02Z</time>
      </trkpt>
      <trkpt lat="43.16574" lon="1.59162">
        <ele>261</ele>
        <time>2012-09-23T09:03:04Z</time>
      </trkpt>
      <trkpt lat="43.16583" lon="1.59165">
        <ele>260</ele>
        <time>2012-09-23T09:03:06Z</time>
      </trkpt>
      <trkpt lat="43.16597" lon="1.5917">
        <ele>259</ele>
        <time>2012-09-23T09:03:08Z</time>
      </trkpt>
      <trkpt lat="43.16615" lon="1.59179">
        <ele>257</ele>
        <time>2012-09-23T09:03:11Z</time>
      </trkpt>
      <trkpt lat="43.16624" lon="1.59184">
        <ele>256</ele>
        <time>2012-09-23T09:03:13Z</time>
      </trkpt>
      <trkpt lat="43.16629" lon="1.59176">
        <ele>255</ele>
        <time>2012-09-23T09:03:15Z</time>
      </trkpt>
      <trkpt lat="43.16631" lon="1.59162">
        <ele>254</ele>
        <time>2012-09-23T09:03:17Z</time>
      </trkpt>
      <trkpt lat="43.16636" lon="1.59149">
        <ele>253</ele>
        <time>2012-09-23T09:03:19Z</time>
      </trkpt>
      <trkpt lat="43.16651" lon="1.59139">
        <ele>253</ele>
        <time>2012-09-23T09:03:22Z</time>
      </trkpt>
      <trkpt lat="43.16662" lon="1.59132">
        <ele>253</ele>
        <time>2012-09-23T09:03:24Z</time>
      </trkpt>
      <trkpt lat="43.16678" lon="1.5912">
        <ele>253</ele>
        <time>2012-09-23T09:03:27Z</time>
      </trkpt>
      <trkpt lat="43.16685" lon="1.59109">
        <ele>253</ele>
        <time>2012-09-23T09:03:29Z</time>
      </trkpt>
      <trkpt lat="43.16691" lon="1.59097">
        <ele>253</ele>
        <time>2012-09-23T09:03:31Z</time>
      </trkpt>
      <trkpt lat="43.16699" lon="1.59085">
        <ele>253</ele>
        <time>2012-09-23T09:03:34Z</time>
      </trkpt>
      <trkpt lat="43.1671" lon="1.5908">
        <ele>253</ele>
        <time>2012-09-23T09:03:37Z</time>
      </trkpt>
      <trkpt lat="43.16716" lon="1.59077">
        <ele>253</ele>
        <time>2012-09-23T09:03:39Z</time>
      </trkpt>
      <trkpt lat="43.16725" lon="1.59071">
        <ele>254</ele>
        <time>2012-09-23T09:03:42Z</time>
      </trkpt>
      <trkpt lat="43.16733" lon="1.59065">
        <ele>256</ele>
        <time>2012-09-23T09:03:45Z</time>
      </trkpt>
      <trkpt lat="43.16741" lon="1.59059">
        <ele>258</ele>
        <time>2012-09-23T09:03:48Z</time>
      </trkpt>
      <trkpt lat="43.16745" lon="1.59058">
        <ele>259</ele>
        <time>2012-09-23T09:03:50Z</time>
      </trkpt>
      <trkpt lat="43.16747" lon="1.59058">
        <ele>260</ele>
        <time>2012-09-23T09:03:52Z</time>
      </trkpt>
      <trkpt lat="43.1675" lon="1.59058">
        <ele>261</ele>
        <time>2012-09-23T09:03:55Z</time>
      </trkpt>
      <trkpt lat="43.16749" lon="1.5906">
        <ele>261</ele>
        <time>2012-09-23T09:03:57Z</time>
      </trkpt>
      <trkpt lat="43.1675" lon="1.59062">
        <ele>263</ele>
        <time>2012-09-23T09:03:59Z</time>
      </trkpt>
      <trkpt lat="43.16749" lon="1.5906">
        <ele>265</ele>
        <time>2012-09-23T09:04:03Z</time>
      </trkpt>
      <trkpt lat="43.16745" lon="1.5906">
        <ele>265</ele>
        <time>2012-09-23T09:04:06Z</time>
      </trkpt>
      <trkpt lat="43.1674" lon="1.59063">
        <ele>265</ele>
        <time>2012-09-23T09:04:08Z</time>
      </trkpt>
      <trkpt lat="43.16731" lon="1.59067">
        <ele>265</ele>
        <time>2012-09-23T09:04:10Z</time>
      </trkpt>
      <trkpt lat="43.16717" lon="1.59077">
        <ele>264</ele>
        <time>2012-09-23T09:04:13Z</time>
      </trkpt>
      <trkpt lat="43.16709" lon="1.59082">
        <ele>262</ele>
        <time>2012-09-23T09:04:15Z</time>
      </trkpt>
      <trkpt lat="43.167" lon="1.59084">
        <ele>260</ele>
        <time>2012-09-23T09:04:18Z</time>
      </trkpt>
      <trkpt lat="43.16699" lon="1.59083">
        <ele>260</ele>
        <time>2012-09-23T09:04:23Z</time>
      </trkpt>
      <trkpt lat="43.16699" lon="1.59081">
        <ele>260</ele>
        <time>2012-09-23T09:04:26Z</time>
      </trkpt>
      <trkpt lat="43.16703" lon="1.59077">
        <ele>260</ele>
        <time>2012-09-23T09:04:30Z</time>
      </trkpt>
      <trkpt lat="43.16704" lon="1.59076">
        <ele>259</ele>
        <time>2012-09-23T09:04:33Z</time>
      </trkpt>
      <trkpt lat="43.16704" lon="1.59072">
        <ele>258</ele>
        <time>2012-09-23T09:04:35Z</time>
      </trkpt>
      <trkpt lat="43.16707" lon="1.59071">
        <ele>257</ele>
        <time>2012-09-23T09:04:40Z</time>
      </trkpt>
      <trkpt lat="43.16706" lon="1.59075">
        <ele>257</ele>
        <time>2012-09-23T09:04:42Z</time>
      </trkpt>
      <trkpt lat="43.16705" lon="1.59077">
        <ele>257</ele>
        <time>2012-09-23T09:04:48Z</time>
      </trkpt>
      <trkpt lat="43.16704" lon="1.59074">
        <ele>257</ele>
        <time>2012-09-23T09:04:54Z</time>
      </trkpt>
      <trkpt lat="43.16705" lon="1.5907">
        <ele>257</ele>
        <time>2012-09-23T09:04:56Z</time>
      </trkpt>
      <trkpt lat="43.16705" lon="1.59067">
        <ele>256</ele>
        <time>2012-09-23T09:04:59Z</time>
      </trkpt>
      <trkpt lat="43.167" lon="1.59076">
        <ele>256</ele>
        <time>2012-09-23T09:05:02Z</time>
      </trkpt>
      <trkpt lat="43.16701" lon="1.59081">
        <ele>255</ele>
        <time>2012-09-23T09:05:04Z</time>
      </trkpt>
      <trkpt lat="43.16702" lon="1.59083">
        <ele>255</ele>
        <time>2012-09-23T09:05:07Z</time>
      </trkpt>
      <trkpt lat="43.16703" lon="1.59082">
        <ele>255</ele>
        <time>2012-09-23T09:05:17Z</time>
      </trkpt>
      <trkpt lat="43.16708" lon="1.59082">
        <ele>255</ele>
        <time>2012-09-23T09:05:21Z</time>
      </trkpt>
      <trkpt lat="43.16711" lon="1.59079">
        <ele>255</ele>
        <time>2012-09-23T09:05:23Z</time>
      </trkpt>
      <trkpt lat="43.16716" lon="1.59076">
        <ele>255</ele>
        <time>2012-09-23T09:05:25Z</time>
      </trkpt>
      <trkpt lat="43.16721" lon="1.59073">
        <ele>255</ele>
        <time>2012-09-23T09:05:27Z</time>
      </trkpt>
      <trkpt lat="43.1673" lon="1.59066">
        <ele>255</ele>
        <time>2012-09-23T09:05:30Z</time>
      </trkpt>
      <trkpt lat="43.16737" lon="1.59063">
        <ele>256</ele>
        <time>2012-09-23T09:05:32Z</time>
      </trkpt>
      <trkpt lat="43.16747" lon="1.59059">
        <ele>258</ele>
        <time>2012-09-23T09:05:35Z</time>
      </trkpt>
      <trkpt lat="43.16755" lon="1.59057">
        <ele>260</ele>
        <time>2012-09-23T09:05:37Z</time>
      </trkpt>
      <trkpt lat="43.16765" lon="1.59055">
        <ele>262</ele>
        <time>2012-09-23T09:05:40Z</time>
      </trkpt>
      <trkpt lat="43.16772" lon="1.59055">
        <ele>264</ele>
        <time>2012-09-23T09:05:42Z</time>
      </trkpt>
      <trkpt lat="43.16785" lon="1.59052">
        <ele>267</ele>
        <time>2012-09-23T09:05:45Z</time>
      </trkpt>
      <trkpt lat="43.16793" lon="1.59052">
        <ele>268</ele>
        <time>2012-09-23T09:05:48Z</time>
      </trkpt>
      <trkpt lat="43.16806" lon="1.59053">
        <ele>270</ele>
        <time>2012-09-23T09:05:51Z</time>
      </trkpt>
      <trkpt lat="43.16818" lon="1.59055">
        <ele>271</ele>
        <time>2012-09-23T09:05:54Z</time>
      </trkpt>
      <trkpt lat="43.1683" lon="1.59061">
        <ele>274</ele>
        <time>2012-09-23T09:05:56Z</time>
      </trkpt>
      <trkpt lat="43.16836" lon="1.59066">
        <ele>276</ele>
        <time>2012-09-23T09:05:58Z</time>
      </trkpt>
      <trkpt lat="43.16849" lon="1.5907">
        <ele>278</ele>
        <time>2012-09-23T09:06:01Z</time>
      </trkpt>
      <trkpt lat="43.16859" lon="1.59072">
        <ele>279</ele>
        <time>2012-09-23T09:06:03Z</time>
      </trkpt>
      <trkpt lat="43.16868" lon="1.59072">
        <ele>279</ele>
        <time>2012-09-23T09:06:05Z</time>
      </trkpt>
      <trkpt lat="43.16882" lon="1.59073">
        <ele>279</ele>
        <time>2012-09-23T09:06:08Z</time>
      </trkpt>
      <trkpt lat="43.16892" lon="1.59074">
        <ele>279</ele>
        <time>2012-09-23T09:06:10Z</time>
      </trkpt>
      <trkpt lat="43.16903" lon="1.59073">
        <ele>279</ele>
        <time>2012-09-23T09:06:12Z</time>
      </trkpt>
      <trkpt lat="43.16914" lon="1.59074">
        <ele>279</ele>
        <time>2012-09-23T09:06:14Z</time>
      </trkpt>
      <trkpt lat="43.16927" lon="1.59074">
        <ele>279</ele>
        <time>2012-09-23T09:06:16Z</time>
      </trkpt>
      <trkpt lat="43.16938" lon="1.59075">
        <ele>278</ele>
        <time>2012-09-23T09:06:18Z</time>
      </trkpt>
      <trkpt lat="43.16949" lon="1.59079">
        <ele>276</ele>
        <time>2012-09-23T09:06:20Z</time>
      </trkpt>
      <trkpt lat="43.16959" lon="1.59086">
        <ele>275</ele>
        <time>2012-09-23T09:06:22Z</time>
      </trkpt>
      <trkpt lat="43.1697" lon="1.59096">
        <ele>273</ele>
        <time>2012-09-23T09:06:24Z</time>
      </trkpt>
      <trkpt lat="43.16982" lon="1.59105">
        <ele>272</ele>
        <time>2012-09-23T09:06:26Z</time>
      </trkpt>
      <trkpt lat="43.16995" lon="1.59116">
        <ele>270</ele>
        <time>2012-09-23T09:06:28Z</time>
      </trkpt>
      <trkpt lat="43.17012" lon="1.59126">
        <ele>268</ele>
        <time>2012-09-23T09:06:30Z</time>
      </trkpt>
      <trkpt lat="43.1703" lon="1.59132">
        <ele>266</ele>
        <time>2012-09-23T09:06:32Z</time>
      </trkpt>
      <trkpt lat="43.17059" lon="1.59144">
        <ele>263</ele>
        <time>2012-09-23T09:06:35Z</time>
      </trkpt>
      <trkpt lat="43.17077" lon="1.59154">
        <ele>261</ele>
        <time>2012-09-23T09:06:37Z</time>
      </trkpt>
      <trkpt lat="43.17093" lon="1.59166">
        <ele>259</ele>
        <time>2012-09-23T09:06:39Z</time>
      </trkpt>
      <trkpt lat="43.17099" lon="1.59187">
        <ele>257</ele>
        <time>2012-09-23T09:06:41Z</time>
      </trkpt>
      <trkpt lat="43.17109" lon="1.59202">
        <ele>255</ele>
        <time>2012-09-23T09:06:43Z</time>
      </trkpt>
      <trkpt lat="43.17123" lon="1.59216">
        <ele>253</ele>
        <time>2012-09-23T09:06:45Z</time>
      </trkpt>
      <trkpt lat="43.17142" lon="1.59236">
        <ele>250</ele>
        <time>2012-09-23T09:06:48Z</time>
      </trkpt>
      <trkpt lat="43.17161" lon="1.59254">
        <ele>248</ele>
        <time>2012-09-23T09:06:52Z</time>
      </trkpt>
      <trkpt lat="43.17179" lon="1.5927">
        <ele>248</ele>
        <time>2012-09-23T09:06:54Z</time>
      </trkpt>
      <trkpt lat="43.17191" lon="1.59278">
        <ele>248</ele>
        <time>2012-09-23T09:06:56Z</time>
      </trkpt>
      <trkpt lat="43.172" lon="1.59289">
        <ele>248</ele>
        <time>2012-09-23T09:06:58Z</time>
      </trkpt>
      <trkpt lat="43.17205" lon="1.59305">
        <ele>248</ele>
        <time>2012-09-23T09:07:00Z</time>
      </trkpt>
      <trkpt lat="43.17209" lon="1.59324">
        <ele>248</ele>
        <time>2012-09-23T09:07:02Z</time>
      </trkpt>
      <trkpt lat="43.1722" lon="1.5935">
        <ele>248</ele>
        <time>2012-09-23T09:07:05Z</time>
      </trkpt>
      <trkpt lat="43.17229" lon="1.59364">
        <ele>248</ele>
        <time>2012-09-23T09:07:07Z</time>
      </trkpt>
      <trkpt lat="43.17241" lon="1.59379">
        <ele>248</ele>
        <time>2012-09-23T09:07:10Z</time>
      </trkpt>
      <trkpt lat="43.17255" lon="1.59401">
        <ele>248</ele>
        <time>2012-09-23T09:07:12Z</time>
      </trkpt>
      <trkpt lat="43.17265" lon="1.59416">
        <ele>248</ele>
        <time>2012-09-23T09:07:14Z</time>
      </trkpt>
      <trkpt lat="43.1728" lon="1.59437">
        <ele>248</ele>
        <time>2012-09-23T09:07:17Z</time>
      </trkpt>
      <trkpt lat="43.1729" lon="1.59452">
        <ele>248</ele>
        <time>2012-09-23T09:07:19Z</time>
      </trkpt>
      <trkpt lat="43.17306" lon="1.59475">
        <ele>248</ele>
        <time>2012-09-23T09:07:22Z</time>
      </trkpt>
      <trkpt lat="43.17315" lon="1.59492">
        <ele>248</ele>
        <time>2012-09-23T09:07:24Z</time>
      </trkpt>
      <trkpt lat="43.17324" lon="1.59509">
        <ele>248</ele>
        <time>2012-09-23T09:07:26Z</time>
      </trkpt>
      <trkpt lat="43.17335" lon="1.59523">
        <ele>248</ele>
        <time>2012-09-23T09:07:28Z</time>
      </trkpt>
      <trkpt lat="43.17353" lon="1.59541">
        <ele>247</ele>
        <time>2012-09-23T09:07:31Z</time>
      </trkpt>
      <trkpt lat="43.17363" lon="1.5955">
        <ele>246</ele>
        <time>2012-09-23T09:07:34Z</time>
      </trkpt>
      <trkpt lat="43.17378" lon="1.59562">
        <ele>245</ele>
        <time>2012-09-23T09:07:36Z</time>
      </trkpt>
      <trkpt lat="43.17384" lon="1.59576">
        <ele>245</ele>
        <time>2012-09-23T09:07:38Z</time>
      </trkpt>
      <trkpt lat="43.17389" lon="1.59592">
        <ele>244</ele>
        <time>2012-09-23T09:07:40Z</time>
      </trkpt>
      <trkpt lat="43.17395" lon="1.59608">
        <ele>244</ele>
        <time>2012-09-23T09:07:42Z</time>
      </trkpt>
      <trkpt lat="43.17403" lon="1.5962">
        <ele>243</ele>
        <time>2012-09-23T09:07:44Z</time>
      </trkpt>
      <trkpt lat="43.17416" lon="1.59638">
        <ele>242</ele>
        <time>2012-09-23T09:07:47Z</time>
      </trkpt>
      <trkpt lat="43.17425" lon="1.5965">
        <ele>241</ele>
        <time>2012-09-23T09:07:50Z</time>
      </trkpt>
      <trkpt lat="43.1744" lon="1.59668">
        <ele>240</ele>
        <time>2012-09-23T09:07:52Z</time>
      </trkpt>
      <trkpt lat="43.1745" lon="1.59679">
        <ele>240</ele>
        <time>2012-09-23T09:07:54Z</time>
      </trkpt>
      <trkpt lat="43.17458" lon="1.59692">
        <ele>239</ele>
        <time>2012-09-23T09:07:56Z</time>
      </trkpt>
      <trkpt lat="43.17475" lon="1.59702">
        <ele>238</ele>
        <time>2012-09-23T09:07:59Z</time>
      </trkpt>
      <trkpt lat="43.17491" lon="1.59715">
        <ele>237</ele>
        <time>2012-09-23T09:08:02Z</time>
      </trkpt>
      <trkpt lat="43.175" lon="1.59727">
        <ele>237</ele>
        <time>2012-09-23T09:08:04Z</time>
      </trkpt>
      <trkpt lat="43.1751" lon="1.59738">
        <ele>237</ele>
        <time>2012-09-23T09:08:06Z</time>
      </trkpt>
      <trkpt lat="43.1752" lon="1.59748">
        <ele>237</ele>
        <time>2012-09-23T09:08:08Z</time>
      </trkpt>
      <trkpt lat="43.17529" lon="1.5976">
        <ele>236</ele>
        <time>2012-09-23T09:08:11Z</time>
      </trkpt>
      <trkpt lat="43.17543" lon="1.59777">
        <ele>235</ele>
        <time>2012-09-23T09:08:13Z</time>
      </trkpt>
      <trkpt lat="43.17557" lon="1.59791">
        <ele>234</ele>
        <time>2012-09-23T09:08:16Z</time>
      </trkpt>
      <trkpt lat="43.17572" lon="1.59805">
        <ele>233</ele>
        <time>2012-09-23T09:08:19Z</time>
      </trkpt>
      <trkpt lat="43.17585" lon="1.5981">
        <ele>233</ele>
        <time>2012-09-23T09:08:21Z</time>
      </trkpt>
      <trkpt lat="43.17596" lon="1.59811">
        <ele>233</ele>
        <time>2012-09-23T09:08:23Z</time>
      </trkpt>
      <trkpt lat="43.17601" lon="1.59811">
        <ele>234</ele>
        <time>2012-09-23T09:08:25Z</time>
      </trkpt>
      <trkpt lat="43.17609" lon="1.59814">
        <ele>237</ele>
        <time>2012-09-23T09:08:28Z</time>
      </trkpt>
      <trkpt lat="43.17614" lon="1.59816">
        <ele>239</ele>
        <time>2012-09-23T09:08:30Z</time>
      </trkpt>
      <trkpt lat="43.17619" lon="1.59824">
        <ele>240</ele>
        <time>2012-09-23T09:08:33Z</time>
      </trkpt>
      <trkpt lat="43.17623" lon="1.5983">
        <ele>241</ele>
        <time>2012-09-23T09:08:35Z</time>
      </trkpt>
      <trkpt lat="43.17629" lon="1.59835">
        <ele>241</ele>
        <time>2012-09-23T09:08:38Z</time>
      </trkpt>
      <trkpt lat="43.17639" lon="1.59838">
        <ele>241</ele>
        <time>2012-09-23T09:08:40Z</time>
      </trkpt>
      <trkpt lat="43.17646" lon="1.59843">
        <ele>241</ele>
        <time>2012-09-23T09:08:42Z</time>
      </trkpt>
      <trkpt lat="43.17651" lon="1.5985">
        <ele>241</ele>
        <time>2012-09-23T09:08:45Z</time>
      </trkpt>
      <trkpt lat="43.17664" lon="1.59859">
        <ele>241</ele>
        <time>2012-09-23T09:08:47Z</time>
      </trkpt>
      <trkpt lat="43.17673" lon="1.59866">
        <ele>241</ele>
        <time>2012-09-23T09:08:49Z</time>
      </trkpt>
      <trkpt lat="43.17683" lon="1.59876">
        <ele>241</ele>
        <time>2012-09-23T09:08:51Z</time>
      </trkpt>
      <trkpt lat="43.17691" lon="1.59888">
        <ele>241</ele>
        <time>2012-09-23T09:08:53Z</time>
      </trkpt>
      <trkpt lat="43.17697" lon="1.59913">
        <ele>241</ele>
        <time>2012-09-23T09:08:56Z</time>
      </trkpt>
      <trkpt lat="43.17702" lon="1.59929">
        <ele>241</ele>
        <time>2012-09-23T09:08:58Z</time>
      </trkpt>
      <trkpt lat="43.17712" lon="1.59945">
        <ele>241</ele>
        <time>2012-09-23T09:09:00Z</time>
      </trkpt>
      <trkpt lat="43.17729" lon="1.59966">
        <ele>241</ele>
        <time>2012-09-23T09:09:03Z</time>
      </trkpt>
      <trkpt lat="43.17747" lon="1.59983">
        <ele>241</ele>
        <time>2012-09-23T09:09:06Z</time>
      </trkpt>
      <trkpt lat="43.1776" lon="1.59987">
        <ele>241</ele>
        <time>2012-09-23T09:09:09Z</time>
      </trkpt>
      <trkpt lat="43.17778" lon="1.59978">
        <ele>241</ele>
        <time>2012-09-23T09:09:11Z</time>
      </trkpt>
      <trkpt lat="43.17782" lon="1.59964">
        <ele>241</ele>
        <time>2012-09-23T09:09:14Z</time>
      </trkpt>
      <trkpt lat="43.17787" lon="1.59944">
        <ele>241</ele>
        <time>2012-09-23T09:09:16Z</time>
      </trkpt>
      <trkpt lat="43.17792" lon="1.59932">
        <ele>241</ele>
        <time>2012-09-23T09:09:18Z</time>
      </trkpt>
      <trkpt lat="43.17798" lon="1.5992">
        <ele>241</ele>
        <time>2012-09-23T09:09:20Z</time>
      </trkpt>
      <trkpt lat="43.17803" lon="1.59906">
        <ele>241</ele>
        <time>2012-09-23T09:09:22Z</time>
      </trkpt>
      <trkpt lat="43.17805" lon="1.59893">
        <ele>241</ele>
        <time>2012-09-23T09:09:24Z</time>
      </trkpt>
      <trkpt lat="43.17812" lon="1.59878">
        <ele>241</ele>
        <time>2012-09-23T09:09:27Z</time>
      </trkpt>
      <trkpt lat="43.17819" lon="1.59866">
        <ele>241</ele>
        <time>2012-09-23T09:09:30Z</time>
      </trkpt>
      <trkpt lat="43.17833" lon="1.59853">
        <ele>241</ele>
        <time>2012-09-23T09:09:32Z</time>
      </trkpt>
      <trkpt lat="43.17844" lon="1.59845">
        <ele>241</ele>
        <time>2012-09-23T09:09:34Z</time>
      </trkpt>
      <trkpt lat="43.17855" lon="1.59839">
        <ele>241</ele>
        <time>2012-09-23T09:09:36Z</time>
      </trkpt>
      <trkpt lat="43.17867" lon="1.59834">
        <ele>241</ele>
        <time>2012-09-23T09:09:38Z</time>
      </trkpt>
      <trkpt lat="43.17879" lon="1.59827">
        <ele>241</ele>
        <time>2012-09-23T09:09:41Z</time>
      </trkpt>
      <trkpt lat="43.17896" lon="1.59815">
        <ele>241</ele>
        <time>2012-09-23T09:09:43Z</time>
      </trkpt>
      <trkpt lat="43.17908" lon="1.59807">
        <ele>241</ele>
        <time>2012-09-23T09:09:45Z</time>
      </trkpt>
      <trkpt lat="43.17919" lon="1.59801">
        <ele>241</ele>
        <time>2012-09-23T09:09:47Z</time>
      </trkpt>
      <trkpt lat="43.17924" lon="1.59789">
        <ele>241</ele>
        <time>2012-09-23T09:09:49Z</time>
      </trkpt>
      <trkpt lat="43.17922" lon="1.59774">
        <ele>241</ele>
        <time>2012-09-23T09:09:51Z</time>
      </trkpt>
      <trkpt lat="43.17914" lon="1.5976">
        <ele>241</ele>
        <time>2012-09-23T09:09:54Z</time>
      </trkpt>
      <trkpt lat="43.17912" lon="1.59755">
        <ele>241</ele>
        <time>2012-09-23T09:09:56Z</time>
      </trkpt>
      <trkpt lat="43.1791" lon="1.59754">
        <ele>241</ele>
        <time>2012-09-23T09:09:58Z</time>
      </trkpt>
      <trkpt lat="43.17908" lon="1.59751">
        <ele>244</ele>
        <time>2012-09-23T09:10:02Z</time>
      </trkpt>
      <trkpt lat="43.17905" lon="1.59752">
        <ele>249</ele>
        <time>2012-09-23T09:10:07Z</time>
      </trkpt>
      <trkpt lat="43.17905" lon="1.59751">
        <ele>253</ele>
        <time>2012-09-23T09:10:11Z</time>
      </trkpt>
      <trkpt lat="43.17906" lon="1.59748">
        <ele>254</ele>
        <time>2012-09-23T09:10:15Z</time>
      </trkpt>
      <trkpt lat="43.17907" lon="1.59746">
        <ele>254</ele>
        <time>2012-09-23T09:10:17Z</time>
      </trkpt>
      <trkpt lat="43.17908" lon="1.59743">
        <ele>255</ele>
        <time>2012-09-23T09:10:20Z</time>
      </trkpt>
      <trkpt lat="43.17909" lon="1.59741">
        <ele>255</ele>
        <time>2012-09-23T09:10:24Z</time>
      </trkpt>
      <trkpt lat="43.17909" lon="1.59737">
        <ele>255</ele>
        <time>2012-09-23T09:10:27Z</time>
      </trkpt>
      <trkpt lat="43.17909" lon="1.59734">
        <ele>256</ele>
        <time>2012-09-23T09:10:29Z</time>
      </trkpt>
      <trkpt lat="43.1791" lon="1.59732">
        <ele>257</ele>
        <time>2012-09-23T09:10:31Z</time>
      </trkpt>
      <trkpt lat="43.1791" lon="1.59728">
        <ele>257</ele>
        <time>2012-09-23T09:10:33Z</time>
      </trkpt>
      <trkpt lat="43.1791" lon="1.59724">
        <ele>257</ele>
        <time>2012-09-23T09:10:35Z</time>
      </trkpt>
      <trkpt lat="43.1791" lon="1.59713">
        <ele>257</ele>
        <time>2012-09-23T09:10:38Z</time>
      </trkpt>
      <trkpt lat="43.17911" lon="1.59708">
        <ele>257</ele>
        <time>2012-09-23T09:10:40Z</time>
      </trkpt>
      <trkpt lat="43.17914" lon="1.59705">
        <ele>257</ele>
        <time>2012-09-23T09:10:42Z</time>
      </trkpt>
      <trkpt lat="43.17924" lon="1.59706">
        <ele>257</ele>
        <time>2012-09-23T09:10:45Z</time>
      </trkpt>
      <trkpt lat="43.17931" lon="1.59706">
        <ele>257</ele>
        <time>2012-09-23T09:10:47Z</time>
      </trkpt>
      <trkpt lat="43.17944" lon="1.59704">
        <ele>257</ele>
        <time>2012-09-23T09:10:50Z</time>
      </trkpt>
      <trkpt lat="43.17957" lon="1.59704">
        <ele>257</ele>
        <time>2012-09-23T09:10:53Z</time>
      </trkpt>
      <trkpt lat="43.17965" lon="1.59705">
        <ele>256</ele>
        <time>2012-09-23T09:10:55Z</time>
      </trkpt>
      <trkpt lat="43.17979" lon="1.59704">
        <ele>255</ele>
        <time>2012-09-23T09:10:58Z</time>
      </trkpt>
      <trkpt lat="43.17987" lon="1.59698">
        <ele>255</ele>
        <time>2012-09-23T09:11:01Z</time>
      </trkpt>
      <trkpt lat="43.18" lon="1.59687">
        <ele>255</ele>
        <time>2012-09-23T09:11:03Z</time>
      </trkpt>
      <trkpt lat="43.18012" lon="1.59687">
        <ele>255</ele>
        <time>2012-09-23T09:11:06Z</time>
      </trkpt>
      <trkpt lat="43.18025" lon="1.5969">
        <ele>255</ele>
        <time>2012-09-23T09:11:09Z</time>
      </trkpt>
      <trkpt lat="43.18036" lon="1.59691">
        <ele>255</ele>
        <time>2012-09-23T09:11:12Z</time>
      </trkpt>
      <trkpt lat="43.18052" lon="1.59694">
        <ele>255</ele>
        <time>2012-09-23T09:11:14Z</time>
      </trkpt>
      <trkpt lat="43.18061" lon="1.59697">
        <ele>255</ele>
        <time>2012-09-23T09:11:16Z</time>
      </trkpt>
      <trkpt lat="43.1807" lon="1.59698">
        <ele>255</ele>
        <time>2012-09-23T09:11:18Z</time>
      </trkpt>
      <trkpt lat="43.1808" lon="1.59699">
        <ele>255</ele>
        <time>2012-09-23T09:11:20Z</time>
      </trkpt>
      <trkpt lat="43.18088" lon="1.59701">
        <ele>255</ele>
        <time>2012-09-23T09:11:22Z</time>
      </trkpt>
      <trkpt lat="43.18096" lon="1.59701">
        <ele>255</ele>
        <time>2012-09-23T09:11:24Z</time>
      </trkpt>
      <trkpt lat="43.18105" lon="1.59701">
        <ele>255</ele>
        <time>2012-09-23T09:11:26Z</time>
      </trkpt>
      <trkpt lat="43.18113" lon="1.597">
        <ele>255</ele>
        <time>2012-09-23T09:11:28Z</time>
      </trkpt>
      <trkpt lat="43.18122" lon="1.59699">
        <ele>255</ele>
        <time>2012-09-23T09:11:31Z</time>
      </trkpt>
      <trkpt lat="43.18127" lon="1.59695">
        <ele>255</ele>
        <time>2012-09-23T09:11:33Z</time>
      </trkpt>
      <trkpt lat="43.18131" lon="1.59687">
        <ele>256</ele>
        <time>2012-09-23T09:11:36Z</time>
      </trkpt>
      <trkpt lat="43.18134" lon="1.59686">
        <ele>257</ele>
        <time>2012-09-23T09:11:38Z</time>
      </trkpt>
      <trkpt lat="43.18139" lon="1.59686">
        <ele>259</ele>
        <time>2012-09-23T09:11:41Z</time>
      </trkpt>
      <trkpt lat="43.1814" lon="1.59685">
        <ele>259</ele>
        <time>2012-09-23T09:11:43Z</time>
      </trkpt>
      <trkpt lat="43.18143" lon="1.59682">
        <ele>259</ele>
        <time>2012-09-23T09:11:46Z</time>
      </trkpt>
      <trkpt lat="43.18143" lon="1.5968">
        <ele>259</ele>
        <time>2012-09-23T09:11:48Z</time>
      </trkpt>
      <trkpt lat="43.18144" lon="1.59679">
        <ele>259</ele>
        <time>2012-09-23T09:11:50Z</time>
      </trkpt>
      <trkpt lat="43.18143" lon="1.59675">
        <ele>260</ele>
        <time>2012-09-23T09:11:54Z</time>
      </trkpt>
      <trkpt lat="43.18143" lon="1.59674">
        <ele>261</ele>
        <time>2012-09-23T09:11:56Z</time>
      </trkpt>
      <trkpt lat="43.18143" lon="1.59672">
        <ele>263</ele>
        <time>2012-09-23T09:11:59Z</time>
      </trkpt>
      <trkpt lat="43.18142" lon="1.5967">
        <ele>267</ele>
        <time>2012-09-23T09:12:06Z</time>
      </trkpt>
      <trkpt lat="43.18142" lon="1.59666">
        <ele>268</ele>
        <time>2012-09-23T09:12:09Z</time>
      </trkpt>
      <trkpt lat="43.18141" lon="1.59663">
        <ele>268</ele>
        <time>2012-09-23T09:12:11Z</time>
      </trkpt>
      <trkpt lat="43.18141" lon="1.59661">
        <ele>268</ele>
        <time>2012-09-23T09:12:13Z</time>
      </trkpt>
      <trkpt lat="43.18141" lon="1.5966">
        <ele>268</ele>
        <time>2012-09-23T09:12:15Z</time>
      </trkpt>
      <trkpt lat="43.18141" lon="1.59658">
        <ele>268</ele>
        <time>2012-09-23T09:12:18Z</time>
      </trkpt>
      <trkpt lat="43.18142" lon="1.59655">
        <ele>268</ele>
        <time>2012-09-23T09:12:21Z</time>
      </trkpt>
      <trkpt lat="43.18142" lon="1.59653">
        <ele>268</ele>
        <time>2012-09-23T09:12:23Z</time>
      </trkpt>
      <trkpt lat="43.18144" lon="1.5965">
        <ele>268</ele>
        <time>2012-09-23T09:12:26Z</time>
      </trkpt>
      <trkpt lat="43.18144" lon="1.59648">
        <ele>269</ele>
        <time>2012-09-23T09:12:28Z</time>
      </trkpt>
      <trkpt lat="43.18145" lon="1.59645">
        <ele>270</ele>
        <time>2012-09-23T09:12:30Z</time>
      </trkpt>
      <trkpt lat="43.18147" lon="1.59643">
        <ele>271</ele>
        <time>2012-09-23T09:12:32Z</time>
      </trkpt>
      <trkpt lat="43.18148" lon="1.59639">
        <ele>272</ele>
        <time>2012-09-23T09:12:35Z</time>
      </trkpt>
      <trkpt lat="43.18149" lon="1.59637">
        <ele>272</ele>
        <time>2012-09-23T09:12:37Z</time>
      </trkpt>
      <trkpt lat="43.1815" lon="1.59635">
        <ele>273</ele>
        <time>2012-09-23T09:12:39Z</time>
      </trkpt>
      <trkpt lat="43.1815" lon="1.59632">
        <ele>275</ele>
        <time>2012-09-23T09:12:41Z</time>
      </trkpt>
      <trkpt lat="43.18151" lon="1.5963">
        <ele>277</ele>
        <time>2012-09-23T09:12:43Z</time>
      </trkpt>
      <trkpt lat="43.18151" lon="1.59626">
        <ele>280</ele>
        <time>2012-09-23T09:12:46Z</time>
      </trkpt>
      <trkpt lat="43.18153" lon="1.59625">
        <ele>280</ele>
        <time>2012-09-23T09:12:48Z</time>
      </trkpt>
      <trkpt lat="43.18153" lon="1.59623">
        <ele>281</ele>
        <time>2012-09-23T09:12:50Z</time>
      </trkpt>
      <trkpt lat="43.18154" lon="1.59619">
        <ele>282</ele>
        <time>2012-09-23T09:12:53Z</time>
      </trkpt>
      <trkpt lat="43.18154" lon="1.59617">
        <ele>283</ele>
        <time>2012-09-23T09:12:55Z</time>
      </trkpt>
      <trkpt lat="43.18155" lon="1.59615">
        <ele>283</ele>
        <time>2012-09-23T09:12:58Z</time>
      </trkpt>
      <trkpt lat="43.18156" lon="1.59614">
        <ele>283</ele>
        <time>2012-09-23T09:13:01Z</time>
      </trkpt>
      <trkpt lat="43.18154" lon="1.5961">
        <ele>284</ele>
        <time>2012-09-23T09:13:05Z</time>
      </trkpt>
      <trkpt lat="43.18155" lon="1.59606">
        <ele>286</ele>
        <time>2012-09-23T09:13:08Z</time>
      </trkpt>
      <trkpt lat="43.18157" lon="1.59604">
        <ele>286</ele>
        <time>2012-09-23T09:13:11Z</time>
      </trkpt>
      <trkpt lat="43.18158" lon="1.596">
        <ele>286</ele>
        <time>2012-09-23T09:13:16Z</time>
      </trkpt>
      <trkpt lat="43.18158" lon="1.59599">
        <ele>286</ele>
        <time>2012-09-23T09:13:19Z</time>
      </trkpt>
      <trkpt lat="43.1816" lon="1.59595">
        <ele>286</ele>
        <time>2012-09-23T09:13:22Z</time>
      </trkpt>
      <trkpt lat="43.18161" lon="1.59592">
        <ele>286</ele>
        <time>2012-09-23T09:13:25Z</time>
      </trkpt>
      <trkpt lat="43.1816" lon="1.59589">
        <ele>287</ele>
        <time>2012-09-23T09:13:29Z</time>
      </trkpt>
      <trkpt lat="43.18157" lon="1.59584">
        <ele>292</ele>
        <time>2012-09-23T09:13:35Z</time>
      </trkpt>
      <trkpt lat="43.18156" lon="1.59583">
        <ele>292</ele>
        <time>2012-09-23T09:13:37Z</time>
      </trkpt>
      <trkpt lat="43.18155" lon="1.59579">
        <ele>292</ele>
        <time>2012-09-23T09:13:42Z</time>
      </trkpt>
      <trkpt lat="43.18154" lon="1.59578">
        <ele>293</ele>
        <time>2012-09-23T09:13:45Z</time>
      </trkpt>
      <trkpt lat="43.18154" lon="1.59574">
        <ele>293</ele>
        <time>2012-09-23T09:13:47Z</time>
      </trkpt>
      <trkpt lat="43.18155" lon="1.59569">
        <ele>294</ele>
        <time>2012-09-23T09:13:50Z</time>
      </trkpt>
      <trkpt lat="43.18156" lon="1.59565">
        <ele>295</ele>
        <time>2012-09-23T09:13:53Z</time>
      </trkpt>
      <trkpt lat="43.18158" lon="1.59562">
        <ele>295</ele>
        <time>2012-09-23T09:13:57Z</time>
      </trkpt>
      <trkpt lat="43.18157" lon="1.5956">
        <ele>295</ele>
        <time>2012-09-23T09:14:01Z</time>
      </trkpt>
      <trkpt lat="43.18153" lon="1.59554">
        <ele>295</ele>
        <time>2012-09-23T09:14:03Z</time>
      </trkpt>
      <trkpt lat="43.18152" lon="1.59552">
        <ele>295</ele>
        <time>2012-09-23T09:14:07Z</time>
      </trkpt>
      <trkpt lat="43.18151" lon="1.5955">
        <ele>295</ele>
        <time>2012-09-23T09:14:09Z</time>
      </trkpt>
      <trkpt lat="43.1815" lon="1.59548">
        <ele>298</ele>
        <time>2012-09-23T09:14:14Z</time>
      </trkpt>
      <trkpt lat="43.1815" lon="1.59546">
        <ele>299</ele>
        <time>2012-09-23T09:14:16Z</time>
      </trkpt>
      <trkpt lat="43.1815" lon="1.59543">
        <ele>300</ele>
        <time>2012-09-23T09:14:20Z</time>
      </trkpt>
      <trkpt lat="43.18153" lon="1.5954">
        <ele>301</ele>
        <time>2012-09-23T09:14:24Z</time>
      </trkpt>
      <trkpt lat="43.18151" lon="1.59539">
        <ele>301</ele>
        <time>2012-09-23T09:14:26Z</time>
      </trkpt>
      <trkpt lat="43.18149" lon="1.59539">
        <ele>301</ele>
        <time>2012-09-23T09:14:29Z</time>
      </trkpt>
      <trkpt lat="43.18149" lon="1.59537">
        <ele>301</ele>
        <time>2012-09-23T09:14:31Z</time>
      </trkpt>
      <trkpt lat="43.18149" lon="1.59533">
        <ele>301</ele>
        <time>2012-09-23T09:14:34Z</time>
      </trkpt>
      <trkpt lat="43.18149" lon="1.59531">
        <ele>301</ele>
        <time>2012-09-23T09:14:37Z</time>
      </trkpt>
      <trkpt lat="43.1815" lon="1.59529">
        <ele>303</ele>
        <time>2012-09-23T09:14:39Z</time>
      </trkpt>
      <trkpt lat="43.1815" lon="1.59526">
        <ele>304</ele>
        <time>2012-09-23T09:14:41Z</time>
      </trkpt>
      <trkpt lat="43.1815" lon="1.59524">
        <ele>304</ele>
        <time>2012-09-23T09:14:43Z</time>
      </trkpt>
      <trkpt lat="43.1815" lon="1.59522">
        <ele>304</ele>
        <time>2012-09-23T09:14:45Z</time>
      </trkpt>
      <trkpt lat="43.18151" lon="1.5952">
        <ele>304</ele>
        <time>2012-09-23T09:14:47Z</time>
      </trkpt>
      <trkpt lat="43.1815" lon="1.59517">
        <ele>304</ele>
        <time>2012-09-23T09:14:49Z</time>
      </trkpt>
      <trkpt lat="43.18151" lon="1.59516">
        <ele>304</ele>
        <time>2012-09-23T09:14:51Z</time>
      </trkpt>
      <trkpt lat="43.18151" lon="1.59513">
        <ele>304</ele>
        <time>2012-09-23T09:14:53Z</time>
      </trkpt>
      <trkpt lat="43.18151" lon="1.59511">
        <ele>304</ele>
        <time>2012-09-23T09:14:56Z</time>
      </trkpt>
      <trkpt lat="43.18151" lon="1.5951">
        <ele>305</ele>
        <time>2012-09-23T09:14:58Z</time>
      </trkpt>
      <trkpt lat="43.1815" lon="1.59507">
        <ele>306</ele>
        <time>2012-09-23T09:15:01Z</time>
      </trkpt>
      <trkpt lat="43.1815" lon="1.59503">
        <ele>306</ele>
        <time>2012-09-23T09:15:05Z</time>
      </trkpt>
      <trkpt lat="43.18151" lon="1.59501">
        <ele>306</ele>
        <time>2012-09-23T09:15:08Z</time>
      </trkpt>
      <trkpt lat="43.18149" lon="1.59496">
        <ele>306</ele>
        <time>2012-09-23T09:15:10Z</time>
      </trkpt>
      <trkpt lat="43.18148" lon="1.59494">
        <ele>306</ele>
        <time>2012-09-23T09:15:12Z</time>
      </trkpt>
      <trkpt lat="43.18145" lon="1.59493">
        <ele>309</ele>
        <time>2012-09-23T09:15:17Z</time>
      </trkpt>
      <trkpt lat="43.18142" lon="1.59489">
        <ele>311</ele>
        <time>2012-09-23T09:15:23Z</time>
      </trkpt>
      <trkpt lat="43.18143" lon="1.59486">
        <ele>313</ele>
        <time>2012-09-23T09:15:25Z</time>
      </trkpt>
      <trkpt lat="43.18145" lon="1.59481">
        <ele>314</ele>
        <time>2012-09-23T09:15:28Z</time>
      </trkpt>
      <trkpt lat="43.18143" lon="1.5948">
        <ele>314</ele>
        <time>2012-09-23T09:15:33Z</time>
      </trkpt>
      <trkpt lat="43.18139" lon="1.5948">
        <ele>314</ele>
        <time>2012-09-23T09:15:35Z</time>
      </trkpt>
      <trkpt lat="43.18137" lon="1.5948">
        <ele>315</ele>
        <time>2012-09-23T09:15:37Z</time>
      </trkpt>
      <trkpt lat="43.18139" lon="1.59479">
        <ele>317</ele>
        <time>2012-09-23T09:15:40Z</time>
      </trkpt>
      <trkpt lat="43.18138" lon="1.59475">
        <ele>319</ele>
        <time>2012-09-23T09:15:45Z</time>
      </trkpt>
      <trkpt lat="43.18139" lon="1.5947">
        <ele>320</ele>
        <time>2012-09-23T09:15:47Z</time>
      </trkpt>
      <trkpt lat="43.18138" lon="1.59467">
        <ele>320</ele>
        <time>2012-09-23T09:15:49Z</time>
      </trkpt>
      <trkpt lat="43.18137" lon="1.59464">
        <ele>320</ele>
        <time>2012-09-23T09:15:52Z</time>
      </trkpt>
      <trkpt lat="43.18136" lon="1.59461">
        <ele>320</ele>
        <time>2012-09-23T09:15:55Z</time>
      </trkpt>
      <trkpt lat="43.18135" lon="1.59458">
        <ele>320</ele>
        <time>2012-09-23T09:15:57Z</time>
      </trkpt>
      <trkpt lat="43.18134" lon="1.59455">
        <ele>320</ele>
        <time>2012-09-23T09:15:59Z</time>
      </trkpt>
      <trkpt lat="43.18133" lon="1.59453">
        <ele>320</ele>
        <time>2012-09-23T09:16:01Z</time>
      </trkpt>
      <trkpt lat="43.18132" lon="1.59451">
        <ele>320</ele>
        <time>2012-09-23T09:16:03Z</time>
      </trkpt>
      <trkpt lat="43.18131" lon="1.59448">
        <ele>320</ele>
        <time>2012-09-23T09:16:05Z</time>
      </trkpt>
      <trkpt lat="43.18128" lon="1.59446">
        <ele>320</ele>
        <time>2012-09-23T09:16:07Z</time>
      </trkpt>
      <trkpt lat="43.18125" lon="1.59444">
        <ele>321</ele>
        <time>2012-09-23T09:16:09Z</time>
      </trkpt>
      <trkpt lat="43.18122" lon="1.59442">
        <ele>321</ele>
        <time>2012-09-23T09:16:11Z</time>
      </trkpt>
      <trkpt lat="43.18119" lon="1.5944">
        <ele>321</ele>
        <time>2012-09-23T09:16:13Z</time>
      </trkpt>
      <trkpt lat="43.18114" lon="1.59436">
        <ele>321</ele>
        <time>2012-09-23T09:16:16Z</time>
      </trkpt>
      <trkpt lat="43.18109" lon="1.59431">
        <ele>321</ele>
        <time>2012-09-23T09:16:19Z</time>
      </trkpt>
      <trkpt lat="43.18106" lon="1.59428">
        <ele>321</ele>
        <time>2012-09-23T09:16:21Z</time>
      </trkpt>
      <trkpt lat="43.18102" lon="1.59422">
        <ele>321</ele>
        <time>2012-09-23T09:16:24Z</time>
      </trkpt>
      <trkpt lat="43.181" lon="1.59419">
        <ele>321</ele>
        <time>2012-09-23T09:16:26Z</time>
      </trkpt>
      <trkpt lat="43.18096" lon="1.59416">
        <ele>321</ele>
        <time>2012-09-23T09:16:28Z</time>
      </trkpt>
      <trkpt lat="43.18093" lon="1.59412">
        <ele>321</ele>
        <time>2012-09-23T09:16:30Z</time>
      </trkpt>
      <trkpt lat="43.18089" lon="1.59409">
        <ele>321</ele>
        <time>2012-09-23T09:16:32Z</time>
      </trkpt>
      <trkpt lat="43.18083" lon="1.59404">
        <ele>321</ele>
        <time>2012-09-23T09:16:35Z</time>
      </trkpt>
      <trkpt lat="43.1808" lon="1.59401">
        <ele>321</ele>
        <time>2012-09-23T09:16:37Z</time>
      </trkpt>
      <trkpt lat="43.18076" lon="1.59397">
        <ele>321</ele>
        <time>2012-09-23T09:16:39Z</time>
      </trkpt>
      <trkpt lat="43.18074" lon="1.59392">
        <ele>321</ele>
        <time>2012-09-23T09:16:41Z</time>
      </trkpt>
      <trkpt lat="43.18071" lon="1.59386">
        <ele>321</ele>
        <time>2012-09-23T09:16:43Z</time>
      </trkpt>
      <trkpt lat="43.18068" lon="1.59381">
        <ele>322</ele>
        <time>2012-09-23T09:16:45Z</time>
      </trkpt>
      <trkpt lat="43.18062" lon="1.59376">
        <ele>325</ele>
        <time>2012-09-23T09:16:49Z</time>
      </trkpt>
      <trkpt lat="43.18058" lon="1.5937">
        <ele>328</ele>
        <time>2012-09-23T09:16:51Z</time>
      </trkpt>
      <trkpt lat="43.18055" lon="1.59365">
        <ele>329</ele>
        <time>2012-09-23T09:16:53Z</time>
      </trkpt>
      <trkpt lat="43.18052" lon="1.59361">
        <ele>331</ele>
        <time>2012-09-23T09:16:55Z</time>
      </trkpt>
      <trkpt lat="43.18052" lon="1.59355">
        <ele>332</ele>
        <time>2012-09-23T09:16:57Z</time>
      </trkpt>
      <trkpt lat="43.18052" lon="1.59351">
        <ele>333</ele>
        <time>2012-09-23T09:16:59Z</time>
      </trkpt>
      <trkpt lat="43.18055" lon="1.59347">
        <ele>334</ele>
        <time>2012-09-23T09:17:01Z</time>
      </trkpt>
      <trkpt lat="43.18058" lon="1.59343">
        <ele>334</ele>
        <time>2012-09-23T09:17:03Z</time>
      </trkpt>
      <trkpt lat="43.18058" lon="1.59338">
        <ele>334</ele>
        <time>2012-09-23T09:17:05Z</time>
      </trkpt>
      <trkpt lat="43.18055" lon="1.59332">
        <ele>334</ele>
        <time>2012-09-23T09:17:07Z</time>
      </trkpt>
      <trkpt lat="43.18052" lon="1.59325">
        <ele>334</ele>
        <time>2012-09-23T09:17:09Z</time>
      </trkpt>
      <trkpt lat="43.1805" lon="1.59317">
        <ele>334</ele>
        <time>2012-09-23T09:17:11Z</time>
      </trkpt>
      <trkpt lat="43.1805" lon="1.59304">
        <ele>334</ele>
        <time>2012-09-23T09:17:14Z</time>
      </trkpt>
      <trkpt lat="43.18048" lon="1.59295">
        <ele>334</ele>
        <time>2012-09-23T09:17:17Z</time>
      </trkpt>
      <trkpt lat="43.1805" lon="1.59286">
        <ele>334</ele>
        <time>2012-09-23T09:17:20Z</time>
      </trkpt>
      <trkpt lat="43.18051" lon="1.59276">
        <ele>334</ele>
        <time>2012-09-23T09:17:22Z</time>
      </trkpt>
      <trkpt lat="43.18053" lon="1.59273">
        <ele>335</ele>
        <time>2012-09-23T09:17:25Z</time>
      </trkpt>
      <trkpt lat="43.18055" lon="1.59272">
        <ele>335</ele>
        <time>2012-09-23T09:17:30Z</time>
      </trkpt>
      <trkpt lat="43.18057" lon="1.59272">
        <ele>335</ele>
        <time>2012-09-23T09:17:32Z</time>
      </trkpt>
      <trkpt lat="43.18058" lon="1.5927">
        <ele>335</ele>
        <time>2012-09-23T09:17:34Z</time>
      </trkpt>
      <trkpt lat="43.18061" lon="1.59269">
        <ele>335</ele>
        <time>2012-09-23T09:17:36Z</time>
      </trkpt>
      <trkpt lat="43.18064" lon="1.59268">
        <ele>335</ele>
        <time>2012-09-23T09:17:39Z</time>
      </trkpt>
      <trkpt lat="43.18066" lon="1.59266">
        <ele>335</ele>
        <time>2012-09-23T09:17:41Z</time>
      </trkpt>
      <trkpt lat="43.18069" lon="1.59266">
        <ele>332</ele>
        <time>2012-09-23T09:17:47Z</time>
      </trkpt>
      <trkpt lat="43.1807" lon="1.59265">
        <ele>330</ele>
        <time>2012-09-23T09:17:50Z</time>
      </trkpt>
      <trkpt lat="43.1807" lon="1.59264">
        <ele>330</ele>
        <time>2012-09-23T09:17:52Z</time>
      </trkpt>
      <trkpt lat="43.18072" lon="1.59263">
        <ele>330</ele>
        <time>2012-09-23T09:17:55Z</time>
      </trkpt>
      <trkpt lat="43.18073" lon="1.59263">
        <ele>330</ele>
        <time>2012-09-23T09:17:59Z</time>
      </trkpt>
      <trkpt lat="43.18074" lon="1.59262">
        <ele>333</ele>
        <time>2012-09-23T09:18:04Z</time>
      </trkpt>
      <trkpt lat="43.18076" lon="1.59261">
        <ele>333</ele>
        <time>2012-09-23T09:18:07Z</time>
      </trkpt>
      <trkpt lat="43.18076" lon="1.59264">
        <ele>333</ele>
        <time>2012-09-23T09:18:09Z</time>
      </trkpt>
      <trkpt lat="43.1808" lon="1.59263">
        <ele>334</ele>
        <time>2012-09-23T09:18:14Z</time>
      </trkpt>
      <trkpt lat="43.18083" lon="1.59259">
        <ele>334</ele>
        <time>2012-09-23T09:18:18Z</time>
      </trkpt>
      <trkpt lat="43.18084" lon="1.59257">
        <ele>335</ele>
        <time>2012-09-23T09:18:20Z</time>
      </trkpt>
      <trkpt lat="43.18086" lon="1.59257">
        <ele>335</ele>
        <time>2012-09-23T09:18:22Z</time>
      </trkpt>
      <trkpt lat="43.18087" lon="1.59256">
        <ele>336</ele>
        <time>2012-09-23T09:18:24Z</time>
      </trkpt>
      <trkpt lat="43.18089" lon="1.59256">
        <ele>338</ele>
        <time>2012-09-23T09:18:26Z</time>
      </trkpt>
      <trkpt lat="43.18092" lon="1.59257">
        <ele>342</ele>
        <time>2012-09-23T09:18:30Z</time>
      </trkpt>
      <trkpt lat="43.18095" lon="1.59258">
        <ele>344</ele>
        <time>2012-09-23T09:18:35Z</time>
      </trkpt>
      <trkpt lat="43.18096" lon="1.59259">
        <ele>344</ele>
        <time>2012-09-23T09:18:37Z</time>
      </trkpt>
      <trkpt lat="43.18097" lon="1.59261">
        <ele>344</ele>
        <time>2012-09-23T09:18:40Z</time>
      </trkpt>
      <trkpt lat="43.18097" lon="1.59263">
        <ele>344</ele>
        <time>2012-09-23T09:18:43Z</time>
      </trkpt>
      <trkpt lat="43.18102" lon="1.59267">
        <ele>344</ele>
        <time>2012-09-23T09:18:47Z</time>
      </trkpt>
      <trkpt lat="43.18106" lon="1.59268">
        <ele>344</ele>
        <time>2012-09-23T09:18:49Z</time>
      </trkpt>
      <trkpt lat="43.18111" lon="1.59269">
        <ele>342</ele>
        <time>2012-09-23T09:18:51Z</time>
      </trkpt>
      <trkpt lat="43.1812" lon="1.59268">
        <ele>341</ele>
        <time>2012-09-23T09:18:54Z</time>
      </trkpt>
      <trkpt lat="43.18126" lon="1.59268">
        <ele>341</ele>
        <time>2012-09-23T09:18:56Z</time>
      </trkpt>
      <trkpt lat="43.18134" lon="1.59267">
        <ele>341</ele>
        <time>2012-09-23T09:18:59Z</time>
      </trkpt>
      <trkpt lat="43.18139" lon="1.59263">
        <ele>341</ele>
        <time>2012-09-23T09:19:01Z</time>
      </trkpt>
      <trkpt lat="43.18142" lon="1.59259">
        <ele>341</ele>
        <time>2012-09-23T09:19:03Z</time>
      </trkpt>
      <trkpt lat="43.18145" lon="1.59255">
        <ele>341</ele>
        <time>2012-09-23T09:19:05Z</time>
      </trkpt>
      <trkpt lat="43.1815" lon="1.59253">
        <ele>340</ele>
        <time>2012-09-23T09:19:07Z</time>
      </trkpt>
      <trkpt lat="43.18156" lon="1.59253">
        <ele>340</ele>
        <time>2012-09-23T09:19:10Z</time>
      </trkpt>
      <trkpt lat="43.18166" lon="1.59252">
        <ele>339</ele>
        <time>2012-09-23T09:19:12Z</time>
      </trkpt>
      <trkpt lat="43.18174" lon="1.59252">
        <ele>338</ele>
        <time>2012-09-23T09:19:14Z</time>
      </trkpt>
      <trkpt lat="43.18183" lon="1.59253">
        <ele>337</ele>
        <time>2012-09-23T09:19:16Z</time>
      </trkpt>
      <trkpt lat="43.18191" lon="1.59259">
        <ele>337</ele>
        <time>2012-09-23T09:19:18Z</time>
      </trkpt>
      <trkpt lat="43.182" lon="1.59265">
        <ele>337</ele>
        <time>2012-09-23T09:19:20Z</time>
      </trkpt>
      <trkpt lat="43.18208" lon="1.59274">
        <ele>337</ele>
        <time>2012-09-23T09:19:22Z</time>
      </trkpt>
      <trkpt lat="43.18214" lon="1.59288">
        <ele>336</ele>
        <time>2012-09-23T09:19:24Z</time>
      </trkpt>
      <trkpt lat="43.18218" lon="1.59306">
        <ele>335</ele>
        <time>2012-09-23T09:19:26Z</time>
      </trkpt>
      <trkpt lat="43.18233" lon="1.59329">
        <ele>333</ele>
        <time>2012-09-23T09:19:29Z</time>
      </trkpt>
      <trkpt lat="43.18244" lon="1.59345">
        <ele>332</ele>
        <time>2012-09-23T09:19:31Z</time>
      </trkpt>
      <trkpt lat="43.18258" lon="1.5936">
        <ele>331</ele>
        <time>2012-09-23T09:19:33Z</time>
      </trkpt>
      <trkpt lat="43.1827" lon="1.59372">
        <ele>330</ele>
        <time>2012-09-23T09:19:35Z</time>
      </trkpt>
      <trkpt lat="43.18274" lon="1.59366">
        <ele>329</ele>
        <time>2012-09-23T09:19:38Z</time>
      </trkpt>
      <trkpt lat="43.18275" lon="1.59361">
        <ele>328</ele>
        <time>2012-09-23T09:19:40Z</time>
      </trkpt>
      <trkpt lat="43.18275" lon="1.59354">
        <ele>327</ele>
        <time>2012-09-23T09:19:42Z</time>
      </trkpt>
      <trkpt lat="43.18277" lon="1.59344">
        <ele>326</ele>
        <time>2012-09-23T09:19:45Z</time>
      </trkpt>
      <trkpt lat="43.18277" lon="1.59336">
        <ele>326</ele>
        <time>2012-09-23T09:19:47Z</time>
      </trkpt>
      <trkpt lat="43.18279" lon="1.59327">
        <ele>326</ele>
        <time>2012-09-23T09:19:50Z</time>
      </trkpt>
      <trkpt lat="43.1828" lon="1.59322">
        <ele>326</ele>
        <time>2012-09-23T09:19:52Z</time>
      </trkpt>
      <trkpt lat="43.18283" lon="1.59318">
        <ele>326</ele>
        <time>2012-09-23T09:19:54Z</time>
      </trkpt>
      <trkpt lat="43.18289" lon="1.59322">
        <ele>326</ele>
        <time>2012-09-23T09:19:57Z</time>
      </trkpt>
      <trkpt lat="43.18295" lon="1.59331">
        <ele>326</ele>
        <time>2012-09-23T09:20:00Z</time>
      </trkpt>
      <trkpt lat="43.18299" lon="1.59339">
        <ele>326</ele>
        <time>2012-09-23T09:20:02Z</time>
      </trkpt>
      <trkpt lat="43.18309" lon="1.59351">
        <ele>326</ele>
        <time>2012-09-23T09:20:05Z</time>
      </trkpt>
      <trkpt lat="43.1832" lon="1.59366">
        <ele>326</ele>
        <time>2012-09-23T09:20:08Z</time>
      </trkpt>
      <trkpt lat="43.18328" lon="1.59377">
        <ele>326</ele>
        <time>2012-09-23T09:20:10Z</time>
      </trkpt>
      <trkpt lat="43.18341" lon="1.59393">
        <ele>326</ele>
        <time>2012-09-23T09:20:13Z</time>
      </trkpt>
      <trkpt lat="43.18351" lon="1.59406">
        <ele>326</ele>
        <time>2012-09-23T09:20:15Z</time>
      </trkpt>
      <trkpt lat="43.18362" lon="1.59419">
        <ele>326</ele>
        <time>2012-09-23T09:20:17Z</time>
      </trkpt>
      <trkpt lat="43.18378" lon="1.5944">
        <ele>326</ele>
        <time>2012-09-23T09:20:20Z</time>
      </trkpt>
      <trkpt lat="43.1839" lon="1.59455">
        <ele>326</ele>
        <time>2012-09-23T09:20:22Z</time>
      </trkpt>
      <trkpt lat="43.18403" lon="1.59471">
        <ele>326</ele>
        <time>2012-09-23T09:20:24Z</time>
      </trkpt>
      <trkpt lat="43.18417" lon="1.59487">
        <ele>325</ele>
        <time>2012-09-23T09:20:26Z</time>
      </trkpt>
      <trkpt lat="43.1843" lon="1.59504">
        <ele>324</ele>
        <time>2012-09-23T09:20:28Z</time>
      </trkpt>
      <trkpt lat="43.1844" lon="1.59525">
        <ele>324</ele>
        <time>2012-09-23T09:20:30Z</time>
      </trkpt>
      <trkpt lat="43.18448" lon="1.59544">
        <ele>323</ele>
        <time>2012-09-23T09:20:32Z</time>
      </trkpt>
      <trkpt lat="43.18452" lon="1.59562">
        <ele>323</ele>
        <time>2012-09-23T09:20:34Z</time>
      </trkpt>
      <trkpt lat="43.18446" lon="1.59582">
        <ele>323</ele>
        <time>2012-09-23T09:20:37Z</time>
      </trkpt>
      <trkpt lat="43.18441" lon="1.59596">
        <ele>323</ele>
        <time>2012-09-23T09:20:39Z</time>
      </trkpt>
      <trkpt lat="43.18441" lon="1.59607">
        <ele>323</ele>
        <time>2012-09-23T09:20:41Z</time>
      </trkpt>
      <trkpt lat="43.18444" lon="1.5961">
        <ele>323</ele>
        <time>2012-09-23T09:20:44Z</time>
      </trkpt>
      <trkpt lat="43.18446" lon="1.5961">
        <ele>323</ele>
        <time>2012-09-23T09:20:46Z</time>
      </trkpt>
      <trkpt lat="43.18449" lon="1.59611">
        <ele>323</ele>
        <time>2012-09-23T09:20:48Z</time>
      </trkpt>
      <trkpt lat="43.18456" lon="1.59612">
        <ele>323</ele>
        <time>2012-09-23T09:20:50Z</time>
      </trkpt>
      <trkpt lat="43.18463" lon="1.59611">
        <ele>322</ele>
        <time>2012-09-23T09:20:52Z</time>
      </trkpt>
      <trkpt lat="43.18472" lon="1.59608">
        <ele>322</ele>
        <time>2012-09-23T09:20:54Z</time>
      </trkpt>
      <trkpt lat="43.18481" lon="1.59604">
        <ele>322</ele>
        <time>2012-09-23T09:20:56Z</time>
      </trkpt>
      <trkpt lat="43.18496" lon="1.59599">
        <ele>321</ele>
        <time>2012-09-23T09:20:59Z</time>
      </trkpt>
      <trkpt lat="43.18506" lon="1.59597">
        <ele>320</ele>
        <time>2012-09-23T09:21:01Z</time>
      </trkpt>
      <trkpt lat="43.18518" lon="1.59599">
        <ele>320</ele>
        <time>2012-09-23T09:21:03Z</time>
      </trkpt>
      <trkpt lat="43.1853" lon="1.59602">
        <ele>320</ele>
        <time>2012-09-23T09:21:05Z</time>
      </trkpt>
      <trkpt lat="43.18539" lon="1.59606">
        <ele>320</ele>
        <time>2012-09-23T09:21:07Z</time>
      </trkpt>
      <trkpt lat="43.18542" lon="1.59612">
        <ele>320</ele>
        <time>2012-09-23T09:21:09Z</time>
      </trkpt>
      <trkpt lat="43.18537" lon="1.59615">
        <ele>320</ele>
        <time>2012-09-23T09:21:12Z</time>
      </trkpt>
      <trkpt lat="43.18532" lon="1.59616">
        <ele>319</ele>
        <time>2012-09-23T09:21:14Z</time>
      </trkpt>
      <trkpt lat="43.18524" lon="1.59616">
        <ele>318</ele>
        <time>2012-09-23T09:21:16Z</time>
      </trkpt>
      <trkpt lat="43.18515" lon="1.59621">
        <ele>317</ele>
        <time>2012-09-23T09:21:18Z</time>
      </trkpt>
      <trkpt lat="43.18508" lon="1.59628">
        <ele>315</ele>
        <time>2012-09-23T09:21:20Z</time>
      </trkpt>
      <trkpt lat="43.185" lon="1.59635">
        <ele>313</ele>
        <time>2012-09-23T09:21:22Z</time>
      </trkpt>
      <trkpt lat="43.18488" lon="1.59645">
        <ele>310</ele>
        <time>2012-09-23T09:21:25Z</time>
      </trkpt>
      <trkpt lat="43.1848" lon="1.59649">
        <ele>308</ele>
        <time>2012-09-23T09:21:27Z</time>
      </trkpt>
      <trkpt lat="43.18468" lon="1.59652">
        <ele>305</ele>
        <time>2012-09-23T09:21:30Z</time>
      </trkpt>
      <trkpt lat="43.18464" lon="1.59657">
        <ele>302</ele>
        <time>2012-09-23T09:21:33Z</time>
      </trkpt>
      <trkpt lat="43.18468" lon="1.59657">
        <ele>300</ele>
        <time>2012-09-23T09:21:35Z</time>
      </trkpt>
      <trkpt lat="43.18473" lon="1.59659">
        <ele>297</ele>
        <time>2012-09-23T09:21:37Z</time>
      </trkpt>
      <trkpt lat="43.18473" lon="1.5966">
        <ele>294</ele>
        <time>2012-09-23T09:21:39Z</time>
      </trkpt>
      <trkpt lat="43.18475" lon="1.59661">
        <ele>291</ele>
        <time>2012-09-23T09:21:42Z</time>
      </trkpt>
      <trkpt lat="43.18463" lon="1.59669">
        <ele>289</ele>
        <time>2012-09-23T09:21:45Z</time>
      </trkpt>
      <trkpt lat="43.18455" lon="1.59675">
        <ele>289</ele>
        <time>2012-09-23T09:21:47Z</time>
      </trkpt>
      <trkpt lat="43.18447" lon="1.59679">
        <ele>289</ele>
        <time>2012-09-23T09:21:49Z</time>
      </trkpt>
      <trkpt lat="43.18439" lon="1.59684">
        <ele>289</ele>
        <time>2012-09-23T09:21:51Z</time>
      </trkpt>
      <trkpt lat="43.18432" lon="1.59695">
        <ele>289</ele>
        <time>2012-09-23T09:21:53Z</time>
      </trkpt>
      <trkpt lat="43.18426" lon="1.59707">
        <ele>289</ele>
        <time>2012-09-23T09:21:56Z</time>
      </trkpt>
      <trkpt lat="43.18434" lon="1.59714">
        <ele>289</ele>
        <time>2012-09-23T09:21:58Z</time>
      </trkpt>
      <trkpt lat="43.18444" lon="1.59727">
        <ele>289</ele>
        <time>2012-09-23T09:22:01Z</time>
      </trkpt>
      <trkpt lat="43.18452" lon="1.59739">
        <ele>288</ele>
        <time>2012-09-23T09:22:03Z</time>
      </trkpt>
      <trkpt lat="43.18466" lon="1.59755">
        <ele>285</ele>
        <time>2012-09-23T09:22:06Z</time>
      </trkpt>
      <trkpt lat="43.18474" lon="1.59764">
        <ele>283</ele>
        <time>2012-09-23T09:22:08Z</time>
      </trkpt>
      <trkpt lat="43.18475" lon="1.59771">
        <ele>280</ele>
        <time>2012-09-23T09:22:10Z</time>
      </trkpt>
      <trkpt lat="43.18468" lon="1.59773">
        <ele>278</ele>
        <time>2012-09-23T09:22:12Z</time>
      </trkpt>
      <trkpt lat="43.18458" lon="1.59773">
        <ele>276</ele>
        <time>2012-09-23T09:22:14Z</time>
      </trkpt>
      <trkpt lat="43.18443" lon="1.5977">
        <ele>273</ele>
        <time>2012-09-23T09:22:16Z</time>
      </trkpt>
      <trkpt lat="43.18429" lon="1.59768">
        <ele>270</ele>
        <time>2012-09-23T09:22:18Z</time>
      </trkpt>
      <trkpt lat="43.1841" lon="1.59771">
        <ele>265</ele>
        <time>2012-09-23T09:22:21Z</time>
      </trkpt>
      <trkpt lat="43.18398" lon="1.59777">
        <ele>263</ele>
        <time>2012-09-23T09:22:23Z</time>
      </trkpt>
      <trkpt lat="43.18391" lon="1.59787">
        <ele>261</ele>
        <time>2012-09-23T09:22:25Z</time>
      </trkpt>
      <trkpt lat="43.18396" lon="1.59806">
        <ele>258</ele>
        <time>2012-09-23T09:22:28Z</time>
      </trkpt>
      <trkpt lat="43.184" lon="1.59819">
        <ele>256</ele>
        <time>2012-09-23T09:22:30Z</time>
      </trkpt>
      <trkpt lat="43.18404" lon="1.59834">
        <ele>254</ele>
        <time>2012-09-23T09:22:32Z</time>
      </trkpt>
      <trkpt lat="43.18416" lon="1.59856">
        <ele>251</ele>
        <time>2012-09-23T09:22:35Z</time>
      </trkpt>
      <trkpt lat="43.18431" lon="1.59868">
        <ele>249</ele>
        <time>2012-09-23T09:22:37Z</time>
      </trkpt>
      <trkpt lat="43.18448" lon="1.5988">
        <ele>248</ele>
        <time>2012-09-23T09:22:39Z</time>
      </trkpt>
      <trkpt lat="43.18459" lon="1.59895">
        <ele>247</ele>
        <time>2012-09-23T09:22:41Z</time>
      </trkpt>
      <trkpt lat="43.18454" lon="1.59922">
        <ele>246</ele>
        <time>2012-09-23T09:22:44Z</time>
      </trkpt>
      <trkpt lat="43.1843" lon="1.59921">
        <ele>244</ele>
        <time>2012-09-23T09:22:47Z</time>
      </trkpt>
      <trkpt lat="43.18417" lon="1.59912">
        <ele>243</ele>
        <time>2012-09-23T09:22:49Z</time>
      </trkpt>
      <trkpt lat="43.18405" lon="1.59904">
        <ele>243</ele>
        <time>2012-09-23T09:22:51Z</time>
      </trkpt>
      <trkpt lat="43.18393" lon="1.5989">
        <ele>242</ele>
        <time>2012-09-23T09:22:54Z</time>
      </trkpt>
      <trkpt lat="43.18382" lon="1.59881">
        <ele>242</ele>
        <time>2012-09-23T09:22:56Z</time>
      </trkpt>
      <trkpt lat="43.18371" lon="1.5987">
        <ele>242</ele>
        <time>2012-09-23T09:22:58Z</time>
      </trkpt>
      <trkpt lat="43.18358" lon="1.59871">
        <ele>242</ele>
        <time>2012-09-23T09:23:00Z</time>
      </trkpt>
      <trkpt lat="43.18346" lon="1.59889">
        <ele>242</ele>
        <time>2012-09-23T09:23:02Z</time>
      </trkpt>
      <trkpt lat="43.18337" lon="1.59906">
        <ele>242</ele>
        <time>2012-09-23T09:23:04Z</time>
      </trkpt>
      <trkpt lat="43.18329" lon="1.59922">
        <ele>242</ele>
        <time>2012-09-23T09:23:06Z</time>
      </trkpt>
      <trkpt lat="43.18317" lon="1.59945">
        <ele>242</ele>
        <time>2012-09-23T09:23:09Z</time>
      </trkpt>
      <trkpt lat="43.18309" lon="1.5996">
        <ele>242</ele>
        <time>2012-09-23T09:23:11Z</time>
      </trkpt>
      <trkpt lat="43.18301" lon="1.59987">
        <ele>242</ele>
        <time>2012-09-23T09:23:14Z</time>
      </trkpt>
      <trkpt lat="43.18299" lon="1.60006">
        <ele>242</ele>
        <time>2012-09-23T09:23:16Z</time>
      </trkpt>
      <trkpt lat="43.18301" lon="1.60026">
        <ele>242</ele>
        <time>2012-09-23T09:23:18Z</time>
      </trkpt>
      <trkpt lat="43.18307" lon="1.60043">
        <ele>242</ele>
        <time>2012-09-23T09:23:20Z</time>
      </trkpt>
      <trkpt lat="43.1832" lon="1.60065">
        <ele>242</ele>
        <time>2012-09-23T09:23:23Z</time>
      </trkpt>
      <trkpt lat="43.18329" lon="1.60079">
        <ele>242</ele>
        <time>2012-09-23T09:23:25Z</time>
      </trkpt>
      <trkpt lat="43.18341" lon="1.60098">
        <ele>242</ele>
        <time>2012-09-23T09:23:28Z</time>
      </trkpt>
      <trkpt lat="43.18348" lon="1.6011">
        <ele>242</ele>
        <time>2012-09-23T09:23:30Z</time>
      </trkpt>
      <trkpt lat="43.18355" lon="1.60119">
        <ele>242</ele>
        <time>2012-09-23T09:23:32Z</time>
      </trkpt>
      <trkpt lat="43.18361" lon="1.60129">
        <ele>243</ele>
        <time>2012-09-23T09:23:34Z</time>
      </trkpt>
      <trkpt lat="43.1837" lon="1.6014">
        <ele>245</ele>
        <time>2012-09-23T09:23:37Z</time>
      </trkpt>
      <trkpt lat="43.18377" lon="1.60145">
        <ele>247</ele>
        <time>2012-09-23T09:23:39Z</time>
      </trkpt>
      <trkpt lat="43.18388" lon="1.60152">
        <ele>248</ele>
        <time>2012-09-23T09:23:42Z</time>
      </trkpt>
      <trkpt lat="43.18395" lon="1.60156">
        <ele>249</ele>
        <time>2012-09-23T09:23:44Z</time>
      </trkpt>
      <trkpt lat="43.18402" lon="1.60159">
        <ele>249</ele>
        <time>2012-09-23T09:23:46Z</time>
      </trkpt>
      <trkpt lat="43.18411" lon="1.60162">
        <ele>249</ele>
        <time>2012-09-23T09:23:48Z</time>
      </trkpt>
      <trkpt lat="43.18423" lon="1.60167">
        <ele>250</ele>
        <time>2012-09-23T09:23:51Z</time>
      </trkpt>
      <trkpt lat="43.18435" lon="1.60174">
        <ele>250</ele>
        <time>2012-09-23T09:23:54Z</time>
      </trkpt>
      <trkpt lat="43.1845" lon="1.60179">
        <ele>250</ele>
        <time>2012-09-23T09:23:57Z</time>
      </trkpt>
      <trkpt lat="43.1846" lon="1.60183">
        <ele>250</ele>
        <time>2012-09-23T09:23:59Z</time>
      </trkpt>
      <trkpt lat="43.18469" lon="1.60187">
        <ele>251</ele>
        <time>2012-09-23T09:24:01Z</time>
      </trkpt>
      <trkpt lat="43.18483" lon="1.60193">
        <ele>252</ele>
        <time>2012-09-23T09:24:04Z</time>
      </trkpt>
      <trkpt lat="43.18493" lon="1.60197">
        <ele>252</ele>
        <time>2012-09-23T09:24:06Z</time>
      </trkpt>
      <trkpt lat="43.18503" lon="1.602">
        <ele>252</ele>
        <time>2012-09-23T09:24:08Z</time>
      </trkpt>
      <trkpt lat="43.18515" lon="1.60204">
        <ele>252</ele>
        <time>2012-09-23T09:24:10Z</time>
      </trkpt>
      <trkpt lat="43.18528" lon="1.60207">
        <ele>252</ele>
        <time>2012-09-23T09:24:12Z</time>
      </trkpt>
      <trkpt lat="43.18539" lon="1.60212">
        <ele>252</ele>
        <time>2012-09-23T09:24:14Z</time>
      </trkpt>
      <trkpt lat="43.18549" lon="1.60222">
        <ele>252</ele>
        <time>2012-09-23T09:24:16Z</time>
      </trkpt>
      <trkpt lat="43.18556" lon="1.60234">
        <ele>252</ele>
        <time>2012-09-23T09:24:18Z</time>
      </trkpt>
      <trkpt lat="43.18572" lon="1.60244">
        <ele>252</ele>
        <time>2012-09-23T09:24:21Z</time>
      </trkpt>
      <trkpt lat="43.18584" lon="1.60248">
        <ele>252</ele>
        <time>2012-09-23T09:24:23Z</time>
      </trkpt>
      <trkpt lat="43.18595" lon="1.60251">
        <ele>252</ele>
        <time>2012-09-23T09:24:25Z</time>
      </trkpt>
      <trkpt lat="43.1861" lon="1.60245">
        <ele>252</ele>
        <time>2012-09-23T09:24:28Z</time>
      </trkpt>
      <trkpt lat="43.18618" lon="1.60238">
        <ele>252</ele>
        <time>2012-09-23T09:24:30Z</time>
      </trkpt>
      <trkpt lat="43.18623" lon="1.60226">
        <ele>252</ele>
        <time>2012-09-23T09:24:32Z</time>
      </trkpt>
      <trkpt lat="43.18629" lon="1.60213">
        <ele>252</ele>
        <time>2012-09-23T09:24:34Z</time>
      </trkpt>
      <trkpt lat="43.18635" lon="1.60198">
        <ele>252</ele>
        <time>2012-09-23T09:24:36Z</time>
      </trkpt>
      <trkpt lat="43.18641" lon="1.60184">
        <ele>252</ele>
        <time>2012-09-23T09:24:38Z</time>
      </trkpt>
      <trkpt lat="43.1865" lon="1.6016">
        <ele>252</ele>
        <time>2012-09-23T09:24:41Z</time>
      </trkpt>
      <trkpt lat="43.18653" lon="1.60143">
        <ele>251</ele>
        <time>2012-09-23T09:24:43Z</time>
      </trkpt>
      <trkpt lat="43.18654" lon="1.60124">
        <ele>251</ele>
        <time>2012-09-23T09:24:45Z</time>
      </trkpt>
      <trkpt lat="43.18655" lon="1.60105">
        <ele>250</ele>
        <time>2012-09-23T09:24:47Z</time>
      </trkpt>
      <trkpt lat="43.18669" lon="1.60088">
        <ele>250</ele>
        <time>2012-09-23T09:24:50Z</time>
      </trkpt>
      <trkpt lat="43.18691" lon="1.60077">
        <ele>250</ele>
        <time>2012-09-23T09:24:53Z</time>
      </trkpt>
      <trkpt lat="43.18702" lon="1.60065">
        <ele>250</ele>
        <time>2012-09-23T09:24:55Z</time>
      </trkpt>
      <trkpt lat="43.18711" lon="1.60049">
        <ele>250</ele>
        <time>2012-09-23T09:24:57Z</time>
      </trkpt>
      <trkpt lat="43.18721" lon="1.60032">
        <ele>250</ele>
        <time>2012-09-23T09:24:59Z</time>
      </trkpt>
      <trkpt lat="43.18733" lon="1.60016">
        <ele>250</ele>
        <time>2012-09-23T09:25:01Z</time>
      </trkpt>
      <trkpt lat="43.18747" lon="1.60001">
        <ele>250</ele>
        <time>2012-09-23T09:25:03Z</time>
      </trkpt>
      <trkpt lat="43.18764" lon="1.59991">
        <ele>250</ele>
        <time>2012-09-23T09:25:05Z</time>
      </trkpt>
      <trkpt lat="43.18783" lon="1.59984">
        <ele>248</ele>
        <time>2012-09-23T09:25:07Z</time>
      </trkpt>
      <trkpt lat="43.188" lon="1.5997">
        <ele>247</ele>
        <time>2012-09-23T09:25:09Z</time>
      </trkpt>
      <trkpt lat="43.18829" lon="1.59949">
        <ele>244</ele>
        <time>2012-09-23T09:25:12Z</time>
      </trkpt>
      <trkpt lat="43.18857" lon="1.59923">
        <ele>241</ele>
        <time>2012-09-23T09:25:15Z</time>
      </trkpt>
      <trkpt lat="43.18875" lon="1.59907">
        <ele>239</ele>
        <time>2012-09-23T09:25:17Z</time>
      </trkpt>
      <trkpt lat="43.18893" lon="1.59904">
        <ele>237</ele>
        <time>2012-09-23T09:25:19Z</time>
      </trkpt>
      <trkpt lat="43.18907" lon="1.59916">
        <ele>236</ele>
        <time>2012-09-23T09:25:21Z</time>
      </trkpt>
      <trkpt lat="43.18921" lon="1.59928">
        <ele>235</ele>
        <time>2012-09-23T09:25:23Z</time>
      </trkpt>
      <trkpt lat="43.18935" lon="1.59936">
        <ele>235</ele>
        <time>2012-09-23T09:25:25Z</time>
      </trkpt>
      <trkpt lat="43.18949" lon="1.59944">
        <ele>235</ele>
        <time>2012-09-23T09:25:27Z</time>
      </trkpt>
      <trkpt lat="43.18957" lon="1.59956">
        <ele>235</ele>
        <time>2012-09-23T09:25:29Z</time>
      </trkpt>
      <trkpt lat="43.18956" lon="1.5997">
        <ele>235</ele>
        <time>2012-09-23T09:25:31Z</time>
      </trkpt>
      <trkpt lat="43.18953" lon="1.59982">
        <ele>235</ele>
        <time>2012-09-23T09:25:33Z</time>
      </trkpt>
      <trkpt lat="43.18952" lon="1.59995">
        <ele>235</ele>
        <time>2012-09-23T09:25:35Z</time>
      </trkpt>
      <trkpt lat="43.18953" lon="1.60003">
        <ele>235</ele>
        <time>2012-09-23T09:25:37Z</time>
      </trkpt>
      <trkpt lat="43.18955" lon="1.60009">
        <ele>235</ele>
        <time>2012-09-23T09:25:39Z</time>
      </trkpt>
      <trkpt lat="43.18959" lon="1.60015">
        <ele>236</ele>
        <time>2012-09-23T09:25:41Z</time>
      </trkpt>
      <trkpt lat="43.18964" lon="1.60018">
        <ele>237</ele>
        <time>2012-09-23T09:25:43Z</time>
      </trkpt>
      <trkpt lat="43.18964" lon="1.60016">
        <ele>238</ele>
        <time>2012-09-23T09:25:48Z</time>
      </trkpt>
      <trkpt lat="43.18963" lon="1.60015">
        <ele>238</ele>
        <time>2012-09-23T09:25:51Z</time>
      </trkpt>
      <trkpt lat="43.18962" lon="1.60014">
        <ele>238</ele>
        <time>2012-09-23T09:25:58Z</time>
      </trkpt>
      <trkpt lat="43.18961" lon="1.60014">
        <ele>238</ele>
        <time>2012-09-23T09:26:36Z</time>
      </trkpt>
      <trkpt lat="43.18962" lon="1.60015">
        <ele>238</ele>
        <time>2012-09-23T09:26:41Z</time>
      </trkpt>
      <trkpt lat="43.18964" lon="1.60016">
        <ele>238</ele>
        <time>2012-09-23T09:26:47Z</time>
      </trkpt>
      <trkpt lat="43.18966" lon="1.60014">
        <ele>238</ele>
        <time>2012-09-23T09:26:50Z</time>
      </trkpt>
      <trkpt lat="43.18973" lon="1.60016">
        <ele>238</ele>
        <time>2012-09-23T09:26:53Z</time>
      </trkpt>
      <trkpt lat="43.18975" lon="1.60022">
        <ele>238</ele>
        <time>2012-09-23T09:26:55Z</time>
      </trkpt>
      <trkpt lat="43.18971" lon="1.6003">
        <ele>238</ele>
        <time>2012-09-23T09:26:57Z</time>
      </trkpt>
      <trkpt lat="43.18973" lon="1.60034">
        <ele>238</ele>
        <time>2012-09-23T09:26:59Z</time>
      </trkpt>
      <trkpt lat="43.18981" lon="1.60032">
        <ele>238</ele>
        <time>2012-09-23T09:27:01Z</time>
      </trkpt>
      <trkpt lat="43.18989" lon="1.6003">
        <ele>238</ele>
        <time>2012-09-23T09:27:03Z</time>
      </trkpt>
      <trkpt lat="43.18997" lon="1.60027">
        <ele>238</ele>
        <time>2012-09-23T09:27:05Z</time>
      </trkpt>
      <trkpt lat="43.19004" lon="1.60023">
        <ele>238</ele>
        <time>2012-09-23T09:27:07Z</time>
      </trkpt>
      <trkpt lat="43.1901" lon="1.60019">
        <ele>238</ele>
        <time>2012-09-23T09:27:09Z</time>
      </trkpt>
      <trkpt lat="43.19017" lon="1.60015">
        <ele>238</ele>
        <time>2012-09-23T09:27:11Z</time>
      </trkpt>
      <trkpt lat="43.19023" lon="1.60011">
        <ele>238</ele>
        <time>2012-09-23T09:27:13Z</time>
      </trkpt>
      <trkpt lat="43.19027" lon="1.60007">
        <ele>238</ele>
        <time>2012-09-23T09:27:15Z</time>
      </trkpt>
      <trkpt lat="43.19025" lon="1.60005">
        <ele>238</ele>
        <time>2012-09-23T09:27:19Z</time>
      </trkpt>
      <trkpt lat="43.19022" lon="1.60001">
        <ele>238</ele>
        <time>2012-09-23T09:27:21Z</time>
      </trkpt>
      <trkpt lat="43.1902" lon="1.59996">
        <ele>240</ele>
        <time>2012-09-23T09:27:23Z</time>
      </trkpt>
      <trkpt lat="43.19016" lon="1.59991">
        <ele>242</ele>
        <time>2012-09-23T09:27:26Z</time>
      </trkpt>
      <trkpt lat="43.19011" lon="1.59988">
        <ele>243</ele>
        <time>2012-09-23T09:27:29Z</time>
      </trkpt>
      <trkpt lat="43.19007" lon="1.59985">
        <ele>243</ele>
        <time>2012-09-23T09:27:32Z</time>
      </trkpt>
      <trkpt lat="43.19002" lon="1.59985">
        <ele>242</ele>
        <time>2012-09-23T09:27:36Z</time>
      </trkpt>
      <trkpt lat="43.18998" lon="1.59988">
        <ele>240</ele>
        <time>2012-09-23T09:27:38Z</time>
      </trkpt>
      <trkpt lat="43.18993" lon="1.5999">
        <ele>240</ele>
        <time>2012-09-23T09:27:40Z</time>
      </trkpt>
      <trkpt lat="43.18988" lon="1.5999">
        <ele>240</ele>
        <time>2012-09-23T09:27:42Z</time>
      </trkpt>
      <trkpt lat="43.18985" lon="1.5999">
        <ele>240</ele>
        <time>2012-09-23T09:27:44Z</time>
      </trkpt>
      <trkpt lat="43.18983" lon="1.59986">
        <ele>240</ele>
        <time>2012-09-23T09:27:46Z</time>
      </trkpt>
      <trkpt lat="43.1898" lon="1.59987">
        <ele>239</ele>
        <time>2012-09-23T09:27:49Z</time>
      </trkpt>
      <trkpt lat="43.18982" lon="1.59985">
        <ele>239</ele>
        <time>2012-09-23T09:27:51Z</time>
      </trkpt>
      <trkpt lat="43.18986" lon="1.59981">
        <ele>239</ele>
        <time>2012-09-23T09:27:53Z</time>
      </trkpt>
      <trkpt lat="43.18991" lon="1.59977">
        <ele>238</ele>
        <time>2012-09-23T09:27:56Z</time>
      </trkpt>
      <trkpt lat="43.18994" lon="1.59973">
        <ele>237</ele>
        <time>2012-09-23T09:27:58Z</time>
      </trkpt>
      <trkpt lat="43.18995" lon="1.59969">
        <ele>237</ele>
        <time>2012-09-23T09:28:00Z</time>
      </trkpt>
      <trkpt lat="43.18995" lon="1.59966">
        <ele>236</ele>
        <time>2012-09-23T09:28:02Z</time>
      </trkpt>
      <trkpt lat="43.18996" lon="1.59963">
        <ele>235</ele>
        <time>2012-09-23T09:28:04Z</time>
      </trkpt>
      <trkpt lat="43.18998" lon="1.5996">
        <ele>234</ele>
        <time>2012-09-23T09:28:07Z</time>
      </trkpt>
      <trkpt lat="43.19" lon="1.59958">
        <ele>234</ele>
        <time>2012-09-23T09:28:14Z</time>
      </trkpt>
      <trkpt lat="43.19001" lon="1.59957">
        <ele>234</ele>
        <time>2012-09-23T09:28:16Z</time>
      </trkpt>
      <trkpt lat="43.19004" lon="1.59957">
        <ele>234</ele>
        <time>2012-09-23T09:28:20Z</time>
      </trkpt>
      <trkpt lat="43.19007" lon="1.5996">
        <ele>234</ele>
        <time>2012-09-23T09:28:23Z</time>
      </trkpt>
      <trkpt lat="43.1901" lon="1.59963">
        <ele>234</ele>
        <time>2012-09-23T09:28:25Z</time>
      </trkpt>
      <trkpt lat="43.19013" lon="1.59967">
        <ele>234</ele>
        <time>2012-09-23T09:28:27Z</time>
      </trkpt>
      <trkpt lat="43.19017" lon="1.59972">
        <ele>234</ele>
        <time>2012-09-23T09:28:30Z</time>
      </trkpt>
      <trkpt lat="43.1902" lon="1.59975">
        <ele>234</ele>
        <time>2012-09-23T09:28:32Z</time>
      </trkpt>
      <trkpt lat="43.19024" lon="1.59977">
        <ele>234</ele>
        <time>2012-09-23T09:28:34Z</time>
      </trkpt>
      <trkpt lat="43.19029" lon="1.5998">
        <ele>234</ele>
        <time>2012-09-23T09:28:36Z</time>
      </trkpt>
      <trkpt lat="43.19035" lon="1.59983">
        <ele>234</ele>
        <time>2012-09-23T09:28:38Z</time>
      </trkpt>
      <trkpt lat="43.19042" lon="1.59987">
        <ele>234</ele>
        <time>2012-09-23T09:28:40Z</time>
      </trkpt>
      <trkpt lat="43.19048" lon="1.59991">
        <ele>234</ele>
        <time>2012-09-23T09:28:42Z</time>
      </trkpt>
      <trkpt lat="43.1906" lon="1.59998">
        <ele>234</ele>
        <time>2012-09-23T09:28:45Z</time>
      </trkpt>
      <trkpt lat="43.19067" lon="1.60002">
        <ele>234</ele>
        <time>2012-09-23T09:28:47Z</time>
      </trkpt>
      <trkpt lat="43.19078" lon="1.60006">
        <ele>234</ele>
        <time>2012-09-23T09:28:50Z</time>
      </trkpt>
      <trkpt lat="43.19085" lon="1.60007">
        <ele>234</ele>
        <time>2012-09-23T09:28:52Z</time>
      </trkpt>
      <trkpt lat="43.19091" lon="1.60006">
        <ele>234</ele>
        <time>2012-09-23T09:28:54Z</time>
      </trkpt>
      <trkpt lat="43.19098" lon="1.60005">
        <ele>234</ele>
        <time>2012-09-23T09:28:56Z</time>
      </trkpt>
      <trkpt lat="43.19109" lon="1.6">
        <ele>235</ele>
        <time>2012-09-23T09:28:59Z</time>
      </trkpt>
      <trkpt lat="43.19116" lon="1.59997">
        <ele>235</ele>
        <time>2012-09-23T09:29:01Z</time>
      </trkpt>
      <trkpt lat="43.19121" lon="1.59997">
        <ele>236</ele>
        <time>2012-09-23T09:29:03Z</time>
      </trkpt>
      <trkpt lat="43.19126" lon="1.59998">
        <ele>236</ele>
        <time>2012-09-23T09:29:05Z</time>
      </trkpt>
      <trkpt lat="43.19131" lon="1.59997">
        <ele>237</ele>
        <time>2012-09-23T09:29:07Z</time>
      </trkpt>
      <trkpt lat="43.19136" lon="1.59997">
        <ele>237</ele>
        <time>2012-09-23T09:29:09Z</time>
      </trkpt>
      <trkpt lat="43.1914" lon="1.59999">
        <ele>238</ele>
        <time>2012-09-23T09:29:11Z</time>
      </trkpt>
      <trkpt lat="43.19144" lon="1.60002">
        <ele>241</ele>
        <time>2012-09-23T09:29:16Z</time>
      </trkpt>
      <trkpt lat="43.19144" lon="1.6">
        <ele>243</ele>
        <time>2012-09-23T09:29:18Z</time>
      </trkpt>
      <trkpt lat="43.19144" lon="1.59999">
        <ele>243</ele>
        <time>2012-09-23T09:29:21Z</time>
      </trkpt>
      <trkpt lat="43.19145" lon="1.59999">
        <ele>243</ele>
        <time>2012-09-23T09:29:25Z</time>
      </trkpt>
      <trkpt lat="43.19147" lon="1.59998">
        <ele>243</ele>
        <time>2012-09-23T09:29:27Z</time>
      </trkpt>
      <trkpt lat="43.1915" lon="1.59997">
        <ele>243</ele>
        <time>2012-09-23T09:29:29Z</time>
      </trkpt>
      <trkpt lat="43.19154" lon="1.59997">
        <ele>243</ele>
        <time>2012-09-23T09:29:31Z</time>
      </trkpt>
      <trkpt lat="43.19161" lon="1.59997">
        <ele>243</ele>
        <time>2012-09-23T09:29:34Z</time>
      </trkpt>
      <trkpt lat="43.19168" lon="1.59997">
        <ele>242</ele>
        <time>2012-09-23T09:29:36Z</time>
      </trkpt>
      <trkpt lat="43.19172" lon="1.59994">
        <ele>242</ele>
        <time>2012-09-23T09:29:38Z</time>
      </trkpt>
      <trkpt lat="43.19175" lon="1.5999">
        <ele>242</ele>
        <time>2012-09-23T09:29:40Z</time>
      </trkpt>
      <trkpt lat="43.19182" lon="1.59984">
        <ele>241</ele>
        <time>2012-09-23T09:29:43Z</time>
      </trkpt>
      <trkpt lat="43.19186" lon="1.5998">
        <ele>241</ele>
        <time>2012-09-23T09:29:45Z</time>
      </trkpt>
      <trkpt lat="43.19191" lon="1.59977">
        <ele>240</ele>
        <time>2012-09-23T09:29:47Z</time>
      </trkpt>
      <trkpt lat="43.19198" lon="1.59974">
        <ele>240</ele>
        <time>2012-09-23T09:29:49Z</time>
      </trkpt>
      <trkpt lat="43.19206" lon="1.59971">
        <ele>240</ele>
        <time>2012-09-23T09:29:52Z</time>
      </trkpt>
      <trkpt lat="43.19212" lon="1.59968">
        <ele>240</ele>
        <time>2012-09-23T09:29:55Z</time>
      </trkpt>
      <trkpt lat="43.19216" lon="1.59966">
        <ele>240</ele>
        <time>2012-09-23T09:29:57Z</time>
      </trkpt>
      <trkpt lat="43.19221" lon="1.59963">
        <ele>240</ele>
        <time>2012-09-23T09:29:59Z</time>
      </trkpt>
      <trkpt lat="43.19226" lon="1.59961">
        <ele>240</ele>
        <time>2012-09-23T09:30:01Z</time>
      </trkpt>
      <trkpt lat="43.19231" lon="1.59959">
        <ele>240</ele>
        <time>2012-09-23T09:30:03Z</time>
      </trkpt>
      <trkpt lat="43.19238" lon="1.59954">
        <ele>240</ele>
        <time>2012-09-23T09:30:06Z</time>
      </trkpt>
      <trkpt lat="43.19241" lon="1.5995">
        <ele>240</ele>
        <time>2012-09-23T09:30:08Z</time>
      </trkpt>
      <trkpt lat="43.19244" lon="1.59946">
        <ele>240</ele>
        <time>2012-09-23T09:30:10Z</time>
      </trkpt>
      <trkpt lat="43.19248" lon="1.59941">
        <ele>240</ele>
        <time>2012-09-23T09:30:12Z</time>
      </trkpt>
      <trkpt lat="43.19252" lon="1.59938">
        <ele>240</ele>
        <time>2012-09-23T09:30:14Z</time>
      </trkpt>
      <trkpt lat="43.19257" lon="1.59935">
        <ele>240</ele>
        <time>2012-09-23T09:30:16Z</time>
      </trkpt>
      <trkpt lat="43.19262" lon="1.59933">
        <ele>240</ele>
        <time>2012-09-23T09:30:18Z</time>
      </trkpt>
      <trkpt lat="43.19266" lon="1.59932">
        <ele>240</ele>
        <time>2012-09-23T09:30:20Z</time>
      </trkpt>
      <trkpt lat="43.19271" lon="1.5993">
        <ele>240</ele>
        <time>2012-09-23T09:30:22Z</time>
      </trkpt>
      <trkpt lat="43.19276" lon="1.5993">
        <ele>240</ele>
        <time>2012-09-23T09:30:24Z</time>
      </trkpt>
      <trkpt lat="43.19281" lon="1.5993">
        <ele>240</ele>
        <time>2012-09-23T09:30:26Z</time>
      </trkpt>
      <trkpt lat="43.19286" lon="1.59929">
        <ele>240</ele>
        <time>2012-09-23T09:30:28Z</time>
      </trkpt>
      <trkpt lat="43.19292" lon="1.59927">
        <ele>240</ele>
        <time>2012-09-23T09:30:30Z</time>
      </trkpt>
      <trkpt lat="43.19297" lon="1.59926">
        <ele>240</ele>
        <time>2012-09-23T09:30:32Z</time>
      </trkpt>
      <trkpt lat="43.19302" lon="1.59923">
        <ele>240</ele>
        <time>2012-09-23T09:30:34Z</time>
      </trkpt>
      <trkpt lat="43.19306" lon="1.59918">
        <ele>240</ele>
        <time>2012-09-23T09:30:36Z</time>
      </trkpt>
      <trkpt lat="43.1931" lon="1.59913">
        <ele>240</ele>
        <time>2012-09-23T09:30:38Z</time>
      </trkpt>
      <trkpt lat="43.19315" lon="1.5991">
        <ele>240</ele>
        <time>2012-09-23T09:30:40Z</time>
      </trkpt>
      <trkpt lat="43.1932" lon="1.59905">
        <ele>240</ele>
        <time>2012-09-23T09:30:42Z</time>
      </trkpt>
      <trkpt lat="43.19325" lon="1.59902">
        <ele>240</ele>
        <time>2012-09-23T09:30:44Z</time>
      </trkpt>
      <trkpt lat="43.19329" lon="1.59899">
        <ele>240</ele>
        <time>2012-09-23T09:30:46Z</time>
      </trkpt>
      <trkpt lat="43.19334" lon="1.59898">
        <ele>240</ele>
        <time>2012-09-23T09:30:48Z</time>
      </trkpt>
      <trkpt lat="43.1934" lon="1.59898">
        <ele>239</ele>
        <time>2012-09-23T09:30:50Z</time>
      </trkpt>
      <trkpt lat="43.19347" lon="1.59897">
        <ele>238</ele>
        <time>2012-09-23T09:30:53Z</time>
      </trkpt>
      <trkpt lat="43.1935" lon="1.59897">
        <ele>238</ele>
        <time>2012-09-23T09:30:55Z</time>
      </trkpt>
      <trkpt lat="43.19357" lon="1.59899">
        <ele>237</ele>
        <time>2012-09-23T09:30:58Z</time>
      </trkpt>
      <trkpt lat="43.19362" lon="1.59899">
        <ele>236</ele>
        <time>2012-09-23T09:31:00Z</time>
      </trkpt>
      <trkpt lat="43.19365" lon="1.599">
        <ele>235</ele>
        <time>2012-09-23T09:31:02Z</time>
      </trkpt>
      <trkpt lat="43.19368" lon="1.59899">
        <ele>235</ele>
        <time>2012-09-23T09:31:04Z</time>
      </trkpt>
      <trkpt lat="43.19372" lon="1.59898">
        <ele>234</ele>
        <time>2012-09-23T09:31:06Z</time>
      </trkpt>
      <trkpt lat="43.19375" lon="1.59897">
        <ele>234</ele>
        <time>2012-09-23T09:31:08Z</time>
      </trkpt>
      <trkpt lat="43.19379" lon="1.59896">
        <ele>234</ele>
        <time>2012-09-23T09:31:10Z</time>
      </trkpt>
      <trkpt lat="43.19382" lon="1.59896">
        <ele>234</ele>
        <time>2012-09-23T09:31:12Z</time>
      </trkpt>
      <trkpt lat="43.19387" lon="1.59897">
        <ele>234</ele>
        <time>2012-09-23T09:31:14Z</time>
      </trkpt>
      <trkpt lat="43.19391" lon="1.59899">
        <ele>234</ele>
        <time>2012-09-23T09:31:16Z</time>
      </trkpt>
      <trkpt lat="43.19397" lon="1.59902">
        <ele>233</ele>
        <time>2012-09-23T09:31:19Z</time>
      </trkpt>
      <trkpt lat="43.19402" lon="1.59906">
        <ele>233</ele>
        <time>2012-09-23T09:31:22Z</time>
      </trkpt>
      <trkpt lat="43.19405" lon="1.5991">
        <ele>233</ele>
        <time>2012-09-23T09:31:24Z</time>
      </trkpt>
      <trkpt lat="43.19409" lon="1.59913">
        <ele>233</ele>
        <time>2012-09-23T09:31:26Z</time>
      </trkpt>
      <trkpt lat="43.19413" lon="1.59915">
        <ele>233</ele>
        <time>2012-09-23T09:31:28Z</time>
      </trkpt>
      <trkpt lat="43.19416" lon="1.59917">
        <ele>233</ele>
        <time>2012-09-23T09:31:30Z</time>
      </trkpt>
      <trkpt lat="43.1942" lon="1.59919">
        <ele>233</ele>
        <time>2012-09-23T09:31:32Z</time>
      </trkpt>
      <trkpt lat="43.19424" lon="1.59921">
        <ele>233</ele>
        <time>2012-09-23T09:31:34Z</time>
      </trkpt>
      <trkpt lat="43.19428" lon="1.59923">
        <ele>233</ele>
        <time>2012-09-23T09:31:36Z</time>
      </trkpt>
      <trkpt lat="43.19432" lon="1.59926">
        <ele>233</ele>
        <time>2012-09-23T09:31:38Z</time>
      </trkpt>
      <trkpt lat="43.19436" lon="1.59928">
        <ele>233</ele>
        <time>2012-09-23T09:31:40Z</time>
      </trkpt>
      <trkpt lat="43.1944" lon="1.59931">
        <ele>233</ele>
        <time>2012-09-23T09:31:42Z</time>
      </trkpt>
      <trkpt lat="43.19444" lon="1.59933">
        <ele>233</ele>
        <time>2012-09-23T09:31:44Z</time>
      </trkpt>
      <trkpt lat="43.19447" lon="1.59937">
        <ele>233</ele>
        <time>2012-09-23T09:31:46Z</time>
      </trkpt>
      <trkpt lat="43.1945" lon="1.5994">
        <ele>233</ele>
        <time>2012-09-23T09:31:48Z</time>
      </trkpt>
      <trkpt lat="43.19454" lon="1.59946">
        <ele>233</ele>
        <time>2012-09-23T09:31:50Z</time>
      </trkpt>
      <trkpt lat="43.19458" lon="1.59951">
        <ele>233</ele>
        <time>2012-09-23T09:31:52Z</time>
      </trkpt>
      <trkpt lat="43.19461" lon="1.59956">
        <ele>233</ele>
        <time>2012-09-23T09:31:54Z</time>
      </trkpt>
      <trkpt lat="43.19465" lon="1.5996">
        <ele>233</ele>
        <time>2012-09-23T09:31:56Z</time>
      </trkpt>
      <trkpt lat="43.19469" lon="1.59963">
        <ele>233</ele>
        <time>2012-09-23T09:31:58Z</time>
      </trkpt>
      <trkpt lat="43.19473" lon="1.59966">
        <ele>233</ele>
        <time>2012-09-23T09:32:00Z</time>
      </trkpt>
      <trkpt lat="43.19476" lon="1.59968">
        <ele>233</ele>
        <time>2012-09-23T09:32:02Z</time>
      </trkpt>
      <trkpt lat="43.19479" lon="1.59971">
        <ele>233</ele>
        <time>2012-09-23T09:32:04Z</time>
      </trkpt>
      <trkpt lat="43.19483" lon="1.59975">
        <ele>233</ele>
        <time>2012-09-23T09:32:06Z</time>
      </trkpt>
      <trkpt lat="43.19487" lon="1.59978">
        <ele>233</ele>
        <time>2012-09-23T09:32:08Z</time>
      </trkpt>
      <trkpt lat="43.19493" lon="1.59983">
        <ele>233</ele>
        <time>2012-09-23T09:32:11Z</time>
      </trkpt>
      <trkpt lat="43.19497" lon="1.59986">
        <ele>233</ele>
        <time>2012-09-23T09:32:13Z</time>
      </trkpt>
      <trkpt lat="43.19501" lon="1.59991">
        <ele>233</ele>
        <time>2012-09-23T09:32:15Z</time>
      </trkpt>
      <trkpt lat="43.19505" lon="1.59995">
        <ele>233</ele>
        <time>2012-09-23T09:32:17Z</time>
      </trkpt>
      <trkpt lat="43.19508" lon="1.59997">
        <ele>233</ele>
        <time>2012-09-23T09:32:19Z</time>
      </trkpt>
      <trkpt lat="43.19513" lon="1.60001">
        <ele>233</ele>
        <time>2012-09-23T09:32:21Z</time>
      </trkpt>
      <trkpt lat="43.19518" lon="1.60006">
        <ele>233</ele>
        <time>2012-09-23T09:32:23Z</time>
      </trkpt>
      <trkpt lat="43.19522" lon="1.60012">
        <ele>233</ele>
        <time>2012-09-23T09:32:25Z</time>
      </trkpt>
      <trkpt lat="43.19527" lon="1.60017">
        <ele>233</ele>
        <time>2012-09-23T09:32:27Z</time>
      </trkpt>
      <trkpt lat="43.19532" lon="1.60021">
        <ele>233</ele>
        <time>2012-09-23T09:32:29Z</time>
      </trkpt>
      <trkpt lat="43.19536" lon="1.60025">
        <ele>233</ele>
        <time>2012-09-23T09:32:31Z</time>
      </trkpt>
      <trkpt lat="43.19542" lon="1.60031">
        <ele>233</ele>
        <time>2012-09-23T09:32:33Z</time>
      </trkpt>
      <trkpt lat="43.1955" lon="1.60042">
        <ele>233</ele>
        <time>2012-09-23T09:32:36Z</time>
      </trkpt>
      <trkpt lat="43.19557" lon="1.60048">
        <ele>233</ele>
        <time>2012-09-23T09:32:38Z</time>
      </trkpt>
      <trkpt lat="43.19563" lon="1.60053">
        <ele>233</ele>
        <time>2012-09-23T09:32:40Z</time>
      </trkpt>
      <trkpt lat="43.19569" lon="1.60058">
        <ele>233</ele>
        <time>2012-09-23T09:32:42Z</time>
      </trkpt>
      <trkpt lat="43.19576" lon="1.6006">
        <ele>233</ele>
        <time>2012-09-23T09:32:44Z</time>
      </trkpt>
      <trkpt lat="43.19583" lon="1.60063">
        <ele>233</ele>
        <time>2012-09-23T09:32:46Z</time>
      </trkpt>
      <trkpt lat="43.1959" lon="1.60066">
        <ele>233</ele>
        <time>2012-09-23T09:32:48Z</time>
      </trkpt>
      <trkpt lat="43.19597" lon="1.6007">
        <ele>233</ele>
        <time>2012-09-23T09:32:50Z</time>
      </trkpt>
      <trkpt lat="43.19604" lon="1.60072">
        <ele>233</ele>
        <time>2012-09-23T09:32:52Z</time>
      </trkpt>
      <trkpt lat="43.19611" lon="1.60074">
        <ele>234</ele>
        <time>2012-09-23T09:32:54Z</time>
      </trkpt>
      <trkpt lat="43.19618" lon="1.60078">
        <ele>235</ele>
        <time>2012-09-23T09:32:56Z</time>
      </trkpt>
      <trkpt lat="43.19625" lon="1.6008">
        <ele>235</ele>
        <time>2012-09-23T09:32:58Z</time>
      </trkpt>
      <trkpt lat="43.19632" lon="1.60084">
        <ele>235</ele>
        <time>2012-09-23T09:33:00Z</time>
      </trkpt>
      <trkpt lat="43.19638" lon="1.6009">
        <ele>235</ele>
        <time>2012-09-23T09:33:02Z</time>
      </trkpt>
      <trkpt lat="43.19643" lon="1.60092">
        <ele>236</ele>
        <time>2012-09-23T09:33:04Z</time>
      </trkpt>
      <trkpt lat="43.1965" lon="1.60096">
        <ele>236</ele>
        <time>2012-09-23T09:33:07Z</time>
      </trkpt>
      <trkpt lat="43.19655" lon="1.60097">
        <ele>236</ele>
        <time>2012-09-23T09:33:09Z</time>
      </trkpt>
      <trkpt lat="43.1966" lon="1.60096">
        <ele>236</ele>
        <time>2012-09-23T09:33:11Z</time>
      </trkpt>
      <trkpt lat="43.19668" lon="1.60095">
        <ele>236</ele>
        <time>2012-09-23T09:33:14Z</time>
      </trkpt>
      <trkpt lat="43.19673" lon="1.60093">
        <ele>236</ele>
        <time>2012-09-23T09:33:16Z</time>
      </trkpt>
      <trkpt lat="43.19679" lon="1.60093">
        <ele>236</ele>
        <time>2012-09-23T09:33:18Z</time>
      </trkpt>
      <trkpt lat="43.19685" lon="1.60092">
        <ele>236</ele>
        <time>2012-09-23T09:33:20Z</time>
      </trkpt>
      <trkpt lat="43.1969" lon="1.60093">
        <ele>236</ele>
        <time>2012-09-23T09:33:22Z</time>
      </trkpt>
      <trkpt lat="43.19695" lon="1.60096">
        <ele>236</ele>
        <time>2012-09-23T09:33:24Z</time>
      </trkpt>
      <trkpt lat="43.19699" lon="1.60097">
        <ele>236</ele>
        <time>2012-09-23T09:33:26Z</time>
      </trkpt>
      <trkpt lat="43.19703" lon="1.60101">
        <ele>236</ele>
        <time>2012-09-23T09:33:28Z</time>
      </trkpt>
      <trkpt lat="43.19706" lon="1.60104">
        <ele>236</ele>
        <time>2012-09-23T09:33:30Z</time>
      </trkpt>
      <trkpt lat="43.19711" lon="1.60107">
        <ele>236</ele>
        <time>2012-09-23T09:33:32Z</time>
      </trkpt>
      <trkpt lat="43.19715" lon="1.6011">
        <ele>236</ele>
        <time>2012-09-23T09:33:34Z</time>
      </trkpt>
      <trkpt lat="43.19719" lon="1.60112">
        <ele>236</ele>
        <time>2012-09-23T09:33:36Z</time>
      </trkpt>
      <trkpt lat="43.19724" lon="1.60113">
        <ele>236</ele>
        <time>2012-09-23T09:33:38Z</time>
      </trkpt>
      <trkpt lat="43.1973" lon="1.60113">
        <ele>236</ele>
        <time>2012-09-23T09:33:40Z</time>
      </trkpt>
      <trkpt lat="43.19735" lon="1.60115">
        <ele>236</ele>
        <time>2012-09-23T09:33:42Z</time>
      </trkpt>
      <trkpt lat="43.1974" lon="1.60117">
        <ele>236</ele>
        <time>2012-09-23T09:33:44Z</time>
      </trkpt>
      <trkpt lat="43.19744" lon="1.6012">
        <ele>235</ele>
        <time>2012-09-23T09:33:46Z</time>
      </trkpt>
      <trkpt lat="43.19749" lon="1.60123">
        <ele>235</ele>
        <time>2012-09-23T09:33:48Z</time>
      </trkpt>
      <trkpt lat="43.19754" lon="1.60126">
        <ele>234</ele>
        <time>2012-09-23T09:33:50Z</time>
      </trkpt>
      <trkpt lat="43.19757" lon="1.60129">
        <ele>234</ele>
        <time>2012-09-23T09:33:52Z</time>
      </trkpt>
      <trkpt lat="43.19761" lon="1.60132">
        <ele>234</ele>
        <time>2012-09-23T09:33:54Z</time>
      </trkpt>
      <trkpt lat="43.19765" lon="1.60135">
        <ele>234</ele>
        <time>2012-09-23T09:33:56Z</time>
      </trkpt>
      <trkpt lat="43.19769" lon="1.60137">
        <ele>234</ele>
        <time>2012-09-23T09:33:58Z</time>
      </trkpt>
      <trkpt lat="43.19773" lon="1.60139">
        <ele>234</ele>
        <time>2012-09-23T09:34:00Z</time>
      </trkpt>
      <trkpt lat="43.19778" lon="1.60141">
        <ele>234</ele>
        <time>2012-09-23T09:34:02Z</time>
      </trkpt>
      <trkpt lat="43.19784" lon="1.60142">
        <ele>234</ele>
        <time>2012-09-23T09:34:04Z</time>
      </trkpt>
      <trkpt lat="43.19789" lon="1.60146">
        <ele>234</ele>
        <time>2012-09-23T09:34:06Z</time>
      </trkpt>
      <trkpt lat="43.19793" lon="1.60148">
        <ele>234</ele>
        <time>2012-09-23T09:34:08Z</time>
      </trkpt>
      <trkpt lat="43.19797" lon="1.6015">
        <ele>234</ele>
        <time>2012-09-23T09:34:10Z</time>
      </trkpt>
      <trkpt lat="43.19801" lon="1.60152">
        <ele>234</ele>
        <time>2012-09-23T09:34:12Z</time>
      </trkpt>
      <trkpt lat="43.19805" lon="1.60155">
        <ele>234</ele>
        <time>2012-09-23T09:34:14Z</time>
      </trkpt>
      <trkpt lat="43.19809" lon="1.60157">
        <ele>234</ele>
        <time>2012-09-23T09:34:16Z</time>
      </trkpt>
      <trkpt lat="43.19814" lon="1.60158">
        <ele>234</ele>
        <time>2012-09-23T09:34:18Z</time>
      </trkpt>
      <trkpt lat="43.19817" lon="1.60158">
        <ele>234</ele>
        <time>2012-09-23T09:34:20Z</time>
      </trkpt>
      <trkpt lat="43.19822" lon="1.6016">
        <ele>234</ele>
        <time>2012-09-23T09:34:22Z</time>
      </trkpt>
      <trkpt lat="43.19827" lon="1.60161">
        <ele>234</ele>
        <time>2012-09-23T09:34:24Z</time>
      </trkpt>
      <trkpt lat="43.19832" lon="1.60162">
        <ele>234</ele>
        <time>2012-09-23T09:34:26Z</time>
      </trkpt>
      <trkpt lat="43.19836" lon="1.60162">
        <ele>234</ele>
        <time>2012-09-23T09:34:28Z</time>
      </trkpt>
      <trkpt lat="43.19838" lon="1.60165">
        <ele>234</ele>
        <time>2012-09-23T09:34:30Z</time>
      </trkpt>
      <trkpt lat="43.19844" lon="1.60166">
        <ele>235</ele>
        <time>2012-09-23T09:34:32Z</time>
      </trkpt>
      <trkpt lat="43.19848" lon="1.60167">
        <ele>235</ele>
        <time>2012-09-23T09:34:34Z</time>
      </trkpt>
      <trkpt lat="43.19854" lon="1.60169">
        <ele>235</ele>
        <time>2012-09-23T09:34:36Z</time>
      </trkpt>
      <trkpt lat="43.19861" lon="1.60172">
        <ele>235</ele>
        <time>2012-09-23T09:34:39Z</time>
      </trkpt>
      <trkpt lat="43.19866" lon="1.60176">
        <ele>235</ele>
        <time>2012-09-23T09:34:41Z</time>
      </trkpt>
      <trkpt lat="43.19871" lon="1.6018">
        <ele>235</ele>
        <time>2012-09-23T09:34:43Z</time>
      </trkpt>
      <trkpt lat="43.19875" lon="1.60183">
        <ele>235</ele>
        <time>2012-09-23T09:34:45Z</time>
      </trkpt>
      <trkpt lat="43.1988" lon="1.60186">
        <ele>235</ele>
        <time>2012-09-23T09:34:47Z</time>
      </trkpt>
      <trkpt lat="43.19885" lon="1.60188">
        <ele>235</ele>
        <time>2012-09-23T09:34:49Z</time>
      </trkpt>
      <trkpt lat="43.1989" lon="1.60189">
        <ele>235</ele>
        <time>2012-09-23T09:34:51Z</time>
      </trkpt>
      <trkpt lat="43.19895" lon="1.60191">
        <ele>235</ele>
        <time>2012-09-23T09:34:53Z</time>
      </trkpt>
      <trkpt lat="43.19902" lon="1.60194">
        <ele>235</ele>
        <time>2012-09-23T09:34:56Z</time>
      </trkpt>
      <trkpt lat="43.19908" lon="1.60196">
        <ele>234</ele>
        <time>2012-09-23T09:34:58Z</time>
      </trkpt>
      <trkpt lat="43.19913" lon="1.60199">
        <ele>234</ele>
        <time>2012-09-23T09:35:00Z</time>
      </trkpt>
      <trkpt lat="43.19918" lon="1.60202">
        <ele>234</ele>
        <time>2012-09-23T09:35:02Z</time>
      </trkpt>
      <trkpt lat="43.19923" lon="1.60204">
        <ele>233</ele>
        <time>2012-09-23T09:35:04Z</time>
      </trkpt>
      <trkpt lat="43.19928" lon="1.60206">
        <ele>233</ele>
        <time>2012-09-23T09:35:06Z</time>
      </trkpt>
      <trkpt lat="43.19936" lon="1.60209">
        <ele>232</ele>
        <time>2012-09-23T09:35:09Z</time>
      </trkpt>
      <trkpt lat="43.19941" lon="1.6021">
        <ele>232</ele>
        <time>2012-09-23T09:35:11Z</time>
      </trkpt>
      <trkpt lat="43.19945" lon="1.60212">
        <ele>232</ele>
        <time>2012-09-23T09:35:13Z</time>
      </trkpt>
      <trkpt lat="43.1995" lon="1.60213">
        <ele>232</ele>
        <time>2012-09-23T09:35:15Z</time>
      </trkpt>
      <trkpt lat="43.19955" lon="1.60216">
        <ele>232</ele>
        <time>2012-09-23T09:35:17Z</time>
      </trkpt>
      <trkpt lat="43.1996" lon="1.60219">
        <ele>232</ele>
        <time>2012-09-23T09:35:19Z</time>
      </trkpt>
      <trkpt lat="43.19965" lon="1.60221">
        <ele>232</ele>
        <time>2012-09-23T09:35:21Z</time>
      </trkpt>
      <trkpt lat="43.1997" lon="1.60224">
        <ele>232</ele>
        <time>2012-09-23T09:35:23Z</time>
      </trkpt>
      <trkpt lat="43.19979" lon="1.6023">
        <ele>232</ele>
        <time>2012-09-23T09:35:26Z</time>
      </trkpt>
      <trkpt lat="43.19985" lon="1.60232">
        <ele>232</ele>
        <time>2012-09-23T09:35:28Z</time>
      </trkpt>
      <trkpt lat="43.1999" lon="1.60234">
        <ele>232</ele>
        <time>2012-09-23T09:35:30Z</time>
      </trkpt>
      <trkpt lat="43.19995" lon="1.60234">
        <ele>232</ele>
        <time>2012-09-23T09:35:32Z</time>
      </trkpt>
      <trkpt lat="43.20001" lon="1.60237">
        <ele>232</ele>
        <time>2012-09-23T09:35:34Z</time>
      </trkpt>
      <trkpt lat="43.20007" lon="1.6024">
        <ele>232</ele>
        <time>2012-09-23T09:35:36Z</time>
      </trkpt>
      <trkpt lat="43.20012" lon="1.60243">
        <ele>232</ele>
        <time>2012-09-23T09:35:38Z</time>
      </trkpt>
      <trkpt lat="43.20018" lon="1.60246">
        <ele>232</ele>
        <time>2012-09-23T09:35:40Z</time>
      </trkpt>
      <trkpt lat="43.20023" lon="1.60249">
        <ele>232</ele>
        <time>2012-09-23T09:35:42Z</time>
      </trkpt>
      <trkpt lat="43.20029" lon="1.6025">
        <ele>232</ele>
        <time>2012-09-23T09:35:44Z</time>
      </trkpt>
      <trkpt lat="43.20036" lon="1.60252">
        <ele>232</ele>
        <time>2012-09-23T09:35:46Z</time>
      </trkpt>
      <trkpt lat="43.20043" lon="1.60255">
        <ele>232</ele>
        <time>2012-09-23T09:35:48Z</time>
      </trkpt>
      <trkpt lat="43.2005" lon="1.60257">
        <ele>232</ele>
        <time>2012-09-23T09:35:50Z</time>
      </trkpt>
      <trkpt lat="43.20057" lon="1.60258">
        <ele>232</ele>
        <time>2012-09-23T09:35:52Z</time>
      </trkpt>
      <trkpt lat="43.20063" lon="1.60259">
        <ele>232</ele>
        <time>2012-09-23T09:35:54Z</time>
      </trkpt>
      <trkpt lat="43.2007" lon="1.60261">
        <ele>232</ele>
        <time>2012-09-23T09:35:56Z</time>
      </trkpt>
      <trkpt lat="43.20079" lon="1.60262">
        <ele>232</ele>
        <time>2012-09-23T09:35:59Z</time>
      </trkpt>
      <trkpt lat="43.20084" lon="1.60265">
        <ele>232</ele>
        <time>2012-09-23T09:36:01Z</time>
      </trkpt>
      <trkpt lat="43.20088" lon="1.60266">
        <ele>232</ele>
        <time>2012-09-23T09:36:03Z</time>
      </trkpt>
      <trkpt lat="43.20093" lon="1.6027">
        <ele>232</ele>
        <time>2012-09-23T09:36:05Z</time>
      </trkpt>
      <trkpt lat="43.20099" lon="1.60272">
        <ele>232</ele>
        <time>2012-09-23T09:36:07Z</time>
      </trkpt>
      <trkpt lat="43.20107" lon="1.60275">
        <ele>232</ele>
        <time>2012-09-23T09:36:10Z</time>
      </trkpt>
      <trkpt lat="43.20113" lon="1.60277">
        <ele>232</ele>
        <time>2012-09-23T09:36:12Z</time>
      </trkpt>
      <trkpt lat="43.20118" lon="1.60277">
        <ele>232</ele>
        <time>2012-09-23T09:36:14Z</time>
      </trkpt>
      <trkpt lat="43.20121" lon="1.60276">
        <ele>232</ele>
        <time>2012-09-23T09:36:16Z</time>
      </trkpt>
      <trkpt lat="43.20126" lon="1.60274">
        <ele>232</ele>
        <time>2012-09-23T09:36:18Z</time>
      </trkpt>
      <trkpt lat="43.20132" lon="1.60271">
        <ele>233</ele>
        <time>2012-09-23T09:36:20Z</time>
      </trkpt>
      <trkpt lat="43.20139" lon="1.60268">
        <ele>233</ele>
        <time>2012-09-23T09:36:23Z</time>
      </trkpt>
      <trkpt lat="43.20144" lon="1.60268">
        <ele>233</ele>
        <time>2012-09-23T09:36:25Z</time>
      </trkpt>
      <trkpt lat="43.20151" lon="1.60266">
        <ele>233</ele>
        <time>2012-09-23T09:36:28Z</time>
      </trkpt>
      <trkpt lat="43.20156" lon="1.60266">
        <ele>233</ele>
        <time>2012-09-23T09:36:30Z</time>
      </trkpt>
      <trkpt lat="43.2016" lon="1.60266">
        <ele>233</ele>
        <time>2012-09-23T09:36:32Z</time>
      </trkpt>
      <trkpt lat="43.20166" lon="1.60266">
        <ele>233</ele>
        <time>2012-09-23T09:36:34Z</time>
      </trkpt>
      <trkpt lat="43.20171" lon="1.60266">
        <ele>233</ele>
        <time>2012-09-23T09:36:36Z</time>
      </trkpt>
      <trkpt lat="43.20175" lon="1.60266">
        <ele>233</ele>
        <time>2012-09-23T09:36:38Z</time>
      </trkpt>
      <trkpt lat="43.20181" lon="1.60266">
        <ele>233</ele>
        <time>2012-09-23T09:36:40Z</time>
      </trkpt>
      <trkpt lat="43.20186" lon="1.60266">
        <ele>233</ele>
        <time>2012-09-23T09:36:42Z</time>
      </trkpt>
      <trkpt lat="43.2019" lon="1.60267">
        <ele>233</ele>
        <time>2012-09-23T09:36:44Z</time>
      </trkpt>
      <trkpt lat="43.20196" lon="1.60266">
        <ele>233</ele>
        <time>2012-09-23T09:36:46Z</time>
      </trkpt>
      <trkpt lat="43.20202" lon="1.60265">
        <ele>233</ele>
        <time>2012-09-23T09:36:48Z</time>
      </trkpt>
      <trkpt lat="43.20206" lon="1.60264">
        <ele>233</ele>
        <time>2012-09-23T09:36:50Z</time>
      </trkpt>
      <trkpt lat="43.2021" lon="1.60264">
        <ele>233</ele>
        <time>2012-09-23T09:36:52Z</time>
      </trkpt>
      <trkpt lat="43.20214" lon="1.60263">
        <ele>233</ele>
        <time>2012-09-23T09:36:54Z</time>
      </trkpt>
      <trkpt lat="43.20218" lon="1.60263">
        <ele>233</ele>
        <time>2012-09-23T09:36:56Z</time>
      </trkpt>
      <trkpt lat="43.20222" lon="1.60263">
        <ele>233</ele>
        <time>2012-09-23T09:36:58Z</time>
      </trkpt>
      <trkpt lat="43.20227" lon="1.60263">
        <ele>233</ele>
        <time>2012-09-23T09:37:00Z</time>
      </trkpt>
      <trkpt lat="43.20233" lon="1.60263">
        <ele>233</ele>
        <time>2012-09-23T09:37:03Z</time>
      </trkpt>
      <trkpt lat="43.20239" lon="1.60263">
        <ele>233</ele>
        <time>2012-09-23T09:37:06Z</time>
      </trkpt>
      <trkpt lat="43.20242" lon="1.60261">
        <ele>233</ele>
        <time>2012-09-23T09:37:08Z</time>
      </trkpt>
      <trkpt lat="43.20245" lon="1.60261">
        <ele>233</ele>
        <time>2012-09-23T09:37:10Z</time>
      </trkpt>
      <trkpt lat="43.2025" lon="1.60257">
        <ele>233</ele>
        <time>2012-09-23T09:37:12Z</time>
      </trkpt>
      <trkpt lat="43.20256" lon="1.60253">
        <ele>233</ele>
        <time>2012-09-23T09:37:14Z</time>
      </trkpt>
      <trkpt lat="43.20259" lon="1.60249">
        <ele>233</ele>
        <time>2012-09-23T09:37:16Z</time>
      </trkpt>
      <trkpt lat="43.20263" lon="1.60247">
        <ele>233</ele>
        <time>2012-09-23T09:37:18Z</time>
      </trkpt>
      <trkpt lat="43.20267" lon="1.60244">
        <ele>233</ele>
        <time>2012-09-23T09:37:20Z</time>
      </trkpt>
      <trkpt lat="43.20272" lon="1.60241">
        <ele>233</ele>
        <time>2012-09-23T09:37:22Z</time>
      </trkpt>
      <trkpt lat="43.20277" lon="1.60239">
        <ele>233</ele>
        <time>2012-09-23T09:37:24Z</time>
      </trkpt>
      <trkpt lat="43.2028" lon="1.60236">
        <ele>233</ele>
        <time>2012-09-23T09:37:26Z</time>
      </trkpt>
      <trkpt lat="43.20283" lon="1.60234">
        <ele>232</ele>
        <time>2012-09-23T09:37:28Z</time>
      </trkpt>
      <trkpt lat="43.20285" lon="1.60231">
        <ele>232</ele>
        <time>2012-09-23T09:37:30Z</time>
      </trkpt>
      <trkpt lat="43.20288" lon="1.60229">
        <ele>232</ele>
        <time>2012-09-23T09:37:32Z</time>
      </trkpt>
      <trkpt lat="43.20292" lon="1.60227">
        <ele>232</ele>
        <time>2012-09-23T09:37:34Z</time>
      </trkpt>
      <trkpt lat="43.20295" lon="1.60226">
        <ele>232</ele>
        <time>2012-09-23T09:37:36Z</time>
      </trkpt>
      <trkpt lat="43.203" lon="1.60223">
        <ele>232</ele>
        <time>2012-09-23T09:37:38Z</time>
      </trkpt>
      <trkpt lat="43.20303" lon="1.60223">
        <ele>232</ele>
        <time>2012-09-23T09:37:40Z</time>
      </trkpt>
      <trkpt lat="43.20308" lon="1.60221">
        <ele>232</ele>
        <time>2012-09-23T09:37:42Z</time>
      </trkpt>
      <trkpt lat="43.20311" lon="1.6022">
        <ele>232</ele>
        <time>2012-09-23T09:37:44Z</time>
      </trkpt>
      <trkpt lat="43.20315" lon="1.60217">
        <ele>232</ele>
        <time>2012-09-23T09:37:46Z</time>
      </trkpt>
      <trkpt lat="43.20319" lon="1.60214">
        <ele>232</ele>
        <time>2012-09-23T09:37:48Z</time>
      </trkpt>
      <trkpt lat="43.20325" lon="1.60211">
        <ele>232</ele>
        <time>2012-09-23T09:37:50Z</time>
      </trkpt>
      <trkpt lat="43.20331" lon="1.60209">
        <ele>233</ele>
        <time>2012-09-23T09:37:52Z</time>
      </trkpt>
      <trkpt lat="43.20334" lon="1.60207">
        <ele>235</ele>
        <time>2012-09-23T09:37:54Z</time>
      </trkpt>
      <trkpt lat="43.20336" lon="1.60206">
        <ele>237</ele>
        <time>2012-09-23T09:37:56Z</time>
      </trkpt>
      <trkpt lat="43.2034" lon="1.60205">
        <ele>237</ele>
        <time>2012-09-23T09:37:58Z</time>
      </trkpt>
      <trkpt lat="43.20343" lon="1.60204">
        <ele>237</ele>
        <time>2012-09-23T09:38:00Z</time>
      </trkpt>
      <trkpt lat="43.20347" lon="1.60202">
        <ele>237</ele>
        <time>2012-09-23T09:38:02Z</time>
      </trkpt>
      <trkpt lat="43.20351" lon="1.60199">
        <ele>237</ele>
        <time>2012-09-23T09:38:04Z</time>
      </trkpt>
      <trkpt lat="43.20355" lon="1.60196">
        <ele>237</ele>
        <time>2012-09-23T09:38:06Z</time>
      </trkpt>
      <trkpt lat="43.20358" lon="1.60193">
        <ele>237</ele>
        <time>2012-09-23T09:38:08Z</time>
      </trkpt>
      <trkpt lat="43.20361" lon="1.60189">
        <ele>237</ele>
        <time>2012-09-23T09:38:10Z</time>
      </trkpt>
      <trkpt lat="43.20366" lon="1.60184">
        <ele>237</ele>
        <time>2012-09-23T09:38:12Z</time>
      </trkpt>
      <trkpt lat="43.20371" lon="1.6018">
        <ele>237</ele>
        <time>2012-09-23T09:38:14Z</time>
      </trkpt>
      <trkpt lat="43.20376" lon="1.60178">
        <ele>237</ele>
        <time>2012-09-23T09:38:16Z</time>
      </trkpt>
      <trkpt lat="43.2038" lon="1.60175">
        <ele>237</ele>
        <time>2012-09-23T09:38:18Z</time>
      </trkpt>
      <trkpt lat="43.20383" lon="1.60171">
        <ele>237</ele>
        <time>2012-09-23T09:38:20Z</time>
      </trkpt>
      <trkpt lat="43.20387" lon="1.60167">
        <ele>237</ele>
        <time>2012-09-23T09:38:22Z</time>
      </trkpt>
      <trkpt lat="43.2039" lon="1.60162">
        <ele>237</ele>
        <time>2012-09-23T09:38:24Z</time>
      </trkpt>
      <trkpt lat="43.20395" lon="1.60157">
        <ele>237</ele>
        <time>2012-09-23T09:38:26Z</time>
      </trkpt>
      <trkpt lat="43.20399" lon="1.60152">
        <ele>237</ele>
        <time>2012-09-23T09:38:28Z</time>
      </trkpt>
      <trkpt lat="43.20402" lon="1.60147">
        <ele>237</ele>
        <time>2012-09-23T09:38:30Z</time>
      </trkpt>
      <trkpt lat="43.20405" lon="1.60143">
        <ele>237</ele>
        <time>2012-09-23T09:38:32Z</time>
      </trkpt>
      <trkpt lat="43.20409" lon="1.6014">
        <ele>237</ele>
        <time>2012-09-23T09:38:34Z</time>
      </trkpt>
      <trkpt lat="43.20413" lon="1.60137">
        <ele>237</ele>
        <time>2012-09-23T09:38:36Z</time>
      </trkpt>
      <trkpt lat="43.20416" lon="1.60132">
        <ele>237</ele>
        <time>2012-09-23T09:38:38Z</time>
      </trkpt>
      <trkpt lat="43.20419" lon="1.60128">
        <ele>237</ele>
        <time>2012-09-23T09:38:40Z</time>
      </trkpt>
      <trkpt lat="43.20422" lon="1.60125">
        <ele>237</ele>
        <time>2012-09-23T09:38:42Z</time>
      </trkpt>
      <trkpt lat="43.20426" lon="1.6012">
        <ele>237</ele>
        <time>2012-09-23T09:38:44Z</time>
      </trkpt>
      <trkpt lat="43.2043" lon="1.60116">
        <ele>237</ele>
        <time>2012-09-23T09:38:46Z</time>
      </trkpt>
      <trkpt lat="43.20435" lon="1.6011">
        <ele>237</ele>
        <time>2012-09-23T09:38:48Z</time>
      </trkpt>
      <trkpt lat="43.2044" lon="1.60104">
        <ele>237</ele>
        <time>2012-09-23T09:38:50Z</time>
      </trkpt>
      <trkpt lat="43.20446" lon="1.60099">
        <ele>237</ele>
        <time>2012-09-23T09:38:52Z</time>
      </trkpt>
      <trkpt lat="43.20454" lon="1.6009">
        <ele>236</ele>
        <time>2012-09-23T09:38:55Z</time>
      </trkpt>
      <trkpt lat="43.20458" lon="1.60086">
        <ele>236</ele>
        <time>2012-09-23T09:38:57Z</time>
      </trkpt>
      <trkpt lat="43.20462" lon="1.60081">
        <ele>235</ele>
        <time>2012-09-23T09:38:59Z</time>
      </trkpt>
      <trkpt lat="43.20467" lon="1.60075">
        <ele>235</ele>
        <time>2012-09-23T09:39:01Z</time>
      </trkpt>
      <trkpt lat="43.20472" lon="1.60069">
        <ele>235</ele>
        <time>2012-09-23T09:39:03Z</time>
      </trkpt>
      <trkpt lat="43.20477" lon="1.60061">
        <ele>235</ele>
        <time>2012-09-23T09:39:05Z</time>
      </trkpt>
      <trkpt lat="43.20485" lon="1.60049">
        <ele>234</ele>
        <time>2012-09-23T09:39:08Z</time>
      </trkpt>
      <trkpt lat="43.2049" lon="1.60043">
        <ele>234</ele>
        <time>2012-09-23T09:39:10Z</time>
      </trkpt>
      <trkpt lat="43.20496" lon="1.60033">
        <ele>233</ele>
        <time>2012-09-23T09:39:13Z</time>
      </trkpt>
      <trkpt lat="43.20502" lon="1.60023">
        <ele>232</ele>
        <time>2012-09-23T09:39:16Z</time>
      </trkpt>
      <trkpt lat="43.20507" lon="1.60016">
        <ele>232</ele>
        <time>2012-09-23T09:39:18Z</time>
      </trkpt>
      <trkpt lat="43.20511" lon="1.60009">
        <ele>232</ele>
        <time>2012-09-23T09:39:20Z</time>
      </trkpt>
      <trkpt lat="43.20515" lon="1.60001">
        <ele>231</ele>
        <time>2012-09-23T09:39:22Z</time>
      </trkpt>
      <trkpt lat="43.20521" lon="1.59989">
        <ele>231</ele>
        <time>2012-09-23T09:39:25Z</time>
      </trkpt>
      <trkpt lat="43.20527" lon="1.59979">
        <ele>231</ele>
        <time>2012-09-23T09:39:28Z</time>
      </trkpt>
      <trkpt lat="43.2053" lon="1.59974">
        <ele>231</ele>
        <time>2012-09-23T09:39:30Z</time>
      </trkpt>
      <trkpt lat="43.20535" lon="1.59966">
        <ele>231</ele>
        <time>2012-09-23T09:39:33Z</time>
      </trkpt>
      <trkpt lat="43.2054" lon="1.59961">
        <ele>231</ele>
        <time>2012-09-23T09:39:35Z</time>
      </trkpt>
      <trkpt lat="43.20544" lon="1.59955">
        <ele>231</ele>
        <time>2012-09-23T09:39:37Z</time>
      </trkpt>
      <trkpt lat="43.20549" lon="1.59945">
        <ele>231</ele>
        <time>2012-09-23T09:39:40Z</time>
      </trkpt>
      <trkpt lat="43.20554" lon="1.59935">
        <ele>231</ele>
        <time>2012-09-23T09:39:43Z</time>
      </trkpt>
      <trkpt lat="43.20558" lon="1.5993">
        <ele>231</ele>
        <time>2012-09-23T09:39:45Z</time>
      </trkpt>
      <trkpt lat="43.20564" lon="1.59922">
        <ele>231</ele>
        <time>2012-09-23T09:39:48Z</time>
      </trkpt>
      <trkpt lat="43.20569" lon="1.59914">
        <ele>231</ele>
        <time>2012-09-23T09:39:51Z</time>
      </trkpt>
      <trkpt lat="43.20573" lon="1.59906">
        <ele>231</ele>
        <time>2012-09-23T09:39:54Z</time>
      </trkpt>
      <trkpt lat="43.20576" lon="1.599">
        <ele>231</ele>
        <time>2012-09-23T09:39:56Z</time>
      </trkpt>
      <trkpt lat="43.2058" lon="1.59894">
        <ele>231</ele>
        <time>2012-09-23T09:39:58Z</time>
      </trkpt>
      <trkpt lat="43.20585" lon="1.59888">
        <ele>231</ele>
        <time>2012-09-23T09:40:01Z</time>
      </trkpt>
      <trkpt lat="43.20588" lon="1.59881">
        <ele>231</ele>
        <time>2012-09-23T09:40:03Z</time>
      </trkpt>
      <trkpt lat="43.20591" lon="1.59873">
        <ele>231</ele>
        <time>2012-09-23T09:40:05Z</time>
      </trkpt>
      <trkpt lat="43.20594" lon="1.59864">
        <ele>232</ele>
        <time>2012-09-23T09:40:08Z</time>
      </trkpt>
      <trkpt lat="43.20596" lon="1.59855">
        <ele>232</ele>
        <time>2012-09-23T09:40:10Z</time>
      </trkpt>
      <trkpt lat="43.206" lon="1.59848">
        <ele>233</ele>
        <time>2012-09-23T09:40:12Z</time>
      </trkpt>
      <trkpt lat="43.20605" lon="1.59843">
        <ele>233</ele>
        <time>2012-09-23T09:40:14Z</time>
      </trkpt>
      <trkpt lat="43.2061" lon="1.59838">
        <ele>233</ele>
        <time>2012-09-23T09:40:16Z</time>
      </trkpt>
      <trkpt lat="43.20616" lon="1.59834">
        <ele>233</ele>
        <time>2012-09-23T09:40:18Z</time>
      </trkpt>
      <trkpt lat="43.2062" lon="1.59831">
        <ele>233</ele>
        <time>2012-09-23T09:40:20Z</time>
      </trkpt>
      <trkpt lat="43.20626" lon="1.59828">
        <ele>233</ele>
        <time>2012-09-23T09:40:22Z</time>
      </trkpt>
      <trkpt lat="43.20633" lon="1.59824">
        <ele>233</ele>
        <time>2012-09-23T09:40:24Z</time>
      </trkpt>
      <trkpt lat="43.20637" lon="1.59821">
        <ele>233</ele>
        <time>2012-09-23T09:40:26Z</time>
      </trkpt>
      <trkpt lat="43.2064" lon="1.59817">
        <ele>233</ele>
        <time>2012-09-23T09:40:28Z</time>
      </trkpt>
      <trkpt lat="43.20646" lon="1.59811">
        <ele>233</ele>
        <time>2012-09-23T09:40:31Z</time>
      </trkpt>
      <trkpt lat="43.2065" lon="1.59807">
        <ele>233</ele>
        <time>2012-09-23T09:40:33Z</time>
      </trkpt>
      <trkpt lat="43.20655" lon="1.59803">
        <ele>233</ele>
        <time>2012-09-23T09:40:35Z</time>
      </trkpt>
      <trkpt lat="43.20662" lon="1.59797">
        <ele>233</ele>
        <time>2012-09-23T09:40:38Z</time>
      </trkpt>
      <trkpt lat="43.20666" lon="1.59794">
        <ele>233</ele>
        <time>2012-09-23T09:40:40Z</time>
      </trkpt>
      <trkpt lat="43.20671" lon="1.59791">
        <ele>233</ele>
        <time>2012-09-23T09:40:43Z</time>
      </trkpt>
      <trkpt lat="43.20679" lon="1.59786">
        <ele>233</ele>
        <time>2012-09-23T09:40:46Z</time>
      </trkpt>
      <trkpt lat="43.20686" lon="1.59781">
        <ele>233</ele>
        <time>2012-09-23T09:40:49Z</time>
      </trkpt>
      <trkpt lat="43.2069" lon="1.59778">
        <ele>233</ele>
        <time>2012-09-23T09:40:51Z</time>
      </trkpt>
      <trkpt lat="43.20694" lon="1.59774">
        <ele>233</ele>
        <time>2012-09-23T09:40:54Z</time>
      </trkpt>
      <trkpt lat="43.20698" lon="1.5977">
        <ele>233</ele>
        <time>2012-09-23T09:40:56Z</time>
      </trkpt>
      <trkpt lat="43.20703" lon="1.59766">
        <ele>233</ele>
        <time>2012-09-23T09:40:58Z</time>
      </trkpt>
      <trkpt lat="43.20708" lon="1.59764">
        <ele>233</ele>
        <time>2012-09-23T09:41:00Z</time>
      </trkpt>
      <trkpt lat="43.20713" lon="1.59761">
        <ele>233</ele>
        <time>2012-09-23T09:41:02Z</time>
      </trkpt>
      <trkpt lat="43.20718" lon="1.5976">
        <ele>233</ele>
        <time>2012-09-23T09:41:04Z</time>
      </trkpt>
      <trkpt lat="43.20724" lon="1.5976">
        <ele>233</ele>
        <time>2012-09-23T09:41:07Z</time>
      </trkpt>
      <trkpt lat="43.20731" lon="1.59758">
        <ele>233</ele>
        <time>2012-09-23T09:41:10Z</time>
      </trkpt>
      <trkpt lat="43.20737" lon="1.59756">
        <ele>233</ele>
        <time>2012-09-23T09:41:12Z</time>
      </trkpt>
      <trkpt lat="43.20742" lon="1.59754">
        <ele>233</ele>
        <time>2012-09-23T09:41:14Z</time>
      </trkpt>
      <trkpt lat="43.20747" lon="1.59752">
        <ele>233</ele>
        <time>2012-09-23T09:41:17Z</time>
      </trkpt>
      <trkpt lat="43.20751" lon="1.5975">
        <ele>233</ele>
        <time>2012-09-23T09:41:19Z</time>
      </trkpt>
      <trkpt lat="43.20757" lon="1.59746">
        <ele>233</ele>
        <time>2012-09-23T09:41:22Z</time>
      </trkpt>
      <trkpt lat="43.20763" lon="1.59741">
        <ele>233</ele>
        <time>2012-09-23T09:41:25Z</time>
      </trkpt>
      <trkpt lat="43.20769" lon="1.59736">
        <ele>233</ele>
        <time>2012-09-23T09:41:28Z</time>
      </trkpt>
      <trkpt lat="43.20774" lon="1.59732">
        <ele>233</ele>
        <time>2012-09-23T09:41:30Z</time>
      </trkpt>
      <trkpt lat="43.20779" lon="1.5973">
        <ele>233</ele>
        <time>2012-09-23T09:41:32Z</time>
      </trkpt>
      <trkpt lat="43.20784" lon="1.59728">
        <ele>233</ele>
        <time>2012-09-23T09:41:34Z</time>
      </trkpt>
      <trkpt lat="43.20788" lon="1.59727">
        <ele>233</ele>
        <time>2012-09-23T09:41:36Z</time>
      </trkpt>
      <trkpt lat="43.20793" lon="1.59724">
        <ele>233</ele>
        <time>2012-09-23T09:41:38Z</time>
      </trkpt>
      <trkpt lat="43.20798" lon="1.59722">
        <ele>233</ele>
        <time>2012-09-23T09:41:40Z</time>
      </trkpt>
      <trkpt lat="43.20803" lon="1.5972">
        <ele>233</ele>
        <time>2012-09-23T09:41:42Z</time>
      </trkpt>
      <trkpt lat="43.20808" lon="1.59717">
        <ele>233</ele>
        <time>2012-09-23T09:41:44Z</time>
      </trkpt>
      <trkpt lat="43.20812" lon="1.59715">
        <ele>233</ele>
        <time>2012-09-23T09:41:46Z</time>
      </trkpt>
      <trkpt lat="43.2082" lon="1.59714">
        <ele>233</ele>
        <time>2012-09-23T09:41:49Z</time>
      </trkpt>
      <trkpt lat="43.20828" lon="1.59714">
        <ele>232</ele>
        <time>2012-09-23T09:41:52Z</time>
      </trkpt>
      <trkpt lat="43.20833" lon="1.59713">
        <ele>232</ele>
        <time>2012-09-23T09:41:54Z</time>
      </trkpt>
      <trkpt lat="43.20838" lon="1.59713">
        <ele>232</ele>
        <time>2012-09-23T09:41:56Z</time>
      </trkpt>
      <trkpt lat="43.20843" lon="1.59712">
        <ele>232</ele>
        <time>2012-09-23T09:41:58Z</time>
      </trkpt>
      <trkpt lat="43.20848" lon="1.59712">
        <ele>232</ele>
        <time>2012-09-23T09:42:00Z</time>
      </trkpt>
      <trkpt lat="43.20854" lon="1.5971">
        <ele>232</ele>
        <time>2012-09-23T09:42:02Z</time>
      </trkpt>
      <trkpt lat="43.20861" lon="1.59708">
        <ele>232</ele>
        <time>2012-09-23T09:42:04Z</time>
      </trkpt>
      <trkpt lat="43.20871" lon="1.59707">
        <ele>232</ele>
        <time>2012-09-23T09:42:07Z</time>
      </trkpt>
      <trkpt lat="43.20879" lon="1.59706">
        <ele>232</ele>
        <time>2012-09-23T09:42:09Z</time>
      </trkpt>
      <trkpt lat="43.20885" lon="1.59703">
        <ele>232</ele>
        <time>2012-09-23T09:42:11Z</time>
      </trkpt>
      <trkpt lat="43.20893" lon="1.59697">
        <ele>232</ele>
        <time>2012-09-23T09:42:14Z</time>
      </trkpt>
      <trkpt lat="43.20897" lon="1.59695">
        <ele>232</ele>
        <time>2012-09-23T09:42:16Z</time>
      </trkpt>
      <trkpt lat="43.209" lon="1.59695">
        <ele>232</ele>
        <time>2012-09-23T09:42:18Z</time>
      </trkpt>
      <trkpt lat="43.20908" lon="1.59696">
        <ele>232</ele>
        <time>2012-09-23T09:42:21Z</time>
      </trkpt>
      <trkpt lat="43.20913" lon="1.59698">
        <ele>233</ele>
        <time>2012-09-23T09:42:23Z</time>
      </trkpt>
      <trkpt lat="43.2092" lon="1.59697">
        <ele>233</ele>
        <time>2012-09-23T09:42:26Z</time>
      </trkpt>
      <trkpt lat="43.20926" lon="1.59698">
        <ele>234</ele>
        <time>2012-09-23T09:42:28Z</time>
      </trkpt>
      <trkpt lat="43.20931" lon="1.59697">
        <ele>234</ele>
        <time>2012-09-23T09:42:30Z</time>
      </trkpt>
      <trkpt lat="43.20942" lon="1.59698">
        <ele>234</ele>
        <time>2012-09-23T09:42:33Z</time>
      </trkpt>
      <trkpt lat="43.20951" lon="1.59699">
        <ele>234</ele>
        <time>2012-09-23T09:42:36Z</time>
      </trkpt>
      <trkpt lat="43.20957" lon="1.59701">
        <ele>234</ele>
        <time>2012-09-23T09:42:38Z</time>
      </trkpt>
      <trkpt lat="43.20963" lon="1.59703">
        <ele>234</ele>
        <time>2012-09-23T09:42:40Z</time>
      </trkpt>
      <trkpt lat="43.20967" lon="1.59704">
        <ele>234</ele>
        <time>2012-09-23T09:42:42Z</time>
      </trkpt>
      <trkpt lat="43.20972" lon="1.59705">
        <ele>234</ele>
        <time>2012-09-23T09:42:44Z</time>
      </trkpt>
      <trkpt lat="43.20979" lon="1.59706">
        <ele>234</ele>
        <time>2012-09-23T09:42:46Z</time>
      </trkpt>
      <trkpt lat="43.20985" lon="1.59707">
        <ele>234</ele>
        <time>2012-09-23T09:42:48Z</time>
      </trkpt>
      <trkpt lat="43.2099" lon="1.59709">
        <ele>234</ele>
        <time>2012-09-23T09:42:50Z</time>
      </trkpt>
      <trkpt lat="43.20998" lon="1.59712">
        <ele>234</ele>
        <time>2012-09-23T09:42:53Z</time>
      </trkpt>
      <trkpt lat="43.21004" lon="1.59715">
        <ele>234</ele>
        <time>2012-09-23T09:42:55Z</time>
      </trkpt>
      <trkpt lat="43.21014" lon="1.59719">
        <ele>234</ele>
        <time>2012-09-23T09:42:58Z</time>
      </trkpt>
      <trkpt lat="43.21022" lon="1.59724">
        <ele>234</ele>
        <time>2012-09-23T09:43:01Z</time>
      </trkpt>
      <trkpt lat="43.21031" lon="1.59728">
        <ele>234</ele>
        <time>2012-09-23T09:43:04Z</time>
      </trkpt>
      <trkpt lat="43.21037" lon="1.5973">
        <ele>234</ele>
        <time>2012-09-23T09:43:06Z</time>
      </trkpt>
      <trkpt lat="43.21044" lon="1.59733">
        <ele>233</ele>
        <time>2012-09-23T09:43:08Z</time>
      </trkpt>
      <trkpt lat="43.2105" lon="1.59734">
        <ele>233</ele>
        <time>2012-09-23T09:43:10Z</time>
      </trkpt>
      <trkpt lat="43.21056" lon="1.59734">
        <ele>233</ele>
        <time>2012-09-23T09:43:12Z</time>
      </trkpt>
      <trkpt lat="43.21061" lon="1.59734">
        <ele>233</ele>
        <time>2012-09-23T09:43:14Z</time>
      </trkpt>
      <trkpt lat="43.21067" lon="1.59737">
        <ele>233</ele>
        <time>2012-09-23T09:43:16Z</time>
      </trkpt>
      <trkpt lat="43.21072" lon="1.59739">
        <ele>233</ele>
        <time>2012-09-23T09:43:18Z</time>
      </trkpt>
      <trkpt lat="43.21079" lon="1.59741">
        <ele>232</ele>
        <time>2012-09-23T09:43:21Z</time>
      </trkpt>
      <trkpt lat="43.21083" lon="1.59742">
        <ele>232</ele>
        <time>2012-09-23T09:43:23Z</time>
      </trkpt>
      <trkpt lat="43.21087" lon="1.5974">
        <ele>232</ele>
        <time>2012-09-23T09:43:25Z</time>
      </trkpt>
      <trkpt lat="43.21092" lon="1.5974">
        <ele>232</ele>
        <time>2012-09-23T09:43:27Z</time>
      </trkpt>
      <trkpt lat="43.21097" lon="1.59741">
        <ele>233</ele>
        <time>2012-09-23T09:43:29Z</time>
      </trkpt>
      <trkpt lat="43.21103" lon="1.59746">
        <ele>235</ele>
        <time>2012-09-23T09:43:31Z</time>
      </trkpt>
      <trkpt lat="43.21112" lon="1.59752">
        <ele>237</ele>
        <time>2012-09-23T09:43:34Z</time>
      </trkpt>
      <trkpt lat="43.21117" lon="1.59755">
        <ele>238</ele>
        <time>2012-09-23T09:43:36Z</time>
      </trkpt>
      <trkpt lat="43.21122" lon="1.59756">
        <ele>238</ele>
        <time>2012-09-23T09:43:38Z</time>
      </trkpt>
      <trkpt lat="43.2113" lon="1.59755">
        <ele>239</ele>
        <time>2012-09-23T09:43:41Z</time>
      </trkpt>
      <trkpt lat="43.21135" lon="1.59752">
        <ele>241</ele>
        <time>2012-09-23T09:43:43Z</time>
      </trkpt>
      <trkpt lat="43.21141" lon="1.59748">
        <ele>244</ele>
        <time>2012-09-23T09:43:46Z</time>
      </trkpt>
      <trkpt lat="43.21146" lon="1.59747">
        <ele>248</ele>
        <time>2012-09-23T09:43:48Z</time>
      </trkpt>
      <trkpt lat="43.21152" lon="1.59746">
        <ele>252</ele>
        <time>2012-09-23T09:43:50Z</time>
      </trkpt>
      <trkpt lat="43.21158" lon="1.59746">
        <ele>256</ele>
        <time>2012-09-23T09:43:52Z</time>
      </trkpt>
      <trkpt lat="43.21164" lon="1.59746">
        <ele>259</ele>
        <time>2012-09-23T09:43:54Z</time>
      </trkpt>
      <trkpt lat="43.21176" lon="1.59751">
        <ele>262</ele>
        <time>2012-09-23T09:43:57Z</time>
      </trkpt>
      <trkpt lat="43.21187" lon="1.59752">
        <ele>263</ele>
        <time>2012-09-23T09:44:00Z</time>
      </trkpt>
      <trkpt lat="43.21197" lon="1.59758">
        <ele>262</ele>
        <time>2012-09-23T09:44:03Z</time>
      </trkpt>
      <trkpt lat="43.21202" lon="1.59762">
        <ele>260</ele>
        <time>2012-09-23T09:44:05Z</time>
      </trkpt>
      <trkpt lat="43.21207" lon="1.59767">
        <ele>258</ele>
        <time>2012-09-23T09:44:07Z</time>
      </trkpt>
      <trkpt lat="43.21215" lon="1.59774">
        <ele>255</ele>
        <time>2012-09-23T09:44:10Z</time>
      </trkpt>
      <trkpt lat="43.21221" lon="1.59775">
        <ele>253</ele>
        <time>2012-09-23T09:44:12Z</time>
      </trkpt>
      <trkpt lat="43.21228" lon="1.59777">
        <ele>251</ele>
        <time>2012-09-23T09:44:14Z</time>
      </trkpt>
      <trkpt lat="43.21238" lon="1.59777">
        <ele>248</ele>
        <time>2012-09-23T09:44:17Z</time>
      </trkpt>
      <trkpt lat="43.21248" lon="1.59779">
        <ele>245</ele>
        <time>2012-09-23T09:44:20Z</time>
      </trkpt>
      <trkpt lat="43.21258" lon="1.5978">
        <ele>242</ele>
        <time>2012-09-23T09:44:23Z</time>
      </trkpt>
      <trkpt lat="43.21266" lon="1.59781">
        <ele>240</ele>
        <time>2012-09-23T09:44:25Z</time>
      </trkpt>
      <trkpt lat="43.21272" lon="1.59783">
        <ele>239</ele>
        <time>2012-09-23T09:44:27Z</time>
      </trkpt>
      <trkpt lat="43.21282" lon="1.59785">
        <ele>238</ele>
        <time>2012-09-23T09:44:30Z</time>
      </trkpt>
      <trkpt lat="43.21288" lon="1.59786">
        <ele>237</ele>
        <time>2012-09-23T09:44:32Z</time>
      </trkpt>
      <trkpt lat="43.21294" lon="1.59786">
        <ele>236</ele>
        <time>2012-09-23T09:44:34Z</time>
      </trkpt>
      <trkpt lat="43.21299" lon="1.59785">
        <ele>236</ele>
        <time>2012-09-23T09:44:36Z</time>
      </trkpt>
      <trkpt lat="43.21306" lon="1.59783">
        <ele>236</ele>
        <time>2012-09-23T09:44:38Z</time>
      </trkpt>
      <trkpt lat="43.21312" lon="1.59783">
        <ele>236</ele>
        <time>2012-09-23T09:44:40Z</time>
      </trkpt>
      <trkpt lat="43.2132" lon="1.59784">
        <ele>234</ele>
        <time>2012-09-23T09:44:43Z</time>
      </trkpt>
      <trkpt lat="43.21325" lon="1.59785">
        <ele>233</ele>
        <time>2012-09-23T09:44:45Z</time>
      </trkpt>
      <trkpt lat="43.21329" lon="1.59787">
        <ele>233</ele>
        <time>2012-09-23T09:44:47Z</time>
      </trkpt>
      <trkpt lat="43.21336" lon="1.59789">
        <ele>233</ele>
        <time>2012-09-23T09:44:50Z</time>
      </trkpt>
      <trkpt lat="43.21342" lon="1.59791">
        <ele>233</ele>
        <time>2012-09-23T09:44:52Z</time>
      </trkpt>
      <trkpt lat="43.2135" lon="1.59794">
        <ele>233</ele>
        <time>2012-09-23T09:44:55Z</time>
      </trkpt>
      <trkpt lat="43.21355" lon="1.59795">
        <ele>234</ele>
        <time>2012-09-23T09:44:57Z</time>
      </trkpt>
      <trkpt lat="43.2136" lon="1.59795">
        <ele>234</ele>
        <time>2012-09-23T09:44:59Z</time>
      </trkpt>
      <trkpt lat="43.21365" lon="1.59795">
        <ele>234</ele>
        <time>2012-09-23T09:45:01Z</time>
      </trkpt>
      <trkpt lat="43.21371" lon="1.59795">
        <ele>234</ele>
        <time>2012-09-23T09:45:04Z</time>
      </trkpt>
      <trkpt lat="43.21376" lon="1.59795">
        <ele>234</ele>
        <time>2012-09-23T09:45:06Z</time>
      </trkpt>
      <trkpt lat="43.21381" lon="1.59796">
        <ele>234</ele>
        <time>2012-09-23T09:45:08Z</time>
      </trkpt>
      <trkpt lat="43.21385" lon="1.59797">
        <ele>234</ele>
        <time>2012-09-23T09:45:10Z</time>
      </trkpt>
      <trkpt lat="43.21393" lon="1.598">
        <ele>234</ele>
        <time>2012-09-23T09:45:13Z</time>
      </trkpt>
      <trkpt lat="43.21398" lon="1.59802">
        <ele>234</ele>
        <time>2012-09-23T09:45:15Z</time>
      </trkpt>
      <trkpt lat="43.21402" lon="1.59804">
        <ele>234</ele>
        <time>2012-09-23T09:45:17Z</time>
      </trkpt>
      <trkpt lat="43.21407" lon="1.59806">
        <ele>234</ele>
        <time>2012-09-23T09:45:19Z</time>
      </trkpt>
      <trkpt lat="43.21414" lon="1.5981">
        <ele>234</ele>
        <time>2012-09-23T09:45:22Z</time>
      </trkpt>
      <trkpt lat="43.2142" lon="1.59812">
        <ele>234</ele>
        <time>2012-09-23T09:45:24Z</time>
      </trkpt>
      <trkpt lat="43.21424" lon="1.59815">
        <ele>234</ele>
        <time>2012-09-23T09:45:26Z</time>
      </trkpt>
      <trkpt lat="43.21429" lon="1.59816">
        <ele>234</ele>
        <time>2012-09-23T09:45:28Z</time>
      </trkpt>
      <trkpt lat="43.21436" lon="1.59818">
        <ele>234</ele>
        <time>2012-09-23T09:45:31Z</time>
      </trkpt>
      <trkpt lat="43.21444" lon="1.5982">
        <ele>234</ele>
        <time>2012-09-23T09:45:34Z</time>
      </trkpt>
      <trkpt lat="43.21451" lon="1.59821">
        <ele>234</ele>
        <time>2012-09-23T09:45:36Z</time>
      </trkpt>
      <trkpt lat="43.21456" lon="1.59824">
        <ele>234</ele>
        <time>2012-09-23T09:45:38Z</time>
      </trkpt>
      <trkpt lat="43.21461" lon="1.59827">
        <ele>233</ele>
        <time>2012-09-23T09:45:40Z</time>
      </trkpt>
      <trkpt lat="43.21467" lon="1.59828">
        <ele>233</ele>
        <time>2012-09-23T09:45:42Z</time>
      </trkpt>
      <trkpt lat="43.21474" lon="1.59831">
        <ele>232</ele>
        <time>2012-09-23T09:45:45Z</time>
      </trkpt>
      <trkpt lat="43.2148" lon="1.59832">
        <ele>231</ele>
        <time>2012-09-23T09:45:47Z</time>
      </trkpt>
      <trkpt lat="43.21487" lon="1.59834">
        <ele>231</ele>
        <time>2012-09-23T09:45:49Z</time>
      </trkpt>
      <trkpt lat="43.21493" lon="1.59836">
        <ele>230</ele>
        <time>2012-09-23T09:45:51Z</time>
      </trkpt>
      <trkpt lat="43.21503" lon="1.59839">
        <ele>229</ele>
        <time>2012-09-23T09:45:54Z</time>
      </trkpt>
      <trkpt lat="43.21509" lon="1.59841">
        <ele>229</ele>
        <time>2012-09-23T09:45:56Z</time>
      </trkpt>
      <trkpt lat="43.21516" lon="1.59844">
        <ele>229</ele>
        <time>2012-09-23T09:45:58Z</time>
      </trkpt>
      <trkpt lat="43.21522" lon="1.59846">
        <ele>229</ele>
        <time>2012-09-23T09:46:00Z</time>
      </trkpt>
      <trkpt lat="43.21531" lon="1.59851">
        <ele>228</ele>
        <time>2012-09-23T09:46:03Z</time>
      </trkpt>
      <trkpt lat="43.21539" lon="1.59856">
        <ele>228</ele>
        <time>2012-09-23T09:46:06Z</time>
      </trkpt>
      <trkpt lat="43.21545" lon="1.5986">
        <ele>228</ele>
        <time>2012-09-23T09:46:08Z</time>
      </trkpt>
      <trkpt lat="43.21554" lon="1.59864">
        <ele>228</ele>
        <time>2012-09-23T09:46:11Z</time>
      </trkpt>
      <trkpt lat="43.21559" lon="1.59866">
        <ele>228</ele>
        <time>2012-09-23T09:46:13Z</time>
      </trkpt>
      <trkpt lat="43.21565" lon="1.59865">
        <ele>228</ele>
        <time>2012-09-23T09:46:15Z</time>
      </trkpt>
      <trkpt lat="43.21575" lon="1.59866">
        <ele>228</ele>
        <time>2012-09-23T09:46:18Z</time>
      </trkpt>
      <trkpt lat="43.21582" lon="1.59865">
        <ele>228</ele>
        <time>2012-09-23T09:46:20Z</time>
      </trkpt>
      <trkpt lat="43.21592" lon="1.59867">
        <ele>228</ele>
        <time>2012-09-23T09:46:23Z</time>
      </trkpt>
      <trkpt lat="43.21599" lon="1.5987">
        <ele>228</ele>
        <time>2012-09-23T09:46:25Z</time>
      </trkpt>
      <trkpt lat="43.21609" lon="1.59874">
        <ele>228</ele>
        <time>2012-09-23T09:46:28Z</time>
      </trkpt>
      <trkpt lat="43.21613" lon="1.5988">
        <ele>228</ele>
        <time>2012-09-23T09:46:30Z</time>
      </trkpt>
      <trkpt lat="43.21621" lon="1.59885">
        <ele>228</ele>
        <time>2012-09-23T09:46:33Z</time>
      </trkpt>
      <trkpt lat="43.21627" lon="1.59887">
        <ele>228</ele>
        <time>2012-09-23T09:46:35Z</time>
      </trkpt>
      <trkpt lat="43.21632" lon="1.59888">
        <ele>228</ele>
        <time>2012-09-23T09:46:37Z</time>
      </trkpt>
      <trkpt lat="43.21636" lon="1.59889">
        <ele>228</ele>
        <time>2012-09-23T09:46:39Z</time>
      </trkpt>
      <trkpt lat="43.2164" lon="1.59891">
        <ele>228</ele>
        <time>2012-09-23T09:46:41Z</time>
      </trkpt>
      <trkpt lat="43.21645" lon="1.59893">
        <ele>228</ele>
        <time>2012-09-23T09:46:43Z</time>
      </trkpt>
      <trkpt lat="43.2165" lon="1.59894">
        <ele>228</ele>
        <time>2012-09-23T09:46:45Z</time>
      </trkpt>
      <trkpt lat="43.21656" lon="1.59895">
        <ele>228</ele>
        <time>2012-09-23T09:46:47Z</time>
      </trkpt>
      <trkpt lat="43.21661" lon="1.59895">
        <ele>228</ele>
        <time>2012-09-23T09:46:49Z</time>
      </trkpt>
      <trkpt lat="43.21664" lon="1.59896">
        <ele>228</ele>
        <time>2012-09-23T09:46:51Z</time>
      </trkpt>
      <trkpt lat="43.2167" lon="1.59897">
        <ele>228</ele>
        <time>2012-09-23T09:46:54Z</time>
      </trkpt>
      <trkpt lat="43.21678" lon="1.59898">
        <ele>228</ele>
        <time>2012-09-23T09:46:57Z</time>
      </trkpt>
      <trkpt lat="43.21683" lon="1.59899">
        <ele>228</ele>
        <time>2012-09-23T09:46:59Z</time>
      </trkpt>
      <trkpt lat="43.21689" lon="1.59899">
        <ele>229</ele>
        <time>2012-09-23T09:47:01Z</time>
      </trkpt>
      <trkpt lat="43.21695" lon="1.59899">
        <ele>229</ele>
        <time>2012-09-23T09:47:03Z</time>
      </trkpt>
      <trkpt lat="43.217" lon="1.59901">
        <ele>229</ele>
        <time>2012-09-23T09:47:05Z</time>
      </trkpt>
      <trkpt lat="43.21704" lon="1.59903">
        <ele>229</ele>
        <time>2012-09-23T09:47:07Z</time>
      </trkpt>
      <trkpt lat="43.21714" lon="1.59905">
        <ele>229</ele>
        <time>2012-09-23T09:47:10Z</time>
      </trkpt>
      <trkpt lat="43.21719" lon="1.59906">
        <ele>229</ele>
        <time>2012-09-23T09:47:12Z</time>
      </trkpt>
      <trkpt lat="43.21727" lon="1.59907">
        <ele>229</ele>
        <time>2012-09-23T09:47:15Z</time>
      </trkpt>
      <trkpt lat="43.21734" lon="1.59907">
        <ele>229</ele>
        <time>2012-09-23T09:47:17Z</time>
      </trkpt>
      <trkpt lat="43.2174" lon="1.59907">
        <ele>229</ele>
        <time>2012-09-23T09:47:19Z</time>
      </trkpt>
      <trkpt lat="43.21746" lon="1.59906">
        <ele>229</ele>
        <time>2012-09-23T09:47:21Z</time>
      </trkpt>
      <trkpt lat="43.21751" lon="1.59906">
        <ele>229</ele>
        <time>2012-09-23T09:47:23Z</time>
      </trkpt>
      <trkpt lat="43.21756" lon="1.59906">
        <ele>229</ele>
        <time>2012-09-23T09:47:25Z</time>
      </trkpt>
      <trkpt lat="43.21762" lon="1.59908">
        <ele>229</ele>
        <time>2012-09-23T09:47:28Z</time>
      </trkpt>
      <trkpt lat="43.21766" lon="1.59908">
        <ele>229</ele>
        <time>2012-09-23T09:47:30Z</time>
      </trkpt>
      <trkpt lat="43.21769" lon="1.5991">
        <ele>229</ele>
        <time>2012-09-23T09:47:32Z</time>
      </trkpt>
      <trkpt lat="43.21774" lon="1.59911">
        <ele>229</ele>
        <time>2012-09-23T09:47:34Z</time>
      </trkpt>
      <trkpt lat="43.21779" lon="1.59911">
        <ele>230</ele>
        <time>2012-09-23T09:47:36Z</time>
      </trkpt>
      <trkpt lat="43.21784" lon="1.59911">
        <ele>230</ele>
        <time>2012-09-23T09:47:38Z</time>
      </trkpt>
      <trkpt lat="43.21791" lon="1.59912">
        <ele>230</ele>
        <time>2012-09-23T09:47:41Z</time>
      </trkpt>
      <trkpt lat="43.21796" lon="1.5991">
        <ele>231</ele>
        <time>2012-09-23T09:47:43Z</time>
      </trkpt>
      <trkpt lat="43.21802" lon="1.59909">
        <ele>231</ele>
        <time>2012-09-23T09:47:45Z</time>
      </trkpt>
      <trkpt lat="43.21807" lon="1.59907">
        <ele>231</ele>
        <time>2012-09-23T09:47:47Z</time>
      </trkpt>
      <trkpt lat="43.21812" lon="1.59906">
        <ele>231</ele>
        <time>2012-09-23T09:47:49Z</time>
      </trkpt>
      <trkpt lat="43.2182" lon="1.59904">
        <ele>231</ele>
        <time>2012-09-23T09:47:52Z</time>
      </trkpt>
      <trkpt lat="43.21825" lon="1.59903">
        <ele>231</ele>
        <time>2012-09-23T09:47:54Z</time>
      </trkpt>
      <trkpt lat="43.21832" lon="1.59901">
        <ele>231</ele>
        <time>2012-09-23T09:47:57Z</time>
      </trkpt>
      <trkpt lat="43.21837" lon="1.59899">
        <ele>231</ele>
        <time>2012-09-23T09:47:59Z</time>
      </trkpt>
      <trkpt lat="43.21841" lon="1.59898">
        <ele>231</ele>
        <time>2012-09-23T09:48:01Z</time>
      </trkpt>
      <trkpt lat="43.21847" lon="1.59895">
        <ele>231</ele>
        <time>2012-09-23T09:48:04Z</time>
      </trkpt>
      <trkpt lat="43.21852" lon="1.59892">
        <ele>231</ele>
        <time>2012-09-23T09:48:06Z</time>
      </trkpt>
      <trkpt lat="43.21856" lon="1.5989">
        <ele>231</ele>
        <time>2012-09-23T09:48:08Z</time>
      </trkpt>
      <trkpt lat="43.2186" lon="1.59887">
        <ele>231</ele>
        <time>2012-09-23T09:48:10Z</time>
      </trkpt>
      <trkpt lat="43.21863" lon="1.59885">
        <ele>231</ele>
        <time>2012-09-23T09:48:12Z</time>
      </trkpt>
      <trkpt lat="43.21868" lon="1.59882">
        <ele>232</ele>
        <time>2012-09-23T09:48:14Z</time>
      </trkpt>
      <trkpt lat="43.21874" lon="1.59878">
        <ele>234</ele>
        <time>2012-09-23T09:48:17Z</time>
      </trkpt>
      <trkpt lat="43.2188" lon="1.59877">
        <ele>235</ele>
        <time>2012-09-23T09:48:19Z</time>
      </trkpt>
      <trkpt lat="43.21888" lon="1.59875">
        <ele>235</ele>
        <time>2012-09-23T09:48:22Z</time>
      </trkpt>
      <trkpt lat="43.21895" lon="1.59871">
        <ele>235</ele>
        <time>2012-09-23T09:48:25Z</time>
      </trkpt>
      <trkpt lat="43.219" lon="1.59867">
        <ele>235</ele>
        <time>2012-09-23T09:48:27Z</time>
      </trkpt>
      <trkpt lat="43.21906" lon="1.59861">
        <ele>234</ele>
        <time>2012-09-23T09:48:30Z</time>
      </trkpt>
      <trkpt lat="43.2191" lon="1.59857">
        <ele>233</ele>
        <time>2012-09-23T09:48:32Z</time>
      </trkpt>
      <trkpt lat="43.21913" lon="1.59853">
        <ele>233</ele>
        <time>2012-09-23T09:48:34Z</time>
      </trkpt>
      <trkpt lat="43.21916" lon="1.59849">
        <ele>232</ele>
        <time>2012-09-23T09:48:36Z</time>
      </trkpt>
      <trkpt lat="43.21919" lon="1.59845">
        <ele>232</ele>
        <time>2012-09-23T09:48:38Z</time>
      </trkpt>
      <trkpt lat="43.21924" lon="1.59839">
        <ele>232</ele>
        <time>2012-09-23T09:48:41Z</time>
      </trkpt>
      <trkpt lat="43.21926" lon="1.59836">
        <ele>232</ele>
        <time>2012-09-23T09:48:43Z</time>
      </trkpt>
      <trkpt lat="43.21931" lon="1.59829">
        <ele>232</ele>
        <time>2012-09-23T09:48:46Z</time>
      </trkpt>
      <trkpt lat="43.21936" lon="1.59822">
        <ele>232</ele>
        <time>2012-09-23T09:48:49Z</time>
      </trkpt>
      <trkpt lat="43.21939" lon="1.59817">
        <ele>232</ele>
        <time>2012-09-23T09:48:51Z</time>
      </trkpt>
      <trkpt lat="43.21944" lon="1.5981">
        <ele>232</ele>
        <time>2012-09-23T09:48:54Z</time>
      </trkpt>
      <trkpt lat="43.21946" lon="1.59805">
        <ele>231</ele>
        <time>2012-09-23T09:48:56Z</time>
      </trkpt>
      <trkpt lat="43.21949" lon="1.59802">
        <ele>231</ele>
        <time>2012-09-23T09:48:58Z</time>
      </trkpt>
      <trkpt lat="43.21952" lon="1.59797">
        <ele>231</ele>
        <time>2012-09-23T09:49:01Z</time>
      </trkpt>
      <trkpt lat="43.21954" lon="1.59793">
        <ele>230</ele>
        <time>2012-09-23T09:49:03Z</time>
      </trkpt>
      <trkpt lat="43.21956" lon="1.5979">
        <ele>230</ele>
        <time>2012-09-23T09:49:05Z</time>
      </trkpt>
      <trkpt lat="43.21959" lon="1.59787">
        <ele>229</ele>
        <time>2012-09-23T09:49:07Z</time>
      </trkpt>
      <trkpt lat="43.21964" lon="1.59783">
        <ele>229</ele>
        <time>2012-09-23T09:49:10Z</time>
      </trkpt>
      <trkpt lat="43.21966" lon="1.59779">
        <ele>229</ele>
        <time>2012-09-23T09:49:13Z</time>
      </trkpt>
      <trkpt lat="43.21968" lon="1.59778">
        <ele>229</ele>
        <time>2012-09-23T09:49:15Z</time>
      </trkpt>
      <trkpt lat="43.2197" lon="1.59778">
        <ele>228</ele>
        <time>2012-09-23T09:49:17Z</time>
      </trkpt>
      <trkpt lat="43.21972" lon="1.59776">
        <ele>228</ele>
        <time>2012-09-23T09:49:19Z</time>
      </trkpt>
      <trkpt lat="43.21975" lon="1.59774">
        <ele>227</ele>
        <time>2012-09-23T09:49:22Z</time>
      </trkpt>
      <trkpt lat="43.21978" lon="1.59771">
        <ele>227</ele>
        <time>2012-09-23T09:49:24Z</time>
      </trkpt>
      <trkpt lat="43.21983" lon="1.59766">
        <ele>227</ele>
        <time>2012-09-23T09:49:28Z</time>
      </trkpt>
      <trkpt lat="43.21987" lon="1.59764">
        <ele>227</ele>
        <time>2012-09-23T09:49:31Z</time>
      </trkpt>
      <trkpt lat="43.21991" lon="1.59763">
        <ele>227</ele>
        <time>2012-09-23T09:49:35Z</time>
      </trkpt>
      <trkpt lat="43.21995" lon="1.59763">
        <ele>227</ele>
        <time>2012-09-23T09:49:38Z</time>
      </trkpt>
      <trkpt lat="43.22001" lon="1.59761">
        <ele>227</ele>
        <time>2012-09-23T09:49:41Z</time>
      </trkpt>
      <trkpt lat="43.22006" lon="1.59759">
        <ele>227</ele>
        <time>2012-09-23T09:49:44Z</time>
      </trkpt>
      <trkpt lat="43.22009" lon="1.59758">
        <ele>227</ele>
        <time>2012-09-23T09:49:46Z</time>
      </trkpt>
      <trkpt lat="43.22012" lon="1.59753">
        <ele>227</ele>
        <time>2012-09-23T09:49:49Z</time>
      </trkpt>
      <trkpt lat="43.22015" lon="1.59749">
        <ele>227</ele>
        <time>2012-09-23T09:49:51Z</time>
      </trkpt>
      <trkpt lat="43.22018" lon="1.59741">
        <ele>227</ele>
        <time>2012-09-23T09:49:54Z</time>
      </trkpt>
      <trkpt lat="43.22022" lon="1.59735">
        <ele>227</ele>
        <time>2012-09-23T09:49:56Z</time>
      </trkpt>
      <trkpt lat="43.22025" lon="1.59729">
        <ele>227</ele>
        <time>2012-09-23T09:49:58Z</time>
      </trkpt>
      <trkpt lat="43.22027" lon="1.59724">
        <ele>227</ele>
        <time>2012-09-23T09:50:00Z</time>
      </trkpt>
      <trkpt lat="43.2203" lon="1.59719">
        <ele>227</ele>
        <time>2012-09-23T09:50:02Z</time>
      </trkpt>
      <trkpt lat="43.22036" lon="1.59712">
        <ele>227</ele>
        <time>2012-09-23T09:50:05Z</time>
      </trkpt>
      <trkpt lat="43.22039" lon="1.59707">
        <ele>227</ele>
        <time>2012-09-23T09:50:07Z</time>
      </trkpt>
      <trkpt lat="43.22046" lon="1.597">
        <ele>227</ele>
        <time>2012-09-23T09:50:10Z</time>
      </trkpt>
      <trkpt lat="43.22049" lon="1.59696">
        <ele>227</ele>
        <time>2012-09-23T09:50:12Z</time>
      </trkpt>
      <trkpt lat="43.22055" lon="1.5969">
        <ele>227</ele>
        <time>2012-09-23T09:50:15Z</time>
      </trkpt>
      <trkpt lat="43.22059" lon="1.59685">
        <ele>227</ele>
        <time>2012-09-23T09:50:17Z</time>
      </trkpt>
      <trkpt lat="43.22063" lon="1.5968">
        <ele>227</ele>
        <time>2012-09-23T09:50:19Z</time>
      </trkpt>
      <trkpt lat="43.2207" lon="1.59672">
        <ele>227</ele>
        <time>2012-09-23T09:50:22Z</time>
      </trkpt>
      <trkpt lat="43.22074" lon="1.59667">
        <ele>227</ele>
        <time>2012-09-23T09:50:24Z</time>
      </trkpt>
      <trkpt lat="43.22079" lon="1.59659">
        <ele>227</ele>
        <time>2012-09-23T09:50:26Z</time>
      </trkpt>
      <trkpt lat="43.22083" lon="1.59649">
        <ele>227</ele>
        <time>2012-09-23T09:50:29Z</time>
      </trkpt>
      <trkpt lat="43.22084" lon="1.59642">
        <ele>227</ele>
        <time>2012-09-23T09:50:31Z</time>
      </trkpt>
      <trkpt lat="43.22087" lon="1.59632">
        <ele>227</ele>
        <time>2012-09-23T09:50:34Z</time>
      </trkpt>
      <trkpt lat="43.22089" lon="1.59626">
        <ele>227</ele>
        <time>2012-09-23T09:50:36Z</time>
      </trkpt>
      <trkpt lat="43.22091" lon="1.5962">
        <ele>227</ele>
        <time>2012-09-23T09:50:38Z</time>
      </trkpt>
      <trkpt lat="43.22094" lon="1.59611">
        <ele>227</ele>
        <time>2012-09-23T09:50:41Z</time>
      </trkpt>
      <trkpt lat="43.22095" lon="1.59604">
        <ele>227</ele>
        <time>2012-09-23T09:50:43Z</time>
      </trkpt>
      <trkpt lat="43.22096" lon="1.59599">
        <ele>227</ele>
        <time>2012-09-23T09:50:45Z</time>
      </trkpt>
      <trkpt lat="43.22097" lon="1.59595">
        <ele>227</ele>
        <time>2012-09-23T09:50:47Z</time>
      </trkpt>
      <trkpt lat="43.22098" lon="1.59589">
        <ele>227</ele>
        <time>2012-09-23T09:50:50Z</time>
      </trkpt>
      <trkpt lat="43.22099" lon="1.59584">
        <ele>227</ele>
        <time>2012-09-23T09:50:52Z</time>
      </trkpt>
      <trkpt lat="43.22101" lon="1.59578">
        <ele>227</ele>
        <time>2012-09-23T09:50:54Z</time>
      </trkpt>
      <trkpt lat="43.22104" lon="1.5957">
        <ele>227</ele>
        <time>2012-09-23T09:50:56Z</time>
      </trkpt>
      <trkpt lat="43.22109" lon="1.5956">
        <ele>227</ele>
        <time>2012-09-23T09:50:59Z</time>
      </trkpt>
      <trkpt lat="43.22113" lon="1.59553">
        <ele>227</ele>
        <time>2012-09-23T09:51:01Z</time>
      </trkpt>
      <trkpt lat="43.22117" lon="1.59546">
        <ele>227</ele>
        <time>2012-09-23T09:51:03Z</time>
      </trkpt>
      <trkpt lat="43.22123" lon="1.5954">
        <ele>227</ele>
        <time>2012-09-23T09:51:05Z</time>
      </trkpt>
      <trkpt lat="43.22127" lon="1.59532">
        <ele>227</ele>
        <time>2012-09-23T09:51:07Z</time>
      </trkpt>
      <trkpt lat="43.22132" lon="1.59524">
        <ele>227</ele>
        <time>2012-09-23T09:51:09Z</time>
      </trkpt>
      <trkpt lat="43.22136" lon="1.59516">
        <ele>227</ele>
        <time>2012-09-23T09:51:11Z</time>
      </trkpt>
      <trkpt lat="43.2214" lon="1.59507">
        <ele>227</ele>
        <time>2012-09-23T09:51:14Z</time>
      </trkpt>
      <trkpt lat="43.22144" lon="1.59501">
        <ele>227</ele>
        <time>2012-09-23T09:51:16Z</time>
      </trkpt>
      <trkpt lat="43.22148" lon="1.59495">
        <ele>227</ele>
        <time>2012-09-23T09:51:18Z</time>
      </trkpt>
      <trkpt lat="43.22155" lon="1.59485">
        <ele>227</ele>
        <time>2012-09-23T09:51:21Z</time>
      </trkpt>
      <trkpt lat="43.22158" lon="1.59478">
        <ele>227</ele>
        <time>2012-09-23T09:51:23Z</time>
      </trkpt>
      <trkpt lat="43.22162" lon="1.59472">
        <ele>227</ele>
        <time>2012-09-23T09:51:25Z</time>
      </trkpt>
      <trkpt lat="43.22166" lon="1.59465">
        <ele>227</ele>
        <time>2012-09-23T09:51:27Z</time>
      </trkpt>
      <trkpt lat="43.22173" lon="1.59453">
        <ele>227</ele>
        <time>2012-09-23T09:51:30Z</time>
      </trkpt>
      <trkpt lat="43.22177" lon="1.59446">
        <ele>227</ele>
        <time>2012-09-23T09:51:32Z</time>
      </trkpt>
      <trkpt lat="43.22181" lon="1.59438">
        <ele>227</ele>
        <time>2012-09-23T09:51:34Z</time>
      </trkpt>
      <trkpt lat="43.22186" lon="1.59431">
        <ele>227</ele>
        <time>2012-09-23T09:51:36Z</time>
      </trkpt>
      <trkpt lat="43.22192" lon="1.59421">
        <ele>227</ele>
        <time>2012-09-23T09:51:39Z</time>
      </trkpt>
      <trkpt lat="43.22199" lon="1.59413">
        <ele>227</ele>
        <time>2012-09-23T09:51:42Z</time>
      </trkpt>
      <trkpt lat="43.22207" lon="1.59406">
        <ele>227</ele>
        <time>2012-09-23T09:51:45Z</time>
      </trkpt>
      <trkpt lat="43.22214" lon="1.59401">
        <ele>227</ele>
        <time>2012-09-23T09:51:47Z</time>
      </trkpt>
      <trkpt lat="43.2222" lon="1.59397">
        <ele>227</ele>
        <time>2012-09-23T09:51:49Z</time>
      </trkpt>
      <trkpt lat="43.22224" lon="1.59393">
        <ele>227</ele>
        <time>2012-09-23T09:51:51Z</time>
      </trkpt>
      <trkpt lat="43.2223" lon="1.59386">
        <ele>227</ele>
        <time>2012-09-23T09:51:54Z</time>
      </trkpt>
      <trkpt lat="43.22232" lon="1.59381">
        <ele>227</ele>
        <time>2012-09-23T09:51:56Z</time>
      </trkpt>
      <trkpt lat="43.22235" lon="1.59372">
        <ele>227</ele>
        <time>2012-09-23T09:51:59Z</time>
      </trkpt>
      <trkpt lat="43.22238" lon="1.59363">
        <ele>227</ele>
        <time>2012-09-23T09:52:02Z</time>
      </trkpt>
      <trkpt lat="43.22241" lon="1.59353">
        <ele>227</ele>
        <time>2012-09-23T09:52:05Z</time>
      </trkpt>
      <trkpt lat="43.22245" lon="1.59344">
        <ele>227</ele>
        <time>2012-09-23T09:52:08Z</time>
      </trkpt>
      <trkpt lat="43.22249" lon="1.59338">
        <ele>227</ele>
        <time>2012-09-23T09:52:10Z</time>
      </trkpt>
      <trkpt lat="43.22253" lon="1.5933">
        <ele>227</ele>
        <time>2012-09-23T09:52:13Z</time>
      </trkpt>
      <trkpt lat="43.22256" lon="1.59326">
        <ele>227</ele>
        <time>2012-09-23T09:52:16Z</time>
      </trkpt>
      <trkpt lat="43.2226" lon="1.59319">
        <ele>227</ele>
        <time>2012-09-23T09:52:19Z</time>
      </trkpt>
      <trkpt lat="43.22263" lon="1.59316">
        <ele>227</ele>
        <time>2012-09-23T09:52:21Z</time>
      </trkpt>
      <trkpt lat="43.22266" lon="1.59311">
        <ele>227</ele>
        <time>2012-09-23T09:52:23Z</time>
      </trkpt>
      <trkpt lat="43.22269" lon="1.59304">
        <ele>227</ele>
        <time>2012-09-23T09:52:26Z</time>
      </trkpt>
      <trkpt lat="43.22272" lon="1.593">
        <ele>227</ele>
        <time>2012-09-23T09:52:28Z</time>
      </trkpt>
      <trkpt lat="43.22274" lon="1.59295">
        <ele>227</ele>
        <time>2012-09-23T09:52:30Z</time>
      </trkpt>
      <trkpt lat="43.22278" lon="1.59287">
        <ele>227</ele>
        <time>2012-09-23T09:52:33Z</time>
      </trkpt>
      <trkpt lat="43.2228" lon="1.59283">
        <ele>227</ele>
        <time>2012-09-23T09:52:35Z</time>
      </trkpt>
      <trkpt lat="43.22282" lon="1.59278">
        <ele>227</ele>
        <time>2012-09-23T09:52:37Z</time>
      </trkpt>
      <trkpt lat="43.22284" lon="1.59273">
        <ele>227</ele>
        <time>2012-09-23T09:52:39Z</time>
      </trkpt>
      <trkpt lat="43.22286" lon="1.59265">
        <ele>227</ele>
        <time>2012-09-23T09:52:42Z</time>
      </trkpt>
      <trkpt lat="43.22287" lon="1.59258">
        <ele>227</ele>
        <time>2012-09-23T09:52:44Z</time>
      </trkpt>
      <trkpt lat="43.22288" lon="1.59249">
        <ele>227</ele>
        <time>2012-09-23T09:52:47Z</time>
      </trkpt>
      <trkpt lat="43.22288" lon="1.59245">
        <ele>227</ele>
        <time>2012-09-23T09:52:49Z</time>
      </trkpt>
      <trkpt lat="43.22285" lon="1.59238">
        <ele>227</ele>
        <time>2012-09-23T09:52:52Z</time>
      </trkpt>
      <trkpt lat="43.22284" lon="1.59233">
        <ele>227</ele>
        <time>2012-09-23T09:52:54Z</time>
      </trkpt>
      <trkpt lat="43.22282" lon="1.59227">
        <ele>227</ele>
        <time>2012-09-23T09:52:57Z</time>
      </trkpt>
      <trkpt lat="43.22281" lon="1.59222">
        <ele>227</ele>
        <time>2012-09-23T09:52:59Z</time>
      </trkpt>
      <trkpt lat="43.22278" lon="1.59217">
        <ele>227</ele>
        <time>2012-09-23T09:53:02Z</time>
      </trkpt>
      <trkpt lat="43.22274" lon="1.59213">
        <ele>227</ele>
        <time>2012-09-23T09:53:05Z</time>
      </trkpt>
      <trkpt lat="43.22272" lon="1.59211">
        <ele>227</ele>
        <time>2012-09-23T09:53:07Z</time>
      </trkpt>
      <trkpt lat="43.22267" lon="1.5921">
        <ele>227</ele>
        <time>2012-09-23T09:53:10Z</time>
      </trkpt>
      <trkpt lat="43.22262" lon="1.59207">
        <ele>227</ele>
        <time>2012-09-23T09:53:13Z</time>
      </trkpt>
      <trkpt lat="43.2226" lon="1.59205">
        <ele>227</ele>
        <time>2012-09-23T09:53:15Z</time>
      </trkpt>
      <trkpt lat="43.22256" lon="1.59203">
        <ele>227</ele>
        <time>2012-09-23T09:53:17Z</time>
      </trkpt>
      <trkpt lat="43.22253" lon="1.59201">
        <ele>227</ele>
        <time>2012-09-23T09:53:19Z</time>
      </trkpt>
      <trkpt lat="43.2225" lon="1.59198">
        <ele>227</ele>
        <time>2012-09-23T09:53:21Z</time>
      </trkpt>
      <trkpt lat="43.22247" lon="1.59196">
        <ele>226</ele>
        <time>2012-09-23T09:53:23Z</time>
      </trkpt>
      <trkpt lat="43.22244" lon="1.59192">
        <ele>225</ele>
        <time>2012-09-23T09:53:25Z</time>
      </trkpt>
      <trkpt lat="43.22242" lon="1.59188">
        <ele>225</ele>
        <time>2012-09-23T09:53:27Z</time>
      </trkpt>
      <trkpt lat="43.22239" lon="1.59184">
        <ele>225</ele>
        <time>2012-09-23T09:53:29Z</time>
      </trkpt>
      <trkpt lat="43.22235" lon="1.5918">
        <ele>225</ele>
        <time>2012-09-23T09:53:31Z</time>
      </trkpt>
      <trkpt lat="43.2223" lon="1.59174">
        <ele>225</ele>
        <time>2012-09-23T09:53:34Z</time>
      </trkpt>
      <trkpt lat="43.22226" lon="1.59169">
        <ele>225</ele>
        <time>2012-09-23T09:53:36Z</time>
      </trkpt>
      <trkpt lat="43.2222" lon="1.59161">
        <ele>225</ele>
        <time>2012-09-23T09:53:39Z</time>
      </trkpt>
      <trkpt lat="43.22215" lon="1.59153">
        <ele>225</ele>
        <time>2012-09-23T09:53:42Z</time>
      </trkpt>
      <trkpt lat="43.22212" lon="1.59145">
        <ele>225</ele>
        <time>2012-09-23T09:53:44Z</time>
      </trkpt>
      <trkpt lat="43.2221" lon="1.59137">
        <ele>225</ele>
        <time>2012-09-23T09:53:46Z</time>
      </trkpt>
      <trkpt lat="43.22204" lon="1.59126">
        <ele>225</ele>
        <time>2012-09-23T09:53:49Z</time>
      </trkpt>
      <trkpt lat="43.22196" lon="1.5912">
        <ele>225</ele>
        <time>2012-09-23T09:53:52Z</time>
      </trkpt>
      <trkpt lat="43.22191" lon="1.59118">
        <ele>225</ele>
        <time>2012-09-23T09:53:54Z</time>
      </trkpt>
      <trkpt lat="43.22185" lon="1.59116">
        <ele>225</ele>
        <time>2012-09-23T09:53:56Z</time>
      </trkpt>
      <trkpt lat="43.2218" lon="1.59113">
        <ele>225</ele>
        <time>2012-09-23T09:53:58Z</time>
      </trkpt>
      <trkpt lat="43.22176" lon="1.59111">
        <ele>225</ele>
        <time>2012-09-23T09:54:00Z</time>
      </trkpt>
      <trkpt lat="43.22169" lon="1.59106">
        <ele>225</ele>
        <time>2012-09-23T09:54:04Z</time>
      </trkpt>
      <trkpt lat="43.22166" lon="1.59104">
        <ele>225</ele>
        <time>2012-09-23T09:54:06Z</time>
      </trkpt>
      <trkpt lat="43.22163" lon="1.59099">
        <ele>225</ele>
        <time>2012-09-23T09:54:08Z</time>
      </trkpt>
      <trkpt lat="43.22157" lon="1.59095">
        <ele>225</ele>
        <time>2012-09-23T09:54:11Z</time>
      </trkpt>
      <trkpt lat="43.22151" lon="1.5909">
        <ele>225</ele>
        <time>2012-09-23T09:54:14Z</time>
      </trkpt>
      <trkpt lat="43.22145" lon="1.59085">
        <ele>225</ele>
        <time>2012-09-23T09:54:17Z</time>
      </trkpt>
      <trkpt lat="43.22141" lon="1.5908">
        <ele>225</ele>
        <time>2012-09-23T09:54:20Z</time>
      </trkpt>
      <trkpt lat="43.22135" lon="1.59077">
        <ele>225</ele>
        <time>2012-09-23T09:54:22Z</time>
      </trkpt>
      <trkpt lat="43.22129" lon="1.59074">
        <ele>225</ele>
        <time>2012-09-23T09:54:24Z</time>
      </trkpt>
      <trkpt lat="43.22124" lon="1.59071">
        <ele>225</ele>
        <time>2012-09-23T09:54:26Z</time>
      </trkpt>
      <trkpt lat="43.2212" lon="1.59067">
        <ele>225</ele>
        <time>2012-09-23T09:54:28Z</time>
      </trkpt>
      <trkpt lat="43.22115" lon="1.59062">
        <ele>225</ele>
        <time>2012-09-23T09:54:30Z</time>
      </trkpt>
      <trkpt lat="43.22108" lon="1.59056">
        <ele>225</ele>
        <time>2012-09-23T09:54:33Z</time>
      </trkpt>
      <trkpt lat="43.22104" lon="1.59051">
        <ele>225</ele>
        <time>2012-09-23T09:54:35Z</time>
      </trkpt>
      <trkpt lat="43.22098" lon="1.59047">
        <ele>225</ele>
        <time>2012-09-23T09:54:37Z</time>
      </trkpt>
      <trkpt lat="43.2209" lon="1.59042">
        <ele>225</ele>
        <time>2012-09-23T09:54:40Z</time>
      </trkpt>
      <trkpt lat="43.22084" lon="1.59038">
        <ele>225</ele>
        <time>2012-09-23T09:54:42Z</time>
      </trkpt>
      <trkpt lat="43.22078" lon="1.59034">
        <ele>225</ele>
        <time>2012-09-23T09:54:44Z</time>
      </trkpt>
      <trkpt lat="43.22072" lon="1.59026">
        <ele>225</ele>
        <time>2012-09-23T09:54:46Z</time>
      </trkpt>
      <trkpt lat="43.2207" lon="1.59018">
        <ele>225</ele>
        <time>2012-09-23T09:54:48Z</time>
      </trkpt>
      <trkpt lat="43.22071" lon="1.59011">
        <ele>225</ele>
        <time>2012-09-23T09:54:51Z</time>
      </trkpt>
      <trkpt lat="43.22074" lon="1.59008">
        <ele>225</ele>
        <time>2012-09-23T09:54:53Z</time>
      </trkpt>
      <trkpt lat="43.22077" lon="1.59003">
        <ele>225</ele>
        <time>2012-09-23T09:54:56Z</time>
      </trkpt>
      <trkpt lat="43.22078" lon="1.59">
        <ele>225</ele>
        <time>2012-09-23T09:54:58Z</time>
      </trkpt>
      <trkpt lat="43.22078" lon="1.58996">
        <ele>225</ele>
        <time>2012-09-23T09:55:00Z</time>
      </trkpt>
      <trkpt lat="43.22078" lon="1.58989">
        <ele>225</ele>
        <time>2012-09-23T09:55:03Z</time>
      </trkpt>
      <trkpt lat="43.22078" lon="1.58985">
        <ele>225</ele>
        <time>2012-09-23T09:55:05Z</time>
      </trkpt>
      <trkpt lat="43.22079" lon="1.58979">
        <ele>225</ele>
        <time>2012-09-23T09:55:07Z</time>
      </trkpt>
      <trkpt lat="43.22079" lon="1.58971">
        <ele>225</ele>
        <time>2012-09-23T09:55:10Z</time>
      </trkpt>
      <trkpt lat="43.2208" lon="1.58967">
        <ele>225</ele>
        <time>2012-09-23T09:55:12Z</time>
      </trkpt>
      <trkpt lat="43.22081" lon="1.58963">
        <ele>225</ele>
        <time>2012-09-23T09:55:14Z</time>
      </trkpt>
      <trkpt lat="43.22082" lon="1.58956">
        <ele>225</ele>
        <time>2012-09-23T09:55:17Z</time>
      </trkpt>
      <trkpt lat="43.22084" lon="1.58952">
        <ele>225</ele>
        <time>2012-09-23T09:55:19Z</time>
      </trkpt>
      <trkpt lat="43.22086" lon="1.58948">
        <ele>225</ele>
        <time>2012-09-23T09:55:21Z</time>
      </trkpt>
      <trkpt lat="43.22087" lon="1.58943">
        <ele>225</ele>
        <time>2012-09-23T09:55:23Z</time>
      </trkpt>
      <trkpt lat="43.22088" lon="1.58937">
        <ele>225</ele>
        <time>2012-09-23T09:55:25Z</time>
      </trkpt>
      <trkpt lat="43.22088" lon="1.58927">
        <ele>225</ele>
        <time>2012-09-23T09:55:28Z</time>
      </trkpt>
      <trkpt lat="43.22087" lon="1.58921">
        <ele>225</ele>
        <time>2012-09-23T09:55:30Z</time>
      </trkpt>
      <trkpt lat="43.22087" lon="1.58914">
        <ele>225</ele>
        <time>2012-09-23T09:55:32Z</time>
      </trkpt>
      <trkpt lat="43.22088" lon="1.58908">
        <ele>225</ele>
        <time>2012-09-23T09:55:34Z</time>
      </trkpt>
      <trkpt lat="43.22089" lon="1.58903">
        <ele>225</ele>
        <time>2012-09-23T09:55:36Z</time>
      </trkpt>
      <trkpt lat="43.2209" lon="1.58897">
        <ele>225</ele>
        <time>2012-09-23T09:55:38Z</time>
      </trkpt>
      <trkpt lat="43.22093" lon="1.58892">
        <ele>225</ele>
        <time>2012-09-23T09:55:41Z</time>
      </trkpt>
      <trkpt lat="43.22095" lon="1.58887">
        <ele>225</ele>
        <time>2012-09-23T09:55:43Z</time>
      </trkpt>
      <trkpt lat="43.22096" lon="1.5888">
        <ele>225</ele>
        <time>2012-09-23T09:55:45Z</time>
      </trkpt>
      <trkpt lat="43.22098" lon="1.58872">
        <ele>225</ele>
        <time>2012-09-23T09:55:48Z</time>
      </trkpt>
      <trkpt lat="43.22098" lon="1.58866">
        <ele>225</ele>
        <time>2012-09-23T09:55:50Z</time>
      </trkpt>
      <trkpt lat="43.22098" lon="1.58862">
        <ele>225</ele>
        <time>2012-09-23T09:55:52Z</time>
      </trkpt>
      <trkpt lat="43.22101" lon="1.5886">
        <ele>227</ele>
        <time>2012-09-23T09:55:55Z</time>
      </trkpt>
      <trkpt lat="43.221" lon="1.58857">
        <ele>229</ele>
        <time>2012-09-23T09:55:58Z</time>
      </trkpt>
      <trkpt lat="43.22101" lon="1.58852">
        <ele>231</ele>
        <time>2012-09-23T09:56:01Z</time>
      </trkpt>
      <trkpt lat="43.22102" lon="1.58849">
        <ele>232</ele>
        <time>2012-09-23T09:56:05Z</time>
      </trkpt>
      <trkpt lat="43.22104" lon="1.58847">
        <ele>232</ele>
        <time>2012-09-23T09:56:07Z</time>
      </trkpt>
      <trkpt lat="43.22105" lon="1.58845">
        <ele>232</ele>
        <time>2012-09-23T09:56:10Z</time>
      </trkpt>
      <trkpt lat="43.22105" lon="1.58843">
        <ele>232</ele>
        <time>2012-09-23T09:56:13Z</time>
      </trkpt>
      <trkpt lat="43.22105" lon="1.58841">
        <ele>233</ele>
        <time>2012-09-23T09:56:15Z</time>
      </trkpt>
      <trkpt lat="43.22107" lon="1.58838">
        <ele>233</ele>
        <time>2012-09-23T09:56:17Z</time>
      </trkpt>
      <trkpt lat="43.2211" lon="1.58834">
        <ele>233</ele>
        <time>2012-09-23T09:56:19Z</time>
      </trkpt>
      <trkpt lat="43.22112" lon="1.58829">
        <ele>233</ele>
        <time>2012-09-23T09:56:21Z</time>
      </trkpt>
      <trkpt lat="43.22114" lon="1.58825">
        <ele>233</ele>
        <time>2012-09-23T09:56:23Z</time>
      </trkpt>
      <trkpt lat="43.22118" lon="1.58819">
        <ele>233</ele>
        <time>2012-09-23T09:56:25Z</time>
      </trkpt>
      <trkpt lat="43.22121" lon="1.58812">
        <ele>233</ele>
        <time>2012-09-23T09:56:28Z</time>
      </trkpt>
      <trkpt lat="43.22123" lon="1.58808">
        <ele>233</ele>
        <time>2012-09-23T09:56:30Z</time>
      </trkpt>
      <trkpt lat="43.22128" lon="1.58802">
        <ele>233</ele>
        <time>2012-09-23T09:56:32Z</time>
      </trkpt>
      <trkpt lat="43.22132" lon="1.58795">
        <ele>233</ele>
        <time>2012-09-23T09:56:34Z</time>
      </trkpt>
      <trkpt lat="43.22135" lon="1.58789">
        <ele>232</ele>
        <time>2012-09-23T09:56:36Z</time>
      </trkpt>
      <trkpt lat="43.22136" lon="1.58783">
        <ele>232</ele>
        <time>2012-09-23T09:56:38Z</time>
      </trkpt>
      <trkpt lat="43.22139" lon="1.58777">
        <ele>231</ele>
        <time>2012-09-23T09:56:40Z</time>
      </trkpt>
      <trkpt lat="43.22141" lon="1.58771">
        <ele>231</ele>
        <time>2012-09-23T09:56:42Z</time>
      </trkpt>
      <trkpt lat="43.22142" lon="1.5876">
        <ele>230</ele>
        <time>2012-09-23T09:56:45Z</time>
      </trkpt>
      <trkpt lat="43.22146" lon="1.58754">
        <ele>229</ele>
        <time>2012-09-23T09:56:47Z</time>
      </trkpt>
      <trkpt lat="43.2215" lon="1.5875">
        <ele>229</ele>
        <time>2012-09-23T09:56:49Z</time>
      </trkpt>
      <trkpt lat="43.22153" lon="1.58747">
        <ele>229</ele>
        <time>2012-09-23T09:56:51Z</time>
      </trkpt>
      <trkpt lat="43.22156" lon="1.58745">
        <ele>229</ele>
        <time>2012-09-23T09:56:53Z</time>
      </trkpt>
      <trkpt lat="43.2216" lon="1.58741">
        <ele>229</ele>
        <time>2012-09-23T09:56:55Z</time>
      </trkpt>
      <trkpt lat="43.22165" lon="1.58739">
        <ele>229</ele>
        <time>2012-09-23T09:56:57Z</time>
      </trkpt>
      <trkpt lat="43.22169" lon="1.58736">
        <ele>229</ele>
        <time>2012-09-23T09:56:59Z</time>
      </trkpt>
      <trkpt lat="43.22174" lon="1.58731">
        <ele>229</ele>
        <time>2012-09-23T09:57:01Z</time>
      </trkpt>
      <trkpt lat="43.22176" lon="1.58725">
        <ele>229</ele>
        <time>2012-09-23T09:57:03Z</time>
      </trkpt>
      <trkpt lat="43.22179" lon="1.5872">
        <ele>229</ele>
        <time>2012-09-23T09:57:05Z</time>
      </trkpt>
      <trkpt lat="43.22185" lon="1.58713">
        <ele>229</ele>
        <time>2012-09-23T09:57:08Z</time>
      </trkpt>
      <trkpt lat="43.22189" lon="1.58708">
        <ele>229</ele>
        <time>2012-09-23T09:57:10Z</time>
      </trkpt>
      <trkpt lat="43.22194" lon="1.58702">
        <ele>229</ele>
        <time>2012-09-23T09:57:12Z</time>
      </trkpt>
      <trkpt lat="43.22198" lon="1.58696">
        <ele>228</ele>
        <time>2012-09-23T09:57:14Z</time>
      </trkpt>
      <trkpt lat="43.22202" lon="1.58693">
        <ele>228</ele>
        <time>2012-09-23T09:57:16Z</time>
      </trkpt>
      <trkpt lat="43.22206" lon="1.58691">
        <ele>228</ele>
        <time>2012-09-23T09:57:18Z</time>
      </trkpt>
      <trkpt lat="43.22208" lon="1.58689">
        <ele>228</ele>
        <time>2012-09-23T09:57:20Z</time>
      </trkpt>
      <trkpt lat="43.22212" lon="1.58688">
        <ele>228</ele>
        <time>2012-09-23T09:57:22Z</time>
      </trkpt>
      <trkpt lat="43.22213" lon="1.58685">
        <ele>228</ele>
        <time>2012-09-23T09:57:24Z</time>
      </trkpt>
      <trkpt lat="43.22218" lon="1.58683">
        <ele>228</ele>
        <time>2012-09-23T09:57:26Z</time>
      </trkpt>
      <trkpt lat="43.22223" lon="1.58683">
        <ele>228</ele>
        <time>2012-09-23T09:57:28Z</time>
      </trkpt>
      <trkpt lat="43.22228" lon="1.5868">
        <ele>228</ele>
        <time>2012-09-23T09:57:30Z</time>
      </trkpt>
      <trkpt lat="43.22232" lon="1.58677">
        <ele>229</ele>
        <time>2012-09-23T09:57:32Z</time>
      </trkpt>
      <trkpt lat="43.22237" lon="1.58674">
        <ele>230</ele>
        <time>2012-09-23T09:57:34Z</time>
      </trkpt>
      <trkpt lat="43.22244" lon="1.58672">
        <ele>230</ele>
        <time>2012-09-23T09:57:36Z</time>
      </trkpt>
      <trkpt lat="43.22249" lon="1.5867">
        <ele>230</ele>
        <time>2012-09-23T09:57:38Z</time>
      </trkpt>
      <trkpt lat="43.22254" lon="1.58669">
        <ele>230</ele>
        <time>2012-09-23T09:57:40Z</time>
      </trkpt>
      <trkpt lat="43.2226" lon="1.58669">
        <ele>230</ele>
        <time>2012-09-23T09:57:42Z</time>
      </trkpt>
      <trkpt lat="43.22265" lon="1.58667">
        <ele>230</ele>
        <time>2012-09-23T09:57:44Z</time>
      </trkpt>
      <trkpt lat="43.22269" lon="1.58666">
        <ele>230</ele>
        <time>2012-09-23T09:57:46Z</time>
      </trkpt>
      <trkpt lat="43.22274" lon="1.58664">
        <ele>230</ele>
        <time>2012-09-23T09:57:48Z</time>
      </trkpt>
      <trkpt lat="43.22282" lon="1.58664">
        <ele>231</ele>
        <time>2012-09-23T09:57:51Z</time>
      </trkpt>
      <trkpt lat="43.22288" lon="1.58661">
        <ele>231</ele>
        <time>2012-09-23T09:57:53Z</time>
      </trkpt>
      <trkpt lat="43.22294" lon="1.58659">
        <ele>231</ele>
        <time>2012-09-23T09:57:55Z</time>
      </trkpt>
      <trkpt lat="43.22303" lon="1.58655">
        <ele>231</ele>
        <time>2012-09-23T09:57:58Z</time>
      </trkpt>
      <trkpt lat="43.22309" lon="1.58653">
        <ele>231</ele>
        <time>2012-09-23T09:58:00Z</time>
      </trkpt>
      <trkpt lat="43.22316" lon="1.5865">
        <ele>230</ele>
        <time>2012-09-23T09:58:02Z</time>
      </trkpt>
      <trkpt lat="43.22324" lon="1.58647">
        <ele>229</ele>
        <time>2012-09-23T09:58:05Z</time>
      </trkpt>
      <trkpt lat="43.22329" lon="1.58645">
        <ele>229</ele>
        <time>2012-09-23T09:58:07Z</time>
      </trkpt>
      <trkpt lat="43.22335" lon="1.5864">
        <ele>228</ele>
        <time>2012-09-23T09:58:09Z</time>
      </trkpt>
      <trkpt lat="43.2234" lon="1.58637">
        <ele>228</ele>
        <time>2012-09-23T09:58:11Z</time>
      </trkpt>
      <trkpt lat="43.22345" lon="1.58634">
        <ele>228</ele>
        <time>2012-09-23T09:58:13Z</time>
      </trkpt>
      <trkpt lat="43.2235" lon="1.58632">
        <ele>228</ele>
        <time>2012-09-23T09:58:15Z</time>
      </trkpt>
      <trkpt lat="43.22356" lon="1.58629">
        <ele>228</ele>
        <time>2012-09-23T09:58:18Z</time>
      </trkpt>
      <trkpt lat="43.22361" lon="1.58629">
        <ele>228</ele>
        <time>2012-09-23T09:58:20Z</time>
      </trkpt>
      <trkpt lat="43.22364" lon="1.58628">
        <ele>228</ele>
        <time>2012-09-23T09:58:22Z</time>
      </trkpt>
      <trkpt lat="43.22368" lon="1.58627">
        <ele>228</ele>
        <time>2012-09-23T09:58:24Z</time>
      </trkpt>
      <trkpt lat="43.22371" lon="1.58625">
        <ele>228</ele>
        <time>2012-09-23T09:58:26Z</time>
      </trkpt>
      <trkpt lat="43.22376" lon="1.58624">
        <ele>228</ele>
        <time>2012-09-23T09:58:28Z</time>
      </trkpt>
      <trkpt lat="43.22383" lon="1.58623">
        <ele>228</ele>
        <time>2012-09-23T09:58:31Z</time>
      </trkpt>
      <trkpt lat="43.2239" lon="1.58624">
        <ele>228</ele>
        <time>2012-09-23T09:58:34Z</time>
      </trkpt>
      <trkpt lat="43.22394" lon="1.58626">
        <ele>228</ele>
        <time>2012-09-23T09:58:36Z</time>
      </trkpt>
      <trkpt lat="43.22398" lon="1.58628">
        <ele>228</ele>
        <time>2012-09-23T09:58:38Z</time>
      </trkpt>
      <trkpt lat="43.22401" lon="1.5863">
        <ele>228</ele>
        <time>2012-09-23T09:58:40Z</time>
      </trkpt>
      <trkpt lat="43.22404" lon="1.58632">
        <ele>228</ele>
        <time>2012-09-23T09:58:42Z</time>
      </trkpt>
      <trkpt lat="43.22411" lon="1.58634">
        <ele>228</ele>
        <time>2012-09-23T09:58:45Z</time>
      </trkpt>
      <trkpt lat="43.22416" lon="1.58636">
        <ele>228</ele>
        <time>2012-09-23T09:58:47Z</time>
      </trkpt>
      <trkpt lat="43.22421" lon="1.58637">
        <ele>228</ele>
        <time>2012-09-23T09:58:49Z</time>
      </trkpt>
      <trkpt lat="43.22425" lon="1.5864">
        <ele>228</ele>
        <time>2012-09-23T09:58:51Z</time>
      </trkpt>
      <trkpt lat="43.22433" lon="1.58646">
        <ele>228</ele>
        <time>2012-09-23T09:58:54Z</time>
      </trkpt>
      <trkpt lat="43.22439" lon="1.58652">
        <ele>228</ele>
        <time>2012-09-23T09:58:56Z</time>
      </trkpt>
      <trkpt lat="43.22443" lon="1.58659">
        <ele>228</ele>
        <time>2012-09-23T09:58:58Z</time>
      </trkpt>
      <trkpt lat="43.22452" lon="1.58669">
        <ele>228</ele>
        <time>2012-09-23T09:59:01Z</time>
      </trkpt>
      <trkpt lat="43.22462" lon="1.58677">
        <ele>228</ele>
        <time>2012-09-23T09:59:04Z</time>
      </trkpt>
      <trkpt lat="43.22468" lon="1.58683">
        <ele>228</ele>
        <time>2012-09-23T09:59:06Z</time>
      </trkpt>
      <trkpt lat="43.22473" lon="1.58689">
        <ele>227</ele>
        <time>2012-09-23T09:59:08Z</time>
      </trkpt>
      <trkpt lat="43.22475" lon="1.58694">
        <ele>225</ele>
        <time>2012-09-23T09:59:10Z</time>
      </trkpt>
      <trkpt lat="43.22478" lon="1.587">
        <ele>225</ele>
        <time>2012-09-23T09:59:13Z</time>
      </trkpt>
      <trkpt lat="43.22482" lon="1.58701">
        <ele>225</ele>
        <time>2012-09-23T09:59:16Z</time>
      </trkpt>
      <trkpt lat="43.22482" lon="1.58698">
        <ele>225</ele>
        <time>2012-09-23T09:59:19Z</time>
      </trkpt>
      <trkpt lat="43.22485" lon="1.58696">
        <ele>225</ele>
        <time>2012-09-23T09:59:21Z</time>
      </trkpt>
      <trkpt lat="43.22486" lon="1.58692">
        <ele>225</ele>
        <time>2012-09-23T09:59:23Z</time>
      </trkpt>
      <trkpt lat="43.22489" lon="1.58688">
        <ele>226</ele>
        <time>2012-09-23T09:59:25Z</time>
      </trkpt>
      <trkpt lat="43.22497" lon="1.58684">
        <ele>228</ele>
        <time>2012-09-23T09:59:28Z</time>
      </trkpt>
      <trkpt lat="43.22503" lon="1.58683">
        <ele>228</ele>
        <time>2012-09-23T09:59:30Z</time>
      </trkpt>
      <trkpt lat="43.22511" lon="1.58682">
        <ele>228</ele>
        <time>2012-09-23T09:59:33Z</time>
      </trkpt>
      <trkpt lat="43.22517" lon="1.58681">
        <ele>228</ele>
        <time>2012-09-23T09:59:35Z</time>
      </trkpt>
      <trkpt lat="43.22522" lon="1.5868">
        <ele>228</ele>
        <time>2012-09-23T09:59:37Z</time>
      </trkpt>
      <trkpt lat="43.22528" lon="1.58679">
        <ele>228</ele>
        <time>2012-09-23T09:59:39Z</time>
      </trkpt>
      <trkpt lat="43.22534" lon="1.58676">
        <ele>228</ele>
        <time>2012-09-23T09:59:41Z</time>
      </trkpt>
      <trkpt lat="43.2254" lon="1.58672">
        <ele>228</ele>
        <time>2012-09-23T09:59:43Z</time>
      </trkpt>
      <trkpt lat="43.2255" lon="1.58666">
        <ele>228</ele>
        <time>2012-09-23T09:59:46Z</time>
      </trkpt>
      <trkpt lat="43.22554" lon="1.5866">
        <ele>228</ele>
        <time>2012-09-23T09:59:48Z</time>
      </trkpt>
      <trkpt lat="43.22557" lon="1.58652">
        <ele>228</ele>
        <time>2012-09-23T09:59:51Z</time>
      </trkpt>
      <trkpt lat="43.22558" lon="1.58649">
        <ele>228</ele>
        <time>2012-09-23T09:59:53Z</time>
      </trkpt>
      <trkpt lat="43.22561" lon="1.58645">
        <ele>228</ele>
        <time>2012-09-23T09:59:56Z</time>
      </trkpt>
      <trkpt lat="43.22563" lon="1.58643">
        <ele>228</ele>
        <time>2012-09-23T09:59:58Z</time>
      </trkpt>
      <trkpt lat="43.22566" lon="1.58642">
        <ele>228</ele>
        <time>2012-09-23T10:00:00Z</time>
      </trkpt>
      <trkpt lat="43.2257" lon="1.58641">
        <ele>228</ele>
        <time>2012-09-23T10:00:02Z</time>
      </trkpt>
      <trkpt lat="43.22574" lon="1.58638">
        <ele>228</ele>
        <time>2012-09-23T10:00:05Z</time>
      </trkpt>
      <trkpt lat="43.22576" lon="1.58636">
        <ele>227</ele>
        <time>2012-09-23T10:00:07Z</time>
      </trkpt>
      <trkpt lat="43.22579" lon="1.58633">
        <ele>227</ele>
        <time>2012-09-23T10:00:09Z</time>
      </trkpt>
      <trkpt lat="43.22581" lon="1.5863">
        <ele>226</ele>
        <time>2012-09-23T10:00:11Z</time>
      </trkpt>
      <trkpt lat="43.22584" lon="1.58625">
        <ele>226</ele>
        <time>2012-09-23T10:00:13Z</time>
      </trkpt>
      <trkpt lat="43.22588" lon="1.58622">
        <ele>226</ele>
        <time>2012-09-23T10:00:15Z</time>
      </trkpt>
      <trkpt lat="43.22593" lon="1.58614">
        <ele>225</ele>
        <time>2012-09-23T10:00:18Z</time>
      </trkpt>
      <trkpt lat="43.22596" lon="1.58606">
        <ele>225</ele>
        <time>2012-09-23T10:00:21Z</time>
      </trkpt>
      <trkpt lat="43.22599" lon="1.58602">
        <ele>225</ele>
        <time>2012-09-23T10:00:23Z</time>
      </trkpt>
      <trkpt lat="43.22603" lon="1.58595">
        <ele>224</ele>
        <time>2012-09-23T10:00:26Z</time>
      </trkpt>
      <trkpt lat="43.22606" lon="1.58589">
        <ele>224</ele>
        <time>2012-09-23T10:00:28Z</time>
      </trkpt>
      <trkpt lat="43.22609" lon="1.58583">
        <ele>224</ele>
        <time>2012-09-23T10:00:30Z</time>
      </trkpt>
      <trkpt lat="43.22612" lon="1.58577">
        <ele>224</ele>
        <time>2012-09-23T10:00:32Z</time>
      </trkpt>
      <trkpt lat="43.22614" lon="1.58571">
        <ele>224</ele>
        <time>2012-09-23T10:00:34Z</time>
      </trkpt>
      <trkpt lat="43.22616" lon="1.58565">
        <ele>224</ele>
        <time>2012-09-23T10:00:36Z</time>
      </trkpt>
      <trkpt lat="43.2262" lon="1.58556">
        <ele>224</ele>
        <time>2012-09-23T10:00:39Z</time>
      </trkpt>
      <trkpt lat="43.22621" lon="1.58551">
        <ele>224</ele>
        <time>2012-09-23T10:00:41Z</time>
      </trkpt>
      <trkpt lat="43.22623" lon="1.58545">
        <ele>224</ele>
        <time>2012-09-23T10:00:43Z</time>
      </trkpt>
      <trkpt lat="43.22628" lon="1.58537">
        <ele>225</ele>
        <time>2012-09-23T10:00:46Z</time>
      </trkpt>
      <trkpt lat="43.22632" lon="1.58529">
        <ele>225</ele>
        <time>2012-09-23T10:00:49Z</time>
      </trkpt>
      <trkpt lat="43.22636" lon="1.58524">
        <ele>225</ele>
        <time>2012-09-23T10:00:51Z</time>
      </trkpt>
      <trkpt lat="43.2264" lon="1.58515">
        <ele>225</ele>
        <time>2012-09-23T10:00:54Z</time>
      </trkpt>
      <trkpt lat="43.22644" lon="1.58506">
        <ele>225</ele>
        <time>2012-09-23T10:00:57Z</time>
      </trkpt>
      <trkpt lat="43.22648" lon="1.585">
        <ele>225</ele>
        <time>2012-09-23T10:00:59Z</time>
      </trkpt>
      <trkpt lat="43.2265" lon="1.58494">
        <ele>225</ele>
        <time>2012-09-23T10:01:01Z</time>
      </trkpt>
      <trkpt lat="43.22649" lon="1.58485">
        <ele>226</ele>
        <time>2012-09-23T10:01:04Z</time>
      </trkpt>
      <trkpt lat="43.22653" lon="1.58477">
        <ele>227</ele>
        <time>2012-09-23T10:01:07Z</time>
      </trkpt>
      <trkpt lat="43.22656" lon="1.58471">
        <ele>227</ele>
        <time>2012-09-23T10:01:09Z</time>
      </trkpt>
      <trkpt lat="43.22657" lon="1.58465">
        <ele>227</ele>
        <time>2012-09-23T10:01:11Z</time>
      </trkpt>
      <trkpt lat="43.2266" lon="1.58456">
        <ele>229</ele>
        <time>2012-09-23T10:01:14Z</time>
      </trkpt>
      <trkpt lat="43.22663" lon="1.5845">
        <ele>229</ele>
        <time>2012-09-23T10:01:16Z</time>
      </trkpt>
      <trkpt lat="43.22667" lon="1.58445">
        <ele>230</ele>
        <time>2012-09-23T10:01:18Z</time>
      </trkpt>
      <trkpt lat="43.22669" lon="1.58437">
        <ele>230</ele>
        <time>2012-09-23T10:01:21Z</time>
      </trkpt>
      <trkpt lat="43.22671" lon="1.58432">
        <ele>232</ele>
        <time>2012-09-23T10:01:23Z</time>
      </trkpt>
      <trkpt lat="43.22675" lon="1.58426">
        <ele>233</ele>
        <time>2012-09-23T10:01:25Z</time>
      </trkpt>
      <trkpt lat="43.22678" lon="1.58421">
        <ele>233</ele>
        <time>2012-09-23T10:01:27Z</time>
      </trkpt>
      <trkpt lat="43.22682" lon="1.58415">
        <ele>233</ele>
        <time>2012-09-23T10:01:29Z</time>
      </trkpt>
      <trkpt lat="43.22686" lon="1.58407">
        <ele>233</ele>
        <time>2012-09-23T10:01:32Z</time>
      </trkpt>
      <trkpt lat="43.22691" lon="1.58398">
        <ele>233</ele>
        <time>2012-09-23T10:01:35Z</time>
      </trkpt>
      <trkpt lat="43.22693" lon="1.58388">
        <ele>233</ele>
        <time>2012-09-23T10:01:38Z</time>
      </trkpt>
      <trkpt lat="43.22696" lon="1.58379">
        <ele>233</ele>
        <time>2012-09-23T10:01:41Z</time>
      </trkpt>
      <trkpt lat="43.22699" lon="1.58373">
        <ele>233</ele>
        <time>2012-09-23T10:01:43Z</time>
      </trkpt>
      <trkpt lat="43.22704" lon="1.58363">
        <ele>233</ele>
        <time>2012-09-23T10:01:46Z</time>
      </trkpt>
      <trkpt lat="43.22707" lon="1.58353">
        <ele>233</ele>
        <time>2012-09-23T10:01:49Z</time>
      </trkpt>
      <trkpt lat="43.22709" lon="1.58347">
        <ele>233</ele>
        <time>2012-09-23T10:01:51Z</time>
      </trkpt>
      <trkpt lat="43.22713" lon="1.58337">
        <ele>232</ele>
        <time>2012-09-23T10:01:54Z</time>
      </trkpt>
      <trkpt lat="43.22717" lon="1.58327">
        <ele>230</ele>
        <time>2012-09-23T10:01:57Z</time>
      </trkpt>
      <trkpt lat="43.22719" lon="1.58322">
        <ele>229</ele>
        <time>2012-09-23T10:01:59Z</time>
      </trkpt>
      <trkpt lat="43.2272" lon="1.58317">
        <ele>229</ele>
        <time>2012-09-23T10:02:01Z</time>
      </trkpt>
      <trkpt lat="43.22722" lon="1.58311">
        <ele>229</ele>
        <time>2012-09-23T10:02:03Z</time>
      </trkpt>
      <trkpt lat="43.22726" lon="1.58302">
        <ele>228</ele>
        <time>2012-09-23T10:02:06Z</time>
      </trkpt>
      <trkpt lat="43.22729" lon="1.58297">
        <ele>228</ele>
        <time>2012-09-23T10:02:08Z</time>
      </trkpt>
      <trkpt lat="43.22733" lon="1.58291">
        <ele>228</ele>
        <time>2012-09-23T10:02:10Z</time>
      </trkpt>
      <trkpt lat="43.22734" lon="1.58285">
        <ele>228</ele>
        <time>2012-09-23T10:02:12Z</time>
      </trkpt>
      <trkpt lat="43.22738" lon="1.5828">
        <ele>228</ele>
        <time>2012-09-23T10:02:14Z</time>
      </trkpt>
      <trkpt lat="43.2274" lon="1.58274">
        <ele>228</ele>
        <time>2012-09-23T10:02:16Z</time>
      </trkpt>
      <trkpt lat="43.22743" lon="1.58264">
        <ele>228</ele>
        <time>2012-09-23T10:02:19Z</time>
      </trkpt>
      <trkpt lat="43.22746" lon="1.58258">
        <ele>228</ele>
        <time>2012-09-23T10:02:21Z</time>
      </trkpt>
      <trkpt lat="43.2275" lon="1.58249">
        <ele>228</ele>
        <time>2012-09-23T10:02:24Z</time>
      </trkpt>
      <trkpt lat="43.22752" lon="1.58243">
        <ele>228</ele>
        <time>2012-09-23T10:02:26Z</time>
      </trkpt>
      <trkpt lat="43.22755" lon="1.58237">
        <ele>228</ele>
        <time>2012-09-23T10:02:28Z</time>
      </trkpt>
      <trkpt lat="43.22759" lon="1.5823">
        <ele>227</ele>
        <time>2012-09-23T10:02:30Z</time>
      </trkpt>
      <trkpt lat="43.22762" lon="1.58224">
        <ele>227</ele>
        <time>2012-09-23T10:02:32Z</time>
      </trkpt>
      <trkpt lat="43.22765" lon="1.58217">
        <ele>226</ele>
        <time>2012-09-23T10:02:34Z</time>
      </trkpt>
      <trkpt lat="43.22769" lon="1.58211">
        <ele>226</ele>
        <time>2012-09-23T10:02:36Z</time>
      </trkpt>
      <trkpt lat="43.22772" lon="1.58205">
        <ele>226</ele>
        <time>2012-09-23T10:02:38Z</time>
      </trkpt>
      <trkpt lat="43.22777" lon="1.58195">
        <ele>225</ele>
        <time>2012-09-23T10:02:41Z</time>
      </trkpt>
      <trkpt lat="43.22781" lon="1.58189">
        <ele>225</ele>
        <time>2012-09-23T10:02:43Z</time>
      </trkpt>
      <trkpt lat="43.22785" lon="1.58184">
        <ele>224</ele>
        <time>2012-09-23T10:02:45Z</time>
      </trkpt>
      <trkpt lat="43.22789" lon="1.58179">
        <ele>224</ele>
        <time>2012-09-23T10:02:47Z</time>
      </trkpt>
      <trkpt lat="43.22793" lon="1.58174">
        <ele>224</ele>
        <time>2012-09-23T10:02:49Z</time>
      </trkpt>
      <trkpt lat="43.22798" lon="1.58168">
        <ele>223</ele>
        <time>2012-09-23T10:02:51Z</time>
      </trkpt>
      <trkpt lat="43.22804" lon="1.58162">
        <ele>223</ele>
        <time>2012-09-23T10:02:54Z</time>
      </trkpt>
      <trkpt lat="43.22808" lon="1.58158">
        <ele>223</ele>
        <time>2012-09-23T10:02:56Z</time>
      </trkpt>
      <trkpt lat="43.22814" lon="1.5815">
        <ele>223</ele>
        <time>2012-09-23T10:02:59Z</time>
      </trkpt>
      <trkpt lat="43.22817" lon="1.58145">
        <ele>223</ele>
        <time>2012-09-23T10:03:01Z</time>
      </trkpt>
      <trkpt lat="43.2282" lon="1.58139">
        <ele>222</ele>
        <time>2012-09-23T10:03:04Z</time>
      </trkpt>
      <trkpt lat="43.22823" lon="1.58135">
        <ele>222</ele>
        <time>2012-09-23T10:03:06Z</time>
      </trkpt>
      <trkpt lat="43.22828" lon="1.5813">
        <ele>222</ele>
        <time>2012-09-23T10:03:08Z</time>
      </trkpt>
      <trkpt lat="43.22831" lon="1.58126">
        <ele>222</ele>
        <time>2012-09-23T10:03:10Z</time>
      </trkpt>
      <trkpt lat="43.22836" lon="1.5812">
        <ele>221</ele>
        <time>2012-09-23T10:03:13Z</time>
      </trkpt>
      <trkpt lat="43.2284" lon="1.58115">
        <ele>221</ele>
        <time>2012-09-23T10:03:15Z</time>
      </trkpt>
      <trkpt lat="43.22843" lon="1.58112">
        <ele>221</ele>
        <time>2012-09-23T10:03:17Z</time>
      </trkpt>
      <trkpt lat="43.22846" lon="1.58108">
        <ele>221</ele>
        <time>2012-09-23T10:03:19Z</time>
      </trkpt>
      <trkpt lat="43.22852" lon="1.58103">
        <ele>220</ele>
        <time>2012-09-23T10:03:22Z</time>
      </trkpt>
      <trkpt lat="43.22855" lon="1.58101">
        <ele>220</ele>
        <time>2012-09-23T10:03:24Z</time>
      </trkpt>
      <trkpt lat="43.22861" lon="1.58098">
        <ele>220</ele>
        <time>2012-09-23T10:03:27Z</time>
      </trkpt>
      <trkpt lat="43.22866" lon="1.58096">
        <ele>220</ele>
        <time>2012-09-23T10:03:29Z</time>
      </trkpt>
      <trkpt lat="43.2287" lon="1.58094">
        <ele>220</ele>
        <time>2012-09-23T10:03:31Z</time>
      </trkpt>
      <trkpt lat="43.22873" lon="1.58093">
        <ele>220</ele>
        <time>2012-09-23T10:03:33Z</time>
      </trkpt>
      <trkpt lat="43.22876" lon="1.58091">
        <ele>220</ele>
        <time>2012-09-23T10:03:35Z</time>
      </trkpt>
      <trkpt lat="43.22883" lon="1.58089">
        <ele>220</ele>
        <time>2012-09-23T10:03:38Z</time>
      </trkpt>
      <trkpt lat="43.22888" lon="1.58087">
        <ele>220</ele>
        <time>2012-09-23T10:03:40Z</time>
      </trkpt>
      <trkpt lat="43.22892" lon="1.58087">
        <ele>220</ele>
        <time>2012-09-23T10:03:42Z</time>
      </trkpt>
      <trkpt lat="43.22897" lon="1.58086">
        <ele>220</ele>
        <time>2012-09-23T10:03:44Z</time>
      </trkpt>
      <trkpt lat="43.22901" lon="1.58085">
        <ele>220</ele>
        <time>2012-09-23T10:03:46Z</time>
      </trkpt>
      <trkpt lat="43.22904" lon="1.58082">
        <ele>220</ele>
        <time>2012-09-23T10:03:48Z</time>
      </trkpt>
      <trkpt lat="43.2291" lon="1.58079">
        <ele>220</ele>
        <time>2012-09-23T10:03:51Z</time>
      </trkpt>
      <trkpt lat="43.22914" lon="1.58078">
        <ele>220</ele>
        <time>2012-09-23T10:03:53Z</time>
      </trkpt>
      <trkpt lat="43.22918" lon="1.58074">
        <ele>222</ele>
        <time>2012-09-23T10:03:56Z</time>
      </trkpt>
      <trkpt lat="43.22922" lon="1.58071">
        <ele>225</ele>
        <time>2012-09-23T10:03:59Z</time>
      </trkpt>
      <trkpt lat="43.22926" lon="1.58069">
        <ele>227</ele>
        <time>2012-09-23T10:04:01Z</time>
      </trkpt>
      <trkpt lat="43.22931" lon="1.58067">
        <ele>228</ele>
        <time>2012-09-23T10:04:03Z</time>
      </trkpt>
      <trkpt lat="43.22936" lon="1.58064">
        <ele>228</ele>
        <time>2012-09-23T10:04:05Z</time>
      </trkpt>
      <trkpt lat="43.22945" lon="1.58063">
        <ele>228</ele>
        <time>2012-09-23T10:04:08Z</time>
      </trkpt>
      <trkpt lat="43.22948" lon="1.5806">
        <ele>228</ele>
        <time>2012-09-23T10:04:10Z</time>
      </trkpt>
      <trkpt lat="43.22952" lon="1.58057">
        <ele>228</ele>
        <time>2012-09-23T10:04:12Z</time>
      </trkpt>
      <trkpt lat="43.22955" lon="1.58056">
        <ele>228</ele>
        <time>2012-09-23T10:04:14Z</time>
      </trkpt>
      <trkpt lat="43.22958" lon="1.58053">
        <ele>228</ele>
        <time>2012-09-23T10:04:16Z</time>
      </trkpt>
      <trkpt lat="43.22961" lon="1.58051">
        <ele>228</ele>
        <time>2012-09-23T10:04:18Z</time>
      </trkpt>
      <trkpt lat="43.22964" lon="1.58048">
        <ele>228</ele>
        <time>2012-09-23T10:04:20Z</time>
      </trkpt>
      <trkpt lat="43.2297" lon="1.58043">
        <ele>228</ele>
        <time>2012-09-23T10:04:23Z</time>
      </trkpt>
      <trkpt lat="43.22975" lon="1.58041">
        <ele>228</ele>
        <time>2012-09-23T10:04:25Z</time>
      </trkpt>
      <trkpt lat="43.22979" lon="1.5804">
        <ele>228</ele>
        <time>2012-09-23T10:04:27Z</time>
      </trkpt>
      <trkpt lat="43.22985" lon="1.58037">
        <ele>228</ele>
        <time>2012-09-23T10:04:30Z</time>
      </trkpt>
      <trkpt lat="43.2299" lon="1.58033">
        <ele>228</ele>
        <time>2012-09-23T10:04:32Z</time>
      </trkpt>
      <trkpt lat="43.22996" lon="1.58027">
        <ele>228</ele>
        <time>2012-09-23T10:04:35Z</time>
      </trkpt>
      <trkpt lat="43.23002" lon="1.58021">
        <ele>228</ele>
        <time>2012-09-23T10:04:38Z</time>
      </trkpt>
      <trkpt lat="43.23008" lon="1.58015">
        <ele>227</ele>
        <time>2012-09-23T10:04:41Z</time>
      </trkpt>
      <trkpt lat="43.23011" lon="1.58011">
        <ele>227</ele>
        <time>2012-09-23T10:04:43Z</time>
      </trkpt>
      <trkpt lat="43.23014" lon="1.58006">
        <ele>226</ele>
        <time>2012-09-23T10:04:45Z</time>
      </trkpt>
      <trkpt lat="43.23019" lon="1.57999">
        <ele>225</ele>
        <time>2012-09-23T10:04:48Z</time>
      </trkpt>
      <trkpt lat="43.23022" lon="1.57994">
        <ele>225</ele>
        <time>2012-09-23T10:04:50Z</time>
      </trkpt>
      <trkpt lat="43.23025" lon="1.5799">
        <ele>225</ele>
        <time>2012-09-23T10:04:52Z</time>
      </trkpt>
      <trkpt lat="43.23028" lon="1.57985">
        <ele>225</ele>
        <time>2012-09-23T10:04:54Z</time>
      </trkpt>
      <trkpt lat="43.2303" lon="1.57982">
        <ele>224</ele>
        <time>2012-09-23T10:04:56Z</time>
      </trkpt>
      <trkpt lat="43.23036" lon="1.57977">
        <ele>224</ele>
        <time>2012-09-23T10:04:59Z</time>
      </trkpt>
      <trkpt lat="43.23039" lon="1.57973">
        <ele>224</ele>
        <time>2012-09-23T10:05:01Z</time>
      </trkpt>
      <trkpt lat="43.23042" lon="1.57969">
        <ele>224</ele>
        <time>2012-09-23T10:05:03Z</time>
      </trkpt>
      <trkpt lat="43.23045" lon="1.57966">
        <ele>224</ele>
        <time>2012-09-23T10:05:05Z</time>
      </trkpt>
      <trkpt lat="43.2305" lon="1.5796">
        <ele>223</ele>
        <time>2012-09-23T10:05:08Z</time>
      </trkpt>
      <trkpt lat="43.23054" lon="1.57957">
        <ele>223</ele>
        <time>2012-09-23T10:05:10Z</time>
      </trkpt>
      <trkpt lat="43.23057" lon="1.57953">
        <ele>223</ele>
        <time>2012-09-23T10:05:12Z</time>
      </trkpt>
      <trkpt lat="43.23061" lon="1.57949">
        <ele>222</ele>
        <time>2012-09-23T10:05:14Z</time>
      </trkpt>
      <trkpt lat="43.23063" lon="1.57946">
        <ele>222</ele>
        <time>2012-09-23T10:05:16Z</time>
      </trkpt>
      <trkpt lat="43.23066" lon="1.57943">
        <ele>222</ele>
        <time>2012-09-23T10:05:18Z</time>
      </trkpt>
      <trkpt lat="43.23069" lon="1.5794">
        <ele>222</ele>
        <time>2012-09-23T10:05:20Z</time>
      </trkpt>
      <trkpt lat="43.23074" lon="1.57934">
        <ele>222</ele>
        <time>2012-09-23T10:05:23Z</time>
      </trkpt>
      <trkpt lat="43.23077" lon="1.57931">
        <ele>222</ele>
        <time>2012-09-23T10:05:25Z</time>
      </trkpt>
      <trkpt lat="43.2308" lon="1.57926">
        <ele>222</ele>
        <time>2012-09-23T10:05:27Z</time>
      </trkpt>
      <trkpt lat="43.23083" lon="1.57923">
        <ele>222</ele>
        <time>2012-09-23T10:05:29Z</time>
      </trkpt>
      <trkpt lat="43.23087" lon="1.57917">
        <ele>222</ele>
        <time>2012-09-23T10:05:32Z</time>
      </trkpt>
      <trkpt lat="43.2309" lon="1.57913">
        <ele>222</ele>
        <time>2012-09-23T10:05:34Z</time>
      </trkpt>
      <trkpt lat="43.23095" lon="1.57906">
        <ele>222</ele>
        <time>2012-09-23T10:05:37Z</time>
      </trkpt>
      <trkpt lat="43.23098" lon="1.57902">
        <ele>222</ele>
        <time>2012-09-23T10:05:39Z</time>
      </trkpt>
      <trkpt lat="43.23101" lon="1.57897">
        <ele>222</ele>
        <time>2012-09-23T10:05:41Z</time>
      </trkpt>
      <trkpt lat="43.23103" lon="1.57892">
        <ele>222</ele>
        <time>2012-09-23T10:05:43Z</time>
      </trkpt>
      <trkpt lat="43.23107" lon="1.57886">
        <ele>222</ele>
        <time>2012-09-23T10:05:46Z</time>
      </trkpt>
      <trkpt lat="43.23108" lon="1.57881">
        <ele>222</ele>
        <time>2012-09-23T10:05:48Z</time>
      </trkpt>
      <trkpt lat="43.2311" lon="1.57877">
        <ele>222</ele>
        <time>2012-09-23T10:05:50Z</time>
      </trkpt>
      <trkpt lat="43.23112" lon="1.57872">
        <ele>222</ele>
        <time>2012-09-23T10:05:52Z</time>
      </trkpt>
      <trkpt lat="43.23114" lon="1.57865">
        <ele>222</ele>
        <time>2012-09-23T10:05:55Z</time>
      </trkpt>
      <trkpt lat="43.23117" lon="1.57858">
        <ele>222</ele>
        <time>2012-09-23T10:05:58Z</time>
      </trkpt>
      <trkpt lat="43.23119" lon="1.57854">
        <ele>222</ele>
        <time>2012-09-23T10:06:00Z</time>
      </trkpt>
      <trkpt lat="43.23121" lon="1.57849">
        <ele>222</ele>
        <time>2012-09-23T10:06:02Z</time>
      </trkpt>
      <trkpt lat="43.23123" lon="1.57843">
        <ele>222</ele>
        <time>2012-09-23T10:06:04Z</time>
      </trkpt>
      <trkpt lat="43.23126" lon="1.57838">
        <ele>222</ele>
        <time>2012-09-23T10:06:06Z</time>
      </trkpt>
      <trkpt lat="43.23127" lon="1.57834">
        <ele>222</ele>
        <time>2012-09-23T10:06:08Z</time>
      </trkpt>
      <trkpt lat="43.23128" lon="1.57829">
        <ele>222</ele>
        <time>2012-09-23T10:06:10Z</time>
      </trkpt>
      <trkpt lat="43.2313" lon="1.57824">
        <ele>222</ele>
        <time>2012-09-23T10:06:12Z</time>
      </trkpt>
      <trkpt lat="43.23133" lon="1.57818">
        <ele>222</ele>
        <time>2012-09-23T10:06:15Z</time>
      </trkpt>
      <trkpt lat="43.23134" lon="1.57816">
        <ele>222</ele>
        <time>2012-09-23T10:06:26Z</time>
      </trkpt>
      <trkpt lat="43.23136" lon="1.57816">
        <ele>222</ele>
        <time>2012-09-23T10:06:28Z</time>
      </trkpt>
      <trkpt lat="43.23135" lon="1.57817">
        <ele>222</ele>
        <time>2012-09-23T10:06:31Z</time>
      </trkpt>
      <trkpt lat="43.23135" lon="1.5782">
        <ele>222</ele>
        <time>2012-09-23T10:06:35Z</time>
      </trkpt>
      <trkpt lat="43.23134" lon="1.57819">
        <ele>222</ele>
        <time>2012-09-23T10:06:40Z</time>
      </trkpt>
      <trkpt lat="43.23132" lon="1.57817">
        <ele>222</ele>
        <time>2012-09-23T10:06:44Z</time>
      </trkpt>
      <trkpt lat="43.23133" lon="1.57814">
        <ele>222</ele>
        <time>2012-09-23T10:06:48Z</time>
      </trkpt>
      <trkpt lat="43.23132" lon="1.57812">
        <ele>222</ele>
        <time>2012-09-23T10:06:50Z</time>
      </trkpt>
      <trkpt lat="43.23131" lon="1.57809">
        <ele>222</ele>
        <time>2012-09-23T10:06:52Z</time>
      </trkpt>
      <trkpt lat="43.23131" lon="1.57808">
        <ele>222</ele>
        <time>2012-09-23T10:06:54Z</time>
      </trkpt>
      <trkpt lat="43.2313" lon="1.57807">
        <ele>222</ele>
        <time>2012-09-23T10:07:03Z</time>
      </trkpt>
      <trkpt lat="43.23129" lon="1.57808">
        <ele>222</ele>
        <time>2012-09-23T10:07:08Z</time>
      </trkpt>
      <trkpt lat="43.23129" lon="1.57809">
        <ele>222</ele>
        <time>2012-09-23T10:07:29Z</time>
      </trkpt>
      <trkpt lat="43.2313" lon="1.57811">
        <ele>222</ele>
        <time>2012-09-23T10:07:32Z</time>
      </trkpt>
      <trkpt lat="43.23131" lon="1.57809">
        <ele>222</ele>
        <time>2012-09-23T10:07:37Z</time>
      </trkpt>
      <trkpt lat="43.23135" lon="1.57804">
        <ele>222</ele>
        <time>2012-09-23T10:07:39Z</time>
      </trkpt>
      <trkpt lat="43.23138" lon="1.57798">
        <ele>222</ele>
        <time>2012-09-23T10:07:41Z</time>
      </trkpt>
      <trkpt lat="43.23138" lon="1.57797">
        <ele>222</ele>
        <time>2012-09-23T10:07:46Z</time>
      </trkpt>
      <trkpt lat="43.23134" lon="1.57798">
        <ele>222</ele>
        <time>2012-09-23T10:07:48Z</time>
      </trkpt>
      <trkpt lat="43.23129" lon="1.57798">
        <ele>222</ele>
        <time>2012-09-23T10:07:52Z</time>
      </trkpt>
      <trkpt lat="43.23128" lon="1.57796">
        <ele>222</ele>
        <time>2012-09-23T10:07:54Z</time>
      </trkpt>
      <trkpt lat="43.23127" lon="1.57796">
        <ele>223</ele>
        <time>2012-09-23T10:07:56Z</time>
      </trkpt>
      <trkpt lat="43.23124" lon="1.57797">
        <ele>224</ele>
        <time>2012-09-23T10:07:59Z</time>
      </trkpt>
      <trkpt lat="43.2312" lon="1.57799">
        <ele>225</ele>
        <time>2012-09-23T10:08:01Z</time>
      </trkpt>
      <trkpt lat="43.23115" lon="1.57803">
        <ele>225</ele>
        <time>2012-09-23T10:08:03Z</time>
      </trkpt>
      <trkpt lat="43.2311" lon="1.57808">
        <ele>225</ele>
        <time>2012-09-23T10:08:05Z</time>
      </trkpt>
      <trkpt lat="43.23106" lon="1.57812">
        <ele>225</ele>
        <time>2012-09-23T10:08:07Z</time>
      </trkpt>
      <trkpt lat="43.23102" lon="1.57816">
        <ele>226</ele>
        <time>2012-09-23T10:08:09Z</time>
      </trkpt>
      <trkpt lat="43.23097" lon="1.57821">
        <ele>226</ele>
        <time>2012-09-23T10:08:11Z</time>
      </trkpt>
      <trkpt lat="43.23093" lon="1.57825">
        <ele>226</ele>
        <time>2012-09-23T10:08:13Z</time>
      </trkpt>
      <trkpt lat="43.23088" lon="1.57828">
        <ele>226</ele>
        <time>2012-09-23T10:08:15Z</time>
      </trkpt>
      <trkpt lat="43.23083" lon="1.57832">
        <ele>226</ele>
        <time>2012-09-23T10:08:17Z</time>
      </trkpt>
      <trkpt lat="43.23075" lon="1.57838">
        <ele>226</ele>
        <time>2012-09-23T10:08:20Z</time>
      </trkpt>
      <trkpt lat="43.23069" lon="1.57843">
        <ele>226</ele>
        <time>2012-09-23T10:08:22Z</time>
      </trkpt>
      <trkpt lat="43.23063" lon="1.57849">
        <ele>226</ele>
        <time>2012-09-23T10:08:25Z</time>
      </trkpt>
      <trkpt lat="43.23058" lon="1.57855">
        <ele>226</ele>
        <time>2012-09-23T10:08:27Z</time>
      </trkpt>
      <trkpt lat="43.23049" lon="1.57864">
        <ele>226</ele>
        <time>2012-09-23T10:08:30Z</time>
      </trkpt>
      <trkpt lat="43.23042" lon="1.57871">
        <ele>226</ele>
        <time>2012-09-23T10:08:33Z</time>
      </trkpt>
      <trkpt lat="43.23036" lon="1.57878">
        <ele>226</ele>
        <time>2012-09-23T10:08:35Z</time>
      </trkpt>
      <trkpt lat="43.2303" lon="1.57882">
        <ele>227</ele>
        <time>2012-09-23T10:08:37Z</time>
      </trkpt>
      <trkpt lat="43.23024" lon="1.57886">
        <ele>227</ele>
        <time>2012-09-23T10:08:39Z</time>
      </trkpt>
      <trkpt lat="43.23016" lon="1.57893">
        <ele>227</ele>
        <time>2012-09-23T10:08:42Z</time>
      </trkpt>
      <trkpt lat="43.2301" lon="1.57898">
        <ele>227</ele>
        <time>2012-09-23T10:08:44Z</time>
      </trkpt>
      <trkpt lat="43.23001" lon="1.57905">
        <ele>227</ele>
        <time>2012-09-23T10:08:47Z</time>
      </trkpt>
      <trkpt lat="43.22996" lon="1.5791">
        <ele>227</ele>
        <time>2012-09-23T10:08:49Z</time>
      </trkpt>
      <trkpt lat="43.22991" lon="1.57915">
        <ele>227</ele>
        <time>2012-09-23T10:08:51Z</time>
      </trkpt>
      <trkpt lat="43.22984" lon="1.57923">
        <ele>227</ele>
        <time>2012-09-23T10:08:54Z</time>
      </trkpt>
      <trkpt lat="43.22978" lon="1.57926">
        <ele>227</ele>
        <time>2012-09-23T10:08:56Z</time>
      </trkpt>
      <trkpt lat="43.22972" lon="1.5793">
        <ele>227</ele>
        <time>2012-09-23T10:08:58Z</time>
      </trkpt>
      <trkpt lat="43.22966" lon="1.57934">
        <ele>227</ele>
        <time>2012-09-23T10:09:00Z</time>
      </trkpt>
      <trkpt lat="43.22961" lon="1.57939">
        <ele>227</ele>
        <time>2012-09-23T10:09:02Z</time>
      </trkpt>
      <trkpt lat="43.22955" lon="1.57945">
        <ele>227</ele>
        <time>2012-09-23T10:09:04Z</time>
      </trkpt>
      <trkpt lat="43.22947" lon="1.57953">
        <ele>228</ele>
        <time>2012-09-23T10:09:07Z</time>
      </trkpt>
      <trkpt lat="43.2294" lon="1.57956">
        <ele>229</ele>
        <time>2012-09-23T10:09:09Z</time>
      </trkpt>
      <trkpt lat="43.22932" lon="1.57961">
        <ele>230</ele>
        <time>2012-09-23T10:09:12Z</time>
      </trkpt>
      <trkpt lat="43.22927" lon="1.57965">
        <ele>231</ele>
        <time>2012-09-23T10:09:14Z</time>
      </trkpt>
      <trkpt lat="43.22922" lon="1.57969">
        <ele>233</ele>
        <time>2012-09-23T10:09:16Z</time>
      </trkpt>
      <trkpt lat="43.22915" lon="1.57974">
        <ele>235</ele>
        <time>2012-09-23T10:09:18Z</time>
      </trkpt>
      <trkpt lat="43.22907" lon="1.57978">
        <ele>236</ele>
        <time>2012-09-23T10:09:21Z</time>
      </trkpt>
      <trkpt lat="43.22901" lon="1.5798">
        <ele>236</ele>
        <time>2012-09-23T10:09:23Z</time>
      </trkpt>
      <trkpt lat="43.22893" lon="1.57982">
        <ele>237</ele>
        <time>2012-09-23T10:09:26Z</time>
      </trkpt>
      <trkpt lat="43.22886" lon="1.57985">
        <ele>238</ele>
        <time>2012-09-23T10:09:28Z</time>
      </trkpt>
      <trkpt lat="43.22881" lon="1.57988">
        <ele>239</ele>
        <time>2012-09-23T10:09:30Z</time>
      </trkpt>
      <trkpt lat="43.22875" lon="1.57991">
        <ele>240</ele>
        <time>2012-09-23T10:09:32Z</time>
      </trkpt>
      <trkpt lat="43.2287" lon="1.57995">
        <ele>240</ele>
        <time>2012-09-23T10:09:34Z</time>
      </trkpt>
      <trkpt lat="43.22866" lon="1.57999">
        <ele>240</ele>
        <time>2012-09-23T10:09:36Z</time>
      </trkpt>
      <trkpt lat="43.22861" lon="1.58002">
        <ele>240</ele>
        <time>2012-09-23T10:09:38Z</time>
      </trkpt>
      <trkpt lat="43.22856" lon="1.58007">
        <ele>240</ele>
        <time>2012-09-23T10:09:40Z</time>
      </trkpt>
      <trkpt lat="43.22853" lon="1.58011">
        <ele>240</ele>
        <time>2012-09-23T10:09:42Z</time>
      </trkpt>
      <trkpt lat="43.22847" lon="1.58018">
        <ele>240</ele>
        <time>2012-09-23T10:09:45Z</time>
      </trkpt>
      <trkpt lat="43.22842" lon="1.58022">
        <ele>240</ele>
        <time>2012-09-23T10:09:47Z</time>
      </trkpt>
      <trkpt lat="43.22837" lon="1.58028">
        <ele>239</ele>
        <time>2012-09-23T10:09:49Z</time>
      </trkpt>
      <trkpt lat="43.22832" lon="1.5803">
        <ele>238</ele>
        <time>2012-09-23T10:09:51Z</time>
      </trkpt>
      <trkpt lat="43.22828" lon="1.58034">
        <ele>236</ele>
        <time>2012-09-23T10:09:53Z</time>
      </trkpt>
      <trkpt lat="43.22821" lon="1.5804">
        <ele>236</ele>
        <time>2012-09-23T10:09:56Z</time>
      </trkpt>
      <trkpt lat="43.22816" lon="1.58043">
        <ele>236</ele>
        <time>2012-09-23T10:09:58Z</time>
      </trkpt>
      <trkpt lat="43.22812" lon="1.58047">
        <ele>235</ele>
        <time>2012-09-23T10:10:00Z</time>
      </trkpt>
      <trkpt lat="43.22809" lon="1.58054">
        <ele>235</ele>
        <time>2012-09-23T10:10:02Z</time>
      </trkpt>
      <trkpt lat="43.22805" lon="1.58061">
        <ele>235</ele>
        <time>2012-09-23T10:10:04Z</time>
      </trkpt>
      <trkpt lat="43.22802" lon="1.58068">
        <ele>234</ele>
        <time>2012-09-23T10:10:06Z</time>
      </trkpt>
      <trkpt lat="43.228" lon="1.58075">
        <ele>234</ele>
        <time>2012-09-23T10:10:08Z</time>
      </trkpt>
      <trkpt lat="43.22796" lon="1.58082">
        <ele>234</ele>
        <time>2012-09-23T10:10:10Z</time>
      </trkpt>
      <trkpt lat="43.22794" lon="1.5809">
        <ele>234</ele>
        <time>2012-09-23T10:10:12Z</time>
      </trkpt>
      <trkpt lat="43.22791" lon="1.58097">
        <ele>234</ele>
        <time>2012-09-23T10:10:14Z</time>
      </trkpt>
      <trkpt lat="43.22789" lon="1.58104">
        <ele>234</ele>
        <time>2012-09-23T10:10:16Z</time>
      </trkpt>
      <trkpt lat="43.22786" lon="1.58111">
        <ele>234</ele>
        <time>2012-09-23T10:10:18Z</time>
      </trkpt>
      <trkpt lat="43.22783" lon="1.58119">
        <ele>234</ele>
        <time>2012-09-23T10:10:20Z</time>
      </trkpt>
      <trkpt lat="43.22779" lon="1.58127">
        <ele>234</ele>
        <time>2012-09-23T10:10:22Z</time>
      </trkpt>
      <trkpt lat="43.22776" lon="1.58134">
        <ele>234</ele>
        <time>2012-09-23T10:10:24Z</time>
      </trkpt>
      <trkpt lat="43.22772" lon="1.58142">
        <ele>234</ele>
        <time>2012-09-23T10:10:26Z</time>
      </trkpt>
      <trkpt lat="43.22766" lon="1.58152">
        <ele>234</ele>
        <time>2012-09-23T10:10:29Z</time>
      </trkpt>
      <trkpt lat="43.22763" lon="1.58159">
        <ele>234</ele>
        <time>2012-09-23T10:10:31Z</time>
      </trkpt>
      <trkpt lat="43.22759" lon="1.58166">
        <ele>234</ele>
        <time>2012-09-23T10:10:33Z</time>
      </trkpt>
      <trkpt lat="43.22756" lon="1.58172">
        <ele>234</ele>
        <time>2012-09-23T10:10:35Z</time>
      </trkpt>
      <trkpt lat="43.2275" lon="1.58181">
        <ele>234</ele>
        <time>2012-09-23T10:10:38Z</time>
      </trkpt>
      <trkpt lat="43.22747" lon="1.58187">
        <ele>234</ele>
        <time>2012-09-23T10:10:40Z</time>
      </trkpt>
      <trkpt lat="43.22742" lon="1.58193">
        <ele>234</ele>
        <time>2012-09-23T10:10:42Z</time>
      </trkpt>
      <trkpt lat="43.22739" lon="1.58199">
        <ele>234</ele>
        <time>2012-09-23T10:10:44Z</time>
      </trkpt>
      <trkpt lat="43.22736" lon="1.58205">
        <ele>234</ele>
        <time>2012-09-23T10:10:46Z</time>
      </trkpt>
      <trkpt lat="43.22728" lon="1.58213">
        <ele>234</ele>
        <time>2012-09-23T10:10:49Z</time>
      </trkpt>
      <trkpt lat="43.22724" lon="1.5822">
        <ele>234</ele>
        <time>2012-09-23T10:10:51Z</time>
      </trkpt>
      <trkpt lat="43.22719" lon="1.58226">
        <ele>234</ele>
        <time>2012-09-23T10:10:53Z</time>
      </trkpt>
      <trkpt lat="43.22714" lon="1.58232">
        <ele>234</ele>
        <time>2012-09-23T10:10:55Z</time>
      </trkpt>
      <trkpt lat="43.2271" lon="1.58237">
        <ele>234</ele>
        <time>2012-09-23T10:10:57Z</time>
      </trkpt>
      <trkpt lat="43.22704" lon="1.58243">
        <ele>234</ele>
        <time>2012-09-23T10:10:59Z</time>
      </trkpt>
      <trkpt lat="43.22699" lon="1.58249">
        <ele>234</ele>
        <time>2012-09-23T10:11:01Z</time>
      </trkpt>
      <trkpt lat="43.22694" lon="1.58255">
        <ele>234</ele>
        <time>2012-09-23T10:11:03Z</time>
      </trkpt>
      <trkpt lat="43.22688" lon="1.58265">
        <ele>233</ele>
        <time>2012-09-23T10:11:06Z</time>
      </trkpt>
      <trkpt lat="43.22683" lon="1.58271">
        <ele>233</ele>
        <time>2012-09-23T10:11:08Z</time>
      </trkpt>
      <trkpt lat="43.22678" lon="1.58277">
        <ele>232</ele>
        <time>2012-09-23T10:11:10Z</time>
      </trkpt>
      <trkpt lat="43.22674" lon="1.58283">
        <ele>232</ele>
        <time>2012-09-23T10:11:12Z</time>
      </trkpt>
      <trkpt lat="43.2267" lon="1.58291">
        <ele>232</ele>
        <time>2012-09-23T10:11:14Z</time>
      </trkpt>
      <trkpt lat="43.22667" lon="1.58299">
        <ele>231</ele>
        <time>2012-09-23T10:11:16Z</time>
      </trkpt>
      <trkpt lat="43.22663" lon="1.58306">
        <ele>230</ele>
        <time>2012-09-23T10:11:18Z</time>
      </trkpt>
      <trkpt lat="43.22658" lon="1.58313">
        <ele>230</ele>
        <time>2012-09-23T10:11:20Z</time>
      </trkpt>
      <trkpt lat="43.22654" lon="1.5832">
        <ele>230</ele>
        <time>2012-09-23T10:11:22Z</time>
      </trkpt>
      <trkpt lat="43.2265" lon="1.58328">
        <ele>230</ele>
        <time>2012-09-23T10:11:24Z</time>
      </trkpt>
      <trkpt lat="43.22646" lon="1.58338">
        <ele>230</ele>
        <time>2012-09-23T10:11:26Z</time>
      </trkpt>
      <trkpt lat="43.22643" lon="1.58346">
        <ele>230</ele>
        <time>2012-09-23T10:11:28Z</time>
      </trkpt>
      <trkpt lat="43.2264" lon="1.58355">
        <ele>230</ele>
        <time>2012-09-23T10:11:30Z</time>
      </trkpt>
      <trkpt lat="43.22635" lon="1.58367">
        <ele>230</ele>
        <time>2012-09-23T10:11:33Z</time>
      </trkpt>
      <trkpt lat="43.22631" lon="1.58375">
        <ele>230</ele>
        <time>2012-09-23T10:11:35Z</time>
      </trkpt>
      <trkpt lat="43.22626" lon="1.58383">
        <ele>230</ele>
        <time>2012-09-23T10:11:37Z</time>
      </trkpt>
      <trkpt lat="43.22623" lon="1.5839">
        <ele>230</ele>
        <time>2012-09-23T10:11:39Z</time>
      </trkpt>
      <trkpt lat="43.2262" lon="1.58399">
        <ele>230</ele>
        <time>2012-09-23T10:11:41Z</time>
      </trkpt>
      <trkpt lat="43.22617" lon="1.58407">
        <ele>230</ele>
        <time>2012-09-23T10:11:43Z</time>
      </trkpt>
      <trkpt lat="43.22614" lon="1.58415">
        <ele>230</ele>
        <time>2012-09-23T10:11:45Z</time>
      </trkpt>
      <trkpt lat="43.22607" lon="1.58427">
        <ele>230</ele>
        <time>2012-09-23T10:11:48Z</time>
      </trkpt>
      <trkpt lat="43.22601" lon="1.58437">
        <ele>230</ele>
        <time>2012-09-23T10:11:51Z</time>
      </trkpt>
      <trkpt lat="43.22596" lon="1.58444">
        <ele>230</ele>
        <time>2012-09-23T10:11:53Z</time>
      </trkpt>
      <trkpt lat="43.22591" lon="1.58448">
        <ele>230</ele>
        <time>2012-09-23T10:11:55Z</time>
      </trkpt>
      <trkpt lat="43.22585" lon="1.58452">
        <ele>230</ele>
        <time>2012-09-23T10:11:57Z</time>
      </trkpt>
      <trkpt lat="43.22578" lon="1.58459">
        <ele>230</ele>
        <time>2012-09-23T10:12:00Z</time>
      </trkpt>
      <trkpt lat="43.22572" lon="1.58464">
        <ele>230</ele>
        <time>2012-09-23T10:12:02Z</time>
      </trkpt>
      <trkpt lat="43.22567" lon="1.58468">
        <ele>230</ele>
        <time>2012-09-23T10:12:04Z</time>
      </trkpt>
      <trkpt lat="43.22561" lon="1.58473">
        <ele>230</ele>
        <time>2012-09-23T10:12:06Z</time>
      </trkpt>
      <trkpt lat="43.22555" lon="1.58477">
        <ele>230</ele>
        <time>2012-09-23T10:12:08Z</time>
      </trkpt>
      <trkpt lat="43.2255" lon="1.58482">
        <ele>230</ele>
        <time>2012-09-23T10:12:10Z</time>
      </trkpt>
      <trkpt lat="43.22545" lon="1.58487">
        <ele>230</ele>
        <time>2012-09-23T10:12:12Z</time>
      </trkpt>
      <trkpt lat="43.22539" lon="1.58491">
        <ele>230</ele>
        <time>2012-09-23T10:12:14Z</time>
      </trkpt>
      <trkpt lat="43.22534" lon="1.58495">
        <ele>230</ele>
        <time>2012-09-23T10:12:16Z</time>
      </trkpt>
      <trkpt lat="43.22528" lon="1.58498">
        <ele>230</ele>
        <time>2012-09-23T10:12:18Z</time>
      </trkpt>
      <trkpt lat="43.22522" lon="1.58501">
        <ele>230</ele>
        <time>2012-09-23T10:12:20Z</time>
      </trkpt>
      <trkpt lat="43.22517" lon="1.58502">
        <ele>230</ele>
        <time>2012-09-23T10:12:22Z</time>
      </trkpt>
      <trkpt lat="43.22512" lon="1.58503">
        <ele>230</ele>
        <time>2012-09-23T10:12:24Z</time>
      </trkpt>
      <trkpt lat="43.22503" lon="1.58506">
        <ele>230</ele>
        <time>2012-09-23T10:12:27Z</time>
      </trkpt>
      <trkpt lat="43.22498" lon="1.58507">
        <ele>230</ele>
        <time>2012-09-23T10:12:29Z</time>
      </trkpt>
      <trkpt lat="43.22492" lon="1.58508">
        <ele>230</ele>
        <time>2012-09-23T10:12:31Z</time>
      </trkpt>
      <trkpt lat="43.22487" lon="1.58511">
        <ele>230</ele>
        <time>2012-09-23T10:12:33Z</time>
      </trkpt>
      <trkpt lat="43.22482" lon="1.58512">
        <ele>230</ele>
        <time>2012-09-23T10:12:35Z</time>
      </trkpt>
      <trkpt lat="43.22474" lon="1.58514">
        <ele>229</ele>
        <time>2012-09-23T10:12:38Z</time>
      </trkpt>
      <trkpt lat="43.22468" lon="1.58516">
        <ele>229</ele>
        <time>2012-09-23T10:12:40Z</time>
      </trkpt>
      <trkpt lat="43.22462" lon="1.5852">
        <ele>229</ele>
        <time>2012-09-23T10:12:42Z</time>
      </trkpt>
      <trkpt lat="43.22456" lon="1.58524">
        <ele>229</ele>
        <time>2012-09-23T10:12:44Z</time>
      </trkpt>
      <trkpt lat="43.2245" lon="1.58527">
        <ele>229</ele>
        <time>2012-09-23T10:12:46Z</time>
      </trkpt>
      <trkpt lat="43.22444" lon="1.58531">
        <ele>229</ele>
        <time>2012-09-23T10:12:48Z</time>
      </trkpt>
      <trkpt lat="43.22438" lon="1.58534">
        <ele>229</ele>
        <time>2012-09-23T10:12:50Z</time>
      </trkpt>
      <trkpt lat="43.22433" lon="1.58537">
        <ele>229</ele>
        <time>2012-09-23T10:12:52Z</time>
      </trkpt>
      <trkpt lat="43.22427" lon="1.5854">
        <ele>229</ele>
        <time>2012-09-23T10:12:54Z</time>
      </trkpt>
      <trkpt lat="43.22419" lon="1.58546">
        <ele>228</ele>
        <time>2012-09-23T10:12:57Z</time>
      </trkpt>
      <trkpt lat="43.22413" lon="1.58548">
        <ele>227</ele>
        <time>2012-09-23T10:12:59Z</time>
      </trkpt>
      <trkpt lat="43.22408" lon="1.5855">
        <ele>226</ele>
        <time>2012-09-23T10:13:01Z</time>
      </trkpt>
      <trkpt lat="43.22402" lon="1.58554">
        <ele>226</ele>
        <time>2012-09-23T10:13:03Z</time>
      </trkpt>
      <trkpt lat="43.22397" lon="1.58557">
        <ele>225</ele>
        <time>2012-09-23T10:13:05Z</time>
      </trkpt>
      <trkpt lat="43.22392" lon="1.5856">
        <ele>224</ele>
        <time>2012-09-23T10:13:07Z</time>
      </trkpt>
      <trkpt lat="43.22386" lon="1.58562">
        <ele>224</ele>
        <time>2012-09-23T10:13:09Z</time>
      </trkpt>
      <trkpt lat="43.22377" lon="1.58565">
        <ele>224</ele>
        <time>2012-09-23T10:13:12Z</time>
      </trkpt>
      <trkpt lat="43.22372" lon="1.58568">
        <ele>224</ele>
        <time>2012-09-23T10:13:14Z</time>
      </trkpt>
      <trkpt lat="43.22365" lon="1.58571">
        <ele>224</ele>
        <time>2012-09-23T10:13:16Z</time>
      </trkpt>
      <trkpt lat="43.2236" lon="1.58573">
        <ele>224</ele>
        <time>2012-09-23T10:13:18Z</time>
      </trkpt>
      <trkpt lat="43.22353" lon="1.58576">
        <ele>224</ele>
        <time>2012-09-23T10:13:20Z</time>
      </trkpt>
      <trkpt lat="43.22347" lon="1.5858">
        <ele>224</ele>
        <time>2012-09-23T10:13:22Z</time>
      </trkpt>
      <trkpt lat="43.22341" lon="1.58584">
        <ele>224</ele>
        <time>2012-09-23T10:13:24Z</time>
      </trkpt>
      <trkpt lat="43.22335" lon="1.58587">
        <ele>224</ele>
        <time>2012-09-23T10:13:26Z</time>
      </trkpt>
      <trkpt lat="43.22327" lon="1.58591">
        <ele>224</ele>
        <time>2012-09-23T10:13:29Z</time>
      </trkpt>
      <trkpt lat="43.22322" lon="1.58594">
        <ele>224</ele>
        <time>2012-09-23T10:13:31Z</time>
      </trkpt>
      <trkpt lat="43.22316" lon="1.58597">
        <ele>224</ele>
        <time>2012-09-23T10:13:33Z</time>
      </trkpt>
      <trkpt lat="43.22311" lon="1.586">
        <ele>224</ele>
        <time>2012-09-23T10:13:35Z</time>
      </trkpt>
      <trkpt lat="43.22306" lon="1.58603">
        <ele>224</ele>
        <time>2012-09-23T10:13:37Z</time>
      </trkpt>
      <trkpt lat="43.223" lon="1.58606">
        <ele>224</ele>
        <time>2012-09-23T10:13:39Z</time>
      </trkpt>
      <trkpt lat="43.22295" lon="1.58609">
        <ele>224</ele>
        <time>2012-09-23T10:13:41Z</time>
      </trkpt>
      <trkpt lat="43.2229" lon="1.58612">
        <ele>224</ele>
        <time>2012-09-23T10:13:43Z</time>
      </trkpt>
      <trkpt lat="43.22285" lon="1.58614">
        <ele>224</ele>
        <time>2012-09-23T10:13:45Z</time>
      </trkpt>
      <trkpt lat="43.2228" lon="1.58617">
        <ele>224</ele>
        <time>2012-09-23T10:13:47Z</time>
      </trkpt>
      <trkpt lat="43.22274" lon="1.5862">
        <ele>224</ele>
        <time>2012-09-23T10:13:49Z</time>
      </trkpt>
      <trkpt lat="43.22269" lon="1.58623">
        <ele>223</ele>
        <time>2012-09-23T10:13:51Z</time>
      </trkpt>
      <trkpt lat="43.22264" lon="1.58625">
        <ele>223</ele>
        <time>2012-09-23T10:13:53Z</time>
      </trkpt>
      <trkpt lat="43.22259" lon="1.58628">
        <ele>222</ele>
        <time>2012-09-23T10:13:55Z</time>
      </trkpt>
      <trkpt lat="43.22254" lon="1.58631">
        <ele>222</ele>
        <time>2012-09-23T10:13:57Z</time>
      </trkpt>
      <trkpt lat="43.22248" lon="1.58633">
        <ele>222</ele>
        <time>2012-09-23T10:13:59Z</time>
      </trkpt>
      <trkpt lat="43.22241" lon="1.58636">
        <ele>222</ele>
        <time>2012-09-23T10:14:02Z</time>
      </trkpt>
      <trkpt lat="43.22235" lon="1.58639">
        <ele>221</ele>
        <time>2012-09-23T10:14:04Z</time>
      </trkpt>
      <trkpt lat="43.22229" lon="1.58642">
        <ele>221</ele>
        <time>2012-09-23T10:14:06Z</time>
      </trkpt>
      <trkpt lat="43.22224" lon="1.58644">
        <ele>221</ele>
        <time>2012-09-23T10:14:08Z</time>
      </trkpt>
      <trkpt lat="43.22218" lon="1.58646">
        <ele>221</ele>
        <time>2012-09-23T10:14:10Z</time>
      </trkpt>
      <trkpt lat="43.22213" lon="1.58649">
        <ele>220</ele>
        <time>2012-09-23T10:14:12Z</time>
      </trkpt>
      <trkpt lat="43.22208" lon="1.58652">
        <ele>220</ele>
        <time>2012-09-23T10:14:14Z</time>
      </trkpt>
      <trkpt lat="43.22202" lon="1.58656">
        <ele>220</ele>
        <time>2012-09-23T10:14:16Z</time>
      </trkpt>
      <trkpt lat="43.22197" lon="1.58659">
        <ele>220</ele>
        <time>2012-09-23T10:14:18Z</time>
      </trkpt>
      <trkpt lat="43.22189" lon="1.58665">
        <ele>220</ele>
        <time>2012-09-23T10:14:21Z</time>
      </trkpt>
      <trkpt lat="43.22183" lon="1.5867">
        <ele>220</ele>
        <time>2012-09-23T10:14:23Z</time>
      </trkpt>
      <trkpt lat="43.22178" lon="1.58676">
        <ele>220</ele>
        <time>2012-09-23T10:14:25Z</time>
      </trkpt>
      <trkpt lat="43.22173" lon="1.58682">
        <ele>220</ele>
        <time>2012-09-23T10:14:27Z</time>
      </trkpt>
      <trkpt lat="43.22168" lon="1.58689">
        <ele>220</ele>
        <time>2012-09-23T10:14:29Z</time>
      </trkpt>
      <trkpt lat="43.22163" lon="1.58695">
        <ele>220</ele>
        <time>2012-09-23T10:14:31Z</time>
      </trkpt>
      <trkpt lat="43.22158" lon="1.58702">
        <ele>220</ele>
        <time>2012-09-23T10:14:33Z</time>
      </trkpt>
      <trkpt lat="43.22154" lon="1.58709">
        <ele>220</ele>
        <time>2012-09-23T10:14:35Z</time>
      </trkpt>
      <trkpt lat="43.2215" lon="1.58715">
        <ele>220</ele>
        <time>2012-09-23T10:14:37Z</time>
      </trkpt>
      <trkpt lat="43.22146" lon="1.58722">
        <ele>220</ele>
        <time>2012-09-23T10:14:39Z</time>
      </trkpt>
      <trkpt lat="43.22139" lon="1.58732">
        <ele>220</ele>
        <time>2012-09-23T10:14:42Z</time>
      </trkpt>
      <trkpt lat="43.22134" lon="1.5874">
        <ele>220</ele>
        <time>2012-09-23T10:14:44Z</time>
      </trkpt>
      <trkpt lat="43.22129" lon="1.58746">
        <ele>220</ele>
        <time>2012-09-23T10:14:46Z</time>
      </trkpt>
      <trkpt lat="43.22124" lon="1.58754">
        <ele>221</ele>
        <time>2012-09-23T10:14:48Z</time>
      </trkpt>
      <trkpt lat="43.2212" lon="1.5876">
        <ele>221</ele>
        <time>2012-09-23T10:14:50Z</time>
      </trkpt>
      <trkpt lat="43.22115" lon="1.58767">
        <ele>222</ele>
        <time>2012-09-23T10:14:52Z</time>
      </trkpt>
      <trkpt lat="43.22108" lon="1.58778">
        <ele>222</ele>
        <time>2012-09-23T10:14:55Z</time>
      </trkpt>
      <trkpt lat="43.22103" lon="1.58784">
        <ele>222</ele>
        <time>2012-09-23T10:14:57Z</time>
      </trkpt>
      <trkpt lat="43.22098" lon="1.58791">
        <ele>222</ele>
        <time>2012-09-23T10:14:59Z</time>
      </trkpt>
      <trkpt lat="43.22093" lon="1.58797">
        <ele>222</ele>
        <time>2012-09-23T10:15:01Z</time>
      </trkpt>
      <trkpt lat="43.22089" lon="1.58803">
        <ele>222</ele>
        <time>2012-09-23T10:15:03Z</time>
      </trkpt>
      <trkpt lat="43.22085" lon="1.58809">
        <ele>223</ele>
        <time>2012-09-23T10:15:05Z</time>
      </trkpt>
      <trkpt lat="43.22081" lon="1.58815">
        <ele>223</ele>
        <time>2012-09-23T10:15:07Z</time>
      </trkpt>
      <trkpt lat="43.22076" lon="1.58822">
        <ele>223</ele>
        <time>2012-09-23T10:15:09Z</time>
      </trkpt>
      <trkpt lat="43.22071" lon="1.58829">
        <ele>223</ele>
        <time>2012-09-23T10:15:11Z</time>
      </trkpt>
      <trkpt lat="43.22066" lon="1.58835">
        <ele>223</ele>
        <time>2012-09-23T10:15:13Z</time>
      </trkpt>
      <trkpt lat="43.22061" lon="1.58842">
        <ele>224</ele>
        <time>2012-09-23T10:15:15Z</time>
      </trkpt>
      <trkpt lat="43.22055" lon="1.58847">
        <ele>224</ele>
        <time>2012-09-23T10:15:17Z</time>
      </trkpt>
      <trkpt lat="43.2205" lon="1.58852">
        <ele>224</ele>
        <time>2012-09-23T10:15:19Z</time>
      </trkpt>
      <trkpt lat="43.22045" lon="1.58858">
        <ele>224</ele>
        <time>2012-09-23T10:15:21Z</time>
      </trkpt>
      <trkpt lat="43.2204" lon="1.58863">
        <ele>224</ele>
        <time>2012-09-23T10:15:23Z</time>
      </trkpt>
      <trkpt lat="43.22035" lon="1.58867">
        <ele>224</ele>
        <time>2012-09-23T10:15:25Z</time>
      </trkpt>
      <trkpt lat="43.22031" lon="1.58873">
        <ele>224</ele>
        <time>2012-09-23T10:15:27Z</time>
      </trkpt>
      <trkpt lat="43.22026" lon="1.58879">
        <ele>224</ele>
        <time>2012-09-23T10:15:29Z</time>
      </trkpt>
      <trkpt lat="43.22022" lon="1.58884">
        <ele>225</ele>
        <time>2012-09-23T10:15:31Z</time>
      </trkpt>
      <trkpt lat="43.22017" lon="1.58889">
        <ele>225</ele>
        <time>2012-09-23T10:15:33Z</time>
      </trkpt>
      <trkpt lat="43.22012" lon="1.58893">
        <ele>226</ele>
        <time>2012-09-23T10:15:35Z</time>
      </trkpt>
      <trkpt lat="43.22008" lon="1.58898">
        <ele>226</ele>
        <time>2012-09-23T10:15:37Z</time>
      </trkpt>
      <trkpt lat="43.22004" lon="1.58905">
        <ele>226</ele>
        <time>2012-09-23T10:15:39Z</time>
      </trkpt>
      <trkpt lat="43.22001" lon="1.58911">
        <ele>226</ele>
        <time>2012-09-23T10:15:41Z</time>
      </trkpt>
      <trkpt lat="43.21998" lon="1.58916">
        <ele>227</ele>
        <time>2012-09-23T10:15:43Z</time>
      </trkpt>
      <trkpt lat="43.21996" lon="1.58922">
        <ele>228</ele>
        <time>2012-09-23T10:15:45Z</time>
      </trkpt>
      <trkpt lat="43.21994" lon="1.58929">
        <ele>229</ele>
        <time>2012-09-23T10:15:47Z</time>
      </trkpt>
      <trkpt lat="43.21993" lon="1.58937">
        <ele>229</ele>
        <time>2012-09-23T10:15:49Z</time>
      </trkpt>
      <trkpt lat="43.21991" lon="1.58946">
        <ele>230</ele>
        <time>2012-09-23T10:15:51Z</time>
      </trkpt>
      <trkpt lat="43.21991" lon="1.58953">
        <ele>230</ele>
        <time>2012-09-23T10:15:53Z</time>
      </trkpt>
      <trkpt lat="43.21991" lon="1.58961">
        <ele>231</ele>
        <time>2012-09-23T10:15:55Z</time>
      </trkpt>
      <trkpt lat="43.2199" lon="1.5897">
        <ele>231</ele>
        <time>2012-09-23T10:15:57Z</time>
      </trkpt>
      <trkpt lat="43.21989" lon="1.58979">
        <ele>231</ele>
        <time>2012-09-23T10:15:59Z</time>
      </trkpt>
      <trkpt lat="43.21988" lon="1.58993">
        <ele>231</ele>
        <time>2012-09-23T10:16:02Z</time>
      </trkpt>
      <trkpt lat="43.21987" lon="1.59002">
        <ele>231</ele>
        <time>2012-09-23T10:16:04Z</time>
      </trkpt>
      <trkpt lat="43.21986" lon="1.59012">
        <ele>232</ele>
        <time>2012-09-23T10:16:06Z</time>
      </trkpt>
      <trkpt lat="43.21986" lon="1.59021">
        <ele>232</ele>
        <time>2012-09-23T10:16:08Z</time>
      </trkpt>
      <trkpt lat="43.21985" lon="1.59029">
        <ele>232</ele>
        <time>2012-09-23T10:16:10Z</time>
      </trkpt>
      <trkpt lat="43.21985" lon="1.59037">
        <ele>232</ele>
        <time>2012-09-23T10:16:12Z</time>
      </trkpt>
      <trkpt lat="43.21984" lon="1.59044">
        <ele>232</ele>
        <time>2012-09-23T10:16:14Z</time>
      </trkpt>
      <trkpt lat="43.21982" lon="1.59052">
        <ele>232</ele>
        <time>2012-09-23T10:16:16Z</time>
      </trkpt>
      <trkpt lat="43.2198" lon="1.59061">
        <ele>232</ele>
        <time>2012-09-23T10:16:18Z</time>
      </trkpt>
      <trkpt lat="43.21978" lon="1.59069">
        <ele>232</ele>
        <time>2012-09-23T10:16:20Z</time>
      </trkpt>
      <trkpt lat="43.21978" lon="1.59076">
        <ele>232</ele>
        <time>2012-09-23T10:16:22Z</time>
      </trkpt>
      <trkpt lat="43.21977" lon="1.59084">
        <ele>232</ele>
        <time>2012-09-23T10:16:24Z</time>
      </trkpt>
      <trkpt lat="43.21976" lon="1.59093">
        <ele>232</ele>
        <time>2012-09-23T10:16:26Z</time>
      </trkpt>
      <trkpt lat="43.21977" lon="1.59102">
        <ele>232</ele>
        <time>2012-09-23T10:16:28Z</time>
      </trkpt>
      <trkpt lat="43.21977" lon="1.59111">
        <ele>232</ele>
        <time>2012-09-23T10:16:30Z</time>
      </trkpt>
      <trkpt lat="43.21976" lon="1.5912">
        <ele>232</ele>
        <time>2012-09-23T10:16:32Z</time>
      </trkpt>
      <trkpt lat="43.21976" lon="1.59133">
        <ele>232</ele>
        <time>2012-09-23T10:16:35Z</time>
      </trkpt>
      <trkpt lat="43.21976" lon="1.59139">
        <ele>233</ele>
        <time>2012-09-23T10:16:37Z</time>
      </trkpt>
      <trkpt lat="43.21977" lon="1.59146">
        <ele>234</ele>
        <time>2012-09-23T10:16:39Z</time>
      </trkpt>
      <trkpt lat="43.21977" lon="1.59154">
        <ele>234</ele>
        <time>2012-09-23T10:16:41Z</time>
      </trkpt>
      <trkpt lat="43.21977" lon="1.59162">
        <ele>235</ele>
        <time>2012-09-23T10:16:43Z</time>
      </trkpt>
      <trkpt lat="43.21976" lon="1.59171">
        <ele>236</ele>
        <time>2012-09-23T10:16:45Z</time>
      </trkpt>
      <trkpt lat="43.21976" lon="1.59178">
        <ele>236</ele>
        <time>2012-09-23T10:16:47Z</time>
      </trkpt>
      <trkpt lat="43.21975" lon="1.59185">
        <ele>236</ele>
        <time>2012-09-23T10:16:49Z</time>
      </trkpt>
      <trkpt lat="43.21975" lon="1.59198">
        <ele>236</ele>
        <time>2012-09-23T10:16:52Z</time>
      </trkpt>
      <trkpt lat="43.21975" lon="1.59206">
        <ele>236</ele>
        <time>2012-09-23T10:16:54Z</time>
      </trkpt>
      <trkpt lat="43.21972" lon="1.59221">
        <ele>236</ele>
        <time>2012-09-23T10:16:57Z</time>
      </trkpt>
      <trkpt lat="43.21971" lon="1.5923">
        <ele>236</ele>
        <time>2012-09-23T10:16:59Z</time>
      </trkpt>
      <trkpt lat="43.21971" lon="1.59238">
        <ele>236</ele>
        <time>2012-09-23T10:17:01Z</time>
      </trkpt>
      <trkpt lat="43.2197" lon="1.59246">
        <ele>236</ele>
        <time>2012-09-23T10:17:03Z</time>
      </trkpt>
      <trkpt lat="43.2197" lon="1.59255">
        <ele>236</ele>
        <time>2012-09-23T10:17:05Z</time>
      </trkpt>
      <trkpt lat="43.21969" lon="1.59263">
        <ele>236</ele>
        <time>2012-09-23T10:17:07Z</time>
      </trkpt>
      <trkpt lat="43.21968" lon="1.59271">
        <ele>236</ele>
        <time>2012-09-23T10:17:09Z</time>
      </trkpt>
      <trkpt lat="43.21966" lon="1.59283">
        <ele>236</ele>
        <time>2012-09-23T10:17:12Z</time>
      </trkpt>
      <trkpt lat="43.21965" lon="1.59292">
        <ele>236</ele>
        <time>2012-09-23T10:17:14Z</time>
      </trkpt>
      <trkpt lat="43.21964" lon="1.59301">
        <ele>236</ele>
        <time>2012-09-23T10:17:16Z</time>
      </trkpt>
      <trkpt lat="43.21964" lon="1.5931">
        <ele>236</ele>
        <time>2012-09-23T10:17:18Z</time>
      </trkpt>
      <trkpt lat="43.21964" lon="1.59318">
        <ele>236</ele>
        <time>2012-09-23T10:17:20Z</time>
      </trkpt>
      <trkpt lat="43.21965" lon="1.59326">
        <ele>236</ele>
        <time>2012-09-23T10:17:22Z</time>
      </trkpt>
      <trkpt lat="43.21967" lon="1.59336">
        <ele>236</ele>
        <time>2012-09-23T10:17:24Z</time>
      </trkpt>
      <trkpt lat="43.21968" lon="1.59346">
        <ele>236</ele>
        <time>2012-09-23T10:17:26Z</time>
      </trkpt>
      <trkpt lat="43.2197" lon="1.59355">
        <ele>236</ele>
        <time>2012-09-23T10:17:28Z</time>
      </trkpt>
      <trkpt lat="43.21972" lon="1.59362">
        <ele>236</ele>
        <time>2012-09-23T10:17:30Z</time>
      </trkpt>
      <trkpt lat="43.21976" lon="1.59366">
        <ele>236</ele>
        <time>2012-09-23T10:17:32Z</time>
      </trkpt>
      <trkpt lat="43.21982" lon="1.59368">
        <ele>236</ele>
        <time>2012-09-23T10:17:34Z</time>
      </trkpt>
      <trkpt lat="43.21988" lon="1.5937">
        <ele>236</ele>
        <time>2012-09-23T10:17:36Z</time>
      </trkpt>
      <trkpt lat="43.21994" lon="1.59371">
        <ele>236</ele>
        <time>2012-09-23T10:17:38Z</time>
      </trkpt>
      <trkpt lat="43.22002" lon="1.5937">
        <ele>236</ele>
        <time>2012-09-23T10:17:40Z</time>
      </trkpt>
      <trkpt lat="43.22007" lon="1.59367">
        <ele>236</ele>
        <time>2012-09-23T10:17:42Z</time>
      </trkpt>
      <trkpt lat="43.22013" lon="1.59361">
        <ele>236</ele>
        <time>2012-09-23T10:17:44Z</time>
      </trkpt>
      <trkpt lat="43.2202" lon="1.59354">
        <ele>236</ele>
        <time>2012-09-23T10:17:46Z</time>
      </trkpt>
      <trkpt lat="43.22025" lon="1.59346">
        <ele>236</ele>
        <time>2012-09-23T10:17:48Z</time>
      </trkpt>
      <trkpt lat="43.22029" lon="1.59338">
        <ele>236</ele>
        <time>2012-09-23T10:17:50Z</time>
      </trkpt>
      <trkpt lat="43.22032" lon="1.5933">
        <ele>236</ele>
        <time>2012-09-23T10:17:52Z</time>
      </trkpt>
      <trkpt lat="43.22034" lon="1.59321">
        <ele>236</ele>
        <time>2012-09-23T10:17:54Z</time>
      </trkpt>
      <trkpt lat="43.22036" lon="1.59313">
        <ele>236</ele>
        <time>2012-09-23T10:17:56Z</time>
      </trkpt>
      <trkpt lat="43.22039" lon="1.59305">
        <ele>236</ele>
        <time>2012-09-23T10:17:58Z</time>
      </trkpt>
      <trkpt lat="43.22041" lon="1.59295">
        <ele>235</ele>
        <time>2012-09-23T10:18:00Z</time>
      </trkpt>
      <trkpt lat="43.22046" lon="1.59288">
        <ele>235</ele>
        <time>2012-09-23T10:18:02Z</time>
      </trkpt>
      <trkpt lat="43.2205" lon="1.59282">
        <ele>234</ele>
        <time>2012-09-23T10:18:04Z</time>
      </trkpt>
      <trkpt lat="43.22055" lon="1.5927">
        <ele>234</ele>
        <time>2012-09-23T10:18:07Z</time>
      </trkpt>
      <trkpt lat="43.22058" lon="1.59263">
        <ele>234</ele>
        <time>2012-09-23T10:18:09Z</time>
      </trkpt>
      <trkpt lat="43.22063" lon="1.5925">
        <ele>234</ele>
        <time>2012-09-23T10:18:12Z</time>
      </trkpt>
      <trkpt lat="43.22066" lon="1.59242">
        <ele>234</ele>
        <time>2012-09-23T10:18:14Z</time>
      </trkpt>
      <trkpt lat="43.22072" lon="1.59235">
        <ele>234</ele>
        <time>2012-09-23T10:18:16Z</time>
      </trkpt>
      <trkpt lat="43.22077" lon="1.59229">
        <ele>233</ele>
        <time>2012-09-23T10:18:18Z</time>
      </trkpt>
      <trkpt lat="43.2208" lon="1.59224">
        <ele>233</ele>
        <time>2012-09-23T10:18:20Z</time>
      </trkpt>
      <trkpt lat="43.22085" lon="1.59219">
        <ele>232</ele>
        <time>2012-09-23T10:18:22Z</time>
      </trkpt>
      <trkpt lat="43.2209" lon="1.59214">
        <ele>232</ele>
        <time>2012-09-23T10:18:24Z</time>
      </trkpt>
      <trkpt lat="43.22094" lon="1.59208">
        <ele>232</ele>
        <time>2012-09-23T10:18:26Z</time>
      </trkpt>
      <trkpt lat="43.221" lon="1.59204">
        <ele>232</ele>
        <time>2012-09-23T10:18:28Z</time>
      </trkpt>
      <trkpt lat="43.22107" lon="1.59202">
        <ele>232</ele>
        <time>2012-09-23T10:18:30Z</time>
      </trkpt>
      <trkpt lat="43.22113" lon="1.59202">
        <ele>232</ele>
        <time>2012-09-23T10:18:32Z</time>
      </trkpt>
      <trkpt lat="43.2212" lon="1.592">
        <ele>232</ele>
        <time>2012-09-23T10:18:34Z</time>
      </trkpt>
      <trkpt lat="43.22126" lon="1.59195">
        <ele>232</ele>
        <time>2012-09-23T10:18:36Z</time>
      </trkpt>
      <trkpt lat="43.22132" lon="1.59191">
        <ele>232</ele>
        <time>2012-09-23T10:18:39Z</time>
      </trkpt>
      <trkpt lat="43.22138" lon="1.59189">
        <ele>232</ele>
        <time>2012-09-23T10:18:41Z</time>
      </trkpt>
      <trkpt lat="43.22143" lon="1.59188">
        <ele>232</ele>
        <time>2012-09-23T10:18:43Z</time>
      </trkpt>
      <trkpt lat="43.22148" lon="1.59188">
        <ele>232</ele>
        <time>2012-09-23T10:18:45Z</time>
      </trkpt>
      <trkpt lat="43.22152" lon="1.59188">
        <ele>232</ele>
        <time>2012-09-23T10:18:47Z</time>
      </trkpt>
      <trkpt lat="43.22161" lon="1.59189">
        <ele>232</ele>
        <time>2012-09-23T10:18:49Z</time>
      </trkpt>
      <trkpt lat="43.22166" lon="1.59193">
        <ele>232</ele>
        <time>2012-09-23T10:18:51Z</time>
      </trkpt>
      <trkpt lat="43.22171" lon="1.59196">
        <ele>232</ele>
        <time>2012-09-23T10:18:53Z</time>
      </trkpt>
      <trkpt lat="43.22178" lon="1.592">
        <ele>232</ele>
        <time>2012-09-23T10:18:55Z</time>
      </trkpt>
      <trkpt lat="43.22183" lon="1.59205">
        <ele>232</ele>
        <time>2012-09-23T10:18:57Z</time>
      </trkpt>
      <trkpt lat="43.22189" lon="1.5921">
        <ele>232</ele>
        <time>2012-09-23T10:18:59Z</time>
      </trkpt>
      <trkpt lat="43.22192" lon="1.59214">
        <ele>232</ele>
        <time>2012-09-23T10:19:01Z</time>
      </trkpt>
      <trkpt lat="43.22201" lon="1.59219">
        <ele>232</ele>
        <time>2012-09-23T10:19:04Z</time>
      </trkpt>
      <trkpt lat="43.22207" lon="1.59221">
        <ele>232</ele>
        <time>2012-09-23T10:19:06Z</time>
      </trkpt>
      <trkpt lat="43.22213" lon="1.59221">
        <ele>232</ele>
        <time>2012-09-23T10:19:08Z</time>
      </trkpt>
      <trkpt lat="43.22218" lon="1.5922">
        <ele>232</ele>
        <time>2012-09-23T10:19:10Z</time>
      </trkpt>
      <trkpt lat="43.22222" lon="1.5922">
        <ele>232</ele>
        <time>2012-09-23T10:19:12Z</time>
      </trkpt>
      <trkpt lat="43.22229" lon="1.59222">
        <ele>232</ele>
        <time>2012-09-23T10:19:14Z</time>
      </trkpt>
      <trkpt lat="43.22235" lon="1.59224">
        <ele>232</ele>
        <time>2012-09-23T10:19:16Z</time>
      </trkpt>
      <trkpt lat="43.22238" lon="1.59229">
        <ele>232</ele>
        <time>2012-09-23T10:19:19Z</time>
      </trkpt>
      <trkpt lat="43.2224" lon="1.59232">
        <ele>232</ele>
        <time>2012-09-23T10:19:22Z</time>
      </trkpt>
      <trkpt lat="43.22238" lon="1.59231">
        <ele>232</ele>
        <time>2012-09-23T10:19:26Z</time>
      </trkpt>
      <trkpt lat="43.22237" lon="1.59229">
        <ele>232</ele>
        <time>2012-09-23T10:19:28Z</time>
      </trkpt>
      <trkpt lat="43.22235" lon="1.59228">
        <ele>232</ele>
        <time>2012-09-23T10:19:31Z</time>
      </trkpt>
      <trkpt lat="43.22234" lon="1.59227">
        <ele>232</ele>
        <time>2012-09-23T10:19:33Z</time>
      </trkpt>
      <trkpt lat="43.22232" lon="1.59226">
        <ele>232</ele>
        <time>2012-09-23T10:19:35Z</time>
      </trkpt>
      <trkpt lat="43.22231" lon="1.59226">
        <ele>232</ele>
        <time>2012-09-23T10:19:37Z</time>
      </trkpt>
      <trkpt lat="43.22228" lon="1.59225">
        <ele>231</ele>
        <time>2012-09-23T10:19:39Z</time>
      </trkpt>
      <trkpt lat="43.22226" lon="1.59224">
        <ele>231</ele>
        <time>2012-09-23T10:19:41Z</time>
      </trkpt>
      <trkpt lat="43.22224" lon="1.59224">
        <ele>230</ele>
        <time>2012-09-23T10:19:43Z</time>
      </trkpt>
      <trkpt lat="43.22221" lon="1.59225">
        <ele>230</ele>
        <time>2012-09-23T10:19:45Z</time>
      </trkpt>
      <trkpt lat="43.22219" lon="1.59225">
        <ele>230</ele>
        <time>2012-09-23T10:19:47Z</time>
      </trkpt>
      <trkpt lat="43.22218" lon="1.59225">
        <ele>229</ele>
        <time>2012-09-23T10:19:49Z</time>
      </trkpt>
      <trkpt lat="43.22216" lon="1.59224">
        <ele>229</ele>
        <time>2012-09-23T10:19:51Z</time>
      </trkpt>
      <trkpt lat="43.22217" lon="1.59224">
        <ele>229</ele>
        <time>2012-09-23T10:19:55Z</time>
      </trkpt>
      <trkpt lat="43.22221" lon="1.59225">
        <ele>229</ele>
        <time>2012-09-23T10:19:57Z</time>
      </trkpt>
      <trkpt lat="43.22224" lon="1.59224">
        <ele>229</ele>
        <time>2012-09-23T10:19:59Z</time>
      </trkpt>
      <trkpt lat="43.22228" lon="1.59225">
        <ele>229</ele>
        <time>2012-09-23T10:20:01Z</time>
      </trkpt>
      <trkpt lat="43.22232" lon="1.59226">
        <ele>229</ele>
        <time>2012-09-23T10:20:03Z</time>
      </trkpt>
      <trkpt lat="43.22234" lon="1.59226">
        <ele>228</ele>
        <time>2012-09-23T10:20:05Z</time>
      </trkpt>
      <trkpt lat="43.22235" lon="1.59224">
        <ele>227</ele>
        <time>2012-09-23T10:20:08Z</time>
      </trkpt>
      <trkpt lat="43.22235" lon="1.59227">
        <ele>227</ele>
        <time>2012-09-23T10:20:11Z</time>
      </trkpt>
      <trkpt lat="43.22237" lon="1.59229">
        <ele>227</ele>
        <time>2012-09-23T10:20:14Z</time>
      </trkpt>
      <trkpt lat="43.22239" lon="1.59233">
        <ele>227</ele>
        <time>2012-09-23T10:20:16Z</time>
      </trkpt>
      <trkpt lat="43.22242" lon="1.59239">
        <ele>227</ele>
        <time>2012-09-23T10:20:18Z</time>
      </trkpt>
      <trkpt lat="43.22244" lon="1.59247">
        <ele>227</ele>
        <time>2012-09-23T10:20:20Z</time>
      </trkpt>
      <trkpt lat="43.22245" lon="1.59254">
        <ele>227</ele>
        <time>2012-09-23T10:20:22Z</time>
      </trkpt>
      <trkpt lat="43.22249" lon="1.59259">
        <ele>227</ele>
        <time>2012-09-23T10:20:24Z</time>
      </trkpt>
      <trkpt lat="43.22252" lon="1.59262">
        <ele>227</ele>
        <time>2012-09-23T10:20:27Z</time>
      </trkpt>
      <trkpt lat="43.22251" lon="1.59262">
        <ele>227</ele>
        <time>2012-09-23T10:20:29Z</time>
      </trkpt>
      <trkpt lat="43.22251" lon="1.59264">
        <ele>227</ele>
        <time>2012-09-23T10:20:31Z</time>
      </trkpt>
      <trkpt lat="43.22248" lon="1.59269">
        <ele>227</ele>
        <time>2012-09-23T10:20:34Z</time>
      </trkpt>
      <trkpt lat="43.22246" lon="1.59277">
        <ele>227</ele>
        <time>2012-09-23T10:20:36Z</time>
      </trkpt>
      <trkpt lat="43.22245" lon="1.59285">
        <ele>227</ele>
        <time>2012-09-23T10:20:38Z</time>
      </trkpt>
      <trkpt lat="43.22244" lon="1.59294">
        <ele>227</ele>
        <time>2012-09-23T10:20:40Z</time>
      </trkpt>
      <trkpt lat="43.22243" lon="1.59304">
        <ele>227</ele>
        <time>2012-09-23T10:20:42Z</time>
      </trkpt>
      <trkpt lat="43.22241" lon="1.59311">
        <ele>227</ele>
        <time>2012-09-23T10:20:44Z</time>
      </trkpt>
      <trkpt lat="43.22237" lon="1.59318">
        <ele>227</ele>
        <time>2012-09-23T10:20:46Z</time>
      </trkpt>
      <trkpt lat="43.22231" lon="1.59328">
        <ele>227</ele>
        <time>2012-09-23T10:20:49Z</time>
      </trkpt>
      <trkpt lat="43.22227" lon="1.59334">
        <ele>227</ele>
        <time>2012-09-23T10:20:51Z</time>
      </trkpt>
      <trkpt lat="43.22224" lon="1.5934">
        <ele>227</ele>
        <time>2012-09-23T10:20:53Z</time>
      </trkpt>
      <trkpt lat="43.2222" lon="1.59347">
        <ele>227</ele>
        <time>2012-09-23T10:20:55Z</time>
      </trkpt>
      <trkpt lat="43.22216" lon="1.59354">
        <ele>227</ele>
        <time>2012-09-23T10:20:57Z</time>
      </trkpt>
      <trkpt lat="43.22213" lon="1.5936">
        <ele>228</ele>
        <time>2012-09-23T10:20:59Z</time>
      </trkpt>
      <trkpt lat="43.22209" lon="1.59367">
        <ele>228</ele>
        <time>2012-09-23T10:21:01Z</time>
      </trkpt>
      <trkpt lat="43.22204" lon="1.59374">
        <ele>228</ele>
        <time>2012-09-23T10:21:03Z</time>
      </trkpt>
      <trkpt lat="43.22197" lon="1.59379">
        <ele>228</ele>
        <time>2012-09-23T10:21:05Z</time>
      </trkpt>
      <trkpt lat="43.22192" lon="1.59383">
        <ele>228</ele>
        <time>2012-09-23T10:21:07Z</time>
      </trkpt>
      <trkpt lat="43.22187" lon="1.59387">
        <ele>228</ele>
        <time>2012-09-23T10:21:09Z</time>
      </trkpt>
      <trkpt lat="43.22182" lon="1.59391">
        <ele>228</ele>
        <time>2012-09-23T10:21:11Z</time>
      </trkpt>
      <trkpt lat="43.22177" lon="1.59397">
        <ele>228</ele>
        <time>2012-09-23T10:21:13Z</time>
      </trkpt>
      <trkpt lat="43.22173" lon="1.59402">
        <ele>228</ele>
        <time>2012-09-23T10:21:15Z</time>
      </trkpt>
      <trkpt lat="43.22169" lon="1.59407">
        <ele>228</ele>
        <time>2012-09-23T10:21:17Z</time>
      </trkpt>
      <trkpt lat="43.22166" lon="1.59414">
        <ele>228</ele>
        <time>2012-09-23T10:21:19Z</time>
      </trkpt>
      <trkpt lat="43.22162" lon="1.59421">
        <ele>228</ele>
        <time>2012-09-23T10:21:21Z</time>
      </trkpt>
      <trkpt lat="43.22159" lon="1.59428">
        <ele>228</ele>
        <time>2012-09-23T10:21:23Z</time>
      </trkpt>
      <trkpt lat="43.22155" lon="1.59434">
        <ele>228</ele>
        <time>2012-09-23T10:21:25Z</time>
      </trkpt>
      <trkpt lat="43.22151" lon="1.5944">
        <ele>228</ele>
        <time>2012-09-23T10:21:27Z</time>
      </trkpt>
      <trkpt lat="43.22147" lon="1.59446">
        <ele>228</ele>
        <time>2012-09-23T10:21:29Z</time>
      </trkpt>
      <trkpt lat="43.22144" lon="1.59451">
        <ele>228</ele>
        <time>2012-09-23T10:21:31Z</time>
      </trkpt>
      <trkpt lat="43.2214" lon="1.59457">
        <ele>228</ele>
        <time>2012-09-23T10:21:33Z</time>
      </trkpt>
      <trkpt lat="43.22134" lon="1.59466">
        <ele>228</ele>
        <time>2012-09-23T10:21:36Z</time>
      </trkpt>
      <trkpt lat="43.22131" lon="1.59473">
        <ele>228</ele>
        <time>2012-09-23T10:21:38Z</time>
      </trkpt>
      <trkpt lat="43.22128" lon="1.59481">
        <ele>228</ele>
        <time>2012-09-23T10:21:40Z</time>
      </trkpt>
      <trkpt lat="43.22125" lon="1.59486">
        <ele>228</ele>
        <time>2012-09-23T10:21:42Z</time>
      </trkpt>
      <trkpt lat="43.22124" lon="1.5949">
        <ele>228</ele>
        <time>2012-09-23T10:21:44Z</time>
      </trkpt>
      <trkpt lat="43.22122" lon="1.59494">
        <ele>228</ele>
        <time>2012-09-23T10:21:47Z</time>
      </trkpt>
      <trkpt lat="43.22119" lon="1.59501">
        <ele>228</ele>
        <time>2012-09-23T10:21:49Z</time>
      </trkpt>
      <trkpt lat="43.22114" lon="1.59507">
        <ele>228</ele>
        <time>2012-09-23T10:21:51Z</time>
      </trkpt>
      <trkpt lat="43.2211" lon="1.59513">
        <ele>228</ele>
        <time>2012-09-23T10:21:53Z</time>
      </trkpt>
      <trkpt lat="43.22105" lon="1.59518">
        <ele>228</ele>
        <time>2012-09-23T10:21:55Z</time>
      </trkpt>
      <trkpt lat="43.22101" lon="1.59526">
        <ele>228</ele>
        <time>2012-09-23T10:21:58Z</time>
      </trkpt>
      <trkpt lat="43.22098" lon="1.59532">
        <ele>228</ele>
        <time>2012-09-23T10:22:00Z</time>
      </trkpt>
      <trkpt lat="43.22094" lon="1.5954">
        <ele>228</ele>
        <time>2012-09-23T10:22:02Z</time>
      </trkpt>
      <trkpt lat="43.22091" lon="1.59548">
        <ele>228</ele>
        <time>2012-09-23T10:22:04Z</time>
      </trkpt>
      <trkpt lat="43.22086" lon="1.59554">
        <ele>228</ele>
        <time>2012-09-23T10:22:06Z</time>
      </trkpt>
      <trkpt lat="43.22082" lon="1.59559">
        <ele>228</ele>
        <time>2012-09-23T10:22:08Z</time>
      </trkpt>
      <trkpt lat="43.22078" lon="1.59565">
        <ele>228</ele>
        <time>2012-09-23T10:22:11Z</time>
      </trkpt>
      <trkpt lat="43.22074" lon="1.59569">
        <ele>228</ele>
        <time>2012-09-23T10:22:13Z</time>
      </trkpt>
      <trkpt lat="43.22072" lon="1.59574">
        <ele>228</ele>
        <time>2012-09-23T10:22:15Z</time>
      </trkpt>
      <trkpt lat="43.22071" lon="1.59581">
        <ele>228</ele>
        <time>2012-09-23T10:22:17Z</time>
      </trkpt>
      <trkpt lat="43.22069" lon="1.59587">
        <ele>228</ele>
        <time>2012-09-23T10:22:19Z</time>
      </trkpt>
      <trkpt lat="43.22067" lon="1.59591">
        <ele>228</ele>
        <time>2012-09-23T10:22:22Z</time>
      </trkpt>
      <trkpt lat="43.22065" lon="1.59592">
        <ele>228</ele>
        <time>2012-09-23T10:22:24Z</time>
      </trkpt>
      <trkpt lat="43.22064" lon="1.59596">
        <ele>228</ele>
        <time>2012-09-23T10:22:26Z</time>
      </trkpt>
      <trkpt lat="43.22062" lon="1.59601">
        <ele>228</ele>
        <time>2012-09-23T10:22:28Z</time>
      </trkpt>
      <trkpt lat="43.2206" lon="1.59603">
        <ele>228</ele>
        <time>2012-09-23T10:22:30Z</time>
      </trkpt>
      <trkpt lat="43.22057" lon="1.59607">
        <ele>227</ele>
        <time>2012-09-23T10:22:33Z</time>
      </trkpt>
      <trkpt lat="43.22055" lon="1.5961">
        <ele>227</ele>
        <time>2012-09-23T10:22:35Z</time>
      </trkpt>
      <trkpt lat="43.22052" lon="1.59614">
        <ele>227</ele>
        <time>2012-09-23T10:22:37Z</time>
      </trkpt>
      <trkpt lat="43.22049" lon="1.59619">
        <ele>227</ele>
        <time>2012-09-23T10:22:39Z</time>
      </trkpt>
      <trkpt lat="43.22047" lon="1.59625">
        <ele>227</ele>
        <time>2012-09-23T10:22:41Z</time>
      </trkpt>
      <trkpt lat="43.22043" lon="1.5963">
        <ele>227</ele>
        <time>2012-09-23T10:22:43Z</time>
      </trkpt>
      <trkpt lat="43.22039" lon="1.59634">
        <ele>227</ele>
        <time>2012-09-23T10:22:45Z</time>
      </trkpt>
      <trkpt lat="43.22035" lon="1.59639">
        <ele>227</ele>
        <time>2012-09-23T10:22:47Z</time>
      </trkpt>
      <trkpt lat="43.22032" lon="1.59645">
        <ele>227</ele>
        <time>2012-09-23T10:22:49Z</time>
      </trkpt>
      <trkpt lat="43.22029" lon="1.59651">
        <ele>227</ele>
        <time>2012-09-23T10:22:51Z</time>
      </trkpt>
      <trkpt lat="43.22025" lon="1.59657">
        <ele>227</ele>
        <time>2012-09-23T10:22:53Z</time>
      </trkpt>
      <trkpt lat="43.2202" lon="1.59661">
        <ele>227</ele>
        <time>2012-09-23T10:22:55Z</time>
      </trkpt>
      <trkpt lat="43.22016" lon="1.59666">
        <ele>227</ele>
        <time>2012-09-23T10:22:57Z</time>
      </trkpt>
      <trkpt lat="43.22009" lon="1.59671">
        <ele>225</ele>
        <time>2012-09-23T10:23:00Z</time>
      </trkpt>
      <trkpt lat="43.22005" lon="1.59676">
        <ele>224</ele>
        <time>2012-09-23T10:23:02Z</time>
      </trkpt>
      <trkpt lat="43.22001" lon="1.5968">
        <ele>224</ele>
        <time>2012-09-23T10:23:04Z</time>
      </trkpt>
      <trkpt lat="43.21994" lon="1.59692">
        <ele>224</ele>
        <time>2012-09-23T10:23:07Z</time>
      </trkpt>
      <trkpt lat="43.21989" lon="1.59697">
        <ele>224</ele>
        <time>2012-09-23T10:23:09Z</time>
      </trkpt>
      <trkpt lat="43.21986" lon="1.59703">
        <ele>224</ele>
        <time>2012-09-23T10:23:11Z</time>
      </trkpt>
      <trkpt lat="43.21981" lon="1.59711">
        <ele>224</ele>
        <time>2012-09-23T10:23:14Z</time>
      </trkpt>
      <trkpt lat="43.21978" lon="1.59718">
        <ele>224</ele>
        <time>2012-09-23T10:23:16Z</time>
      </trkpt>
      <trkpt lat="43.21973" lon="1.59726">
        <ele>224</ele>
        <time>2012-09-23T10:23:18Z</time>
      </trkpt>
      <trkpt lat="43.21968" lon="1.59733">
        <ele>224</ele>
        <time>2012-09-23T10:23:20Z</time>
      </trkpt>
      <trkpt lat="43.21964" lon="1.59738">
        <ele>224</ele>
        <time>2012-09-23T10:23:22Z</time>
      </trkpt>
      <trkpt lat="43.2196" lon="1.59743">
        <ele>224</ele>
        <time>2012-09-23T10:23:24Z</time>
      </trkpt>
      <trkpt lat="43.21956" lon="1.59748">
        <ele>224</ele>
        <time>2012-09-23T10:23:26Z</time>
      </trkpt>
      <trkpt lat="43.21952" lon="1.59755">
        <ele>224</ele>
        <time>2012-09-23T10:23:28Z</time>
      </trkpt>
      <trkpt lat="43.21947" lon="1.59761">
        <ele>224</ele>
        <time>2012-09-23T10:23:30Z</time>
      </trkpt>
      <trkpt lat="43.21942" lon="1.59764">
        <ele>224</ele>
        <time>2012-09-23T10:23:32Z</time>
      </trkpt>
      <trkpt lat="43.21938" lon="1.59768">
        <ele>224</ele>
        <time>2012-09-23T10:23:34Z</time>
      </trkpt>
      <trkpt lat="43.21933" lon="1.59774">
        <ele>224</ele>
        <time>2012-09-23T10:23:36Z</time>
      </trkpt>
      <trkpt lat="43.21929" lon="1.59781">
        <ele>224</ele>
        <time>2012-09-23T10:23:38Z</time>
      </trkpt>
      <trkpt lat="43.21923" lon="1.59787">
        <ele>224</ele>
        <time>2012-09-23T10:23:40Z</time>
      </trkpt>
      <trkpt lat="43.21919" lon="1.59793">
        <ele>225</ele>
        <time>2012-09-23T10:23:42Z</time>
      </trkpt>
      <trkpt lat="43.21915" lon="1.59799">
        <ele>225</ele>
        <time>2012-09-23T10:23:44Z</time>
      </trkpt>
      <trkpt lat="43.2191" lon="1.59804">
        <ele>225</ele>
        <time>2012-09-23T10:23:46Z</time>
      </trkpt>
      <trkpt lat="43.21905" lon="1.5981">
        <ele>225</ele>
        <time>2012-09-23T10:23:48Z</time>
      </trkpt>
      <trkpt lat="43.21901" lon="1.59815">
        <ele>225</ele>
        <time>2012-09-23T10:23:50Z</time>
      </trkpt>
      <trkpt lat="43.21895" lon="1.59821">
        <ele>225</ele>
        <time>2012-09-23T10:23:52Z</time>
      </trkpt>
      <trkpt lat="43.2189" lon="1.59827">
        <ele>225</ele>
        <time>2012-09-23T10:23:54Z</time>
      </trkpt>
      <trkpt lat="43.21884" lon="1.59833">
        <ele>225</ele>
        <time>2012-09-23T10:23:56Z</time>
      </trkpt>
      <trkpt lat="43.21878" lon="1.59837">
        <ele>225</ele>
        <time>2012-09-23T10:23:58Z</time>
      </trkpt>
      <trkpt lat="43.21871" lon="1.59841">
        <ele>225</ele>
        <time>2012-09-23T10:24:01Z</time>
      </trkpt>
      <trkpt lat="43.21865" lon="1.59843">
        <ele>225</ele>
        <time>2012-09-23T10:24:03Z</time>
      </trkpt>
      <trkpt lat="43.2186" lon="1.59846">
        <ele>225</ele>
        <time>2012-09-23T10:24:05Z</time>
      </trkpt>
      <trkpt lat="43.21854" lon="1.59848">
        <ele>225</ele>
        <time>2012-09-23T10:24:07Z</time>
      </trkpt>
      <trkpt lat="43.21848" lon="1.5985">
        <ele>225</ele>
        <time>2012-09-23T10:24:09Z</time>
      </trkpt>
      <trkpt lat="43.21843" lon="1.59853">
        <ele>225</ele>
        <time>2012-09-23T10:24:11Z</time>
      </trkpt>
      <trkpt lat="43.21838" lon="1.59856">
        <ele>225</ele>
        <time>2012-09-23T10:24:13Z</time>
      </trkpt>
      <trkpt lat="43.21831" lon="1.59859">
        <ele>225</ele>
        <time>2012-09-23T10:24:15Z</time>
      </trkpt>
      <trkpt lat="43.21825" lon="1.59859">
        <ele>225</ele>
        <time>2012-09-23T10:24:17Z</time>
      </trkpt>
      <trkpt lat="43.21819" lon="1.59861">
        <ele>225</ele>
        <time>2012-09-23T10:24:19Z</time>
      </trkpt>
      <trkpt lat="43.21813" lon="1.59864">
        <ele>225</ele>
        <time>2012-09-23T10:24:21Z</time>
      </trkpt>
      <trkpt lat="43.21807" lon="1.59864">
        <ele>225</ele>
        <time>2012-09-23T10:24:23Z</time>
      </trkpt>
      <trkpt lat="43.218" lon="1.59863">
        <ele>226</ele>
        <time>2012-09-23T10:24:25Z</time>
      </trkpt>
      <trkpt lat="43.21794" lon="1.59864">
        <ele>226</ele>
        <time>2012-09-23T10:24:27Z</time>
      </trkpt>
      <trkpt lat="43.21788" lon="1.59866">
        <ele>226</ele>
        <time>2012-09-23T10:24:29Z</time>
      </trkpt>
      <trkpt lat="43.21782" lon="1.59866">
        <ele>226</ele>
        <time>2012-09-23T10:24:31Z</time>
      </trkpt>
      <trkpt lat="43.21775" lon="1.59867">
        <ele>227</ele>
        <time>2012-09-23T10:24:33Z</time>
      </trkpt>
      <trkpt lat="43.21769" lon="1.59869">
        <ele>228</ele>
        <time>2012-09-23T10:24:35Z</time>
      </trkpt>
      <trkpt lat="43.21762" lon="1.59869">
        <ele>228</ele>
        <time>2012-09-23T10:24:37Z</time>
      </trkpt>
      <trkpt lat="43.21756" lon="1.59869">
        <ele>229</ele>
        <time>2012-09-23T10:24:39Z</time>
      </trkpt>
      <trkpt lat="43.2175" lon="1.59871">
        <ele>229</ele>
        <time>2012-09-23T10:24:41Z</time>
      </trkpt>
      <trkpt lat="43.21743" lon="1.59873">
        <ele>230</ele>
        <time>2012-09-23T10:24:43Z</time>
      </trkpt>
      <trkpt lat="43.21736" lon="1.59875">
        <ele>232</ele>
        <time>2012-09-23T10:24:45Z</time>
      </trkpt>
      <trkpt lat="43.2173" lon="1.59878">
        <ele>233</ele>
        <time>2012-09-23T10:24:47Z</time>
      </trkpt>
      <trkpt lat="43.21722" lon="1.59879">
        <ele>234</ele>
        <time>2012-09-23T10:24:49Z</time>
      </trkpt>
      <trkpt lat="43.21717" lon="1.59879">
        <ele>234</ele>
        <time>2012-09-23T10:24:51Z</time>
      </trkpt>
      <trkpt lat="43.21712" lon="1.59877">
        <ele>234</ele>
        <time>2012-09-23T10:24:53Z</time>
      </trkpt>
      <trkpt lat="43.21706" lon="1.59876">
        <ele>234</ele>
        <time>2012-09-23T10:24:55Z</time>
      </trkpt>
      <trkpt lat="43.217" lon="1.59874">
        <ele>234</ele>
        <time>2012-09-23T10:24:57Z</time>
      </trkpt>
      <trkpt lat="43.21694" lon="1.59871">
        <ele>234</ele>
        <time>2012-09-23T10:24:59Z</time>
      </trkpt>
      <trkpt lat="43.2169" lon="1.59867">
        <ele>234</ele>
        <time>2012-09-23T10:25:01Z</time>
      </trkpt>
      <trkpt lat="43.21687" lon="1.59862">
        <ele>234</ele>
        <time>2012-09-23T10:25:03Z</time>
      </trkpt>
      <trkpt lat="43.21682" lon="1.59859">
        <ele>234</ele>
        <time>2012-09-23T10:25:05Z</time>
      </trkpt>
      <trkpt lat="43.21677" lon="1.59856">
        <ele>233</ele>
        <time>2012-09-23T10:25:07Z</time>
      </trkpt>
      <trkpt lat="43.21672" lon="1.59853">
        <ele>233</ele>
        <time>2012-09-23T10:25:09Z</time>
      </trkpt>
      <trkpt lat="43.21664" lon="1.5985">
        <ele>231</ele>
        <time>2012-09-23T10:25:12Z</time>
      </trkpt>
      <trkpt lat="43.21659" lon="1.59848">
        <ele>230</ele>
        <time>2012-09-23T10:25:14Z</time>
      </trkpt>
      <trkpt lat="43.21653" lon="1.59846">
        <ele>229</ele>
        <time>2012-09-23T10:25:16Z</time>
      </trkpt>
      <trkpt lat="43.21647" lon="1.59845">
        <ele>228</ele>
        <time>2012-09-23T10:25:18Z</time>
      </trkpt>
      <trkpt lat="43.2164" lon="1.59844">
        <ele>228</ele>
        <time>2012-09-23T10:25:20Z</time>
      </trkpt>
      <trkpt lat="43.21634" lon="1.59842">
        <ele>228</ele>
        <time>2012-09-23T10:25:22Z</time>
      </trkpt>
      <trkpt lat="43.21628" lon="1.5984">
        <ele>227</ele>
        <time>2012-09-23T10:25:24Z</time>
      </trkpt>
      <trkpt lat="43.21624" lon="1.59834">
        <ele>227</ele>
        <time>2012-09-23T10:25:26Z</time>
      </trkpt>
      <trkpt lat="43.21621" lon="1.59826">
        <ele>227</ele>
        <time>2012-09-23T10:25:28Z</time>
      </trkpt>
      <trkpt lat="43.21618" lon="1.59819">
        <ele>227</ele>
        <time>2012-09-23T10:25:30Z</time>
      </trkpt>
      <trkpt lat="43.21617" lon="1.5981">
        <ele>227</ele>
        <time>2012-09-23T10:25:32Z</time>
      </trkpt>
      <trkpt lat="43.21616" lon="1.59802">
        <ele>227</ele>
        <time>2012-09-23T10:25:34Z</time>
      </trkpt>
      <trkpt lat="43.21615" lon="1.59793">
        <ele>227</ele>
        <time>2012-09-23T10:25:36Z</time>
      </trkpt>
      <trkpt lat="43.21613" lon="1.59784">
        <ele>227</ele>
        <time>2012-09-23T10:25:38Z</time>
      </trkpt>
      <trkpt lat="43.21613" lon="1.59776">
        <ele>227</ele>
        <time>2012-09-23T10:25:40Z</time>
      </trkpt>
      <trkpt lat="43.21612" lon="1.59768">
        <ele>227</ele>
        <time>2012-09-23T10:25:42Z</time>
      </trkpt>
      <trkpt lat="43.21613" lon="1.5976">
        <ele>227</ele>
        <time>2012-09-23T10:25:44Z</time>
      </trkpt>
      <trkpt lat="43.21612" lon="1.59752">
        <ele>227</ele>
        <time>2012-09-23T10:25:46Z</time>
      </trkpt>
      <trkpt lat="43.21613" lon="1.59744">
        <ele>227</ele>
        <time>2012-09-23T10:25:48Z</time>
      </trkpt>
      <trkpt lat="43.21613" lon="1.59736">
        <ele>227</ele>
        <time>2012-09-23T10:25:50Z</time>
      </trkpt>
      <trkpt lat="43.21614" lon="1.59728">
        <ele>227</ele>
        <time>2012-09-23T10:25:52Z</time>
      </trkpt>
      <trkpt lat="43.21614" lon="1.59719">
        <ele>228</ele>
        <time>2012-09-23T10:25:54Z</time>
      </trkpt>
      <trkpt lat="43.21614" lon="1.59707">
        <ele>228</ele>
        <time>2012-09-23T10:25:57Z</time>
      </trkpt>
      <trkpt lat="43.21614" lon="1.59699">
        <ele>228</ele>
        <time>2012-09-23T10:25:59Z</time>
      </trkpt>
      <trkpt lat="43.21615" lon="1.59692">
        <ele>228</ele>
        <time>2012-09-23T10:26:01Z</time>
      </trkpt>
      <trkpt lat="43.21616" lon="1.59685">
        <ele>228</ele>
        <time>2012-09-23T10:26:03Z</time>
      </trkpt>
      <trkpt lat="43.21617" lon="1.59679">
        <ele>229</ele>
        <time>2012-09-23T10:26:05Z</time>
      </trkpt>
      <trkpt lat="43.21617" lon="1.59673">
        <ele>230</ele>
        <time>2012-09-23T10:26:07Z</time>
      </trkpt>
      <trkpt lat="43.21616" lon="1.59666">
        <ele>231</ele>
        <time>2012-09-23T10:26:09Z</time>
      </trkpt>
      <trkpt lat="43.21616" lon="1.59655">
        <ele>233</ele>
        <time>2012-09-23T10:26:12Z</time>
      </trkpt>
      <trkpt lat="43.21615" lon="1.59649">
        <ele>234</ele>
        <time>2012-09-23T10:26:14Z</time>
      </trkpt>
      <trkpt lat="43.21616" lon="1.59642">
        <ele>234</ele>
        <time>2012-09-23T10:26:16Z</time>
      </trkpt>
      <trkpt lat="43.21616" lon="1.59636">
        <ele>235</ele>
        <time>2012-09-23T10:26:18Z</time>
      </trkpt>
      <trkpt lat="43.21616" lon="1.59629">
        <ele>237</ele>
        <time>2012-09-23T10:26:20Z</time>
      </trkpt>
      <trkpt lat="43.21616" lon="1.59621">
        <ele>237</ele>
        <time>2012-09-23T10:26:22Z</time>
      </trkpt>
      <trkpt lat="43.21614" lon="1.59615">
        <ele>238</ele>
        <time>2012-09-23T10:26:24Z</time>
      </trkpt>
      <trkpt lat="43.21614" lon="1.59607">
        <ele>238</ele>
        <time>2012-09-23T10:26:26Z</time>
      </trkpt>
      <trkpt lat="43.21614" lon="1.59599">
        <ele>238</ele>
        <time>2012-09-23T10:26:28Z</time>
      </trkpt>
      <trkpt lat="43.21614" lon="1.59591">
        <ele>238</ele>
        <time>2012-09-23T10:26:30Z</time>
      </trkpt>
      <trkpt lat="43.21614" lon="1.59584">
        <ele>238</ele>
        <time>2012-09-23T10:26:32Z</time>
      </trkpt>
      <trkpt lat="43.21614" lon="1.59575">
        <ele>238</ele>
        <time>2012-09-23T10:26:34Z</time>
      </trkpt>
      <trkpt lat="43.21614" lon="1.59567">
        <ele>238</ele>
        <time>2012-09-23T10:26:36Z</time>
      </trkpt>
      <trkpt lat="43.21614" lon="1.5956">
        <ele>239</ele>
        <time>2012-09-23T10:26:38Z</time>
      </trkpt>
      <trkpt lat="43.21614" lon="1.59551">
        <ele>239</ele>
        <time>2012-09-23T10:26:40Z</time>
      </trkpt>
      <trkpt lat="43.21614" lon="1.59543">
        <ele>239</ele>
        <time>2012-09-23T10:26:42Z</time>
      </trkpt>
      <trkpt lat="43.21614" lon="1.59535">
        <ele>239</ele>
        <time>2012-09-23T10:26:44Z</time>
      </trkpt>
      <trkpt lat="43.21615" lon="1.59527">
        <ele>239</ele>
        <time>2012-09-23T10:26:46Z</time>
      </trkpt>
      <trkpt lat="43.21615" lon="1.59518">
        <ele>240</ele>
        <time>2012-09-23T10:26:48Z</time>
      </trkpt>
      <trkpt lat="43.21615" lon="1.5951">
        <ele>240</ele>
        <time>2012-09-23T10:26:50Z</time>
      </trkpt>
      <trkpt lat="43.21615" lon="1.59502">
        <ele>240</ele>
        <time>2012-09-23T10:26:52Z</time>
      </trkpt>
      <trkpt lat="43.21615" lon="1.59494">
        <ele>240</ele>
        <time>2012-09-23T10:26:54Z</time>
      </trkpt>
      <trkpt lat="43.21615" lon="1.59485">
        <ele>240</ele>
        <time>2012-09-23T10:26:56Z</time>
      </trkpt>
      <trkpt lat="43.21615" lon="1.59477">
        <ele>240</ele>
        <time>2012-09-23T10:26:58Z</time>
      </trkpt>
      <trkpt lat="43.21615" lon="1.59469">
        <ele>240</ele>
        <time>2012-09-23T10:27:00Z</time>
      </trkpt>
      <trkpt lat="43.21616" lon="1.59461">
        <ele>240</ele>
        <time>2012-09-23T10:27:02Z</time>
      </trkpt>
      <trkpt lat="43.21616" lon="1.59453">
        <ele>240</ele>
        <time>2012-09-23T10:27:04Z</time>
      </trkpt>
      <trkpt lat="43.21616" lon="1.59445">
        <ele>240</ele>
        <time>2012-09-23T10:27:06Z</time>
      </trkpt>
      <trkpt lat="43.21617" lon="1.59437">
        <ele>240</ele>
        <time>2012-09-23T10:27:08Z</time>
      </trkpt>
      <trkpt lat="43.21616" lon="1.59428">
        <ele>240</ele>
        <time>2012-09-23T10:27:10Z</time>
      </trkpt>
      <trkpt lat="43.21617" lon="1.5942">
        <ele>240</ele>
        <time>2012-09-23T10:27:12Z</time>
      </trkpt>
      <trkpt lat="43.21618" lon="1.59411">
        <ele>240</ele>
        <time>2012-09-23T10:27:14Z</time>
      </trkpt>
      <trkpt lat="43.21618" lon="1.59403">
        <ele>240</ele>
        <time>2012-09-23T10:27:16Z</time>
      </trkpt>
      <trkpt lat="43.21619" lon="1.59395">
        <ele>240</ele>
        <time>2012-09-23T10:27:18Z</time>
      </trkpt>
      <trkpt lat="43.21619" lon="1.59386">
        <ele>240</ele>
        <time>2012-09-23T10:27:20Z</time>
      </trkpt>
      <trkpt lat="43.21619" lon="1.59378">
        <ele>240</ele>
        <time>2012-09-23T10:27:22Z</time>
      </trkpt>
      <trkpt lat="43.2162" lon="1.5937">
        <ele>240</ele>
        <time>2012-09-23T10:27:24Z</time>
      </trkpt>
      <trkpt lat="43.21621" lon="1.59362">
        <ele>240</ele>
        <time>2012-09-23T10:27:26Z</time>
      </trkpt>
      <trkpt lat="43.21621" lon="1.59354">
        <ele>240</ele>
        <time>2012-09-23T10:27:28Z</time>
      </trkpt>
      <trkpt lat="43.21621" lon="1.59345">
        <ele>240</ele>
        <time>2012-09-23T10:27:30Z</time>
      </trkpt>
      <trkpt lat="43.21621" lon="1.59336">
        <ele>240</ele>
        <time>2012-09-23T10:27:32Z</time>
      </trkpt>
      <trkpt lat="43.21622" lon="1.59328">
        <ele>240</ele>
        <time>2012-09-23T10:27:34Z</time>
      </trkpt>
      <trkpt lat="43.21622" lon="1.5932">
        <ele>240</ele>
        <time>2012-09-23T10:27:36Z</time>
      </trkpt>
      <trkpt lat="43.21622" lon="1.59311">
        <ele>240</ele>
        <time>2012-09-23T10:27:38Z</time>
      </trkpt>
      <trkpt lat="43.21622" lon="1.59302">
        <ele>240</ele>
        <time>2012-09-23T10:27:40Z</time>
      </trkpt>
      <trkpt lat="43.21622" lon="1.59293">
        <ele>240</ele>
        <time>2012-09-23T10:27:42Z</time>
      </trkpt>
      <trkpt lat="43.21622" lon="1.59285">
        <ele>240</ele>
        <time>2012-09-23T10:27:44Z</time>
      </trkpt>
      <trkpt lat="43.21621" lon="1.59279">
        <ele>240</ele>
        <time>2012-09-23T10:27:46Z</time>
      </trkpt>
      <trkpt lat="43.21615" lon="1.59277">
        <ele>240</ele>
        <time>2012-09-23T10:27:48Z</time>
      </trkpt>
      <trkpt lat="43.2161" lon="1.59279">
        <ele>240</ele>
        <time>2012-09-23T10:27:50Z</time>
      </trkpt>
      <trkpt lat="43.21604" lon="1.59281">
        <ele>240</ele>
        <time>2012-09-23T10:27:52Z</time>
      </trkpt>
      <trkpt lat="43.21598" lon="1.59283">
        <ele>240</ele>
        <time>2012-09-23T10:27:54Z</time>
      </trkpt>
      <trkpt lat="43.21592" lon="1.59285">
        <ele>240</ele>
        <time>2012-09-23T10:27:56Z</time>
      </trkpt>
      <trkpt lat="43.21586" lon="1.59287">
        <ele>240</ele>
        <time>2012-09-23T10:27:58Z</time>
      </trkpt>
      <trkpt lat="43.2158" lon="1.59289">
        <ele>240</ele>
        <time>2012-09-23T10:28:00Z</time>
      </trkpt>
      <trkpt lat="43.21574" lon="1.5929">
        <ele>240</ele>
        <time>2012-09-23T10:28:02Z</time>
      </trkpt>
      <trkpt lat="43.21564" lon="1.59292">
        <ele>240</ele>
        <time>2012-09-23T10:28:05Z</time>
      </trkpt>
      <trkpt lat="43.21558" lon="1.59292">
        <ele>240</ele>
        <time>2012-09-23T10:28:07Z</time>
      </trkpt>
      <trkpt lat="43.21551" lon="1.59292">
        <ele>240</ele>
        <time>2012-09-23T10:28:09Z</time>
      </trkpt>
      <trkpt lat="43.21545" lon="1.59293">
        <ele>240</ele>
        <time>2012-09-23T10:28:11Z</time>
      </trkpt>
      <trkpt lat="43.21538" lon="1.59294">
        <ele>239</ele>
        <time>2012-09-23T10:28:13Z</time>
      </trkpt>
      <trkpt lat="43.21531" lon="1.59295">
        <ele>239</ele>
        <time>2012-09-23T10:28:15Z</time>
      </trkpt>
      <trkpt lat="43.21525" lon="1.59298">
        <ele>238</ele>
        <time>2012-09-23T10:28:17Z</time>
      </trkpt>
      <trkpt lat="43.21518" lon="1.59299">
        <ele>238</ele>
        <time>2012-09-23T10:28:19Z</time>
      </trkpt>
      <trkpt lat="43.21512" lon="1.59301">
        <ele>238</ele>
        <time>2012-09-23T10:28:21Z</time>
      </trkpt>
      <trkpt lat="43.21506" lon="1.59303">
        <ele>238</ele>
        <time>2012-09-23T10:28:23Z</time>
      </trkpt>
      <trkpt lat="43.21498" lon="1.59307">
        <ele>238</ele>
        <time>2012-09-23T10:28:26Z</time>
      </trkpt>
      <trkpt lat="43.21492" lon="1.5931">
        <ele>238</ele>
        <time>2012-09-23T10:28:28Z</time>
      </trkpt>
      <trkpt lat="43.21486" lon="1.59313">
        <ele>238</ele>
        <time>2012-09-23T10:28:30Z</time>
      </trkpt>
      <trkpt lat="43.21481" lon="1.59316">
        <ele>238</ele>
        <time>2012-09-23T10:28:32Z</time>
      </trkpt>
      <trkpt lat="43.21475" lon="1.59318">
        <ele>238</ele>
        <time>2012-09-23T10:28:34Z</time>
      </trkpt>
      <trkpt lat="43.21469" lon="1.5932">
        <ele>238</ele>
        <time>2012-09-23T10:28:36Z</time>
      </trkpt>
      <trkpt lat="43.21464" lon="1.59323">
        <ele>238</ele>
        <time>2012-09-23T10:28:38Z</time>
      </trkpt>
      <trkpt lat="43.21458" lon="1.59325">
        <ele>238</ele>
        <time>2012-09-23T10:28:40Z</time>
      </trkpt>
      <trkpt lat="43.21452" lon="1.59326">
        <ele>238</ele>
        <time>2012-09-23T10:28:42Z</time>
      </trkpt>
      <trkpt lat="43.21447" lon="1.59328">
        <ele>238</ele>
        <time>2012-09-23T10:28:44Z</time>
      </trkpt>
      <trkpt lat="43.21442" lon="1.59332">
        <ele>238</ele>
        <time>2012-09-23T10:28:46Z</time>
      </trkpt>
      <trkpt lat="43.21436" lon="1.59334">
        <ele>238</ele>
        <time>2012-09-23T10:28:48Z</time>
      </trkpt>
      <trkpt lat="43.21431" lon="1.59336">
        <ele>238</ele>
        <time>2012-09-23T10:28:50Z</time>
      </trkpt>
      <trkpt lat="43.21426" lon="1.59339">
        <ele>238</ele>
        <time>2012-09-23T10:28:52Z</time>
      </trkpt>
      <trkpt lat="43.21421" lon="1.59342">
        <ele>238</ele>
        <time>2012-09-23T10:28:54Z</time>
      </trkpt>
      <trkpt lat="43.21416" lon="1.59345">
        <ele>238</ele>
        <time>2012-09-23T10:28:56Z</time>
      </trkpt>
      <trkpt lat="43.2141" lon="1.59349">
        <ele>238</ele>
        <time>2012-09-23T10:28:58Z</time>
      </trkpt>
      <trkpt lat="43.21405" lon="1.59353">
        <ele>238</ele>
        <time>2012-09-23T10:29:00Z</time>
      </trkpt>
      <trkpt lat="43.214" lon="1.59358">
        <ele>238</ele>
        <time>2012-09-23T10:29:02Z</time>
      </trkpt>
      <trkpt lat="43.21396" lon="1.59363">
        <ele>238</ele>
        <time>2012-09-23T10:29:04Z</time>
      </trkpt>
      <trkpt lat="43.21392" lon="1.5937">
        <ele>238</ele>
        <time>2012-09-23T10:29:06Z</time>
      </trkpt>
      <trkpt lat="43.21388" lon="1.59375">
        <ele>238</ele>
        <time>2012-09-23T10:29:08Z</time>
      </trkpt>
      <trkpt lat="43.21384" lon="1.5938">
        <ele>238</ele>
        <time>2012-09-23T10:29:10Z</time>
      </trkpt>
      <trkpt lat="43.21379" lon="1.59386">
        <ele>238</ele>
        <time>2012-09-23T10:29:12Z</time>
      </trkpt>
      <trkpt lat="43.21374" lon="1.59391">
        <ele>238</ele>
        <time>2012-09-23T10:29:14Z</time>
      </trkpt>
      <trkpt lat="43.21369" lon="1.59395">
        <ele>238</ele>
        <time>2012-09-23T10:29:16Z</time>
      </trkpt>
      <trkpt lat="43.21363" lon="1.59397">
        <ele>238</ele>
        <time>2012-09-23T10:29:18Z</time>
      </trkpt>
      <trkpt lat="43.21357" lon="1.594">
        <ele>238</ele>
        <time>2012-09-23T10:29:20Z</time>
      </trkpt>
      <trkpt lat="43.2135" lon="1.59401">
        <ele>238</ele>
        <time>2012-09-23T10:29:22Z</time>
      </trkpt>
      <trkpt lat="43.21344" lon="1.59402">
        <ele>238</ele>
        <time>2012-09-23T10:29:24Z</time>
      </trkpt>
      <trkpt lat="43.21337" lon="1.59403">
        <ele>238</ele>
        <time>2012-09-23T10:29:26Z</time>
      </trkpt>
      <trkpt lat="43.21331" lon="1.59404">
        <ele>238</ele>
        <time>2012-09-23T10:29:28Z</time>
      </trkpt>
      <trkpt lat="43.21325" lon="1.59406">
        <ele>238</ele>
        <time>2012-09-23T10:29:30Z</time>
      </trkpt>
      <trkpt lat="43.21318" lon="1.59407">
        <ele>238</ele>
        <time>2012-09-23T10:29:32Z</time>
      </trkpt>
      <trkpt lat="43.21312" lon="1.59408">
        <ele>238</ele>
        <time>2012-09-23T10:29:34Z</time>
      </trkpt>
      <trkpt lat="43.21305" lon="1.59409">
        <ele>238</ele>
        <time>2012-09-23T10:29:36Z</time>
      </trkpt>
      <trkpt lat="43.213" lon="1.5941">
        <ele>238</ele>
        <time>2012-09-23T10:29:38Z</time>
      </trkpt>
      <trkpt lat="43.21294" lon="1.5941">
        <ele>238</ele>
        <time>2012-09-23T10:29:40Z</time>
      </trkpt>
      <trkpt lat="43.21289" lon="1.59411">
        <ele>238</ele>
        <time>2012-09-23T10:29:42Z</time>
      </trkpt>
      <trkpt lat="43.21283" lon="1.59411">
        <ele>238</ele>
        <time>2012-09-23T10:29:44Z</time>
      </trkpt>
      <trkpt lat="43.21278" lon="1.59412">
        <ele>238</ele>
        <time>2012-09-23T10:29:46Z</time>
      </trkpt>
      <trkpt lat="43.21272" lon="1.59414">
        <ele>238</ele>
        <time>2012-09-23T10:29:48Z</time>
      </trkpt>
      <trkpt lat="43.21266" lon="1.59415">
        <ele>238</ele>
        <time>2012-09-23T10:29:50Z</time>
      </trkpt>
      <trkpt lat="43.21259" lon="1.59417">
        <ele>239</ele>
        <time>2012-09-23T10:29:53Z</time>
      </trkpt>
      <trkpt lat="43.21253" lon="1.59418">
        <ele>239</ele>
        <time>2012-09-23T10:29:55Z</time>
      </trkpt>
      <trkpt lat="43.21247" lon="1.5942">
        <ele>239</ele>
        <time>2012-09-23T10:29:57Z</time>
      </trkpt>
      <trkpt lat="43.21242" lon="1.59422">
        <ele>239</ele>
        <time>2012-09-23T10:29:59Z</time>
      </trkpt>
      <trkpt lat="43.21236" lon="1.59424">
        <ele>239</ele>
        <time>2012-09-23T10:30:01Z</time>
      </trkpt>
      <trkpt lat="43.2123" lon="1.59427">
        <ele>239</ele>
        <time>2012-09-23T10:30:03Z</time>
      </trkpt>
      <trkpt lat="43.21224" lon="1.59429">
        <ele>239</ele>
        <time>2012-09-23T10:30:05Z</time>
      </trkpt>
      <trkpt lat="43.21219" lon="1.59431">
        <ele>239</ele>
        <time>2012-09-23T10:30:07Z</time>
      </trkpt>
      <trkpt lat="43.21214" lon="1.59432">
        <ele>239</ele>
        <time>2012-09-23T10:30:09Z</time>
      </trkpt>
      <trkpt lat="43.21206" lon="1.59436">
        <ele>239</ele>
        <time>2012-09-23T10:30:12Z</time>
      </trkpt>
      <trkpt lat="43.21201" lon="1.59438">
        <ele>239</ele>
        <time>2012-09-23T10:30:14Z</time>
      </trkpt>
      <trkpt lat="43.21195" lon="1.5944">
        <ele>239</ele>
        <time>2012-09-23T10:30:16Z</time>
      </trkpt>
      <trkpt lat="43.21189" lon="1.59443">
        <ele>239</ele>
        <time>2012-09-23T10:30:18Z</time>
      </trkpt>
      <trkpt lat="43.21184" lon="1.59444">
        <ele>239</ele>
        <time>2012-09-23T10:30:20Z</time>
      </trkpt>
      <trkpt lat="43.21176" lon="1.59447">
        <ele>239</ele>
        <time>2012-09-23T10:30:23Z</time>
      </trkpt>
      <trkpt lat="43.2117" lon="1.5945">
        <ele>239</ele>
        <time>2012-09-23T10:30:25Z</time>
      </trkpt>
      <trkpt lat="43.21165" lon="1.59453">
        <ele>239</ele>
        <time>2012-09-23T10:30:27Z</time>
      </trkpt>
      <trkpt lat="43.21159" lon="1.59456">
        <ele>239</ele>
        <time>2012-09-23T10:30:29Z</time>
      </trkpt>
      <trkpt lat="43.21151" lon="1.5946">
        <ele>239</ele>
        <time>2012-09-23T10:30:32Z</time>
      </trkpt>
      <trkpt lat="43.21146" lon="1.59463">
        <ele>239</ele>
        <time>2012-09-23T10:30:34Z</time>
      </trkpt>
      <trkpt lat="43.21141" lon="1.59466">
        <ele>239</ele>
        <time>2012-09-23T10:30:36Z</time>
      </trkpt>
      <trkpt lat="43.21136" lon="1.59469">
        <ele>239</ele>
        <time>2012-09-23T10:30:38Z</time>
      </trkpt>
      <trkpt lat="43.21131" lon="1.59473">
        <ele>239</ele>
        <time>2012-09-23T10:30:40Z</time>
      </trkpt>
      <trkpt lat="43.21125" lon="1.59476">
        <ele>239</ele>
        <time>2012-09-23T10:30:42Z</time>
      </trkpt>
      <trkpt lat="43.2112" lon="1.59481">
        <ele>239</ele>
        <time>2012-09-23T10:30:44Z</time>
      </trkpt>
      <trkpt lat="43.21114" lon="1.59485">
        <ele>239</ele>
        <time>2012-09-23T10:30:46Z</time>
      </trkpt>
      <trkpt lat="43.21109" lon="1.59488">
        <ele>239</ele>
        <time>2012-09-23T10:30:48Z</time>
      </trkpt>
      <trkpt lat="43.21104" lon="1.59492">
        <ele>239</ele>
        <time>2012-09-23T10:30:50Z</time>
      </trkpt>
      <trkpt lat="43.21099" lon="1.59495">
        <ele>239</ele>
        <time>2012-09-23T10:30:52Z</time>
      </trkpt>
      <trkpt lat="43.21093" lon="1.59499">
        <ele>239</ele>
        <time>2012-09-23T10:30:54Z</time>
      </trkpt>
      <trkpt lat="43.21088" lon="1.59502">
        <ele>239</ele>
        <time>2012-09-23T10:30:56Z</time>
      </trkpt>
      <trkpt lat="43.21083" lon="1.59504">
        <ele>239</ele>
        <time>2012-09-23T10:30:58Z</time>
      </trkpt>
      <trkpt lat="43.21077" lon="1.59507">
        <ele>239</ele>
        <time>2012-09-23T10:31:00Z</time>
      </trkpt>
      <trkpt lat="43.21071" lon="1.5951">
        <ele>239</ele>
        <time>2012-09-23T10:31:02Z</time>
      </trkpt>
      <trkpt lat="43.21066" lon="1.59512">
        <ele>239</ele>
        <time>2012-09-23T10:31:04Z</time>
      </trkpt>
      <trkpt lat="43.2106" lon="1.59516">
        <ele>239</ele>
        <time>2012-09-23T10:31:06Z</time>
      </trkpt>
      <trkpt lat="43.21054" lon="1.5952">
        <ele>239</ele>
        <time>2012-09-23T10:31:08Z</time>
      </trkpt>
      <trkpt lat="43.21049" lon="1.59523">
        <ele>239</ele>
        <time>2012-09-23T10:31:10Z</time>
      </trkpt>
      <trkpt lat="43.21043" lon="1.59526">
        <ele>239</ele>
        <time>2012-09-23T10:31:12Z</time>
      </trkpt>
      <trkpt lat="43.21035" lon="1.5953">
        <ele>239</ele>
        <time>2012-09-23T10:31:15Z</time>
      </trkpt>
      <trkpt lat="43.21027" lon="1.59534">
        <ele>239</ele>
        <time>2012-09-23T10:31:18Z</time>
      </trkpt>
      <trkpt lat="43.21019" lon="1.59539">
        <ele>239</ele>
        <time>2012-09-23T10:31:21Z</time>
      </trkpt>
      <trkpt lat="43.21014" lon="1.59541">
        <ele>239</ele>
        <time>2012-09-23T10:31:23Z</time>
      </trkpt>
      <trkpt lat="43.21008" lon="1.59544">
        <ele>239</ele>
        <time>2012-09-23T10:31:25Z</time>
      </trkpt>
      <trkpt lat="43.21003" lon="1.59546">
        <ele>239</ele>
        <time>2012-09-23T10:31:27Z</time>
      </trkpt>
      <trkpt lat="43.20998" lon="1.59549">
        <ele>239</ele>
        <time>2012-09-23T10:31:29Z</time>
      </trkpt>
      <trkpt lat="43.20992" lon="1.59551">
        <ele>239</ele>
        <time>2012-09-23T10:31:31Z</time>
      </trkpt>
      <trkpt lat="43.20987" lon="1.59553">
        <ele>239</ele>
        <time>2012-09-23T10:31:33Z</time>
      </trkpt>
      <trkpt lat="43.20981" lon="1.59555">
        <ele>239</ele>
        <time>2012-09-23T10:31:35Z</time>
      </trkpt>
      <trkpt lat="43.20976" lon="1.59557">
        <ele>239</ele>
        <time>2012-09-23T10:31:37Z</time>
      </trkpt>
      <trkpt lat="43.2097" lon="1.59559">
        <ele>239</ele>
        <time>2012-09-23T10:31:39Z</time>
      </trkpt>
      <trkpt lat="43.20964" lon="1.5956">
        <ele>239</ele>
        <time>2012-09-23T10:31:41Z</time>
      </trkpt>
      <trkpt lat="43.20959" lon="1.59562">
        <ele>239</ele>
        <time>2012-09-23T10:31:43Z</time>
      </trkpt>
      <trkpt lat="43.20953" lon="1.59564">
        <ele>239</ele>
        <time>2012-09-23T10:31:45Z</time>
      </trkpt>
      <trkpt lat="43.20945" lon="1.59567">
        <ele>239</ele>
        <time>2012-09-23T10:31:48Z</time>
      </trkpt>
      <trkpt lat="43.20939" lon="1.59568">
        <ele>239</ele>
        <time>2012-09-23T10:31:50Z</time>
      </trkpt>
      <trkpt lat="43.20934" lon="1.5957">
        <ele>239</ele>
        <time>2012-09-23T10:31:52Z</time>
      </trkpt>
      <trkpt lat="43.20928" lon="1.59571">
        <ele>239</ele>
        <time>2012-09-23T10:31:54Z</time>
      </trkpt>
      <trkpt lat="43.20922" lon="1.59572">
        <ele>239</ele>
        <time>2012-09-23T10:31:56Z</time>
      </trkpt>
      <trkpt lat="43.20917" lon="1.59573">
        <ele>239</ele>
        <time>2012-09-23T10:31:58Z</time>
      </trkpt>
      <trkpt lat="43.20911" lon="1.59574">
        <ele>239</ele>
        <time>2012-09-23T10:32:00Z</time>
      </trkpt>
      <trkpt lat="43.20905" lon="1.59575">
        <ele>239</ele>
        <time>2012-09-23T10:32:02Z</time>
      </trkpt>
      <trkpt lat="43.209" lon="1.59576">
        <ele>239</ele>
        <time>2012-09-23T10:32:04Z</time>
      </trkpt>
      <trkpt lat="43.20893" lon="1.59577">
        <ele>239</ele>
        <time>2012-09-23T10:32:06Z</time>
      </trkpt>
      <trkpt lat="43.20888" lon="1.59578">
        <ele>239</ele>
        <time>2012-09-23T10:32:08Z</time>
      </trkpt>
      <trkpt lat="43.20882" lon="1.59579">
        <ele>239</ele>
        <time>2012-09-23T10:32:10Z</time>
      </trkpt>
      <trkpt lat="43.20876" lon="1.59579">
        <ele>239</ele>
        <time>2012-09-23T10:32:12Z</time>
      </trkpt>
      <trkpt lat="43.2087" lon="1.59581">
        <ele>239</ele>
        <time>2012-09-23T10:32:14Z</time>
      </trkpt>
      <trkpt lat="43.20865" lon="1.59582">
        <ele>239</ele>
        <time>2012-09-23T10:32:16Z</time>
      </trkpt>
      <trkpt lat="43.20859" lon="1.59583">
        <ele>239</ele>
        <time>2012-09-23T10:32:18Z</time>
      </trkpt>
      <trkpt lat="43.20853" lon="1.59584">
        <ele>239</ele>
        <time>2012-09-23T10:32:20Z</time>
      </trkpt>
      <trkpt lat="43.20848" lon="1.59584">
        <ele>239</ele>
        <time>2012-09-23T10:32:22Z</time>
      </trkpt>
      <trkpt lat="43.20842" lon="1.59585">
        <ele>239</ele>
        <time>2012-09-23T10:32:24Z</time>
      </trkpt>
      <trkpt lat="43.20833" lon="1.59586">
        <ele>239</ele>
        <time>2012-09-23T10:32:27Z</time>
      </trkpt>
      <trkpt lat="43.20828" lon="1.59586">
        <ele>239</ele>
        <time>2012-09-23T10:32:29Z</time>
      </trkpt>
      <trkpt lat="43.20822" lon="1.59584">
        <ele>239</ele>
        <time>2012-09-23T10:32:31Z</time>
      </trkpt>
      <trkpt lat="43.20816" lon="1.59582">
        <ele>239</ele>
        <time>2012-09-23T10:32:33Z</time>
      </trkpt>
      <trkpt lat="43.20811" lon="1.5958">
        <ele>239</ele>
        <time>2012-09-23T10:32:35Z</time>
      </trkpt>
      <trkpt lat="43.20804" lon="1.59576">
        <ele>239</ele>
        <time>2012-09-23T10:32:38Z</time>
      </trkpt>
      <trkpt lat="43.20799" lon="1.59572">
        <ele>239</ele>
        <time>2012-09-23T10:32:40Z</time>
      </trkpt>
      <trkpt lat="43.20795" lon="1.59568">
        <ele>239</ele>
        <time>2012-09-23T10:32:42Z</time>
      </trkpt>
      <trkpt lat="43.20791" lon="1.59564">
        <ele>239</ele>
        <time>2012-09-23T10:32:44Z</time>
      </trkpt>
      <trkpt lat="43.20786" lon="1.5956">
        <ele>239</ele>
        <time>2012-09-23T10:32:46Z</time>
      </trkpt>
      <trkpt lat="43.20781" lon="1.59555">
        <ele>239</ele>
        <time>2012-09-23T10:32:48Z</time>
      </trkpt>
      <trkpt lat="43.20776" lon="1.5955">
        <ele>240</ele>
        <time>2012-09-23T10:32:50Z</time>
      </trkpt>
      <trkpt lat="43.20772" lon="1.59546">
        <ele>240</ele>
        <time>2012-09-23T10:32:52Z</time>
      </trkpt>
      <trkpt lat="43.20768" lon="1.59541">
        <ele>241</ele>
        <time>2012-09-23T10:32:54Z</time>
      </trkpt>
      <trkpt lat="43.20764" lon="1.59537">
        <ele>242</ele>
        <time>2012-09-23T10:32:56Z</time>
      </trkpt>
      <trkpt lat="43.2076" lon="1.59533">
        <ele>242</ele>
        <time>2012-09-23T10:32:58Z</time>
      </trkpt>
      <trkpt lat="43.20755" lon="1.59529">
        <ele>243</ele>
        <time>2012-09-23T10:33:00Z</time>
      </trkpt>
      <trkpt lat="43.2075" lon="1.59525">
        <ele>244</ele>
        <time>2012-09-23T10:33:02Z</time>
      </trkpt>
      <trkpt lat="43.20744" lon="1.59522">
        <ele>244</ele>
        <time>2012-09-23T10:33:04Z</time>
      </trkpt>
      <trkpt lat="43.20736" lon="1.59521">
        <ele>245</ele>
        <time>2012-09-23T10:33:07Z</time>
      </trkpt>
      <trkpt lat="43.2073" lon="1.59522">
        <ele>245</ele>
        <time>2012-09-23T10:33:09Z</time>
      </trkpt>
      <trkpt lat="43.20725" lon="1.59526">
        <ele>245</ele>
        <time>2012-09-23T10:33:11Z</time>
      </trkpt>
      <trkpt lat="43.2072" lon="1.59532">
        <ele>245</ele>
        <time>2012-09-23T10:33:13Z</time>
      </trkpt>
      <trkpt lat="43.20717" lon="1.59538">
        <ele>245</ele>
        <time>2012-09-23T10:33:15Z</time>
      </trkpt>
      <trkpt lat="43.20715" lon="1.59545">
        <ele>245</ele>
        <time>2012-09-23T10:33:17Z</time>
      </trkpt>
      <trkpt lat="43.20713" lon="1.59553">
        <ele>245</ele>
        <time>2012-09-23T10:33:19Z</time>
      </trkpt>
      <trkpt lat="43.20709" lon="1.59563">
        <ele>245</ele>
        <time>2012-09-23T10:33:22Z</time>
      </trkpt>
      <trkpt lat="43.20707" lon="1.59569">
        <ele>245</ele>
        <time>2012-09-23T10:33:24Z</time>
      </trkpt>
      <trkpt lat="43.20705" lon="1.59576">
        <ele>245</ele>
        <time>2012-09-23T10:33:26Z</time>
      </trkpt>
      <trkpt lat="43.20702" lon="1.59583">
        <ele>245</ele>
        <time>2012-09-23T10:33:28Z</time>
      </trkpt>
      <trkpt lat="43.20699" lon="1.5959">
        <ele>245</ele>
        <time>2012-09-23T10:33:30Z</time>
      </trkpt>
      <trkpt lat="43.20697" lon="1.59595">
        <ele>245</ele>
        <time>2012-09-23T10:33:32Z</time>
      </trkpt>
      <trkpt lat="43.20694" lon="1.59602">
        <ele>245</ele>
        <time>2012-09-23T10:33:34Z</time>
      </trkpt>
      <trkpt lat="43.20692" lon="1.59607">
        <ele>245</ele>
        <time>2012-09-23T10:33:36Z</time>
      </trkpt>
      <trkpt lat="43.20686" lon="1.59616">
        <ele>245</ele>
        <time>2012-09-23T10:33:39Z</time>
      </trkpt>
      <trkpt lat="43.20683" lon="1.59622">
        <ele>245</ele>
        <time>2012-09-23T10:33:41Z</time>
      </trkpt>
      <trkpt lat="43.20679" lon="1.59627">
        <ele>245</ele>
        <time>2012-09-23T10:33:43Z</time>
      </trkpt>
      <trkpt lat="43.20675" lon="1.59631">
        <ele>245</ele>
        <time>2012-09-23T10:33:45Z</time>
      </trkpt>
      <trkpt lat="43.20671" lon="1.59635">
        <ele>245</ele>
        <time>2012-09-23T10:33:47Z</time>
      </trkpt>
      <trkpt lat="43.20668" lon="1.59639">
        <ele>245</ele>
        <time>2012-09-23T10:33:49Z</time>
      </trkpt>
      <trkpt lat="43.20663" lon="1.59643">
        <ele>245</ele>
        <time>2012-09-23T10:33:51Z</time>
      </trkpt>
      <trkpt lat="43.2066" lon="1.59648">
        <ele>245</ele>
        <time>2012-09-23T10:33:53Z</time>
      </trkpt>
      <trkpt lat="43.20655" lon="1.59652">
        <ele>245</ele>
        <time>2012-09-23T10:33:55Z</time>
      </trkpt>
      <trkpt lat="43.20651" lon="1.59657">
        <ele>245</ele>
        <time>2012-09-23T10:33:57Z</time>
      </trkpt>
      <trkpt lat="43.20645" lon="1.59664">
        <ele>245</ele>
        <time>2012-09-23T10:34:00Z</time>
      </trkpt>
      <trkpt lat="43.2064" lon="1.59672">
        <ele>245</ele>
        <time>2012-09-23T10:34:03Z</time>
      </trkpt>
      <trkpt lat="43.20636" lon="1.59678">
        <ele>245</ele>
        <time>2012-09-23T10:34:05Z</time>
      </trkpt>
      <trkpt lat="43.20632" lon="1.59684">
        <ele>245</ele>
        <time>2012-09-23T10:34:07Z</time>
      </trkpt>
      <trkpt lat="43.20628" lon="1.5969">
        <ele>246</ele>
        <time>2012-09-23T10:34:09Z</time>
      </trkpt>
      <trkpt lat="43.20624" lon="1.59696">
        <ele>246</ele>
        <time>2012-09-23T10:34:11Z</time>
      </trkpt>
      <trkpt lat="43.2062" lon="1.59703">
        <ele>246</ele>
        <time>2012-09-23T10:34:13Z</time>
      </trkpt>
      <trkpt lat="43.20617" lon="1.5971">
        <ele>246</ele>
        <time>2012-09-23T10:34:15Z</time>
      </trkpt>
      <trkpt lat="43.20612" lon="1.59716">
        <ele>246</ele>
        <time>2012-09-23T10:34:17Z</time>
      </trkpt>
      <trkpt lat="43.20606" lon="1.59726">
        <ele>246</ele>
        <time>2012-09-23T10:34:20Z</time>
      </trkpt>
      <trkpt lat="43.20602" lon="1.59733">
        <ele>246</ele>
        <time>2012-09-23T10:34:22Z</time>
      </trkpt>
      <trkpt lat="43.20598" lon="1.5974">
        <ele>246</ele>
        <time>2012-09-23T10:34:24Z</time>
      </trkpt>
      <trkpt lat="43.20594" lon="1.59747">
        <ele>246</ele>
        <time>2012-09-23T10:34:26Z</time>
      </trkpt>
      <trkpt lat="43.20589" lon="1.59753">
        <ele>246</ele>
        <time>2012-09-23T10:34:28Z</time>
      </trkpt>
      <trkpt lat="43.20585" lon="1.59759">
        <ele>246</ele>
        <time>2012-09-23T10:34:30Z</time>
      </trkpt>
      <trkpt lat="43.20581" lon="1.59766">
        <ele>246</ele>
        <time>2012-09-23T10:34:32Z</time>
      </trkpt>
      <trkpt lat="43.20578" lon="1.59773">
        <ele>246</ele>
        <time>2012-09-23T10:34:34Z</time>
      </trkpt>
      <trkpt lat="43.20574" lon="1.59778">
        <ele>246</ele>
        <time>2012-09-23T10:34:36Z</time>
      </trkpt>
      <trkpt lat="43.2057" lon="1.59783">
        <ele>246</ele>
        <time>2012-09-23T10:34:38Z</time>
      </trkpt>
      <trkpt lat="43.20566" lon="1.5979">
        <ele>246</ele>
        <time>2012-09-23T10:34:40Z</time>
      </trkpt>
      <trkpt lat="43.20562" lon="1.59795">
        <ele>246</ele>
        <time>2012-09-23T10:34:42Z</time>
      </trkpt>
      <trkpt lat="43.20559" lon="1.59801">
        <ele>246</ele>
        <time>2012-09-23T10:34:44Z</time>
      </trkpt>
      <trkpt lat="43.20555" lon="1.59807">
        <ele>246</ele>
        <time>2012-09-23T10:34:46Z</time>
      </trkpt>
      <trkpt lat="43.20551" lon="1.59812">
        <ele>246</ele>
        <time>2012-09-23T10:34:48Z</time>
      </trkpt>
      <trkpt lat="43.20547" lon="1.59818">
        <ele>246</ele>
        <time>2012-09-23T10:34:50Z</time>
      </trkpt>
      <trkpt lat="43.20543" lon="1.59824">
        <ele>246</ele>
        <time>2012-09-23T10:34:52Z</time>
      </trkpt>
      <trkpt lat="43.20539" lon="1.5983">
        <ele>246</ele>
        <time>2012-09-23T10:34:54Z</time>
      </trkpt>
      <trkpt lat="43.20536" lon="1.59836">
        <ele>246</ele>
        <time>2012-09-23T10:34:56Z</time>
      </trkpt>
      <trkpt lat="43.20531" lon="1.59842">
        <ele>246</ele>
        <time>2012-09-23T10:34:58Z</time>
      </trkpt>
      <trkpt lat="43.20527" lon="1.59847">
        <ele>246</ele>
        <time>2012-09-23T10:35:00Z</time>
      </trkpt>
      <trkpt lat="43.20523" lon="1.59854">
        <ele>246</ele>
        <time>2012-09-23T10:35:02Z</time>
      </trkpt>
      <trkpt lat="43.2052" lon="1.59859">
        <ele>246</ele>
        <time>2012-09-23T10:35:04Z</time>
      </trkpt>
      <trkpt lat="43.20515" lon="1.59864">
        <ele>246</ele>
        <time>2012-09-23T10:35:06Z</time>
      </trkpt>
      <trkpt lat="43.20511" lon="1.59869">
        <ele>246</ele>
        <time>2012-09-23T10:35:08Z</time>
      </trkpt>
      <trkpt lat="43.20507" lon="1.59874">
        <ele>246</ele>
        <time>2012-09-23T10:35:10Z</time>
      </trkpt>
      <trkpt lat="43.20502" lon="1.5988">
        <ele>246</ele>
        <time>2012-09-23T10:35:12Z</time>
      </trkpt>
      <trkpt lat="43.20499" lon="1.59885">
        <ele>246</ele>
        <time>2012-09-23T10:35:14Z</time>
      </trkpt>
      <trkpt lat="43.20494" lon="1.59889">
        <ele>246</ele>
        <time>2012-09-23T10:35:16Z</time>
      </trkpt>
      <trkpt lat="43.2049" lon="1.59895">
        <ele>246</ele>
        <time>2012-09-23T10:35:18Z</time>
      </trkpt>
      <trkpt lat="43.20486" lon="1.59901">
        <ele>246</ele>
        <time>2012-09-23T10:35:20Z</time>
      </trkpt>
      <trkpt lat="43.20478" lon="1.59909">
        <ele>246</ele>
        <time>2012-09-23T10:35:23Z</time>
      </trkpt>
      <trkpt lat="43.20474" lon="1.59914">
        <ele>246</ele>
        <time>2012-09-23T10:35:25Z</time>
      </trkpt>
      <trkpt lat="43.2047" lon="1.5992">
        <ele>246</ele>
        <time>2012-09-23T10:35:27Z</time>
      </trkpt>
      <trkpt lat="43.20463" lon="1.59926">
        <ele>246</ele>
        <time>2012-09-23T10:35:30Z</time>
      </trkpt>
      <trkpt lat="43.20459" lon="1.59931">
        <ele>246</ele>
        <time>2012-09-23T10:35:32Z</time>
      </trkpt>
      <trkpt lat="43.20455" lon="1.59936">
        <ele>246</ele>
        <time>2012-09-23T10:35:34Z</time>
      </trkpt>
      <trkpt lat="43.2045" lon="1.59941">
        <ele>246</ele>
        <time>2012-09-23T10:35:36Z</time>
      </trkpt>
      <trkpt lat="43.20446" lon="1.59945">
        <ele>246</ele>
        <time>2012-09-23T10:35:38Z</time>
      </trkpt>
      <trkpt lat="43.20441" lon="1.5995">
        <ele>246</ele>
        <time>2012-09-23T10:35:40Z</time>
      </trkpt>
      <trkpt lat="43.20434" lon="1.59957">
        <ele>246</ele>
        <time>2012-09-23T10:35:43Z</time>
      </trkpt>
      <trkpt lat="43.20429" lon="1.59962">
        <ele>246</ele>
        <time>2012-09-23T10:35:45Z</time>
      </trkpt>
      <trkpt lat="43.20425" lon="1.59967">
        <ele>246</ele>
        <time>2012-09-23T10:35:47Z</time>
      </trkpt>
      <trkpt lat="43.20418" lon="1.59975">
        <ele>246</ele>
        <time>2012-09-23T10:35:50Z</time>
      </trkpt>
      <trkpt lat="43.20413" lon="1.59979">
        <ele>246</ele>
        <time>2012-09-23T10:35:52Z</time>
      </trkpt>
      <trkpt lat="43.20409" lon="1.59984">
        <ele>246</ele>
        <time>2012-09-23T10:35:54Z</time>
      </trkpt>
      <trkpt lat="43.20405" lon="1.59988">
        <ele>246</ele>
        <time>2012-09-23T10:35:56Z</time>
      </trkpt>
      <trkpt lat="43.20401" lon="1.59993">
        <ele>246</ele>
        <time>2012-09-23T10:35:58Z</time>
      </trkpt>
      <trkpt lat="43.20396" lon="1.59998">
        <ele>246</ele>
        <time>2012-09-23T10:36:00Z</time>
      </trkpt>
      <trkpt lat="43.20391" lon="1.60002">
        <ele>246</ele>
        <time>2012-09-23T10:36:02Z</time>
      </trkpt>
      <trkpt lat="43.20387" lon="1.60006">
        <ele>246</ele>
        <time>2012-09-23T10:36:04Z</time>
      </trkpt>
      <trkpt lat="43.20382" lon="1.60011">
        <ele>246</ele>
        <time>2012-09-23T10:36:06Z</time>
      </trkpt>
      <trkpt lat="43.20377" lon="1.60015">
        <ele>246</ele>
        <time>2012-09-23T10:36:08Z</time>
      </trkpt>
      <trkpt lat="43.20372" lon="1.6002">
        <ele>246</ele>
        <time>2012-09-23T10:36:10Z</time>
      </trkpt>
      <trkpt lat="43.20367" lon="1.60025">
        <ele>246</ele>
        <time>2012-09-23T10:36:12Z</time>
      </trkpt>
      <trkpt lat="43.20362" lon="1.60029">
        <ele>246</ele>
        <time>2012-09-23T10:36:14Z</time>
      </trkpt>
      <trkpt lat="43.20358" lon="1.60034">
        <ele>246</ele>
        <time>2012-09-23T10:36:16Z</time>
      </trkpt>
      <trkpt lat="43.20353" lon="1.60039">
        <ele>246</ele>
        <time>2012-09-23T10:36:18Z</time>
      </trkpt>
      <trkpt lat="43.20347" lon="1.60044">
        <ele>246</ele>
        <time>2012-09-23T10:36:20Z</time>
      </trkpt>
      <trkpt lat="43.20342" lon="1.60049">
        <ele>246</ele>
        <time>2012-09-23T10:36:22Z</time>
      </trkpt>
      <trkpt lat="43.20337" lon="1.60054">
        <ele>246</ele>
        <time>2012-09-23T10:36:24Z</time>
      </trkpt>
      <trkpt lat="43.20332" lon="1.60058">
        <ele>246</ele>
        <time>2012-09-23T10:36:26Z</time>
      </trkpt>
      <trkpt lat="43.20326" lon="1.60063">
        <ele>246</ele>
        <time>2012-09-23T10:36:28Z</time>
      </trkpt>
      <trkpt lat="43.20321" lon="1.60068">
        <ele>246</ele>
        <time>2012-09-23T10:36:30Z</time>
      </trkpt>
      <trkpt lat="43.20316" lon="1.60072">
        <ele>246</ele>
        <time>2012-09-23T10:36:32Z</time>
      </trkpt>
      <trkpt lat="43.20311" lon="1.60075">
        <ele>246</ele>
        <time>2012-09-23T10:36:34Z</time>
      </trkpt>
      <trkpt lat="43.20305" lon="1.60079">
        <ele>246</ele>
        <time>2012-09-23T10:36:36Z</time>
      </trkpt>
      <trkpt lat="43.203" lon="1.60081">
        <ele>246</ele>
        <time>2012-09-23T10:36:38Z</time>
      </trkpt>
      <trkpt lat="43.20295" lon="1.60083">
        <ele>246</ele>
        <time>2012-09-23T10:36:40Z</time>
      </trkpt>
      <trkpt lat="43.2029" lon="1.60085">
        <ele>246</ele>
        <time>2012-09-23T10:36:42Z</time>
      </trkpt>
      <trkpt lat="43.20284" lon="1.60089">
        <ele>246</ele>
        <time>2012-09-23T10:36:44Z</time>
      </trkpt>
      <trkpt lat="43.20279" lon="1.60091">
        <ele>246</ele>
        <time>2012-09-23T10:36:46Z</time>
      </trkpt>
      <trkpt lat="43.20274" lon="1.60093">
        <ele>246</ele>
        <time>2012-09-23T10:36:48Z</time>
      </trkpt>
      <trkpt lat="43.20269" lon="1.60097">
        <ele>246</ele>
        <time>2012-09-23T10:36:50Z</time>
      </trkpt>
      <trkpt lat="43.20263" lon="1.60099">
        <ele>246</ele>
        <time>2012-09-23T10:36:52Z</time>
      </trkpt>
      <trkpt lat="43.20258" lon="1.60103">
        <ele>246</ele>
        <time>2012-09-23T10:36:54Z</time>
      </trkpt>
      <trkpt lat="43.20249" lon="1.60109">
        <ele>246</ele>
        <time>2012-09-23T10:36:57Z</time>
      </trkpt>
      <trkpt lat="43.20243" lon="1.60111">
        <ele>246</ele>
        <time>2012-09-23T10:36:59Z</time>
      </trkpt>
      <trkpt lat="43.20237" lon="1.60114">
        <ele>246</ele>
        <time>2012-09-23T10:37:01Z</time>
      </trkpt>
      <trkpt lat="43.20229" lon="1.60117">
        <ele>246</ele>
        <time>2012-09-23T10:37:04Z</time>
      </trkpt>
      <trkpt lat="43.2022" lon="1.60118">
        <ele>246</ele>
        <time>2012-09-23T10:37:07Z</time>
      </trkpt>
      <trkpt lat="43.20215" lon="1.60119">
        <ele>246</ele>
        <time>2012-09-23T10:37:09Z</time>
      </trkpt>
      <trkpt lat="43.20209" lon="1.60119">
        <ele>246</ele>
        <time>2012-09-23T10:37:11Z</time>
      </trkpt>
      <trkpt lat="43.20203" lon="1.6012">
        <ele>246</ele>
        <time>2012-09-23T10:37:13Z</time>
      </trkpt>
      <trkpt lat="43.20198" lon="1.60119">
        <ele>246</ele>
        <time>2012-09-23T10:37:15Z</time>
      </trkpt>
      <trkpt lat="43.2019" lon="1.60118">
        <ele>246</ele>
        <time>2012-09-23T10:37:18Z</time>
      </trkpt>
      <trkpt lat="43.20184" lon="1.60116">
        <ele>246</ele>
        <time>2012-09-23T10:37:20Z</time>
      </trkpt>
      <trkpt lat="43.20179" lon="1.60114">
        <ele>246</ele>
        <time>2012-09-23T10:37:22Z</time>
      </trkpt>
      <trkpt lat="43.20174" lon="1.60112">
        <ele>246</ele>
        <time>2012-09-23T10:37:24Z</time>
      </trkpt>
      <trkpt lat="43.20168" lon="1.60112">
        <ele>246</ele>
        <time>2012-09-23T10:37:26Z</time>
      </trkpt>
      <trkpt lat="43.20163" lon="1.60111">
        <ele>246</ele>
        <time>2012-09-23T10:37:28Z</time>
      </trkpt>
      <trkpt lat="43.20157" lon="1.60109">
        <ele>246</ele>
        <time>2012-09-23T10:37:30Z</time>
      </trkpt>
      <trkpt lat="43.20152" lon="1.60108">
        <ele>246</ele>
        <time>2012-09-23T10:37:32Z</time>
      </trkpt>
      <trkpt lat="43.20144" lon="1.60106">
        <ele>246</ele>
        <time>2012-09-23T10:37:35Z</time>
      </trkpt>
      <trkpt lat="43.20138" lon="1.60105">
        <ele>246</ele>
        <time>2012-09-23T10:37:37Z</time>
      </trkpt>
      <trkpt lat="43.20132" lon="1.60105">
        <ele>246</ele>
        <time>2012-09-23T10:37:39Z</time>
      </trkpt>
      <trkpt lat="43.20124" lon="1.60103">
        <ele>246</ele>
        <time>2012-09-23T10:37:42Z</time>
      </trkpt>
      <trkpt lat="43.20118" lon="1.60102">
        <ele>246</ele>
        <time>2012-09-23T10:37:44Z</time>
      </trkpt>
      <trkpt lat="43.20112" lon="1.60101">
        <ele>246</ele>
        <time>2012-09-23T10:37:46Z</time>
      </trkpt>
      <trkpt lat="43.20107" lon="1.601">
        <ele>246</ele>
        <time>2012-09-23T10:37:48Z</time>
      </trkpt>
      <trkpt lat="43.20101" lon="1.60099">
        <ele>246</ele>
        <time>2012-09-23T10:37:50Z</time>
      </trkpt>
      <trkpt lat="43.20096" lon="1.60097">
        <ele>246</ele>
        <time>2012-09-23T10:37:52Z</time>
      </trkpt>
      <trkpt lat="43.2009" lon="1.60096">
        <ele>246</ele>
        <time>2012-09-23T10:37:54Z</time>
      </trkpt>
      <trkpt lat="43.20085" lon="1.60095">
        <ele>246</ele>
        <time>2012-09-23T10:37:56Z</time>
      </trkpt>
      <trkpt lat="43.2008" lon="1.60094">
        <ele>246</ele>
        <time>2012-09-23T10:37:58Z</time>
      </trkpt>
      <trkpt lat="43.20074" lon="1.60093">
        <ele>246</ele>
        <time>2012-09-23T10:38:00Z</time>
      </trkpt>
      <trkpt lat="43.20069" lon="1.60092">
        <ele>246</ele>
        <time>2012-09-23T10:38:02Z</time>
      </trkpt>
      <trkpt lat="43.20063" lon="1.60092">
        <ele>246</ele>
        <time>2012-09-23T10:38:04Z</time>
      </trkpt>
      <trkpt lat="43.20058" lon="1.60092">
        <ele>246</ele>
        <time>2012-09-23T10:38:06Z</time>
      </trkpt>
      <trkpt lat="43.20052" lon="1.60092">
        <ele>246</ele>
        <time>2012-09-23T10:38:08Z</time>
      </trkpt>
      <trkpt lat="43.20046" lon="1.60092">
        <ele>246</ele>
        <time>2012-09-23T10:38:10Z</time>
      </trkpt>
      <trkpt lat="43.20041" lon="1.60093">
        <ele>246</ele>
        <time>2012-09-23T10:38:12Z</time>
      </trkpt>
      <trkpt lat="43.20035" lon="1.60093">
        <ele>246</ele>
        <time>2012-09-23T10:38:14Z</time>
      </trkpt>
      <trkpt lat="43.20029" lon="1.60093">
        <ele>246</ele>
        <time>2012-09-23T10:38:16Z</time>
      </trkpt>
      <trkpt lat="43.20024" lon="1.60094">
        <ele>246</ele>
        <time>2012-09-23T10:38:18Z</time>
      </trkpt>
      <trkpt lat="43.20018" lon="1.60094">
        <ele>246</ele>
        <time>2012-09-23T10:38:20Z</time>
      </trkpt>
      <trkpt lat="43.20013" lon="1.60095">
        <ele>247</ele>
        <time>2012-09-23T10:38:22Z</time>
      </trkpt>
      <trkpt lat="43.20006" lon="1.60094">
        <ele>247</ele>
        <time>2012-09-23T10:38:24Z</time>
      </trkpt>
      <trkpt lat="43.2" lon="1.60094">
        <ele>247</ele>
        <time>2012-09-23T10:38:26Z</time>
      </trkpt>
      <trkpt lat="43.19995" lon="1.60094">
        <ele>248</ele>
        <time>2012-09-23T10:38:28Z</time>
      </trkpt>
      <trkpt lat="43.19989" lon="1.60094">
        <ele>248</ele>
        <time>2012-09-23T10:38:30Z</time>
      </trkpt>
      <trkpt lat="43.19983" lon="1.60095">
        <ele>248</ele>
        <time>2012-09-23T10:38:32Z</time>
      </trkpt>
      <trkpt lat="43.19978" lon="1.60095">
        <ele>248</ele>
        <time>2012-09-23T10:38:34Z</time>
      </trkpt>
      <trkpt lat="43.19972" lon="1.60096">
        <ele>248</ele>
        <time>2012-09-23T10:38:36Z</time>
      </trkpt>
      <trkpt lat="43.19967" lon="1.60097">
        <ele>248</ele>
        <time>2012-09-23T10:38:38Z</time>
      </trkpt>
      <trkpt lat="43.19961" lon="1.60098">
        <ele>248</ele>
        <time>2012-09-23T10:38:40Z</time>
      </trkpt>
      <trkpt lat="43.19955" lon="1.60098">
        <ele>248</ele>
        <time>2012-09-23T10:38:42Z</time>
      </trkpt>
      <trkpt lat="43.1995" lon="1.60099">
        <ele>249</ele>
        <time>2012-09-23T10:38:44Z</time>
      </trkpt>
      <trkpt lat="43.19944" lon="1.60098">
        <ele>249</ele>
        <time>2012-09-23T10:38:46Z</time>
      </trkpt>
      <trkpt lat="43.19938" lon="1.60098">
        <ele>249</ele>
        <time>2012-09-23T10:38:48Z</time>
      </trkpt>
      <trkpt lat="43.19932" lon="1.60097">
        <ele>249</ele>
        <time>2012-09-23T10:38:50Z</time>
      </trkpt>
      <trkpt lat="43.19927" lon="1.60098">
        <ele>249</ele>
        <time>2012-09-23T10:38:52Z</time>
      </trkpt>
      <trkpt lat="43.19921" lon="1.60098">
        <ele>249</ele>
        <time>2012-09-23T10:38:54Z</time>
      </trkpt>
      <trkpt lat="43.19915" lon="1.60097">
        <ele>249</ele>
        <time>2012-09-23T10:38:56Z</time>
      </trkpt>
      <trkpt lat="43.19909" lon="1.60096">
        <ele>249</ele>
        <time>2012-09-23T10:38:58Z</time>
      </trkpt>
      <trkpt lat="43.199" lon="1.60095">
        <ele>249</ele>
        <time>2012-09-23T10:39:01Z</time>
      </trkpt>
      <trkpt lat="43.19895" lon="1.60093">
        <ele>249</ele>
        <time>2012-09-23T10:39:03Z</time>
      </trkpt>
      <trkpt lat="43.1989" lon="1.60091">
        <ele>249</ele>
        <time>2012-09-23T10:39:05Z</time>
      </trkpt>
      <trkpt lat="43.19884" lon="1.60091">
        <ele>249</ele>
        <time>2012-09-23T10:39:07Z</time>
      </trkpt>
      <trkpt lat="43.1988" lon="1.60089">
        <ele>249</ele>
        <time>2012-09-23T10:39:09Z</time>
      </trkpt>
      <trkpt lat="43.19875" lon="1.60086">
        <ele>249</ele>
        <time>2012-09-23T10:39:11Z</time>
      </trkpt>
      <trkpt lat="43.1987" lon="1.60083">
        <ele>248</ele>
        <time>2012-09-23T10:39:13Z</time>
      </trkpt>
      <trkpt lat="43.19865" lon="1.60079">
        <ele>248</ele>
        <time>2012-09-23T10:39:15Z</time>
      </trkpt>
      <trkpt lat="43.19858" lon="1.60073">
        <ele>246</ele>
        <time>2012-09-23T10:39:18Z</time>
      </trkpt>
      <trkpt lat="43.19853" lon="1.60071">
        <ele>245</ele>
        <time>2012-09-23T10:39:20Z</time>
      </trkpt>
      <trkpt lat="43.19849" lon="1.60067">
        <ele>244</ele>
        <time>2012-09-23T10:39:22Z</time>
      </trkpt>
      <trkpt lat="43.19844" lon="1.60064">
        <ele>244</ele>
        <time>2012-09-23T10:39:24Z</time>
      </trkpt>
      <trkpt lat="43.1984" lon="1.60061">
        <ele>244</ele>
        <time>2012-09-23T10:39:26Z</time>
      </trkpt>
      <trkpt lat="43.19835" lon="1.60057">
        <ele>243</ele>
        <time>2012-09-23T10:39:28Z</time>
      </trkpt>
      <trkpt lat="43.1983" lon="1.60053">
        <ele>243</ele>
        <time>2012-09-23T10:39:30Z</time>
      </trkpt>
      <trkpt lat="43.19825" lon="1.60049">
        <ele>242</ele>
        <time>2012-09-23T10:39:32Z</time>
      </trkpt>
      <trkpt lat="43.19817" lon="1.60046">
        <ele>242</ele>
        <time>2012-09-23T10:39:35Z</time>
      </trkpt>
      <trkpt lat="43.19812" lon="1.60043">
        <ele>241</ele>
        <time>2012-09-23T10:39:37Z</time>
      </trkpt>
      <trkpt lat="43.19807" lon="1.6004">
        <ele>241</ele>
        <time>2012-09-23T10:39:39Z</time>
      </trkpt>
      <trkpt lat="43.19801" lon="1.60039">
        <ele>241</ele>
        <time>2012-09-23T10:39:41Z</time>
      </trkpt>
      <trkpt lat="43.19797" lon="1.60037">
        <ele>240</ele>
        <time>2012-09-23T10:39:43Z</time>
      </trkpt>
      <trkpt lat="43.19791" lon="1.60034">
        <ele>240</ele>
        <time>2012-09-23T10:39:45Z</time>
      </trkpt>
      <trkpt lat="43.19785" lon="1.60032">
        <ele>239</ele>
        <time>2012-09-23T10:39:47Z</time>
      </trkpt>
      <trkpt lat="43.19777" lon="1.60028">
        <ele>239</ele>
        <time>2012-09-23T10:39:50Z</time>
      </trkpt>
      <trkpt lat="43.19771" lon="1.60024">
        <ele>239</ele>
        <time>2012-09-23T10:39:52Z</time>
      </trkpt>
      <trkpt lat="43.19765" lon="1.60022">
        <ele>239</ele>
        <time>2012-09-23T10:39:54Z</time>
      </trkpt>
      <trkpt lat="43.19757" lon="1.6002">
        <ele>239</ele>
        <time>2012-09-23T10:39:57Z</time>
      </trkpt>
      <trkpt lat="43.19751" lon="1.60017">
        <ele>239</ele>
        <time>2012-09-23T10:39:59Z</time>
      </trkpt>
      <trkpt lat="43.19746" lon="1.60015">
        <ele>239</ele>
        <time>2012-09-23T10:40:01Z</time>
      </trkpt>
      <trkpt lat="43.19737" lon="1.60012">
        <ele>239</ele>
        <time>2012-09-23T10:40:04Z</time>
      </trkpt>
      <trkpt lat="43.19732" lon="1.6001">
        <ele>239</ele>
        <time>2012-09-23T10:40:06Z</time>
      </trkpt>
      <trkpt lat="43.19727" lon="1.60007">
        <ele>239</ele>
        <time>2012-09-23T10:40:08Z</time>
      </trkpt>
      <trkpt lat="43.19718" lon="1.60004">
        <ele>239</ele>
        <time>2012-09-23T10:40:11Z</time>
      </trkpt>
      <trkpt lat="43.19713" lon="1.60002">
        <ele>239</ele>
        <time>2012-09-23T10:40:13Z</time>
      </trkpt>
      <trkpt lat="43.19706" lon="1.59999">
        <ele>239</ele>
        <time>2012-09-23T10:40:15Z</time>
      </trkpt>
      <trkpt lat="43.197" lon="1.59995">
        <ele>239</ele>
        <time>2012-09-23T10:40:17Z</time>
      </trkpt>
      <trkpt lat="43.19695" lon="1.59993">
        <ele>240</ele>
        <time>2012-09-23T10:40:19Z</time>
      </trkpt>
      <trkpt lat="43.1969" lon="1.59989">
        <ele>240</ele>
        <time>2012-09-23T10:40:21Z</time>
      </trkpt>
      <trkpt lat="43.19685" lon="1.59987">
        <ele>241</ele>
        <time>2012-09-23T10:40:23Z</time>
      </trkpt>
      <trkpt lat="43.1968" lon="1.59985">
        <ele>241</ele>
        <time>2012-09-23T10:40:25Z</time>
      </trkpt>
      <trkpt lat="43.19675" lon="1.59983">
        <ele>242</ele>
        <time>2012-09-23T10:40:27Z</time>
      </trkpt>
      <trkpt lat="43.1967" lon="1.5998">
        <ele>242</ele>
        <time>2012-09-23T10:40:29Z</time>
      </trkpt>
      <trkpt lat="43.19665" lon="1.59977">
        <ele>242</ele>
        <time>2012-09-23T10:40:31Z</time>
      </trkpt>
      <trkpt lat="43.1966" lon="1.59974">
        <ele>242</ele>
        <time>2012-09-23T10:40:33Z</time>
      </trkpt>
      <trkpt lat="43.19656" lon="1.59973">
        <ele>242</ele>
        <time>2012-09-23T10:40:35Z</time>
      </trkpt>
      <trkpt lat="43.19651" lon="1.5997">
        <ele>242</ele>
        <time>2012-09-23T10:40:37Z</time>
      </trkpt>
      <trkpt lat="43.19646" lon="1.59967">
        <ele>242</ele>
        <time>2012-09-23T10:40:39Z</time>
      </trkpt>
      <trkpt lat="43.19641" lon="1.59965">
        <ele>242</ele>
        <time>2012-09-23T10:40:41Z</time>
      </trkpt>
      <trkpt lat="43.19632" lon="1.59962">
        <ele>242</ele>
        <time>2012-09-23T10:40:44Z</time>
      </trkpt>
      <trkpt lat="43.19627" lon="1.59959">
        <ele>243</ele>
        <time>2012-09-23T10:40:46Z</time>
      </trkpt>
      <trkpt lat="43.19621" lon="1.59957">
        <ele>243</ele>
        <time>2012-09-23T10:40:48Z</time>
      </trkpt>
      <trkpt lat="43.19616" lon="1.59954">
        <ele>243</ele>
        <time>2012-09-23T10:40:50Z</time>
      </trkpt>
      <trkpt lat="43.19609" lon="1.59952">
        <ele>244</ele>
        <time>2012-09-23T10:40:52Z</time>
      </trkpt>
      <trkpt lat="43.19604" lon="1.5995">
        <ele>244</ele>
        <time>2012-09-23T10:40:54Z</time>
      </trkpt>
      <trkpt lat="43.19595" lon="1.59947">
        <ele>245</ele>
        <time>2012-09-23T10:40:57Z</time>
      </trkpt>
      <trkpt lat="43.19589" lon="1.59945">
        <ele>245</ele>
        <time>2012-09-23T10:40:59Z</time>
      </trkpt>
      <trkpt lat="43.19583" lon="1.59944">
        <ele>246</ele>
        <time>2012-09-23T10:41:01Z</time>
      </trkpt>
      <trkpt lat="43.19578" lon="1.59943">
        <ele>247</ele>
        <time>2012-09-23T10:41:03Z</time>
      </trkpt>
      <trkpt lat="43.19572" lon="1.59941">
        <ele>247</ele>
        <time>2012-09-23T10:41:05Z</time>
      </trkpt>
      <trkpt lat="43.19566" lon="1.5994">
        <ele>247</ele>
        <time>2012-09-23T10:41:07Z</time>
      </trkpt>
      <trkpt lat="43.19561" lon="1.59938">
        <ele>247</ele>
        <time>2012-09-23T10:41:09Z</time>
      </trkpt>
      <trkpt lat="43.19556" lon="1.59935">
        <ele>247</ele>
        <time>2012-09-23T10:41:11Z</time>
      </trkpt>
      <trkpt lat="43.1955" lon="1.59934">
        <ele>247</ele>
        <time>2012-09-23T10:41:13Z</time>
      </trkpt>
      <trkpt lat="43.19545" lon="1.59932">
        <ele>247</ele>
        <time>2012-09-23T10:41:15Z</time>
      </trkpt>
      <trkpt lat="43.1954" lon="1.5993">
        <ele>247</ele>
        <time>2012-09-23T10:41:17Z</time>
      </trkpt>
      <trkpt lat="43.19535" lon="1.59927">
        <ele>247</ele>
        <time>2012-09-23T10:41:19Z</time>
      </trkpt>
      <trkpt lat="43.19531" lon="1.59923">
        <ele>247</ele>
        <time>2012-09-23T10:41:21Z</time>
      </trkpt>
      <trkpt lat="43.19526" lon="1.5992">
        <ele>247</ele>
        <time>2012-09-23T10:41:23Z</time>
      </trkpt>
      <trkpt lat="43.19522" lon="1.59915">
        <ele>247</ele>
        <time>2012-09-23T10:41:25Z</time>
      </trkpt>
      <trkpt lat="43.19518" lon="1.59909">
        <ele>247</ele>
        <time>2012-09-23T10:41:27Z</time>
      </trkpt>
      <trkpt lat="43.19514" lon="1.599">
        <ele>247</ele>
        <time>2012-09-23T10:41:30Z</time>
      </trkpt>
      <trkpt lat="43.19512" lon="1.59891">
        <ele>247</ele>
        <time>2012-09-23T10:41:32Z</time>
      </trkpt>
      <trkpt lat="43.19508" lon="1.59881">
        <ele>247</ele>
        <time>2012-09-23T10:41:35Z</time>
      </trkpt>
      <trkpt lat="43.19505" lon="1.59875">
        <ele>247</ele>
        <time>2012-09-23T10:41:37Z</time>
      </trkpt>
      <trkpt lat="43.19501" lon="1.5987">
        <ele>247</ele>
        <time>2012-09-23T10:41:39Z</time>
      </trkpt>
      <trkpt lat="43.19496" lon="1.59864">
        <ele>247</ele>
        <time>2012-09-23T10:41:41Z</time>
      </trkpt>
      <trkpt lat="43.1949" lon="1.59861">
        <ele>248</ele>
        <time>2012-09-23T10:41:43Z</time>
      </trkpt>
      <trkpt lat="43.19484" lon="1.59857">
        <ele>250</ele>
        <time>2012-09-23T10:41:45Z</time>
      </trkpt>
      <trkpt lat="43.1948" lon="1.59851">
        <ele>250</ele>
        <time>2012-09-23T10:41:47Z</time>
      </trkpt>
      <trkpt lat="43.19476" lon="1.59844">
        <ele>250</ele>
        <time>2012-09-23T10:41:49Z</time>
      </trkpt>
      <trkpt lat="43.19471" lon="1.59837">
        <ele>250</ele>
        <time>2012-09-23T10:41:51Z</time>
      </trkpt>
      <trkpt lat="43.19467" lon="1.59829">
        <ele>250</ele>
        <time>2012-09-23T10:41:53Z</time>
      </trkpt>
      <trkpt lat="43.19464" lon="1.59822">
        <ele>250</ele>
        <time>2012-09-23T10:41:55Z</time>
      </trkpt>
      <trkpt lat="43.19461" lon="1.59818">
        <ele>250</ele>
        <time>2012-09-23T10:41:57Z</time>
      </trkpt>
      <trkpt lat="43.19457" lon="1.59817">
        <ele>250</ele>
        <time>2012-09-23T10:41:59Z</time>
      </trkpt>
      <trkpt lat="43.19455" lon="1.59819">
        <ele>250</ele>
        <time>2012-09-23T10:42:01Z</time>
      </trkpt>
      <trkpt lat="43.19455" lon="1.59823">
        <ele>250</ele>
        <time>2012-09-23T10:42:03Z</time>
      </trkpt>
      <trkpt lat="43.19453" lon="1.59826">
        <ele>249</ele>
        <time>2012-09-23T10:42:06Z</time>
      </trkpt>
      <trkpt lat="43.1945" lon="1.59828">
        <ele>249</ele>
        <time>2012-09-23T10:42:08Z</time>
      </trkpt>
      <trkpt lat="43.19447" lon="1.5983">
        <ele>249</ele>
        <time>2012-09-23T10:42:12Z</time>
      </trkpt>
      <trkpt lat="43.19444" lon="1.59831">
        <ele>249</ele>
        <time>2012-09-23T10:42:14Z</time>
      </trkpt>
      <trkpt lat="43.1944" lon="1.59833">
        <ele>249</ele>
        <time>2012-09-23T10:42:17Z</time>
      </trkpt>
      <trkpt lat="43.19438" lon="1.59833">
        <ele>249</ele>
        <time>2012-09-23T10:42:19Z</time>
      </trkpt>
      <trkpt lat="43.19434" lon="1.59833">
        <ele>249</ele>
        <time>2012-09-23T10:42:22Z</time>
      </trkpt>
      <trkpt lat="43.19432" lon="1.59833">
        <ele>249</ele>
        <time>2012-09-23T10:42:24Z</time>
      </trkpt>
      <trkpt lat="43.1943" lon="1.59833">
        <ele>249</ele>
        <time>2012-09-23T10:42:26Z</time>
      </trkpt>
      <trkpt lat="43.19427" lon="1.59834">
        <ele>249</ele>
        <time>2012-09-23T10:42:29Z</time>
      </trkpt>
      <trkpt lat="43.19425" lon="1.59833">
        <ele>249</ele>
        <time>2012-09-23T10:42:31Z</time>
      </trkpt>
      <trkpt lat="43.19424" lon="1.5983">
        <ele>249</ele>
        <time>2012-09-23T10:42:33Z</time>
      </trkpt>
      <trkpt lat="43.19423" lon="1.59826">
        <ele>249</ele>
        <time>2012-09-23T10:42:36Z</time>
      </trkpt>
      <trkpt lat="43.19423" lon="1.59822">
        <ele>249</ele>
        <time>2012-09-23T10:42:38Z</time>
      </trkpt>
      <trkpt lat="43.19421" lon="1.59818">
        <ele>249</ele>
        <time>2012-09-23T10:42:40Z</time>
      </trkpt>
      <trkpt lat="43.19421" lon="1.59814">
        <ele>249</ele>
        <time>2012-09-23T10:42:43Z</time>
      </trkpt>
      <trkpt lat="43.19422" lon="1.5981">
        <ele>249</ele>
        <time>2012-09-23T10:42:45Z</time>
      </trkpt>
      <trkpt lat="43.19423" lon="1.59804">
        <ele>249</ele>
        <time>2012-09-23T10:42:48Z</time>
      </trkpt>
      <trkpt lat="43.19423" lon="1.59801">
        <ele>249</ele>
        <time>2012-09-23T10:42:50Z</time>
      </trkpt>
      <trkpt lat="43.19423" lon="1.59798">
        <ele>250</ele>
        <time>2012-09-23T10:42:52Z</time>
      </trkpt>
      <trkpt lat="43.19421" lon="1.59793">
        <ele>251</ele>
        <time>2012-09-23T10:42:55Z</time>
      </trkpt>
      <trkpt lat="43.19419" lon="1.59791">
        <ele>252</ele>
        <time>2012-09-23T10:42:57Z</time>
      </trkpt>
      <trkpt lat="43.19415" lon="1.5979">
        <ele>253</ele>
        <time>2012-09-23T10:43:00Z</time>
      </trkpt>
      <trkpt lat="43.19412" lon="1.5979">
        <ele>253</ele>
        <time>2012-09-23T10:43:02Z</time>
      </trkpt>
      <trkpt lat="43.1941" lon="1.5979">
        <ele>253</ele>
        <time>2012-09-23T10:43:04Z</time>
      </trkpt>
      <trkpt lat="43.19407" lon="1.59789">
        <ele>253</ele>
        <time>2012-09-23T10:43:07Z</time>
      </trkpt>
      <trkpt lat="43.19404" lon="1.59788">
        <ele>253</ele>
        <time>2012-09-23T10:43:09Z</time>
      </trkpt>
      <trkpt lat="43.19401" lon="1.59786">
        <ele>253</ele>
        <time>2012-09-23T10:43:11Z</time>
      </trkpt>
      <trkpt lat="43.19398" lon="1.59786">
        <ele>253</ele>
        <time>2012-09-23T10:43:13Z</time>
      </trkpt>
      <trkpt lat="43.19395" lon="1.59785">
        <ele>253</ele>
        <time>2012-09-23T10:43:15Z</time>
      </trkpt>
      <trkpt lat="43.19391" lon="1.59785">
        <ele>253</ele>
        <time>2012-09-23T10:43:18Z</time>
      </trkpt>
      <trkpt lat="43.19388" lon="1.59785">
        <ele>253</ele>
        <time>2012-09-23T10:43:20Z</time>
      </trkpt>
      <trkpt lat="43.19384" lon="1.59785">
        <ele>253</ele>
        <time>2012-09-23T10:43:22Z</time>
      </trkpt>
      <trkpt lat="43.19381" lon="1.59785">
        <ele>253</ele>
        <time>2012-09-23T10:43:24Z</time>
      </trkpt>
      <trkpt lat="43.19378" lon="1.59784">
        <ele>253</ele>
        <time>2012-09-23T10:43:27Z</time>
      </trkpt>
      <trkpt lat="43.19374" lon="1.59784">
        <ele>253</ele>
        <time>2012-09-23T10:43:30Z</time>
      </trkpt>
      <trkpt lat="43.19371" lon="1.59783">
        <ele>253</ele>
        <time>2012-09-23T10:43:32Z</time>
      </trkpt>
      <trkpt lat="43.19368" lon="1.59782">
        <ele>253</ele>
        <time>2012-09-23T10:43:34Z</time>
      </trkpt>
      <trkpt lat="43.19366" lon="1.59781">
        <ele>253</ele>
        <time>2012-09-23T10:43:36Z</time>
      </trkpt>
      <trkpt lat="43.19362" lon="1.59781">
        <ele>253</ele>
        <time>2012-09-23T10:43:39Z</time>
      </trkpt>
      <trkpt lat="43.1936" lon="1.59781">
        <ele>253</ele>
        <time>2012-09-23T10:43:41Z</time>
      </trkpt>
      <trkpt lat="43.19358" lon="1.5978">
        <ele>253</ele>
        <time>2012-09-23T10:43:43Z</time>
      </trkpt>
      <trkpt lat="43.19356" lon="1.5978">
        <ele>253</ele>
        <time>2012-09-23T10:43:45Z</time>
      </trkpt>
      <trkpt lat="43.19353" lon="1.59779">
        <ele>253</ele>
        <time>2012-09-23T10:43:47Z</time>
      </trkpt>
      <trkpt lat="43.1935" lon="1.59779">
        <ele>253</ele>
        <time>2012-09-23T10:43:49Z</time>
      </trkpt>
      <trkpt lat="43.19348" lon="1.5978">
        <ele>253</ele>
        <time>2012-09-23T10:43:51Z</time>
      </trkpt>
      <trkpt lat="43.19346" lon="1.59779">
        <ele>253</ele>
        <time>2012-09-23T10:43:53Z</time>
      </trkpt>
      <trkpt lat="43.19343" lon="1.59778">
        <ele>253</ele>
        <time>2012-09-23T10:43:55Z</time>
      </trkpt>
      <trkpt lat="43.19339" lon="1.59777">
        <ele>253</ele>
        <time>2012-09-23T10:43:58Z</time>
      </trkpt>
      <trkpt lat="43.19336" lon="1.59775">
        <ele>253</ele>
        <time>2012-09-23T10:44:01Z</time>
      </trkpt>
      <trkpt lat="43.19332" lon="1.59774">
        <ele>253</ele>
        <time>2012-09-23T10:44:03Z</time>
      </trkpt>
      <trkpt lat="43.19329" lon="1.59772">
        <ele>253</ele>
        <time>2012-09-23T10:44:06Z</time>
      </trkpt>
      <trkpt lat="43.19327" lon="1.59771">
        <ele>253</ele>
        <time>2012-09-23T10:44:08Z</time>
      </trkpt>
      <trkpt lat="43.19324" lon="1.5977">
        <ele>253</ele>
        <time>2012-09-23T10:44:10Z</time>
      </trkpt>
      <trkpt lat="43.19321" lon="1.5977">
        <ele>253</ele>
        <time>2012-09-23T10:44:12Z</time>
      </trkpt>
      <trkpt lat="43.19318" lon="1.59769">
        <ele>253</ele>
        <time>2012-09-23T10:44:14Z</time>
      </trkpt>
      <trkpt lat="43.19314" lon="1.59769">
        <ele>253</ele>
        <time>2012-09-23T10:44:16Z</time>
      </trkpt>
      <trkpt lat="43.1931" lon="1.59768">
        <ele>253</ele>
        <time>2012-09-23T10:44:18Z</time>
      </trkpt>
      <trkpt lat="43.19303" lon="1.59765">
        <ele>254</ele>
        <time>2012-09-23T10:44:21Z</time>
      </trkpt>
      <trkpt lat="43.19298" lon="1.59763">
        <ele>254</ele>
        <time>2012-09-23T10:44:23Z</time>
      </trkpt>
      <trkpt lat="43.19294" lon="1.59761">
        <ele>254</ele>
        <time>2012-09-23T10:44:25Z</time>
      </trkpt>
      <trkpt lat="43.19289" lon="1.5976">
        <ele>254</ele>
        <time>2012-09-23T10:44:27Z</time>
      </trkpt>
      <trkpt lat="43.19284" lon="1.59757">
        <ele>254</ele>
        <time>2012-09-23T10:44:29Z</time>
      </trkpt>
      <trkpt lat="43.19278" lon="1.59757">
        <ele>254</ele>
        <time>2012-09-23T10:44:31Z</time>
      </trkpt>
      <trkpt lat="43.19274" lon="1.59756">
        <ele>254</ele>
        <time>2012-09-23T10:44:33Z</time>
      </trkpt>
      <trkpt lat="43.19269" lon="1.59755">
        <ele>255</ele>
        <time>2012-09-23T10:44:35Z</time>
      </trkpt>
      <trkpt lat="43.19264" lon="1.59753">
        <ele>255</ele>
        <time>2012-09-23T10:44:37Z</time>
      </trkpt>
      <trkpt lat="43.19258" lon="1.59753">
        <ele>255</ele>
        <time>2012-09-23T10:44:39Z</time>
      </trkpt>
      <trkpt lat="43.19254" lon="1.59752">
        <ele>256</ele>
        <time>2012-09-23T10:44:41Z</time>
      </trkpt>
      <trkpt lat="43.19249" lon="1.59751">
        <ele>256</ele>
        <time>2012-09-23T10:44:43Z</time>
      </trkpt>
      <trkpt lat="43.19244" lon="1.5975">
        <ele>257</ele>
        <time>2012-09-23T10:44:45Z</time>
      </trkpt>
      <trkpt lat="43.19238" lon="1.59749">
        <ele>257</ele>
        <time>2012-09-23T10:44:47Z</time>
      </trkpt>
      <trkpt lat="43.19233" lon="1.59748">
        <ele>257</ele>
        <time>2012-09-23T10:44:49Z</time>
      </trkpt>
      <trkpt lat="43.19228" lon="1.59746">
        <ele>257</ele>
        <time>2012-09-23T10:44:51Z</time>
      </trkpt>
      <trkpt lat="43.19224" lon="1.59742">
        <ele>257</ele>
        <time>2012-09-23T10:44:53Z</time>
      </trkpt>
      <trkpt lat="43.19218" lon="1.59737">
        <ele>257</ele>
        <time>2012-09-23T10:44:56Z</time>
      </trkpt>
      <trkpt lat="43.19214" lon="1.59734">
        <ele>257</ele>
        <time>2012-09-23T10:44:58Z</time>
      </trkpt>
      <trkpt lat="43.19208" lon="1.59731">
        <ele>257</ele>
        <time>2012-09-23T10:45:01Z</time>
      </trkpt>
      <trkpt lat="43.19203" lon="1.59728">
        <ele>258</ele>
        <time>2012-09-23T10:45:03Z</time>
      </trkpt>
      <trkpt lat="43.19199" lon="1.59726">
        <ele>259</ele>
        <time>2012-09-23T10:45:05Z</time>
      </trkpt>
      <trkpt lat="43.19194" lon="1.59723">
        <ele>260</ele>
        <time>2012-09-23T10:45:07Z</time>
      </trkpt>
      <trkpt lat="43.1919" lon="1.59722">
        <ele>260</ele>
        <time>2012-09-23T10:45:09Z</time>
      </trkpt>
      <trkpt lat="43.19186" lon="1.59719">
        <ele>261</ele>
        <time>2012-09-23T10:45:11Z</time>
      </trkpt>
      <trkpt lat="43.19182" lon="1.59718">
        <ele>261</ele>
        <time>2012-09-23T10:45:13Z</time>
      </trkpt>
      <trkpt lat="43.19176" lon="1.59717">
        <ele>262</ele>
        <time>2012-09-23T10:45:15Z</time>
      </trkpt>
      <trkpt lat="43.19171" lon="1.59715">
        <ele>262</ele>
        <time>2012-09-23T10:45:17Z</time>
      </trkpt>
      <trkpt lat="43.19166" lon="1.59713">
        <ele>263</ele>
        <time>2012-09-23T10:45:19Z</time>
      </trkpt>
      <trkpt lat="43.1916" lon="1.59713">
        <ele>263</ele>
        <time>2012-09-23T10:45:21Z</time>
      </trkpt>
      <trkpt lat="43.19155" lon="1.59711">
        <ele>263</ele>
        <time>2012-09-23T10:45:23Z</time>
      </trkpt>
      <trkpt lat="43.19149" lon="1.5971">
        <ele>263</ele>
        <time>2012-09-23T10:45:25Z</time>
      </trkpt>
      <trkpt lat="43.19144" lon="1.5971">
        <ele>263</ele>
        <time>2012-09-23T10:45:27Z</time>
      </trkpt>
      <trkpt lat="43.19139" lon="1.59708">
        <ele>263</ele>
        <time>2012-09-23T10:45:29Z</time>
      </trkpt>
      <trkpt lat="43.19135" lon="1.59708">
        <ele>263</ele>
        <time>2012-09-23T10:45:31Z</time>
      </trkpt>
      <trkpt lat="43.1913" lon="1.59706">
        <ele>263</ele>
        <time>2012-09-23T10:45:33Z</time>
      </trkpt>
      <trkpt lat="43.19125" lon="1.59704">
        <ele>264</ele>
        <time>2012-09-23T10:45:35Z</time>
      </trkpt>
      <trkpt lat="43.19118" lon="1.59701">
        <ele>264</ele>
        <time>2012-09-23T10:45:38Z</time>
      </trkpt>
      <trkpt lat="43.19111" lon="1.59698">
        <ele>264</ele>
        <time>2012-09-23T10:45:41Z</time>
      </trkpt>
      <trkpt lat="43.19106" lon="1.59697">
        <ele>264</ele>
        <time>2012-09-23T10:45:43Z</time>
      </trkpt>
      <trkpt lat="43.19101" lon="1.59695">
        <ele>264</ele>
        <time>2012-09-23T10:45:45Z</time>
      </trkpt>
      <trkpt lat="43.19097" lon="1.59694">
        <ele>264</ele>
        <time>2012-09-23T10:45:47Z</time>
      </trkpt>
      <trkpt lat="43.19091" lon="1.59693">
        <ele>264</ele>
        <time>2012-09-23T10:45:50Z</time>
      </trkpt>
      <trkpt lat="43.19088" lon="1.59693">
        <ele>264</ele>
        <time>2012-09-23T10:45:52Z</time>
      </trkpt>
      <trkpt lat="43.19085" lon="1.59691">
        <ele>264</ele>
        <time>2012-09-23T10:45:54Z</time>
      </trkpt>
      <trkpt lat="43.19082" lon="1.59692">
        <ele>264</ele>
        <time>2012-09-23T10:45:56Z</time>
      </trkpt>
      <trkpt lat="43.1908" lon="1.59691">
        <ele>264</ele>
        <time>2012-09-23T10:45:58Z</time>
      </trkpt>
      <trkpt lat="43.19078" lon="1.5969">
        <ele>264</ele>
        <time>2012-09-23T10:46:00Z</time>
      </trkpt>
      <trkpt lat="43.19075" lon="1.59689">
        <ele>265</ele>
        <time>2012-09-23T10:46:02Z</time>
      </trkpt>
      <trkpt lat="43.19071" lon="1.59687">
        <ele>266</ele>
        <time>2012-09-23T10:46:05Z</time>
      </trkpt>
      <trkpt lat="43.19069" lon="1.59686">
        <ele>266</ele>
        <time>2012-09-23T10:46:07Z</time>
      </trkpt>
      <trkpt lat="43.19065" lon="1.59684">
        <ele>268</ele>
        <time>2012-09-23T10:46:10Z</time>
      </trkpt>
      <trkpt lat="43.1906" lon="1.59684">
        <ele>271</ele>
        <time>2012-09-23T10:46:14Z</time>
      </trkpt>
      <trkpt lat="43.19057" lon="1.59684">
        <ele>272</ele>
        <time>2012-09-23T10:46:16Z</time>
      </trkpt>
      <trkpt lat="43.19055" lon="1.59684">
        <ele>274</ele>
        <time>2012-09-23T10:46:18Z</time>
      </trkpt>
      <trkpt lat="43.19052" lon="1.59683">
        <ele>276</ele>
        <time>2012-09-23T10:46:20Z</time>
      </trkpt>
      <trkpt lat="43.19049" lon="1.59682">
        <ele>277</ele>
        <time>2012-09-23T10:46:22Z</time>
      </trkpt>
      <trkpt lat="43.19048" lon="1.59678">
        <ele>278</ele>
        <time>2012-09-23T10:46:24Z</time>
      </trkpt>
      <trkpt lat="43.19049" lon="1.59674">
        <ele>278</ele>
        <time>2012-09-23T10:46:26Z</time>
      </trkpt>
      <trkpt lat="43.1905" lon="1.59672">
        <ele>278</ele>
        <time>2012-09-23T10:46:28Z</time>
      </trkpt>
      <trkpt lat="43.19051" lon="1.59668">
        <ele>278</ele>
        <time>2012-09-23T10:46:31Z</time>
      </trkpt>
      <trkpt lat="43.19053" lon="1.59666">
        <ele>278</ele>
        <time>2012-09-23T10:46:33Z</time>
      </trkpt>
      <trkpt lat="43.19055" lon="1.59665">
        <ele>278</ele>
        <time>2012-09-23T10:46:35Z</time>
      </trkpt>
      <trkpt lat="43.19056" lon="1.59663">
        <ele>278</ele>
        <time>2012-09-23T10:46:37Z</time>
      </trkpt>
      <trkpt lat="43.19057" lon="1.5966">
        <ele>278</ele>
        <time>2012-09-23T10:46:39Z</time>
      </trkpt>
      <trkpt lat="43.19059" lon="1.59659">
        <ele>278</ele>
        <time>2012-09-23T10:46:41Z</time>
      </trkpt>
      <trkpt lat="43.19062" lon="1.59656">
        <ele>278</ele>
        <time>2012-09-23T10:46:43Z</time>
      </trkpt>
      <trkpt lat="43.19064" lon="1.59654">
        <ele>278</ele>
        <time>2012-09-23T10:46:46Z</time>
      </trkpt>
      <trkpt lat="43.19066" lon="1.59654">
        <ele>278</ele>
        <time>2012-09-23T10:46:49Z</time>
      </trkpt>
      <trkpt lat="43.19067" lon="1.59652">
        <ele>279</ele>
        <time>2012-09-23T10:46:51Z</time>
      </trkpt>
      <trkpt lat="43.19069" lon="1.59648">
        <ele>279</ele>
        <time>2012-09-23T10:46:53Z</time>
      </trkpt>
      <trkpt lat="43.19069" lon="1.59647">
        <ele>279</ele>
        <time>2012-09-23T10:46:56Z</time>
      </trkpt>
      <trkpt lat="43.19071" lon="1.59646">
        <ele>279</ele>
        <time>2012-09-23T10:46:58Z</time>
      </trkpt>
      <trkpt lat="43.19073" lon="1.59645">
        <ele>279</ele>
        <time>2012-09-23T10:47:00Z</time>
      </trkpt>
      <trkpt lat="43.19074" lon="1.59643">
        <ele>279</ele>
        <time>2012-09-23T10:47:02Z</time>
      </trkpt>
      <trkpt lat="43.19076" lon="1.5964">
        <ele>279</ele>
        <time>2012-09-23T10:47:06Z</time>
      </trkpt>
      <trkpt lat="43.19077" lon="1.59638">
        <ele>279</ele>
        <time>2012-09-23T10:47:08Z</time>
      </trkpt>
      <trkpt lat="43.19078" lon="1.59635">
        <ele>280</ele>
        <time>2012-09-23T10:47:11Z</time>
      </trkpt>
      <trkpt lat="43.19079" lon="1.59632">
        <ele>281</ele>
        <time>2012-09-23T10:47:13Z</time>
      </trkpt>
      <trkpt lat="43.1908" lon="1.5963">
        <ele>281</ele>
        <time>2012-09-23T10:47:16Z</time>
      </trkpt>
      <trkpt lat="43.1908" lon="1.59626">
        <ele>281</ele>
        <time>2012-09-23T10:47:19Z</time>
      </trkpt>
      <trkpt lat="43.19081" lon="1.59624">
        <ele>281</ele>
        <time>2012-09-23T10:47:21Z</time>
      </trkpt>
      <trkpt lat="43.19081" lon="1.59621">
        <ele>281</ele>
        <time>2012-09-23T10:47:23Z</time>
      </trkpt>
      <trkpt lat="43.19081" lon="1.59618">
        <ele>282</ele>
        <time>2012-09-23T10:47:26Z</time>
      </trkpt>
      <trkpt lat="43.19083" lon="1.59614">
        <ele>282</ele>
        <time>2012-09-23T10:47:29Z</time>
      </trkpt>
      <trkpt lat="43.19083" lon="1.59613">
        <ele>283</ele>
        <time>2012-09-23T10:47:31Z</time>
      </trkpt>
      <trkpt lat="43.19083" lon="1.5961">
        <ele>284</ele>
        <time>2012-09-23T10:47:33Z</time>
      </trkpt>
      <trkpt lat="43.19084" lon="1.59608">
        <ele>284</ele>
        <time>2012-09-23T10:47:35Z</time>
      </trkpt>
      <trkpt lat="43.19084" lon="1.59604">
        <ele>285</ele>
        <time>2012-09-23T10:47:37Z</time>
      </trkpt>
      <trkpt lat="43.19084" lon="1.596">
        <ele>286</ele>
        <time>2012-09-23T10:47:40Z</time>
      </trkpt>
      <trkpt lat="43.19084" lon="1.59599">
        <ele>287</ele>
        <time>2012-09-23T10:47:42Z</time>
      </trkpt>
      <trkpt lat="43.19084" lon="1.59597">
        <ele>288</ele>
        <time>2012-09-23T10:47:44Z</time>
      </trkpt>
      <trkpt lat="43.19085" lon="1.59595">
        <ele>291</ele>
        <time>2012-09-23T10:47:47Z</time>
      </trkpt>
      <trkpt lat="43.19085" lon="1.59593">
        <ele>293</ele>
        <time>2012-09-23T10:47:50Z</time>
      </trkpt>
      <trkpt lat="43.19085" lon="1.59591">
        <ele>294</ele>
        <time>2012-09-23T10:47:52Z</time>
      </trkpt>
      <trkpt lat="43.19085" lon="1.5959">
        <ele>295</ele>
        <time>2012-09-23T10:47:54Z</time>
      </trkpt>
      <trkpt lat="43.19085" lon="1.59586">
        <ele>297</ele>
        <time>2012-09-23T10:47:56Z</time>
      </trkpt>
      <trkpt lat="43.19083" lon="1.59584">
        <ele>298</ele>
        <time>2012-09-23T10:47:58Z</time>
      </trkpt>
      <trkpt lat="43.19082" lon="1.59582">
        <ele>299</ele>
        <time>2012-09-23T10:48:00Z</time>
      </trkpt>
      <trkpt lat="43.19079" lon="1.59579">
        <ele>300</ele>
        <time>2012-09-23T10:48:02Z</time>
      </trkpt>
      <trkpt lat="43.19076" lon="1.59577">
        <ele>302</ele>
        <time>2012-09-23T10:48:05Z</time>
      </trkpt>
      <trkpt lat="43.19074" lon="1.59576">
        <ele>302</ele>
        <time>2012-09-23T10:48:07Z</time>
      </trkpt>
      <trkpt lat="43.19071" lon="1.59574">
        <ele>304</ele>
        <time>2012-09-23T10:48:10Z</time>
      </trkpt>
      <trkpt lat="43.19069" lon="1.59573">
        <ele>304</ele>
        <time>2012-09-23T10:48:12Z</time>
      </trkpt>
      <trkpt lat="43.19064" lon="1.59572">
        <ele>304</ele>
        <time>2012-09-23T10:48:16Z</time>
      </trkpt>
      <trkpt lat="43.19061" lon="1.59572">
        <ele>305</ele>
        <time>2012-09-23T10:48:18Z</time>
      </trkpt>
      <trkpt lat="43.19059" lon="1.59572">
        <ele>305</ele>
        <time>2012-09-23T10:48:20Z</time>
      </trkpt>
      <trkpt lat="43.19057" lon="1.59573">
        <ele>306</ele>
        <time>2012-09-23T10:48:22Z</time>
      </trkpt>
      <trkpt lat="43.19054" lon="1.59574">
        <ele>307</ele>
        <time>2012-09-23T10:48:24Z</time>
      </trkpt>
      <trkpt lat="43.19051" lon="1.59573">
        <ele>307</ele>
        <time>2012-09-23T10:48:26Z</time>
      </trkpt>
      <trkpt lat="43.19048" lon="1.59574">
        <ele>307</ele>
        <time>2012-09-23T10:48:28Z</time>
      </trkpt>
      <trkpt lat="43.19046" lon="1.59575">
        <ele>307</ele>
        <time>2012-09-23T10:48:30Z</time>
      </trkpt>
      <trkpt lat="43.19043" lon="1.59576">
        <ele>307</ele>
        <time>2012-09-23T10:48:32Z</time>
      </trkpt>
      <trkpt lat="43.19041" lon="1.59576">
        <ele>307</ele>
        <time>2012-09-23T10:48:34Z</time>
      </trkpt>
      <trkpt lat="43.19038" lon="1.59577">
        <ele>307</ele>
        <time>2012-09-23T10:48:36Z</time>
      </trkpt>
      <trkpt lat="43.19034" lon="1.59577">
        <ele>307</ele>
        <time>2012-09-23T10:48:38Z</time>
      </trkpt>
      <trkpt lat="43.19031" lon="1.59577">
        <ele>307</ele>
        <time>2012-09-23T10:48:40Z</time>
      </trkpt>
      <trkpt lat="43.19028" lon="1.59578">
        <ele>307</ele>
        <time>2012-09-23T10:48:42Z</time>
      </trkpt>
      <trkpt lat="43.19025" lon="1.59579">
        <ele>307</ele>
        <time>2012-09-23T10:48:44Z</time>
      </trkpt>
      <trkpt lat="43.19023" lon="1.59579">
        <ele>307</ele>
        <time>2012-09-23T10:48:46Z</time>
      </trkpt>
      <trkpt lat="43.1902" lon="1.59579">
        <ele>307</ele>
        <time>2012-09-23T10:48:48Z</time>
      </trkpt>
      <trkpt lat="43.19015" lon="1.59579">
        <ele>307</ele>
        <time>2012-09-23T10:48:51Z</time>
      </trkpt>
      <trkpt lat="43.19013" lon="1.59579">
        <ele>308</ele>
        <time>2012-09-23T10:48:53Z</time>
      </trkpt>
      <trkpt lat="43.1901" lon="1.59579">
        <ele>308</ele>
        <time>2012-09-23T10:48:55Z</time>
      </trkpt>
      <trkpt lat="43.19007" lon="1.5958">
        <ele>309</ele>
        <time>2012-09-23T10:48:57Z</time>
      </trkpt>
      <trkpt lat="43.19004" lon="1.59581">
        <ele>309</ele>
        <time>2012-09-23T10:48:59Z</time>
      </trkpt>
      <trkpt lat="43.19001" lon="1.59583">
        <ele>309</ele>
        <time>2012-09-23T10:49:01Z</time>
      </trkpt>
      <trkpt lat="43.18998" lon="1.59585">
        <ele>309</ele>
        <time>2012-09-23T10:49:03Z</time>
      </trkpt>
      <trkpt lat="43.18996" lon="1.59587">
        <ele>310</ele>
        <time>2012-09-23T10:49:05Z</time>
      </trkpt>
      <trkpt lat="43.18994" lon="1.59589">
        <ele>310</ele>
        <time>2012-09-23T10:49:07Z</time>
      </trkpt>
      <trkpt lat="43.18992" lon="1.59591">
        <ele>311</ele>
        <time>2012-09-23T10:49:09Z</time>
      </trkpt>
      <trkpt lat="43.18989" lon="1.59592">
        <ele>311</ele>
        <time>2012-09-23T10:49:11Z</time>
      </trkpt>
      <trkpt lat="43.18987" lon="1.59594">
        <ele>311</ele>
        <time>2012-09-23T10:49:13Z</time>
      </trkpt>
      <trkpt lat="43.18983" lon="1.59597">
        <ele>311</ele>
        <time>2012-09-23T10:49:16Z</time>
      </trkpt>
      <trkpt lat="43.1898" lon="1.59598">
        <ele>311</ele>
        <time>2012-09-23T10:49:18Z</time>
      </trkpt>
      <trkpt lat="43.18978" lon="1.596">
        <ele>312</ele>
        <time>2012-09-23T10:49:20Z</time>
      </trkpt>
      <trkpt lat="43.18975" lon="1.59602">
        <ele>312</ele>
        <time>2012-09-23T10:49:22Z</time>
      </trkpt>
      <trkpt lat="43.1897" lon="1.59604">
        <ele>312</ele>
        <time>2012-09-23T10:49:24Z</time>
      </trkpt>
      <trkpt lat="43.18965" lon="1.59606">
        <ele>312</ele>
        <time>2012-09-23T10:49:26Z</time>
      </trkpt>
      <trkpt lat="43.18959" lon="1.59609">
        <ele>312</ele>
        <time>2012-09-23T10:49:28Z</time>
      </trkpt>
      <trkpt lat="43.18955" lon="1.59613">
        <ele>312</ele>
        <time>2012-09-23T10:49:30Z</time>
      </trkpt>
      <trkpt lat="43.1895" lon="1.59616">
        <ele>312</ele>
        <time>2012-09-23T10:49:32Z</time>
      </trkpt>
      <trkpt lat="43.18945" lon="1.59619">
        <ele>312</ele>
        <time>2012-09-23T10:49:34Z</time>
      </trkpt>
      <trkpt lat="43.1894" lon="1.59622">
        <ele>312</ele>
        <time>2012-09-23T10:49:36Z</time>
      </trkpt>
      <trkpt lat="43.18935" lon="1.59625">
        <ele>313</ele>
        <time>2012-09-23T10:49:38Z</time>
      </trkpt>
      <trkpt lat="43.1893" lon="1.5963">
        <ele>313</ele>
        <time>2012-09-23T10:49:40Z</time>
      </trkpt>
      <trkpt lat="43.18926" lon="1.59635">
        <ele>313</ele>
        <time>2012-09-23T10:49:42Z</time>
      </trkpt>
      <trkpt lat="43.18922" lon="1.59639">
        <ele>313</ele>
        <time>2012-09-23T10:49:44Z</time>
      </trkpt>
      <trkpt lat="43.18917" lon="1.59642">
        <ele>313</ele>
        <time>2012-09-23T10:49:46Z</time>
      </trkpt>
      <trkpt lat="43.18913" lon="1.59645">
        <ele>313</ele>
        <time>2012-09-23T10:49:48Z</time>
      </trkpt>
      <trkpt lat="43.18908" lon="1.59648">
        <ele>314</ele>
        <time>2012-09-23T10:49:50Z</time>
      </trkpt>
      <trkpt lat="43.18903" lon="1.5965">
        <ele>314</ele>
        <time>2012-09-23T10:49:52Z</time>
      </trkpt>
      <trkpt lat="43.18898" lon="1.59653">
        <ele>314</ele>
        <time>2012-09-23T10:49:54Z</time>
      </trkpt>
      <trkpt lat="43.18894" lon="1.59657">
        <ele>314</ele>
        <time>2012-09-23T10:49:56Z</time>
      </trkpt>
      <trkpt lat="43.1889" lon="1.5966">
        <ele>314</ele>
        <time>2012-09-23T10:49:58Z</time>
      </trkpt>
      <trkpt lat="43.18885" lon="1.59663">
        <ele>314</ele>
        <time>2012-09-23T10:50:00Z</time>
      </trkpt>
      <trkpt lat="43.1888" lon="1.59666">
        <ele>314</ele>
        <time>2012-09-23T10:50:02Z</time>
      </trkpt>
      <trkpt lat="43.18876" lon="1.59669">
        <ele>314</ele>
        <time>2012-09-23T10:50:04Z</time>
      </trkpt>
      <trkpt lat="43.18871" lon="1.59672">
        <ele>314</ele>
        <time>2012-09-23T10:50:06Z</time>
      </trkpt>
      <trkpt lat="43.18866" lon="1.59674">
        <ele>314</ele>
        <time>2012-09-23T10:50:08Z</time>
      </trkpt>
      <trkpt lat="43.18862" lon="1.59677">
        <ele>314</ele>
        <time>2012-09-23T10:50:10Z</time>
      </trkpt>
      <trkpt lat="43.18857" lon="1.59679">
        <ele>314</ele>
        <time>2012-09-23T10:50:12Z</time>
      </trkpt>
      <trkpt lat="43.18852" lon="1.59681">
        <ele>314</ele>
        <time>2012-09-23T10:50:14Z</time>
      </trkpt>
      <trkpt lat="43.18847" lon="1.5968">
        <ele>314</ele>
        <time>2012-09-23T10:50:16Z</time>
      </trkpt>
      <trkpt lat="43.18841" lon="1.5968">
        <ele>314</ele>
        <time>2012-09-23T10:50:18Z</time>
      </trkpt>
      <trkpt lat="43.18836" lon="1.59678">
        <ele>314</ele>
        <time>2012-09-23T10:50:20Z</time>
      </trkpt>
      <trkpt lat="43.18831" lon="1.59677">
        <ele>314</ele>
        <time>2012-09-23T10:50:22Z</time>
      </trkpt>
      <trkpt lat="43.18826" lon="1.59676">
        <ele>314</ele>
        <time>2012-09-23T10:50:24Z</time>
      </trkpt>
      <trkpt lat="43.18821" lon="1.59674">
        <ele>314</ele>
        <time>2012-09-23T10:50:26Z</time>
      </trkpt>
      <trkpt lat="43.18815" lon="1.59673">
        <ele>314</ele>
        <time>2012-09-23T10:50:28Z</time>
      </trkpt>
      <trkpt lat="43.18808" lon="1.5967">
        <ele>314</ele>
        <time>2012-09-23T10:50:31Z</time>
      </trkpt>
      <trkpt lat="43.18803" lon="1.59669">
        <ele>314</ele>
        <time>2012-09-23T10:50:33Z</time>
      </trkpt>
      <trkpt lat="43.18798" lon="1.59666">
        <ele>314</ele>
        <time>2012-09-23T10:50:35Z</time>
      </trkpt>
      <trkpt lat="43.18794" lon="1.59663">
        <ele>314</ele>
        <time>2012-09-23T10:50:37Z</time>
      </trkpt>
      <trkpt lat="43.1879" lon="1.59659">
        <ele>314</ele>
        <time>2012-09-23T10:50:39Z</time>
      </trkpt>
      <trkpt lat="43.18783" lon="1.59653">
        <ele>314</ele>
        <time>2012-09-23T10:50:42Z</time>
      </trkpt>
      <trkpt lat="43.18778" lon="1.59649">
        <ele>314</ele>
        <time>2012-09-23T10:50:44Z</time>
      </trkpt>
      <trkpt lat="43.18773" lon="1.59646">
        <ele>314</ele>
        <time>2012-09-23T10:50:46Z</time>
      </trkpt>
      <trkpt lat="43.18768" lon="1.59643">
        <ele>315</ele>
        <time>2012-09-23T10:50:48Z</time>
      </trkpt>
      <trkpt lat="43.18763" lon="1.59637">
        <ele>315</ele>
        <time>2012-09-23T10:50:50Z</time>
      </trkpt>
      <trkpt lat="43.18759" lon="1.59634">
        <ele>315</ele>
        <time>2012-09-23T10:50:52Z</time>
      </trkpt>
      <trkpt lat="43.18754" lon="1.59631">
        <ele>315</ele>
        <time>2012-09-23T10:50:54Z</time>
      </trkpt>
      <trkpt lat="43.1875" lon="1.59629">
        <ele>316</ele>
        <time>2012-09-23T10:50:56Z</time>
      </trkpt>
      <trkpt lat="43.18745" lon="1.59626">
        <ele>317</ele>
        <time>2012-09-23T10:50:58Z</time>
      </trkpt>
      <trkpt lat="43.1874" lon="1.59624">
        <ele>317</ele>
        <time>2012-09-23T10:51:00Z</time>
      </trkpt>
      <trkpt lat="43.18736" lon="1.5962">
        <ele>318</ele>
        <time>2012-09-23T10:51:02Z</time>
      </trkpt>
      <trkpt lat="43.18732" lon="1.59616">
        <ele>318</ele>
        <time>2012-09-23T10:51:04Z</time>
      </trkpt>
      <trkpt lat="43.18728" lon="1.59614">
        <ele>318</ele>
        <time>2012-09-23T10:51:06Z</time>
      </trkpt>
      <trkpt lat="43.18723" lon="1.59613">
        <ele>318</ele>
        <time>2012-09-23T10:51:08Z</time>
      </trkpt>
      <trkpt lat="43.18718" lon="1.59612">
        <ele>318</ele>
        <time>2012-09-23T10:51:10Z</time>
      </trkpt>
      <trkpt lat="43.18712" lon="1.5961">
        <ele>318</ele>
        <time>2012-09-23T10:51:12Z</time>
      </trkpt>
      <trkpt lat="43.18707" lon="1.59609">
        <ele>318</ele>
        <time>2012-09-23T10:51:14Z</time>
      </trkpt>
      <trkpt lat="43.18701" lon="1.5961">
        <ele>318</ele>
        <time>2012-09-23T10:51:16Z</time>
      </trkpt>
      <trkpt lat="43.18697" lon="1.5961">
        <ele>318</ele>
        <time>2012-09-23T10:51:18Z</time>
      </trkpt>
      <trkpt lat="43.18691" lon="1.59608">
        <ele>318</ele>
        <time>2012-09-23T10:51:20Z</time>
      </trkpt>
      <trkpt lat="43.18686" lon="1.59609">
        <ele>318</ele>
        <time>2012-09-23T10:51:22Z</time>
      </trkpt>
      <trkpt lat="43.18681" lon="1.5961">
        <ele>318</ele>
        <time>2012-09-23T10:51:24Z</time>
      </trkpt>
      <trkpt lat="43.18676" lon="1.5961">
        <ele>318</ele>
        <time>2012-09-23T10:51:26Z</time>
      </trkpt>
      <trkpt lat="43.1867" lon="1.5961">
        <ele>318</ele>
        <time>2012-09-23T10:51:28Z</time>
      </trkpt>
      <trkpt lat="43.18665" lon="1.5961">
        <ele>318</ele>
        <time>2012-09-23T10:51:30Z</time>
      </trkpt>
      <trkpt lat="43.18659" lon="1.5961">
        <ele>318</ele>
        <time>2012-09-23T10:51:32Z</time>
      </trkpt>
      <trkpt lat="43.18654" lon="1.59609">
        <ele>318</ele>
        <time>2012-09-23T10:51:34Z</time>
      </trkpt>
      <trkpt lat="43.18649" lon="1.59609">
        <ele>318</ele>
        <time>2012-09-23T10:51:36Z</time>
      </trkpt>
      <trkpt lat="43.18644" lon="1.59609">
        <ele>318</ele>
        <time>2012-09-23T10:51:38Z</time>
      </trkpt>
      <trkpt lat="43.18638" lon="1.59608">
        <ele>318</ele>
        <time>2012-09-23T10:51:40Z</time>
      </trkpt>
      <trkpt lat="43.18633" lon="1.59607">
        <ele>318</ele>
        <time>2012-09-23T10:51:42Z</time>
      </trkpt>
      <trkpt lat="43.18628" lon="1.59606">
        <ele>318</ele>
        <time>2012-09-23T10:51:44Z</time>
      </trkpt>
      <trkpt lat="43.18622" lon="1.59606">
        <ele>318</ele>
        <time>2012-09-23T10:51:46Z</time>
      </trkpt>
      <trkpt lat="43.18616" lon="1.59607">
        <ele>318</ele>
        <time>2012-09-23T10:51:48Z</time>
      </trkpt>
      <trkpt lat="43.1861" lon="1.59607">
        <ele>318</ele>
        <time>2012-09-23T10:51:50Z</time>
      </trkpt>
      <trkpt lat="43.18605" lon="1.59607">
        <ele>318</ele>
        <time>2012-09-23T10:51:52Z</time>
      </trkpt>
      <trkpt lat="43.186" lon="1.59607">
        <ele>318</ele>
        <time>2012-09-23T10:51:54Z</time>
      </trkpt>
      <trkpt lat="43.18594" lon="1.59607">
        <ele>318</ele>
        <time>2012-09-23T10:51:56Z</time>
      </trkpt>
      <trkpt lat="43.18589" lon="1.59607">
        <ele>318</ele>
        <time>2012-09-23T10:51:58Z</time>
      </trkpt>
      <trkpt lat="43.18584" lon="1.59607">
        <ele>318</ele>
        <time>2012-09-23T10:52:00Z</time>
      </trkpt>
      <trkpt lat="43.18578" lon="1.59607">
        <ele>318</ele>
        <time>2012-09-23T10:52:02Z</time>
      </trkpt>
      <trkpt lat="43.18573" lon="1.59607">
        <ele>318</ele>
        <time>2012-09-23T10:52:04Z</time>
      </trkpt>
      <trkpt lat="43.18567" lon="1.59606">
        <ele>318</ele>
        <time>2012-09-23T10:52:06Z</time>
      </trkpt>
      <trkpt lat="43.18562" lon="1.59606">
        <ele>318</ele>
        <time>2012-09-23T10:52:08Z</time>
      </trkpt>
      <trkpt lat="43.18556" lon="1.59606">
        <ele>318</ele>
        <time>2012-09-23T10:52:10Z</time>
      </trkpt>
      <trkpt lat="43.18551" lon="1.59606">
        <ele>318</ele>
        <time>2012-09-23T10:52:12Z</time>
      </trkpt>
      <trkpt lat="43.18545" lon="1.59606">
        <ele>318</ele>
        <time>2012-09-23T10:52:14Z</time>
      </trkpt>
      <trkpt lat="43.1854" lon="1.59607">
        <ele>318</ele>
        <time>2012-09-23T10:52:16Z</time>
      </trkpt>
      <trkpt lat="43.18536" lon="1.5961">
        <ele>318</ele>
        <time>2012-09-23T10:52:18Z</time>
      </trkpt>
      <trkpt lat="43.18531" lon="1.59614">
        <ele>318</ele>
        <time>2012-09-23T10:52:20Z</time>
      </trkpt>
      <trkpt lat="43.18525" lon="1.59616">
        <ele>318</ele>
        <time>2012-09-23T10:52:22Z</time>
      </trkpt>
      <trkpt lat="43.18518" lon="1.59618">
        <ele>318</ele>
        <time>2012-09-23T10:52:24Z</time>
      </trkpt>
      <trkpt lat="43.18513" lon="1.5962">
        <ele>318</ele>
        <time>2012-09-23T10:52:26Z</time>
      </trkpt>
      <trkpt lat="43.18507" lon="1.59625">
        <ele>317</ele>
        <time>2012-09-23T10:52:28Z</time>
      </trkpt>
      <trkpt lat="43.18503" lon="1.5963">
        <ele>316</ele>
        <time>2012-09-23T10:52:30Z</time>
      </trkpt>
      <trkpt lat="43.18497" lon="1.59635">
        <ele>315</ele>
        <time>2012-09-23T10:52:32Z</time>
      </trkpt>
      <trkpt lat="43.18493" lon="1.5964">
        <ele>314</ele>
        <time>2012-09-23T10:52:34Z</time>
      </trkpt>
      <trkpt lat="43.18488" lon="1.59646">
        <ele>312</ele>
        <time>2012-09-23T10:52:36Z</time>
      </trkpt>
      <trkpt lat="43.18483" lon="1.59649">
        <ele>310</ele>
        <time>2012-09-23T10:52:38Z</time>
      </trkpt>
      <trkpt lat="43.18477" lon="1.59649">
        <ele>308</ele>
        <time>2012-09-23T10:52:40Z</time>
      </trkpt>
      <trkpt lat="43.18472" lon="1.5965">
        <ele>306</ele>
        <time>2012-09-23T10:52:42Z</time>
      </trkpt>
      <trkpt lat="43.18469" lon="1.59653">
        <ele>304</ele>
        <time>2012-09-23T10:52:44Z</time>
      </trkpt>
      <trkpt lat="43.18473" lon="1.59654">
        <ele>302</ele>
        <time>2012-09-23T10:52:46Z</time>
      </trkpt>
      <trkpt lat="43.18478" lon="1.59658">
        <ele>300</ele>
        <time>2012-09-23T10:52:48Z</time>
      </trkpt>
      <trkpt lat="43.18479" lon="1.59664">
        <ele>298</ele>
        <time>2012-09-23T10:52:50Z</time>
      </trkpt>
      <trkpt lat="43.18475" lon="1.59664">
        <ele>296</ele>
        <time>2012-09-23T10:52:52Z</time>
      </trkpt>
      <trkpt lat="43.1847" lon="1.59665">
        <ele>294</ele>
        <time>2012-09-23T10:52:54Z</time>
      </trkpt>
      <trkpt lat="43.18462" lon="1.59666">
        <ele>292</ele>
        <time>2012-09-23T10:52:56Z</time>
      </trkpt>
      <trkpt lat="43.18456" lon="1.59667">
        <ele>290</ele>
        <time>2012-09-23T10:52:58Z</time>
      </trkpt>
      <trkpt lat="43.18451" lon="1.59668">
        <ele>288</ele>
        <time>2012-09-23T10:53:00Z</time>
      </trkpt>
      <trkpt lat="43.18445" lon="1.59671">
        <ele>286</ele>
        <time>2012-09-23T10:53:02Z</time>
      </trkpt>
      <trkpt lat="43.18439" lon="1.59675">
        <ele>284</ele>
        <time>2012-09-23T10:53:04Z</time>
      </trkpt>
      <trkpt lat="43.18433" lon="1.59681">
        <ele>283</ele>
        <time>2012-09-23T10:53:06Z</time>
      </trkpt>
      <trkpt lat="43.18428" lon="1.5969">
        <ele>282</ele>
        <time>2012-09-23T10:53:08Z</time>
      </trkpt>
      <trkpt lat="43.18427" lon="1.597">
        <ele>282</ele>
        <time>2012-09-23T10:53:10Z</time>
      </trkpt>
      <trkpt lat="43.1843" lon="1.59707">
        <ele>282</ele>
        <time>2012-09-23T10:53:12Z</time>
      </trkpt>
      <trkpt lat="43.18434" lon="1.59712">
        <ele>282</ele>
        <time>2012-09-23T10:53:14Z</time>
      </trkpt>
      <trkpt lat="43.18438" lon="1.59716">
        <ele>282</ele>
        <time>2012-09-23T10:53:16Z</time>
      </trkpt>
      <trkpt lat="43.18444" lon="1.59721">
        <ele>282</ele>
        <time>2012-09-23T10:53:18Z</time>
      </trkpt>
      <trkpt lat="43.18448" lon="1.59729">
        <ele>282</ele>
        <time>2012-09-23T10:53:20Z</time>
      </trkpt>
      <trkpt lat="43.18452" lon="1.59734">
        <ele>282</ele>
        <time>2012-09-23T10:53:22Z</time>
      </trkpt>
      <trkpt lat="43.18459" lon="1.5974">
        <ele>282</ele>
        <time>2012-09-23T10:53:24Z</time>
      </trkpt>
      <trkpt lat="43.18463" lon="1.59745">
        <ele>281</ele>
        <time>2012-09-23T10:53:26Z</time>
      </trkpt>
      <trkpt lat="43.18469" lon="1.59752">
        <ele>280</ele>
        <time>2012-09-23T10:53:28Z</time>
      </trkpt>
      <trkpt lat="43.18473" lon="1.5976">
        <ele>279</ele>
        <time>2012-09-23T10:53:30Z</time>
      </trkpt>
      <trkpt lat="43.18471" lon="1.59768">
        <ele>277</ele>
        <time>2012-09-23T10:53:32Z</time>
      </trkpt>
      <trkpt lat="43.18464" lon="1.59773">
        <ele>275</ele>
        <time>2012-09-23T10:53:34Z</time>
      </trkpt>
      <trkpt lat="43.18456" lon="1.59774">
        <ele>273</ele>
        <time>2012-09-23T10:53:36Z</time>
      </trkpt>
      <trkpt lat="43.18449" lon="1.59774">
        <ele>272</ele>
        <time>2012-09-23T10:53:38Z</time>
      </trkpt>
      <trkpt lat="43.18442" lon="1.5977">
        <ele>270</ele>
        <time>2012-09-23T10:53:40Z</time>
      </trkpt>
      <trkpt lat="43.18435" lon="1.59768">
        <ele>269</ele>
        <time>2012-09-23T10:53:42Z</time>
      </trkpt>
      <trkpt lat="43.18428" lon="1.59766">
        <ele>268</ele>
        <time>2012-09-23T10:53:44Z</time>
      </trkpt>
      <trkpt lat="43.18421" lon="1.59766">
        <ele>266</ele>
        <time>2012-09-23T10:53:46Z</time>
      </trkpt>
      <trkpt lat="43.18414" lon="1.59767">
        <ele>265</ele>
        <time>2012-09-23T10:53:48Z</time>
      </trkpt>
      <trkpt lat="43.18407" lon="1.5977">
        <ele>263</ele>
        <time>2012-09-23T10:53:50Z</time>
      </trkpt>
      <trkpt lat="43.18401" lon="1.59773">
        <ele>262</ele>
        <time>2012-09-23T10:53:52Z</time>
      </trkpt>
      <trkpt lat="43.18395" lon="1.59777">
        <ele>262</ele>
        <time>2012-09-23T10:53:54Z</time>
      </trkpt>
      <trkpt lat="43.18389" lon="1.59783">
        <ele>262</ele>
        <time>2012-09-23T10:53:56Z</time>
      </trkpt>
      <trkpt lat="43.18391" lon="1.59793">
        <ele>262</ele>
        <time>2012-09-23T10:53:58Z</time>
      </trkpt>
      <trkpt lat="43.18394" lon="1.59803">
        <ele>262</ele>
        <time>2012-09-23T10:54:00Z</time>
      </trkpt>
      <trkpt lat="43.18398" lon="1.59811">
        <ele>262</ele>
        <time>2012-09-23T10:54:02Z</time>
      </trkpt>
      <trkpt lat="43.184" lon="1.5982">
        <ele>261</ele>
        <time>2012-09-23T10:54:04Z</time>
      </trkpt>
      <trkpt lat="43.18402" lon="1.59828">
        <ele>260</ele>
        <time>2012-09-23T10:54:06Z</time>
      </trkpt>
      <trkpt lat="43.18405" lon="1.59837">
        <ele>260</ele>
        <time>2012-09-23T10:54:08Z</time>
      </trkpt>
      <trkpt lat="43.18408" lon="1.59845">
        <ele>259</ele>
        <time>2012-09-23T10:54:10Z</time>
      </trkpt>
      <trkpt lat="43.18412" lon="1.59852">
        <ele>258</ele>
        <time>2012-09-23T10:54:12Z</time>
      </trkpt>
      <trkpt lat="43.18418" lon="1.59857">
        <ele>257</ele>
        <time>2012-09-23T10:54:14Z</time>
      </trkpt>
      <trkpt lat="43.18425" lon="1.59862">
        <ele>256</ele>
        <time>2012-09-23T10:54:16Z</time>
      </trkpt>
      <trkpt lat="43.1843" lon="1.59866">
        <ele>256</ele>
        <time>2012-09-23T10:54:18Z</time>
      </trkpt>
      <trkpt lat="43.18436" lon="1.5987">
        <ele>256</ele>
        <time>2012-09-23T10:54:20Z</time>
      </trkpt>
      <trkpt lat="43.18443" lon="1.59874">
        <ele>256</ele>
        <time>2012-09-23T10:54:22Z</time>
      </trkpt>
      <trkpt lat="43.18448" lon="1.5988">
        <ele>256</ele>
        <time>2012-09-23T10:54:24Z</time>
      </trkpt>
      <trkpt lat="43.18452" lon="1.59887">
        <ele>256</ele>
        <time>2012-09-23T10:54:26Z</time>
      </trkpt>
      <trkpt lat="43.18453" lon="1.59895">
        <ele>256</ele>
        <time>2012-09-23T10:54:28Z</time>
      </trkpt>
      <trkpt lat="43.18454" lon="1.59903">
        <ele>256</ele>
        <time>2012-09-23T10:54:30Z</time>
      </trkpt>
      <trkpt lat="43.18452" lon="1.59912">
        <ele>256</ele>
        <time>2012-09-23T10:54:32Z</time>
      </trkpt>
      <trkpt lat="43.18446" lon="1.59919">
        <ele>256</ele>
        <time>2012-09-23T10:54:34Z</time>
      </trkpt>
      <trkpt lat="43.18439" lon="1.59922">
        <ele>256</ele>
        <time>2012-09-23T10:54:36Z</time>
      </trkpt>
      <trkpt lat="43.18432" lon="1.59921">
        <ele>256</ele>
        <time>2012-09-23T10:54:38Z</time>
      </trkpt>
      <trkpt lat="43.18425" lon="1.59919">
        <ele>256</ele>
        <time>2012-09-23T10:54:40Z</time>
      </trkpt>
      <trkpt lat="43.1842" lon="1.59917">
        <ele>256</ele>
        <time>2012-09-23T10:54:42Z</time>
      </trkpt>
      <trkpt lat="43.18414" lon="1.59914">
        <ele>256</ele>
        <time>2012-09-23T10:54:44Z</time>
      </trkpt>
      <trkpt lat="43.18408" lon="1.5991">
        <ele>256</ele>
        <time>2012-09-23T10:54:46Z</time>
      </trkpt>
      <trkpt lat="43.18403" lon="1.59907">
        <ele>256</ele>
        <time>2012-09-23T10:54:48Z</time>
      </trkpt>
      <trkpt lat="43.18398" lon="1.59902">
        <ele>256</ele>
        <time>2012-09-23T10:54:50Z</time>
      </trkpt>
      <trkpt lat="43.18393" lon="1.59897">
        <ele>256</ele>
        <time>2012-09-23T10:54:52Z</time>
      </trkpt>
      <trkpt lat="43.18388" lon="1.59893">
        <ele>256</ele>
        <time>2012-09-23T10:54:54Z</time>
      </trkpt>
      <trkpt lat="43.18383" lon="1.5989">
        <ele>256</ele>
        <time>2012-09-23T10:54:56Z</time>
      </trkpt>
      <trkpt lat="43.18377" lon="1.59887">
        <ele>256</ele>
        <time>2012-09-23T10:54:58Z</time>
      </trkpt>
      <trkpt lat="43.18372" lon="1.59884">
        <ele>256</ele>
        <time>2012-09-23T10:55:00Z</time>
      </trkpt>
      <trkpt lat="43.18366" lon="1.59881">
        <ele>256</ele>
        <time>2012-09-23T10:55:02Z</time>
      </trkpt>
      <trkpt lat="43.18361" lon="1.59878">
        <ele>256</ele>
        <time>2012-09-23T10:55:04Z</time>
      </trkpt>
      <trkpt lat="43.18357" lon="1.59876">
        <ele>256</ele>
        <time>2012-09-23T10:55:06Z</time>
      </trkpt>
      <trkpt lat="43.18352" lon="1.59879">
        <ele>256</ele>
        <time>2012-09-23T10:55:08Z</time>
      </trkpt>
      <trkpt lat="43.18349" lon="1.59884">
        <ele>254</ele>
        <time>2012-09-23T10:55:10Z</time>
      </trkpt>
      <trkpt lat="43.18345" lon="1.5989">
        <ele>252</ele>
        <time>2012-09-23T10:55:12Z</time>
      </trkpt>
      <trkpt lat="43.18343" lon="1.59897">
        <ele>252</ele>
        <time>2012-09-23T10:55:14Z</time>
      </trkpt>
      <trkpt lat="43.1834" lon="1.59904">
        <ele>251</ele>
        <time>2012-09-23T10:55:16Z</time>
      </trkpt>
      <trkpt lat="43.18336" lon="1.59911">
        <ele>251</ele>
        <time>2012-09-23T10:55:18Z</time>
      </trkpt>
      <trkpt lat="43.18333" lon="1.59918">
        <ele>251</ele>
        <time>2012-09-23T10:55:20Z</time>
      </trkpt>
      <trkpt lat="43.1833" lon="1.59926">
        <ele>251</ele>
        <time>2012-09-23T10:55:22Z</time>
      </trkpt>
      <trkpt lat="43.18326" lon="1.59933">
        <ele>251</ele>
        <time>2012-09-23T10:55:24Z</time>
      </trkpt>
      <trkpt lat="43.18322" lon="1.59939">
        <ele>251</ele>
        <time>2012-09-23T10:55:26Z</time>
      </trkpt>
      <trkpt lat="43.18319" lon="1.59946">
        <ele>251</ele>
        <time>2012-09-23T10:55:28Z</time>
      </trkpt>
      <trkpt lat="43.18317" lon="1.59953">
        <ele>251</ele>
        <time>2012-09-23T10:55:30Z</time>
      </trkpt>
      <trkpt lat="43.18315" lon="1.59959">
        <ele>250</ele>
        <time>2012-09-23T10:55:32Z</time>
      </trkpt>
      <trkpt lat="43.18312" lon="1.59967">
        <ele>250</ele>
        <time>2012-09-23T10:55:34Z</time>
      </trkpt>
      <trkpt lat="43.1831" lon="1.59974">
        <ele>249</ele>
        <time>2012-09-23T10:55:36Z</time>
      </trkpt>
      <trkpt lat="43.18308" lon="1.59982">
        <ele>249</ele>
        <time>2012-09-23T10:55:38Z</time>
      </trkpt>
      <trkpt lat="43.18306" lon="1.59989">
        <ele>249</ele>
        <time>2012-09-23T10:55:40Z</time>
      </trkpt>
      <trkpt lat="43.18304" lon="1.59997">
        <ele>249</ele>
        <time>2012-09-23T10:55:42Z</time>
      </trkpt>
      <trkpt lat="43.18304" lon="1.60003">
        <ele>249</ele>
        <time>2012-09-23T10:55:44Z</time>
      </trkpt>
      <trkpt lat="43.18304" lon="1.60011">
        <ele>249</ele>
        <time>2012-09-23T10:55:46Z</time>
      </trkpt>
      <trkpt lat="43.18306" lon="1.60018">
        <ele>249</ele>
        <time>2012-09-23T10:55:48Z</time>
      </trkpt>
      <trkpt lat="43.18306" lon="1.60024">
        <ele>249</ele>
        <time>2012-09-23T10:55:50Z</time>
      </trkpt>
      <trkpt lat="43.18307" lon="1.6003">
        <ele>249</ele>
        <time>2012-09-23T10:55:52Z</time>
      </trkpt>
      <trkpt lat="43.18309" lon="1.60036">
        <ele>249</ele>
        <time>2012-09-23T10:55:54Z</time>
      </trkpt>
      <trkpt lat="43.18312" lon="1.60042">
        <ele>249</ele>
        <time>2012-09-23T10:55:56Z</time>
      </trkpt>
      <trkpt lat="43.18316" lon="1.60047">
        <ele>249</ele>
        <time>2012-09-23T10:55:58Z</time>
      </trkpt>
      <trkpt lat="43.1832" lon="1.60053">
        <ele>249</ele>
        <time>2012-09-23T10:56:00Z</time>
      </trkpt>
      <trkpt lat="43.18323" lon="1.60059">
        <ele>249</ele>
        <time>2012-09-23T10:56:02Z</time>
      </trkpt>
      <trkpt lat="43.18326" lon="1.60065">
        <ele>249</ele>
        <time>2012-09-23T10:56:04Z</time>
      </trkpt>
      <trkpt lat="43.18328" lon="1.60071">
        <ele>249</ele>
        <time>2012-09-23T10:56:06Z</time>
      </trkpt>
      <trkpt lat="43.18332" lon="1.60076">
        <ele>249</ele>
        <time>2012-09-23T10:56:08Z</time>
      </trkpt>
      <trkpt lat="43.18335" lon="1.60081">
        <ele>249</ele>
        <time>2012-09-23T10:56:10Z</time>
      </trkpt>
      <trkpt lat="43.18338" lon="1.60086">
        <ele>249</ele>
        <time>2012-09-23T10:56:12Z</time>
      </trkpt>
      <trkpt lat="43.18341" lon="1.60091">
        <ele>249</ele>
        <time>2012-09-23T10:56:14Z</time>
      </trkpt>
      <trkpt lat="43.18344" lon="1.60093">
        <ele>249</ele>
        <time>2012-09-23T10:56:16Z</time>
      </trkpt>
      <trkpt lat="43.18347" lon="1.60095">
        <ele>249</ele>
        <time>2012-09-23T10:56:19Z</time>
      </trkpt>
      <trkpt lat="43.18349" lon="1.60098">
        <ele>249</ele>
        <time>2012-09-23T10:56:21Z</time>
      </trkpt>
      <trkpt lat="43.18351" lon="1.60101">
        <ele>250</ele>
        <time>2012-09-23T10:56:23Z</time>
      </trkpt>
      <trkpt lat="43.18353" lon="1.60104">
        <ele>251</ele>
        <time>2012-09-23T10:56:25Z</time>
      </trkpt>
      <trkpt lat="43.18354" lon="1.60107">
        <ele>252</ele>
        <time>2012-09-23T10:56:27Z</time>
      </trkpt>
      <trkpt lat="43.18356" lon="1.6011">
        <ele>252</ele>
        <time>2012-09-23T10:56:29Z</time>
      </trkpt>
      <trkpt lat="43.18357" lon="1.60113">
        <ele>252</ele>
        <time>2012-09-23T10:56:31Z</time>
      </trkpt>
      <trkpt lat="43.18359" lon="1.60115">
        <ele>252</ele>
        <time>2012-09-23T10:56:33Z</time>
      </trkpt>
      <trkpt lat="43.1836" lon="1.60117">
        <ele>252</ele>
        <time>2012-09-23T10:56:35Z</time>
      </trkpt>
      <trkpt lat="43.18362" lon="1.6012">
        <ele>252</ele>
        <time>2012-09-23T10:56:37Z</time>
      </trkpt>
      <trkpt lat="43.18364" lon="1.60123">
        <ele>252</ele>
        <time>2012-09-23T10:56:39Z</time>
      </trkpt>
      <trkpt lat="43.18367" lon="1.60126">
        <ele>252</ele>
        <time>2012-09-23T10:56:42Z</time>
      </trkpt>
      <trkpt lat="43.18368" lon="1.60128">
        <ele>252</ele>
        <time>2012-09-23T10:56:44Z</time>
      </trkpt>
      <trkpt lat="43.1837" lon="1.60132">
        <ele>252</ele>
        <time>2012-09-23T10:56:47Z</time>
      </trkpt>
      <trkpt lat="43.18372" lon="1.60135">
        <ele>253</ele>
        <time>2012-09-23T10:56:49Z</time>
      </trkpt>
      <trkpt lat="43.18375" lon="1.60137">
        <ele>255</ele>
        <time>2012-09-23T10:56:52Z</time>
      </trkpt>
      <trkpt lat="43.18377" lon="1.60138">
        <ele>255</ele>
        <time>2012-09-23T10:56:54Z</time>
      </trkpt>
      <trkpt lat="43.1838" lon="1.6014">
        <ele>256</ele>
        <time>2012-09-23T10:56:56Z</time>
      </trkpt>
      <trkpt lat="43.18383" lon="1.60142">
        <ele>257</ele>
        <time>2012-09-23T10:56:58Z</time>
      </trkpt>
      <trkpt lat="43.18385" lon="1.60143">
        <ele>258</ele>
        <time>2012-09-23T10:57:00Z</time>
      </trkpt>
      <trkpt lat="43.18388" lon="1.60144">
        <ele>258</ele>
        <time>2012-09-23T10:57:02Z</time>
      </trkpt>
      <trkpt lat="43.18392" lon="1.60146">
        <ele>258</ele>
        <time>2012-09-23T10:57:04Z</time>
      </trkpt>
      <trkpt lat="43.18397" lon="1.60149">
        <ele>258</ele>
        <time>2012-09-23T10:57:06Z</time>
      </trkpt>
      <trkpt lat="43.18402" lon="1.60152">
        <ele>258</ele>
        <time>2012-09-23T10:57:08Z</time>
      </trkpt>
      <trkpt lat="43.18408" lon="1.60154">
        <ele>259</ele>
        <time>2012-09-23T10:57:10Z</time>
      </trkpt>
      <trkpt lat="43.18413" lon="1.60157">
        <ele>259</ele>
        <time>2012-09-23T10:57:12Z</time>
      </trkpt>
      <trkpt lat="43.18418" lon="1.60159">
        <ele>259</ele>
        <time>2012-09-23T10:57:14Z</time>
      </trkpt>
      <trkpt lat="43.18423" lon="1.60162">
        <ele>259</ele>
        <time>2012-09-23T10:57:16Z</time>
      </trkpt>
      <trkpt lat="43.18428" lon="1.60166">
        <ele>259</ele>
        <time>2012-09-23T10:57:18Z</time>
      </trkpt>
      <trkpt lat="43.18433" lon="1.60169">
        <ele>259</ele>
        <time>2012-09-23T10:57:20Z</time>
      </trkpt>
      <trkpt lat="43.18439" lon="1.6017">
        <ele>259</ele>
        <time>2012-09-23T10:57:22Z</time>
      </trkpt>
      <trkpt lat="43.18446" lon="1.60172">
        <ele>261</ele>
        <time>2012-09-23T10:57:24Z</time>
      </trkpt>
      <trkpt lat="43.18451" lon="1.60175">
        <ele>261</ele>
        <time>2012-09-23T10:57:26Z</time>
      </trkpt>
      <trkpt lat="43.18457" lon="1.60177">
        <ele>261</ele>
        <time>2012-09-23T10:57:28Z</time>
      </trkpt>
      <trkpt lat="43.18464" lon="1.60178">
        <ele>261</ele>
        <time>2012-09-23T10:57:30Z</time>
      </trkpt>
      <trkpt lat="43.18469" lon="1.6018">
        <ele>261</ele>
        <time>2012-09-23T10:57:32Z</time>
      </trkpt>
      <trkpt lat="43.18473" lon="1.60183">
        <ele>262</ele>
        <time>2012-09-23T10:57:34Z</time>
      </trkpt>
      <trkpt lat="43.18478" lon="1.60185">
        <ele>263</ele>
        <time>2012-09-23T10:57:36Z</time>
      </trkpt>
      <trkpt lat="43.18483" lon="1.60186">
        <ele>264</ele>
        <time>2012-09-23T10:57:38Z</time>
      </trkpt>
      <trkpt lat="43.18488" lon="1.60189">
        <ele>264</ele>
        <time>2012-09-23T10:57:40Z</time>
      </trkpt>
      <trkpt lat="43.18493" lon="1.60192">
        <ele>265</ele>
        <time>2012-09-23T10:57:42Z</time>
      </trkpt>
      <trkpt lat="43.18498" lon="1.60194">
        <ele>267</ele>
        <time>2012-09-23T10:57:44Z</time>
      </trkpt>
      <trkpt lat="43.18503" lon="1.60195">
        <ele>269</ele>
        <time>2012-09-23T10:57:46Z</time>
      </trkpt>
      <trkpt lat="43.18508" lon="1.60197">
        <ele>270</ele>
        <time>2012-09-23T10:57:48Z</time>
      </trkpt>
      <trkpt lat="43.18514" lon="1.60197">
        <ele>270</ele>
        <time>2012-09-23T10:57:50Z</time>
      </trkpt>
      <trkpt lat="43.1852" lon="1.60198">
        <ele>271</ele>
        <time>2012-09-23T10:57:52Z</time>
      </trkpt>
      <trkpt lat="43.18525" lon="1.60199">
        <ele>271</ele>
        <time>2012-09-23T10:57:54Z</time>
      </trkpt>
      <trkpt lat="43.18531" lon="1.60202">
        <ele>271</ele>
        <time>2012-09-23T10:57:56Z</time>
      </trkpt>
      <trkpt lat="43.18536" lon="1.60204">
        <ele>271</ele>
        <time>2012-09-23T10:57:58Z</time>
      </trkpt>
      <trkpt lat="43.18542" lon="1.60208">
        <ele>271</ele>
        <time>2012-09-23T10:58:00Z</time>
      </trkpt>
      <trkpt lat="43.18546" lon="1.60213">
        <ele>271</ele>
        <time>2012-09-23T10:58:02Z</time>
      </trkpt>
      <trkpt lat="43.18549" lon="1.60219">
        <ele>271</ele>
        <time>2012-09-23T10:58:04Z</time>
      </trkpt>
      <trkpt lat="43.18553" lon="1.60227">
        <ele>271</ele>
        <time>2012-09-23T10:58:06Z</time>
      </trkpt>
      <trkpt lat="43.18557" lon="1.60231">
        <ele>271</ele>
        <time>2012-09-23T10:58:08Z</time>
      </trkpt>
      <trkpt lat="43.18562" lon="1.60235">
        <ele>271</ele>
        <time>2012-09-23T10:58:10Z</time>
      </trkpt>
      <trkpt lat="43.18566" lon="1.60237">
        <ele>271</ele>
        <time>2012-09-23T10:58:12Z</time>
      </trkpt>
      <trkpt lat="43.18572" lon="1.6024">
        <ele>270</ele>
        <time>2012-09-23T10:58:14Z</time>
      </trkpt>
      <trkpt lat="43.18578" lon="1.60241">
        <ele>270</ele>
        <time>2012-09-23T10:58:16Z</time>
      </trkpt>
      <trkpt lat="43.18586" lon="1.60241">
        <ele>270</ele>
        <time>2012-09-23T10:58:18Z</time>
      </trkpt>
      <trkpt lat="43.18591" lon="1.60243">
        <ele>270</ele>
        <time>2012-09-23T10:58:20Z</time>
      </trkpt>
      <trkpt lat="43.18596" lon="1.60245">
        <ele>270</ele>
        <time>2012-09-23T10:58:22Z</time>
      </trkpt>
      <trkpt lat="43.18602" lon="1.60245">
        <ele>270</ele>
        <time>2012-09-23T10:58:24Z</time>
      </trkpt>
      <trkpt lat="43.18606" lon="1.60243">
        <ele>269</ele>
        <time>2012-09-23T10:58:26Z</time>
      </trkpt>
      <trkpt lat="43.1861" lon="1.60239">
        <ele>268</ele>
        <time>2012-09-23T10:58:28Z</time>
      </trkpt>
      <trkpt lat="43.18614" lon="1.60235">
        <ele>266</ele>
        <time>2012-09-23T10:58:30Z</time>
      </trkpt>
      <trkpt lat="43.18618" lon="1.6023">
        <ele>264</ele>
        <time>2012-09-23T10:58:32Z</time>
      </trkpt>
      <trkpt lat="43.18621" lon="1.60224">
        <ele>262</ele>
        <time>2012-09-23T10:58:34Z</time>
      </trkpt>
      <trkpt lat="43.18624" lon="1.60218">
        <ele>260</ele>
        <time>2012-09-23T10:58:36Z</time>
      </trkpt>
      <trkpt lat="43.18626" lon="1.60211">
        <ele>259</ele>
        <time>2012-09-23T10:58:38Z</time>
      </trkpt>
      <trkpt lat="43.18629" lon="1.60204">
        <ele>258</ele>
        <time>2012-09-23T10:58:40Z</time>
      </trkpt>
      <trkpt lat="43.18631" lon="1.60196">
        <ele>257</ele>
        <time>2012-09-23T10:58:42Z</time>
      </trkpt>
      <trkpt lat="43.18632" lon="1.60189">
        <ele>256</ele>
        <time>2012-09-23T10:58:44Z</time>
      </trkpt>
      <trkpt lat="43.18635" lon="1.60184">
        <ele>254</ele>
        <time>2012-09-23T10:58:46Z</time>
      </trkpt>
      <trkpt lat="43.18638" lon="1.60178">
        <ele>254</ele>
        <time>2012-09-23T10:58:48Z</time>
      </trkpt>
      <trkpt lat="43.18639" lon="1.6017">
        <ele>253</ele>
        <time>2012-09-23T10:58:50Z</time>
      </trkpt>
      <trkpt lat="43.18642" lon="1.60163">
        <ele>252</ele>
        <time>2012-09-23T10:58:52Z</time>
      </trkpt>
      <trkpt lat="43.18645" lon="1.60155">
        <ele>251</ele>
        <time>2012-09-23T10:58:54Z</time>
      </trkpt>
      <trkpt lat="43.18648" lon="1.60148">
        <ele>251</ele>
        <time>2012-09-23T10:58:56Z</time>
      </trkpt>
      <trkpt lat="43.18652" lon="1.60143">
        <ele>251</ele>
        <time>2012-09-23T10:58:58Z</time>
      </trkpt>
      <trkpt lat="43.18655" lon="1.60136">
        <ele>251</ele>
        <time>2012-09-23T10:59:00Z</time>
      </trkpt>
      <trkpt lat="43.18658" lon="1.60129">
        <ele>251</ele>
        <time>2012-09-23T10:59:02Z</time>
      </trkpt>
      <trkpt lat="43.18662" lon="1.60123">
        <ele>251</ele>
        <time>2012-09-23T10:59:04Z</time>
      </trkpt>
      <trkpt lat="43.18665" lon="1.60117">
        <ele>251</ele>
        <time>2012-09-23T10:59:06Z</time>
      </trkpt>
      <trkpt lat="43.18668" lon="1.6011">
        <ele>251</ele>
        <time>2012-09-23T10:59:08Z</time>
      </trkpt>
      <trkpt lat="43.18672" lon="1.60106">
        <ele>251</ele>
        <time>2012-09-23T10:59:10Z</time>
      </trkpt>
      <trkpt lat="43.18676" lon="1.601">
        <ele>251</ele>
        <time>2012-09-23T10:59:12Z</time>
      </trkpt>
      <trkpt lat="43.18679" lon="1.60094">
        <ele>251</ele>
        <time>2012-09-23T10:59:14Z</time>
      </trkpt>
      <trkpt lat="43.18682" lon="1.60088">
        <ele>251</ele>
        <time>2012-09-23T10:59:16Z</time>
      </trkpt>
      <trkpt lat="43.18687" lon="1.60083">
        <ele>251</ele>
        <time>2012-09-23T10:59:18Z</time>
      </trkpt>
      <trkpt lat="43.18691" lon="1.60079">
        <ele>251</ele>
        <time>2012-09-23T10:59:20Z</time>
      </trkpt>
      <trkpt lat="43.18696" lon="1.60075">
        <ele>251</ele>
        <time>2012-09-23T10:59:22Z</time>
      </trkpt>
      <trkpt lat="43.187" lon="1.6007">
        <ele>251</ele>
        <time>2012-09-23T10:59:24Z</time>
      </trkpt>
      <trkpt lat="43.18703" lon="1.60063">
        <ele>250</ele>
        <time>2012-09-23T10:59:26Z</time>
      </trkpt>
      <trkpt lat="43.18705" lon="1.60055">
        <ele>248</ele>
        <time>2012-09-23T10:59:28Z</time>
      </trkpt>
      <trkpt lat="43.18708" lon="1.60049">
        <ele>246</ele>
        <time>2012-09-23T10:59:30Z</time>
      </trkpt>
      <trkpt lat="43.18712" lon="1.60043">
        <ele>244</ele>
        <time>2012-09-23T10:59:32Z</time>
      </trkpt>
      <trkpt lat="43.18715" lon="1.60036">
        <ele>243</ele>
        <time>2012-09-23T10:59:34Z</time>
      </trkpt>
      <trkpt lat="43.18718" lon="1.6003">
        <ele>241</ele>
        <time>2012-09-23T10:59:36Z</time>
      </trkpt>
      <trkpt lat="43.18723" lon="1.60024">
        <ele>241</ele>
        <time>2012-09-23T10:59:38Z</time>
      </trkpt>
      <trkpt lat="43.18727" lon="1.60019">
        <ele>241</ele>
        <time>2012-09-23T10:59:40Z</time>
      </trkpt>
      <trkpt lat="43.18732" lon="1.60014">
        <ele>240</ele>
        <time>2012-09-23T10:59:42Z</time>
      </trkpt>
      <trkpt lat="43.18736" lon="1.60009">
        <ele>240</ele>
        <time>2012-09-23T10:59:44Z</time>
      </trkpt>
      <trkpt lat="43.18741" lon="1.60004">
        <ele>240</ele>
        <time>2012-09-23T10:59:46Z</time>
      </trkpt>
      <trkpt lat="43.18746" lon="1.59999">
        <ele>240</ele>
        <time>2012-09-23T10:59:48Z</time>
      </trkpt>
      <trkpt lat="43.18752" lon="1.59995">
        <ele>240</ele>
        <time>2012-09-23T10:59:50Z</time>
      </trkpt>
      <trkpt lat="43.18757" lon="1.59992">
        <ele>240</ele>
        <time>2012-09-23T10:59:52Z</time>
      </trkpt>
      <trkpt lat="43.18762" lon="1.59989">
        <ele>240</ele>
        <time>2012-09-23T10:59:54Z</time>
      </trkpt>
      <trkpt lat="43.18768" lon="1.59986">
        <ele>240</ele>
        <time>2012-09-23T10:59:56Z</time>
      </trkpt>
      <trkpt lat="43.18774" lon="1.59985">
        <ele>240</ele>
        <time>2012-09-23T10:59:58Z</time>
      </trkpt>
      <trkpt lat="43.1878" lon="1.59981">
        <ele>240</ele>
        <time>2012-09-23T11:00:00Z</time>
      </trkpt>
      <trkpt lat="43.18787" lon="1.59976">
        <ele>241</ele>
        <time>2012-09-23T11:00:02Z</time>
      </trkpt>
      <trkpt lat="43.18793" lon="1.5997">
        <ele>242</ele>
        <time>2012-09-23T11:00:04Z</time>
      </trkpt>
      <trkpt lat="43.18799" lon="1.59965">
        <ele>243</ele>
        <time>2012-09-23T11:00:06Z</time>
      </trkpt>
      <trkpt lat="43.18805" lon="1.5996">
        <ele>243</ele>
        <time>2012-09-23T11:00:08Z</time>
      </trkpt>
      <trkpt lat="43.1881" lon="1.59956">
        <ele>244</ele>
        <time>2012-09-23T11:00:10Z</time>
      </trkpt>
      <trkpt lat="43.18815" lon="1.59953">
        <ele>244</ele>
        <time>2012-09-23T11:00:12Z</time>
      </trkpt>
      <trkpt lat="43.18823" lon="1.59946">
        <ele>244</ele>
        <time>2012-09-23T11:00:15Z</time>
      </trkpt>
      <trkpt lat="43.18829" lon="1.59941">
        <ele>244</ele>
        <time>2012-09-23T11:00:17Z</time>
      </trkpt>
      <trkpt lat="43.18834" lon="1.59936">
        <ele>244</ele>
        <time>2012-09-23T11:00:19Z</time>
      </trkpt>
      <trkpt lat="43.18839" lon="1.59932">
        <ele>244</ele>
        <time>2012-09-23T11:00:21Z</time>
      </trkpt>
      <trkpt lat="43.18844" lon="1.59928">
        <ele>244</ele>
        <time>2012-09-23T11:00:23Z</time>
      </trkpt>
      <trkpt lat="43.18849" lon="1.59923">
        <ele>244</ele>
        <time>2012-09-23T11:00:25Z</time>
      </trkpt>
      <trkpt lat="43.18855" lon="1.59918">
        <ele>244</ele>
        <time>2012-09-23T11:00:27Z</time>
      </trkpt>
      <trkpt lat="43.18863" lon="1.59911">
        <ele>244</ele>
        <time>2012-09-23T11:00:30Z</time>
      </trkpt>
      <trkpt lat="43.18869" lon="1.59907">
        <ele>244</ele>
        <time>2012-09-23T11:00:32Z</time>
      </trkpt>
      <trkpt lat="43.18878" lon="1.59905">
        <ele>244</ele>
        <time>2012-09-23T11:00:35Z</time>
      </trkpt>
      <trkpt lat="43.18884" lon="1.59906">
        <ele>244</ele>
        <time>2012-09-23T11:00:37Z</time>
      </trkpt>
      <trkpt lat="43.1889" lon="1.59909">
        <ele>244</ele>
        <time>2012-09-23T11:00:39Z</time>
      </trkpt>
      <trkpt lat="43.18899" lon="1.59913">
        <ele>244</ele>
        <time>2012-09-23T11:00:42Z</time>
      </trkpt>
      <trkpt lat="43.18905" lon="1.59916">
        <ele>244</ele>
        <time>2012-09-23T11:00:44Z</time>
      </trkpt>
      <trkpt lat="43.1891" lon="1.59919">
        <ele>244</ele>
        <time>2012-09-23T11:00:46Z</time>
      </trkpt>
      <trkpt lat="43.18916" lon="1.59922">
        <ele>245</ele>
        <time>2012-09-23T11:00:48Z</time>
      </trkpt>
      <trkpt lat="43.18922" lon="1.59924">
        <ele>245</ele>
        <time>2012-09-23T11:00:50Z</time>
      </trkpt>
      <trkpt lat="43.18927" lon="1.59926">
        <ele>245</ele>
        <time>2012-09-23T11:00:52Z</time>
      </trkpt>
      <trkpt lat="43.18932" lon="1.59929">
        <ele>246</ele>
        <time>2012-09-23T11:00:54Z</time>
      </trkpt>
      <trkpt lat="43.18938" lon="1.59932">
        <ele>247</ele>
        <time>2012-09-23T11:00:56Z</time>
      </trkpt>
      <trkpt lat="43.18945" lon="1.59937">
        <ele>250</ele>
        <time>2012-09-23T11:00:59Z</time>
      </trkpt>
      <trkpt lat="43.18952" lon="1.59944">
        <ele>252</ele>
        <time>2012-09-23T11:01:02Z</time>
      </trkpt>
      <trkpt lat="43.18954" lon="1.59951">
        <ele>252</ele>
        <time>2012-09-23T11:01:04Z</time>
      </trkpt>
      <trkpt lat="43.18954" lon="1.59958">
        <ele>252</ele>
        <time>2012-09-23T11:01:06Z</time>
      </trkpt>
      <trkpt lat="43.18953" lon="1.59964">
        <ele>252</ele>
        <time>2012-09-23T11:01:08Z</time>
      </trkpt>
      <trkpt lat="43.18953" lon="1.59972">
        <ele>252</ele>
        <time>2012-09-23T11:01:10Z</time>
      </trkpt>
      <trkpt lat="43.18951" lon="1.59978">
        <ele>250</ele>
        <time>2012-09-23T11:01:12Z</time>
      </trkpt>
      <trkpt lat="43.18949" lon="1.59985">
        <ele>249</ele>
        <time>2012-09-23T11:01:14Z</time>
      </trkpt>
      <trkpt lat="43.18948" lon="1.59992">
        <ele>249</ele>
        <time>2012-09-23T11:01:16Z</time>
      </trkpt>
      <trkpt lat="43.18949" lon="1.59998">
        <ele>249</ele>
        <time>2012-09-23T11:01:18Z</time>
      </trkpt>
      <trkpt lat="43.1895" lon="1.60002">
        <ele>249</ele>
        <time>2012-09-23T11:01:20Z</time>
      </trkpt>
      <trkpt lat="43.18952" lon="1.60005">
        <ele>248</ele>
        <time>2012-09-23T11:01:22Z</time>
      </trkpt>
      <trkpt lat="43.18954" lon="1.60007">
        <ele>248</ele>
        <time>2012-09-23T11:01:24Z</time>
      </trkpt>
      <trkpt lat="43.18958" lon="1.60008">
        <ele>248</ele>
        <time>2012-09-23T11:01:26Z</time>
      </trkpt>
      <trkpt lat="43.18959" lon="1.60008">
        <ele>248</ele>
        <time>2012-09-23T11:01:28Z</time>
      </trkpt>
      <trkpt lat="43.18961" lon="1.6001">
        <ele>248</ele>
        <time>2012-09-23T11:01:30Z</time>
      </trkpt>
      <trkpt lat="43.18961" lon="1.60013">
        <ele>248</ele>
        <time>2012-09-23T11:01:32Z</time>
      </trkpt>
      <trkpt lat="43.18962" lon="1.60015">
        <ele>248</ele>
        <time>2012-09-23T11:01:35Z</time>
      </trkpt>
      <trkpt lat="43.18963" lon="1.60014">
        <ele>248</ele>
        <time>2012-09-23T11:01:44Z</time>
      </trkpt>
      <trkpt lat="43.18962" lon="1.60013">
        <ele>248</ele>
        <time>2012-09-23T11:01:52Z</time>
      </trkpt>
      <trkpt lat="43.1896" lon="1.60013">
        <ele>248</ele>
        <time>2012-09-23T11:01:54Z</time>
      </trkpt>
      <trkpt lat="43.1896" lon="1.60014">
        <ele>246</ele>
        <time>2012-09-23T11:02:56Z</time>
      </trkpt>
      <trkpt lat="43.1896" lon="1.60016">
        <ele>245</ele>
        <time>2012-09-23T11:03:10Z</time>
      </trkpt>
      <trkpt lat="43.18961" lon="1.60016">
        <ele>245</ele>
        <time>2012-09-23T11:03:20Z</time>
      </trkpt>
      <trkpt lat="43.18961" lon="1.60018">
        <ele>245</ele>
        <time>2012-09-23T11:03:23Z</time>
      </trkpt>
      <trkpt lat="43.18962" lon="1.60019">
        <ele>245</ele>
        <time>2012-09-23T11:03:41Z</time>
      </trkpt>
      <trkpt lat="43.18963" lon="1.60019">
        <ele>244</ele>
        <time>2012-09-23T11:03:49Z</time>
      </trkpt>
      <trkpt lat="43.18962" lon="1.60018">
        <ele>244</ele>
        <time>2012-09-23T11:03:53Z</time>
      </trkpt>
      <trkpt lat="43.18962" lon="1.60021">
        <ele>243</ele>
        <time>2012-09-23T11:04:01Z</time>
      </trkpt>
      <trkpt lat="43.18961" lon="1.60025">
        <ele>243</ele>
        <time>2012-09-23T11:04:04Z</time>
      </trkpt>
      <trkpt lat="43.18959" lon="1.60029">
        <ele>243</ele>
        <time>2012-09-23T11:04:07Z</time>
      </trkpt>
      <trkpt lat="43.18958" lon="1.60032">
        <ele>243</ele>
        <time>2012-09-23T11:04:09Z</time>
      </trkpt>
      <trkpt lat="43.18956" lon="1.60035">
        <ele>243</ele>
        <time>2012-09-23T11:04:11Z</time>
      </trkpt>
      <trkpt lat="43.18955" lon="1.60038">
        <ele>243</ele>
        <time>2012-09-23T11:04:13Z</time>
      </trkpt>
      <trkpt lat="43.18953" lon="1.60042">
        <ele>243</ele>
        <time>2012-09-23T11:04:16Z</time>
      </trkpt>
      <trkpt lat="43.18952" lon="1.60045">
        <ele>243</ele>
        <time>2012-09-23T11:04:18Z</time>
      </trkpt>
      <trkpt lat="43.18952" lon="1.60046">
        <ele>243</ele>
        <time>2012-09-23T11:04:22Z</time>
      </trkpt>
      <trkpt lat="43.18951" lon="1.60048">
        <ele>243</ele>
        <time>2012-09-23T11:04:56Z</time>
      </trkpt>
      <trkpt lat="43.18953" lon="1.60047">
        <ele>246</ele>
        <time>2012-09-23T11:05:15Z</time>
      </trkpt>
      <trkpt lat="43.18954" lon="1.60047">
        <ele>246</ele>
        <time>2012-09-23T11:05:18Z</time>
      </trkpt>
      <trkpt lat="43.18957" lon="1.60048">
        <ele>246</ele>
        <time>2012-09-23T11:05:20Z</time>
      </trkpt>
      <trkpt lat="43.18962" lon="1.6005">
        <ele>246</ele>
        <time>2012-09-23T11:05:22Z</time>
      </trkpt>
      <trkpt lat="43.18968" lon="1.60052">
        <ele>246</ele>
        <time>2012-09-23T11:05:24Z</time>
      </trkpt>
      <trkpt lat="43.18974" lon="1.60054">
        <ele>246</ele>
        <time>2012-09-23T11:05:26Z</time>
      </trkpt>
      <trkpt lat="43.1898" lon="1.60055">
        <ele>246</ele>
        <time>2012-09-23T11:05:28Z</time>
      </trkpt>
      <trkpt lat="43.18987" lon="1.60056">
        <ele>246</ele>
        <time>2012-09-23T11:05:30Z</time>
      </trkpt>
      <trkpt lat="43.18997" lon="1.60057">
        <ele>246</ele>
        <time>2012-09-23T11:05:33Z</time>
      </trkpt>
      <trkpt lat="43.19004" lon="1.60057">
        <ele>246</ele>
        <time>2012-09-23T11:05:35Z</time>
      </trkpt>
      <trkpt lat="43.1901" lon="1.60058">
        <ele>246</ele>
        <time>2012-09-23T11:05:37Z</time>
      </trkpt>
      <trkpt lat="43.19016" lon="1.60058">
        <ele>247</ele>
        <time>2012-09-23T11:05:39Z</time>
      </trkpt>
      <trkpt lat="43.19021" lon="1.60061">
        <ele>248</ele>
        <time>2012-09-23T11:05:45Z</time>
      </trkpt>
      <trkpt lat="43.19021" lon="1.60063">
        <ele>248</ele>
        <time>2012-09-23T11:05:48Z</time>
      </trkpt>
      <trkpt lat="43.19023" lon="1.60064">
        <ele>248</ele>
        <time>2012-09-23T11:05:51Z</time>
      </trkpt>
      <trkpt lat="43.19024" lon="1.60065">
        <ele>248</ele>
        <time>2012-09-23T11:05:54Z</time>
      </trkpt>
      <trkpt lat="43.19025" lon="1.60067">
        <ele>248</ele>
        <time>2012-09-23T11:05:58Z</time>
      </trkpt>
      <trkpt lat="43.19025" lon="1.60069">
        <ele>248</ele>
        <time>2012-09-23T11:06:00Z</time>
      </trkpt>
      <trkpt lat="43.19025" lon="1.60072">
        <ele>248</ele>
        <time>2012-09-23T11:06:03Z</time>
      </trkpt>
      <trkpt lat="43.19024" lon="1.60074">
        <ele>248</ele>
        <time>2012-09-23T11:06:05Z</time>
      </trkpt>
      <trkpt lat="43.19022" lon="1.60076">
        <ele>248</ele>
        <time>2012-09-23T11:06:07Z</time>
      </trkpt>
      <trkpt lat="43.1902" lon="1.60078">
        <ele>248</ele>
        <time>2012-09-23T11:06:09Z</time>
      </trkpt>
      <trkpt lat="43.19018" lon="1.60081">
        <ele>248</ele>
        <time>2012-09-23T11:06:11Z</time>
      </trkpt>
      <trkpt lat="43.19015" lon="1.60085">
        <ele>249</ele>
        <time>2012-09-23T11:06:13Z</time>
      </trkpt>
      <trkpt lat="43.19009" lon="1.6009">
        <ele>251</ele>
        <time>2012-09-23T11:06:16Z</time>
      </trkpt>
      <trkpt lat="43.19005" lon="1.60095">
        <ele>252</ele>
        <time>2012-09-23T11:06:18Z</time>
      </trkpt>
      <trkpt lat="43.19003" lon="1.60101">
        <ele>252</ele>
        <time>2012-09-23T11:06:20Z</time>
      </trkpt>
      <trkpt lat="43.19003" lon="1.60108">
        <ele>253</ele>
        <time>2012-09-23T11:06:22Z</time>
      </trkpt>
      <trkpt lat="43.19002" lon="1.60116">
        <ele>253</ele>
        <time>2012-09-23T11:06:24Z</time>
      </trkpt>
      <trkpt lat="43.19001" lon="1.60125">
        <ele>254</ele>
        <time>2012-09-23T11:06:26Z</time>
      </trkpt>
      <trkpt lat="43.19" lon="1.60133">
        <ele>254</ele>
        <time>2012-09-23T11:06:28Z</time>
      </trkpt>
      <trkpt lat="43.18999" lon="1.60142">
        <ele>254</ele>
        <time>2012-09-23T11:06:30Z</time>
      </trkpt>
      <trkpt lat="43.18998" lon="1.60152">
        <ele>254</ele>
        <time>2012-09-23T11:06:32Z</time>
      </trkpt>
      <trkpt lat="43.18996" lon="1.60162">
        <ele>254</ele>
        <time>2012-09-23T11:06:34Z</time>
      </trkpt>
      <trkpt lat="43.18996" lon="1.60172">
        <ele>254</ele>
        <time>2012-09-23T11:06:36Z</time>
      </trkpt>
      <trkpt lat="43.18996" lon="1.60187">
        <ele>254</ele>
        <time>2012-09-23T11:06:39Z</time>
      </trkpt>
      <trkpt lat="43.19" lon="1.60197">
        <ele>254</ele>
        <time>2012-09-23T11:06:41Z</time>
      </trkpt>
      <trkpt lat="43.19008" lon="1.6021">
        <ele>254</ele>
        <time>2012-09-23T11:06:44Z</time>
      </trkpt>
      <trkpt lat="43.19013" lon="1.6022">
        <ele>254</ele>
        <time>2012-09-23T11:06:46Z</time>
      </trkpt>
      <trkpt lat="43.19014" lon="1.60232">
        <ele>254</ele>
        <time>2012-09-23T11:06:48Z</time>
      </trkpt>
      <trkpt lat="43.19012" lon="1.6025">
        <ele>254</ele>
        <time>2012-09-23T11:06:51Z</time>
      </trkpt>
      <trkpt lat="43.19011" lon="1.60261">
        <ele>254</ele>
        <time>2012-09-23T11:06:53Z</time>
      </trkpt>
      <trkpt lat="43.1901" lon="1.60273">
        <ele>254</ele>
        <time>2012-09-23T11:06:55Z</time>
      </trkpt>
      <trkpt lat="43.19005" lon="1.60281">
        <ele>254</ele>
        <time>2012-09-23T11:06:57Z</time>
      </trkpt>
      <trkpt lat="43.18997" lon="1.60282">
        <ele>254</ele>
        <time>2012-09-23T11:06:59Z</time>
      </trkpt>
      <trkpt lat="43.18988" lon="1.60278">
        <ele>254</ele>
        <time>2012-09-23T11:07:01Z</time>
      </trkpt>
      <trkpt lat="43.18978" lon="1.60274">
        <ele>254</ele>
        <time>2012-09-23T11:07:03Z</time>
      </trkpt>
      <trkpt lat="43.18968" lon="1.60269">
        <ele>254</ele>
        <time>2012-09-23T11:07:05Z</time>
      </trkpt>
      <trkpt lat="43.18957" lon="1.60264">
        <ele>254</ele>
        <time>2012-09-23T11:07:07Z</time>
      </trkpt>
      <trkpt lat="43.18946" lon="1.60259">
        <ele>254</ele>
        <time>2012-09-23T11:07:09Z</time>
      </trkpt>
      <trkpt lat="43.18935" lon="1.60254">
        <ele>254</ele>
        <time>2012-09-23T11:07:11Z</time>
      </trkpt>
      <trkpt lat="43.18924" lon="1.6025">
        <ele>254</ele>
        <time>2012-09-23T11:07:13Z</time>
      </trkpt>
      <trkpt lat="43.18907" lon="1.60243">
        <ele>254</ele>
        <time>2012-09-23T11:07:16Z</time>
      </trkpt>
      <trkpt lat="43.18895" lon="1.60238">
        <ele>254</ele>
        <time>2012-09-23T11:07:18Z</time>
      </trkpt>
      <trkpt lat="43.18883" lon="1.60233">
        <ele>254</ele>
        <time>2012-09-23T11:07:20Z</time>
      </trkpt>
      <trkpt lat="43.18866" lon="1.60227">
        <ele>254</ele>
        <time>2012-09-23T11:07:23Z</time>
      </trkpt>
      <trkpt lat="43.18854" lon="1.60222">
        <ele>254</ele>
        <time>2012-09-23T11:07:25Z</time>
      </trkpt>
      <trkpt lat="43.18837" lon="1.60215">
        <ele>254</ele>
        <time>2012-09-23T11:07:28Z</time>
      </trkpt>
      <trkpt lat="43.18824" lon="1.60211">
        <ele>254</ele>
        <time>2012-09-23T11:07:30Z</time>
      </trkpt>
      <trkpt lat="43.18813" lon="1.60207">
        <ele>254</ele>
        <time>2012-09-23T11:07:32Z</time>
      </trkpt>
      <trkpt lat="43.18795" lon="1.60201">
        <ele>254</ele>
        <time>2012-09-23T11:07:35Z</time>
      </trkpt>
      <trkpt lat="43.18784" lon="1.60196">
        <ele>254</ele>
        <time>2012-09-23T11:07:37Z</time>
      </trkpt>
      <trkpt lat="43.18766" lon="1.60189">
        <ele>254</ele>
        <time>2012-09-23T11:07:40Z</time>
      </trkpt>
      <trkpt lat="43.18755" lon="1.60185">
        <ele>254</ele>
        <time>2012-09-23T11:07:42Z</time>
      </trkpt>
      <trkpt lat="43.18744" lon="1.6018">
        <ele>254</ele>
        <time>2012-09-23T11:07:44Z</time>
      </trkpt>
      <trkpt lat="43.18726" lon="1.60173">
        <ele>254</ele>
        <time>2012-09-23T11:07:47Z</time>
      </trkpt>
      <trkpt lat="43.18709" lon="1.60167">
        <ele>254</ele>
        <time>2012-09-23T11:07:50Z</time>
      </trkpt>
      <trkpt lat="43.18697" lon="1.60162">
        <ele>254</ele>
        <time>2012-09-23T11:07:52Z</time>
      </trkpt>
      <trkpt lat="43.18686" lon="1.60158">
        <ele>254</ele>
        <time>2012-09-23T11:07:54Z</time>
      </trkpt>
      <trkpt lat="43.18668" lon="1.60153">
        <ele>254</ele>
        <time>2012-09-23T11:07:57Z</time>
      </trkpt>
      <trkpt lat="43.18656" lon="1.60154">
        <ele>254</ele>
        <time>2012-09-23T11:07:59Z</time>
      </trkpt>
      <trkpt lat="43.18643" lon="1.60168">
        <ele>254</ele>
        <time>2012-09-23T11:08:02Z</time>
      </trkpt>
      <trkpt lat="43.18634" lon="1.60188">
        <ele>254</ele>
        <time>2012-09-23T11:08:05Z</time>
      </trkpt>
      <trkpt lat="43.18629" lon="1.60202">
        <ele>254</ele>
        <time>2012-09-23T11:08:07Z</time>
      </trkpt>
      <trkpt lat="43.18624" lon="1.60216">
        <ele>255</ele>
        <time>2012-09-23T11:08:09Z</time>
      </trkpt>
      <trkpt lat="43.18618" lon="1.60229">
        <ele>255</ele>
        <time>2012-09-23T11:08:11Z</time>
      </trkpt>
      <trkpt lat="43.18608" lon="1.60247">
        <ele>256</ele>
        <time>2012-09-23T11:08:14Z</time>
      </trkpt>
      <trkpt lat="43.18605" lon="1.6026">
        <ele>256</ele>
        <time>2012-09-23T11:08:16Z</time>
      </trkpt>
      <trkpt lat="43.18604" lon="1.60275">
        <ele>256</ele>
        <time>2012-09-23T11:08:18Z</time>
      </trkpt>
      <trkpt lat="43.18604" lon="1.60291">
        <ele>256</ele>
        <time>2012-09-23T11:08:20Z</time>
      </trkpt>
      <trkpt lat="43.18603" lon="1.60315">
        <ele>256</ele>
        <time>2012-09-23T11:08:23Z</time>
      </trkpt>
      <trkpt lat="43.186" lon="1.60331">
        <ele>256</ele>
        <time>2012-09-23T11:08:25Z</time>
      </trkpt>
      <trkpt lat="43.18595" lon="1.60355">
        <ele>256</ele>
        <time>2012-09-23T11:08:28Z</time>
      </trkpt>
      <trkpt lat="43.18592" lon="1.60371">
        <ele>256</ele>
        <time>2012-09-23T11:08:30Z</time>
      </trkpt>
      <trkpt lat="43.18588" lon="1.60395">
        <ele>256</ele>
        <time>2012-09-23T11:08:33Z</time>
      </trkpt>
      <trkpt lat="43.18584" lon="1.6041">
        <ele>256</ele>
        <time>2012-09-23T11:08:35Z</time>
      </trkpt>
      <trkpt lat="43.18578" lon="1.60433">
        <ele>256</ele>
        <time>2012-09-23T11:08:38Z</time>
      </trkpt>
      <trkpt lat="43.18573" lon="1.60449">
        <ele>256</ele>
        <time>2012-09-23T11:08:40Z</time>
      </trkpt>
      <trkpt lat="43.18564" lon="1.60472">
        <ele>256</ele>
        <time>2012-09-23T11:08:43Z</time>
      </trkpt>
      <trkpt lat="43.1856" lon="1.60489">
        <ele>256</ele>
        <time>2012-09-23T11:08:45Z</time>
      </trkpt>
      <trkpt lat="43.18556" lon="1.60506">
        <ele>256</ele>
        <time>2012-09-23T11:08:47Z</time>
      </trkpt>
      <trkpt lat="43.18553" lon="1.60524">
        <ele>256</ele>
        <time>2012-09-23T11:08:49Z</time>
      </trkpt>
      <trkpt lat="43.18552" lon="1.60541">
        <ele>256</ele>
        <time>2012-09-23T11:08:51Z</time>
      </trkpt>
      <trkpt lat="43.18552" lon="1.60567">
        <ele>256</ele>
        <time>2012-09-23T11:08:54Z</time>
      </trkpt>
      <trkpt lat="43.18553" lon="1.60585">
        <ele>255</ele>
        <time>2012-09-23T11:08:56Z</time>
      </trkpt>
      <trkpt lat="43.18552" lon="1.60614">
        <ele>254</ele>
        <time>2012-09-23T11:08:59Z</time>
      </trkpt>
      <trkpt lat="43.18549" lon="1.60632">
        <ele>254</ele>
        <time>2012-09-23T11:09:01Z</time>
      </trkpt>
      <trkpt lat="43.18544" lon="1.60659">
        <ele>254</ele>
        <time>2012-09-23T11:09:04Z</time>
      </trkpt>
      <trkpt lat="43.18539" lon="1.60677">
        <ele>254</ele>
        <time>2012-09-23T11:09:06Z</time>
      </trkpt>
      <trkpt lat="43.18531" lon="1.60702">
        <ele>254</ele>
        <time>2012-09-23T11:09:09Z</time>
      </trkpt>
      <trkpt lat="43.18526" lon="1.60719">
        <ele>253</ele>
        <time>2012-09-23T11:09:11Z</time>
      </trkpt>
      <trkpt lat="43.1852" lon="1.60745">
        <ele>253</ele>
        <time>2012-09-23T11:09:14Z</time>
      </trkpt>
      <trkpt lat="43.18516" lon="1.60762">
        <ele>253</ele>
        <time>2012-09-23T11:09:16Z</time>
      </trkpt>
      <trkpt lat="43.1851" lon="1.60787">
        <ele>253</ele>
        <time>2012-09-23T11:09:19Z</time>
      </trkpt>
      <trkpt lat="43.18506" lon="1.60802">
        <ele>253</ele>
        <time>2012-09-23T11:09:21Z</time>
      </trkpt>
      <trkpt lat="43.18502" lon="1.60824">
        <ele>253</ele>
        <time>2012-09-23T11:09:24Z</time>
      </trkpt>
      <trkpt lat="43.18498" lon="1.60838">
        <ele>253</ele>
        <time>2012-09-23T11:09:26Z</time>
      </trkpt>
      <trkpt lat="43.18494" lon="1.60858">
        <ele>253</ele>
        <time>2012-09-23T11:09:29Z</time>
      </trkpt>
      <trkpt lat="43.18491" lon="1.60871">
        <ele>253</ele>
        <time>2012-09-23T11:09:31Z</time>
      </trkpt>
      <trkpt lat="43.18487" lon="1.60884">
        <ele>253</ele>
        <time>2012-09-23T11:09:33Z</time>
      </trkpt>
      <trkpt lat="43.18483" lon="1.60903">
        <ele>254</ele>
        <time>2012-09-23T11:09:36Z</time>
      </trkpt>
      <trkpt lat="43.18479" lon="1.60922">
        <ele>255</ele>
        <time>2012-09-23T11:09:39Z</time>
      </trkpt>
      <trkpt lat="43.18476" lon="1.60934">
        <ele>255</ele>
        <time>2012-09-23T11:09:41Z</time>
      </trkpt>
      <trkpt lat="43.18472" lon="1.60952">
        <ele>255</ele>
        <time>2012-09-23T11:09:44Z</time>
      </trkpt>
      <trkpt lat="43.18468" lon="1.60963">
        <ele>256</ele>
        <time>2012-09-23T11:09:46Z</time>
      </trkpt>
      <trkpt lat="43.18463" lon="1.60978">
        <ele>256</ele>
        <time>2012-09-23T11:09:49Z</time>
      </trkpt>
      <trkpt lat="43.18459" lon="1.60987">
        <ele>256</ele>
        <time>2012-09-23T11:09:51Z</time>
      </trkpt>
      <trkpt lat="43.18455" lon="1.61003">
        <ele>256</ele>
        <time>2012-09-23T11:09:54Z</time>
      </trkpt>
      <trkpt lat="43.18454" lon="1.61015">
        <ele>257</ele>
        <time>2012-09-23T11:09:56Z</time>
      </trkpt>
      <trkpt lat="43.18449" lon="1.61033">
        <ele>257</ele>
        <time>2012-09-23T11:09:59Z</time>
      </trkpt>
      <trkpt lat="43.18441" lon="1.61042">
        <ele>258</ele>
        <time>2012-09-23T11:10:01Z</time>
      </trkpt>
      <trkpt lat="43.18426" lon="1.61046">
        <ele>258</ele>
        <time>2012-09-23T11:10:04Z</time>
      </trkpt>
      <trkpt lat="43.18415" lon="1.61046">
        <ele>258</ele>
        <time>2012-09-23T11:10:06Z</time>
      </trkpt>
      <trkpt lat="43.18399" lon="1.61043">
        <ele>258</ele>
        <time>2012-09-23T11:10:09Z</time>
      </trkpt>
      <trkpt lat="43.18388" lon="1.6104">
        <ele>258</ele>
        <time>2012-09-23T11:10:11Z</time>
      </trkpt>
      <trkpt lat="43.18372" lon="1.61038">
        <ele>258</ele>
        <time>2012-09-23T11:10:14Z</time>
      </trkpt>
      <trkpt lat="43.18362" lon="1.61038">
        <ele>258</ele>
        <time>2012-09-23T11:10:16Z</time>
      </trkpt>
      <trkpt lat="43.18352" lon="1.61041">
        <ele>258</ele>
        <time>2012-09-23T11:10:18Z</time>
      </trkpt>
      <trkpt lat="43.18338" lon="1.61053">
        <ele>258</ele>
        <time>2012-09-23T11:10:21Z</time>
      </trkpt>
      <trkpt lat="43.18323" lon="1.61059">
        <ele>258</ele>
        <time>2012-09-23T11:10:24Z</time>
      </trkpt>
      <trkpt lat="43.18312" lon="1.61059">
        <ele>258</ele>
        <time>2012-09-23T11:10:26Z</time>
      </trkpt>
      <trkpt lat="43.18302" lon="1.61059">
        <ele>258</ele>
        <time>2012-09-23T11:10:28Z</time>
      </trkpt>
      <trkpt lat="43.18291" lon="1.61059">
        <ele>258</ele>
        <time>2012-09-23T11:10:30Z</time>
      </trkpt>
      <trkpt lat="43.18281" lon="1.6106">
        <ele>258</ele>
        <time>2012-09-23T11:10:32Z</time>
      </trkpt>
      <trkpt lat="43.1827" lon="1.6106">
        <ele>258</ele>
        <time>2012-09-23T11:10:34Z</time>
      </trkpt>
      <trkpt lat="43.1826" lon="1.6106">
        <ele>258</ele>
        <time>2012-09-23T11:10:36Z</time>
      </trkpt>
      <trkpt lat="43.18249" lon="1.6106">
        <ele>258</ele>
        <time>2012-09-23T11:10:38Z</time>
      </trkpt>
      <trkpt lat="43.18238" lon="1.6106">
        <ele>258</ele>
        <time>2012-09-23T11:10:40Z</time>
      </trkpt>
      <trkpt lat="43.18228" lon="1.61061">
        <ele>258</ele>
        <time>2012-09-23T11:10:42Z</time>
      </trkpt>
      <trkpt lat="43.18217" lon="1.61062">
        <ele>259</ele>
        <time>2012-09-23T11:10:44Z</time>
      </trkpt>
      <trkpt lat="43.18206" lon="1.61062">
        <ele>259</ele>
        <time>2012-09-23T11:10:46Z</time>
      </trkpt>
      <trkpt lat="43.18196" lon="1.61062">
        <ele>259</ele>
        <time>2012-09-23T11:10:48Z</time>
      </trkpt>
      <trkpt lat="43.18185" lon="1.61062">
        <ele>259</ele>
        <time>2012-09-23T11:10:50Z</time>
      </trkpt>
      <trkpt lat="43.18173" lon="1.61063">
        <ele>259</ele>
        <time>2012-09-23T11:10:52Z</time>
      </trkpt>
      <trkpt lat="43.18161" lon="1.61063">
        <ele>259</ele>
        <time>2012-09-23T11:10:54Z</time>
      </trkpt>
      <trkpt lat="43.1815" lon="1.61063">
        <ele>259</ele>
        <time>2012-09-23T11:10:56Z</time>
      </trkpt>
      <trkpt lat="43.18132" lon="1.61064">
        <ele>259</ele>
        <time>2012-09-23T11:10:59Z</time>
      </trkpt>
      <trkpt lat="43.18121" lon="1.61064">
        <ele>259</ele>
        <time>2012-09-23T11:11:01Z</time>
      </trkpt>
      <trkpt lat="43.18109" lon="1.61065">
        <ele>259</ele>
        <time>2012-09-23T11:11:03Z</time>
      </trkpt>
      <trkpt lat="43.18098" lon="1.61065">
        <ele>259</ele>
        <time>2012-09-23T11:11:05Z</time>
      </trkpt>
      <trkpt lat="43.18085" lon="1.61066">
        <ele>259</ele>
        <time>2012-09-23T11:11:07Z</time>
      </trkpt>
      <trkpt lat="43.18073" lon="1.61066">
        <ele>259</ele>
        <time>2012-09-23T11:11:09Z</time>
      </trkpt>
      <trkpt lat="43.18061" lon="1.61066">
        <ele>259</ele>
        <time>2012-09-23T11:11:11Z</time>
      </trkpt>
      <trkpt lat="43.18048" lon="1.61066">
        <ele>259</ele>
        <time>2012-09-23T11:11:13Z</time>
      </trkpt>
      <trkpt lat="43.18036" lon="1.61066">
        <ele>259</ele>
        <time>2012-09-23T11:11:15Z</time>
      </trkpt>
      <trkpt lat="43.18017" lon="1.61067">
        <ele>259</ele>
        <time>2012-09-23T11:11:18Z</time>
      </trkpt>
      <trkpt lat="43.18005" lon="1.61067">
        <ele>259</ele>
        <time>2012-09-23T11:11:20Z</time>
      </trkpt>
      <trkpt lat="43.17992" lon="1.61067">
        <ele>259</ele>
        <time>2012-09-23T11:11:22Z</time>
      </trkpt>
      <trkpt lat="43.1798" lon="1.61068">
        <ele>259</ele>
        <time>2012-09-23T11:11:24Z</time>
      </trkpt>
      <trkpt lat="43.17968" lon="1.61068">
        <ele>259</ele>
        <time>2012-09-23T11:11:26Z</time>
      </trkpt>
      <trkpt lat="43.17956" lon="1.61068">
        <ele>259</ele>
        <time>2012-09-23T11:11:28Z</time>
      </trkpt>
      <trkpt lat="43.17943" lon="1.61068">
        <ele>259</ele>
        <time>2012-09-23T11:11:30Z</time>
      </trkpt>
      <trkpt lat="43.17931" lon="1.61068">
        <ele>259</ele>
        <time>2012-09-23T11:11:32Z</time>
      </trkpt>
      <trkpt lat="43.17919" lon="1.61069">
        <ele>259</ele>
        <time>2012-09-23T11:11:34Z</time>
      </trkpt>
      <trkpt lat="43.17907" lon="1.61069">
        <ele>259</ele>
        <time>2012-09-23T11:11:36Z</time>
      </trkpt>
      <trkpt lat="43.17894" lon="1.6107">
        <ele>259</ele>
        <time>2012-09-23T11:11:38Z</time>
      </trkpt>
      <trkpt lat="43.17882" lon="1.6107">
        <ele>259</ele>
        <time>2012-09-23T11:11:40Z</time>
      </trkpt>
      <trkpt lat="43.17869" lon="1.6107">
        <ele>259</ele>
        <time>2012-09-23T11:11:42Z</time>
      </trkpt>
      <trkpt lat="43.1785" lon="1.61072">
        <ele>259</ele>
        <time>2012-09-23T11:11:45Z</time>
      </trkpt>
      <trkpt lat="43.17833" lon="1.6108">
        <ele>259</ele>
        <time>2012-09-23T11:11:48Z</time>
      </trkpt>
      <trkpt lat="43.17825" lon="1.61091">
        <ele>259</ele>
        <time>2012-09-23T11:11:50Z</time>
      </trkpt>
      <trkpt lat="43.1782" lon="1.61105">
        <ele>259</ele>
        <time>2012-09-23T11:11:52Z</time>
      </trkpt>
      <trkpt lat="43.17818" lon="1.6112">
        <ele>259</ele>
        <time>2012-09-23T11:11:54Z</time>
      </trkpt>
      <trkpt lat="43.17817" lon="1.61136">
        <ele>259</ele>
        <time>2012-09-23T11:11:56Z</time>
      </trkpt>
      <trkpt lat="43.17816" lon="1.61154">
        <ele>260</ele>
        <time>2012-09-23T11:11:58Z</time>
      </trkpt>
      <trkpt lat="43.17811" lon="1.61169">
        <ele>260</ele>
        <time>2012-09-23T11:12:00Z</time>
      </trkpt>
      <trkpt lat="43.17795" lon="1.61176">
        <ele>260</ele>
        <time>2012-09-23T11:12:03Z</time>
      </trkpt>
      <trkpt lat="43.17783" lon="1.61176">
        <ele>260</ele>
        <time>2012-09-23T11:12:05Z</time>
      </trkpt>
      <trkpt lat="43.17767" lon="1.61177">
        <ele>260</ele>
        <time>2012-09-23T11:12:08Z</time>
      </trkpt>
      <trkpt lat="43.17756" lon="1.61177">
        <ele>260</ele>
        <time>2012-09-23T11:12:10Z</time>
      </trkpt>
      <trkpt lat="43.1774" lon="1.61178">
        <ele>260</ele>
        <time>2012-09-23T11:12:13Z</time>
      </trkpt>
      <trkpt lat="43.17725" lon="1.61177">
        <ele>260</ele>
        <time>2012-09-23T11:12:16Z</time>
      </trkpt>
      <trkpt lat="43.17714" lon="1.61177">
        <ele>260</ele>
        <time>2012-09-23T11:12:18Z</time>
      </trkpt>
      <trkpt lat="43.17704" lon="1.61177">
        <ele>261</ele>
        <time>2012-09-23T11:12:20Z</time>
      </trkpt>
      <trkpt lat="43.17689" lon="1.61177">
        <ele>261</ele>
        <time>2012-09-23T11:12:23Z</time>
      </trkpt>
      <trkpt lat="43.17679" lon="1.61177">
        <ele>261</ele>
        <time>2012-09-23T11:12:25Z</time>
      </trkpt>
      <trkpt lat="43.1767" lon="1.61178">
        <ele>261</ele>
        <time>2012-09-23T11:12:27Z</time>
      </trkpt>
      <trkpt lat="43.17656" lon="1.61178">
        <ele>261</ele>
        <time>2012-09-23T11:12:30Z</time>
      </trkpt>
      <trkpt lat="43.17643" lon="1.61178">
        <ele>261</ele>
        <time>2012-09-23T11:12:33Z</time>
      </trkpt>
      <trkpt lat="43.17634" lon="1.61178">
        <ele>261</ele>
        <time>2012-09-23T11:12:35Z</time>
      </trkpt>
      <trkpt lat="43.17625" lon="1.61178">
        <ele>261</ele>
        <time>2012-09-23T11:12:37Z</time>
      </trkpt>
      <trkpt lat="43.17611" lon="1.61178">
        <ele>262</ele>
        <time>2012-09-23T11:12:40Z</time>
      </trkpt>
      <trkpt lat="43.17601" lon="1.61178">
        <ele>262</ele>
        <time>2012-09-23T11:12:42Z</time>
      </trkpt>
      <trkpt lat="43.17587" lon="1.61178">
        <ele>262</ele>
        <time>2012-09-23T11:12:45Z</time>
      </trkpt>
      <trkpt lat="43.17577" lon="1.61179">
        <ele>262</ele>
        <time>2012-09-23T11:12:47Z</time>
      </trkpt>
      <trkpt lat="43.17562" lon="1.61179">
        <ele>262</ele>
        <time>2012-09-23T11:12:50Z</time>
      </trkpt>
      <trkpt lat="43.17553" lon="1.61179">
        <ele>262</ele>
        <time>2012-09-23T11:12:52Z</time>
      </trkpt>
      <trkpt lat="43.17544" lon="1.61179">
        <ele>262</ele>
        <time>2012-09-23T11:12:54Z</time>
      </trkpt>
      <trkpt lat="43.1753" lon="1.61179">
        <ele>262</ele>
        <time>2012-09-23T11:12:57Z</time>
      </trkpt>
      <trkpt lat="43.17521" lon="1.61179">
        <ele>262</ele>
        <time>2012-09-23T11:12:59Z</time>
      </trkpt>
      <trkpt lat="43.17512" lon="1.6118">
        <ele>262</ele>
        <time>2012-09-23T11:13:01Z</time>
      </trkpt>
      <trkpt lat="43.17502" lon="1.6118">
        <ele>262</ele>
        <time>2012-09-23T11:13:03Z</time>
      </trkpt>
      <trkpt lat="43.17487" lon="1.6118">
        <ele>262</ele>
        <time>2012-09-23T11:13:06Z</time>
      </trkpt>
      <trkpt lat="43.17478" lon="1.6118">
        <ele>263</ele>
        <time>2012-09-23T11:13:08Z</time>
      </trkpt>
      <trkpt lat="43.17469" lon="1.6118">
        <ele>263</ele>
        <time>2012-09-23T11:13:10Z</time>
      </trkpt>
      <trkpt lat="43.17459" lon="1.61181">
        <ele>263</ele>
        <time>2012-09-23T11:13:12Z</time>
      </trkpt>
      <trkpt lat="43.1745" lon="1.61181">
        <ele>263</ele>
        <time>2012-09-23T11:13:14Z</time>
      </trkpt>
      <trkpt lat="43.1744" lon="1.61181">
        <ele>263</ele>
        <time>2012-09-23T11:13:16Z</time>
      </trkpt>
      <trkpt lat="43.17432" lon="1.61181">
        <ele>263</ele>
        <time>2012-09-23T11:13:18Z</time>
      </trkpt>
      <trkpt lat="43.17423" lon="1.6118">
        <ele>263</ele>
        <time>2012-09-23T11:13:20Z</time>
      </trkpt>
      <trkpt lat="43.17411" lon="1.6118">
        <ele>263</ele>
        <time>2012-09-23T11:13:23Z</time>
      </trkpt>
      <trkpt lat="43.17402" lon="1.6118">
        <ele>263</ele>
        <time>2012-09-23T11:13:25Z</time>
      </trkpt>
      <trkpt lat="43.17389" lon="1.61181">
        <ele>263</ele>
        <time>2012-09-23T11:13:28Z</time>
      </trkpt>
      <trkpt lat="43.17379" lon="1.61181">
        <ele>263</ele>
        <time>2012-09-23T11:13:30Z</time>
      </trkpt>
      <trkpt lat="43.17364" lon="1.61181">
        <ele>263</ele>
        <time>2012-09-23T11:13:33Z</time>
      </trkpt>
      <trkpt lat="43.17353" lon="1.61181">
        <ele>263</ele>
        <time>2012-09-23T11:13:35Z</time>
      </trkpt>
      <trkpt lat="43.17337" lon="1.61181">
        <ele>263</ele>
        <time>2012-09-23T11:13:38Z</time>
      </trkpt>
      <trkpt lat="43.1733" lon="1.61188">
        <ele>263</ele>
        <time>2012-09-23T11:13:40Z</time>
      </trkpt>
      <trkpt lat="43.17324" lon="1.61203">
        <ele>263</ele>
        <time>2012-09-23T11:13:43Z</time>
      </trkpt>
      <trkpt lat="43.17316" lon="1.61206">
        <ele>263</ele>
        <time>2012-09-23T11:13:45Z</time>
      </trkpt>
      <trkpt lat="43.17305" lon="1.61206">
        <ele>263</ele>
        <time>2012-09-23T11:13:48Z</time>
      </trkpt>
      <trkpt lat="43.17297" lon="1.61206">
        <ele>263</ele>
        <time>2012-09-23T11:13:50Z</time>
      </trkpt>
      <trkpt lat="43.17285" lon="1.61207">
        <ele>263</ele>
        <time>2012-09-23T11:13:53Z</time>
      </trkpt>
      <trkpt lat="43.17278" lon="1.61207">
        <ele>263</ele>
        <time>2012-09-23T11:13:55Z</time>
      </trkpt>
      <trkpt lat="43.17266" lon="1.61208">
        <ele>263</ele>
        <time>2012-09-23T11:13:58Z</time>
      </trkpt>
      <trkpt lat="43.17258" lon="1.61208">
        <ele>263</ele>
        <time>2012-09-23T11:14:00Z</time>
      </trkpt>
      <trkpt lat="43.17245" lon="1.61209">
        <ele>263</ele>
        <time>2012-09-23T11:14:03Z</time>
      </trkpt>
      <trkpt lat="43.17236" lon="1.61209">
        <ele>263</ele>
        <time>2012-09-23T11:14:05Z</time>
      </trkpt>
      <trkpt lat="43.17222" lon="1.6121">
        <ele>263</ele>
        <time>2012-09-23T11:14:08Z</time>
      </trkpt>
      <trkpt lat="43.17212" lon="1.6121">
        <ele>263</ele>
        <time>2012-09-23T11:14:10Z</time>
      </trkpt>
      <trkpt lat="43.17197" lon="1.61211">
        <ele>263</ele>
        <time>2012-09-23T11:14:13Z</time>
      </trkpt>
      <trkpt lat="43.17187" lon="1.61211">
        <ele>263</ele>
        <time>2012-09-23T11:14:15Z</time>
      </trkpt>
      <trkpt lat="43.17172" lon="1.61211">
        <ele>263</ele>
        <time>2012-09-23T11:14:18Z</time>
      </trkpt>
      <trkpt lat="43.17162" lon="1.61211">
        <ele>263</ele>
        <time>2012-09-23T11:14:20Z</time>
      </trkpt>
      <trkpt lat="43.17147" lon="1.61211">
        <ele>263</ele>
        <time>2012-09-23T11:14:23Z</time>
      </trkpt>
      <trkpt lat="43.17137" lon="1.61212">
        <ele>263</ele>
        <time>2012-09-23T11:14:25Z</time>
      </trkpt>
      <trkpt lat="43.17123" lon="1.61212">
        <ele>263</ele>
        <time>2012-09-23T11:14:28Z</time>
      </trkpt>
      <trkpt lat="43.17113" lon="1.61212">
        <ele>263</ele>
        <time>2012-09-23T11:14:30Z</time>
      </trkpt>
      <trkpt lat="43.17098" lon="1.61212">
        <ele>263</ele>
        <time>2012-09-23T11:14:33Z</time>
      </trkpt>
      <trkpt lat="43.17088" lon="1.61213">
        <ele>263</ele>
        <time>2012-09-23T11:14:35Z</time>
      </trkpt>
      <trkpt lat="43.17072" lon="1.61213">
        <ele>263</ele>
        <time>2012-09-23T11:14:38Z</time>
      </trkpt>
      <trkpt lat="43.17062" lon="1.61213">
        <ele>263</ele>
        <time>2012-09-23T11:14:40Z</time>
      </trkpt>
      <trkpt lat="43.17047" lon="1.61213">
        <ele>263</ele>
        <time>2012-09-23T11:14:43Z</time>
      </trkpt>
      <trkpt lat="43.17038" lon="1.61213">
        <ele>263</ele>
        <time>2012-09-23T11:14:45Z</time>
      </trkpt>
      <trkpt lat="43.17022" lon="1.61213">
        <ele>263</ele>
        <time>2012-09-23T11:14:48Z</time>
      </trkpt>
      <trkpt lat="43.17013" lon="1.61214">
        <ele>263</ele>
        <time>2012-09-23T11:14:50Z</time>
      </trkpt>
      <trkpt lat="43.16999" lon="1.61214">
        <ele>264</ele>
        <time>2012-09-23T11:14:53Z</time>
      </trkpt>
      <trkpt lat="43.16989" lon="1.61214">
        <ele>264</ele>
        <time>2012-09-23T11:14:55Z</time>
      </trkpt>
      <trkpt lat="43.16975" lon="1.61215">
        <ele>265</ele>
        <time>2012-09-23T11:14:58Z</time>
      </trkpt>
      <trkpt lat="43.16965" lon="1.61215">
        <ele>265</ele>
        <time>2012-09-23T11:15:00Z</time>
      </trkpt>
      <trkpt lat="43.16951" lon="1.61216">
        <ele>265</ele>
        <time>2012-09-23T11:15:03Z</time>
      </trkpt>
      <trkpt lat="43.16941" lon="1.61217">
        <ele>265</ele>
        <time>2012-09-23T11:15:05Z</time>
      </trkpt>
      <trkpt lat="43.16927" lon="1.61217">
        <ele>266</ele>
        <time>2012-09-23T11:15:08Z</time>
      </trkpt>
      <trkpt lat="43.16917" lon="1.61217">
        <ele>266</ele>
        <time>2012-09-23T11:15:10Z</time>
      </trkpt>
      <trkpt lat="43.16903" lon="1.61217">
        <ele>266</ele>
        <time>2012-09-23T11:15:13Z</time>
      </trkpt>
      <trkpt lat="43.16893" lon="1.61217">
        <ele>266</ele>
        <time>2012-09-23T11:15:15Z</time>
      </trkpt>
      <trkpt lat="43.16877" lon="1.61218">
        <ele>266</ele>
        <time>2012-09-23T11:15:18Z</time>
      </trkpt>
      <trkpt lat="43.16868" lon="1.61217">
        <ele>266</ele>
        <time>2012-09-23T11:15:20Z</time>
      </trkpt>
      <trkpt lat="43.16852" lon="1.61218">
        <ele>266</ele>
        <time>2012-09-23T11:15:23Z</time>
      </trkpt>
      <trkpt lat="43.16842" lon="1.61218">
        <ele>266</ele>
        <time>2012-09-23T11:15:25Z</time>
      </trkpt>
      <trkpt lat="43.16826" lon="1.61219">
        <ele>266</ele>
        <time>2012-09-23T11:15:28Z</time>
      </trkpt>
      <trkpt lat="43.16816" lon="1.61219">
        <ele>266</ele>
        <time>2012-09-23T11:15:30Z</time>
      </trkpt>
      <trkpt lat="43.168" lon="1.61217">
        <ele>266</ele>
        <time>2012-09-23T11:15:33Z</time>
      </trkpt>
      <trkpt lat="43.1679" lon="1.61218">
        <ele>266</ele>
        <time>2012-09-23T11:15:35Z</time>
      </trkpt>
      <trkpt lat="43.16775" lon="1.61218">
        <ele>266</ele>
        <time>2012-09-23T11:15:38Z</time>
      </trkpt>
      <trkpt lat="43.16765" lon="1.61219">
        <ele>266</ele>
        <time>2012-09-23T11:15:40Z</time>
      </trkpt>
      <trkpt lat="43.1675" lon="1.61219">
        <ele>266</ele>
        <time>2012-09-23T11:15:43Z</time>
      </trkpt>
      <trkpt lat="43.1674" lon="1.61218">
        <ele>266</ele>
        <time>2012-09-23T11:15:45Z</time>
      </trkpt>
      <trkpt lat="43.1673" lon="1.61218">
        <ele>266</ele>
        <time>2012-09-23T11:15:47Z</time>
      </trkpt>
      <trkpt lat="43.1672" lon="1.61218">
        <ele>266</ele>
        <time>2012-09-23T11:15:49Z</time>
      </trkpt>
      <trkpt lat="43.16709" lon="1.61217">
        <ele>266</ele>
        <time>2012-09-23T11:15:51Z</time>
      </trkpt>
      <trkpt lat="43.16699" lon="1.61217">
        <ele>266</ele>
        <time>2012-09-23T11:15:53Z</time>
      </trkpt>
      <trkpt lat="43.16689" lon="1.61217">
        <ele>266</ele>
        <time>2012-09-23T11:15:55Z</time>
      </trkpt>
      <trkpt lat="43.16673" lon="1.61218">
        <ele>266</ele>
        <time>2012-09-23T11:15:58Z</time>
      </trkpt>
      <trkpt lat="43.16662" lon="1.61219">
        <ele>266</ele>
        <time>2012-09-23T11:16:00Z</time>
      </trkpt>
      <trkpt lat="43.16647" lon="1.6122">
        <ele>266</ele>
        <time>2012-09-23T11:16:03Z</time>
      </trkpt>
      <trkpt lat="43.16637" lon="1.61221">
        <ele>266</ele>
        <time>2012-09-23T11:16:05Z</time>
      </trkpt>
      <trkpt lat="43.16621" lon="1.61222">
        <ele>266</ele>
        <time>2012-09-23T11:16:08Z</time>
      </trkpt>
      <trkpt lat="43.16611" lon="1.61222">
        <ele>266</ele>
        <time>2012-09-23T11:16:10Z</time>
      </trkpt>
      <trkpt lat="43.16597" lon="1.61224">
        <ele>266</ele>
        <time>2012-09-23T11:16:13Z</time>
      </trkpt>
      <trkpt lat="43.16588" lon="1.6123">
        <ele>266</ele>
        <time>2012-09-23T11:16:15Z</time>
      </trkpt>
      <trkpt lat="43.16579" lon="1.61237">
        <ele>266</ele>
        <time>2012-09-23T11:16:17Z</time>
      </trkpt>
      <trkpt lat="43.16572" lon="1.61245">
        <ele>266</ele>
        <time>2012-09-23T11:16:19Z</time>
      </trkpt>
      <trkpt lat="43.16564" lon="1.61254">
        <ele>266</ele>
        <time>2012-09-23T11:16:21Z</time>
      </trkpt>
      <trkpt lat="43.16556" lon="1.61259">
        <ele>267</ele>
        <time>2012-09-23T11:16:23Z</time>
      </trkpt>
      <trkpt lat="43.1655" lon="1.61253">
        <ele>267</ele>
        <time>2012-09-23T11:16:25Z</time>
      </trkpt>
      <trkpt lat="43.1655" lon="1.61239">
        <ele>268</ele>
        <time>2012-09-23T11:16:27Z</time>
      </trkpt>
      <trkpt lat="43.16546" lon="1.61228">
        <ele>268</ele>
        <time>2012-09-23T11:16:29Z</time>
      </trkpt>
      <trkpt lat="43.16536" lon="1.61224">
        <ele>268</ele>
        <time>2012-09-23T11:16:31Z</time>
      </trkpt>
      <trkpt lat="43.16524" lon="1.61225">
        <ele>268</ele>
        <time>2012-09-23T11:16:33Z</time>
      </trkpt>
      <trkpt lat="43.16513" lon="1.61225">
        <ele>268</ele>
        <time>2012-09-23T11:16:35Z</time>
      </trkpt>
      <trkpt lat="43.16502" lon="1.61226">
        <ele>268</ele>
        <time>2012-09-23T11:16:37Z</time>
      </trkpt>
      <trkpt lat="43.16491" lon="1.61226">
        <ele>268</ele>
        <time>2012-09-23T11:16:39Z</time>
      </trkpt>
      <trkpt lat="43.16481" lon="1.61226">
        <ele>268</ele>
        <time>2012-09-23T11:16:41Z</time>
      </trkpt>
      <trkpt lat="43.1647" lon="1.61226">
        <ele>268</ele>
        <time>2012-09-23T11:16:43Z</time>
      </trkpt>
      <trkpt lat="43.1646" lon="1.61227">
        <ele>268</ele>
        <time>2012-09-23T11:16:45Z</time>
      </trkpt>
      <trkpt lat="43.16449" lon="1.61227">
        <ele>268</ele>
        <time>2012-09-23T11:16:47Z</time>
      </trkpt>
      <trkpt lat="43.16439" lon="1.61228">
        <ele>268</ele>
        <time>2012-09-23T11:16:49Z</time>
      </trkpt>
      <trkpt lat="43.16429" lon="1.61228">
        <ele>268</ele>
        <time>2012-09-23T11:16:51Z</time>
      </trkpt>
      <trkpt lat="43.16419" lon="1.61228">
        <ele>268</ele>
        <time>2012-09-23T11:16:53Z</time>
      </trkpt>
      <trkpt lat="43.16408" lon="1.61229">
        <ele>268</ele>
        <time>2012-09-23T11:16:55Z</time>
      </trkpt>
      <trkpt lat="43.16391" lon="1.61229">
        <ele>268</ele>
        <time>2012-09-23T11:16:58Z</time>
      </trkpt>
      <trkpt lat="43.1638" lon="1.6123">
        <ele>268</ele>
        <time>2012-09-23T11:17:00Z</time>
      </trkpt>
      <trkpt lat="43.1637" lon="1.6123">
        <ele>268</ele>
        <time>2012-09-23T11:17:02Z</time>
      </trkpt>
      <trkpt lat="43.1636" lon="1.61229">
        <ele>268</ele>
        <time>2012-09-23T11:17:04Z</time>
      </trkpt>
      <trkpt lat="43.1635" lon="1.61229">
        <ele>268</ele>
        <time>2012-09-23T11:17:06Z</time>
      </trkpt>
      <trkpt lat="43.1634" lon="1.61228">
        <ele>268</ele>
        <time>2012-09-23T11:17:08Z</time>
      </trkpt>
      <trkpt lat="43.16331" lon="1.61228">
        <ele>268</ele>
        <time>2012-09-23T11:17:10Z</time>
      </trkpt>
      <trkpt lat="43.16321" lon="1.61228">
        <ele>268</ele>
        <time>2012-09-23T11:17:12Z</time>
      </trkpt>
      <trkpt lat="43.16311" lon="1.61228">
        <ele>268</ele>
        <time>2012-09-23T11:17:14Z</time>
      </trkpt>
      <trkpt lat="43.16301" lon="1.61228">
        <ele>268</ele>
        <time>2012-09-23T11:17:16Z</time>
      </trkpt>
      <trkpt lat="43.16291" lon="1.61228">
        <ele>268</ele>
        <time>2012-09-23T11:17:18Z</time>
      </trkpt>
      <trkpt lat="43.1628" lon="1.61228">
        <ele>268</ele>
        <time>2012-09-23T11:17:20Z</time>
      </trkpt>
      <trkpt lat="43.1627" lon="1.61228">
        <ele>268</ele>
        <time>2012-09-23T11:17:22Z</time>
      </trkpt>
      <trkpt lat="43.1626" lon="1.61228">
        <ele>268</ele>
        <time>2012-09-23T11:17:24Z</time>
      </trkpt>
      <trkpt lat="43.1625" lon="1.61228">
        <ele>268</ele>
        <time>2012-09-23T11:17:26Z</time>
      </trkpt>
      <trkpt lat="43.1624" lon="1.61228">
        <ele>268</ele>
        <time>2012-09-23T11:17:28Z</time>
      </trkpt>
      <trkpt lat="43.16231" lon="1.61228">
        <ele>268</ele>
        <time>2012-09-23T11:17:30Z</time>
      </trkpt>
      <trkpt lat="43.16222" lon="1.61229">
        <ele>268</ele>
        <time>2012-09-23T11:17:32Z</time>
      </trkpt>
      <trkpt lat="43.16212" lon="1.61229">
        <ele>268</ele>
        <time>2012-09-23T11:17:34Z</time>
      </trkpt>
      <trkpt lat="43.16202" lon="1.61229">
        <ele>269</ele>
        <time>2012-09-23T11:17:36Z</time>
      </trkpt>
      <trkpt lat="43.16193" lon="1.61228">
        <ele>269</ele>
        <time>2012-09-23T11:17:38Z</time>
      </trkpt>
      <trkpt lat="43.16183" lon="1.61229">
        <ele>269</ele>
        <time>2012-09-23T11:17:40Z</time>
      </trkpt>
      <trkpt lat="43.16174" lon="1.61229">
        <ele>269</ele>
        <time>2012-09-23T11:17:42Z</time>
      </trkpt>
      <trkpt lat="43.16163" lon="1.61229">
        <ele>269</ele>
        <time>2012-09-23T11:17:44Z</time>
      </trkpt>
      <trkpt lat="43.16153" lon="1.6123">
        <ele>269</ele>
        <time>2012-09-23T11:17:46Z</time>
      </trkpt>
      <trkpt lat="43.16143" lon="1.6123">
        <ele>269</ele>
        <time>2012-09-23T11:17:48Z</time>
      </trkpt>
      <trkpt lat="43.16132" lon="1.6123">
        <ele>269</ele>
        <time>2012-09-23T11:17:50Z</time>
      </trkpt>
      <trkpt lat="43.16122" lon="1.6123">
        <ele>269</ele>
        <time>2012-09-23T11:17:52Z</time>
      </trkpt>
      <trkpt lat="43.16112" lon="1.6123">
        <ele>269</ele>
        <time>2012-09-23T11:17:54Z</time>
      </trkpt>
      <trkpt lat="43.16102" lon="1.61231">
        <ele>269</ele>
        <time>2012-09-23T11:17:56Z</time>
      </trkpt>
      <trkpt lat="43.16092" lon="1.61231">
        <ele>269</ele>
        <time>2012-09-23T11:17:58Z</time>
      </trkpt>
      <trkpt lat="43.16082" lon="1.61231">
        <ele>269</ele>
        <time>2012-09-23T11:18:00Z</time>
      </trkpt>
      <trkpt lat="43.16072" lon="1.61231">
        <ele>269</ele>
        <time>2012-09-23T11:18:02Z</time>
      </trkpt>
      <trkpt lat="43.16061" lon="1.61231">
        <ele>269</ele>
        <time>2012-09-23T11:18:04Z</time>
      </trkpt>
      <trkpt lat="43.1605" lon="1.61232">
        <ele>269</ele>
        <time>2012-09-23T11:18:06Z</time>
      </trkpt>
      <trkpt lat="43.16039" lon="1.61232">
        <ele>269</ele>
        <time>2012-09-23T11:18:08Z</time>
      </trkpt>
      <trkpt lat="43.16027" lon="1.61232">
        <ele>269</ele>
        <time>2012-09-23T11:18:10Z</time>
      </trkpt>
      <trkpt lat="43.16016" lon="1.61232">
        <ele>269</ele>
        <time>2012-09-23T11:18:12Z</time>
      </trkpt>
      <trkpt lat="43.16004" lon="1.61233">
        <ele>269</ele>
        <time>2012-09-23T11:18:14Z</time>
      </trkpt>
      <trkpt lat="43.15994" lon="1.61234">
        <ele>269</ele>
        <time>2012-09-23T11:18:16Z</time>
      </trkpt>
      <trkpt lat="43.15986" lon="1.61239">
        <ele>269</ele>
        <time>2012-09-23T11:18:18Z</time>
      </trkpt>
      <trkpt lat="43.15985" lon="1.61249">
        <ele>269</ele>
        <time>2012-09-23T11:18:20Z</time>
      </trkpt>
      <trkpt lat="43.15989" lon="1.61266">
        <ele>269</ele>
        <time>2012-09-23T11:18:23Z</time>
      </trkpt>
      <trkpt lat="43.15992" lon="1.61278">
        <ele>269</ele>
        <time>2012-09-23T11:18:25Z</time>
      </trkpt>
      <trkpt lat="43.15994" lon="1.6129">
        <ele>269</ele>
        <time>2012-09-23T11:18:27Z</time>
      </trkpt>
      <trkpt lat="43.15996" lon="1.61303">
        <ele>269</ele>
        <time>2012-09-23T11:18:29Z</time>
      </trkpt>
      <trkpt lat="43.15998" lon="1.61315">
        <ele>269</ele>
        <time>2012-09-23T11:18:31Z</time>
      </trkpt>
      <trkpt lat="43.16" lon="1.61328">
        <ele>269</ele>
        <time>2012-09-23T11:18:33Z</time>
      </trkpt>
      <trkpt lat="43.16003" lon="1.6134">
        <ele>269</ele>
        <time>2012-09-23T11:18:35Z</time>
      </trkpt>
      <trkpt lat="43.16007" lon="1.61358">
        <ele>269</ele>
        <time>2012-09-23T11:18:38Z</time>
      </trkpt>
      <trkpt lat="43.1601" lon="1.61371">
        <ele>269</ele>
        <time>2012-09-23T11:18:40Z</time>
      </trkpt>
      <trkpt lat="43.16013" lon="1.61383">
        <ele>270</ele>
        <time>2012-09-23T11:18:42Z</time>
      </trkpt>
      <trkpt lat="43.16015" lon="1.61396">
        <ele>270</ele>
        <time>2012-09-23T11:18:44Z</time>
      </trkpt>
      <trkpt lat="43.16017" lon="1.61408">
        <ele>271</ele>
        <time>2012-09-23T11:18:46Z</time>
      </trkpt>
      <trkpt lat="43.16018" lon="1.6142">
        <ele>271</ele>
        <time>2012-09-23T11:18:48Z</time>
      </trkpt>
      <trkpt lat="43.1602" lon="1.61431">
        <ele>271</ele>
        <time>2012-09-23T11:18:50Z</time>
      </trkpt>
      <trkpt lat="43.16021" lon="1.61447">
        <ele>272</ele>
        <time>2012-09-23T11:18:53Z</time>
      </trkpt>
      <trkpt lat="43.16022" lon="1.61458">
        <ele>272</ele>
        <time>2012-09-23T11:18:55Z</time>
      </trkpt>
      <trkpt lat="43.16022" lon="1.61475">
        <ele>273</ele>
        <time>2012-09-23T11:18:58Z</time>
      </trkpt>
      <trkpt lat="43.16022" lon="1.61486">
        <ele>273</ele>
        <time>2012-09-23T11:19:00Z</time>
      </trkpt>
      <trkpt lat="43.16022" lon="1.61501">
        <ele>274</ele>
        <time>2012-09-23T11:19:03Z</time>
      </trkpt>
      <trkpt lat="43.16022" lon="1.61511">
        <ele>275</ele>
        <time>2012-09-23T11:19:05Z</time>
      </trkpt>
      <trkpt lat="43.16021" lon="1.61526">
        <ele>275</ele>
        <time>2012-09-23T11:19:08Z</time>
      </trkpt>
      <trkpt lat="43.1602" lon="1.61537">
        <ele>276</ele>
        <time>2012-09-23T11:19:10Z</time>
      </trkpt>
      <trkpt lat="43.16018" lon="1.61552">
        <ele>277</ele>
        <time>2012-09-23T11:19:13Z</time>
      </trkpt>
      <trkpt lat="43.16017" lon="1.61563">
        <ele>277</ele>
        <time>2012-09-23T11:19:15Z</time>
      </trkpt>
      <trkpt lat="43.16016" lon="1.61579">
        <ele>278</ele>
        <time>2012-09-23T11:19:18Z</time>
      </trkpt>
      <trkpt lat="43.16014" lon="1.6159">
        <ele>278</ele>
        <time>2012-09-23T11:19:20Z</time>
      </trkpt>
      <trkpt lat="43.16013" lon="1.61608">
        <ele>278</ele>
        <time>2012-09-23T11:19:23Z</time>
      </trkpt>
      <trkpt lat="43.16011" lon="1.6162">
        <ele>278</ele>
        <time>2012-09-23T11:19:25Z</time>
      </trkpt>
      <trkpt lat="43.1601" lon="1.61639">
        <ele>278</ele>
        <time>2012-09-23T11:19:28Z</time>
      </trkpt>
      <trkpt lat="43.16008" lon="1.61652">
        <ele>278</ele>
        <time>2012-09-23T11:19:30Z</time>
      </trkpt>
      <trkpt lat="43.16004" lon="1.61673">
        <ele>278</ele>
        <time>2012-09-23T11:19:33Z</time>
      </trkpt>
      <trkpt lat="43.15998" lon="1.61685">
        <ele>278</ele>
        <time>2012-09-23T11:19:35Z</time>
      </trkpt>
      <trkpt lat="43.1599" lon="1.61698">
        <ele>278</ele>
        <time>2012-09-23T11:19:37Z</time>
      </trkpt>
      <trkpt lat="43.15981" lon="1.6171">
        <ele>278</ele>
        <time>2012-09-23T11:19:39Z</time>
      </trkpt>
      <trkpt lat="43.15968" lon="1.61719">
        <ele>278</ele>
        <time>2012-09-23T11:19:41Z</time>
      </trkpt>
      <trkpt lat="43.15954" lon="1.61725">
        <ele>278</ele>
        <time>2012-09-23T11:19:43Z</time>
      </trkpt>
      <trkpt lat="43.15939" lon="1.61728">
        <ele>278</ele>
        <time>2012-09-23T11:19:45Z</time>
      </trkpt>
      <trkpt lat="43.15924" lon="1.61725">
        <ele>278</ele>
        <time>2012-09-23T11:19:47Z</time>
      </trkpt>
      <trkpt lat="43.15909" lon="1.6172">
        <ele>278</ele>
        <time>2012-09-23T11:19:49Z</time>
      </trkpt>
      <trkpt lat="43.15894" lon="1.61714">
        <ele>277</ele>
        <time>2012-09-23T11:19:51Z</time>
      </trkpt>
      <trkpt lat="43.15879" lon="1.61709">
        <ele>277</ele>
        <time>2012-09-23T11:19:53Z</time>
      </trkpt>
      <trkpt lat="43.15865" lon="1.61707">
        <ele>277</ele>
        <time>2012-09-23T11:19:55Z</time>
      </trkpt>
      <trkpt lat="43.15851" lon="1.61706">
        <ele>277</ele>
        <time>2012-09-23T11:19:57Z</time>
      </trkpt>
      <trkpt lat="43.15837" lon="1.61706">
        <ele>277</ele>
        <time>2012-09-23T11:19:59Z</time>
      </trkpt>
      <trkpt lat="43.15823" lon="1.61708">
        <ele>277</ele>
        <time>2012-09-23T11:20:01Z</time>
      </trkpt>
      <trkpt lat="43.1581" lon="1.61711">
        <ele>277</ele>
        <time>2012-09-23T11:20:03Z</time>
      </trkpt>
      <trkpt lat="43.15797" lon="1.61715">
        <ele>277</ele>
        <time>2012-09-23T11:20:05Z</time>
      </trkpt>
      <trkpt lat="43.15784" lon="1.61718">
        <ele>277</ele>
        <time>2012-09-23T11:20:07Z</time>
      </trkpt>
      <trkpt lat="43.15772" lon="1.61722">
        <ele>277</ele>
        <time>2012-09-23T11:20:09Z</time>
      </trkpt>
      <trkpt lat="43.15754" lon="1.61726">
        <ele>277</ele>
        <time>2012-09-23T11:20:12Z</time>
      </trkpt>
      <trkpt lat="43.15742" lon="1.6173">
        <ele>277</ele>
        <time>2012-09-23T11:20:14Z</time>
      </trkpt>
      <trkpt lat="43.1573" lon="1.61733">
        <ele>277</ele>
        <time>2012-09-23T11:20:16Z</time>
      </trkpt>
      <trkpt lat="43.15718" lon="1.61736">
        <ele>277</ele>
        <time>2012-09-23T11:20:18Z</time>
      </trkpt>
      <trkpt lat="43.15707" lon="1.6174">
        <ele>277</ele>
        <time>2012-09-23T11:20:20Z</time>
      </trkpt>
      <trkpt lat="43.1569" lon="1.61744">
        <ele>277</ele>
        <time>2012-09-23T11:20:23Z</time>
      </trkpt>
      <trkpt lat="43.15679" lon="1.61747">
        <ele>277</ele>
        <time>2012-09-23T11:20:25Z</time>
      </trkpt>
      <trkpt lat="43.15662" lon="1.61752">
        <ele>277</ele>
        <time>2012-09-23T11:20:28Z</time>
      </trkpt>
      <trkpt lat="43.15652" lon="1.61755">
        <ele>277</ele>
        <time>2012-09-23T11:20:30Z</time>
      </trkpt>
      <trkpt lat="43.15636" lon="1.6176">
        <ele>277</ele>
        <time>2012-09-23T11:20:33Z</time>
      </trkpt>
      <trkpt lat="43.15627" lon="1.61764">
        <ele>277</ele>
        <time>2012-09-23T11:20:35Z</time>
      </trkpt>
      <trkpt lat="43.15612" lon="1.61771">
        <ele>277</ele>
        <time>2012-09-23T11:20:38Z</time>
      </trkpt>
      <trkpt lat="43.15601" lon="1.61776">
        <ele>277</ele>
        <time>2012-09-23T11:20:40Z</time>
      </trkpt>
      <trkpt lat="43.15587" lon="1.61784">
        <ele>277</ele>
        <time>2012-09-23T11:20:43Z</time>
      </trkpt>
      <trkpt lat="43.15577" lon="1.6179">
        <ele>277</ele>
        <time>2012-09-23T11:20:45Z</time>
      </trkpt>
      <trkpt lat="43.15563" lon="1.61799">
        <ele>277</ele>
        <time>2012-09-23T11:20:48Z</time>
      </trkpt>
      <trkpt lat="43.15548" lon="1.61808">
        <ele>277</ele>
        <time>2012-09-23T11:20:51Z</time>
      </trkpt>
      <trkpt lat="43.15533" lon="1.61817">
        <ele>277</ele>
        <time>2012-09-23T11:20:54Z</time>
      </trkpt>
      <trkpt lat="43.15523" lon="1.61824">
        <ele>277</ele>
        <time>2012-09-23T11:20:56Z</time>
      </trkpt>
      <trkpt lat="43.15513" lon="1.6183">
        <ele>277</ele>
        <time>2012-09-23T11:20:58Z</time>
      </trkpt>
      <trkpt lat="43.15502" lon="1.61835">
        <ele>277</ele>
        <time>2012-09-23T11:21:00Z</time>
      </trkpt>
      <trkpt lat="43.1549" lon="1.61842">
        <ele>277</ele>
        <time>2012-09-23T11:21:02Z</time>
      </trkpt>
      <trkpt lat="43.15479" lon="1.61848">
        <ele>277</ele>
        <time>2012-09-23T11:21:04Z</time>
      </trkpt>
      <trkpt lat="43.15467" lon="1.61855">
        <ele>277</ele>
        <time>2012-09-23T11:21:06Z</time>
      </trkpt>
      <trkpt lat="43.1545" lon="1.61862">
        <ele>277</ele>
        <time>2012-09-23T11:21:09Z</time>
      </trkpt>
      <trkpt lat="43.15433" lon="1.61868">
        <ele>277</ele>
        <time>2012-09-23T11:21:12Z</time>
      </trkpt>
      <trkpt lat="43.15415" lon="1.61871">
        <ele>277</ele>
        <time>2012-09-23T11:21:15Z</time>
      </trkpt>
      <trkpt lat="43.15403" lon="1.61873">
        <ele>277</ele>
        <time>2012-09-23T11:21:17Z</time>
      </trkpt>
      <trkpt lat="43.15391" lon="1.61875">
        <ele>277</ele>
        <time>2012-09-23T11:21:19Z</time>
      </trkpt>
      <trkpt lat="43.15379" lon="1.61877">
        <ele>277</ele>
        <time>2012-09-23T11:21:21Z</time>
      </trkpt>
      <trkpt lat="43.15368" lon="1.61878">
        <ele>277</ele>
        <time>2012-09-23T11:21:23Z</time>
      </trkpt>
      <trkpt lat="43.15356" lon="1.6188">
        <ele>277</ele>
        <time>2012-09-23T11:21:25Z</time>
      </trkpt>
      <trkpt lat="43.15344" lon="1.61882">
        <ele>277</ele>
        <time>2012-09-23T11:21:27Z</time>
      </trkpt>
      <trkpt lat="43.15332" lon="1.61884">
        <ele>277</ele>
        <time>2012-09-23T11:21:29Z</time>
      </trkpt>
      <trkpt lat="43.1532" lon="1.61885">
        <ele>277</ele>
        <time>2012-09-23T11:21:31Z</time>
      </trkpt>
      <trkpt lat="43.15308" lon="1.61887">
        <ele>277</ele>
        <time>2012-09-23T11:21:33Z</time>
      </trkpt>
      <trkpt lat="43.15296" lon="1.61889">
        <ele>277</ele>
        <time>2012-09-23T11:21:35Z</time>
      </trkpt>
      <trkpt lat="43.15278" lon="1.61892">
        <ele>277</ele>
        <time>2012-09-23T11:21:38Z</time>
      </trkpt>
      <trkpt lat="43.15266" lon="1.61894">
        <ele>277</ele>
        <time>2012-09-23T11:21:40Z</time>
      </trkpt>
      <trkpt lat="43.15254" lon="1.61896">
        <ele>277</ele>
        <time>2012-09-23T11:21:42Z</time>
      </trkpt>
      <trkpt lat="43.15236" lon="1.61899">
        <ele>277</ele>
        <time>2012-09-23T11:21:45Z</time>
      </trkpt>
      <trkpt lat="43.15217" lon="1.61902">
        <ele>277</ele>
        <time>2012-09-23T11:21:48Z</time>
      </trkpt>
      <trkpt lat="43.15205" lon="1.61904">
        <ele>277</ele>
        <time>2012-09-23T11:21:50Z</time>
      </trkpt>
      <trkpt lat="43.15193" lon="1.61906">
        <ele>277</ele>
        <time>2012-09-23T11:21:52Z</time>
      </trkpt>
      <trkpt lat="43.15181" lon="1.61906">
        <ele>277</ele>
        <time>2012-09-23T11:21:54Z</time>
      </trkpt>
      <trkpt lat="43.15169" lon="1.61905">
        <ele>277</ele>
        <time>2012-09-23T11:21:56Z</time>
      </trkpt>
      <trkpt lat="43.1515" lon="1.61904">
        <ele>277</ele>
        <time>2012-09-23T11:21:59Z</time>
      </trkpt>
      <trkpt lat="43.15138" lon="1.61903">
        <ele>277</ele>
        <time>2012-09-23T11:22:01Z</time>
      </trkpt>
      <trkpt lat="43.15119" lon="1.61904">
        <ele>277</ele>
        <time>2012-09-23T11:22:04Z</time>
      </trkpt>
      <trkpt lat="43.15107" lon="1.61906">
        <ele>277</ele>
        <time>2012-09-23T11:22:06Z</time>
      </trkpt>
      <trkpt lat="43.15089" lon="1.61911">
        <ele>277</ele>
        <time>2012-09-23T11:22:09Z</time>
      </trkpt>
      <trkpt lat="43.15078" lon="1.61916">
        <ele>277</ele>
        <time>2012-09-23T11:22:11Z</time>
      </trkpt>
      <trkpt lat="43.15066" lon="1.61932">
        <ele>277</ele>
        <time>2012-09-23T11:22:14Z</time>
      </trkpt>
      <trkpt lat="43.15065" lon="1.61946">
        <ele>277</ele>
        <time>2012-09-23T11:22:16Z</time>
      </trkpt>
      <trkpt lat="43.15065" lon="1.61961">
        <ele>277</ele>
        <time>2012-09-23T11:22:18Z</time>
      </trkpt>
      <trkpt lat="43.15067" lon="1.61984">
        <ele>277</ele>
        <time>2012-09-23T11:22:21Z</time>
      </trkpt>
      <trkpt lat="43.15068" lon="1.62">
        <ele>277</ele>
        <time>2012-09-23T11:22:23Z</time>
      </trkpt>
      <trkpt lat="43.1507" lon="1.62024">
        <ele>277</ele>
        <time>2012-09-23T11:22:26Z</time>
      </trkpt>
      <trkpt lat="43.15072" lon="1.62048">
        <ele>277</ele>
        <time>2012-09-23T11:22:29Z</time>
      </trkpt>
      <trkpt lat="43.15074" lon="1.62063">
        <ele>277</ele>
        <time>2012-09-23T11:22:31Z</time>
      </trkpt>
      <trkpt lat="43.15076" lon="1.62087">
        <ele>277</ele>
        <time>2012-09-23T11:22:34Z</time>
      </trkpt>
      <trkpt lat="43.15076" lon="1.62104">
        <ele>277</ele>
        <time>2012-09-23T11:22:36Z</time>
      </trkpt>
      <trkpt lat="43.15077" lon="1.6212">
        <ele>277</ele>
        <time>2012-09-23T11:22:38Z</time>
      </trkpt>
      <trkpt lat="43.15078" lon="1.62136">
        <ele>277</ele>
        <time>2012-09-23T11:22:40Z</time>
      </trkpt>
      <trkpt lat="43.15079" lon="1.62151">
        <ele>277</ele>
        <time>2012-09-23T11:22:42Z</time>
      </trkpt>
      <trkpt lat="43.1508" lon="1.62173">
        <ele>277</ele>
        <time>2012-09-23T11:22:45Z</time>
      </trkpt>
      <trkpt lat="43.15081" lon="1.62188">
        <ele>277</ele>
        <time>2012-09-23T11:22:47Z</time>
      </trkpt>
      <trkpt lat="43.15079" lon="1.6221">
        <ele>277</ele>
        <time>2012-09-23T11:22:50Z</time>
      </trkpt>
      <trkpt lat="43.15077" lon="1.62224">
        <ele>277</ele>
        <time>2012-09-23T11:22:52Z</time>
      </trkpt>
      <trkpt lat="43.15075" lon="1.62239">
        <ele>277</ele>
        <time>2012-09-23T11:22:54Z</time>
      </trkpt>
      <trkpt lat="43.15073" lon="1.62253">
        <ele>277</ele>
        <time>2012-09-23T11:22:56Z</time>
      </trkpt>
      <trkpt lat="43.15071" lon="1.62274">
        <ele>277</ele>
        <time>2012-09-23T11:22:59Z</time>
      </trkpt>
      <trkpt lat="43.15071" lon="1.62288">
        <ele>277</ele>
        <time>2012-09-23T11:23:01Z</time>
      </trkpt>
      <trkpt lat="43.15071" lon="1.62303">
        <ele>277</ele>
        <time>2012-09-23T11:23:03Z</time>
      </trkpt>
      <trkpt lat="43.15071" lon="1.62317">
        <ele>277</ele>
        <time>2012-09-23T11:23:05Z</time>
      </trkpt>
      <trkpt lat="43.15072" lon="1.62331">
        <ele>277</ele>
        <time>2012-09-23T11:23:07Z</time>
      </trkpt>
      <trkpt lat="43.15072" lon="1.62345">
        <ele>277</ele>
        <time>2012-09-23T11:23:09Z</time>
      </trkpt>
      <trkpt lat="43.15072" lon="1.62366">
        <ele>277</ele>
        <time>2012-09-23T11:23:12Z</time>
      </trkpt>
      <trkpt lat="43.15072" lon="1.62387">
        <ele>277</ele>
        <time>2012-09-23T11:23:15Z</time>
      </trkpt>
      <trkpt lat="43.15072" lon="1.62401">
        <ele>277</ele>
        <time>2012-09-23T11:23:17Z</time>
      </trkpt>
      <trkpt lat="43.15073" lon="1.62415">
        <ele>277</ele>
        <time>2012-09-23T11:23:19Z</time>
      </trkpt>
      <trkpt lat="43.15073" lon="1.62429">
        <ele>277</ele>
        <time>2012-09-23T11:23:21Z</time>
      </trkpt>
      <trkpt lat="43.15073" lon="1.62442">
        <ele>277</ele>
        <time>2012-09-23T11:23:23Z</time>
      </trkpt>
      <trkpt lat="43.15073" lon="1.62463">
        <ele>277</ele>
        <time>2012-09-23T11:23:26Z</time>
      </trkpt>
      <trkpt lat="43.15073" lon="1.62476">
        <ele>277</ele>
        <time>2012-09-23T11:23:28Z</time>
      </trkpt>
      <trkpt lat="43.15073" lon="1.62495">
        <ele>277</ele>
        <time>2012-09-23T11:23:31Z</time>
      </trkpt>
      <trkpt lat="43.15071" lon="1.62506">
        <ele>277</ele>
        <time>2012-09-23T11:23:33Z</time>
      </trkpt>
      <trkpt lat="43.1506" lon="1.62516">
        <ele>277</ele>
        <time>2012-09-23T11:23:36Z</time>
      </trkpt>
      <trkpt lat="43.15053" lon="1.62521">
        <ele>277</ele>
        <time>2012-09-23T11:23:38Z</time>
      </trkpt>
      <trkpt lat="43.15041" lon="1.62528">
        <ele>277</ele>
        <time>2012-09-23T11:23:41Z</time>
      </trkpt>
      <trkpt lat="43.15032" lon="1.62532">
        <ele>277</ele>
        <time>2012-09-23T11:23:43Z</time>
      </trkpt>
      <trkpt lat="43.15019" lon="1.62538">
        <ele>277</ele>
        <time>2012-09-23T11:23:46Z</time>
      </trkpt>
      <trkpt lat="43.15009" lon="1.62541">
        <ele>277</ele>
        <time>2012-09-23T11:23:48Z</time>
      </trkpt>
      <trkpt lat="43.14994" lon="1.62544">
        <ele>277</ele>
        <time>2012-09-23T11:23:51Z</time>
      </trkpt>
      <trkpt lat="43.14983" lon="1.62548">
        <ele>277</ele>
        <time>2012-09-23T11:23:53Z</time>
      </trkpt>
      <trkpt lat="43.14968" lon="1.62553">
        <ele>277</ele>
        <time>2012-09-23T11:23:56Z</time>
      </trkpt>
      <trkpt lat="43.14958" lon="1.62555">
        <ele>277</ele>
        <time>2012-09-23T11:23:58Z</time>
      </trkpt>
      <trkpt lat="43.14947" lon="1.62557">
        <ele>277</ele>
        <time>2012-09-23T11:24:00Z</time>
      </trkpt>
      <trkpt lat="43.14932" lon="1.62562">
        <ele>277</ele>
        <time>2012-09-23T11:24:03Z</time>
      </trkpt>
      <trkpt lat="43.14921" lon="1.62566">
        <ele>277</ele>
        <time>2012-09-23T11:24:05Z</time>
      </trkpt>
      <trkpt lat="43.14911" lon="1.62568">
        <ele>277</ele>
        <time>2012-09-23T11:24:07Z</time>
      </trkpt>
      <trkpt lat="43.14901" lon="1.62571">
        <ele>277</ele>
        <time>2012-09-23T11:24:09Z</time>
      </trkpt>
      <trkpt lat="43.14885" lon="1.62575">
        <ele>277</ele>
        <time>2012-09-23T11:24:12Z</time>
      </trkpt>
      <trkpt lat="43.14875" lon="1.62577">
        <ele>277</ele>
        <time>2012-09-23T11:24:14Z</time>
      </trkpt>
      <trkpt lat="43.14859" lon="1.62577">
        <ele>277</ele>
        <time>2012-09-23T11:24:17Z</time>
      </trkpt>
      <trkpt lat="43.14849" lon="1.62576">
        <ele>277</ele>
        <time>2012-09-23T11:24:19Z</time>
      </trkpt>
      <trkpt lat="43.14839" lon="1.62576">
        <ele>277</ele>
        <time>2012-09-23T11:24:21Z</time>
      </trkpt>
      <trkpt lat="43.14829" lon="1.62576">
        <ele>277</ele>
        <time>2012-09-23T11:24:23Z</time>
      </trkpt>
      <trkpt lat="43.14818" lon="1.62576">
        <ele>277</ele>
        <time>2012-09-23T11:24:25Z</time>
      </trkpt>
      <trkpt lat="43.14803" lon="1.62569">
        <ele>277</ele>
        <time>2012-09-23T11:24:28Z</time>
      </trkpt>
      <trkpt lat="43.14794" lon="1.62562">
        <ele>277</ele>
        <time>2012-09-23T11:24:30Z</time>
      </trkpt>
      <trkpt lat="43.14785" lon="1.62556">
        <ele>277</ele>
        <time>2012-09-23T11:24:32Z</time>
      </trkpt>
      <trkpt lat="43.14776" lon="1.62552">
        <ele>277</ele>
        <time>2012-09-23T11:24:34Z</time>
      </trkpt>
      <trkpt lat="43.14767" lon="1.62548">
        <ele>277</ele>
        <time>2012-09-23T11:24:36Z</time>
      </trkpt>
      <trkpt lat="43.14753" lon="1.62541">
        <ele>277</ele>
        <time>2012-09-23T11:24:39Z</time>
      </trkpt>
      <trkpt lat="43.14743" lon="1.62535">
        <ele>277</ele>
        <time>2012-09-23T11:24:41Z</time>
      </trkpt>
      <trkpt lat="43.14729" lon="1.62527">
        <ele>277</ele>
        <time>2012-09-23T11:24:44Z</time>
      </trkpt>
      <trkpt lat="43.14718" lon="1.62522">
        <ele>277</ele>
        <time>2012-09-23T11:24:46Z</time>
      </trkpt>
      <trkpt lat="43.14703" lon="1.62514">
        <ele>278</ele>
        <time>2012-09-23T11:24:49Z</time>
      </trkpt>
      <trkpt lat="43.14694" lon="1.62509">
        <ele>278</ele>
        <time>2012-09-23T11:24:51Z</time>
      </trkpt>
      <trkpt lat="43.14685" lon="1.62502">
        <ele>278</ele>
        <time>2012-09-23T11:24:53Z</time>
      </trkpt>
      <trkpt lat="43.14676" lon="1.62493">
        <ele>278</ele>
        <time>2012-09-23T11:24:55Z</time>
      </trkpt>
      <trkpt lat="43.14669" lon="1.62483">
        <ele>278</ele>
        <time>2012-09-23T11:24:57Z</time>
      </trkpt>
      <trkpt lat="43.14661" lon="1.62473">
        <ele>278</ele>
        <time>2012-09-23T11:24:59Z</time>
      </trkpt>
      <trkpt lat="43.14654" lon="1.62461">
        <ele>278</ele>
        <time>2012-09-23T11:25:01Z</time>
      </trkpt>
      <trkpt lat="43.14643" lon="1.62443">
        <ele>278</ele>
        <time>2012-09-23T11:25:04Z</time>
      </trkpt>
      <trkpt lat="43.14636" lon="1.6243">
        <ele>278</ele>
        <time>2012-09-23T11:25:06Z</time>
      </trkpt>
      <trkpt lat="43.14625" lon="1.62411">
        <ele>279</ele>
        <time>2012-09-23T11:25:09Z</time>
      </trkpt>
      <trkpt lat="43.14619" lon="1.62397">
        <ele>279</ele>
        <time>2012-09-23T11:25:11Z</time>
      </trkpt>
      <trkpt lat="43.14612" lon="1.62375">
        <ele>280</ele>
        <time>2012-09-23T11:25:14Z</time>
      </trkpt>
      <trkpt lat="43.14608" lon="1.6236">
        <ele>281</ele>
        <time>2012-09-23T11:25:16Z</time>
      </trkpt>
      <trkpt lat="43.14603" lon="1.62337">
        <ele>282</ele>
        <time>2012-09-23T11:25:19Z</time>
      </trkpt>
      <trkpt lat="43.14597" lon="1.62323">
        <ele>282</ele>
        <time>2012-09-23T11:25:21Z</time>
      </trkpt>
      <trkpt lat="43.14584" lon="1.62306">
        <ele>282</ele>
        <time>2012-09-23T11:25:24Z</time>
      </trkpt>
      <trkpt lat="43.14573" lon="1.623">
        <ele>282</ele>
        <time>2012-09-23T11:25:26Z</time>
      </trkpt>
      <trkpt lat="43.14556" lon="1.62289">
        <ele>282</ele>
        <time>2012-09-23T11:25:29Z</time>
      </trkpt>
      <trkpt lat="43.14544" lon="1.62283">
        <ele>282</ele>
        <time>2012-09-23T11:25:31Z</time>
      </trkpt>
      <trkpt lat="43.14528" lon="1.62272">
        <ele>282</ele>
        <time>2012-09-23T11:25:34Z</time>
      </trkpt>
      <trkpt lat="43.1452" lon="1.62262">
        <ele>282</ele>
        <time>2012-09-23T11:25:36Z</time>
      </trkpt>
      <trkpt lat="43.14506" lon="1.62247">
        <ele>282</ele>
        <time>2012-09-23T11:25:39Z</time>
      </trkpt>
      <trkpt lat="43.14498" lon="1.62238">
        <ele>282</ele>
        <time>2012-09-23T11:25:41Z</time>
      </trkpt>
      <trkpt lat="43.14486" lon="1.62227">
        <ele>282</ele>
        <time>2012-09-23T11:25:44Z</time>
      </trkpt>
      <trkpt lat="43.14478" lon="1.62223">
        <ele>282</ele>
        <time>2012-09-23T11:25:46Z</time>
      </trkpt>
      <trkpt lat="43.1447" lon="1.62219">
        <ele>282</ele>
        <time>2012-09-23T11:25:48Z</time>
      </trkpt>
      <trkpt lat="43.1447" lon="1.62213">
        <ele>282</ele>
        <time>2012-09-23T11:25:51Z</time>
      </trkpt>
      <trkpt lat="43.14472" lon="1.6221">
        <ele>282</ele>
        <time>2012-09-23T11:25:59Z</time>
      </trkpt>
      <trkpt lat="43.14474" lon="1.62211">
        <ele>282</ele>
        <time>2012-09-23T11:26:04Z</time>
      </trkpt>
      <trkpt lat="43.14473" lon="1.62211">
        <ele>282</ele>
        <time>2012-09-23T11:26:12Z</time>
      </trkpt>
      <trkpt lat="43.14473" lon="1.62213">
        <ele>282</ele>
        <time>2012-09-23T11:26:25Z</time>
      </trkpt>
      <trkpt lat="43.14472" lon="1.62214">
        <ele>282</ele>
        <time>2012-09-23T11:26:40Z</time>
      </trkpt>
      <trkpt lat="43.14469" lon="1.62218">
        <ele>282</ele>
        <time>2012-09-23T11:26:44Z</time>
      </trkpt>
      <trkpt lat="43.14466" lon="1.62222">
        <ele>282</ele>
        <time>2012-09-23T11:26:46Z</time>
      </trkpt>
      <trkpt lat="43.14462" lon="1.62228">
        <ele>282</ele>
        <time>2012-09-23T11:26:48Z</time>
      </trkpt>
      <trkpt lat="43.14459" lon="1.62239">
        <ele>282</ele>
        <time>2012-09-23T11:26:50Z</time>
      </trkpt>
      <trkpt lat="43.14455" lon="1.6226">
        <ele>282</ele>
        <time>2012-09-23T11:26:53Z</time>
      </trkpt>
      <trkpt lat="43.14453" lon="1.62275">
        <ele>282</ele>
        <time>2012-09-23T11:26:55Z</time>
      </trkpt>
      <trkpt lat="43.14449" lon="1.62298">
        <ele>282</ele>
        <time>2012-09-23T11:26:58Z</time>
      </trkpt>
      <trkpt lat="43.14446" lon="1.62314">
        <ele>282</ele>
        <time>2012-09-23T11:27:00Z</time>
      </trkpt>
      <trkpt lat="43.14442" lon="1.62337">
        <ele>282</ele>
        <time>2012-09-23T11:27:03Z</time>
      </trkpt>
      <trkpt lat="43.14439" lon="1.62353">
        <ele>282</ele>
        <time>2012-09-23T11:27:05Z</time>
      </trkpt>
      <trkpt lat="43.14435" lon="1.62376">
        <ele>282</ele>
        <time>2012-09-23T11:27:08Z</time>
      </trkpt>
      <trkpt lat="43.14432" lon="1.62392">
        <ele>282</ele>
        <time>2012-09-23T11:27:10Z</time>
      </trkpt>
      <trkpt lat="43.14428" lon="1.62416">
        <ele>282</ele>
        <time>2012-09-23T11:27:13Z</time>
      </trkpt>
      <trkpt lat="43.14425" lon="1.62431">
        <ele>282</ele>
        <time>2012-09-23T11:27:15Z</time>
      </trkpt>
      <trkpt lat="43.14421" lon="1.62454">
        <ele>282</ele>
        <time>2012-09-23T11:27:18Z</time>
      </trkpt>
      <trkpt lat="43.14418" lon="1.62469">
        <ele>282</ele>
        <time>2012-09-23T11:27:20Z</time>
      </trkpt>
      <trkpt lat="43.14416" lon="1.62493">
        <ele>282</ele>
        <time>2012-09-23T11:27:23Z</time>
      </trkpt>
      <trkpt lat="43.14418" lon="1.62508">
        <ele>282</ele>
        <time>2012-09-23T11:27:25Z</time>
      </trkpt>
      <trkpt lat="43.14417" lon="1.6253">
        <ele>282</ele>
        <time>2012-09-23T11:27:28Z</time>
      </trkpt>
      <trkpt lat="43.14413" lon="1.62545">
        <ele>281</ele>
        <time>2012-09-23T11:27:30Z</time>
      </trkpt>
      <trkpt lat="43.14407" lon="1.62566">
        <ele>280</ele>
        <time>2012-09-23T11:27:33Z</time>
      </trkpt>
      <trkpt lat="43.14401" lon="1.62579">
        <ele>280</ele>
        <time>2012-09-23T11:27:35Z</time>
      </trkpt>
      <trkpt lat="43.14394" lon="1.626">
        <ele>280</ele>
        <time>2012-09-23T11:27:38Z</time>
      </trkpt>
      <trkpt lat="43.14392" lon="1.62613">
        <ele>280</ele>
        <time>2012-09-23T11:27:40Z</time>
      </trkpt>
      <trkpt lat="43.14389" lon="1.62634">
        <ele>280</ele>
        <time>2012-09-23T11:27:43Z</time>
      </trkpt>
      <trkpt lat="43.14387" lon="1.62648">
        <ele>280</ele>
        <time>2012-09-23T11:27:45Z</time>
      </trkpt>
      <trkpt lat="43.14383" lon="1.62669">
        <ele>280</ele>
        <time>2012-09-23T11:27:48Z</time>
      </trkpt>
      <trkpt lat="43.14381" lon="1.62683">
        <ele>280</ele>
        <time>2012-09-23T11:27:50Z</time>
      </trkpt>
      <trkpt lat="43.14379" lon="1.62698">
        <ele>280</ele>
        <time>2012-09-23T11:27:52Z</time>
      </trkpt>
      <trkpt lat="43.14376" lon="1.62712">
        <ele>280</ele>
        <time>2012-09-23T11:27:54Z</time>
      </trkpt>
      <trkpt lat="43.14374" lon="1.62726">
        <ele>280</ele>
        <time>2012-09-23T11:27:56Z</time>
      </trkpt>
      <trkpt lat="43.14371" lon="1.62741">
        <ele>280</ele>
        <time>2012-09-23T11:27:58Z</time>
      </trkpt>
      <trkpt lat="43.14369" lon="1.62755">
        <ele>280</ele>
        <time>2012-09-23T11:28:00Z</time>
      </trkpt>
      <trkpt lat="43.14365" lon="1.62775">
        <ele>280</ele>
        <time>2012-09-23T11:28:03Z</time>
      </trkpt>
      <trkpt lat="43.14362" lon="1.62788">
        <ele>280</ele>
        <time>2012-09-23T11:28:05Z</time>
      </trkpt>
      <trkpt lat="43.14354" lon="1.62805">
        <ele>280</ele>
        <time>2012-09-23T11:28:08Z</time>
      </trkpt>
      <trkpt lat="43.14345" lon="1.62811">
        <ele>280</ele>
        <time>2012-09-23T11:28:10Z</time>
      </trkpt>
      <trkpt lat="43.14336" lon="1.62814">
        <ele>280</ele>
        <time>2012-09-23T11:28:12Z</time>
      </trkpt>
      <trkpt lat="43.14326" lon="1.62818">
        <ele>280</ele>
        <time>2012-09-23T11:28:14Z</time>
      </trkpt>
      <trkpt lat="43.14317" lon="1.62821">
        <ele>280</ele>
        <time>2012-09-23T11:28:16Z</time>
      </trkpt>
      <trkpt lat="43.14307" lon="1.62824">
        <ele>280</ele>
        <time>2012-09-23T11:28:18Z</time>
      </trkpt>
      <trkpt lat="43.14297" lon="1.62828">
        <ele>280</ele>
        <time>2012-09-23T11:28:20Z</time>
      </trkpt>
      <trkpt lat="43.14283" lon="1.62833">
        <ele>280</ele>
        <time>2012-09-23T11:28:23Z</time>
      </trkpt>
      <trkpt lat="43.14273" lon="1.62838">
        <ele>280</ele>
        <time>2012-09-23T11:28:25Z</time>
      </trkpt>
      <trkpt lat="43.14258" lon="1.62844">
        <ele>280</ele>
        <time>2012-09-23T11:28:28Z</time>
      </trkpt>
      <trkpt lat="43.14248" lon="1.62847">
        <ele>280</ele>
        <time>2012-09-23T11:28:30Z</time>
      </trkpt>
      <trkpt lat="43.14233" lon="1.62853">
        <ele>280</ele>
        <time>2012-09-23T11:28:33Z</time>
      </trkpt>
      <trkpt lat="43.14223" lon="1.62857">
        <ele>280</ele>
        <time>2012-09-23T11:28:35Z</time>
      </trkpt>
      <trkpt lat="43.14207" lon="1.62863">
        <ele>280</ele>
        <time>2012-09-23T11:28:38Z</time>
      </trkpt>
      <trkpt lat="43.14197" lon="1.62867">
        <ele>280</ele>
        <time>2012-09-23T11:28:40Z</time>
      </trkpt>
      <trkpt lat="43.14187" lon="1.62872">
        <ele>280</ele>
        <time>2012-09-23T11:28:42Z</time>
      </trkpt>
      <trkpt lat="43.14177" lon="1.62875">
        <ele>280</ele>
        <time>2012-09-23T11:28:44Z</time>
      </trkpt>
      <trkpt lat="43.14167" lon="1.6288">
        <ele>280</ele>
        <time>2012-09-23T11:28:46Z</time>
      </trkpt>
      <trkpt lat="43.14157" lon="1.62884">
        <ele>280</ele>
        <time>2012-09-23T11:28:48Z</time>
      </trkpt>
      <trkpt lat="43.14142" lon="1.62889">
        <ele>280</ele>
        <time>2012-09-23T11:28:51Z</time>
      </trkpt>
      <trkpt lat="43.14132" lon="1.62893">
        <ele>280</ele>
        <time>2012-09-23T11:28:53Z</time>
      </trkpt>
      <trkpt lat="43.14122" lon="1.62896">
        <ele>280</ele>
        <time>2012-09-23T11:28:55Z</time>
      </trkpt>
      <trkpt lat="43.14108" lon="1.62901">
        <ele>280</ele>
        <time>2012-09-23T11:28:58Z</time>
      </trkpt>
      <trkpt lat="43.14099" lon="1.62906">
        <ele>280</ele>
        <time>2012-09-23T11:29:00Z</time>
      </trkpt>
      <trkpt lat="43.14084" lon="1.62911">
        <ele>280</ele>
        <time>2012-09-23T11:29:03Z</time>
      </trkpt>
      <trkpt lat="43.14074" lon="1.62915">
        <ele>280</ele>
        <time>2012-09-23T11:29:05Z</time>
      </trkpt>
      <trkpt lat="43.14059" lon="1.6292">
        <ele>280</ele>
        <time>2012-09-23T11:29:08Z</time>
      </trkpt>
      <trkpt lat="43.14049" lon="1.62924">
        <ele>280</ele>
        <time>2012-09-23T11:29:10Z</time>
      </trkpt>
      <trkpt lat="43.14039" lon="1.62928">
        <ele>280</ele>
        <time>2012-09-23T11:29:12Z</time>
      </trkpt>
      <trkpt lat="43.1403" lon="1.62932">
        <ele>280</ele>
        <time>2012-09-23T11:29:14Z</time>
      </trkpt>
      <trkpt lat="43.1402" lon="1.62935">
        <ele>280</ele>
        <time>2012-09-23T11:29:16Z</time>
      </trkpt>
      <trkpt lat="43.14011" lon="1.6294">
        <ele>280</ele>
        <time>2012-09-23T11:29:18Z</time>
      </trkpt>
      <trkpt lat="43.14001" lon="1.62943">
        <ele>280</ele>
        <time>2012-09-23T11:29:20Z</time>
      </trkpt>
      <trkpt lat="43.13987" lon="1.6295">
        <ele>281</ele>
        <time>2012-09-23T11:29:23Z</time>
      </trkpt>
      <trkpt lat="43.13977" lon="1.62954">
        <ele>281</ele>
        <time>2012-09-23T11:29:25Z</time>
      </trkpt>
      <trkpt lat="43.13968" lon="1.62958">
        <ele>281</ele>
        <time>2012-09-23T11:29:27Z</time>
      </trkpt>
      <trkpt lat="43.13958" lon="1.62962">
        <ele>281</ele>
        <time>2012-09-23T11:29:29Z</time>
      </trkpt>
      <trkpt lat="43.13948" lon="1.62965">
        <ele>281</ele>
        <time>2012-09-23T11:29:31Z</time>
      </trkpt>
      <trkpt lat="43.13939" lon="1.62969">
        <ele>282</ele>
        <time>2012-09-23T11:29:33Z</time>
      </trkpt>
      <trkpt lat="43.13935" lon="1.62978">
        <ele>282</ele>
        <time>2012-09-23T11:29:35Z</time>
      </trkpt>
      <trkpt lat="43.13943" lon="1.62994">
        <ele>282</ele>
        <time>2012-09-23T11:29:38Z</time>
      </trkpt>
      <trkpt lat="43.13951" lon="1.63004">
        <ele>282</ele>
        <time>2012-09-23T11:29:40Z</time>
      </trkpt>
      <trkpt lat="43.13964" lon="1.6302">
        <ele>282</ele>
        <time>2012-09-23T11:29:43Z</time>
      </trkpt>
      <trkpt lat="43.13974" lon="1.63031">
        <ele>282</ele>
        <time>2012-09-23T11:29:45Z</time>
      </trkpt>
      <trkpt lat="43.13983" lon="1.63043">
        <ele>282</ele>
        <time>2012-09-23T11:29:47Z</time>
      </trkpt>
      <trkpt lat="43.13992" lon="1.63055">
        <ele>282</ele>
        <time>2012-09-23T11:29:49Z</time>
      </trkpt>
      <trkpt lat="43.14002" lon="1.63067">
        <ele>283</ele>
        <time>2012-09-23T11:29:51Z</time>
      </trkpt>
      <trkpt lat="43.14011" lon="1.6308">
        <ele>283</ele>
        <time>2012-09-23T11:29:53Z</time>
      </trkpt>
      <trkpt lat="43.14021" lon="1.63093">
        <ele>283</ele>
        <time>2012-09-23T11:29:55Z</time>
      </trkpt>
      <trkpt lat="43.1403" lon="1.63105">
        <ele>283</ele>
        <time>2012-09-23T11:29:57Z</time>
      </trkpt>
      <trkpt lat="43.1404" lon="1.63118">
        <ele>283</ele>
        <time>2012-09-23T11:29:59Z</time>
      </trkpt>
      <trkpt lat="43.14049" lon="1.63129">
        <ele>283</ele>
        <time>2012-09-23T11:30:01Z</time>
      </trkpt>
      <trkpt lat="43.14058" lon="1.63141">
        <ele>283</ele>
        <time>2012-09-23T11:30:03Z</time>
      </trkpt>
      <trkpt lat="43.14067" lon="1.63153">
        <ele>284</ele>
        <time>2012-09-23T11:30:05Z</time>
      </trkpt>
      <trkpt lat="43.14074" lon="1.63166">
        <ele>284</ele>
        <time>2012-09-23T11:30:07Z</time>
      </trkpt>
      <trkpt lat="43.14077" lon="1.63183">
        <ele>284</ele>
        <time>2012-09-23T11:30:09Z</time>
      </trkpt>
      <trkpt lat="43.14077" lon="1.63209">
        <ele>284</ele>
        <time>2012-09-23T11:30:12Z</time>
      </trkpt>
      <trkpt lat="43.14076" lon="1.63227">
        <ele>284</ele>
        <time>2012-09-23T11:30:14Z</time>
      </trkpt>
      <trkpt lat="43.14075" lon="1.63245">
        <ele>284</ele>
        <time>2012-09-23T11:30:16Z</time>
      </trkpt>
      <trkpt lat="43.14074" lon="1.63263">
        <ele>284</ele>
        <time>2012-09-23T11:30:18Z</time>
      </trkpt>
      <trkpt lat="43.14074" lon="1.6328">
        <ele>284</ele>
        <time>2012-09-23T11:30:20Z</time>
      </trkpt>
      <trkpt lat="43.14073" lon="1.63297">
        <ele>284</ele>
        <time>2012-09-23T11:30:22Z</time>
      </trkpt>
      <trkpt lat="43.14072" lon="1.63314">
        <ele>284</ele>
        <time>2012-09-23T11:30:24Z</time>
      </trkpt>
      <trkpt lat="43.14071" lon="1.6333">
        <ele>284</ele>
        <time>2012-09-23T11:30:26Z</time>
      </trkpt>
      <trkpt lat="43.1407" lon="1.63347">
        <ele>284</ele>
        <time>2012-09-23T11:30:28Z</time>
      </trkpt>
      <trkpt lat="43.14069" lon="1.63364">
        <ele>284</ele>
        <time>2012-09-23T11:30:30Z</time>
      </trkpt>
      <trkpt lat="43.14069" lon="1.63388">
        <ele>284</ele>
        <time>2012-09-23T11:30:33Z</time>
      </trkpt>
      <trkpt lat="43.14067" lon="1.63404">
        <ele>284</ele>
        <time>2012-09-23T11:30:35Z</time>
      </trkpt>
      <trkpt lat="43.14067" lon="1.6342">
        <ele>284</ele>
        <time>2012-09-23T11:30:37Z</time>
      </trkpt>
      <trkpt lat="43.14067" lon="1.63436">
        <ele>284</ele>
        <time>2012-09-23T11:30:39Z</time>
      </trkpt>
      <trkpt lat="43.14067" lon="1.63452">
        <ele>284</ele>
        <time>2012-09-23T11:30:41Z</time>
      </trkpt>
      <trkpt lat="43.14067" lon="1.63468">
        <ele>284</ele>
        <time>2012-09-23T11:30:43Z</time>
      </trkpt>
      <trkpt lat="43.14067" lon="1.63483">
        <ele>284</ele>
        <time>2012-09-23T11:30:45Z</time>
      </trkpt>
      <trkpt lat="43.14068" lon="1.63498">
        <ele>284</ele>
        <time>2012-09-23T11:30:47Z</time>
      </trkpt>
      <trkpt lat="43.14069" lon="1.63513">
        <ele>284</ele>
        <time>2012-09-23T11:30:49Z</time>
      </trkpt>
      <trkpt lat="43.1407" lon="1.63529">
        <ele>284</ele>
        <time>2012-09-23T11:30:51Z</time>
      </trkpt>
      <trkpt lat="43.14071" lon="1.63544">
        <ele>284</ele>
        <time>2012-09-23T11:30:53Z</time>
      </trkpt>
      <trkpt lat="43.14072" lon="1.63559">
        <ele>284</ele>
        <time>2012-09-23T11:30:55Z</time>
      </trkpt>
      <trkpt lat="43.14073" lon="1.63573">
        <ele>284</ele>
        <time>2012-09-23T11:30:57Z</time>
      </trkpt>
      <trkpt lat="43.14075" lon="1.63587">
        <ele>284</ele>
        <time>2012-09-23T11:30:59Z</time>
      </trkpt>
      <trkpt lat="43.14076" lon="1.636">
        <ele>284</ele>
        <time>2012-09-23T11:31:01Z</time>
      </trkpt>
      <trkpt lat="43.14077" lon="1.63613">
        <ele>284</ele>
        <time>2012-09-23T11:31:03Z</time>
      </trkpt>
      <trkpt lat="43.14078" lon="1.63627">
        <ele>284</ele>
        <time>2012-09-23T11:31:05Z</time>
      </trkpt>
      <trkpt lat="43.1408" lon="1.63647">
        <ele>284</ele>
        <time>2012-09-23T11:31:08Z</time>
      </trkpt>
      <trkpt lat="43.1408" lon="1.63661">
        <ele>284</ele>
        <time>2012-09-23T11:31:10Z</time>
      </trkpt>
      <trkpt lat="43.14081" lon="1.63674">
        <ele>284</ele>
        <time>2012-09-23T11:31:12Z</time>
      </trkpt>
      <trkpt lat="43.14082" lon="1.63688">
        <ele>284</ele>
        <time>2012-09-23T11:31:14Z</time>
      </trkpt>
      <trkpt lat="43.14084" lon="1.63702">
        <ele>284</ele>
        <time>2012-09-23T11:31:16Z</time>
      </trkpt>
      <trkpt lat="43.14085" lon="1.63717">
        <ele>284</ele>
        <time>2012-09-23T11:31:18Z</time>
      </trkpt>
      <trkpt lat="43.14087" lon="1.6373">
        <ele>284</ele>
        <time>2012-09-23T11:31:20Z</time>
      </trkpt>
      <trkpt lat="43.14088" lon="1.63744">
        <ele>284</ele>
        <time>2012-09-23T11:31:22Z</time>
      </trkpt>
      <trkpt lat="43.14089" lon="1.63759">
        <ele>284</ele>
        <time>2012-09-23T11:31:24Z</time>
      </trkpt>
      <trkpt lat="43.1409" lon="1.63773">
        <ele>284</ele>
        <time>2012-09-23T11:31:26Z</time>
      </trkpt>
      <trkpt lat="43.14092" lon="1.63787">
        <ele>284</ele>
        <time>2012-09-23T11:31:28Z</time>
      </trkpt>
      <trkpt lat="43.14093" lon="1.63801">
        <ele>284</ele>
        <time>2012-09-23T11:31:30Z</time>
      </trkpt>
      <trkpt lat="43.14095" lon="1.63821">
        <ele>284</ele>
        <time>2012-09-23T11:31:33Z</time>
      </trkpt>
      <trkpt lat="43.14097" lon="1.63835">
        <ele>284</ele>
        <time>2012-09-23T11:31:35Z</time>
      </trkpt>
      <trkpt lat="43.14098" lon="1.63848">
        <ele>284</ele>
        <time>2012-09-23T11:31:37Z</time>
      </trkpt>
      <trkpt lat="43.14098" lon="1.63862">
        <ele>284</ele>
        <time>2012-09-23T11:31:39Z</time>
      </trkpt>
      <trkpt lat="43.141" lon="1.63876">
        <ele>284</ele>
        <time>2012-09-23T11:31:41Z</time>
      </trkpt>
      <trkpt lat="43.141" lon="1.63889">
        <ele>284</ele>
        <time>2012-09-23T11:31:43Z</time>
      </trkpt>
      <trkpt lat="43.14101" lon="1.63902">
        <ele>284</ele>
        <time>2012-09-23T11:31:45Z</time>
      </trkpt>
      <trkpt lat="43.14103" lon="1.63923">
        <ele>284</ele>
        <time>2012-09-23T11:31:48Z</time>
      </trkpt>
      <trkpt lat="43.14104" lon="1.63935">
        <ele>284</ele>
        <time>2012-09-23T11:31:50Z</time>
      </trkpt>
      <trkpt lat="43.14106" lon="1.63948">
        <ele>284</ele>
        <time>2012-09-23T11:31:52Z</time>
      </trkpt>
      <trkpt lat="43.14108" lon="1.63961">
        <ele>284</ele>
        <time>2012-09-23T11:31:54Z</time>
      </trkpt>
      <trkpt lat="43.1411" lon="1.63973">
        <ele>284</ele>
        <time>2012-09-23T11:31:56Z</time>
      </trkpt>
      <trkpt lat="43.14112" lon="1.63986">
        <ele>284</ele>
        <time>2012-09-23T11:31:58Z</time>
      </trkpt>
      <trkpt lat="43.14115" lon="1.63999">
        <ele>284</ele>
        <time>2012-09-23T11:32:00Z</time>
      </trkpt>
      <trkpt lat="43.14117" lon="1.64018">
        <ele>284</ele>
        <time>2012-09-23T11:32:03Z</time>
      </trkpt>
      <trkpt lat="43.14119" lon="1.64031">
        <ele>284</ele>
        <time>2012-09-23T11:32:05Z</time>
      </trkpt>
      <trkpt lat="43.1412" lon="1.64043">
        <ele>284</ele>
        <time>2012-09-23T11:32:07Z</time>
      </trkpt>
      <trkpt lat="43.14122" lon="1.64056">
        <ele>284</ele>
        <time>2012-09-23T11:32:09Z</time>
      </trkpt>
      <trkpt lat="43.14125" lon="1.64076">
        <ele>284</ele>
        <time>2012-09-23T11:32:12Z</time>
      </trkpt>
      <trkpt lat="43.14127" lon="1.64088">
        <ele>284</ele>
        <time>2012-09-23T11:32:14Z</time>
      </trkpt>
      <trkpt lat="43.14128" lon="1.64102">
        <ele>284</ele>
        <time>2012-09-23T11:32:16Z</time>
      </trkpt>
      <trkpt lat="43.14129" lon="1.64115">
        <ele>284</ele>
        <time>2012-09-23T11:32:18Z</time>
      </trkpt>
      <trkpt lat="43.1413" lon="1.64128">
        <ele>284</ele>
        <time>2012-09-23T11:32:20Z</time>
      </trkpt>
      <trkpt lat="43.14132" lon="1.64141">
        <ele>284</ele>
        <time>2012-09-23T11:32:22Z</time>
      </trkpt>
      <trkpt lat="43.14134" lon="1.64154">
        <ele>284</ele>
        <time>2012-09-23T11:32:24Z</time>
      </trkpt>
      <trkpt lat="43.14135" lon="1.64168">
        <ele>284</ele>
        <time>2012-09-23T11:32:26Z</time>
      </trkpt>
      <trkpt lat="43.14136" lon="1.64181">
        <ele>284</ele>
        <time>2012-09-23T11:32:28Z</time>
      </trkpt>
      <trkpt lat="43.14137" lon="1.64195">
        <ele>284</ele>
        <time>2012-09-23T11:32:30Z</time>
      </trkpt>
      <trkpt lat="43.14138" lon="1.64208">
        <ele>284</ele>
        <time>2012-09-23T11:32:32Z</time>
      </trkpt>
      <trkpt lat="43.1414" lon="1.64221">
        <ele>284</ele>
        <time>2012-09-23T11:32:34Z</time>
      </trkpt>
      <trkpt lat="43.1414" lon="1.64234">
        <ele>284</ele>
        <time>2012-09-23T11:32:36Z</time>
      </trkpt>
      <trkpt lat="43.14142" lon="1.64247">
        <ele>284</ele>
        <time>2012-09-23T11:32:38Z</time>
      </trkpt>
      <trkpt lat="43.14143" lon="1.6426">
        <ele>284</ele>
        <time>2012-09-23T11:32:40Z</time>
      </trkpt>
      <trkpt lat="43.14145" lon="1.64272">
        <ele>284</ele>
        <time>2012-09-23T11:32:42Z</time>
      </trkpt>
      <trkpt lat="43.14146" lon="1.64285">
        <ele>284</ele>
        <time>2012-09-23T11:32:44Z</time>
      </trkpt>
      <trkpt lat="43.14147" lon="1.64296">
        <ele>284</ele>
        <time>2012-09-23T11:32:46Z</time>
      </trkpt>
      <trkpt lat="43.14148" lon="1.64307">
        <ele>284</ele>
        <time>2012-09-23T11:32:48Z</time>
      </trkpt>
      <trkpt lat="43.1415" lon="1.64318">
        <ele>284</ele>
        <time>2012-09-23T11:32:50Z</time>
      </trkpt>
      <trkpt lat="43.14151" lon="1.64329">
        <ele>284</ele>
        <time>2012-09-23T11:32:52Z</time>
      </trkpt>
      <trkpt lat="43.14151" lon="1.64339">
        <ele>284</ele>
        <time>2012-09-23T11:32:54Z</time>
      </trkpt>
      <trkpt lat="43.14149" lon="1.64348">
        <ele>284</ele>
        <time>2012-09-23T11:32:56Z</time>
      </trkpt>
      <trkpt lat="43.14143" lon="1.64355">
        <ele>284</ele>
        <time>2012-09-23T11:32:58Z</time>
      </trkpt>
      <trkpt lat="43.14136" lon="1.64359">
        <ele>284</ele>
        <time>2012-09-23T11:33:00Z</time>
      </trkpt>
      <trkpt lat="43.14127" lon="1.64363">
        <ele>284</ele>
        <time>2012-09-23T11:33:02Z</time>
      </trkpt>
      <trkpt lat="43.14119" lon="1.64367">
        <ele>284</ele>
        <time>2012-09-23T11:33:04Z</time>
      </trkpt>
      <trkpt lat="43.14109" lon="1.64372">
        <ele>284</ele>
        <time>2012-09-23T11:33:06Z</time>
      </trkpt>
      <trkpt lat="43.141" lon="1.64375">
        <ele>284</ele>
        <time>2012-09-23T11:33:08Z</time>
      </trkpt>
      <trkpt lat="43.1409" lon="1.64378">
        <ele>284</ele>
        <time>2012-09-23T11:33:10Z</time>
      </trkpt>
      <trkpt lat="43.1408" lon="1.64382">
        <ele>284</ele>
        <time>2012-09-23T11:33:12Z</time>
      </trkpt>
      <trkpt lat="43.14069" lon="1.64384">
        <ele>284</ele>
        <time>2012-09-23T11:33:14Z</time>
      </trkpt>
      <trkpt lat="43.14059" lon="1.64387">
        <ele>285</ele>
        <time>2012-09-23T11:33:16Z</time>
      </trkpt>
      <trkpt lat="43.14048" lon="1.64389">
        <ele>285</ele>
        <time>2012-09-23T11:33:18Z</time>
      </trkpt>
      <trkpt lat="43.14037" lon="1.64392">
        <ele>285</ele>
        <time>2012-09-23T11:33:20Z</time>
      </trkpt>
      <trkpt lat="43.14026" lon="1.64394">
        <ele>285</ele>
        <time>2012-09-23T11:33:22Z</time>
      </trkpt>
      <trkpt lat="43.14015" lon="1.64397">
        <ele>285</ele>
        <time>2012-09-23T11:33:24Z</time>
      </trkpt>
      <trkpt lat="43.14005" lon="1.644">
        <ele>285</ele>
        <time>2012-09-23T11:33:26Z</time>
      </trkpt>
      <trkpt lat="43.13994" lon="1.64402">
        <ele>285</ele>
        <time>2012-09-23T11:33:28Z</time>
      </trkpt>
      <trkpt lat="43.13983" lon="1.64405">
        <ele>285</ele>
        <time>2012-09-23T11:33:30Z</time>
      </trkpt>
      <trkpt lat="43.13972" lon="1.64407">
        <ele>285</ele>
        <time>2012-09-23T11:33:32Z</time>
      </trkpt>
      <trkpt lat="43.13962" lon="1.6441">
        <ele>286</ele>
        <time>2012-09-23T11:33:34Z</time>
      </trkpt>
      <trkpt lat="43.13952" lon="1.64412">
        <ele>286</ele>
        <time>2012-09-23T11:33:36Z</time>
      </trkpt>
      <trkpt lat="43.13941" lon="1.64415">
        <ele>286</ele>
        <time>2012-09-23T11:33:38Z</time>
      </trkpt>
      <trkpt lat="43.13931" lon="1.64417">
        <ele>286</ele>
        <time>2012-09-23T11:33:40Z</time>
      </trkpt>
      <trkpt lat="43.1392" lon="1.6442">
        <ele>287</ele>
        <time>2012-09-23T11:33:42Z</time>
      </trkpt>
      <trkpt lat="43.13909" lon="1.64423">
        <ele>287</ele>
        <time>2012-09-23T11:33:44Z</time>
      </trkpt>
      <trkpt lat="43.13898" lon="1.64426">
        <ele>287</ele>
        <time>2012-09-23T11:33:46Z</time>
      </trkpt>
      <trkpt lat="43.13886" lon="1.64428">
        <ele>287</ele>
        <time>2012-09-23T11:33:48Z</time>
      </trkpt>
      <trkpt lat="43.13875" lon="1.64431">
        <ele>287</ele>
        <time>2012-09-23T11:33:50Z</time>
      </trkpt>
      <trkpt lat="43.13864" lon="1.64435">
        <ele>288</ele>
        <time>2012-09-23T11:33:52Z</time>
      </trkpt>
      <trkpt lat="43.13852" lon="1.64438">
        <ele>288</ele>
        <time>2012-09-23T11:33:54Z</time>
      </trkpt>
      <trkpt lat="43.13841" lon="1.64444">
        <ele>288</ele>
        <time>2012-09-23T11:33:56Z</time>
      </trkpt>
      <trkpt lat="43.13829" lon="1.6445">
        <ele>288</ele>
        <time>2012-09-23T11:33:58Z</time>
      </trkpt>
      <trkpt lat="43.13818" lon="1.64456">
        <ele>288</ele>
        <time>2012-09-23T11:34:00Z</time>
      </trkpt>
      <trkpt lat="43.13807" lon="1.64463">
        <ele>288</ele>
        <time>2012-09-23T11:34:02Z</time>
      </trkpt>
      <trkpt lat="43.13796" lon="1.6447">
        <ele>288</ele>
        <time>2012-09-23T11:34:04Z</time>
      </trkpt>
      <trkpt lat="43.13784" lon="1.64477">
        <ele>288</ele>
        <time>2012-09-23T11:34:06Z</time>
      </trkpt>
      <trkpt lat="43.13773" lon="1.64484">
        <ele>288</ele>
        <time>2012-09-23T11:34:08Z</time>
      </trkpt>
      <trkpt lat="43.13762" lon="1.64491">
        <ele>288</ele>
        <time>2012-09-23T11:34:10Z</time>
      </trkpt>
      <trkpt lat="43.13749" lon="1.64497">
        <ele>288</ele>
        <time>2012-09-23T11:34:12Z</time>
      </trkpt>
      <trkpt lat="43.13738" lon="1.64504">
        <ele>288</ele>
        <time>2012-09-23T11:34:14Z</time>
      </trkpt>
      <trkpt lat="43.13726" lon="1.6451">
        <ele>288</ele>
        <time>2012-09-23T11:34:16Z</time>
      </trkpt>
      <trkpt lat="43.13715" lon="1.64516">
        <ele>288</ele>
        <time>2012-09-23T11:34:18Z</time>
      </trkpt>
      <trkpt lat="43.13703" lon="1.64523">
        <ele>288</ele>
        <time>2012-09-23T11:34:20Z</time>
      </trkpt>
      <trkpt lat="43.13692" lon="1.64529">
        <ele>288</ele>
        <time>2012-09-23T11:34:22Z</time>
      </trkpt>
      <trkpt lat="43.1368" lon="1.64535">
        <ele>288</ele>
        <time>2012-09-23T11:34:24Z</time>
      </trkpt>
      <trkpt lat="43.13669" lon="1.64542">
        <ele>288</ele>
        <time>2012-09-23T11:34:26Z</time>
      </trkpt>
      <trkpt lat="43.13658" lon="1.64548">
        <ele>288</ele>
        <time>2012-09-23T11:34:28Z</time>
      </trkpt>
      <trkpt lat="43.13647" lon="1.64555">
        <ele>288</ele>
        <time>2012-09-23T11:34:30Z</time>
      </trkpt>
      <trkpt lat="43.13636" lon="1.64561">
        <ele>288</ele>
        <time>2012-09-23T11:34:32Z</time>
      </trkpt>
      <trkpt lat="43.13625" lon="1.64567">
        <ele>288</ele>
        <time>2012-09-23T11:34:34Z</time>
      </trkpt>
      <trkpt lat="43.13614" lon="1.64574">
        <ele>288</ele>
        <time>2012-09-23T11:34:36Z</time>
      </trkpt>
      <trkpt lat="43.13603" lon="1.6458">
        <ele>288</ele>
        <time>2012-09-23T11:34:38Z</time>
      </trkpt>
      <trkpt lat="43.13592" lon="1.64586">
        <ele>288</ele>
        <time>2012-09-23T11:34:40Z</time>
      </trkpt>
      <trkpt lat="43.13581" lon="1.64593">
        <ele>288</ele>
        <time>2012-09-23T11:34:42Z</time>
      </trkpt>
      <trkpt lat="43.13569" lon="1.646">
        <ele>288</ele>
        <time>2012-09-23T11:34:44Z</time>
      </trkpt>
      <trkpt lat="43.13558" lon="1.64607">
        <ele>288</ele>
        <time>2012-09-23T11:34:46Z</time>
      </trkpt>
      <trkpt lat="43.13547" lon="1.64613">
        <ele>288</ele>
        <time>2012-09-23T11:34:48Z</time>
      </trkpt>
      <trkpt lat="43.13536" lon="1.6462">
        <ele>288</ele>
        <time>2012-09-23T11:34:50Z</time>
      </trkpt>
      <trkpt lat="43.13524" lon="1.64627">
        <ele>289</ele>
        <time>2012-09-23T11:34:52Z</time>
      </trkpt>
      <trkpt lat="43.13512" lon="1.64634">
        <ele>289</ele>
        <time>2012-09-23T11:34:54Z</time>
      </trkpt>
      <trkpt lat="43.13501" lon="1.6464">
        <ele>289</ele>
        <time>2012-09-23T11:34:56Z</time>
      </trkpt>
      <trkpt lat="43.13488" lon="1.64647">
        <ele>289</ele>
        <time>2012-09-23T11:34:58Z</time>
      </trkpt>
      <trkpt lat="43.13477" lon="1.64653">
        <ele>290</ele>
        <time>2012-09-23T11:35:00Z</time>
      </trkpt>
      <trkpt lat="43.13465" lon="1.6466">
        <ele>290</ele>
        <time>2012-09-23T11:35:02Z</time>
      </trkpt>
      <trkpt lat="43.13453" lon="1.64668">
        <ele>290</ele>
        <time>2012-09-23T11:35:04Z</time>
      </trkpt>
      <trkpt lat="43.13441" lon="1.64675">
        <ele>291</ele>
        <time>2012-09-23T11:35:06Z</time>
      </trkpt>
      <trkpt lat="43.1343" lon="1.64682">
        <ele>291</ele>
        <time>2012-09-23T11:35:08Z</time>
      </trkpt>
      <trkpt lat="43.13417" lon="1.64689">
        <ele>292</ele>
        <time>2012-09-23T11:35:10Z</time>
      </trkpt>
      <trkpt lat="43.13406" lon="1.64697">
        <ele>292</ele>
        <time>2012-09-23T11:35:12Z</time>
      </trkpt>
      <trkpt lat="43.13393" lon="1.64704">
        <ele>292</ele>
        <time>2012-09-23T11:35:14Z</time>
      </trkpt>
      <trkpt lat="43.13382" lon="1.64712">
        <ele>292</ele>
        <time>2012-09-23T11:35:16Z</time>
      </trkpt>
      <trkpt lat="43.13372" lon="1.64719">
        <ele>293</ele>
        <time>2012-09-23T11:35:18Z</time>
      </trkpt>
      <trkpt lat="43.13363" lon="1.64727">
        <ele>293</ele>
        <time>2012-09-23T11:35:20Z</time>
      </trkpt>
      <trkpt lat="43.13355" lon="1.64738">
        <ele>293</ele>
        <time>2012-09-23T11:35:22Z</time>
      </trkpt>
      <trkpt lat="43.13349" lon="1.64752">
        <ele>293</ele>
        <time>2012-09-23T11:35:24Z</time>
      </trkpt>
      <trkpt lat="43.13346" lon="1.64767">
        <ele>293</ele>
        <time>2012-09-23T11:35:26Z</time>
      </trkpt>
      <trkpt lat="43.13346" lon="1.64781">
        <ele>293</ele>
        <time>2012-09-23T11:35:28Z</time>
      </trkpt>
      <trkpt lat="43.1335" lon="1.64794">
        <ele>293</ele>
        <time>2012-09-23T11:35:30Z</time>
      </trkpt>
      <trkpt lat="43.13354" lon="1.64809">
        <ele>293</ele>
        <time>2012-09-23T11:35:32Z</time>
      </trkpt>
      <trkpt lat="43.13359" lon="1.64824">
        <ele>293</ele>
        <time>2012-09-23T11:35:34Z</time>
      </trkpt>
      <trkpt lat="43.13363" lon="1.64839">
        <ele>293</ele>
        <time>2012-09-23T11:35:36Z</time>
      </trkpt>
      <trkpt lat="43.13367" lon="1.64854">
        <ele>293</ele>
        <time>2012-09-23T11:35:38Z</time>
      </trkpt>
      <trkpt lat="43.13372" lon="1.64869">
        <ele>293</ele>
        <time>2012-09-23T11:35:40Z</time>
      </trkpt>
      <trkpt lat="43.13376" lon="1.64883">
        <ele>293</ele>
        <time>2012-09-23T11:35:42Z</time>
      </trkpt>
      <trkpt lat="43.13381" lon="1.64899">
        <ele>293</ele>
        <time>2012-09-23T11:35:44Z</time>
      </trkpt>
      <trkpt lat="43.13386" lon="1.64915">
        <ele>293</ele>
        <time>2012-09-23T11:35:46Z</time>
      </trkpt>
      <trkpt lat="43.13391" lon="1.6493">
        <ele>293</ele>
        <time>2012-09-23T11:35:48Z</time>
      </trkpt>
      <trkpt lat="43.13395" lon="1.64945">
        <ele>293</ele>
        <time>2012-09-23T11:35:50Z</time>
      </trkpt>
      <trkpt lat="43.134" lon="1.6496">
        <ele>293</ele>
        <time>2012-09-23T11:35:52Z</time>
      </trkpt>
      <trkpt lat="43.13403" lon="1.64975">
        <ele>293</ele>
        <time>2012-09-23T11:35:54Z</time>
      </trkpt>
      <trkpt lat="43.13408" lon="1.64988">
        <ele>293</ele>
        <time>2012-09-23T11:35:56Z</time>
      </trkpt>
      <trkpt lat="43.13411" lon="1.64996">
        <ele>293</ele>
        <time>2012-09-23T11:35:58Z</time>
      </trkpt>
      <trkpt lat="43.13412" lon="1.64998">
        <ele>293</ele>
        <time>2012-09-23T11:36:00Z</time>
      </trkpt>
      <trkpt lat="43.13413" lon="1.64997">
        <ele>293</ele>
        <time>2012-09-23T11:36:14Z</time>
      </trkpt>
      <trkpt lat="43.13412" lon="1.64996">
        <ele>293</ele>
        <time>2012-09-23T11:37:52Z</time>
      </trkpt>
      <trkpt lat="43.13414" lon="1.64997">
        <ele>293</ele>
        <time>2012-09-23T11:38:35Z</time>
      </trkpt>
      <trkpt lat="43.13412" lon="1.64997">
        <ele>292</ele>
        <time>2012-09-23T11:39:48Z</time>
      </trkpt>
      <trkpt lat="43.13413" lon="1.64997">
        <ele>292</ele>
        <time>2012-09-23T11:40:08Z</time>
      </trkpt>
    </trkseg>
  </trk>
</gpx>